<?xml version="1.0" encoding="UTF-8" standalone="no" ?>
<gpx xmlns="http://www.topografix.com/GPX/1/1" xmlns:xsi="http://www.w3.org/2001/XMLSchema-instance" xsi:schemaLocation="http://www.topografix.com/GPX/1/1 http://www.topografix.com/GPX/1/1/gpx.xsd" version="1.1" creator="VisuGPX - https://www.visugpx.com">
  <metadata>
    <name>Tour des Gorges du Verdon</name>
    <desc><![CDATA[Tour des Gorges du Verdon, rive droite puis gauche]]></desc>
  </metadata>
  <trk>
    <name><![CDATA[Verdon OCT-02-13]]></name>
    <trkseg>
      <trkpt lat="43.74013" lon="6.38198">
        <ele>787.94</ele>
        <time>2013-10-02T07:02:09Z</time>
      </trkpt>
      <trkpt lat="43.74013" lon="6.38197">
        <ele>787.46</ele>
        <time>2013-10-02T07:02:29Z</time>
      </trkpt>
      <trkpt lat="43.74025" lon="6.38195">
        <ele>789.86</ele>
        <time>2013-10-02T07:02:37Z</time>
      </trkpt>
      <trkpt lat="43.7403" lon="6.38196">
        <ele>791.3</ele>
        <time>2013-10-02T07:02:39Z</time>
      </trkpt>
      <trkpt lat="43.74037" lon="6.38197">
        <ele>790.82</ele>
        <time>2013-10-02T07:02:42Z</time>
      </trkpt>
      <trkpt lat="43.74063" lon="6.382">
        <ele>793.22</ele>
        <time>2013-10-02T07:02:53Z</time>
      </trkpt>
      <trkpt lat="43.74089" lon="6.3821">
        <ele>795.63</ele>
        <time>2013-10-02T07:03:05Z</time>
      </trkpt>
      <trkpt lat="43.74106" lon="6.38217">
        <ele>797.07</ele>
        <time>2013-10-02T07:03:13Z</time>
      </trkpt>
      <trkpt lat="43.74119" lon="6.38218">
        <ele>797.55</ele>
        <time>2013-10-02T07:03:19Z</time>
      </trkpt>
      <trkpt lat="43.74143" lon="6.38205">
        <ele>799.95</ele>
        <time>2013-10-02T07:03:30Z</time>
      </trkpt>
      <trkpt lat="43.74173" lon="6.3819">
        <ele>802.36</ele>
        <time>2013-10-02T07:03:44Z</time>
      </trkpt>
      <trkpt lat="43.742" lon="6.382">
        <ele>804.28</ele>
        <time>2013-10-02T07:03:56Z</time>
      </trkpt>
      <trkpt lat="43.7423" lon="6.38213">
        <ele>807.16</ele>
        <time>2013-10-02T07:04:09Z</time>
      </trkpt>
      <trkpt lat="43.74245" lon="6.38238">
        <ele>809.57</ele>
        <time>2013-10-02T07:04:19Z</time>
      </trkpt>
      <trkpt lat="43.74244" lon="6.38266">
        <ele>811.01</ele>
        <time>2013-10-02T07:04:28Z</time>
      </trkpt>
      <trkpt lat="43.74227" lon="6.38304">
        <ele>813.41</ele>
        <time>2013-10-02T07:04:41Z</time>
      </trkpt>
      <trkpt lat="43.7421" lon="6.38351">
        <ele>816.78</ele>
        <time>2013-10-02T07:04:55Z</time>
      </trkpt>
      <trkpt lat="43.74199" lon="6.38392">
        <ele>818.7</ele>
        <time>2013-10-02T07:05:07Z</time>
      </trkpt>
      <trkpt lat="43.74192" lon="6.38438">
        <ele>820.14</ele>
        <time>2013-10-02T07:05:19Z</time>
      </trkpt>
      <trkpt lat="43.74188" lon="6.38488">
        <ele>822.55</ele>
        <time>2013-10-02T07:05:31Z</time>
      </trkpt>
      <trkpt lat="43.74186" lon="6.38539">
        <ele>824.47</ele>
        <time>2013-10-02T07:05:43Z</time>
      </trkpt>
      <trkpt lat="43.74193" lon="6.3859">
        <ele>826.39</ele>
        <time>2013-10-02T07:05:55Z</time>
      </trkpt>
      <trkpt lat="43.74209" lon="6.38636">
        <ele>828.31</ele>
        <time>2013-10-02T07:06:07Z</time>
      </trkpt>
      <trkpt lat="43.7422" lon="6.38678">
        <ele>830.72</ele>
        <time>2013-10-02T07:06:18Z</time>
      </trkpt>
      <trkpt lat="43.74215" lon="6.38723">
        <ele>833.6</ele>
        <time>2013-10-02T07:06:30Z</time>
      </trkpt>
      <trkpt lat="43.74206" lon="6.38774">
        <ele>836</ele>
        <time>2013-10-02T07:06:43Z</time>
      </trkpt>
      <trkpt lat="43.742" lon="6.38825">
        <ele>838.89</ele>
        <time>2013-10-02T07:06:56Z</time>
      </trkpt>
      <trkpt lat="43.742" lon="6.38873">
        <ele>841.29</ele>
        <time>2013-10-02T07:07:08Z</time>
      </trkpt>
      <trkpt lat="43.74204" lon="6.38924">
        <ele>843.69</ele>
        <time>2013-10-02T07:07:21Z</time>
      </trkpt>
      <trkpt lat="43.7421" lon="6.38947">
        <ele>845.62</ele>
        <time>2013-10-02T07:07:27Z</time>
      </trkpt>
      <trkpt lat="43.74222" lon="6.38987">
        <ele>848.02</ele>
        <time>2013-10-02T07:07:38Z</time>
      </trkpt>
      <trkpt lat="43.74237" lon="6.39029">
        <ele>849.94</ele>
        <time>2013-10-02T07:07:50Z</time>
      </trkpt>
      <trkpt lat="43.74253" lon="6.39069">
        <ele>853.31</ele>
        <time>2013-10-02T07:08:02Z</time>
      </trkpt>
      <trkpt lat="43.74271" lon="6.39106">
        <ele>855.71</ele>
        <time>2013-10-02T07:08:13Z</time>
      </trkpt>
      <trkpt lat="43.74295" lon="6.39132">
        <ele>858.11</ele>
        <time>2013-10-02T07:08:24Z</time>
      </trkpt>
      <trkpt lat="43.74327" lon="6.39156">
        <ele>861</ele>
        <time>2013-10-02T07:08:37Z</time>
      </trkpt>
      <trkpt lat="43.74353" lon="6.39176">
        <ele>863.4</ele>
        <time>2013-10-02T07:08:48Z</time>
      </trkpt>
      <trkpt lat="43.74376" lon="6.39184">
        <ele>865.8</ele>
        <time>2013-10-02T07:08:58Z</time>
      </trkpt>
      <trkpt lat="43.74401" lon="6.39168">
        <ele>867.25</ele>
        <time>2013-10-02T07:09:09Z</time>
      </trkpt>
      <trkpt lat="43.74424" lon="6.39141">
        <ele>869.65</ele>
        <time>2013-10-02T07:09:21Z</time>
      </trkpt>
      <trkpt lat="43.7445" lon="6.39111">
        <ele>872.53</ele>
        <time>2013-10-02T07:09:33Z</time>
      </trkpt>
      <trkpt lat="43.7448" lon="6.39092">
        <ele>874.94</ele>
        <time>2013-10-02T07:09:45Z</time>
      </trkpt>
      <trkpt lat="43.74511" lon="6.39073">
        <ele>877.82</ele>
        <time>2013-10-02T07:09:57Z</time>
      </trkpt>
      <trkpt lat="43.74538" lon="6.39084">
        <ele>879.26</ele>
        <time>2013-10-02T07:10:07Z</time>
      </trkpt>
      <trkpt lat="43.74559" lon="6.39122">
        <ele>881.67</ele>
        <time>2013-10-02T07:10:19Z</time>
      </trkpt>
      <trkpt lat="43.74575" lon="6.39169">
        <ele>884.55</ele>
        <time>2013-10-02T07:10:32Z</time>
      </trkpt>
      <trkpt lat="43.74592" lon="6.39215">
        <ele>886.95</ele>
        <time>2013-10-02T07:10:45Z</time>
      </trkpt>
      <trkpt lat="43.74614" lon="6.39242">
        <ele>889.36</ele>
        <time>2013-10-02T07:10:56Z</time>
      </trkpt>
      <trkpt lat="43.74643" lon="6.39249">
        <ele>891.76</ele>
        <time>2013-10-02T07:11:07Z</time>
      </trkpt>
      <trkpt lat="43.74666" lon="6.3926">
        <ele>894.64</ele>
        <time>2013-10-02T07:11:16Z</time>
      </trkpt>
      <trkpt lat="43.74684" lon="6.39283">
        <ele>896.57</ele>
        <time>2013-10-02T07:11:25Z</time>
      </trkpt>
      <trkpt lat="43.74702" lon="6.39312">
        <ele>898.49</ele>
        <time>2013-10-02T07:11:35Z</time>
      </trkpt>
      <trkpt lat="43.7472" lon="6.39347">
        <ele>901.37</ele>
        <time>2013-10-02T07:11:47Z</time>
      </trkpt>
      <trkpt lat="43.74739" lon="6.39387">
        <ele>904.74</ele>
        <time>2013-10-02T07:12:00Z</time>
      </trkpt>
      <trkpt lat="43.74746" lon="6.39403">
        <ele>906.18</ele>
        <time>2013-10-02T07:12:05Z</time>
      </trkpt>
      <trkpt lat="43.74767" lon="6.39443">
        <ele>909.06</ele>
        <time>2013-10-02T07:12:18Z</time>
      </trkpt>
      <trkpt lat="43.74789" lon="6.39482">
        <ele>911.95</ele>
        <time>2013-10-02T07:12:31Z</time>
      </trkpt>
      <trkpt lat="43.7481" lon="6.39519">
        <ele>913.87</ele>
        <time>2013-10-02T07:12:43Z</time>
      </trkpt>
      <trkpt lat="43.74816" lon="6.39531">
        <ele>915.31</ele>
        <time>2013-10-02T07:12:47Z</time>
      </trkpt>
      <trkpt lat="43.7484" lon="6.39572">
        <ele>917.72</ele>
        <time>2013-10-02T07:13:01Z</time>
      </trkpt>
      <trkpt lat="43.74859" lon="6.39603">
        <ele>921.08</ele>
        <time>2013-10-02T07:13:12Z</time>
      </trkpt>
      <trkpt lat="43.74873" lon="6.39637">
        <ele>921.56</ele>
        <time>2013-10-02T07:13:22Z</time>
      </trkpt>
      <trkpt lat="43.74887" lon="6.39673">
        <ele>924.45</ele>
        <time>2013-10-02T07:13:33Z</time>
      </trkpt>
      <trkpt lat="43.74896" lon="6.39715">
        <ele>927.33</ele>
        <time>2013-10-02T07:13:45Z</time>
      </trkpt>
      <trkpt lat="43.74916" lon="6.39751">
        <ele>930.21</ele>
        <time>2013-10-02T07:13:57Z</time>
      </trkpt>
      <trkpt lat="43.7494" lon="6.39772">
        <ele>932.14</ele>
        <time>2013-10-02T07:14:08Z</time>
      </trkpt>
      <trkpt lat="43.74966" lon="6.39799">
        <ele>935.02</ele>
        <time>2013-10-02T07:14:20Z</time>
      </trkpt>
      <trkpt lat="43.74983" lon="6.39832">
        <ele>937.9</ele>
        <time>2013-10-02T07:14:31Z</time>
      </trkpt>
      <trkpt lat="43.75006" lon="6.39867">
        <ele>939.83</ele>
        <time>2013-10-02T07:14:44Z</time>
      </trkpt>
      <trkpt lat="43.75035" lon="6.399">
        <ele>942.71</ele>
        <time>2013-10-02T07:14:58Z</time>
      </trkpt>
      <trkpt lat="43.75052" lon="6.3992">
        <ele>944.63</ele>
        <time>2013-10-02T07:15:06Z</time>
      </trkpt>
      <trkpt lat="43.75078" lon="6.39948">
        <ele>947.52</ele>
        <time>2013-10-02T07:15:18Z</time>
      </trkpt>
      <trkpt lat="43.75104" lon="6.39985">
        <ele>949.92</ele>
        <time>2013-10-02T07:15:32Z</time>
      </trkpt>
      <trkpt lat="43.75118" lon="6.40028">
        <ele>953.28</ele>
        <time>2013-10-02T07:15:44Z</time>
      </trkpt>
      <trkpt lat="43.75141" lon="6.40054">
        <ele>955.21</ele>
        <time>2013-10-02T07:15:55Z</time>
      </trkpt>
      <trkpt lat="43.75165" lon="6.40074">
        <ele>958.57</ele>
        <time>2013-10-02T07:16:05Z</time>
      </trkpt>
      <trkpt lat="43.75195" lon="6.40089">
        <ele>960.49</ele>
        <time>2013-10-02T07:16:16Z</time>
      </trkpt>
      <trkpt lat="43.75221" lon="6.40109">
        <ele>963.38</ele>
        <time>2013-10-02T07:16:27Z</time>
      </trkpt>
      <trkpt lat="43.75238" lon="6.40146">
        <ele>966.74</ele>
        <time>2013-10-02T07:16:39Z</time>
      </trkpt>
      <trkpt lat="43.75257" lon="6.40178">
        <ele>968.18</ele>
        <time>2013-10-02T07:16:50Z</time>
      </trkpt>
      <trkpt lat="43.75278" lon="6.40216">
        <ele>971.07</ele>
        <time>2013-10-02T07:17:03Z</time>
      </trkpt>
      <trkpt lat="43.753" lon="6.40253">
        <ele>972.99</ele>
        <time>2013-10-02T07:17:15Z</time>
      </trkpt>
      <trkpt lat="43.75313" lon="6.40293">
        <ele>973.95</ele>
        <time>2013-10-02T07:17:25Z</time>
      </trkpt>
      <trkpt lat="43.7531" lon="6.40348">
        <ele>974.91</ele>
        <time>2013-10-02T07:17:36Z</time>
      </trkpt>
      <trkpt lat="43.75303" lon="6.40414">
        <ele>975.88</ele>
        <time>2013-10-02T07:17:48Z</time>
      </trkpt>
      <trkpt lat="43.75279" lon="6.40486">
        <ele>977.32</ele>
        <time>2013-10-02T07:18:02Z</time>
      </trkpt>
      <trkpt lat="43.75257" lon="6.40551">
        <ele>979.24</ele>
        <time>2013-10-02T07:18:15Z</time>
      </trkpt>
      <trkpt lat="43.75255" lon="6.40575">
        <ele>979.72</ele>
        <time>2013-10-02T07:18:19Z</time>
      </trkpt>
      <trkpt lat="43.75259" lon="6.4066">
        <ele>979.72</ele>
        <time>2013-10-02T07:18:32Z</time>
      </trkpt>
      <trkpt lat="43.75263" lon="6.40745">
        <ele>980.68</ele>
        <time>2013-10-02T07:18:44Z</time>
      </trkpt>
      <trkpt lat="43.75264" lon="6.40809">
        <ele>982.12</ele>
        <time>2013-10-02T07:18:53Z</time>
      </trkpt>
      <trkpt lat="43.75252" lon="6.40883">
        <ele>984.53</ele>
        <time>2013-10-02T07:19:05Z</time>
      </trkpt>
      <trkpt lat="43.75239" lon="6.40939">
        <ele>987.89</ele>
        <time>2013-10-02T07:19:17Z</time>
      </trkpt>
      <trkpt lat="43.75226" lon="6.40992">
        <ele>989.33</ele>
        <time>2013-10-02T07:19:29Z</time>
      </trkpt>
      <trkpt lat="43.75222" lon="6.41014">
        <ele>991.26</ele>
        <time>2013-10-02T07:19:34Z</time>
      </trkpt>
      <trkpt lat="43.75214" lon="6.4107">
        <ele>993.18</ele>
        <time>2013-10-02T07:19:47Z</time>
      </trkpt>
      <trkpt lat="43.75215" lon="6.41103">
        <ele>996.54</ele>
        <time>2013-10-02T07:19:55Z</time>
      </trkpt>
      <trkpt lat="43.75216" lon="6.41144">
        <ele>998.47</ele>
        <time>2013-10-02T07:20:05Z</time>
      </trkpt>
      <trkpt lat="43.75218" lon="6.41194">
        <ele>1000.39</ele>
        <time>2013-10-02T07:20:17Z</time>
      </trkpt>
      <trkpt lat="43.75219" lon="6.41239">
        <ele>1000.87</ele>
        <time>2013-10-02T07:20:27Z</time>
      </trkpt>
      <trkpt lat="43.75219" lon="6.41318">
        <ele>1001.35</ele>
        <time>2013-10-02T07:20:42Z</time>
      </trkpt>
      <trkpt lat="43.75219" lon="6.41329">
        <ele>1001.83</ele>
        <time>2013-10-02T07:20:44Z</time>
      </trkpt>
      <trkpt lat="43.75218" lon="6.41335">
        <ele>1001.83</ele>
        <time>2013-10-02T07:20:45Z</time>
      </trkpt>
      <trkpt lat="43.75217" lon="6.4134">
        <ele>1001.83</ele>
        <time>2013-10-02T07:20:46Z</time>
      </trkpt>
      <trkpt lat="43.75216" lon="6.41345">
        <ele>1001.35</ele>
        <time>2013-10-02T07:20:47Z</time>
      </trkpt>
      <trkpt lat="43.75214" lon="6.4135">
        <ele>1001.83</ele>
        <time>2013-10-02T07:20:48Z</time>
      </trkpt>
      <trkpt lat="43.75212" lon="6.41354">
        <ele>1001.35</ele>
        <time>2013-10-02T07:20:49Z</time>
      </trkpt>
      <trkpt lat="43.7521" lon="6.41358">
        <ele>1002.31</ele>
        <time>2013-10-02T07:20:50Z</time>
      </trkpt>
      <trkpt lat="43.75207" lon="6.41362">
        <ele>1002.31</ele>
        <time>2013-10-02T07:20:51Z</time>
      </trkpt>
      <trkpt lat="43.75171" lon="6.41394">
        <ele>1003.75</ele>
        <time>2013-10-02T07:21:03Z</time>
      </trkpt>
      <trkpt lat="43.75141" lon="6.41431">
        <ele>1005.2</ele>
        <time>2013-10-02T07:21:14Z</time>
      </trkpt>
      <trkpt lat="43.75124" lon="6.41484">
        <ele>1007.6</ele>
        <time>2013-10-02T07:21:26Z</time>
      </trkpt>
      <trkpt lat="43.75125" lon="6.41529">
        <ele>1007.6</ele>
        <time>2013-10-02T07:21:35Z</time>
      </trkpt>
      <trkpt lat="43.75127" lon="6.41534">
        <ele>1007.6</ele>
        <time>2013-10-02T07:21:36Z</time>
      </trkpt>
      <trkpt lat="43.75129" lon="6.41539">
        <ele>1007.6</ele>
        <time>2013-10-02T07:21:37Z</time>
      </trkpt>
      <trkpt lat="43.75135" lon="6.41554">
        <ele>1007.6</ele>
        <time>2013-10-02T07:21:40Z</time>
      </trkpt>
      <trkpt lat="43.75169" lon="6.41619">
        <ele>1006.64</ele>
        <time>2013-10-02T07:21:52Z</time>
      </trkpt>
      <trkpt lat="43.75187" lon="6.41686">
        <ele>1006.16</ele>
        <time>2013-10-02T07:22:02Z</time>
      </trkpt>
      <trkpt lat="43.75189" lon="6.41716">
        <ele>1005.68</ele>
        <time>2013-10-02T07:22:06Z</time>
      </trkpt>
      <trkpt lat="43.75189" lon="6.41752">
        <ele>1005.68</ele>
        <time>2013-10-02T07:22:11Z</time>
      </trkpt>
      <trkpt lat="43.75188" lon="6.41758">
        <ele>1005.68</ele>
        <time>2013-10-02T07:22:12Z</time>
      </trkpt>
      <trkpt lat="43.75157" lon="6.41835">
        <ele>1005.2</ele>
        <time>2013-10-02T07:22:24Z</time>
      </trkpt>
      <trkpt lat="43.75138" lon="6.41865">
        <ele>1004.23</ele>
        <time>2013-10-02T07:22:29Z</time>
      </trkpt>
      <trkpt lat="43.75085" lon="6.41912">
        <ele>1003.75</ele>
        <time>2013-10-02T07:22:40Z</time>
      </trkpt>
      <trkpt lat="43.7508" lon="6.41914">
        <ele>1004.23</ele>
        <time>2013-10-02T07:22:41Z</time>
      </trkpt>
      <trkpt lat="43.75018" lon="6.41926">
        <ele>1002.79</ele>
        <time>2013-10-02T07:22:53Z</time>
      </trkpt>
      <trkpt lat="43.74968" lon="6.41928">
        <ele>1001.83</ele>
        <time>2013-10-02T07:23:02Z</time>
      </trkpt>
      <trkpt lat="43.74939" lon="6.41923">
        <ele>1001.83</ele>
        <time>2013-10-02T07:23:07Z</time>
      </trkpt>
      <trkpt lat="43.74874" lon="6.4189">
        <ele>1000.87</ele>
        <time>2013-10-02T07:23:19Z</time>
      </trkpt>
      <trkpt lat="43.74857" lon="6.41883">
        <ele>1000.87</ele>
        <time>2013-10-02T07:23:22Z</time>
      </trkpt>
      <trkpt lat="43.74844" lon="6.4188">
        <ele>1000.87</ele>
        <time>2013-10-02T07:23:24Z</time>
      </trkpt>
      <trkpt lat="43.74832" lon="6.41879">
        <ele>1000.87</ele>
        <time>2013-10-02T07:23:26Z</time>
      </trkpt>
      <trkpt lat="43.74826" lon="6.4188">
        <ele>1001.35</ele>
        <time>2013-10-02T07:23:27Z</time>
      </trkpt>
      <trkpt lat="43.7482" lon="6.41881">
        <ele>1000.87</ele>
        <time>2013-10-02T07:23:28Z</time>
      </trkpt>
      <trkpt lat="43.74742" lon="6.41908">
        <ele>999.91</ele>
        <time>2013-10-02T07:23:41Z</time>
      </trkpt>
      <trkpt lat="43.74736" lon="6.41912">
        <ele>1000.87</ele>
        <time>2013-10-02T07:23:42Z</time>
      </trkpt>
      <trkpt lat="43.74731" lon="6.41917">
        <ele>1000.39</ele>
        <time>2013-10-02T07:23:43Z</time>
      </trkpt>
      <trkpt lat="43.74647" lon="6.42">
        <ele>998.95</ele>
        <time>2013-10-02T07:23:59Z</time>
      </trkpt>
      <trkpt lat="43.74577" lon="6.42062">
        <ele>997.51</ele>
        <time>2013-10-02T07:24:11Z</time>
      </trkpt>
      <trkpt lat="43.74518" lon="6.42115">
        <ele>995.58</ele>
        <time>2013-10-02T07:24:21Z</time>
      </trkpt>
      <trkpt lat="43.74513" lon="6.42122">
        <ele>995.58</ele>
        <time>2013-10-02T07:24:22Z</time>
      </trkpt>
      <trkpt lat="43.74508" lon="6.42129">
        <ele>995.58</ele>
        <time>2013-10-02T07:24:23Z</time>
      </trkpt>
      <trkpt lat="43.74504" lon="6.42137">
        <ele>995.58</ele>
        <time>2013-10-02T07:24:24Z</time>
      </trkpt>
      <trkpt lat="43.745" lon="6.42146">
        <ele>995.1</ele>
        <time>2013-10-02T07:24:25Z</time>
      </trkpt>
      <trkpt lat="43.74453" lon="6.42225">
        <ele>994.62</ele>
        <time>2013-10-02T07:24:35Z</time>
      </trkpt>
      <trkpt lat="43.74447" lon="6.42231">
        <ele>994.62</ele>
        <time>2013-10-02T07:24:36Z</time>
      </trkpt>
      <trkpt lat="43.74441" lon="6.42237">
        <ele>994.62</ele>
        <time>2013-10-02T07:24:37Z</time>
      </trkpt>
      <trkpt lat="43.74435" lon="6.42242">
        <ele>994.14</ele>
        <time>2013-10-02T07:24:38Z</time>
      </trkpt>
      <trkpt lat="43.74428" lon="6.42246">
        <ele>994.62</ele>
        <time>2013-10-02T07:24:39Z</time>
      </trkpt>
      <trkpt lat="43.74421" lon="6.4225">
        <ele>994.14</ele>
        <time>2013-10-02T07:24:40Z</time>
      </trkpt>
      <trkpt lat="43.74414" lon="6.42253">
        <ele>993.66</ele>
        <time>2013-10-02T07:24:41Z</time>
      </trkpt>
      <trkpt lat="43.74329" lon="6.4227">
        <ele>992.22</ele>
        <time>2013-10-02T07:24:52Z</time>
      </trkpt>
      <trkpt lat="43.74296" lon="6.42278">
        <ele>991.26</ele>
        <time>2013-10-02T07:24:56Z</time>
      </trkpt>
      <trkpt lat="43.74288" lon="6.42283">
        <ele>990.78</ele>
        <time>2013-10-02T07:24:57Z</time>
      </trkpt>
      <trkpt lat="43.74281" lon="6.42288">
        <ele>990.78</ele>
        <time>2013-10-02T07:24:58Z</time>
      </trkpt>
      <trkpt lat="43.74275" lon="6.42295">
        <ele>991.26</ele>
        <time>2013-10-02T07:24:59Z</time>
      </trkpt>
      <trkpt lat="43.74269" lon="6.42302">
        <ele>991.74</ele>
        <time>2013-10-02T07:25:00Z</time>
      </trkpt>
      <trkpt lat="43.74217" lon="6.42384">
        <ele>990.3</ele>
        <time>2013-10-02T07:25:10Z</time>
      </trkpt>
      <trkpt lat="43.74159" lon="6.42491">
        <ele>988.85</ele>
        <time>2013-10-02T07:25:22Z</time>
      </trkpt>
      <trkpt lat="43.74083" lon="6.4259">
        <ele>986.93</ele>
        <time>2013-10-02T07:25:35Z</time>
      </trkpt>
      <trkpt lat="43.74032" lon="6.42648">
        <ele>985.49</ele>
        <time>2013-10-02T07:25:43Z</time>
      </trkpt>
      <trkpt lat="43.74027" lon="6.42658">
        <ele>985.01</ele>
        <time>2013-10-02T07:25:44Z</time>
      </trkpt>
      <trkpt lat="43.74023" lon="6.42668">
        <ele>984.53</ele>
        <time>2013-10-02T07:25:45Z</time>
      </trkpt>
      <trkpt lat="43.73981" lon="6.42765">
        <ele>983.57</ele>
        <time>2013-10-02T07:25:55Z</time>
      </trkpt>
      <trkpt lat="43.7393" lon="6.42839">
        <ele>982.12</ele>
        <time>2013-10-02T07:26:04Z</time>
      </trkpt>
      <trkpt lat="43.73925" lon="6.42848">
        <ele>982.12</ele>
        <time>2013-10-02T07:26:05Z</time>
      </trkpt>
      <trkpt lat="43.73921" lon="6.42858">
        <ele>981.64</ele>
        <time>2013-10-02T07:26:06Z</time>
      </trkpt>
      <trkpt lat="43.73917" lon="6.42868">
        <ele>981.64</ele>
        <time>2013-10-02T07:26:07Z</time>
      </trkpt>
      <trkpt lat="43.73914" lon="6.42879">
        <ele>981.64</ele>
        <time>2013-10-02T07:26:08Z</time>
      </trkpt>
      <trkpt lat="43.73911" lon="6.42889">
        <ele>982.12</ele>
        <time>2013-10-02T07:26:09Z</time>
      </trkpt>
      <trkpt lat="43.73889" lon="6.43007">
        <ele>980.68</ele>
        <time>2013-10-02T07:26:20Z</time>
      </trkpt>
      <trkpt lat="43.73885" lon="6.43017">
        <ele>980.68</ele>
        <time>2013-10-02T07:26:21Z</time>
      </trkpt>
      <trkpt lat="43.73881" lon="6.43026">
        <ele>980.2</ele>
        <time>2013-10-02T07:26:22Z</time>
      </trkpt>
      <trkpt lat="43.73876" lon="6.43034">
        <ele>980.68</ele>
        <time>2013-10-02T07:26:23Z</time>
      </trkpt>
      <trkpt lat="43.73871" lon="6.43042">
        <ele>980.2</ele>
        <time>2013-10-02T07:26:24Z</time>
      </trkpt>
      <trkpt lat="43.738" lon="6.43112">
        <ele>979.24</ele>
        <time>2013-10-02T07:26:35Z</time>
      </trkpt>
      <trkpt lat="43.73785" lon="6.43122">
        <ele>978.28</ele>
        <time>2013-10-02T07:26:37Z</time>
      </trkpt>
      <trkpt lat="43.73701" lon="6.43195">
        <ele>976.36</ele>
        <time>2013-10-02T07:26:49Z</time>
      </trkpt>
      <trkpt lat="43.73661" lon="6.43258">
        <ele>976.36</ele>
        <time>2013-10-02T07:26:57Z</time>
      </trkpt>
      <trkpt lat="43.73644" lon="6.43328">
        <ele>976.84</ele>
        <time>2013-10-02T07:27:05Z</time>
      </trkpt>
      <trkpt lat="43.73645" lon="6.43336">
        <ele>976.84</ele>
        <time>2013-10-02T07:27:06Z</time>
      </trkpt>
      <trkpt lat="43.73646" lon="6.43343">
        <ele>976.84</ele>
        <time>2013-10-02T07:27:07Z</time>
      </trkpt>
      <trkpt lat="43.7365" lon="6.43349">
        <ele>976.84</ele>
        <time>2013-10-02T07:27:08Z</time>
      </trkpt>
      <trkpt lat="43.73655" lon="6.43353">
        <ele>976.84</ele>
        <time>2013-10-02T07:27:09Z</time>
      </trkpt>
      <trkpt lat="43.73684" lon="6.43381">
        <ele>974.43</ele>
        <time>2013-10-02T07:27:14Z</time>
      </trkpt>
      <trkpt lat="43.73713" lon="6.43408">
        <ele>971.55</ele>
        <time>2013-10-02T07:27:18Z</time>
      </trkpt>
      <trkpt lat="43.73745" lon="6.4344">
        <ele>969.15</ele>
        <time>2013-10-02T07:27:22Z</time>
      </trkpt>
      <trkpt lat="43.73773" lon="6.43466">
        <ele>965.78</ele>
        <time>2013-10-02T07:27:25Z</time>
      </trkpt>
      <trkpt lat="43.73801" lon="6.43494">
        <ele>963.86</ele>
        <time>2013-10-02T07:27:28Z</time>
      </trkpt>
      <trkpt lat="43.73831" lon="6.43523">
        <ele>960.98</ele>
        <time>2013-10-02T07:27:31Z</time>
      </trkpt>
      <trkpt lat="43.73863" lon="6.43552">
        <ele>957.13</ele>
        <time>2013-10-02T07:27:34Z</time>
      </trkpt>
      <trkpt lat="43.73875" lon="6.43562">
        <ele>957.13</ele>
        <time>2013-10-02T07:27:35Z</time>
      </trkpt>
      <trkpt lat="43.73907" lon="6.4359">
        <ele>953.28</ele>
        <time>2013-10-02T07:27:38Z</time>
      </trkpt>
      <trkpt lat="43.73931" lon="6.43606">
        <ele>951.36</ele>
        <time>2013-10-02T07:27:40Z</time>
      </trkpt>
      <trkpt lat="43.73967" lon="6.43624">
        <ele>946.56</ele>
        <time>2013-10-02T07:27:43Z</time>
      </trkpt>
      <trkpt lat="43.74004" lon="6.43638">
        <ele>943.67</ele>
        <time>2013-10-02T07:27:46Z</time>
      </trkpt>
      <trkpt lat="43.74042" lon="6.43653">
        <ele>939.83</ele>
        <time>2013-10-02T07:27:49Z</time>
      </trkpt>
      <trkpt lat="43.74082" lon="6.43666">
        <ele>935.98</ele>
        <time>2013-10-02T07:27:52Z</time>
      </trkpt>
      <trkpt lat="43.74109" lon="6.43672">
        <ele>932.62</ele>
        <time>2013-10-02T07:27:54Z</time>
      </trkpt>
      <trkpt lat="43.74145" lon="6.43679">
        <ele>928.77</ele>
        <time>2013-10-02T07:27:57Z</time>
      </trkpt>
      <trkpt lat="43.74169" lon="6.43681">
        <ele>925.89</ele>
        <time>2013-10-02T07:27:59Z</time>
      </trkpt>
      <trkpt lat="43.74181" lon="6.43678">
        <ele>924.45</ele>
        <time>2013-10-02T07:28:00Z</time>
      </trkpt>
      <trkpt lat="43.74218" lon="6.43667">
        <ele>921.08</ele>
        <time>2013-10-02T07:28:03Z</time>
      </trkpt>
      <trkpt lat="43.74244" lon="6.43659">
        <ele>917.72</ele>
        <time>2013-10-02T07:28:05Z</time>
      </trkpt>
      <trkpt lat="43.74257" lon="6.43656">
        <ele>917.72</ele>
        <time>2013-10-02T07:28:06Z</time>
      </trkpt>
      <trkpt lat="43.74284" lon="6.43652">
        <ele>914.83</ele>
        <time>2013-10-02T07:28:08Z</time>
      </trkpt>
      <trkpt lat="43.74298" lon="6.43653">
        <ele>913.87</ele>
        <time>2013-10-02T07:28:09Z</time>
      </trkpt>
      <trkpt lat="43.74327" lon="6.43657">
        <ele>910.99</ele>
        <time>2013-10-02T07:28:11Z</time>
      </trkpt>
      <trkpt lat="43.74356" lon="6.43662">
        <ele>907.14</ele>
        <time>2013-10-02T07:28:13Z</time>
      </trkpt>
      <trkpt lat="43.74396" lon="6.43668">
        <ele>902.82</ele>
        <time>2013-10-02T07:28:16Z</time>
      </trkpt>
      <trkpt lat="43.74422" lon="6.43666">
        <ele>901.37</ele>
        <time>2013-10-02T07:28:18Z</time>
      </trkpt>
      <trkpt lat="43.74446" lon="6.43661">
        <ele>898.01</ele>
        <time>2013-10-02T07:28:20Z</time>
      </trkpt>
      <trkpt lat="43.74483" lon="6.43649">
        <ele>896.09</ele>
        <time>2013-10-02T07:28:23Z</time>
      </trkpt>
      <trkpt lat="43.74495" lon="6.43642">
        <ele>894.64</ele>
        <time>2013-10-02T07:28:24Z</time>
      </trkpt>
      <trkpt lat="43.74506" lon="6.43632">
        <ele>893.2</ele>
        <time>2013-10-02T07:28:25Z</time>
      </trkpt>
      <trkpt lat="43.74539" lon="6.43605">
        <ele>890.32</ele>
        <time>2013-10-02T07:28:28Z</time>
      </trkpt>
      <trkpt lat="43.74559" lon="6.4359">
        <ele>887.91</ele>
        <time>2013-10-02T07:28:30Z</time>
      </trkpt>
      <trkpt lat="43.74568" lon="6.43579">
        <ele>885.99</ele>
        <time>2013-10-02T07:28:31Z</time>
      </trkpt>
      <trkpt lat="43.74575" lon="6.43565">
        <ele>885.03</ele>
        <time>2013-10-02T07:28:32Z</time>
      </trkpt>
      <trkpt lat="43.7458" lon="6.43548">
        <ele>883.11</ele>
        <time>2013-10-02T07:28:33Z</time>
      </trkpt>
      <trkpt lat="43.74582" lon="6.4353">
        <ele>882.63</ele>
        <time>2013-10-02T07:28:34Z</time>
      </trkpt>
      <trkpt lat="43.74583" lon="6.43513">
        <ele>881.67</ele>
        <time>2013-10-02T07:28:35Z</time>
      </trkpt>
      <trkpt lat="43.74586" lon="6.43497">
        <ele>879.74</ele>
        <time>2013-10-02T07:28:36Z</time>
      </trkpt>
      <trkpt lat="43.7459" lon="6.43483">
        <ele>879.26</ele>
        <time>2013-10-02T07:28:37Z</time>
      </trkpt>
      <trkpt lat="43.74597" lon="6.43472">
        <ele>877.82</ele>
        <time>2013-10-02T07:28:38Z</time>
      </trkpt>
      <trkpt lat="43.74606" lon="6.43464">
        <ele>877.34</ele>
        <time>2013-10-02T07:28:39Z</time>
      </trkpt>
      <trkpt lat="43.74616" lon="6.4346">
        <ele>876.38</ele>
        <time>2013-10-02T07:28:40Z</time>
      </trkpt>
      <trkpt lat="43.74626" lon="6.43459">
        <ele>875.9</ele>
        <time>2013-10-02T07:28:41Z</time>
      </trkpt>
      <trkpt lat="43.74636" lon="6.43461">
        <ele>875.9</ele>
        <time>2013-10-02T07:28:42Z</time>
      </trkpt>
      <trkpt lat="43.74647" lon="6.43463">
        <ele>875.42</ele>
        <time>2013-10-02T07:28:43Z</time>
      </trkpt>
      <trkpt lat="43.74664" lon="6.4347">
        <ele>872.53</ele>
        <time>2013-10-02T07:28:45Z</time>
      </trkpt>
      <trkpt lat="43.74669" lon="6.43477">
        <ele>871.57</ele>
        <time>2013-10-02T07:28:46Z</time>
      </trkpt>
      <trkpt lat="43.74671" lon="6.43488">
        <ele>871.57</ele>
        <time>2013-10-02T07:28:47Z</time>
      </trkpt>
      <trkpt lat="43.74671" lon="6.43501">
        <ele>870.61</ele>
        <time>2013-10-02T07:28:48Z</time>
      </trkpt>
      <trkpt lat="43.7467" lon="6.43513">
        <ele>869.65</ele>
        <time>2013-10-02T07:28:49Z</time>
      </trkpt>
      <trkpt lat="43.74668" lon="6.43527">
        <ele>868.69</ele>
        <time>2013-10-02T07:28:50Z</time>
      </trkpt>
      <trkpt lat="43.74665" lon="6.4354">
        <ele>867.73</ele>
        <time>2013-10-02T07:28:51Z</time>
      </trkpt>
      <trkpt lat="43.74662" lon="6.43553">
        <ele>867.73</ele>
        <time>2013-10-02T07:28:52Z</time>
      </trkpt>
      <trkpt lat="43.7466" lon="6.43564">
        <ele>866.29</ele>
        <time>2013-10-02T07:28:53Z</time>
      </trkpt>
      <trkpt lat="43.74662" lon="6.43575">
        <ele>865.8</ele>
        <time>2013-10-02T07:28:54Z</time>
      </trkpt>
      <trkpt lat="43.74667" lon="6.43584">
        <ele>864.84</ele>
        <time>2013-10-02T07:28:55Z</time>
      </trkpt>
      <trkpt lat="43.74674" lon="6.4359">
        <ele>863.88</ele>
        <time>2013-10-02T07:28:56Z</time>
      </trkpt>
      <trkpt lat="43.74683" lon="6.4359">
        <ele>862.44</ele>
        <time>2013-10-02T07:28:57Z</time>
      </trkpt>
      <trkpt lat="43.74691" lon="6.43585">
        <ele>862.44</ele>
        <time>2013-10-02T07:28:58Z</time>
      </trkpt>
      <trkpt lat="43.74698" lon="6.43577">
        <ele>862.92</ele>
        <time>2013-10-02T07:28:59Z</time>
      </trkpt>
      <trkpt lat="43.74704" lon="6.43568">
        <ele>861</ele>
        <time>2013-10-02T07:29:00Z</time>
      </trkpt>
      <trkpt lat="43.74748" lon="6.43514">
        <ele>857.63</ele>
        <time>2013-10-02T07:29:06Z</time>
      </trkpt>
      <trkpt lat="43.74792" lon="6.43454">
        <ele>855.23</ele>
        <time>2013-10-02T07:29:12Z</time>
      </trkpt>
      <trkpt lat="43.74816" lon="6.4343">
        <ele>852.83</ele>
        <time>2013-10-02T07:29:15Z</time>
      </trkpt>
      <trkpt lat="43.74835" lon="6.43411">
        <ele>849.94</ele>
        <time>2013-10-02T07:29:18Z</time>
      </trkpt>
      <trkpt lat="43.74841" lon="6.43406">
        <ele>849.46</ele>
        <time>2013-10-02T07:29:19Z</time>
      </trkpt>
      <trkpt lat="43.74849" lon="6.43404">
        <ele>848.5</ele>
        <time>2013-10-02T07:29:20Z</time>
      </trkpt>
      <trkpt lat="43.74857" lon="6.43406">
        <ele>847.54</ele>
        <time>2013-10-02T07:29:21Z</time>
      </trkpt>
      <trkpt lat="43.74865" lon="6.43412">
        <ele>846.1</ele>
        <time>2013-10-02T07:29:22Z</time>
      </trkpt>
      <trkpt lat="43.74871" lon="6.43422">
        <ele>845.14</ele>
        <time>2013-10-02T07:29:23Z</time>
      </trkpt>
      <trkpt lat="43.74875" lon="6.43434">
        <ele>844.66</ele>
        <time>2013-10-02T07:29:24Z</time>
      </trkpt>
      <trkpt lat="43.74875" lon="6.43448">
        <ele>844.18</ele>
        <time>2013-10-02T07:29:25Z</time>
      </trkpt>
      <trkpt lat="43.74871" lon="6.43461">
        <ele>842.73</ele>
        <time>2013-10-02T07:29:26Z</time>
      </trkpt>
      <trkpt lat="43.74866" lon="6.43474">
        <ele>842.25</ele>
        <time>2013-10-02T07:29:27Z</time>
      </trkpt>
      <trkpt lat="43.74861" lon="6.43488">
        <ele>841.29</ele>
        <time>2013-10-02T07:29:28Z</time>
      </trkpt>
      <trkpt lat="43.74857" lon="6.43502">
        <ele>840.33</ele>
        <time>2013-10-02T07:29:29Z</time>
      </trkpt>
      <trkpt lat="43.74854" lon="6.43518">
        <ele>839.85</ele>
        <time>2013-10-02T07:29:30Z</time>
      </trkpt>
      <trkpt lat="43.74852" lon="6.43534">
        <ele>838.41</ele>
        <time>2013-10-02T07:29:31Z</time>
      </trkpt>
      <trkpt lat="43.7485" lon="6.4355">
        <ele>838.41</ele>
        <time>2013-10-02T07:29:32Z</time>
      </trkpt>
      <trkpt lat="43.74851" lon="6.43601">
        <ele>835.52</ele>
        <time>2013-10-02T07:29:35Z</time>
      </trkpt>
      <trkpt lat="43.74853" lon="6.43617">
        <ele>834.56</ele>
        <time>2013-10-02T07:29:36Z</time>
      </trkpt>
      <trkpt lat="43.74856" lon="6.43631">
        <ele>833.6</ele>
        <time>2013-10-02T07:29:37Z</time>
      </trkpt>
      <trkpt lat="43.74863" lon="6.43661">
        <ele>831.2</ele>
        <time>2013-10-02T07:29:39Z</time>
      </trkpt>
      <trkpt lat="43.74864" lon="6.43676">
        <ele>829.76</ele>
        <time>2013-10-02T07:29:40Z</time>
      </trkpt>
      <trkpt lat="43.74863" lon="6.43689">
        <ele>829.27</ele>
        <time>2013-10-02T07:29:41Z</time>
      </trkpt>
      <trkpt lat="43.74861" lon="6.43701">
        <ele>828.31</ele>
        <time>2013-10-02T07:29:42Z</time>
      </trkpt>
      <trkpt lat="43.74859" lon="6.43713">
        <ele>826.87</ele>
        <time>2013-10-02T07:29:43Z</time>
      </trkpt>
      <trkpt lat="43.74858" lon="6.43723">
        <ele>826.39</ele>
        <time>2013-10-02T07:29:44Z</time>
      </trkpt>
      <trkpt lat="43.7486" lon="6.43733">
        <ele>825.91</ele>
        <time>2013-10-02T07:29:45Z</time>
      </trkpt>
      <trkpt lat="43.74866" lon="6.43739">
        <ele>824.95</ele>
        <time>2013-10-02T07:29:46Z</time>
      </trkpt>
      <trkpt lat="43.74873" lon="6.43741">
        <ele>824.47</ele>
        <time>2013-10-02T07:29:47Z</time>
      </trkpt>
      <trkpt lat="43.7488" lon="6.43737">
        <ele>823.51</ele>
        <time>2013-10-02T07:29:48Z</time>
      </trkpt>
      <trkpt lat="43.74885" lon="6.43729">
        <ele>823.51</ele>
        <time>2013-10-02T07:29:49Z</time>
      </trkpt>
      <trkpt lat="43.74889" lon="6.43719">
        <ele>823.03</ele>
        <time>2013-10-02T07:29:50Z</time>
      </trkpt>
      <trkpt lat="43.74891" lon="6.43709">
        <ele>823.03</ele>
        <time>2013-10-02T07:29:51Z</time>
      </trkpt>
      <trkpt lat="43.74894" lon="6.43698">
        <ele>822.55</ele>
        <time>2013-10-02T07:29:52Z</time>
      </trkpt>
      <trkpt lat="43.74902" lon="6.43677">
        <ele>822.06</ele>
        <time>2013-10-02T07:29:54Z</time>
      </trkpt>
      <trkpt lat="43.74907" lon="6.43667">
        <ele>822.06</ele>
        <time>2013-10-02T07:29:55Z</time>
      </trkpt>
      <trkpt lat="43.74912" lon="6.43659">
        <ele>821.1</ele>
        <time>2013-10-02T07:29:56Z</time>
      </trkpt>
      <trkpt lat="43.74919" lon="6.4365">
        <ele>821.1</ele>
        <time>2013-10-02T07:29:57Z</time>
      </trkpt>
      <trkpt lat="43.74926" lon="6.43643">
        <ele>820.62</ele>
        <time>2013-10-02T07:29:58Z</time>
      </trkpt>
      <trkpt lat="43.74948" lon="6.4362">
        <ele>818.7</ele>
        <time>2013-10-02T07:30:01Z</time>
      </trkpt>
      <trkpt lat="43.74998" lon="6.43572">
        <ele>814.85</ele>
        <time>2013-10-02T07:30:07Z</time>
      </trkpt>
      <trkpt lat="43.75008" lon="6.43566">
        <ele>814.37</ele>
        <time>2013-10-02T07:30:08Z</time>
      </trkpt>
      <trkpt lat="43.75018" lon="6.43561">
        <ele>812.93</ele>
        <time>2013-10-02T07:30:09Z</time>
      </trkpt>
      <trkpt lat="43.7504" lon="6.43553">
        <ele>811.97</ele>
        <time>2013-10-02T07:30:11Z</time>
      </trkpt>
      <trkpt lat="43.75067" lon="6.43544">
        <ele>808.13</ele>
        <time>2013-10-02T07:30:14Z</time>
      </trkpt>
      <trkpt lat="43.75073" lon="6.43545">
        <ele>806.68</ele>
        <time>2013-10-02T07:30:15Z</time>
      </trkpt>
      <trkpt lat="43.75078" lon="6.43549">
        <ele>805.72</ele>
        <time>2013-10-02T07:30:16Z</time>
      </trkpt>
      <trkpt lat="43.75083" lon="6.43558">
        <ele>805.24</ele>
        <time>2013-10-02T07:30:17Z</time>
      </trkpt>
      <trkpt lat="43.75085" lon="6.43569">
        <ele>804.76</ele>
        <time>2013-10-02T07:30:18Z</time>
      </trkpt>
      <trkpt lat="43.75085" lon="6.43581">
        <ele>804.76</ele>
        <time>2013-10-02T07:30:19Z</time>
      </trkpt>
      <trkpt lat="43.75084" lon="6.43594">
        <ele>802.84</ele>
        <time>2013-10-02T07:30:20Z</time>
      </trkpt>
      <trkpt lat="43.75081" lon="6.43607">
        <ele>802.36</ele>
        <time>2013-10-02T07:30:21Z</time>
      </trkpt>
      <trkpt lat="43.75078" lon="6.4362">
        <ele>801.4</ele>
        <time>2013-10-02T07:30:22Z</time>
      </trkpt>
      <trkpt lat="43.75073" lon="6.43642">
        <ele>798.51</ele>
        <time>2013-10-02T07:30:24Z</time>
      </trkpt>
      <trkpt lat="43.75074" lon="6.43653">
        <ele>798.03</ele>
        <time>2013-10-02T07:30:25Z</time>
      </trkpt>
      <trkpt lat="43.75077" lon="6.43662">
        <ele>797.07</ele>
        <time>2013-10-02T07:30:26Z</time>
      </trkpt>
      <trkpt lat="43.75085" lon="6.4367">
        <ele>796.59</ele>
        <time>2013-10-02T07:30:27Z</time>
      </trkpt>
      <trkpt lat="43.75094" lon="6.43677">
        <ele>795.15</ele>
        <time>2013-10-02T07:30:28Z</time>
      </trkpt>
      <trkpt lat="43.75102" lon="6.43685">
        <ele>794.19</ele>
        <time>2013-10-02T07:30:29Z</time>
      </trkpt>
      <trkpt lat="43.75111" lon="6.43695">
        <ele>793.22</ele>
        <time>2013-10-02T07:30:30Z</time>
      </trkpt>
      <trkpt lat="43.75119" lon="6.43705">
        <ele>793.22</ele>
        <time>2013-10-02T07:30:31Z</time>
      </trkpt>
      <trkpt lat="43.75139" lon="6.43724">
        <ele>789.38</ele>
        <time>2013-10-02T07:30:33Z</time>
      </trkpt>
      <trkpt lat="43.75171" lon="6.43756">
        <ele>786.5</ele>
        <time>2013-10-02T07:30:36Z</time>
      </trkpt>
      <trkpt lat="43.75207" lon="6.43785">
        <ele>782.65</ele>
        <time>2013-10-02T07:30:39Z</time>
      </trkpt>
      <trkpt lat="43.75245" lon="6.4381">
        <ele>778.32</ele>
        <time>2013-10-02T07:30:42Z</time>
      </trkpt>
      <trkpt lat="43.75283" lon="6.4384">
        <ele>774.96</ele>
        <time>2013-10-02T07:30:45Z</time>
      </trkpt>
      <trkpt lat="43.75314" lon="6.43876">
        <ele>772.08</ele>
        <time>2013-10-02T07:30:48Z</time>
      </trkpt>
      <trkpt lat="43.75322" lon="6.43888">
        <ele>770.63</ele>
        <time>2013-10-02T07:30:49Z</time>
      </trkpt>
      <trkpt lat="43.75327" lon="6.43902">
        <ele>770.15</ele>
        <time>2013-10-02T07:30:50Z</time>
      </trkpt>
      <trkpt lat="43.75331" lon="6.43917">
        <ele>770.15</ele>
        <time>2013-10-02T07:30:51Z</time>
      </trkpt>
      <trkpt lat="43.75334" lon="6.43932">
        <ele>769.67</ele>
        <time>2013-10-02T07:30:52Z</time>
      </trkpt>
      <trkpt lat="43.75337" lon="6.43948">
        <ele>769.19</ele>
        <time>2013-10-02T07:30:53Z</time>
      </trkpt>
      <trkpt lat="43.75344" lon="6.43979">
        <ele>768.23</ele>
        <time>2013-10-02T07:30:55Z</time>
      </trkpt>
      <trkpt lat="43.75349" lon="6.43993">
        <ele>767.27</ele>
        <time>2013-10-02T07:30:56Z</time>
      </trkpt>
      <trkpt lat="43.75357" lon="6.44003">
        <ele>766.79</ele>
        <time>2013-10-02T07:30:57Z</time>
      </trkpt>
      <trkpt lat="43.75367" lon="6.44011">
        <ele>766.79</ele>
        <time>2013-10-02T07:30:58Z</time>
      </trkpt>
      <trkpt lat="43.75377" lon="6.44014">
        <ele>766.79</ele>
        <time>2013-10-02T07:30:59Z</time>
      </trkpt>
      <trkpt lat="43.75386" lon="6.44015">
        <ele>766.79</ele>
        <time>2013-10-02T07:31:00Z</time>
      </trkpt>
      <trkpt lat="43.75394" lon="6.44016">
        <ele>767.75</ele>
        <time>2013-10-02T07:31:01Z</time>
      </trkpt>
      <trkpt lat="43.75423" lon="6.44019">
        <ele>769.67</ele>
        <time>2013-10-02T07:31:05Z</time>
      </trkpt>
      <trkpt lat="43.75429" lon="6.44018">
        <ele>769.67</ele>
        <time>2013-10-02T07:31:06Z</time>
      </trkpt>
      <trkpt lat="43.75435" lon="6.44017">
        <ele>770.15</ele>
        <time>2013-10-02T07:31:07Z</time>
      </trkpt>
      <trkpt lat="43.75441" lon="6.44014">
        <ele>770.63</ele>
        <time>2013-10-02T07:31:08Z</time>
      </trkpt>
      <trkpt lat="43.75446" lon="6.4401">
        <ele>771.11</ele>
        <time>2013-10-02T07:31:09Z</time>
      </trkpt>
      <trkpt lat="43.75452" lon="6.44006">
        <ele>770.63</ele>
        <time>2013-10-02T07:31:10Z</time>
      </trkpt>
      <trkpt lat="43.75457" lon="6.44001">
        <ele>771.11</ele>
        <time>2013-10-02T07:31:11Z</time>
      </trkpt>
      <trkpt lat="43.75461" lon="6.43996">
        <ele>770.63</ele>
        <time>2013-10-02T07:31:12Z</time>
      </trkpt>
      <trkpt lat="43.75491" lon="6.4396">
        <ele>774</ele>
        <time>2013-10-02T07:31:21Z</time>
      </trkpt>
      <trkpt lat="43.75517" lon="6.4393">
        <ele>777.36</ele>
        <time>2013-10-02T07:31:31Z</time>
      </trkpt>
      <trkpt lat="43.75551" lon="6.4389">
        <ele>778.81</ele>
        <time>2013-10-02T07:31:43Z</time>
      </trkpt>
      <trkpt lat="43.75557" lon="6.43884">
        <ele>779.29</ele>
        <time>2013-10-02T07:31:45Z</time>
      </trkpt>
      <trkpt lat="43.75565" lon="6.4387">
        <ele>779.29</ele>
        <time>2013-10-02T07:31:48Z</time>
      </trkpt>
      <trkpt lat="43.75567" lon="6.43865">
        <ele>778.81</ele>
        <time>2013-10-02T07:31:49Z</time>
      </trkpt>
      <trkpt lat="43.75571" lon="6.43852">
        <ele>779.29</ele>
        <time>2013-10-02T07:31:51Z</time>
      </trkpt>
      <trkpt lat="43.75572" lon="6.43846">
        <ele>779.29</ele>
        <time>2013-10-02T07:31:52Z</time>
      </trkpt>
      <trkpt lat="43.75572" lon="6.4384">
        <ele>779.29</ele>
        <time>2013-10-02T07:31:53Z</time>
      </trkpt>
      <trkpt lat="43.75573" lon="6.43827">
        <ele>779.29</ele>
        <time>2013-10-02T07:31:55Z</time>
      </trkpt>
      <trkpt lat="43.75572" lon="6.43766">
        <ele>780.73</ele>
        <time>2013-10-02T07:32:05Z</time>
      </trkpt>
      <trkpt lat="43.75574" lon="6.43761">
        <ele>780.25</ele>
        <time>2013-10-02T07:32:06Z</time>
      </trkpt>
      <trkpt lat="43.75575" lon="6.43756">
        <ele>781.21</ele>
        <time>2013-10-02T07:32:07Z</time>
      </trkpt>
      <trkpt lat="43.75577" lon="6.43752">
        <ele>781.21</ele>
        <time>2013-10-02T07:32:08Z</time>
      </trkpt>
      <trkpt lat="43.75579" lon="6.43748">
        <ele>781.21</ele>
        <time>2013-10-02T07:32:09Z</time>
      </trkpt>
      <trkpt lat="43.75581" lon="6.43745">
        <ele>781.69</ele>
        <time>2013-10-02T07:32:10Z</time>
      </trkpt>
      <trkpt lat="43.75594" lon="6.43721">
        <ele>784.09</ele>
        <time>2013-10-02T07:32:19Z</time>
      </trkpt>
      <trkpt lat="43.75598" lon="6.43715">
        <ele>785.53</ele>
        <time>2013-10-02T07:32:22Z</time>
      </trkpt>
      <trkpt lat="43.75601" lon="6.43713">
        <ele>785.53</ele>
        <time>2013-10-02T07:32:24Z</time>
      </trkpt>
      <trkpt lat="43.75602" lon="6.43712">
        <ele>786.5</ele>
        <time>2013-10-02T07:32:25Z</time>
      </trkpt>
      <trkpt lat="43.75604" lon="6.43712">
        <ele>786.5</ele>
        <time>2013-10-02T07:32:26Z</time>
      </trkpt>
      <trkpt lat="43.75606" lon="6.43712">
        <ele>786.02</ele>
        <time>2013-10-02T07:32:27Z</time>
      </trkpt>
      <trkpt lat="43.75608" lon="6.43712">
        <ele>786.02</ele>
        <time>2013-10-02T07:32:28Z</time>
      </trkpt>
      <trkpt lat="43.7561" lon="6.43712">
        <ele>786.98</ele>
        <time>2013-10-02T07:32:29Z</time>
      </trkpt>
      <trkpt lat="43.75612" lon="6.43713">
        <ele>787.94</ele>
        <time>2013-10-02T07:32:30Z</time>
      </trkpt>
      <trkpt lat="43.75614" lon="6.43715">
        <ele>787.46</ele>
        <time>2013-10-02T07:32:31Z</time>
      </trkpt>
      <trkpt lat="43.75615" lon="6.43717">
        <ele>787.46</ele>
        <time>2013-10-02T07:32:32Z</time>
      </trkpt>
      <trkpt lat="43.75616" lon="6.4372">
        <ele>787.94</ele>
        <time>2013-10-02T07:32:33Z</time>
      </trkpt>
      <trkpt lat="43.75622" lon="6.43741">
        <ele>789.86</ele>
        <time>2013-10-02T07:32:41Z</time>
      </trkpt>
      <trkpt lat="43.75622" lon="6.43744">
        <ele>790.82</ele>
        <time>2013-10-02T07:32:42Z</time>
      </trkpt>
      <trkpt lat="43.75622" lon="6.43747">
        <ele>791.3</ele>
        <time>2013-10-02T07:32:43Z</time>
      </trkpt>
      <trkpt lat="43.75622" lon="6.4375">
        <ele>791.3</ele>
        <time>2013-10-02T07:32:44Z</time>
      </trkpt>
      <trkpt lat="43.75622" lon="6.43753">
        <ele>791.78</ele>
        <time>2013-10-02T07:32:45Z</time>
      </trkpt>
      <trkpt lat="43.75622" lon="6.43756">
        <ele>791.78</ele>
        <time>2013-10-02T07:32:46Z</time>
      </trkpt>
      <trkpt lat="43.75622" lon="6.43759">
        <ele>791.78</ele>
        <time>2013-10-02T07:32:47Z</time>
      </trkpt>
      <trkpt lat="43.75622" lon="6.43762">
        <ele>792.26</ele>
        <time>2013-10-02T07:32:48Z</time>
      </trkpt>
      <trkpt lat="43.75622" lon="6.43765">
        <ele>792.26</ele>
        <time>2013-10-02T07:32:49Z</time>
      </trkpt>
      <trkpt lat="43.75623" lon="6.43768">
        <ele>793.22</ele>
        <time>2013-10-02T07:32:50Z</time>
      </trkpt>
      <trkpt lat="43.75623" lon="6.43771">
        <ele>792.26</ele>
        <time>2013-10-02T07:32:51Z</time>
      </trkpt>
      <trkpt lat="43.75624" lon="6.43774">
        <ele>792.74</ele>
        <time>2013-10-02T07:32:52Z</time>
      </trkpt>
      <trkpt lat="43.75625" lon="6.4378">
        <ele>793.71</ele>
        <time>2013-10-02T07:32:54Z</time>
      </trkpt>
      <trkpt lat="43.75632" lon="6.43808">
        <ele>796.11</ele>
        <time>2013-10-02T07:33:04Z</time>
      </trkpt>
      <trkpt lat="43.75645" lon="6.43835">
        <ele>798.03</ele>
        <time>2013-10-02T07:33:15Z</time>
      </trkpt>
      <trkpt lat="43.75658" lon="6.43855">
        <ele>801.4</ele>
        <time>2013-10-02T07:33:24Z</time>
      </trkpt>
      <trkpt lat="43.75675" lon="6.43889">
        <ele>803.32</ele>
        <time>2013-10-02T07:33:36Z</time>
      </trkpt>
      <trkpt lat="43.75689" lon="6.4393">
        <ele>804.28</ele>
        <time>2013-10-02T07:33:49Z</time>
      </trkpt>
      <trkpt lat="43.75701" lon="6.43962">
        <ele>808.13</ele>
        <time>2013-10-02T07:33:59Z</time>
      </trkpt>
      <trkpt lat="43.75714" lon="6.44005">
        <ele>810.53</ele>
        <time>2013-10-02T07:34:12Z</time>
      </trkpt>
      <trkpt lat="43.75724" lon="6.44055">
        <ele>810.53</ele>
        <time>2013-10-02T07:34:22Z</time>
      </trkpt>
      <trkpt lat="43.75724" lon="6.44062">
        <ele>810.05</ele>
        <time>2013-10-02T07:34:23Z</time>
      </trkpt>
      <trkpt lat="43.75726" lon="6.44071">
        <ele>809.57</ele>
        <time>2013-10-02T07:34:24Z</time>
      </trkpt>
      <trkpt lat="43.75727" lon="6.44079">
        <ele>809.57</ele>
        <time>2013-10-02T07:34:25Z</time>
      </trkpt>
      <trkpt lat="43.75729" lon="6.44087">
        <ele>808.13</ele>
        <time>2013-10-02T07:34:26Z</time>
      </trkpt>
      <trkpt lat="43.75732" lon="6.44093">
        <ele>808.13</ele>
        <time>2013-10-02T07:34:27Z</time>
      </trkpt>
      <trkpt lat="43.75735" lon="6.44099">
        <ele>806.68</ele>
        <time>2013-10-02T07:34:28Z</time>
      </trkpt>
      <trkpt lat="43.75739" lon="6.44103">
        <ele>806.68</ele>
        <time>2013-10-02T07:34:29Z</time>
      </trkpt>
      <trkpt lat="43.75758" lon="6.44116">
        <ele>803.32</ele>
        <time>2013-10-02T07:34:36Z</time>
      </trkpt>
      <trkpt lat="43.75776" lon="6.44117">
        <ele>801.4</ele>
        <time>2013-10-02T07:34:44Z</time>
      </trkpt>
      <trkpt lat="43.75778" lon="6.44116">
        <ele>800.92</ele>
        <time>2013-10-02T07:35:04Z</time>
      </trkpt>
      <trkpt lat="43.75781" lon="6.44114">
        <ele>800.44</ele>
        <time>2013-10-02T07:35:05Z</time>
      </trkpt>
      <trkpt lat="43.75783" lon="6.44112">
        <ele>800.92</ele>
        <time>2013-10-02T07:35:06Z</time>
      </trkpt>
      <trkpt lat="43.75784" lon="6.44112">
        <ele>799.95</ele>
        <time>2013-10-02T07:35:07Z</time>
      </trkpt>
      <trkpt lat="43.75785" lon="6.44113">
        <ele>799.95</ele>
        <time>2013-10-02T07:35:18Z</time>
      </trkpt>
      <trkpt lat="43.75791" lon="6.44114">
        <ele>800.44</ele>
        <time>2013-10-02T07:35:32Z</time>
      </trkpt>
      <trkpt lat="43.75794" lon="6.44113">
        <ele>800.44</ele>
        <time>2013-10-02T07:35:33Z</time>
      </trkpt>
      <trkpt lat="43.75803" lon="6.4411">
        <ele>799.47</ele>
        <time>2013-10-02T07:35:35Z</time>
      </trkpt>
      <trkpt lat="43.75827" lon="6.44107">
        <ele>797.07</ele>
        <time>2013-10-02T07:35:39Z</time>
      </trkpt>
      <trkpt lat="43.75851" lon="6.44101">
        <ele>795.63</ele>
        <time>2013-10-02T07:35:42Z</time>
      </trkpt>
      <trkpt lat="43.75871" lon="6.44095">
        <ele>792.26</ele>
        <time>2013-10-02T07:35:44Z</time>
      </trkpt>
      <trkpt lat="43.75904" lon="6.44089">
        <ele>789.38</ele>
        <time>2013-10-02T07:35:47Z</time>
      </trkpt>
      <trkpt lat="43.75915" lon="6.44087">
        <ele>787.46</ele>
        <time>2013-10-02T07:35:48Z</time>
      </trkpt>
      <trkpt lat="43.75924" lon="6.44081">
        <ele>787.46</ele>
        <time>2013-10-02T07:35:49Z</time>
      </trkpt>
      <trkpt lat="43.75942" lon="6.44069">
        <ele>785.05</ele>
        <time>2013-10-02T07:35:51Z</time>
      </trkpt>
      <trkpt lat="43.75952" lon="6.44068">
        <ele>784.57</ele>
        <time>2013-10-02T07:35:52Z</time>
      </trkpt>
      <trkpt lat="43.75962" lon="6.4407">
        <ele>784.09</ele>
        <time>2013-10-02T07:35:53Z</time>
      </trkpt>
      <trkpt lat="43.7597" lon="6.44075">
        <ele>784.09</ele>
        <time>2013-10-02T07:35:54Z</time>
      </trkpt>
      <trkpt lat="43.75977" lon="6.44081">
        <ele>783.61</ele>
        <time>2013-10-02T07:35:55Z</time>
      </trkpt>
      <trkpt lat="43.75985" lon="6.44087">
        <ele>783.13</ele>
        <time>2013-10-02T07:35:56Z</time>
      </trkpt>
      <trkpt lat="43.75994" lon="6.4409">
        <ele>783.61</ele>
        <time>2013-10-02T07:35:57Z</time>
      </trkpt>
      <trkpt lat="43.76002" lon="6.44092">
        <ele>782.17</ele>
        <time>2013-10-02T07:35:58Z</time>
      </trkpt>
      <trkpt lat="43.76011" lon="6.44095">
        <ele>782.17</ele>
        <time>2013-10-02T07:35:59Z</time>
      </trkpt>
      <trkpt lat="43.76019" lon="6.44101">
        <ele>781.69</ele>
        <time>2013-10-02T07:36:00Z</time>
      </trkpt>
      <trkpt lat="43.76026" lon="6.44111">
        <ele>780.73</ele>
        <time>2013-10-02T07:36:01Z</time>
      </trkpt>
      <trkpt lat="43.7603" lon="6.44123">
        <ele>779.77</ele>
        <time>2013-10-02T07:36:02Z</time>
      </trkpt>
      <trkpt lat="43.76032" lon="6.44134">
        <ele>778.81</ele>
        <time>2013-10-02T07:36:03Z</time>
      </trkpt>
      <trkpt lat="43.76035" lon="6.44142">
        <ele>777.84</ele>
        <time>2013-10-02T07:36:04Z</time>
      </trkpt>
      <trkpt lat="43.76037" lon="6.44148">
        <ele>777.36</ele>
        <time>2013-10-02T07:36:05Z</time>
      </trkpt>
      <trkpt lat="43.7604" lon="6.44163">
        <ele>774.96</ele>
        <time>2013-10-02T07:36:10Z</time>
      </trkpt>
      <trkpt lat="43.76038" lon="6.44165">
        <ele>775.44</ele>
        <time>2013-10-02T07:36:11Z</time>
      </trkpt>
      <trkpt lat="43.76035" lon="6.44167">
        <ele>774.48</ele>
        <time>2013-10-02T07:36:12Z</time>
      </trkpt>
      <trkpt lat="43.76031" lon="6.44167">
        <ele>774.96</ele>
        <time>2013-10-02T07:36:13Z</time>
      </trkpt>
      <trkpt lat="43.76027" lon="6.44167">
        <ele>774.48</ele>
        <time>2013-10-02T07:36:14Z</time>
      </trkpt>
      <trkpt lat="43.76021" lon="6.44166">
        <ele>774.48</ele>
        <time>2013-10-02T07:36:15Z</time>
      </trkpt>
      <trkpt lat="43.76" lon="6.44164">
        <ele>772.56</ele>
        <time>2013-10-02T07:36:18Z</time>
      </trkpt>
      <trkpt lat="43.75993" lon="6.44167">
        <ele>772.08</ele>
        <time>2013-10-02T07:36:19Z</time>
      </trkpt>
      <trkpt lat="43.75986" lon="6.44173">
        <ele>771.6</ele>
        <time>2013-10-02T07:36:20Z</time>
      </trkpt>
      <trkpt lat="43.75957" lon="6.44199">
        <ele>769.67</ele>
        <time>2013-10-02T07:36:24Z</time>
      </trkpt>
      <trkpt lat="43.75948" lon="6.44203">
        <ele>769.19</ele>
        <time>2013-10-02T07:36:25Z</time>
      </trkpt>
      <trkpt lat="43.75939" lon="6.44206">
        <ele>768.23</ele>
        <time>2013-10-02T07:36:26Z</time>
      </trkpt>
      <trkpt lat="43.75929" lon="6.44211">
        <ele>768.23</ele>
        <time>2013-10-02T07:36:27Z</time>
      </trkpt>
      <trkpt lat="43.75921" lon="6.44219">
        <ele>767.27</ele>
        <time>2013-10-02T07:36:28Z</time>
      </trkpt>
      <trkpt lat="43.75914" lon="6.44231">
        <ele>767.27</ele>
        <time>2013-10-02T07:36:29Z</time>
      </trkpt>
      <trkpt lat="43.7591" lon="6.44244">
        <ele>766.31</ele>
        <time>2013-10-02T07:36:30Z</time>
      </trkpt>
      <trkpt lat="43.75906" lon="6.44258">
        <ele>765.83</ele>
        <time>2013-10-02T07:36:31Z</time>
      </trkpt>
      <trkpt lat="43.75904" lon="6.44272">
        <ele>765.35</ele>
        <time>2013-10-02T07:36:32Z</time>
      </trkpt>
      <trkpt lat="43.75902" lon="6.44286">
        <ele>764.39</ele>
        <time>2013-10-02T07:36:33Z</time>
      </trkpt>
      <trkpt lat="43.75897" lon="6.44332">
        <ele>762.46</ele>
        <time>2013-10-02T07:36:36Z</time>
      </trkpt>
      <trkpt lat="43.75891" lon="6.44363">
        <ele>760.06</ele>
        <time>2013-10-02T07:36:38Z</time>
      </trkpt>
      <trkpt lat="43.75873" lon="6.44424">
        <ele>756.69</ele>
        <time>2013-10-02T07:36:42Z</time>
      </trkpt>
      <trkpt lat="43.75853" lon="6.44482">
        <ele>752.85</ele>
        <time>2013-10-02T07:36:46Z</time>
      </trkpt>
      <trkpt lat="43.75846" lon="6.44499">
        <ele>751.89</ele>
        <time>2013-10-02T07:36:48Z</time>
      </trkpt>
      <trkpt lat="43.75846" lon="6.44507">
        <ele>750.93</ele>
        <time>2013-10-02T07:36:49Z</time>
      </trkpt>
      <trkpt lat="43.7585" lon="6.44513">
        <ele>750.45</ele>
        <time>2013-10-02T07:36:50Z</time>
      </trkpt>
      <trkpt lat="43.75856" lon="6.44514">
        <ele>749.97</ele>
        <time>2013-10-02T07:36:51Z</time>
      </trkpt>
      <trkpt lat="43.75862" lon="6.4451">
        <ele>749.49</ele>
        <time>2013-10-02T07:36:52Z</time>
      </trkpt>
      <trkpt lat="43.75868" lon="6.44505">
        <ele>749.49</ele>
        <time>2013-10-02T07:36:53Z</time>
      </trkpt>
      <trkpt lat="43.75874" lon="6.445">
        <ele>749.49</ele>
        <time>2013-10-02T07:36:54Z</time>
      </trkpt>
      <trkpt lat="43.7588" lon="6.44495">
        <ele>749.49</ele>
        <time>2013-10-02T07:36:55Z</time>
      </trkpt>
      <trkpt lat="43.75922" lon="6.44465">
        <ele>747.56</ele>
        <time>2013-10-02T07:37:01Z</time>
      </trkpt>
      <trkpt lat="43.75936" lon="6.44458">
        <ele>746.6</ele>
        <time>2013-10-02T07:37:03Z</time>
      </trkpt>
      <trkpt lat="43.75942" lon="6.44452">
        <ele>746.12</ele>
        <time>2013-10-02T07:37:04Z</time>
      </trkpt>
      <trkpt lat="43.75947" lon="6.44446">
        <ele>746.12</ele>
        <time>2013-10-02T07:37:05Z</time>
      </trkpt>
      <trkpt lat="43.75951" lon="6.44437">
        <ele>746.12</ele>
        <time>2013-10-02T07:37:06Z</time>
      </trkpt>
      <trkpt lat="43.75955" lon="6.44428">
        <ele>746.12</ele>
        <time>2013-10-02T07:37:07Z</time>
      </trkpt>
      <trkpt lat="43.75957" lon="6.44418">
        <ele>745.64</ele>
        <time>2013-10-02T07:37:08Z</time>
      </trkpt>
      <trkpt lat="43.75959" lon="6.44409">
        <ele>745.64</ele>
        <time>2013-10-02T07:37:09Z</time>
      </trkpt>
      <trkpt lat="43.7596" lon="6.444">
        <ele>745.16</ele>
        <time>2013-10-02T07:37:10Z</time>
      </trkpt>
      <trkpt lat="43.75963" lon="6.44393">
        <ele>744.2</ele>
        <time>2013-10-02T07:37:11Z</time>
      </trkpt>
      <trkpt lat="43.75968" lon="6.44392">
        <ele>743.72</ele>
        <time>2013-10-02T07:37:12Z</time>
      </trkpt>
      <trkpt lat="43.75973" lon="6.44396">
        <ele>743.24</ele>
        <time>2013-10-02T07:37:13Z</time>
      </trkpt>
      <trkpt lat="43.75976" lon="6.44404">
        <ele>742.76</ele>
        <time>2013-10-02T07:37:14Z</time>
      </trkpt>
      <trkpt lat="43.75974" lon="6.44412">
        <ele>742.76</ele>
        <time>2013-10-02T07:37:15Z</time>
      </trkpt>
      <trkpt lat="43.75971" lon="6.44421">
        <ele>742.28</ele>
        <time>2013-10-02T07:37:16Z</time>
      </trkpt>
      <trkpt lat="43.75968" lon="6.44429">
        <ele>742.28</ele>
        <time>2013-10-02T07:37:17Z</time>
      </trkpt>
      <trkpt lat="43.75966" lon="6.4444">
        <ele>742.28</ele>
        <time>2013-10-02T07:37:18Z</time>
      </trkpt>
      <trkpt lat="43.75965" lon="6.44451">
        <ele>741.79</ele>
        <time>2013-10-02T07:37:19Z</time>
      </trkpt>
      <trkpt lat="43.75962" lon="6.44486">
        <ele>739.87</ele>
        <time>2013-10-02T07:37:22Z</time>
      </trkpt>
      <trkpt lat="43.75961" lon="6.44512">
        <ele>738.91</ele>
        <time>2013-10-02T07:37:24Z</time>
      </trkpt>
      <trkpt lat="43.75956" lon="6.44571">
        <ele>735.55</ele>
        <time>2013-10-02T07:37:28Z</time>
      </trkpt>
      <trkpt lat="43.75954" lon="6.44602">
        <ele>734.1</ele>
        <time>2013-10-02T07:37:30Z</time>
      </trkpt>
      <trkpt lat="43.75954" lon="6.44618">
        <ele>733.14</ele>
        <time>2013-10-02T07:37:31Z</time>
      </trkpt>
      <trkpt lat="43.75956" lon="6.44634">
        <ele>732.18</ele>
        <time>2013-10-02T07:37:32Z</time>
      </trkpt>
      <trkpt lat="43.75959" lon="6.4465">
        <ele>731.22</ele>
        <time>2013-10-02T07:37:33Z</time>
      </trkpt>
      <trkpt lat="43.75964" lon="6.44666">
        <ele>729.78</ele>
        <time>2013-10-02T07:37:34Z</time>
      </trkpt>
      <trkpt lat="43.75971" lon="6.4468">
        <ele>728.82</ele>
        <time>2013-10-02T07:37:35Z</time>
      </trkpt>
      <trkpt lat="43.75979" lon="6.44693">
        <ele>728.34</ele>
        <time>2013-10-02T07:37:36Z</time>
      </trkpt>
      <trkpt lat="43.75987" lon="6.44705">
        <ele>726.89</ele>
        <time>2013-10-02T07:37:37Z</time>
      </trkpt>
      <trkpt lat="43.76013" lon="6.4475">
        <ele>723.53</ele>
        <time>2013-10-02T07:37:41Z</time>
      </trkpt>
      <trkpt lat="43.76019" lon="6.44759">
        <ele>724.01</ele>
        <time>2013-10-02T07:37:42Z</time>
      </trkpt>
      <trkpt lat="43.76025" lon="6.44767">
        <ele>724.01</ele>
        <time>2013-10-02T07:37:43Z</time>
      </trkpt>
      <trkpt lat="43.76031" lon="6.44774">
        <ele>723.53</ele>
        <time>2013-10-02T07:37:44Z</time>
      </trkpt>
      <trkpt lat="43.76055" lon="6.44796">
        <ele>722.57</ele>
        <time>2013-10-02T07:37:48Z</time>
      </trkpt>
      <trkpt lat="43.76061" lon="6.44801">
        <ele>722.09</ele>
        <time>2013-10-02T07:37:49Z</time>
      </trkpt>
      <trkpt lat="43.76068" lon="6.44804">
        <ele>722.09</ele>
        <time>2013-10-02T07:37:50Z</time>
      </trkpt>
      <trkpt lat="43.76075" lon="6.44808">
        <ele>722.57</ele>
        <time>2013-10-02T07:37:51Z</time>
      </trkpt>
      <trkpt lat="43.76082" lon="6.4481">
        <ele>721.13</ele>
        <time>2013-10-02T07:37:52Z</time>
      </trkpt>
      <trkpt lat="43.7609" lon="6.44811">
        <ele>720.65</ele>
        <time>2013-10-02T07:37:53Z</time>
      </trkpt>
      <trkpt lat="43.76161" lon="6.44801">
        <ele>717.76</ele>
        <time>2013-10-02T07:38:02Z</time>
      </trkpt>
      <trkpt lat="43.76169" lon="6.44801">
        <ele>717.76</ele>
        <time>2013-10-02T07:38:03Z</time>
      </trkpt>
      <trkpt lat="43.76195" lon="6.44801">
        <ele>716.32</ele>
        <time>2013-10-02T07:38:06Z</time>
      </trkpt>
      <trkpt lat="43.76251" lon="6.4482">
        <ele>714.88</ele>
        <time>2013-10-02T07:38:13Z</time>
      </trkpt>
      <trkpt lat="43.76276" lon="6.4483">
        <ele>713.44</ele>
        <time>2013-10-02T07:38:16Z</time>
      </trkpt>
      <trkpt lat="43.76306" lon="6.44841">
        <ele>711.99</ele>
        <time>2013-10-02T07:38:20Z</time>
      </trkpt>
      <trkpt lat="43.76312" lon="6.44845">
        <ele>711.51</ele>
        <time>2013-10-02T07:38:21Z</time>
      </trkpt>
      <trkpt lat="43.76316" lon="6.4485">
        <ele>711.51</ele>
        <time>2013-10-02T07:38:22Z</time>
      </trkpt>
      <trkpt lat="43.76318" lon="6.44858">
        <ele>711.51</ele>
        <time>2013-10-02T07:38:23Z</time>
      </trkpt>
      <trkpt lat="43.7632" lon="6.44865">
        <ele>711.99</ele>
        <time>2013-10-02T07:38:24Z</time>
      </trkpt>
      <trkpt lat="43.76321" lon="6.44872">
        <ele>711.99</ele>
        <time>2013-10-02T07:38:25Z</time>
      </trkpt>
      <trkpt lat="43.76322" lon="6.44878">
        <ele>712.95</ele>
        <time>2013-10-02T07:38:26Z</time>
      </trkpt>
      <trkpt lat="43.76323" lon="6.44885">
        <ele>712.47</ele>
        <time>2013-10-02T07:38:27Z</time>
      </trkpt>
      <trkpt lat="43.76325" lon="6.44892">
        <ele>712.47</ele>
        <time>2013-10-02T07:38:28Z</time>
      </trkpt>
      <trkpt lat="43.76326" lon="6.44901">
        <ele>711.99</ele>
        <time>2013-10-02T07:38:29Z</time>
      </trkpt>
      <trkpt lat="43.76328" lon="6.4491">
        <ele>711.51</ele>
        <time>2013-10-02T07:38:30Z</time>
      </trkpt>
      <trkpt lat="43.76339" lon="6.44981">
        <ele>711.51</ele>
        <time>2013-10-02T07:38:38Z</time>
      </trkpt>
      <trkpt lat="43.76339" lon="6.44988">
        <ele>711.99</ele>
        <time>2013-10-02T07:38:39Z</time>
      </trkpt>
      <trkpt lat="43.76338" lon="6.44994">
        <ele>712.47</ele>
        <time>2013-10-02T07:38:40Z</time>
      </trkpt>
      <trkpt lat="43.76336" lon="6.45">
        <ele>712.47</ele>
        <time>2013-10-02T07:38:41Z</time>
      </trkpt>
      <trkpt lat="43.76334" lon="6.45006">
        <ele>712.47</ele>
        <time>2013-10-02T07:38:42Z</time>
      </trkpt>
      <trkpt lat="43.76332" lon="6.45011">
        <ele>712.95</ele>
        <time>2013-10-02T07:38:43Z</time>
      </trkpt>
      <trkpt lat="43.76329" lon="6.45016">
        <ele>713.92</ele>
        <time>2013-10-02T07:38:44Z</time>
      </trkpt>
      <trkpt lat="43.76327" lon="6.4502">
        <ele>713.44</ele>
        <time>2013-10-02T07:38:45Z</time>
      </trkpt>
      <trkpt lat="43.76324" lon="6.45024">
        <ele>713.92</ele>
        <time>2013-10-02T07:38:46Z</time>
      </trkpt>
      <trkpt lat="43.76293" lon="6.45079">
        <ele>716.32</ele>
        <time>2013-10-02T07:38:59Z</time>
      </trkpt>
      <trkpt lat="43.7629" lon="6.45122">
        <ele>717.76</ele>
        <time>2013-10-02T07:39:08Z</time>
      </trkpt>
      <trkpt lat="43.76293" lon="6.45124">
        <ele>717.76</ele>
        <time>2013-10-02T07:39:09Z</time>
      </trkpt>
      <trkpt lat="43.76298" lon="6.45123">
        <ele>717.76</ele>
        <time>2013-10-02T07:39:10Z</time>
      </trkpt>
      <trkpt lat="43.76301" lon="6.45119">
        <ele>717.76</ele>
        <time>2013-10-02T07:39:11Z</time>
      </trkpt>
      <trkpt lat="43.76305" lon="6.45114">
        <ele>718.24</ele>
        <time>2013-10-02T07:39:12Z</time>
      </trkpt>
      <trkpt lat="43.76334" lon="6.45076">
        <ele>718.24</ele>
        <time>2013-10-02T07:39:20Z</time>
      </trkpt>
      <trkpt lat="43.76338" lon="6.45071">
        <ele>717.76</ele>
        <time>2013-10-02T07:39:21Z</time>
      </trkpt>
      <trkpt lat="43.76392" lon="6.45021">
        <ele>718.24</ele>
        <time>2013-10-02T07:39:33Z</time>
      </trkpt>
      <trkpt lat="43.76458" lon="6.44987">
        <ele>717.28</ele>
        <time>2013-10-02T07:39:45Z</time>
      </trkpt>
      <trkpt lat="43.76535" lon="6.44937">
        <ele>716.32</ele>
        <time>2013-10-02T07:39:58Z</time>
      </trkpt>
      <trkpt lat="43.76615" lon="6.44883">
        <ele>716.32</ele>
        <time>2013-10-02T07:40:12Z</time>
      </trkpt>
      <trkpt lat="43.76707" lon="6.44821">
        <ele>715.84</ele>
        <time>2013-10-02T07:40:28Z</time>
      </trkpt>
      <trkpt lat="43.76779" lon="6.44783">
        <ele>714.88</ele>
        <time>2013-10-02T07:40:40Z</time>
      </trkpt>
      <trkpt lat="43.76786" lon="6.44782">
        <ele>714.4</ele>
        <time>2013-10-02T07:40:41Z</time>
      </trkpt>
      <trkpt lat="43.76847" lon="6.44782">
        <ele>712.47</ele>
        <time>2013-10-02T07:40:49Z</time>
      </trkpt>
      <trkpt lat="43.76878" lon="6.44783">
        <ele>711.99</ele>
        <time>2013-10-02T07:40:53Z</time>
      </trkpt>
      <trkpt lat="43.76886" lon="6.44786">
        <ele>711.03</ele>
        <time>2013-10-02T07:40:54Z</time>
      </trkpt>
      <trkpt lat="43.76964" lon="6.44819">
        <ele>708.63</ele>
        <time>2013-10-02T07:41:04Z</time>
      </trkpt>
      <trkpt lat="43.77009" lon="6.44853">
        <ele>706.71</ele>
        <time>2013-10-02T07:41:10Z</time>
      </trkpt>
      <trkpt lat="43.77046" lon="6.44878">
        <ele>705.75</ele>
        <time>2013-10-02T07:41:15Z</time>
      </trkpt>
      <trkpt lat="43.77072" lon="6.44886">
        <ele>704.78</ele>
        <time>2013-10-02T07:41:18Z</time>
      </trkpt>
      <trkpt lat="43.77107" lon="6.44888">
        <ele>703.34</ele>
        <time>2013-10-02T07:41:22Z</time>
      </trkpt>
      <trkpt lat="43.77189" lon="6.44888">
        <ele>700.94</ele>
        <time>2013-10-02T07:41:31Z</time>
      </trkpt>
      <trkpt lat="43.77206" lon="6.44896">
        <ele>699.5</ele>
        <time>2013-10-02T07:41:33Z</time>
      </trkpt>
      <trkpt lat="43.77213" lon="6.44903">
        <ele>699.5</ele>
        <time>2013-10-02T07:41:34Z</time>
      </trkpt>
      <trkpt lat="43.77218" lon="6.44913">
        <ele>699.5</ele>
        <time>2013-10-02T07:41:35Z</time>
      </trkpt>
      <trkpt lat="43.77221" lon="6.44923">
        <ele>699.02</ele>
        <time>2013-10-02T07:41:36Z</time>
      </trkpt>
      <trkpt lat="43.77223" lon="6.44933">
        <ele>699.5</ele>
        <time>2013-10-02T07:41:37Z</time>
      </trkpt>
      <trkpt lat="43.77224" lon="6.44943">
        <ele>699.02</ele>
        <time>2013-10-02T07:41:38Z</time>
      </trkpt>
      <trkpt lat="43.77228" lon="6.4495">
        <ele>698.53</ele>
        <time>2013-10-02T07:41:39Z</time>
      </trkpt>
      <trkpt lat="43.77234" lon="6.44953">
        <ele>698.05</ele>
        <time>2013-10-02T07:41:40Z</time>
      </trkpt>
      <trkpt lat="43.77241" lon="6.44953">
        <ele>698.05</ele>
        <time>2013-10-02T07:41:41Z</time>
      </trkpt>
      <trkpt lat="43.77247" lon="6.44949">
        <ele>698.05</ele>
        <time>2013-10-02T07:41:42Z</time>
      </trkpt>
      <trkpt lat="43.77252" lon="6.44942">
        <ele>698.05</ele>
        <time>2013-10-02T07:41:43Z</time>
      </trkpt>
      <trkpt lat="43.77255" lon="6.44934">
        <ele>697.57</ele>
        <time>2013-10-02T07:41:44Z</time>
      </trkpt>
      <trkpt lat="43.77258" lon="6.44925">
        <ele>696.61</ele>
        <time>2013-10-02T07:41:45Z</time>
      </trkpt>
      <trkpt lat="43.7726" lon="6.44915">
        <ele>697.09</ele>
        <time>2013-10-02T07:41:46Z</time>
      </trkpt>
      <trkpt lat="43.77261" lon="6.44904">
        <ele>696.61</ele>
        <time>2013-10-02T07:41:47Z</time>
      </trkpt>
      <trkpt lat="43.77265" lon="6.44883">
        <ele>696.61</ele>
        <time>2013-10-02T07:41:49Z</time>
      </trkpt>
      <trkpt lat="43.77269" lon="6.44873">
        <ele>696.13</ele>
        <time>2013-10-02T07:41:50Z</time>
      </trkpt>
      <trkpt lat="43.77275" lon="6.44863">
        <ele>695.17</ele>
        <time>2013-10-02T07:41:51Z</time>
      </trkpt>
      <trkpt lat="43.77281" lon="6.44854">
        <ele>694.69</ele>
        <time>2013-10-02T07:41:52Z</time>
      </trkpt>
      <trkpt lat="43.77288" lon="6.44846">
        <ele>694.69</ele>
        <time>2013-10-02T07:41:53Z</time>
      </trkpt>
      <trkpt lat="43.77296" lon="6.44838">
        <ele>694.21</ele>
        <time>2013-10-02T07:41:54Z</time>
      </trkpt>
      <trkpt lat="43.77304" lon="6.44832">
        <ele>694.21</ele>
        <time>2013-10-02T07:41:55Z</time>
      </trkpt>
      <trkpt lat="43.77312" lon="6.44827">
        <ele>693.73</ele>
        <time>2013-10-02T07:41:56Z</time>
      </trkpt>
      <trkpt lat="43.77329" lon="6.44817">
        <ele>692.77</ele>
        <time>2013-10-02T07:41:58Z</time>
      </trkpt>
      <trkpt lat="43.77337" lon="6.44809">
        <ele>692.77</ele>
        <time>2013-10-02T07:41:59Z</time>
      </trkpt>
      <trkpt lat="43.77343" lon="6.448">
        <ele>692.77</ele>
        <time>2013-10-02T07:42:00Z</time>
      </trkpt>
      <trkpt lat="43.77348" lon="6.44789">
        <ele>691.81</ele>
        <time>2013-10-02T07:42:01Z</time>
      </trkpt>
      <trkpt lat="43.77352" lon="6.44777">
        <ele>691.81</ele>
        <time>2013-10-02T07:42:02Z</time>
      </trkpt>
      <trkpt lat="43.77355" lon="6.44765">
        <ele>691.33</ele>
        <time>2013-10-02T07:42:03Z</time>
      </trkpt>
      <trkpt lat="43.77361" lon="6.44754">
        <ele>690.84</ele>
        <time>2013-10-02T07:42:04Z</time>
      </trkpt>
      <trkpt lat="43.77368" lon="6.44744">
        <ele>690.84</ele>
        <time>2013-10-02T07:42:05Z</time>
      </trkpt>
      <trkpt lat="43.77376" lon="6.44739">
        <ele>689.88</ele>
        <time>2013-10-02T07:42:06Z</time>
      </trkpt>
      <trkpt lat="43.77385" lon="6.44738">
        <ele>689.88</ele>
        <time>2013-10-02T07:42:07Z</time>
      </trkpt>
      <trkpt lat="43.77393" lon="6.4474">
        <ele>690.36</ele>
        <time>2013-10-02T07:42:08Z</time>
      </trkpt>
      <trkpt lat="43.77401" lon="6.44742">
        <ele>690.36</ele>
        <time>2013-10-02T07:42:09Z</time>
      </trkpt>
      <trkpt lat="43.77409" lon="6.44745">
        <ele>690.36</ele>
        <time>2013-10-02T07:42:10Z</time>
      </trkpt>
      <trkpt lat="43.77478" lon="6.44774">
        <ele>691.33</ele>
        <time>2013-10-02T07:42:21Z</time>
      </trkpt>
      <trkpt lat="43.77536" lon="6.44803">
        <ele>692.29</ele>
        <time>2013-10-02T07:42:31Z</time>
      </trkpt>
      <trkpt lat="43.77547" lon="6.44809">
        <ele>692.29</ele>
        <time>2013-10-02T07:42:33Z</time>
      </trkpt>
      <trkpt lat="43.77581" lon="6.4484">
        <ele>693.25</ele>
        <time>2013-10-02T07:42:40Z</time>
      </trkpt>
      <trkpt lat="43.77586" lon="6.44844">
        <ele>693.25</ele>
        <time>2013-10-02T07:42:41Z</time>
      </trkpt>
      <trkpt lat="43.77634" lon="6.44864">
        <ele>693.73</ele>
        <time>2013-10-02T07:42:50Z</time>
      </trkpt>
      <trkpt lat="43.77641" lon="6.44864">
        <ele>693.73</ele>
        <time>2013-10-02T07:42:51Z</time>
      </trkpt>
      <trkpt lat="43.77647" lon="6.44862">
        <ele>693.73</ele>
        <time>2013-10-02T07:42:52Z</time>
      </trkpt>
      <trkpt lat="43.77652" lon="6.44858">
        <ele>693.25</ele>
        <time>2013-10-02T07:42:53Z</time>
      </trkpt>
      <trkpt lat="43.77657" lon="6.44852">
        <ele>693.73</ele>
        <time>2013-10-02T07:42:54Z</time>
      </trkpt>
      <trkpt lat="43.77659" lon="6.44846">
        <ele>694.21</ele>
        <time>2013-10-02T07:42:55Z</time>
      </trkpt>
      <trkpt lat="43.7766" lon="6.44838">
        <ele>694.69</ele>
        <time>2013-10-02T07:42:56Z</time>
      </trkpt>
      <trkpt lat="43.77659" lon="6.44831">
        <ele>694.69</ele>
        <time>2013-10-02T07:42:57Z</time>
      </trkpt>
      <trkpt lat="43.77657" lon="6.44824">
        <ele>694.69</ele>
        <time>2013-10-02T07:42:58Z</time>
      </trkpt>
      <trkpt lat="43.77654" lon="6.44817">
        <ele>693.73</ele>
        <time>2013-10-02T07:42:59Z</time>
      </trkpt>
      <trkpt lat="43.77646" lon="6.44797">
        <ele>695.17</ele>
        <time>2013-10-02T07:43:02Z</time>
      </trkpt>
      <trkpt lat="43.7764" lon="6.44778">
        <ele>695.65</ele>
        <time>2013-10-02T07:43:05Z</time>
      </trkpt>
      <trkpt lat="43.77639" lon="6.44771">
        <ele>695.65</ele>
        <time>2013-10-02T07:43:06Z</time>
      </trkpt>
      <trkpt lat="43.77635" lon="6.44747">
        <ele>697.09</ele>
        <time>2013-10-02T07:43:10Z</time>
      </trkpt>
      <trkpt lat="43.77631" lon="6.44706">
        <ele>698.05</ele>
        <time>2013-10-02T07:43:17Z</time>
      </trkpt>
      <trkpt lat="43.7763" lon="6.447">
        <ele>698.53</ele>
        <time>2013-10-02T07:43:18Z</time>
      </trkpt>
      <trkpt lat="43.7763" lon="6.44695">
        <ele>698.53</ele>
        <time>2013-10-02T07:43:19Z</time>
      </trkpt>
      <trkpt lat="43.77629" lon="6.44683">
        <ele>699.02</ele>
        <time>2013-10-02T07:43:21Z</time>
      </trkpt>
      <trkpt lat="43.77628" lon="6.44667">
        <ele>699.98</ele>
        <time>2013-10-02T07:43:24Z</time>
      </trkpt>
      <trkpt lat="43.7763" lon="6.44655">
        <ele>699.98</ele>
        <time>2013-10-02T07:43:26Z</time>
      </trkpt>
      <trkpt lat="43.77631" lon="6.4465">
        <ele>700.46</ele>
        <time>2013-10-02T07:43:27Z</time>
      </trkpt>
      <trkpt lat="43.77633" lon="6.44645">
        <ele>699.98</ele>
        <time>2013-10-02T07:43:28Z</time>
      </trkpt>
      <trkpt lat="43.77636" lon="6.4464">
        <ele>700.46</ele>
        <time>2013-10-02T07:43:29Z</time>
      </trkpt>
      <trkpt lat="43.77638" lon="6.44635">
        <ele>700.46</ele>
        <time>2013-10-02T07:43:30Z</time>
      </trkpt>
      <trkpt lat="43.77669" lon="6.446">
        <ele>702.38</ele>
        <time>2013-10-02T07:43:40Z</time>
      </trkpt>
      <trkpt lat="43.77712" lon="6.44556">
        <ele>704.78</ele>
        <time>2013-10-02T07:43:53Z</time>
      </trkpt>
      <trkpt lat="43.77752" lon="6.44518">
        <ele>707.19</ele>
        <time>2013-10-02T07:44:05Z</time>
      </trkpt>
      <trkpt lat="43.77796" lon="6.44486">
        <ele>709.11</ele>
        <time>2013-10-02T07:44:17Z</time>
      </trkpt>
      <trkpt lat="43.77851" lon="6.44468">
        <ele>711.51</ele>
        <time>2013-10-02T07:44:31Z</time>
      </trkpt>
      <trkpt lat="43.7788" lon="6.4446">
        <ele>712.47</ele>
        <time>2013-10-02T07:44:38Z</time>
      </trkpt>
      <trkpt lat="43.77903" lon="6.44449">
        <ele>713.44</ele>
        <time>2013-10-02T07:44:44Z</time>
      </trkpt>
      <trkpt lat="43.77907" lon="6.44449">
        <ele>714.4</ele>
        <time>2013-10-02T07:44:45Z</time>
      </trkpt>
      <trkpt lat="43.77912" lon="6.44449">
        <ele>713.92</ele>
        <time>2013-10-02T07:44:46Z</time>
      </trkpt>
      <trkpt lat="43.77916" lon="6.44449">
        <ele>713.92</ele>
        <time>2013-10-02T07:44:47Z</time>
      </trkpt>
      <trkpt lat="43.7792" lon="6.44452">
        <ele>714.4</ele>
        <time>2013-10-02T07:44:48Z</time>
      </trkpt>
      <trkpt lat="43.77924" lon="6.44455">
        <ele>714.4</ele>
        <time>2013-10-02T07:44:49Z</time>
      </trkpt>
      <trkpt lat="43.77926" lon="6.44459">
        <ele>714.88</ele>
        <time>2013-10-02T07:44:50Z</time>
      </trkpt>
      <trkpt lat="43.77928" lon="6.44464">
        <ele>715.36</ele>
        <time>2013-10-02T07:44:51Z</time>
      </trkpt>
      <trkpt lat="43.77929" lon="6.44469">
        <ele>715.36</ele>
        <time>2013-10-02T07:44:52Z</time>
      </trkpt>
      <trkpt lat="43.77929" lon="6.44473">
        <ele>715.84</ele>
        <time>2013-10-02T07:44:53Z</time>
      </trkpt>
      <trkpt lat="43.7793" lon="6.44478">
        <ele>716.32</ele>
        <time>2013-10-02T07:44:54Z</time>
      </trkpt>
      <trkpt lat="43.7793" lon="6.44483">
        <ele>716.32</ele>
        <time>2013-10-02T07:44:55Z</time>
      </trkpt>
      <trkpt lat="43.77942" lon="6.44525">
        <ele>717.76</ele>
        <time>2013-10-02T07:45:04Z</time>
      </trkpt>
      <trkpt lat="43.77967" lon="6.44529">
        <ele>718.72</ele>
        <time>2013-10-02T07:45:11Z</time>
      </trkpt>
      <trkpt lat="43.77993" lon="6.44517">
        <ele>720.65</ele>
        <time>2013-10-02T07:45:18Z</time>
      </trkpt>
      <trkpt lat="43.78026" lon="6.44472">
        <ele>722.09</ele>
        <time>2013-10-02T07:45:30Z</time>
      </trkpt>
      <trkpt lat="43.78062" lon="6.44443">
        <ele>724.49</ele>
        <time>2013-10-02T07:45:41Z</time>
      </trkpt>
      <trkpt lat="43.78091" lon="6.44457">
        <ele>726.89</ele>
        <time>2013-10-02T07:45:50Z</time>
      </trkpt>
      <trkpt lat="43.7813" lon="6.44489">
        <ele>728.82</ele>
        <time>2013-10-02T07:46:02Z</time>
      </trkpt>
      <trkpt lat="43.78176" lon="6.44516">
        <ele>729.3</ele>
        <time>2013-10-02T07:46:14Z</time>
      </trkpt>
      <trkpt lat="43.78241" lon="6.44544">
        <ele>728.82</ele>
        <time>2013-10-02T07:46:26Z</time>
      </trkpt>
      <trkpt lat="43.78273" lon="6.44552">
        <ele>728.34</ele>
        <time>2013-10-02T07:46:31Z</time>
      </trkpt>
      <trkpt lat="43.78316" lon="6.44553">
        <ele>727.37</ele>
        <time>2013-10-02T07:46:37Z</time>
      </trkpt>
      <trkpt lat="43.78387" lon="6.44577">
        <ele>726.89</ele>
        <time>2013-10-02T07:46:47Z</time>
      </trkpt>
      <trkpt lat="43.78448" lon="6.44584">
        <ele>725.45</ele>
        <time>2013-10-02T07:46:56Z</time>
      </trkpt>
      <trkpt lat="43.78467" lon="6.44585">
        <ele>724.97</ele>
        <time>2013-10-02T07:46:59Z</time>
      </trkpt>
      <trkpt lat="43.78473" lon="6.44585">
        <ele>724.97</ele>
        <time>2013-10-02T07:47:00Z</time>
      </trkpt>
      <trkpt lat="43.78525" lon="6.44577">
        <ele>725.45</ele>
        <time>2013-10-02T07:47:09Z</time>
      </trkpt>
      <trkpt lat="43.7853" lon="6.44574">
        <ele>725.45</ele>
        <time>2013-10-02T07:47:10Z</time>
      </trkpt>
      <trkpt lat="43.78535" lon="6.4457">
        <ele>725.45</ele>
        <time>2013-10-02T07:47:11Z</time>
      </trkpt>
      <trkpt lat="43.78539" lon="6.44566">
        <ele>725.45</ele>
        <time>2013-10-02T07:47:12Z</time>
      </trkpt>
      <trkpt lat="43.78543" lon="6.4456">
        <ele>725.45</ele>
        <time>2013-10-02T07:47:13Z</time>
      </trkpt>
      <trkpt lat="43.78547" lon="6.44554">
        <ele>725.45</ele>
        <time>2013-10-02T07:47:14Z</time>
      </trkpt>
      <trkpt lat="43.7855" lon="6.44548">
        <ele>725.45</ele>
        <time>2013-10-02T07:47:15Z</time>
      </trkpt>
      <trkpt lat="43.78553" lon="6.44541">
        <ele>725.93</ele>
        <time>2013-10-02T07:47:16Z</time>
      </trkpt>
      <trkpt lat="43.78556" lon="6.44534">
        <ele>725.93</ele>
        <time>2013-10-02T07:47:17Z</time>
      </trkpt>
      <trkpt lat="43.78557" lon="6.44527">
        <ele>726.41</ele>
        <time>2013-10-02T07:47:18Z</time>
      </trkpt>
      <trkpt lat="43.78559" lon="6.4452">
        <ele>726.41</ele>
        <time>2013-10-02T07:47:19Z</time>
      </trkpt>
      <trkpt lat="43.7856" lon="6.44512">
        <ele>725.93</ele>
        <time>2013-10-02T07:47:20Z</time>
      </trkpt>
      <trkpt lat="43.78561" lon="6.44505">
        <ele>725.93</ele>
        <time>2013-10-02T07:47:21Z</time>
      </trkpt>
      <trkpt lat="43.78569" lon="6.44432">
        <ele>725.93</ele>
        <time>2013-10-02T07:47:30Z</time>
      </trkpt>
      <trkpt lat="43.7857" lon="6.44406">
        <ele>725.93</ele>
        <time>2013-10-02T07:47:33Z</time>
      </trkpt>
      <trkpt lat="43.78572" lon="6.44397">
        <ele>725.93</ele>
        <time>2013-10-02T07:47:34Z</time>
      </trkpt>
      <trkpt lat="43.78578" lon="6.44381">
        <ele>725.45</ele>
        <time>2013-10-02T07:47:36Z</time>
      </trkpt>
      <trkpt lat="43.78582" lon="6.44373">
        <ele>725.93</ele>
        <time>2013-10-02T07:47:37Z</time>
      </trkpt>
      <trkpt lat="43.78586" lon="6.44367">
        <ele>725.45</ele>
        <time>2013-10-02T07:47:38Z</time>
      </trkpt>
      <trkpt lat="43.78592" lon="6.44362">
        <ele>725.45</ele>
        <time>2013-10-02T07:47:39Z</time>
      </trkpt>
      <trkpt lat="43.78598" lon="6.44359">
        <ele>725.45</ele>
        <time>2013-10-02T07:47:40Z</time>
      </trkpt>
      <trkpt lat="43.78604" lon="6.44356">
        <ele>724.97</ele>
        <time>2013-10-02T07:47:41Z</time>
      </trkpt>
      <trkpt lat="43.7861" lon="6.44354">
        <ele>724.97</ele>
        <time>2013-10-02T07:47:42Z</time>
      </trkpt>
      <trkpt lat="43.78617" lon="6.44353">
        <ele>724.97</ele>
        <time>2013-10-02T07:47:43Z</time>
      </trkpt>
      <trkpt lat="43.78694" lon="6.44345">
        <ele>722.57</ele>
        <time>2013-10-02T07:47:53Z</time>
      </trkpt>
      <trkpt lat="43.78761" lon="6.44337">
        <ele>719.2</ele>
        <time>2013-10-02T07:48:01Z</time>
      </trkpt>
      <trkpt lat="43.78844" lon="6.44334">
        <ele>715.84</ele>
        <time>2013-10-02T07:48:11Z</time>
      </trkpt>
      <trkpt lat="43.78851" lon="6.44338">
        <ele>715.84</ele>
        <time>2013-10-02T07:48:12Z</time>
      </trkpt>
      <trkpt lat="43.78859" lon="6.44343">
        <ele>715.36</ele>
        <time>2013-10-02T07:48:13Z</time>
      </trkpt>
      <trkpt lat="43.78865" lon="6.4435">
        <ele>714.88</ele>
        <time>2013-10-02T07:48:14Z</time>
      </trkpt>
      <trkpt lat="43.78871" lon="6.44358">
        <ele>714.4</ele>
        <time>2013-10-02T07:48:15Z</time>
      </trkpt>
      <trkpt lat="43.78877" lon="6.44367">
        <ele>713.92</ele>
        <time>2013-10-02T07:48:16Z</time>
      </trkpt>
      <trkpt lat="43.78883" lon="6.44375">
        <ele>713.44</ele>
        <time>2013-10-02T07:48:17Z</time>
      </trkpt>
      <trkpt lat="43.78889" lon="6.44383">
        <ele>712.95</ele>
        <time>2013-10-02T07:48:18Z</time>
      </trkpt>
      <trkpt lat="43.78909" lon="6.44403">
        <ele>711.99</ele>
        <time>2013-10-02T07:48:21Z</time>
      </trkpt>
      <trkpt lat="43.78936" lon="6.4442">
        <ele>711.51</ele>
        <time>2013-10-02T07:48:25Z</time>
      </trkpt>
      <trkpt lat="43.78961" lon="6.44424">
        <ele>710.07</ele>
        <time>2013-10-02T07:48:28Z</time>
      </trkpt>
      <trkpt lat="43.78991" lon="6.4442">
        <ele>708.15</ele>
        <time>2013-10-02T07:48:31Z</time>
      </trkpt>
      <trkpt lat="43.79001" lon="6.44417">
        <ele>707.67</ele>
        <time>2013-10-02T07:48:32Z</time>
      </trkpt>
      <trkpt lat="43.7901" lon="6.44412">
        <ele>707.67</ele>
        <time>2013-10-02T07:48:33Z</time>
      </trkpt>
      <trkpt lat="43.79019" lon="6.44403">
        <ele>707.19</ele>
        <time>2013-10-02T07:48:34Z</time>
      </trkpt>
      <trkpt lat="43.79027" lon="6.44393">
        <ele>706.71</ele>
        <time>2013-10-02T07:48:35Z</time>
      </trkpt>
      <trkpt lat="43.79034" lon="6.44384">
        <ele>706.71</ele>
        <time>2013-10-02T07:48:36Z</time>
      </trkpt>
      <trkpt lat="43.79062" lon="6.44346">
        <ele>704.3</ele>
        <time>2013-10-02T07:48:40Z</time>
      </trkpt>
      <trkpt lat="43.79108" lon="6.44282">
        <ele>701.9</ele>
        <time>2013-10-02T07:48:47Z</time>
      </trkpt>
      <trkpt lat="43.79117" lon="6.44276">
        <ele>701.42</ele>
        <time>2013-10-02T07:48:48Z</time>
      </trkpt>
      <trkpt lat="43.79126" lon="6.44273">
        <ele>701.42</ele>
        <time>2013-10-02T07:48:49Z</time>
      </trkpt>
      <trkpt lat="43.79135" lon="6.44272">
        <ele>700.46</ele>
        <time>2013-10-02T07:48:50Z</time>
      </trkpt>
      <trkpt lat="43.79144" lon="6.44272">
        <ele>699.98</ele>
        <time>2013-10-02T07:48:51Z</time>
      </trkpt>
      <trkpt lat="43.79154" lon="6.44273">
        <ele>699.98</ele>
        <time>2013-10-02T07:48:52Z</time>
      </trkpt>
      <trkpt lat="43.79191" lon="6.44277">
        <ele>698.05</ele>
        <time>2013-10-02T07:48:56Z</time>
      </trkpt>
      <trkpt lat="43.79249" lon="6.44284">
        <ele>695.65</ele>
        <time>2013-10-02T07:49:02Z</time>
      </trkpt>
      <trkpt lat="43.79269" lon="6.44286">
        <ele>694.69</ele>
        <time>2013-10-02T07:49:04Z</time>
      </trkpt>
      <trkpt lat="43.79278" lon="6.44284">
        <ele>694.21</ele>
        <time>2013-10-02T07:49:05Z</time>
      </trkpt>
      <trkpt lat="43.79287" lon="6.4428">
        <ele>693.73</ele>
        <time>2013-10-02T07:49:06Z</time>
      </trkpt>
      <trkpt lat="43.79295" lon="6.44274">
        <ele>693.25</ele>
        <time>2013-10-02T07:49:07Z</time>
      </trkpt>
      <trkpt lat="43.79304" lon="6.44268">
        <ele>693.25</ele>
        <time>2013-10-02T07:49:08Z</time>
      </trkpt>
      <trkpt lat="43.7933" lon="6.4425">
        <ele>691.81</ele>
        <time>2013-10-02T07:49:11Z</time>
      </trkpt>
      <trkpt lat="43.79339" lon="6.44247">
        <ele>691.33</ele>
        <time>2013-10-02T07:49:12Z</time>
      </trkpt>
      <trkpt lat="43.79348" lon="6.44246">
        <ele>691.33</ele>
        <time>2013-10-02T07:49:13Z</time>
      </trkpt>
      <trkpt lat="43.79358" lon="6.44245">
        <ele>690.84</ele>
        <time>2013-10-02T07:49:14Z</time>
      </trkpt>
      <trkpt lat="43.79367" lon="6.44245">
        <ele>689.88</ele>
        <time>2013-10-02T07:49:15Z</time>
      </trkpt>
      <trkpt lat="43.79377" lon="6.44246">
        <ele>689.88</ele>
        <time>2013-10-02T07:49:16Z</time>
      </trkpt>
      <trkpt lat="43.79394" lon="6.44251">
        <ele>689.4</ele>
        <time>2013-10-02T07:49:18Z</time>
      </trkpt>
      <trkpt lat="43.79403" lon="6.44255">
        <ele>688.92</ele>
        <time>2013-10-02T07:49:19Z</time>
      </trkpt>
      <trkpt lat="43.79412" lon="6.44261">
        <ele>688.44</ele>
        <time>2013-10-02T07:49:20Z</time>
      </trkpt>
      <trkpt lat="43.79456" lon="6.44291">
        <ele>686.04</ele>
        <time>2013-10-02T07:49:25Z</time>
      </trkpt>
      <trkpt lat="43.79466" lon="6.44295">
        <ele>686.04</ele>
        <time>2013-10-02T07:49:26Z</time>
      </trkpt>
      <trkpt lat="43.79517" lon="6.44306">
        <ele>683.63</ele>
        <time>2013-10-02T07:49:31Z</time>
      </trkpt>
      <trkpt lat="43.79538" lon="6.44311">
        <ele>682.67</ele>
        <time>2013-10-02T07:49:33Z</time>
      </trkpt>
      <trkpt lat="43.79548" lon="6.44314">
        <ele>682.19</ele>
        <time>2013-10-02T07:49:34Z</time>
      </trkpt>
      <trkpt lat="43.79576" lon="6.44326">
        <ele>680.75</ele>
        <time>2013-10-02T07:49:37Z</time>
      </trkpt>
      <trkpt lat="43.79583" lon="6.44334">
        <ele>679.79</ele>
        <time>2013-10-02T07:49:38Z</time>
      </trkpt>
      <trkpt lat="43.79587" lon="6.44344">
        <ele>679.79</ele>
        <time>2013-10-02T07:49:39Z</time>
      </trkpt>
      <trkpt lat="43.79589" lon="6.44355">
        <ele>678.83</ele>
        <time>2013-10-02T07:49:40Z</time>
      </trkpt>
      <trkpt lat="43.79589" lon="6.44367">
        <ele>679.31</ele>
        <time>2013-10-02T07:49:41Z</time>
      </trkpt>
      <trkpt lat="43.79588" lon="6.44379">
        <ele>678.83</ele>
        <time>2013-10-02T07:49:42Z</time>
      </trkpt>
      <trkpt lat="43.79588" lon="6.44417">
        <ele>678.35</ele>
        <time>2013-10-02T07:49:45Z</time>
      </trkpt>
      <trkpt lat="43.7959" lon="6.44429">
        <ele>677.87</ele>
        <time>2013-10-02T07:49:46Z</time>
      </trkpt>
      <trkpt lat="43.79596" lon="6.44451">
        <ele>678.35</ele>
        <time>2013-10-02T07:49:48Z</time>
      </trkpt>
      <trkpt lat="43.796" lon="6.44461">
        <ele>677.87</ele>
        <time>2013-10-02T07:49:49Z</time>
      </trkpt>
      <trkpt lat="43.79607" lon="6.44468">
        <ele>677.39</ele>
        <time>2013-10-02T07:49:50Z</time>
      </trkpt>
      <trkpt lat="43.7962" lon="6.44477">
        <ele>677.39</ele>
        <time>2013-10-02T07:49:52Z</time>
      </trkpt>
      <trkpt lat="43.79627" lon="6.44479">
        <ele>677.87</ele>
        <time>2013-10-02T07:49:53Z</time>
      </trkpt>
      <trkpt lat="43.79633" lon="6.44478">
        <ele>677.87</ele>
        <time>2013-10-02T07:49:54Z</time>
      </trkpt>
      <trkpt lat="43.7964" lon="6.44476">
        <ele>677.87</ele>
        <time>2013-10-02T07:49:55Z</time>
      </trkpt>
      <trkpt lat="43.79649" lon="6.4447">
        <ele>677.87</ele>
        <time>2013-10-02T07:49:56Z</time>
      </trkpt>
      <trkpt lat="43.79657" lon="6.44464">
        <ele>677.87</ele>
        <time>2013-10-02T07:49:57Z</time>
      </trkpt>
      <trkpt lat="43.79665" lon="6.44456">
        <ele>677.39</ele>
        <time>2013-10-02T07:49:58Z</time>
      </trkpt>
      <trkpt lat="43.79672" lon="6.44447">
        <ele>677.39</ele>
        <time>2013-10-02T07:49:59Z</time>
      </trkpt>
      <trkpt lat="43.79741" lon="6.44365">
        <ele>674.02</ele>
        <time>2013-10-02T07:50:09Z</time>
      </trkpt>
      <trkpt lat="43.79773" lon="6.44342">
        <ele>672.58</ele>
        <time>2013-10-02T07:50:13Z</time>
      </trkpt>
      <trkpt lat="43.79787" lon="6.44326">
        <ele>672.1</ele>
        <time>2013-10-02T07:50:15Z</time>
      </trkpt>
      <trkpt lat="43.79793" lon="6.44317">
        <ele>672.1</ele>
        <time>2013-10-02T07:50:16Z</time>
      </trkpt>
      <trkpt lat="43.79798" lon="6.44308">
        <ele>672.1</ele>
        <time>2013-10-02T07:50:17Z</time>
      </trkpt>
      <trkpt lat="43.79803" lon="6.44298">
        <ele>672.1</ele>
        <time>2013-10-02T07:50:18Z</time>
      </trkpt>
      <trkpt lat="43.79806" lon="6.44287">
        <ele>671.62</ele>
        <time>2013-10-02T07:50:19Z</time>
      </trkpt>
      <trkpt lat="43.79807" lon="6.44276">
        <ele>671.62</ele>
        <time>2013-10-02T07:50:20Z</time>
      </trkpt>
      <trkpt lat="43.79806" lon="6.44264">
        <ele>671.14</ele>
        <time>2013-10-02T07:50:21Z</time>
      </trkpt>
      <trkpt lat="43.79804" lon="6.44252">
        <ele>671.14</ele>
        <time>2013-10-02T07:50:22Z</time>
      </trkpt>
      <trkpt lat="43.798" lon="6.4424">
        <ele>670.18</ele>
        <time>2013-10-02T07:50:23Z</time>
      </trkpt>
      <trkpt lat="43.79797" lon="6.44228">
        <ele>669.7</ele>
        <time>2013-10-02T07:50:24Z</time>
      </trkpt>
      <trkpt lat="43.79796" lon="6.44215">
        <ele>670.18</ele>
        <time>2013-10-02T07:50:25Z</time>
      </trkpt>
      <trkpt lat="43.79797" lon="6.44202">
        <ele>669.7</ele>
        <time>2013-10-02T07:50:26Z</time>
      </trkpt>
      <trkpt lat="43.79799" lon="6.4419">
        <ele>668.73</ele>
        <time>2013-10-02T07:50:27Z</time>
      </trkpt>
      <trkpt lat="43.79804" lon="6.44179">
        <ele>668.25</ele>
        <time>2013-10-02T07:50:28Z</time>
      </trkpt>
      <trkpt lat="43.7981" lon="6.4417">
        <ele>667.77</ele>
        <time>2013-10-02T07:50:29Z</time>
      </trkpt>
      <trkpt lat="43.79817" lon="6.44164">
        <ele>667.77</ele>
        <time>2013-10-02T07:50:30Z</time>
      </trkpt>
      <trkpt lat="43.79826" lon="6.4416">
        <ele>667.29</ele>
        <time>2013-10-02T07:50:31Z</time>
      </trkpt>
      <trkpt lat="43.79835" lon="6.44157">
        <ele>667.29</ele>
        <time>2013-10-02T07:50:32Z</time>
      </trkpt>
      <trkpt lat="43.79895" lon="6.4414">
        <ele>666.33</ele>
        <time>2013-10-02T07:50:39Z</time>
      </trkpt>
      <trkpt lat="43.79904" lon="6.44139">
        <ele>665.85</ele>
        <time>2013-10-02T07:50:40Z</time>
      </trkpt>
      <trkpt lat="43.79922" lon="6.44137">
        <ele>665.37</ele>
        <time>2013-10-02T07:50:42Z</time>
      </trkpt>
      <trkpt lat="43.7993" lon="6.44134">
        <ele>664.89</ele>
        <time>2013-10-02T07:50:43Z</time>
      </trkpt>
      <trkpt lat="43.79938" lon="6.44127">
        <ele>664.89</ele>
        <time>2013-10-02T07:50:44Z</time>
      </trkpt>
      <trkpt lat="43.79954" lon="6.44115">
        <ele>664.41</ele>
        <time>2013-10-02T07:50:46Z</time>
      </trkpt>
      <trkpt lat="43.79962" lon="6.44113">
        <ele>664.41</ele>
        <time>2013-10-02T07:50:47Z</time>
      </trkpt>
      <trkpt lat="43.79971" lon="6.44113">
        <ele>663.93</ele>
        <time>2013-10-02T07:50:48Z</time>
      </trkpt>
      <trkpt lat="43.79979" lon="6.44114">
        <ele>663.93</ele>
        <time>2013-10-02T07:50:49Z</time>
      </trkpt>
      <trkpt lat="43.79988" lon="6.44115">
        <ele>663.93</ele>
        <time>2013-10-02T07:50:50Z</time>
      </trkpt>
      <trkpt lat="43.79996" lon="6.44114">
        <ele>663.93</ele>
        <time>2013-10-02T07:50:51Z</time>
      </trkpt>
      <trkpt lat="43.80004" lon="6.4411">
        <ele>663.93</ele>
        <time>2013-10-02T07:50:52Z</time>
      </trkpt>
      <trkpt lat="43.80012" lon="6.44104">
        <ele>663.45</ele>
        <time>2013-10-02T07:50:53Z</time>
      </trkpt>
      <trkpt lat="43.80017" lon="6.44097">
        <ele>663.45</ele>
        <time>2013-10-02T07:50:54Z</time>
      </trkpt>
      <trkpt lat="43.80022" lon="6.44088">
        <ele>663.45</ele>
        <time>2013-10-02T07:50:55Z</time>
      </trkpt>
      <trkpt lat="43.80025" lon="6.44078">
        <ele>662.97</ele>
        <time>2013-10-02T07:50:56Z</time>
      </trkpt>
      <trkpt lat="43.80026" lon="6.44067">
        <ele>662.97</ele>
        <time>2013-10-02T07:50:57Z</time>
      </trkpt>
      <trkpt lat="43.80028" lon="6.44056">
        <ele>662.49</ele>
        <time>2013-10-02T07:50:58Z</time>
      </trkpt>
      <trkpt lat="43.80033" lon="6.44033">
        <ele>662.01</ele>
        <time>2013-10-02T07:51:00Z</time>
      </trkpt>
      <trkpt lat="43.80037" lon="6.44023">
        <ele>661.52</ele>
        <time>2013-10-02T07:51:01Z</time>
      </trkpt>
      <trkpt lat="43.80043" lon="6.44013">
        <ele>661.52</ele>
        <time>2013-10-02T07:51:02Z</time>
      </trkpt>
      <trkpt lat="43.80049" lon="6.44003">
        <ele>661.04</ele>
        <time>2013-10-02T07:51:03Z</time>
      </trkpt>
      <trkpt lat="43.80056" lon="6.43996">
        <ele>660.56</ele>
        <time>2013-10-02T07:51:04Z</time>
      </trkpt>
      <trkpt lat="43.80064" lon="6.43989">
        <ele>660.08</ele>
        <time>2013-10-02T07:51:05Z</time>
      </trkpt>
      <trkpt lat="43.80072" lon="6.43985">
        <ele>660.08</ele>
        <time>2013-10-02T07:51:06Z</time>
      </trkpt>
      <trkpt lat="43.8008" lon="6.43982">
        <ele>659.6</ele>
        <time>2013-10-02T07:51:07Z</time>
      </trkpt>
      <trkpt lat="43.80089" lon="6.43981">
        <ele>659.6</ele>
        <time>2013-10-02T07:51:08Z</time>
      </trkpt>
      <trkpt lat="43.80097" lon="6.43979">
        <ele>659.6</ele>
        <time>2013-10-02T07:51:09Z</time>
      </trkpt>
      <trkpt lat="43.80164" lon="6.4398">
        <ele>658.16</ele>
        <time>2013-10-02T07:51:17Z</time>
      </trkpt>
      <trkpt lat="43.80172" lon="6.4398">
        <ele>658.16</ele>
        <time>2013-10-02T07:51:18Z</time>
      </trkpt>
      <trkpt lat="43.80196" lon="6.43973">
        <ele>659.12</ele>
        <time>2013-10-02T07:51:21Z</time>
      </trkpt>
      <trkpt lat="43.80203" lon="6.43969">
        <ele>658.16</ele>
        <time>2013-10-02T07:51:22Z</time>
      </trkpt>
      <trkpt lat="43.80275" lon="6.43913">
        <ele>658.16</ele>
        <time>2013-10-02T07:51:33Z</time>
      </trkpt>
      <trkpt lat="43.80283" lon="6.43912">
        <ele>657.68</ele>
        <time>2013-10-02T07:51:34Z</time>
      </trkpt>
      <trkpt lat="43.8029" lon="6.43911">
        <ele>657.68</ele>
        <time>2013-10-02T07:51:35Z</time>
      </trkpt>
      <trkpt lat="43.80298" lon="6.43912">
        <ele>657.2</ele>
        <time>2013-10-02T07:51:36Z</time>
      </trkpt>
      <trkpt lat="43.80306" lon="6.43915">
        <ele>657.68</ele>
        <time>2013-10-02T07:51:37Z</time>
      </trkpt>
      <trkpt lat="43.80313" lon="6.43919">
        <ele>657.68</ele>
        <time>2013-10-02T07:51:38Z</time>
      </trkpt>
      <trkpt lat="43.8032" lon="6.43925">
        <ele>657.68</ele>
        <time>2013-10-02T07:51:39Z</time>
      </trkpt>
      <trkpt lat="43.80326" lon="6.43932">
        <ele>657.2</ele>
        <time>2013-10-02T07:51:40Z</time>
      </trkpt>
      <trkpt lat="43.80332" lon="6.43939">
        <ele>656.24</ele>
        <time>2013-10-02T07:51:41Z</time>
      </trkpt>
      <trkpt lat="43.80338" lon="6.43946">
        <ele>656.24</ele>
        <time>2013-10-02T07:51:42Z</time>
      </trkpt>
      <trkpt lat="43.80367" lon="6.43989">
        <ele>654.8</ele>
        <time>2013-10-02T07:51:47Z</time>
      </trkpt>
      <trkpt lat="43.80371" lon="6.44">
        <ele>654.8</ele>
        <time>2013-10-02T07:51:48Z</time>
      </trkpt>
      <trkpt lat="43.80372" lon="6.44011">
        <ele>654.31</ele>
        <time>2013-10-02T07:51:49Z</time>
      </trkpt>
      <trkpt lat="43.80372" lon="6.44022">
        <ele>654.31</ele>
        <time>2013-10-02T07:51:50Z</time>
      </trkpt>
      <trkpt lat="43.80372" lon="6.44032">
        <ele>654.31</ele>
        <time>2013-10-02T07:51:51Z</time>
      </trkpt>
      <trkpt lat="43.8038" lon="6.44131">
        <ele>653.35</ele>
        <time>2013-10-02T07:52:00Z</time>
      </trkpt>
      <trkpt lat="43.80388" lon="6.44173">
        <ele>652.87</ele>
        <time>2013-10-02T07:52:04Z</time>
      </trkpt>
      <trkpt lat="43.80389" lon="6.44183">
        <ele>652.87</ele>
        <time>2013-10-02T07:52:05Z</time>
      </trkpt>
      <trkpt lat="43.80389" lon="6.44193">
        <ele>652.87</ele>
        <time>2013-10-02T07:52:06Z</time>
      </trkpt>
      <trkpt lat="43.80391" lon="6.44202">
        <ele>652.39</ele>
        <time>2013-10-02T07:52:07Z</time>
      </trkpt>
      <trkpt lat="43.80394" lon="6.44211">
        <ele>652.39</ele>
        <time>2013-10-02T07:52:08Z</time>
      </trkpt>
      <trkpt lat="43.80399" lon="6.44217">
        <ele>652.87</ele>
        <time>2013-10-02T07:52:09Z</time>
      </trkpt>
      <trkpt lat="43.80405" lon="6.44221">
        <ele>652.87</ele>
        <time>2013-10-02T07:52:10Z</time>
      </trkpt>
      <trkpt lat="43.80411" lon="6.44224">
        <ele>652.87</ele>
        <time>2013-10-02T07:52:11Z</time>
      </trkpt>
      <trkpt lat="43.80417" lon="6.44225">
        <ele>652.87</ele>
        <time>2013-10-02T07:52:12Z</time>
      </trkpt>
      <trkpt lat="43.8043" lon="6.44225">
        <ele>653.35</ele>
        <time>2013-10-02T07:52:14Z</time>
      </trkpt>
      <trkpt lat="43.8046" lon="6.44219">
        <ele>653.35</ele>
        <time>2013-10-02T07:52:19Z</time>
      </trkpt>
      <trkpt lat="43.80482" lon="6.44213">
        <ele>653.83</ele>
        <time>2013-10-02T07:52:23Z</time>
      </trkpt>
      <trkpt lat="43.80493" lon="6.44208">
        <ele>654.8</ele>
        <time>2013-10-02T07:52:25Z</time>
      </trkpt>
      <trkpt lat="43.80498" lon="6.44205">
        <ele>654.31</ele>
        <time>2013-10-02T07:52:26Z</time>
      </trkpt>
      <trkpt lat="43.80503" lon="6.44201">
        <ele>654.31</ele>
        <time>2013-10-02T07:52:27Z</time>
      </trkpt>
      <trkpt lat="43.80534" lon="6.44176">
        <ele>654.8</ele>
        <time>2013-10-02T07:52:34Z</time>
      </trkpt>
      <trkpt lat="43.80539" lon="6.44173">
        <ele>654.31</ele>
        <time>2013-10-02T07:52:35Z</time>
      </trkpt>
      <trkpt lat="43.80543" lon="6.4417">
        <ele>655.28</ele>
        <time>2013-10-02T07:52:36Z</time>
      </trkpt>
      <trkpt lat="43.80548" lon="6.44166">
        <ele>654.8</ele>
        <time>2013-10-02T07:52:37Z</time>
      </trkpt>
      <trkpt lat="43.80552" lon="6.44162">
        <ele>654.31</ele>
        <time>2013-10-02T07:52:38Z</time>
      </trkpt>
      <trkpt lat="43.80555" lon="6.44158">
        <ele>654.31</ele>
        <time>2013-10-02T07:52:39Z</time>
      </trkpt>
      <trkpt lat="43.80558" lon="6.44153">
        <ele>654.31</ele>
        <time>2013-10-02T07:52:40Z</time>
      </trkpt>
      <trkpt lat="43.8056" lon="6.44148">
        <ele>654.8</ele>
        <time>2013-10-02T07:52:41Z</time>
      </trkpt>
      <trkpt lat="43.80561" lon="6.44142">
        <ele>654.31</ele>
        <time>2013-10-02T07:52:42Z</time>
      </trkpt>
      <trkpt lat="43.80562" lon="6.44135">
        <ele>654.8</ele>
        <time>2013-10-02T07:52:43Z</time>
      </trkpt>
      <trkpt lat="43.80569" lon="6.44063">
        <ele>654.31</ele>
        <time>2013-10-02T07:52:54Z</time>
      </trkpt>
      <trkpt lat="43.8057" lon="6.44057">
        <ele>654.8</ele>
        <time>2013-10-02T07:52:55Z</time>
      </trkpt>
      <trkpt lat="43.80572" lon="6.44003">
        <ele>654.31</ele>
        <time>2013-10-02T07:53:04Z</time>
      </trkpt>
      <trkpt lat="43.80568" lon="6.44">
        <ele>654.31</ele>
        <time>2013-10-02T07:53:05Z</time>
      </trkpt>
      <trkpt lat="43.80563" lon="6.44001">
        <ele>654.31</ele>
        <time>2013-10-02T07:53:06Z</time>
      </trkpt>
      <trkpt lat="43.80542" lon="6.4401">
        <ele>653.35</ele>
        <time>2013-10-02T07:53:10Z</time>
      </trkpt>
      <trkpt lat="43.80537" lon="6.44014">
        <ele>652.87</ele>
        <time>2013-10-02T07:53:11Z</time>
      </trkpt>
      <trkpt lat="43.80533" lon="6.44019">
        <ele>652.87</ele>
        <time>2013-10-02T07:53:12Z</time>
      </trkpt>
      <trkpt lat="43.80525" lon="6.4403">
        <ele>652.39</ele>
        <time>2013-10-02T07:53:14Z</time>
      </trkpt>
      <trkpt lat="43.805" lon="6.44073">
        <ele>652.39</ele>
        <time>2013-10-02T07:53:21Z</time>
      </trkpt>
      <trkpt lat="43.80495" lon="6.44077">
        <ele>652.87</ele>
        <time>2013-10-02T07:53:22Z</time>
      </trkpt>
      <trkpt lat="43.8047" lon="6.44094">
        <ele>652.39</ele>
        <time>2013-10-02T07:53:27Z</time>
      </trkpt>
      <trkpt lat="43.80465" lon="6.44096">
        <ele>652.39</ele>
        <time>2013-10-02T07:53:28Z</time>
      </trkpt>
      <trkpt lat="43.8046" lon="6.44097">
        <ele>652.39</ele>
        <time>2013-10-02T07:53:29Z</time>
      </trkpt>
      <trkpt lat="43.80454" lon="6.44095">
        <ele>651.91</ele>
        <time>2013-10-02T07:53:30Z</time>
      </trkpt>
      <trkpt lat="43.80449" lon="6.44093">
        <ele>651.91</ele>
        <time>2013-10-02T07:53:31Z</time>
      </trkpt>
      <trkpt lat="43.80444" lon="6.44089">
        <ele>651.91</ele>
        <time>2013-10-02T07:53:32Z</time>
      </trkpt>
      <trkpt lat="43.80439" lon="6.44083">
        <ele>651.91</ele>
        <time>2013-10-02T07:53:33Z</time>
      </trkpt>
      <trkpt lat="43.80436" lon="6.44077">
        <ele>652.39</ele>
        <time>2013-10-02T07:53:34Z</time>
      </trkpt>
      <trkpt lat="43.80433" lon="6.4407">
        <ele>652.39</ele>
        <time>2013-10-02T07:53:35Z</time>
      </trkpt>
      <trkpt lat="43.80431" lon="6.44063">
        <ele>652.39</ele>
        <time>2013-10-02T07:53:36Z</time>
      </trkpt>
      <trkpt lat="43.80431" lon="6.44056">
        <ele>652.39</ele>
        <time>2013-10-02T07:53:37Z</time>
      </trkpt>
      <trkpt lat="43.8043" lon="6.44049">
        <ele>652.87</ele>
        <time>2013-10-02T07:53:38Z</time>
      </trkpt>
      <trkpt lat="43.80431" lon="6.44041">
        <ele>652.39</ele>
        <time>2013-10-02T07:53:39Z</time>
      </trkpt>
      <trkpt lat="43.80431" lon="6.44033">
        <ele>652.39</ele>
        <time>2013-10-02T07:53:40Z</time>
      </trkpt>
      <trkpt lat="43.80431" lon="6.44026">
        <ele>652.87</ele>
        <time>2013-10-02T07:53:41Z</time>
      </trkpt>
      <trkpt lat="43.80432" lon="6.44018">
        <ele>652.39</ele>
        <time>2013-10-02T07:53:42Z</time>
      </trkpt>
      <trkpt lat="43.80433" lon="6.4401">
        <ele>652.39</ele>
        <time>2013-10-02T07:53:43Z</time>
      </trkpt>
      <trkpt lat="43.80434" lon="6.43978">
        <ele>652.87</ele>
        <time>2013-10-02T07:53:47Z</time>
      </trkpt>
      <trkpt lat="43.80435" lon="6.43954">
        <ele>652.87</ele>
        <time>2013-10-02T07:53:50Z</time>
      </trkpt>
      <trkpt lat="43.80434" lon="6.43945">
        <ele>652.87</ele>
        <time>2013-10-02T07:53:51Z</time>
      </trkpt>
      <trkpt lat="43.80425" lon="6.43866">
        <ele>653.35</ele>
        <time>2013-10-02T07:54:00Z</time>
      </trkpt>
      <trkpt lat="43.80423" lon="6.43858">
        <ele>653.35</ele>
        <time>2013-10-02T07:54:01Z</time>
      </trkpt>
      <trkpt lat="43.80419" lon="6.43851">
        <ele>652.87</ele>
        <time>2013-10-02T07:54:02Z</time>
      </trkpt>
      <trkpt lat="43.80414" lon="6.43844">
        <ele>652.87</ele>
        <time>2013-10-02T07:54:03Z</time>
      </trkpt>
      <trkpt lat="43.80409" lon="6.43839">
        <ele>652.87</ele>
        <time>2013-10-02T07:54:04Z</time>
      </trkpt>
      <trkpt lat="43.80404" lon="6.43835">
        <ele>652.87</ele>
        <time>2013-10-02T07:54:05Z</time>
      </trkpt>
      <trkpt lat="43.80398" lon="6.43831">
        <ele>653.35</ele>
        <time>2013-10-02T07:54:06Z</time>
      </trkpt>
      <trkpt lat="43.80359" lon="6.43804">
        <ele>652.87</ele>
        <time>2013-10-02T07:54:13Z</time>
      </trkpt>
      <trkpt lat="43.80342" lon="6.4379">
        <ele>652.87</ele>
        <time>2013-10-02T07:54:16Z</time>
      </trkpt>
      <trkpt lat="43.80336" lon="6.43787">
        <ele>652.87</ele>
        <time>2013-10-02T07:54:17Z</time>
      </trkpt>
      <trkpt lat="43.8033" lon="6.43784">
        <ele>652.87</ele>
        <time>2013-10-02T07:54:18Z</time>
      </trkpt>
      <trkpt lat="43.80264" lon="6.43767">
        <ele>652.39</ele>
        <time>2013-10-02T07:54:29Z</time>
      </trkpt>
      <trkpt lat="43.80259" lon="6.43766">
        <ele>652.39</ele>
        <time>2013-10-02T07:54:35Z</time>
      </trkpt>
      <trkpt lat="43.80259" lon="6.43766">
        <ele>652.39</ele>
        <time>2013-10-02T07:55:06Z</time>
      </trkpt>
      <trkpt lat="43.80255" lon="6.43772">
        <ele>652.87</ele>
        <time>2013-10-02T07:55:54Z</time>
      </trkpt>
      <trkpt lat="43.80254" lon="6.43771">
        <ele>652.87</ele>
        <time>2013-10-02T07:56:06Z</time>
      </trkpt>
      <trkpt lat="43.8025" lon="6.43771">
        <ele>652.87</ele>
        <time>2013-10-02T07:56:39Z</time>
      </trkpt>
      <trkpt lat="43.8025" lon="6.43771">
        <ele>653.35</ele>
        <time>2013-10-02T07:57:03Z</time>
      </trkpt>
      <trkpt lat="43.80245" lon="6.43772">
        <ele>653.83</ele>
        <time>2013-10-02T07:57:58Z</time>
      </trkpt>
      <trkpt lat="43.80242" lon="6.43773">
        <ele>653.35</ele>
        <time>2013-10-02T07:57:59Z</time>
      </trkpt>
      <trkpt lat="43.8024" lon="6.43774">
        <ele>653.83</ele>
        <time>2013-10-02T07:58:00Z</time>
      </trkpt>
      <trkpt lat="43.80237" lon="6.43774">
        <ele>653.35</ele>
        <time>2013-10-02T07:58:01Z</time>
      </trkpt>
      <trkpt lat="43.80233" lon="6.43775">
        <ele>653.83</ele>
        <time>2013-10-02T07:58:02Z</time>
      </trkpt>
      <trkpt lat="43.80225" lon="6.43776">
        <ele>653.35</ele>
        <time>2013-10-02T07:58:04Z</time>
      </trkpt>
      <trkpt lat="43.80213" lon="6.43776">
        <ele>653.83</ele>
        <time>2013-10-02T07:58:07Z</time>
      </trkpt>
      <trkpt lat="43.80209" lon="6.43777">
        <ele>653.35</ele>
        <time>2013-10-02T07:58:08Z</time>
      </trkpt>
      <trkpt lat="43.80198" lon="6.43778">
        <ele>653.35</ele>
        <time>2013-10-02T07:58:10Z</time>
      </trkpt>
      <trkpt lat="43.80193" lon="6.43778">
        <ele>652.87</ele>
        <time>2013-10-02T07:58:11Z</time>
      </trkpt>
      <trkpt lat="43.80157" lon="6.43777">
        <ele>653.83</ele>
        <time>2013-10-02T07:58:18Z</time>
      </trkpt>
      <trkpt lat="43.80152" lon="6.43778">
        <ele>653.35</ele>
        <time>2013-10-02T07:58:19Z</time>
      </trkpt>
      <trkpt lat="43.80096" lon="6.43796">
        <ele>653.35</ele>
        <time>2013-10-02T07:58:29Z</time>
      </trkpt>
      <trkpt lat="43.80091" lon="6.43799">
        <ele>653.35</ele>
        <time>2013-10-02T07:58:30Z</time>
      </trkpt>
      <trkpt lat="43.80086" lon="6.43802">
        <ele>652.87</ele>
        <time>2013-10-02T07:58:31Z</time>
      </trkpt>
      <trkpt lat="43.80065" lon="6.43813">
        <ele>652.87</ele>
        <time>2013-10-02T07:58:35Z</time>
      </trkpt>
      <trkpt lat="43.80059" lon="6.43815">
        <ele>653.35</ele>
        <time>2013-10-02T07:58:36Z</time>
      </trkpt>
      <trkpt lat="43.80053" lon="6.43818">
        <ele>653.35</ele>
        <time>2013-10-02T07:58:37Z</time>
      </trkpt>
      <trkpt lat="43.80032" lon="6.43827">
        <ele>653.35</ele>
        <time>2013-10-02T07:58:41Z</time>
      </trkpt>
      <trkpt lat="43.80026" lon="6.43827">
        <ele>652.87</ele>
        <time>2013-10-02T07:58:42Z</time>
      </trkpt>
      <trkpt lat="43.80021" lon="6.43827">
        <ele>653.35</ele>
        <time>2013-10-02T07:58:43Z</time>
      </trkpt>
      <trkpt lat="43.80015" lon="6.43825">
        <ele>652.87</ele>
        <time>2013-10-02T07:58:44Z</time>
      </trkpt>
      <trkpt lat="43.80009" lon="6.43822">
        <ele>652.87</ele>
        <time>2013-10-02T07:58:45Z</time>
      </trkpt>
      <trkpt lat="43.80002" lon="6.43819">
        <ele>652.87</ele>
        <time>2013-10-02T07:58:46Z</time>
      </trkpt>
      <trkpt lat="43.79996" lon="6.43815">
        <ele>652.87</ele>
        <time>2013-10-02T07:58:47Z</time>
      </trkpt>
      <trkpt lat="43.79991" lon="6.4381">
        <ele>652.87</ele>
        <time>2013-10-02T07:58:48Z</time>
      </trkpt>
      <trkpt lat="43.79969" lon="6.43788">
        <ele>653.35</ele>
        <time>2013-10-02T07:58:52Z</time>
      </trkpt>
      <trkpt lat="43.79964" lon="6.43783">
        <ele>653.35</ele>
        <time>2013-10-02T07:58:53Z</time>
      </trkpt>
      <trkpt lat="43.79958" lon="6.4378">
        <ele>652.39</ele>
        <time>2013-10-02T07:58:54Z</time>
      </trkpt>
      <trkpt lat="43.79951" lon="6.43778">
        <ele>653.35</ele>
        <time>2013-10-02T07:58:55Z</time>
      </trkpt>
      <trkpt lat="43.79945" lon="6.43778">
        <ele>653.35</ele>
        <time>2013-10-02T07:58:56Z</time>
      </trkpt>
      <trkpt lat="43.79939" lon="6.43778">
        <ele>653.83</ele>
        <time>2013-10-02T07:58:57Z</time>
      </trkpt>
      <trkpt lat="43.79933" lon="6.43779">
        <ele>652.87</ele>
        <time>2013-10-02T07:58:58Z</time>
      </trkpt>
      <trkpt lat="43.79927" lon="6.43781">
        <ele>653.35</ele>
        <time>2013-10-02T07:58:59Z</time>
      </trkpt>
      <trkpt lat="43.7992" lon="6.43782">
        <ele>652.87</ele>
        <time>2013-10-02T07:59:00Z</time>
      </trkpt>
      <trkpt lat="43.79842" lon="6.43808">
        <ele>653.35</ele>
        <time>2013-10-02T07:59:12Z</time>
      </trkpt>
      <trkpt lat="43.79761" lon="6.43827">
        <ele>652.87</ele>
        <time>2013-10-02T07:59:25Z</time>
      </trkpt>
      <trkpt lat="43.79697" lon="6.43837">
        <ele>652.87</ele>
        <time>2013-10-02T07:59:35Z</time>
      </trkpt>
      <trkpt lat="43.7969" lon="6.43836">
        <ele>652.39</ele>
        <time>2013-10-02T07:59:36Z</time>
      </trkpt>
      <trkpt lat="43.79684" lon="6.43833">
        <ele>652.39</ele>
        <time>2013-10-02T07:59:37Z</time>
      </trkpt>
      <trkpt lat="43.79678" lon="6.43829">
        <ele>652.39</ele>
        <time>2013-10-02T07:59:38Z</time>
      </trkpt>
      <trkpt lat="43.79671" lon="6.43825">
        <ele>652.39</ele>
        <time>2013-10-02T07:59:39Z</time>
      </trkpt>
      <trkpt lat="43.79631" lon="6.43789">
        <ele>651.91</ele>
        <time>2013-10-02T07:59:46Z</time>
      </trkpt>
      <trkpt lat="43.79621" lon="6.43776">
        <ele>651.91</ele>
        <time>2013-10-02T07:59:48Z</time>
      </trkpt>
      <trkpt lat="43.79617" lon="6.43768">
        <ele>651.43</ele>
        <time>2013-10-02T07:59:49Z</time>
      </trkpt>
      <trkpt lat="43.79593" lon="6.43684">
        <ele>650.47</ele>
        <time>2013-10-02T07:59:58Z</time>
      </trkpt>
      <trkpt lat="43.79591" lon="6.43674">
        <ele>650.47</ele>
        <time>2013-10-02T07:59:59Z</time>
      </trkpt>
      <trkpt lat="43.79578" lon="6.43638">
        <ele>649.51</ele>
        <time>2013-10-02T08:00:03Z</time>
      </trkpt>
      <trkpt lat="43.79573" lon="6.4363">
        <ele>649.03</ele>
        <time>2013-10-02T08:00:04Z</time>
      </trkpt>
      <trkpt lat="43.79567" lon="6.43623">
        <ele>649.51</ele>
        <time>2013-10-02T08:00:05Z</time>
      </trkpt>
      <trkpt lat="43.79561" lon="6.43617">
        <ele>649.51</ele>
        <time>2013-10-02T08:00:06Z</time>
      </trkpt>
      <trkpt lat="43.79554" lon="6.43611">
        <ele>649.03</ele>
        <time>2013-10-02T08:00:07Z</time>
      </trkpt>
      <trkpt lat="43.79488" lon="6.43549">
        <ele>648.07</ele>
        <time>2013-10-02T08:00:17Z</time>
      </trkpt>
      <trkpt lat="43.79436" lon="6.43486">
        <ele>646.62</ele>
        <time>2013-10-02T08:00:26Z</time>
      </trkpt>
      <trkpt lat="43.79405" lon="6.43426">
        <ele>646.14</ele>
        <time>2013-10-02T08:00:33Z</time>
      </trkpt>
      <trkpt lat="43.79402" lon="6.43417">
        <ele>646.14</ele>
        <time>2013-10-02T08:00:34Z</time>
      </trkpt>
      <trkpt lat="43.79399" lon="6.43407">
        <ele>645.66</ele>
        <time>2013-10-02T08:00:35Z</time>
      </trkpt>
      <trkpt lat="43.79392" lon="6.43377">
        <ele>645.18</ele>
        <time>2013-10-02T08:00:38Z</time>
      </trkpt>
      <trkpt lat="43.79389" lon="6.43368">
        <ele>644.7</ele>
        <time>2013-10-02T08:00:39Z</time>
      </trkpt>
      <trkpt lat="43.79383" lon="6.4336">
        <ele>644.7</ele>
        <time>2013-10-02T08:00:40Z</time>
      </trkpt>
      <trkpt lat="43.79376" lon="6.43355">
        <ele>644.7</ele>
        <time>2013-10-02T08:00:41Z</time>
      </trkpt>
      <trkpt lat="43.79369" lon="6.43353">
        <ele>644.7</ele>
        <time>2013-10-02T08:00:42Z</time>
      </trkpt>
      <trkpt lat="43.79361" lon="6.43354">
        <ele>645.18</ele>
        <time>2013-10-02T08:00:43Z</time>
      </trkpt>
      <trkpt lat="43.79353" lon="6.43355">
        <ele>644.22</ele>
        <time>2013-10-02T08:00:44Z</time>
      </trkpt>
      <trkpt lat="43.79322" lon="6.43359">
        <ele>644.22</ele>
        <time>2013-10-02T08:00:48Z</time>
      </trkpt>
      <trkpt lat="43.79314" lon="6.43358">
        <ele>643.74</ele>
        <time>2013-10-02T08:00:49Z</time>
      </trkpt>
      <trkpt lat="43.79307" lon="6.43353">
        <ele>643.74</ele>
        <time>2013-10-02T08:00:50Z</time>
      </trkpt>
      <trkpt lat="43.79288" lon="6.43335">
        <ele>643.26</ele>
        <time>2013-10-02T08:00:53Z</time>
      </trkpt>
      <trkpt lat="43.79268" lon="6.4332">
        <ele>642.78</ele>
        <time>2013-10-02T08:00:56Z</time>
      </trkpt>
      <trkpt lat="43.79262" lon="6.43313">
        <ele>642.78</ele>
        <time>2013-10-02T08:00:57Z</time>
      </trkpt>
      <trkpt lat="43.79258" lon="6.43304">
        <ele>642.3</ele>
        <time>2013-10-02T08:00:58Z</time>
      </trkpt>
      <trkpt lat="43.79255" lon="6.43294">
        <ele>642.3</ele>
        <time>2013-10-02T08:00:59Z</time>
      </trkpt>
      <trkpt lat="43.79252" lon="6.43284">
        <ele>642.3</ele>
        <time>2013-10-02T08:01:00Z</time>
      </trkpt>
      <trkpt lat="43.79248" lon="6.43275">
        <ele>642.3</ele>
        <time>2013-10-02T08:01:01Z</time>
      </trkpt>
      <trkpt lat="43.79243" lon="6.43268">
        <ele>642.3</ele>
        <time>2013-10-02T08:01:02Z</time>
      </trkpt>
      <trkpt lat="43.79236" lon="6.43263">
        <ele>641.82</ele>
        <time>2013-10-02T08:01:03Z</time>
      </trkpt>
      <trkpt lat="43.79229" lon="6.43257">
        <ele>641.34</ele>
        <time>2013-10-02T08:01:04Z</time>
      </trkpt>
      <trkpt lat="43.79223" lon="6.43251">
        <ele>641.34</ele>
        <time>2013-10-02T08:01:05Z</time>
      </trkpt>
      <trkpt lat="43.79219" lon="6.43241">
        <ele>640.86</ele>
        <time>2013-10-02T08:01:06Z</time>
      </trkpt>
      <trkpt lat="43.79217" lon="6.43231">
        <ele>640.38</ele>
        <time>2013-10-02T08:01:07Z</time>
      </trkpt>
      <trkpt lat="43.79218" lon="6.43219">
        <ele>640.38</ele>
        <time>2013-10-02T08:01:08Z</time>
      </trkpt>
      <trkpt lat="43.79219" lon="6.43208">
        <ele>640.38</ele>
        <time>2013-10-02T08:01:09Z</time>
      </trkpt>
      <trkpt lat="43.79221" lon="6.43198">
        <ele>640.86</ele>
        <time>2013-10-02T08:01:10Z</time>
      </trkpt>
      <trkpt lat="43.79224" lon="6.43188">
        <ele>640.38</ele>
        <time>2013-10-02T08:01:11Z</time>
      </trkpt>
      <trkpt lat="43.79232" lon="6.43171">
        <ele>639.89</ele>
        <time>2013-10-02T08:01:13Z</time>
      </trkpt>
      <trkpt lat="43.79237" lon="6.43163">
        <ele>639.89</ele>
        <time>2013-10-02T08:01:14Z</time>
      </trkpt>
      <trkpt lat="43.79257" lon="6.43135">
        <ele>640.38</ele>
        <time>2013-10-02T08:01:18Z</time>
      </trkpt>
      <trkpt lat="43.7926" lon="6.43126">
        <ele>639.89</ele>
        <time>2013-10-02T08:01:19Z</time>
      </trkpt>
      <trkpt lat="43.79262" lon="6.43117">
        <ele>639.89</ele>
        <time>2013-10-02T08:01:20Z</time>
      </trkpt>
      <trkpt lat="43.79262" lon="6.43108">
        <ele>640.38</ele>
        <time>2013-10-02T08:01:21Z</time>
      </trkpt>
      <trkpt lat="43.79261" lon="6.43099">
        <ele>639.89</ele>
        <time>2013-10-02T08:01:22Z</time>
      </trkpt>
      <trkpt lat="43.79257" lon="6.43081">
        <ele>639.89</ele>
        <time>2013-10-02T08:01:24Z</time>
      </trkpt>
      <trkpt lat="43.79254" lon="6.43073">
        <ele>639.41</ele>
        <time>2013-10-02T08:01:25Z</time>
      </trkpt>
      <trkpt lat="43.79242" lon="6.4304">
        <ele>639.89</ele>
        <time>2013-10-02T08:01:29Z</time>
      </trkpt>
      <trkpt lat="43.79224" lon="6.4297">
        <ele>639.89</ele>
        <time>2013-10-02T08:01:37Z</time>
      </trkpt>
      <trkpt lat="43.7922" lon="6.42962">
        <ele>639.41</ele>
        <time>2013-10-02T08:01:38Z</time>
      </trkpt>
      <trkpt lat="43.79216" lon="6.42955">
        <ele>639.41</ele>
        <time>2013-10-02T08:01:39Z</time>
      </trkpt>
      <trkpt lat="43.79192" lon="6.42912">
        <ele>639.89</ele>
        <time>2013-10-02T08:01:45Z</time>
      </trkpt>
      <trkpt lat="43.79169" lon="6.42873">
        <ele>639.89</ele>
        <time>2013-10-02T08:01:51Z</time>
      </trkpt>
      <trkpt lat="43.79159" lon="6.42852">
        <ele>638.93</ele>
        <time>2013-10-02T08:01:54Z</time>
      </trkpt>
      <trkpt lat="43.79157" lon="6.42844">
        <ele>638.93</ele>
        <time>2013-10-02T08:01:55Z</time>
      </trkpt>
      <trkpt lat="43.79157" lon="6.42837">
        <ele>639.41</ele>
        <time>2013-10-02T08:01:56Z</time>
      </trkpt>
      <trkpt lat="43.79158" lon="6.42831">
        <ele>639.41</ele>
        <time>2013-10-02T08:01:57Z</time>
      </trkpt>
      <trkpt lat="43.7916" lon="6.42824">
        <ele>638.93</ele>
        <time>2013-10-02T08:01:58Z</time>
      </trkpt>
      <trkpt lat="43.79161" lon="6.42818">
        <ele>639.41</ele>
        <time>2013-10-02T08:01:59Z</time>
      </trkpt>
      <trkpt lat="43.79162" lon="6.4281">
        <ele>640.38</ele>
        <time>2013-10-02T08:02:00Z</time>
      </trkpt>
      <trkpt lat="43.79163" lon="6.42802">
        <ele>639.41</ele>
        <time>2013-10-02T08:02:01Z</time>
      </trkpt>
      <trkpt lat="43.79027" lon="6.4282">
        <ele>639.89</ele>
        <time>2013-10-02T08:02:08Z</time>
      </trkpt>
      <trkpt lat="43.79013" lon="6.42707">
        <ele>639.41</ele>
        <time>2013-10-02T08:02:19Z</time>
      </trkpt>
      <trkpt lat="43.79012" lon="6.4269">
        <ele>639.41</ele>
        <time>2013-10-02T08:02:21Z</time>
      </trkpt>
      <trkpt lat="43.79039" lon="6.42664">
        <ele>639.41</ele>
        <time>2013-10-02T08:02:24Z</time>
      </trkpt>
      <trkpt lat="43.79065" lon="6.42615">
        <ele>639.89</ele>
        <time>2013-10-02T08:02:29Z</time>
      </trkpt>
      <trkpt lat="43.79059" lon="6.42546">
        <ele>640.86</ele>
        <time>2013-10-02T08:02:39Z</time>
      </trkpt>
      <trkpt lat="43.79041" lon="6.42487">
        <ele>642.78</ele>
        <time>2013-10-02T08:02:48Z</time>
      </trkpt>
      <trkpt lat="43.7904" lon="6.42479">
        <ele>642.78</ele>
        <time>2013-10-02T08:02:49Z</time>
      </trkpt>
      <trkpt lat="43.79039" lon="6.4245">
        <ele>643.26</ele>
        <time>2013-10-02T08:02:53Z</time>
      </trkpt>
      <trkpt lat="43.7904" lon="6.42442">
        <ele>643.26</ele>
        <time>2013-10-02T08:02:54Z</time>
      </trkpt>
      <trkpt lat="43.79043" lon="6.42434">
        <ele>643.74</ele>
        <time>2013-10-02T08:02:55Z</time>
      </trkpt>
      <trkpt lat="43.79084" lon="6.42332">
        <ele>645.18</ele>
        <time>2013-10-02T08:03:06Z</time>
      </trkpt>
      <trkpt lat="43.7909" lon="6.42315">
        <ele>645.66</ele>
        <time>2013-10-02T08:03:08Z</time>
      </trkpt>
      <trkpt lat="43.79107" lon="6.42299">
        <ele>646.62</ele>
        <time>2013-10-02T08:03:11Z</time>
      </trkpt>
      <trkpt lat="43.79121" lon="6.4229">
        <ele>646.14</ele>
        <time>2013-10-02T08:03:12Z</time>
      </trkpt>
      <trkpt lat="43.79145" lon="6.42272">
        <ele>646.62</ele>
        <time>2013-10-02T08:03:15Z</time>
      </trkpt>
      <trkpt lat="43.7915" lon="6.42268">
        <ele>646.62</ele>
        <time>2013-10-02T08:03:16Z</time>
      </trkpt>
      <trkpt lat="43.7919" lon="6.42231">
        <ele>649.03</ele>
        <time>2013-10-02T08:03:26Z</time>
      </trkpt>
      <trkpt lat="43.79211" lon="6.42191">
        <ele>650.47</ele>
        <time>2013-10-02T08:03:35Z</time>
      </trkpt>
      <trkpt lat="43.79226" lon="6.42178">
        <ele>652.39</ele>
        <time>2013-10-02T08:03:40Z</time>
      </trkpt>
      <trkpt lat="43.79258" lon="6.42161">
        <ele>654.8</ele>
        <time>2013-10-02T08:03:50Z</time>
      </trkpt>
      <trkpt lat="43.79288" lon="6.42129">
        <ele>656.72</ele>
        <time>2013-10-02T08:04:01Z</time>
      </trkpt>
      <trkpt lat="43.79312" lon="6.42096">
        <ele>659.12</ele>
        <time>2013-10-02T08:04:11Z</time>
      </trkpt>
      <trkpt lat="43.79322" lon="6.42066">
        <ele>660.56</ele>
        <time>2013-10-02T08:04:18Z</time>
      </trkpt>
      <trkpt lat="43.79345" lon="6.42027">
        <ele>662.97</ele>
        <time>2013-10-02T08:04:29Z</time>
      </trkpt>
      <trkpt lat="43.79366" lon="6.42006">
        <ele>664.41</ele>
        <time>2013-10-02T08:04:37Z</time>
      </trkpt>
      <trkpt lat="43.79371" lon="6.42001">
        <ele>664.89</ele>
        <time>2013-10-02T08:04:39Z</time>
      </trkpt>
      <trkpt lat="43.79393" lon="6.41967">
        <ele>666.81</ele>
        <time>2013-10-02T08:04:50Z</time>
      </trkpt>
      <trkpt lat="43.79419" lon="6.41923">
        <ele>668.73</ele>
        <time>2013-10-02T08:05:02Z</time>
      </trkpt>
      <trkpt lat="43.79427" lon="6.41877">
        <ele>670.66</ele>
        <time>2013-10-02T08:05:12Z</time>
      </trkpt>
      <trkpt lat="43.79439" lon="6.41834">
        <ele>672.1</ele>
        <time>2013-10-02T08:05:22Z</time>
      </trkpt>
      <trkpt lat="43.79464" lon="6.41806">
        <ele>674.98</ele>
        <time>2013-10-02T08:05:32Z</time>
      </trkpt>
      <trkpt lat="43.79484" lon="6.41774">
        <ele>675.94</ele>
        <time>2013-10-02T08:05:41Z</time>
      </trkpt>
      <trkpt lat="43.79505" lon="6.4174">
        <ele>678.35</ele>
        <time>2013-10-02T08:05:51Z</time>
      </trkpt>
      <trkpt lat="43.79521" lon="6.41699">
        <ele>680.75</ele>
        <time>2013-10-02T08:06:03Z</time>
      </trkpt>
      <trkpt lat="43.79545" lon="6.41665">
        <ele>682.67</ele>
        <time>2013-10-02T08:06:14Z</time>
      </trkpt>
      <trkpt lat="43.79567" lon="6.41627">
        <ele>685.08</ele>
        <time>2013-10-02T08:06:25Z</time>
      </trkpt>
      <trkpt lat="43.79594" lon="6.41586">
        <ele>687.48</ele>
        <time>2013-10-02T08:06:37Z</time>
      </trkpt>
      <trkpt lat="43.79608" lon="6.41546">
        <ele>688.92</ele>
        <time>2013-10-02T08:06:47Z</time>
      </trkpt>
      <trkpt lat="43.7962" lon="6.41512">
        <ele>690.84</ele>
        <time>2013-10-02T08:06:56Z</time>
      </trkpt>
      <trkpt lat="43.79628" lon="6.41476">
        <ele>693.25</ele>
        <time>2013-10-02T08:07:05Z</time>
      </trkpt>
      <trkpt lat="43.79657" lon="6.41451">
        <ele>695.17</ele>
        <time>2013-10-02T08:07:16Z</time>
      </trkpt>
      <trkpt lat="43.79669" lon="6.41417">
        <ele>697.09</ele>
        <time>2013-10-02T08:07:25Z</time>
      </trkpt>
      <trkpt lat="43.79681" lon="6.41383">
        <ele>699.02</ele>
        <time>2013-10-02T08:07:34Z</time>
      </trkpt>
      <trkpt lat="43.79688" lon="6.41329">
        <ele>701.9</ele>
        <time>2013-10-02T08:07:46Z</time>
      </trkpt>
      <trkpt lat="43.79705" lon="6.41302">
        <ele>702.86</ele>
        <time>2013-10-02T08:07:56Z</time>
      </trkpt>
      <trkpt lat="43.7972" lon="6.41279">
        <ele>704.78</ele>
        <time>2013-10-02T08:08:04Z</time>
      </trkpt>
      <trkpt lat="43.79721" lon="6.41276">
        <ele>704.78</ele>
        <time>2013-10-02T08:08:05Z</time>
      </trkpt>
      <trkpt lat="43.79711" lon="6.41243">
        <ele>706.23</ele>
        <time>2013-10-02T08:08:13Z</time>
      </trkpt>
      <trkpt lat="43.79678" lon="6.41193">
        <ele>708.63</ele>
        <time>2013-10-02T08:08:27Z</time>
      </trkpt>
      <trkpt lat="43.79667" lon="6.41157">
        <ele>710.07</ele>
        <time>2013-10-02T08:08:36Z</time>
      </trkpt>
      <trkpt lat="43.79645" lon="6.41118">
        <ele>711.99</ele>
        <time>2013-10-02T08:08:47Z</time>
      </trkpt>
      <trkpt lat="43.7964" lon="6.41114">
        <ele>712.47</ele>
        <time>2013-10-02T08:08:49Z</time>
      </trkpt>
      <trkpt lat="43.79638" lon="6.41114">
        <ele>712.47</ele>
        <time>2013-10-02T08:08:50Z</time>
      </trkpt>
      <trkpt lat="43.79636" lon="6.41114">
        <ele>712.47</ele>
        <time>2013-10-02T08:08:51Z</time>
      </trkpt>
      <trkpt lat="43.79635" lon="6.41113">
        <ele>712.47</ele>
        <time>2013-10-02T08:08:52Z</time>
      </trkpt>
      <trkpt lat="43.79634" lon="6.41113">
        <ele>712.47</ele>
        <time>2013-10-02T08:09:00Z</time>
      </trkpt>
      <trkpt lat="43.79634" lon="6.41113">
        <ele>713.44</ele>
        <time>2013-10-02T08:10:22Z</time>
      </trkpt>
      <trkpt lat="43.79634" lon="6.41114">
        <ele>713.44</ele>
        <time>2013-10-02T08:10:56Z</time>
      </trkpt>
      <trkpt lat="43.79634" lon="6.41116">
        <ele>713.44</ele>
        <time>2013-10-02T08:11:16Z</time>
      </trkpt>
      <trkpt lat="43.79633" lon="6.41116">
        <ele>713.92</ele>
        <time>2013-10-02T08:12:58Z</time>
      </trkpt>
      <trkpt lat="43.79633" lon="6.41114">
        <ele>713.92</ele>
        <time>2013-10-02T08:13:07Z</time>
      </trkpt>
      <trkpt lat="43.79633" lon="6.41111">
        <ele>713.44</ele>
        <time>2013-10-02T08:13:08Z</time>
      </trkpt>
      <trkpt lat="43.79633" lon="6.41107">
        <ele>714.4</ele>
        <time>2013-10-02T08:13:09Z</time>
      </trkpt>
      <trkpt lat="43.79632" lon="6.41062">
        <ele>715.84</ele>
        <time>2013-10-02T08:13:20Z</time>
      </trkpt>
      <trkpt lat="43.79626" lon="6.41023">
        <ele>717.76</ele>
        <time>2013-10-02T08:13:30Z</time>
      </trkpt>
      <trkpt lat="43.79626" lon="6.41019">
        <ele>718.24</ele>
        <time>2013-10-02T08:13:31Z</time>
      </trkpt>
      <trkpt lat="43.79627" lon="6.41015">
        <ele>718.24</ele>
        <time>2013-10-02T08:13:32Z</time>
      </trkpt>
      <trkpt lat="43.79628" lon="6.41011">
        <ele>718.24</ele>
        <time>2013-10-02T08:13:33Z</time>
      </trkpt>
      <trkpt lat="43.79629" lon="6.41007">
        <ele>718.72</ele>
        <time>2013-10-02T08:13:34Z</time>
      </trkpt>
      <trkpt lat="43.79629" lon="6.41003">
        <ele>718.72</ele>
        <time>2013-10-02T08:13:35Z</time>
      </trkpt>
      <trkpt lat="43.7963" lon="6.41">
        <ele>719.2</ele>
        <time>2013-10-02T08:13:36Z</time>
      </trkpt>
      <trkpt lat="43.79631" lon="6.40996">
        <ele>718.72</ele>
        <time>2013-10-02T08:13:37Z</time>
      </trkpt>
      <trkpt lat="43.79632" lon="6.40993">
        <ele>719.68</ele>
        <time>2013-10-02T08:13:38Z</time>
      </trkpt>
      <trkpt lat="43.79632" lon="6.40989">
        <ele>719.68</ele>
        <time>2013-10-02T08:13:39Z</time>
      </trkpt>
      <trkpt lat="43.79632" lon="6.40985">
        <ele>719.68</ele>
        <time>2013-10-02T08:13:40Z</time>
      </trkpt>
      <trkpt lat="43.79631" lon="6.40982">
        <ele>720.16</ele>
        <time>2013-10-02T08:13:41Z</time>
      </trkpt>
      <trkpt lat="43.7963" lon="6.40977">
        <ele>720.16</ele>
        <time>2013-10-02T08:13:42Z</time>
      </trkpt>
      <trkpt lat="43.79628" lon="6.40973">
        <ele>720.16</ele>
        <time>2013-10-02T08:13:43Z</time>
      </trkpt>
      <trkpt lat="43.79626" lon="6.4097">
        <ele>720.16</ele>
        <time>2013-10-02T08:13:44Z</time>
      </trkpt>
      <trkpt lat="43.79623" lon="6.40968">
        <ele>720.16</ele>
        <time>2013-10-02T08:13:45Z</time>
      </trkpt>
      <trkpt lat="43.79621" lon="6.40965">
        <ele>720.16</ele>
        <time>2013-10-02T08:13:46Z</time>
      </trkpt>
      <trkpt lat="43.79618" lon="6.40963">
        <ele>720.16</ele>
        <time>2013-10-02T08:13:47Z</time>
      </trkpt>
      <trkpt lat="43.79598" lon="6.4093">
        <ele>721.61</ele>
        <time>2013-10-02T08:13:57Z</time>
      </trkpt>
      <trkpt lat="43.79597" lon="6.40915">
        <ele>723.05</ele>
        <time>2013-10-02T08:14:01Z</time>
      </trkpt>
      <trkpt lat="43.79603" lon="6.40878">
        <ele>724.49</ele>
        <time>2013-10-02T08:14:10Z</time>
      </trkpt>
      <trkpt lat="43.79608" lon="6.40862">
        <ele>724.97</ele>
        <time>2013-10-02T08:14:14Z</time>
      </trkpt>
      <trkpt lat="43.7961" lon="6.40858">
        <ele>725.45</ele>
        <time>2013-10-02T08:14:15Z</time>
      </trkpt>
      <trkpt lat="43.79624" lon="6.40817">
        <ele>727.37</ele>
        <time>2013-10-02T08:14:26Z</time>
      </trkpt>
      <trkpt lat="43.79609" lon="6.40793">
        <ele>728.34</ele>
        <time>2013-10-02T08:14:33Z</time>
      </trkpt>
      <trkpt lat="43.796" lon="6.40785">
        <ele>729.3</ele>
        <time>2013-10-02T08:14:36Z</time>
      </trkpt>
      <trkpt lat="43.79597" lon="6.40783">
        <ele>729.78</ele>
        <time>2013-10-02T08:14:37Z</time>
      </trkpt>
      <trkpt lat="43.79594" lon="6.4078">
        <ele>729.78</ele>
        <time>2013-10-02T08:14:38Z</time>
      </trkpt>
      <trkpt lat="43.79575" lon="6.40767">
        <ele>730.74</ele>
        <time>2013-10-02T08:14:45Z</time>
      </trkpt>
      <trkpt lat="43.79542" lon="6.40755">
        <ele>732.66</ele>
        <time>2013-10-02T08:14:56Z</time>
      </trkpt>
      <trkpt lat="43.79508" lon="6.40743">
        <ele>734.1</ele>
        <time>2013-10-02T08:15:07Z</time>
      </trkpt>
      <trkpt lat="43.79483" lon="6.40731">
        <ele>736.03</ele>
        <time>2013-10-02T08:15:15Z</time>
      </trkpt>
      <trkpt lat="43.79451" lon="6.40731">
        <ele>737.95</ele>
        <time>2013-10-02T08:15:25Z</time>
      </trkpt>
      <trkpt lat="43.79424" lon="6.40757">
        <ele>739.87</ele>
        <time>2013-10-02T08:15:35Z</time>
      </trkpt>
      <trkpt lat="43.794" lon="6.40773">
        <ele>741.31</ele>
        <time>2013-10-02T08:15:44Z</time>
      </trkpt>
      <trkpt lat="43.79367" lon="6.40755">
        <ele>743.72</ele>
        <time>2013-10-02T08:15:55Z</time>
      </trkpt>
      <trkpt lat="43.79346" lon="6.40739">
        <ele>744.68</ele>
        <time>2013-10-02T08:16:05Z</time>
      </trkpt>
      <trkpt lat="43.7933" lon="6.40715">
        <ele>746.12</ele>
        <time>2013-10-02T08:16:13Z</time>
      </trkpt>
      <trkpt lat="43.79328" lon="6.40696">
        <ele>747.08</ele>
        <time>2013-10-02T08:16:18Z</time>
      </trkpt>
      <trkpt lat="43.79329" lon="6.40693">
        <ele>747.08</ele>
        <time>2013-10-02T08:16:19Z</time>
      </trkpt>
      <trkpt lat="43.7933" lon="6.40691">
        <ele>748.04</ele>
        <time>2013-10-02T08:16:20Z</time>
      </trkpt>
      <trkpt lat="43.79332" lon="6.4069">
        <ele>748.52</ele>
        <time>2013-10-02T08:16:21Z</time>
      </trkpt>
      <trkpt lat="43.79334" lon="6.4069">
        <ele>748.52</ele>
        <time>2013-10-02T08:16:22Z</time>
      </trkpt>
      <trkpt lat="43.79358" lon="6.40668">
        <ele>749.49</ele>
        <time>2013-10-02T08:16:31Z</time>
      </trkpt>
      <trkpt lat="43.79365" lon="6.40626">
        <ele>751.89</ele>
        <time>2013-10-02T08:16:41Z</time>
      </trkpt>
      <trkpt lat="43.79383" lon="6.4059">
        <ele>752.85</ele>
        <time>2013-10-02T08:16:51Z</time>
      </trkpt>
      <trkpt lat="43.79388" lon="6.40548">
        <ele>754.77</ele>
        <time>2013-10-02T08:17:01Z</time>
      </trkpt>
      <trkpt lat="43.79391" lon="6.40499">
        <ele>756.69</ele>
        <time>2013-10-02T08:17:12Z</time>
      </trkpt>
      <trkpt lat="43.79392" lon="6.40459">
        <ele>757.66</ele>
        <time>2013-10-02T08:17:21Z</time>
      </trkpt>
      <trkpt lat="43.79374" lon="6.40418">
        <ele>759.58</ele>
        <time>2013-10-02T08:17:31Z</time>
      </trkpt>
      <trkpt lat="43.79366" lon="6.40394">
        <ele>761.02</ele>
        <time>2013-10-02T08:17:37Z</time>
      </trkpt>
      <trkpt lat="43.79364" lon="6.4039">
        <ele>761.5</ele>
        <time>2013-10-02T08:17:38Z</time>
      </trkpt>
      <trkpt lat="43.79364" lon="6.40385">
        <ele>760.54</ele>
        <time>2013-10-02T08:17:39Z</time>
      </trkpt>
      <trkpt lat="43.79363" lon="6.40381">
        <ele>761.02</ele>
        <time>2013-10-02T08:17:40Z</time>
      </trkpt>
      <trkpt lat="43.79364" lon="6.40377">
        <ele>761.5</ele>
        <time>2013-10-02T08:17:41Z</time>
      </trkpt>
      <trkpt lat="43.79364" lon="6.40372">
        <ele>761.98</ele>
        <time>2013-10-02T08:17:42Z</time>
      </trkpt>
      <trkpt lat="43.79365" lon="6.40368">
        <ele>761.5</ele>
        <time>2013-10-02T08:17:43Z</time>
      </trkpt>
      <trkpt lat="43.79367" lon="6.40364">
        <ele>761.98</ele>
        <time>2013-10-02T08:17:44Z</time>
      </trkpt>
      <trkpt lat="43.79379" lon="6.4034">
        <ele>763.9</ele>
        <time>2013-10-02T08:17:52Z</time>
      </trkpt>
      <trkpt lat="43.79399" lon="6.4031">
        <ele>765.35</ele>
        <time>2013-10-02T08:18:02Z</time>
      </trkpt>
      <trkpt lat="43.79416" lon="6.40278">
        <ele>767.27</ele>
        <time>2013-10-02T08:18:12Z</time>
      </trkpt>
      <trkpt lat="43.7942" lon="6.4024">
        <ele>768.71</ele>
        <time>2013-10-02T08:18:21Z</time>
      </trkpt>
      <trkpt lat="43.79422" lon="6.40189">
        <ele>770.63</ele>
        <time>2013-10-02T08:18:33Z</time>
      </trkpt>
      <trkpt lat="43.79441" lon="6.40156">
        <ele>772.56</ele>
        <time>2013-10-02T08:18:43Z</time>
      </trkpt>
      <trkpt lat="43.79465" lon="6.40132">
        <ele>774.48</ele>
        <time>2013-10-02T08:18:53Z</time>
      </trkpt>
      <trkpt lat="43.79484" lon="6.40113">
        <ele>775.92</ele>
        <time>2013-10-02T08:19:01Z</time>
      </trkpt>
      <trkpt lat="43.79497" lon="6.40082">
        <ele>777.84</ele>
        <time>2013-10-02T08:19:10Z</time>
      </trkpt>
      <trkpt lat="43.79494" lon="6.40038">
        <ele>780.25</ele>
        <time>2013-10-02T08:19:20Z</time>
      </trkpt>
      <trkpt lat="43.79475" lon="6.40016">
        <ele>781.21</ele>
        <time>2013-10-02T08:19:28Z</time>
      </trkpt>
      <trkpt lat="43.7946" lon="6.39984">
        <ele>782.65</ele>
        <time>2013-10-02T08:19:36Z</time>
      </trkpt>
      <trkpt lat="43.79442" lon="6.39938">
        <ele>785.05</ele>
        <time>2013-10-02T08:19:48Z</time>
      </trkpt>
      <trkpt lat="43.79412" lon="6.39911">
        <ele>787.46</ele>
        <time>2013-10-02T08:19:59Z</time>
      </trkpt>
      <trkpt lat="43.79407" lon="6.3989">
        <ele>788.42</ele>
        <time>2013-10-02T08:20:04Z</time>
      </trkpt>
      <trkpt lat="43.79408" lon="6.39886">
        <ele>788.42</ele>
        <time>2013-10-02T08:20:05Z</time>
      </trkpt>
      <trkpt lat="43.79419" lon="6.39854">
        <ele>789.86</ele>
        <time>2013-10-02T08:20:14Z</time>
      </trkpt>
      <trkpt lat="43.79419" lon="6.39849">
        <ele>789.86</ele>
        <time>2013-10-02T08:20:16Z</time>
      </trkpt>
      <trkpt lat="43.79417" lon="6.39847">
        <ele>789.86</ele>
        <time>2013-10-02T08:20:17Z</time>
      </trkpt>
      <trkpt lat="43.79416" lon="6.39845">
        <ele>789.86</ele>
        <time>2013-10-02T08:20:18Z</time>
      </trkpt>
      <trkpt lat="43.79416" lon="6.39844">
        <ele>789.86</ele>
        <time>2013-10-02T08:20:19Z</time>
      </trkpt>
      <trkpt lat="43.79415" lon="6.39842">
        <ele>789.86</ele>
        <time>2013-10-02T08:20:20Z</time>
      </trkpt>
      <trkpt lat="43.79414" lon="6.39841">
        <ele>789.86</ele>
        <time>2013-10-02T08:20:21Z</time>
      </trkpt>
      <trkpt lat="43.79413" lon="6.3984">
        <ele>790.34</ele>
        <time>2013-10-02T08:20:22Z</time>
      </trkpt>
      <trkpt lat="43.79412" lon="6.39839">
        <ele>790.82</ele>
        <time>2013-10-02T08:20:23Z</time>
      </trkpt>
      <trkpt lat="43.7941" lon="6.39837">
        <ele>789.86</ele>
        <time>2013-10-02T08:20:24Z</time>
      </trkpt>
      <trkpt lat="43.79409" lon="6.39836">
        <ele>789.86</ele>
        <time>2013-10-02T08:20:25Z</time>
      </trkpt>
      <trkpt lat="43.79406" lon="6.39832">
        <ele>789.38</ele>
        <time>2013-10-02T08:20:31Z</time>
      </trkpt>
      <trkpt lat="43.79391" lon="6.39817">
        <ele>788.9</ele>
        <time>2013-10-02T08:20:44Z</time>
      </trkpt>
      <trkpt lat="43.79377" lon="6.39814">
        <ele>789.86</ele>
        <time>2013-10-02T08:20:55Z</time>
      </trkpt>
      <trkpt lat="43.79359" lon="6.39811">
        <ele>789.38</ele>
        <time>2013-10-02T08:21:08Z</time>
      </trkpt>
      <trkpt lat="43.79346" lon="6.39808">
        <ele>790.34</ele>
        <time>2013-10-02T08:21:18Z</time>
      </trkpt>
      <trkpt lat="43.79345" lon="6.39808">
        <ele>790.34</ele>
        <time>2013-10-02T08:21:19Z</time>
      </trkpt>
      <trkpt lat="43.79343" lon="6.39808">
        <ele>789.38</ele>
        <time>2013-10-02T08:21:20Z</time>
      </trkpt>
      <trkpt lat="43.7934" lon="6.39808">
        <ele>790.34</ele>
        <time>2013-10-02T08:21:23Z</time>
      </trkpt>
      <trkpt lat="43.79338" lon="6.39808">
        <ele>790.34</ele>
        <time>2013-10-02T08:21:24Z</time>
      </trkpt>
      <trkpt lat="43.79333" lon="6.39807">
        <ele>789.86</ele>
        <time>2013-10-02T08:21:33Z</time>
      </trkpt>
      <trkpt lat="43.79333" lon="6.39806">
        <ele>789.86</ele>
        <time>2013-10-02T08:23:17Z</time>
      </trkpt>
      <trkpt lat="43.79333" lon="6.39806">
        <ele>789.86</ele>
        <time>2013-10-02T08:24:01Z</time>
      </trkpt>
      <trkpt lat="43.79334" lon="6.39806">
        <ele>790.82</ele>
        <time>2013-10-02T08:24:02Z</time>
      </trkpt>
      <trkpt lat="43.79335" lon="6.39806">
        <ele>790.34</ele>
        <time>2013-10-02T08:24:03Z</time>
      </trkpt>
      <trkpt lat="43.79337" lon="6.39806">
        <ele>789.86</ele>
        <time>2013-10-02T08:24:04Z</time>
      </trkpt>
      <trkpt lat="43.79338" lon="6.39806">
        <ele>790.34</ele>
        <time>2013-10-02T08:24:05Z</time>
      </trkpt>
      <trkpt lat="43.79346" lon="6.39812">
        <ele>790.82</ele>
        <time>2013-10-02T08:24:13Z</time>
      </trkpt>
      <trkpt lat="43.79347" lon="6.39812">
        <ele>790.34</ele>
        <time>2013-10-02T08:24:14Z</time>
      </trkpt>
      <trkpt lat="43.79348" lon="6.39812">
        <ele>790.34</ele>
        <time>2013-10-02T08:24:15Z</time>
      </trkpt>
      <trkpt lat="43.79349" lon="6.39812">
        <ele>790.34</ele>
        <time>2013-10-02T08:24:16Z</time>
      </trkpt>
      <trkpt lat="43.79351" lon="6.39813">
        <ele>789.86</ele>
        <time>2013-10-02T08:24:17Z</time>
      </trkpt>
      <trkpt lat="43.79362" lon="6.39816">
        <ele>789.38</ele>
        <time>2013-10-02T08:24:27Z</time>
      </trkpt>
      <trkpt lat="43.79365" lon="6.39816">
        <ele>789.86</ele>
        <time>2013-10-02T08:24:30Z</time>
      </trkpt>
      <trkpt lat="43.79368" lon="6.39816">
        <ele>789.38</ele>
        <time>2013-10-02T08:24:33Z</time>
      </trkpt>
      <trkpt lat="43.79369" lon="6.39817">
        <ele>789.38</ele>
        <time>2013-10-02T08:24:34Z</time>
      </trkpt>
      <trkpt lat="43.79375" lon="6.3982">
        <ele>789.38</ele>
        <time>2013-10-02T08:24:39Z</time>
      </trkpt>
      <trkpt lat="43.79391" lon="6.39825">
        <ele>789.38</ele>
        <time>2013-10-02T08:24:52Z</time>
      </trkpt>
      <trkpt lat="43.79406" lon="6.39833">
        <ele>789.38</ele>
        <time>2013-10-02T08:25:06Z</time>
      </trkpt>
      <trkpt lat="43.79415" lon="6.39837">
        <ele>790.34</ele>
        <time>2013-10-02T08:25:17Z</time>
      </trkpt>
      <trkpt lat="43.79421" lon="6.39837">
        <ele>790.34</ele>
        <time>2013-10-02T08:25:28Z</time>
      </trkpt>
      <trkpt lat="43.79422" lon="6.39836">
        <ele>790.34</ele>
        <time>2013-10-02T08:25:39Z</time>
      </trkpt>
      <trkpt lat="43.79422" lon="6.39839">
        <ele>790.34</ele>
        <time>2013-10-02T08:25:55Z</time>
      </trkpt>
      <trkpt lat="43.79422" lon="6.39839">
        <ele>789.86</ele>
        <time>2013-10-02T08:26:01Z</time>
      </trkpt>
      <trkpt lat="43.79422" lon="6.39839">
        <ele>790.34</ele>
        <time>2013-10-02T08:26:31Z</time>
      </trkpt>
      <trkpt lat="43.79422" lon="6.3984">
        <ele>790.34</ele>
        <time>2013-10-02T08:27:17Z</time>
      </trkpt>
      <trkpt lat="43.79423" lon="6.3984">
        <ele>790.34</ele>
        <time>2013-10-02T08:27:21Z</time>
      </trkpt>
      <trkpt lat="43.79424" lon="6.3984">
        <ele>790.82</ele>
        <time>2013-10-02T08:27:22Z</time>
      </trkpt>
      <trkpt lat="43.79426" lon="6.39839">
        <ele>790.82</ele>
        <time>2013-10-02T08:27:23Z</time>
      </trkpt>
      <trkpt lat="43.79429" lon="6.39838">
        <ele>790.82</ele>
        <time>2013-10-02T08:27:24Z</time>
      </trkpt>
      <trkpt lat="43.79431" lon="6.39837">
        <ele>790.34</ele>
        <time>2013-10-02T08:27:25Z</time>
      </trkpt>
      <trkpt lat="43.79434" lon="6.39835">
        <ele>790.34</ele>
        <time>2013-10-02T08:27:26Z</time>
      </trkpt>
      <trkpt lat="43.79451" lon="6.39821">
        <ele>790.34</ele>
        <time>2013-10-02T08:27:32Z</time>
      </trkpt>
      <trkpt lat="43.79453" lon="6.39817">
        <ele>790.82</ele>
        <time>2013-10-02T08:27:33Z</time>
      </trkpt>
      <trkpt lat="43.79456" lon="6.39811">
        <ele>790.82</ele>
        <time>2013-10-02T08:27:34Z</time>
      </trkpt>
      <trkpt lat="43.7946" lon="6.39758">
        <ele>791.3</ele>
        <time>2013-10-02T08:27:42Z</time>
      </trkpt>
      <trkpt lat="43.79458" lon="6.3975">
        <ele>791.3</ele>
        <time>2013-10-02T08:27:43Z</time>
      </trkpt>
      <trkpt lat="43.79458" lon="6.39702">
        <ele>791.3</ele>
        <time>2013-10-02T08:27:49Z</time>
      </trkpt>
      <trkpt lat="43.79453" lon="6.39696">
        <ele>790.82</ele>
        <time>2013-10-02T08:27:50Z</time>
      </trkpt>
      <trkpt lat="43.79447" lon="6.39691">
        <ele>791.3</ele>
        <time>2013-10-02T08:27:51Z</time>
      </trkpt>
      <trkpt lat="43.79429" lon="6.39676">
        <ele>790.82</ele>
        <time>2013-10-02T08:27:54Z</time>
      </trkpt>
      <trkpt lat="43.79423" lon="6.39669">
        <ele>790.34</ele>
        <time>2013-10-02T08:27:55Z</time>
      </trkpt>
      <trkpt lat="43.79419" lon="6.3966">
        <ele>789.86</ele>
        <time>2013-10-02T08:27:56Z</time>
      </trkpt>
      <trkpt lat="43.79415" lon="6.39651">
        <ele>789.38</ele>
        <time>2013-10-02T08:27:57Z</time>
      </trkpt>
      <trkpt lat="43.79413" lon="6.3964">
        <ele>789.38</ele>
        <time>2013-10-02T08:27:58Z</time>
      </trkpt>
      <trkpt lat="43.79413" lon="6.3963">
        <ele>788.9</ele>
        <time>2013-10-02T08:27:59Z</time>
      </trkpt>
      <trkpt lat="43.79413" lon="6.39619">
        <ele>787.94</ele>
        <time>2013-10-02T08:28:00Z</time>
      </trkpt>
      <trkpt lat="43.79414" lon="6.39608">
        <ele>787.94</ele>
        <time>2013-10-02T08:28:01Z</time>
      </trkpt>
      <trkpt lat="43.79416" lon="6.39574">
        <ele>787.94</ele>
        <time>2013-10-02T08:28:04Z</time>
      </trkpt>
      <trkpt lat="43.79416" lon="6.39563">
        <ele>787.46</ele>
        <time>2013-10-02T08:28:05Z</time>
      </trkpt>
      <trkpt lat="43.79414" lon="6.39552">
        <ele>787.46</ele>
        <time>2013-10-02T08:28:06Z</time>
      </trkpt>
      <trkpt lat="43.79411" lon="6.39541">
        <ele>786.98</ele>
        <time>2013-10-02T08:28:07Z</time>
      </trkpt>
      <trkpt lat="43.79408" lon="6.3953">
        <ele>786.5</ele>
        <time>2013-10-02T08:28:08Z</time>
      </trkpt>
      <trkpt lat="43.79405" lon="6.39518">
        <ele>786.98</ele>
        <time>2013-10-02T08:28:09Z</time>
      </trkpt>
      <trkpt lat="43.79389" lon="6.39422">
        <ele>783.61</ele>
        <time>2013-10-02T08:28:17Z</time>
      </trkpt>
      <trkpt lat="43.79381" lon="6.39386">
        <ele>784.09</ele>
        <time>2013-10-02T08:28:20Z</time>
      </trkpt>
      <trkpt lat="43.79377" lon="6.39375">
        <ele>783.13</ele>
        <time>2013-10-02T08:28:21Z</time>
      </trkpt>
      <trkpt lat="43.79373" lon="6.39364">
        <ele>782.65</ele>
        <time>2013-10-02T08:28:22Z</time>
      </trkpt>
      <trkpt lat="43.7937" lon="6.39351">
        <ele>782.17</ele>
        <time>2013-10-02T08:28:23Z</time>
      </trkpt>
      <trkpt lat="43.7937" lon="6.39338">
        <ele>782.17</ele>
        <time>2013-10-02T08:28:24Z</time>
      </trkpt>
      <trkpt lat="43.7937" lon="6.39325">
        <ele>781.69</ele>
        <time>2013-10-02T08:28:25Z</time>
      </trkpt>
      <trkpt lat="43.7937" lon="6.39312">
        <ele>781.69</ele>
        <time>2013-10-02T08:28:26Z</time>
      </trkpt>
      <trkpt lat="43.79368" lon="6.39299">
        <ele>781.21</ele>
        <time>2013-10-02T08:28:27Z</time>
      </trkpt>
      <trkpt lat="43.79365" lon="6.39288">
        <ele>781.21</ele>
        <time>2013-10-02T08:28:28Z</time>
      </trkpt>
      <trkpt lat="43.79361" lon="6.39276">
        <ele>780.73</ele>
        <time>2013-10-02T08:28:29Z</time>
      </trkpt>
      <trkpt lat="43.79358" lon="6.39264">
        <ele>780.73</ele>
        <time>2013-10-02T08:28:30Z</time>
      </trkpt>
      <trkpt lat="43.79355" lon="6.39251">
        <ele>779.77</ele>
        <time>2013-10-02T08:28:31Z</time>
      </trkpt>
      <trkpt lat="43.79354" lon="6.39237">
        <ele>779.77</ele>
        <time>2013-10-02T08:28:32Z</time>
      </trkpt>
      <trkpt lat="43.79355" lon="6.39224">
        <ele>779.77</ele>
        <time>2013-10-02T08:28:33Z</time>
      </trkpt>
      <trkpt lat="43.79356" lon="6.39211">
        <ele>778.81</ele>
        <time>2013-10-02T08:28:34Z</time>
      </trkpt>
      <trkpt lat="43.79368" lon="6.39093">
        <ele>776.4</ele>
        <time>2013-10-02T08:28:43Z</time>
      </trkpt>
      <trkpt lat="43.79404" lon="6.38995">
        <ele>773.52</ele>
        <time>2013-10-02T08:28:51Z</time>
      </trkpt>
      <trkpt lat="43.79448" lon="6.38919">
        <ele>770.63</ele>
        <time>2013-10-02T08:28:58Z</time>
      </trkpt>
      <trkpt lat="43.79455" lon="6.38909">
        <ele>770.15</ele>
        <time>2013-10-02T08:28:59Z</time>
      </trkpt>
      <trkpt lat="43.79463" lon="6.38901">
        <ele>769.67</ele>
        <time>2013-10-02T08:29:00Z</time>
      </trkpt>
      <trkpt lat="43.79471" lon="6.38896">
        <ele>769.67</ele>
        <time>2013-10-02T08:29:01Z</time>
      </trkpt>
      <trkpt lat="43.79489" lon="6.38886">
        <ele>769.19</ele>
        <time>2013-10-02T08:29:03Z</time>
      </trkpt>
      <trkpt lat="43.79496" lon="6.38879">
        <ele>768.71</ele>
        <time>2013-10-02T08:29:04Z</time>
      </trkpt>
      <trkpt lat="43.79503" lon="6.38869">
        <ele>768.71</ele>
        <time>2013-10-02T08:29:05Z</time>
      </trkpt>
      <trkpt lat="43.79508" lon="6.38858">
        <ele>768.23</ele>
        <time>2013-10-02T08:29:06Z</time>
      </trkpt>
      <trkpt lat="43.79512" lon="6.38846">
        <ele>767.75</ele>
        <time>2013-10-02T08:29:07Z</time>
      </trkpt>
      <trkpt lat="43.79514" lon="6.38798">
        <ele>766.79</ele>
        <time>2013-10-02T08:29:11Z</time>
      </trkpt>
      <trkpt lat="43.79507" lon="6.38785">
        <ele>766.79</ele>
        <time>2013-10-02T08:29:12Z</time>
      </trkpt>
      <trkpt lat="43.795" lon="6.38772">
        <ele>767.27</ele>
        <time>2013-10-02T08:29:13Z</time>
      </trkpt>
      <trkpt lat="43.79485" lon="6.38738">
        <ele>766.79</ele>
        <time>2013-10-02T08:29:16Z</time>
      </trkpt>
      <trkpt lat="43.79484" lon="6.38726">
        <ele>766.79</ele>
        <time>2013-10-02T08:29:17Z</time>
      </trkpt>
      <trkpt lat="43.79483" lon="6.38714">
        <ele>766.31</ele>
        <time>2013-10-02T08:29:18Z</time>
      </trkpt>
      <trkpt lat="43.79484" lon="6.38702">
        <ele>766.31</ele>
        <time>2013-10-02T08:29:19Z</time>
      </trkpt>
      <trkpt lat="43.79486" lon="6.3869">
        <ele>765.35</ele>
        <time>2013-10-02T08:29:20Z</time>
      </trkpt>
      <trkpt lat="43.79488" lon="6.38679">
        <ele>766.31</ele>
        <time>2013-10-02T08:29:21Z</time>
      </trkpt>
      <trkpt lat="43.79491" lon="6.38668">
        <ele>766.31</ele>
        <time>2013-10-02T08:29:22Z</time>
      </trkpt>
      <trkpt lat="43.79495" lon="6.38657">
        <ele>766.31</ele>
        <time>2013-10-02T08:29:23Z</time>
      </trkpt>
      <trkpt lat="43.79501" lon="6.38649">
        <ele>765.35</ele>
        <time>2013-10-02T08:29:24Z</time>
      </trkpt>
      <trkpt lat="43.79507" lon="6.38643">
        <ele>765.35</ele>
        <time>2013-10-02T08:29:25Z</time>
      </trkpt>
      <trkpt lat="43.79513" lon="6.38642">
        <ele>765.35</ele>
        <time>2013-10-02T08:29:26Z</time>
      </trkpt>
      <trkpt lat="43.79521" lon="6.38647">
        <ele>764.39</ele>
        <time>2013-10-02T08:29:27Z</time>
      </trkpt>
      <trkpt lat="43.7953" lon="6.38655">
        <ele>764.39</ele>
        <time>2013-10-02T08:29:28Z</time>
      </trkpt>
      <trkpt lat="43.79537" lon="6.38663">
        <ele>764.87</ele>
        <time>2013-10-02T08:29:29Z</time>
      </trkpt>
      <trkpt lat="43.79543" lon="6.38671">
        <ele>764.39</ele>
        <time>2013-10-02T08:29:30Z</time>
      </trkpt>
      <trkpt lat="43.7955" lon="6.38678">
        <ele>763.9</ele>
        <time>2013-10-02T08:29:31Z</time>
      </trkpt>
      <trkpt lat="43.79557" lon="6.38682">
        <ele>764.39</ele>
        <time>2013-10-02T08:29:32Z</time>
      </trkpt>
      <trkpt lat="43.79566" lon="6.38683">
        <ele>764.39</ele>
        <time>2013-10-02T08:29:33Z</time>
      </trkpt>
      <trkpt lat="43.79574" lon="6.3868">
        <ele>763.9</ele>
        <time>2013-10-02T08:29:34Z</time>
      </trkpt>
      <trkpt lat="43.79582" lon="6.38675">
        <ele>764.39</ele>
        <time>2013-10-02T08:29:35Z</time>
      </trkpt>
      <trkpt lat="43.7959" lon="6.3867">
        <ele>763.9</ele>
        <time>2013-10-02T08:29:36Z</time>
      </trkpt>
      <trkpt lat="43.79613" lon="6.38655">
        <ele>762.46</ele>
        <time>2013-10-02T08:29:39Z</time>
      </trkpt>
      <trkpt lat="43.7962" lon="6.38647">
        <ele>762.46</ele>
        <time>2013-10-02T08:29:40Z</time>
      </trkpt>
      <trkpt lat="43.79641" lon="6.38617">
        <ele>761.5</ele>
        <time>2013-10-02T08:29:43Z</time>
      </trkpt>
      <trkpt lat="43.79646" lon="6.38606">
        <ele>761.5</ele>
        <time>2013-10-02T08:29:44Z</time>
      </trkpt>
      <trkpt lat="43.7965" lon="6.38595">
        <ele>761.5</ele>
        <time>2013-10-02T08:29:45Z</time>
      </trkpt>
      <trkpt lat="43.79652" lon="6.38584">
        <ele>761.02</ele>
        <time>2013-10-02T08:29:46Z</time>
      </trkpt>
      <trkpt lat="43.79644" lon="6.38558">
        <ele>760.06</ele>
        <time>2013-10-02T08:29:48Z</time>
      </trkpt>
      <trkpt lat="43.79649" lon="6.38549">
        <ele>760.06</ele>
        <time>2013-10-02T08:29:49Z</time>
      </trkpt>
      <trkpt lat="43.79676" lon="6.38498">
        <ele>758.14</ele>
        <time>2013-10-02T08:29:55Z</time>
      </trkpt>
      <trkpt lat="43.7968" lon="6.38486">
        <ele>758.14</ele>
        <time>2013-10-02T08:29:56Z</time>
      </trkpt>
      <trkpt lat="43.79683" lon="6.38474">
        <ele>757.18</ele>
        <time>2013-10-02T08:29:57Z</time>
      </trkpt>
      <trkpt lat="43.79684" lon="6.38462">
        <ele>757.18</ele>
        <time>2013-10-02T08:29:58Z</time>
      </trkpt>
      <trkpt lat="43.79686" lon="6.3845">
        <ele>756.69</ele>
        <time>2013-10-02T08:29:59Z</time>
      </trkpt>
      <trkpt lat="43.79677" lon="6.38427">
        <ele>756.21</ele>
        <time>2013-10-02T08:30:01Z</time>
      </trkpt>
      <trkpt lat="43.79667" lon="6.38417">
        <ele>756.69</ele>
        <time>2013-10-02T08:30:02Z</time>
      </trkpt>
      <trkpt lat="43.79659" lon="6.38411">
        <ele>755.73</ele>
        <time>2013-10-02T08:30:03Z</time>
      </trkpt>
      <trkpt lat="43.79651" lon="6.38406">
        <ele>755.73</ele>
        <time>2013-10-02T08:30:04Z</time>
      </trkpt>
      <trkpt lat="43.79643" lon="6.38401">
        <ele>755.73</ele>
        <time>2013-10-02T08:30:05Z</time>
      </trkpt>
      <trkpt lat="43.79633" lon="6.38396">
        <ele>755.73</ele>
        <time>2013-10-02T08:30:06Z</time>
      </trkpt>
      <trkpt lat="43.79624" lon="6.38389">
        <ele>755.25</ele>
        <time>2013-10-02T08:30:07Z</time>
      </trkpt>
      <trkpt lat="43.79616" lon="6.38382">
        <ele>755.25</ele>
        <time>2013-10-02T08:30:08Z</time>
      </trkpt>
      <trkpt lat="43.79609" lon="6.38372">
        <ele>754.29</ele>
        <time>2013-10-02T08:30:09Z</time>
      </trkpt>
      <trkpt lat="43.79604" lon="6.3836">
        <ele>754.29</ele>
        <time>2013-10-02T08:30:10Z</time>
      </trkpt>
      <trkpt lat="43.79604" lon="6.38348">
        <ele>753.81</ele>
        <time>2013-10-02T08:30:11Z</time>
      </trkpt>
      <trkpt lat="43.79607" lon="6.38336">
        <ele>753.81</ele>
        <time>2013-10-02T08:30:12Z</time>
      </trkpt>
      <trkpt lat="43.79612" lon="6.38326">
        <ele>753.33</ele>
        <time>2013-10-02T08:30:13Z</time>
      </trkpt>
      <trkpt lat="43.79617" lon="6.38316">
        <ele>753.33</ele>
        <time>2013-10-02T08:30:14Z</time>
      </trkpt>
      <trkpt lat="43.79629" lon="6.38267">
        <ele>752.37</ele>
        <time>2013-10-02T08:30:19Z</time>
      </trkpt>
      <trkpt lat="43.7963" lon="6.38262">
        <ele>751.89</ele>
        <time>2013-10-02T08:30:20Z</time>
      </trkpt>
      <trkpt lat="43.7963" lon="6.38252">
        <ele>750.93</ele>
        <time>2013-10-02T08:30:22Z</time>
      </trkpt>
      <trkpt lat="43.79627" lon="6.38252">
        <ele>750.93</ele>
        <time>2013-10-02T08:30:23Z</time>
      </trkpt>
      <trkpt lat="43.79622" lon="6.38255">
        <ele>750.45</ele>
        <time>2013-10-02T08:30:24Z</time>
      </trkpt>
      <trkpt lat="43.79597" lon="6.38266">
        <ele>749.97</ele>
        <time>2013-10-02T08:30:26Z</time>
      </trkpt>
      <trkpt lat="43.79499" lon="6.3834">
        <ele>746.6</ele>
        <time>2013-10-02T08:30:36Z</time>
      </trkpt>
      <trkpt lat="43.79464" lon="6.38375">
        <ele>745.16</ele>
        <time>2013-10-02T08:30:41Z</time>
      </trkpt>
      <trkpt lat="43.79457" lon="6.3838">
        <ele>744.2</ele>
        <time>2013-10-02T08:30:42Z</time>
      </trkpt>
      <trkpt lat="43.7945" lon="6.38383">
        <ele>744.2</ele>
        <time>2013-10-02T08:30:43Z</time>
      </trkpt>
      <trkpt lat="43.79442" lon="6.38385">
        <ele>743.72</ele>
        <time>2013-10-02T08:30:44Z</time>
      </trkpt>
      <trkpt lat="43.79434" lon="6.38386">
        <ele>743.24</ele>
        <time>2013-10-02T08:30:45Z</time>
      </trkpt>
      <trkpt lat="43.79426" lon="6.38385">
        <ele>743.24</ele>
        <time>2013-10-02T08:30:46Z</time>
      </trkpt>
      <trkpt lat="43.79418" lon="6.38385">
        <ele>743.24</ele>
        <time>2013-10-02T08:30:47Z</time>
      </trkpt>
      <trkpt lat="43.79381" lon="6.38382">
        <ele>740.35</ele>
        <time>2013-10-02T08:30:51Z</time>
      </trkpt>
      <trkpt lat="43.79321" lon="6.38379">
        <ele>736.99</ele>
        <time>2013-10-02T08:30:57Z</time>
      </trkpt>
      <trkpt lat="43.79288" lon="6.38383">
        <ele>734.58</ele>
        <time>2013-10-02T08:31:00Z</time>
      </trkpt>
      <trkpt lat="43.79278" lon="6.38386">
        <ele>734.58</ele>
        <time>2013-10-02T08:31:01Z</time>
      </trkpt>
      <trkpt lat="43.79234" lon="6.38404">
        <ele>732.18</ele>
        <time>2013-10-02T08:31:05Z</time>
      </trkpt>
      <trkpt lat="43.79224" lon="6.38404">
        <ele>730.26</ele>
        <time>2013-10-02T08:31:06Z</time>
      </trkpt>
      <trkpt lat="43.79216" lon="6.38399">
        <ele>728.82</ele>
        <time>2013-10-02T08:31:07Z</time>
      </trkpt>
      <trkpt lat="43.79208" lon="6.38392">
        <ele>728.82</ele>
        <time>2013-10-02T08:31:08Z</time>
      </trkpt>
      <trkpt lat="43.792" lon="6.38383">
        <ele>728.34</ele>
        <time>2013-10-02T08:31:09Z</time>
      </trkpt>
      <trkpt lat="43.79193" lon="6.38372">
        <ele>727.37</ele>
        <time>2013-10-02T08:31:10Z</time>
      </trkpt>
      <trkpt lat="43.79187" lon="6.3836">
        <ele>727.86</ele>
        <time>2013-10-02T08:31:11Z</time>
      </trkpt>
      <trkpt lat="43.79183" lon="6.38346">
        <ele>726.41</ele>
        <time>2013-10-02T08:31:12Z</time>
      </trkpt>
      <trkpt lat="43.7918" lon="6.38332">
        <ele>725.93</ele>
        <time>2013-10-02T08:31:13Z</time>
      </trkpt>
      <trkpt lat="43.79179" lon="6.38317">
        <ele>725.45</ele>
        <time>2013-10-02T08:31:14Z</time>
      </trkpt>
      <trkpt lat="43.79179" lon="6.38301">
        <ele>724.97</ele>
        <time>2013-10-02T08:31:15Z</time>
      </trkpt>
      <trkpt lat="43.7918" lon="6.38285">
        <ele>723.53</ele>
        <time>2013-10-02T08:31:16Z</time>
      </trkpt>
      <trkpt lat="43.79183" lon="6.3827">
        <ele>723.05</ele>
        <time>2013-10-02T08:31:17Z</time>
      </trkpt>
      <trkpt lat="43.79187" lon="6.38255">
        <ele>722.09</ele>
        <time>2013-10-02T08:31:18Z</time>
      </trkpt>
      <trkpt lat="43.79193" lon="6.38241">
        <ele>721.61</ele>
        <time>2013-10-02T08:31:19Z</time>
      </trkpt>
      <trkpt lat="43.792" lon="6.38228">
        <ele>720.65</ele>
        <time>2013-10-02T08:31:20Z</time>
      </trkpt>
      <trkpt lat="43.79208" lon="6.38216">
        <ele>720.65</ele>
        <time>2013-10-02T08:31:21Z</time>
      </trkpt>
      <trkpt lat="43.79238" lon="6.38163">
        <ele>717.28</ele>
        <time>2013-10-02T08:31:25Z</time>
      </trkpt>
      <trkpt lat="43.79251" lon="6.38135">
        <ele>715.36</ele>
        <time>2013-10-02T08:31:27Z</time>
      </trkpt>
      <trkpt lat="43.79256" lon="6.38119">
        <ele>713.92</ele>
        <time>2013-10-02T08:31:28Z</time>
      </trkpt>
      <trkpt lat="43.79259" lon="6.38102">
        <ele>713.92</ele>
        <time>2013-10-02T08:31:29Z</time>
      </trkpt>
      <trkpt lat="43.7926" lon="6.38085">
        <ele>712.95</ele>
        <time>2013-10-02T08:31:30Z</time>
      </trkpt>
      <trkpt lat="43.79259" lon="6.38067">
        <ele>712.95</ele>
        <time>2013-10-02T08:31:31Z</time>
      </trkpt>
      <trkpt lat="43.79259" lon="6.38049">
        <ele>711.51</ele>
        <time>2013-10-02T08:31:32Z</time>
      </trkpt>
      <trkpt lat="43.79261" lon="6.38031">
        <ele>709.59</ele>
        <time>2013-10-02T08:31:33Z</time>
      </trkpt>
      <trkpt lat="43.79264" lon="6.38014">
        <ele>709.11</ele>
        <time>2013-10-02T08:31:34Z</time>
      </trkpt>
      <trkpt lat="43.79268" lon="6.37997">
        <ele>708.15</ele>
        <time>2013-10-02T08:31:35Z</time>
      </trkpt>
      <trkpt lat="43.79269" lon="6.37981">
        <ele>707.67</ele>
        <time>2013-10-02T08:31:36Z</time>
      </trkpt>
      <trkpt lat="43.79267" lon="6.37964">
        <ele>706.23</ele>
        <time>2013-10-02T08:31:37Z</time>
      </trkpt>
      <trkpt lat="43.79262" lon="6.37947">
        <ele>706.71</ele>
        <time>2013-10-02T08:31:38Z</time>
      </trkpt>
      <trkpt lat="43.79257" lon="6.37932">
        <ele>705.75</ele>
        <time>2013-10-02T08:31:39Z</time>
      </trkpt>
      <trkpt lat="43.79242" lon="6.37889">
        <ele>703.82</ele>
        <time>2013-10-02T08:31:42Z</time>
      </trkpt>
      <trkpt lat="43.79206" lon="6.37777">
        <ele>700.94</ele>
        <time>2013-10-02T08:31:51Z</time>
      </trkpt>
      <trkpt lat="43.792" lon="6.37768">
        <ele>701.42</ele>
        <time>2013-10-02T08:31:52Z</time>
      </trkpt>
      <trkpt lat="43.79193" lon="6.3776">
        <ele>700.94</ele>
        <time>2013-10-02T08:31:53Z</time>
      </trkpt>
      <trkpt lat="43.79185" lon="6.37755">
        <ele>700.94</ele>
        <time>2013-10-02T08:31:54Z</time>
      </trkpt>
      <trkpt lat="43.79177" lon="6.37753">
        <ele>700.94</ele>
        <time>2013-10-02T08:31:55Z</time>
      </trkpt>
      <trkpt lat="43.79169" lon="6.37754">
        <ele>700.94</ele>
        <time>2013-10-02T08:31:56Z</time>
      </trkpt>
      <trkpt lat="43.79161" lon="6.37756">
        <ele>700.94</ele>
        <time>2013-10-02T08:31:57Z</time>
      </trkpt>
      <trkpt lat="43.79154" lon="6.37758">
        <ele>701.42</ele>
        <time>2013-10-02T08:31:58Z</time>
      </trkpt>
      <trkpt lat="43.79127" lon="6.37773">
        <ele>702.86</ele>
        <time>2013-10-02T08:32:02Z</time>
      </trkpt>
      <trkpt lat="43.79122" lon="6.37777">
        <ele>703.34</ele>
        <time>2013-10-02T08:32:03Z</time>
      </trkpt>
      <trkpt lat="43.79119" lon="6.37781">
        <ele>703.34</ele>
        <time>2013-10-02T08:32:04Z</time>
      </trkpt>
      <trkpt lat="43.79107" lon="6.37813">
        <ele>705.75</ele>
        <time>2013-10-02T08:32:12Z</time>
      </trkpt>
      <trkpt lat="43.79087" lon="6.37832">
        <ele>707.19</ele>
        <time>2013-10-02T08:32:21Z</time>
      </trkpt>
      <trkpt lat="43.79063" lon="6.37845">
        <ele>709.59</ele>
        <time>2013-10-02T08:32:30Z</time>
      </trkpt>
      <trkpt lat="43.79044" lon="6.37871">
        <ele>711.51</ele>
        <time>2013-10-02T08:32:40Z</time>
      </trkpt>
      <trkpt lat="43.79023" lon="6.37891">
        <ele>713.44</ele>
        <time>2013-10-02T08:32:49Z</time>
      </trkpt>
      <trkpt lat="43.79004" lon="6.37912">
        <ele>714.88</ele>
        <time>2013-10-02T08:32:58Z</time>
      </trkpt>
      <trkpt lat="43.79" lon="6.37921">
        <ele>715.84</ele>
        <time>2013-10-02T08:33:01Z</time>
      </trkpt>
      <trkpt lat="43.78988" lon="6.37943">
        <ele>718.24</ele>
        <time>2013-10-02T08:33:08Z</time>
      </trkpt>
      <trkpt lat="43.78978" lon="6.37978">
        <ele>719.2</ele>
        <time>2013-10-02T08:33:18Z</time>
      </trkpt>
      <trkpt lat="43.7896" lon="6.37995">
        <ele>721.13</ele>
        <time>2013-10-02T08:33:26Z</time>
      </trkpt>
      <trkpt lat="43.78944" lon="6.38019">
        <ele>722.57</ele>
        <time>2013-10-02T08:33:35Z</time>
      </trkpt>
      <trkpt lat="43.78925" lon="6.38047">
        <ele>725.45</ele>
        <time>2013-10-02T08:33:45Z</time>
      </trkpt>
      <trkpt lat="43.78908" lon="6.38075">
        <ele>726.89</ele>
        <time>2013-10-02T08:33:55Z</time>
      </trkpt>
      <trkpt lat="43.7889" lon="6.38097">
        <ele>728.82</ele>
        <time>2013-10-02T08:34:04Z</time>
      </trkpt>
      <trkpt lat="43.78857" lon="6.38102">
        <ele>730.26</ele>
        <time>2013-10-02T08:34:16Z</time>
      </trkpt>
      <trkpt lat="43.7883" lon="6.38091">
        <ele>733.62</ele>
        <time>2013-10-02T08:34:26Z</time>
      </trkpt>
      <trkpt lat="43.78801" lon="6.38067">
        <ele>735.07</ele>
        <time>2013-10-02T08:34:38Z</time>
      </trkpt>
      <trkpt lat="43.7877" lon="6.38054">
        <ele>737.47</ele>
        <time>2013-10-02T08:34:49Z</time>
      </trkpt>
      <trkpt lat="43.78746" lon="6.38064">
        <ele>738.91</ele>
        <time>2013-10-02T08:34:58Z</time>
      </trkpt>
      <trkpt lat="43.7872" lon="6.38093">
        <ele>741.79</ele>
        <time>2013-10-02T08:35:09Z</time>
      </trkpt>
      <trkpt lat="43.78717" lon="6.38094">
        <ele>741.79</ele>
        <time>2013-10-02T08:35:10Z</time>
      </trkpt>
      <trkpt lat="43.78699" lon="6.38084">
        <ele>743.24</ele>
        <time>2013-10-02T08:35:17Z</time>
      </trkpt>
      <trkpt lat="43.78696" lon="6.38061">
        <ele>745.16</ele>
        <time>2013-10-02T08:35:24Z</time>
      </trkpt>
      <trkpt lat="43.78716" lon="6.38047">
        <ele>747.08</ele>
        <time>2013-10-02T08:35:33Z</time>
      </trkpt>
      <trkpt lat="43.78745" lon="6.38035">
        <ele>748.04</ele>
        <time>2013-10-02T08:35:46Z</time>
      </trkpt>
      <trkpt lat="43.78783" lon="6.3803">
        <ele>749.97</ele>
        <time>2013-10-02T08:36:00Z</time>
      </trkpt>
      <trkpt lat="43.78813" lon="6.38044">
        <ele>750.93</ele>
        <time>2013-10-02T08:36:10Z</time>
      </trkpt>
      <trkpt lat="43.7884" lon="6.38047">
        <ele>752.37</ele>
        <time>2013-10-02T08:36:19Z</time>
      </trkpt>
      <trkpt lat="43.78852" lon="6.38017">
        <ele>753.81</ele>
        <time>2013-10-02T08:36:27Z</time>
      </trkpt>
      <trkpt lat="43.7887" lon="6.37988">
        <ele>756.69</ele>
        <time>2013-10-02T08:36:36Z</time>
      </trkpt>
      <trkpt lat="43.78879" lon="6.37967">
        <ele>758.14</ele>
        <time>2013-10-02T08:36:42Z</time>
      </trkpt>
      <trkpt lat="43.78882" lon="6.37934">
        <ele>759.58</ele>
        <time>2013-10-02T08:36:50Z</time>
      </trkpt>
      <trkpt lat="43.7889" lon="6.37895">
        <ele>761.5</ele>
        <time>2013-10-02T08:37:00Z</time>
      </trkpt>
      <trkpt lat="43.78901" lon="6.37859">
        <ele>763.9</ele>
        <time>2013-10-02T08:37:10Z</time>
      </trkpt>
      <trkpt lat="43.78915" lon="6.37828">
        <ele>765.83</ele>
        <time>2013-10-02T08:37:19Z</time>
      </trkpt>
      <trkpt lat="43.78927" lon="6.37802">
        <ele>767.27</ele>
        <time>2013-10-02T08:37:28Z</time>
      </trkpt>
      <trkpt lat="43.7894" lon="6.37785">
        <ele>769.19</ele>
        <time>2013-10-02T08:37:36Z</time>
      </trkpt>
      <trkpt lat="43.78961" lon="6.37765">
        <ele>770.63</ele>
        <time>2013-10-02T08:37:45Z</time>
      </trkpt>
      <trkpt lat="43.78985" lon="6.37741">
        <ele>773.04</ele>
        <time>2013-10-02T08:37:55Z</time>
      </trkpt>
      <trkpt lat="43.78988" lon="6.37733">
        <ele>773.04</ele>
        <time>2013-10-02T08:37:57Z</time>
      </trkpt>
      <trkpt lat="43.7899" lon="6.37728">
        <ele>773.04</ele>
        <time>2013-10-02T08:37:58Z</time>
      </trkpt>
      <trkpt lat="43.78987" lon="6.37696">
        <ele>773.52</ele>
        <time>2013-10-02T08:38:06Z</time>
      </trkpt>
      <trkpt lat="43.78973" lon="6.37668">
        <ele>776.88</ele>
        <time>2013-10-02T08:38:15Z</time>
      </trkpt>
      <trkpt lat="43.78945" lon="6.37642">
        <ele>778.32</ele>
        <time>2013-10-02T08:38:26Z</time>
      </trkpt>
      <trkpt lat="43.78918" lon="6.37622">
        <ele>780.25</ele>
        <time>2013-10-02T08:38:37Z</time>
      </trkpt>
      <trkpt lat="43.78907" lon="6.37615">
        <ele>781.69</ele>
        <time>2013-10-02T08:38:42Z</time>
      </trkpt>
      <trkpt lat="43.78906" lon="6.37613">
        <ele>781.21</ele>
        <time>2013-10-02T08:38:43Z</time>
      </trkpt>
      <trkpt lat="43.78904" lon="6.37611">
        <ele>782.65</ele>
        <time>2013-10-02T08:38:44Z</time>
      </trkpt>
      <trkpt lat="43.78892" lon="6.37598">
        <ele>783.61</ele>
        <time>2013-10-02T08:38:51Z</time>
      </trkpt>
      <trkpt lat="43.78871" lon="6.3758">
        <ele>785.53</ele>
        <time>2013-10-02T08:39:00Z</time>
      </trkpt>
      <trkpt lat="43.78841" lon="6.37561">
        <ele>786.5</ele>
        <time>2013-10-02T08:39:12Z</time>
      </trkpt>
      <trkpt lat="43.78813" lon="6.37542">
        <ele>788.42</ele>
        <time>2013-10-02T08:39:23Z</time>
      </trkpt>
      <trkpt lat="43.78794" lon="6.37513">
        <ele>790.34</ele>
        <time>2013-10-02T08:39:34Z</time>
      </trkpt>
      <trkpt lat="43.78791" lon="6.37507">
        <ele>791.3</ele>
        <time>2013-10-02T08:39:36Z</time>
      </trkpt>
      <trkpt lat="43.78765" lon="6.37486">
        <ele>792.74</ele>
        <time>2013-10-02T08:39:48Z</time>
      </trkpt>
      <trkpt lat="43.7874" lon="6.37471">
        <ele>795.63</ele>
        <time>2013-10-02T08:39:59Z</time>
      </trkpt>
      <trkpt lat="43.78716" lon="6.37454">
        <ele>796.59</ele>
        <time>2013-10-02T08:40:07Z</time>
      </trkpt>
      <trkpt lat="43.78689" lon="6.37417">
        <ele>799.47</ele>
        <time>2013-10-02T08:40:19Z</time>
      </trkpt>
      <trkpt lat="43.78674" lon="6.37382">
        <ele>801.4</ele>
        <time>2013-10-02T08:40:29Z</time>
      </trkpt>
      <trkpt lat="43.78667" lon="6.37357">
        <ele>801.88</ele>
        <time>2013-10-02T08:40:36Z</time>
      </trkpt>
      <trkpt lat="43.78667" lon="6.37353">
        <ele>802.84</ele>
        <time>2013-10-02T08:40:37Z</time>
      </trkpt>
      <trkpt lat="43.78657" lon="6.37317">
        <ele>803.32</ele>
        <time>2013-10-02T08:40:46Z</time>
      </trkpt>
      <trkpt lat="43.78642" lon="6.37282">
        <ele>805.72</ele>
        <time>2013-10-02T08:40:56Z</time>
      </trkpt>
      <trkpt lat="43.78618" lon="6.37243">
        <ele>808.13</ele>
        <time>2013-10-02T08:41:09Z</time>
      </trkpt>
      <trkpt lat="43.78614" lon="6.372">
        <ele>809.57</ele>
        <time>2013-10-02T08:41:20Z</time>
      </trkpt>
      <trkpt lat="43.78606" lon="6.37153">
        <ele>812.93</ele>
        <time>2013-10-02T08:41:33Z</time>
      </trkpt>
      <trkpt lat="43.78598" lon="6.3715">
        <ele>813.41</ele>
        <time>2013-10-02T08:41:36Z</time>
      </trkpt>
      <trkpt lat="43.78572" lon="6.37163">
        <ele>815.34</ele>
        <time>2013-10-02T08:41:46Z</time>
      </trkpt>
      <trkpt lat="43.78547" lon="6.37156">
        <ele>816.3</ele>
        <time>2013-10-02T08:41:56Z</time>
      </trkpt>
      <trkpt lat="43.78518" lon="6.37128">
        <ele>818.22</ele>
        <time>2013-10-02T08:42:09Z</time>
      </trkpt>
      <trkpt lat="43.78491" lon="6.37096">
        <ele>820.62</ele>
        <time>2013-10-02T08:42:22Z</time>
      </trkpt>
      <trkpt lat="43.7847" lon="6.37055">
        <ele>823.51</ele>
        <time>2013-10-02T08:42:35Z</time>
      </trkpt>
      <trkpt lat="43.78449" lon="6.37018">
        <ele>825.43</ele>
        <time>2013-10-02T08:42:47Z</time>
      </trkpt>
      <trkpt lat="43.78428" lon="6.36965">
        <ele>827.83</ele>
        <time>2013-10-02T08:43:02Z</time>
      </trkpt>
      <trkpt lat="43.7841" lon="6.36914">
        <ele>829.76</ele>
        <time>2013-10-02T08:43:16Z</time>
      </trkpt>
      <trkpt lat="43.78399" lon="6.36882">
        <ele>831.2</ele>
        <time>2013-10-02T08:43:25Z</time>
      </trkpt>
      <trkpt lat="43.78383" lon="6.36845">
        <ele>833.12</ele>
        <time>2013-10-02T08:43:36Z</time>
      </trkpt>
      <trkpt lat="43.78365" lon="6.36804">
        <ele>834.56</ele>
        <time>2013-10-02T08:43:48Z</time>
      </trkpt>
      <trkpt lat="43.78349" lon="6.36752">
        <ele>836.96</ele>
        <time>2013-10-02T08:44:02Z</time>
      </trkpt>
      <trkpt lat="43.78327" lon="6.36697">
        <ele>838.41</ele>
        <time>2013-10-02T08:44:17Z</time>
      </trkpt>
      <trkpt lat="43.78311" lon="6.36663">
        <ele>841.29</ele>
        <time>2013-10-02T08:44:27Z</time>
      </trkpt>
      <trkpt lat="43.78293" lon="6.36616">
        <ele>842.73</ele>
        <time>2013-10-02T08:44:40Z</time>
      </trkpt>
      <trkpt lat="43.78275" lon="6.36568">
        <ele>844.66</ele>
        <time>2013-10-02T08:44:53Z</time>
      </trkpt>
      <trkpt lat="43.7826" lon="6.36524">
        <ele>846.58</ele>
        <time>2013-10-02T08:45:05Z</time>
      </trkpt>
      <trkpt lat="43.7825" lon="6.36488">
        <ele>848.02</ele>
        <time>2013-10-02T08:45:15Z</time>
      </trkpt>
      <trkpt lat="43.78245" lon="6.36471">
        <ele>850.42</ele>
        <time>2013-10-02T08:45:20Z</time>
      </trkpt>
      <trkpt lat="43.78232" lon="6.36426">
        <ele>851.87</ele>
        <time>2013-10-02T08:45:32Z</time>
      </trkpt>
      <trkpt lat="43.7823" lon="6.36395">
        <ele>852.35</ele>
        <time>2013-10-02T08:45:40Z</time>
      </trkpt>
      <trkpt lat="43.78227" lon="6.3636">
        <ele>854.27</ele>
        <time>2013-10-02T08:45:49Z</time>
      </trkpt>
      <trkpt lat="43.78222" lon="6.36311">
        <ele>856.19</ele>
        <time>2013-10-02T08:46:01Z</time>
      </trkpt>
      <trkpt lat="43.78218" lon="6.36258">
        <ele>858.59</ele>
        <time>2013-10-02T08:46:13Z</time>
      </trkpt>
      <trkpt lat="43.78211" lon="6.36211">
        <ele>860.04</ele>
        <time>2013-10-02T08:46:24Z</time>
      </trkpt>
      <trkpt lat="43.78193" lon="6.36155">
        <ele>862.92</ele>
        <time>2013-10-02T08:46:38Z</time>
      </trkpt>
      <trkpt lat="43.78174" lon="6.36096">
        <ele>864.84</ele>
        <time>2013-10-02T08:46:53Z</time>
      </trkpt>
      <trkpt lat="43.78158" lon="6.36047">
        <ele>867.25</ele>
        <time>2013-10-02T08:47:06Z</time>
      </trkpt>
      <trkpt lat="43.78146" lon="6.36011">
        <ele>869.17</ele>
        <time>2013-10-02T08:47:16Z</time>
      </trkpt>
      <trkpt lat="43.78133" lon="6.35966">
        <ele>870.13</ele>
        <time>2013-10-02T08:47:28Z</time>
      </trkpt>
      <trkpt lat="43.78114" lon="6.35903">
        <ele>873.01</ele>
        <time>2013-10-02T08:47:44Z</time>
      </trkpt>
      <trkpt lat="43.78103" lon="6.35858">
        <ele>874.94</ele>
        <time>2013-10-02T08:47:55Z</time>
      </trkpt>
      <trkpt lat="43.78089" lon="6.35805">
        <ele>876.86</ele>
        <time>2013-10-02T08:48:08Z</time>
      </trkpt>
      <trkpt lat="43.78072" lon="6.35738">
        <ele>878.3</ele>
        <time>2013-10-02T08:48:24Z</time>
      </trkpt>
      <trkpt lat="43.7806" lon="6.35689">
        <ele>880.22</ele>
        <time>2013-10-02T08:48:36Z</time>
      </trkpt>
      <trkpt lat="43.78048" lon="6.35639">
        <ele>881.67</ele>
        <time>2013-10-02T08:48:49Z</time>
      </trkpt>
      <trkpt lat="43.78044" lon="6.35623">
        <ele>882.63</ele>
        <time>2013-10-02T08:48:53Z</time>
      </trkpt>
      <trkpt lat="43.78031" lon="6.35571">
        <ele>883.11</ele>
        <time>2013-10-02T08:49:06Z</time>
      </trkpt>
      <trkpt lat="43.78018" lon="6.3553">
        <ele>885.03</ele>
        <time>2013-10-02T08:49:18Z</time>
      </trkpt>
      <trkpt lat="43.78015" lon="6.35529">
        <ele>884.55</ele>
        <time>2013-10-02T08:49:19Z</time>
      </trkpt>
      <trkpt lat="43.78012" lon="6.35528">
        <ele>885.03</ele>
        <time>2013-10-02T08:49:20Z</time>
      </trkpt>
      <trkpt lat="43.78009" lon="6.35528">
        <ele>885.03</ele>
        <time>2013-10-02T08:49:21Z</time>
      </trkpt>
      <trkpt lat="43.78006" lon="6.35529">
        <ele>885.51</ele>
        <time>2013-10-02T08:49:22Z</time>
      </trkpt>
      <trkpt lat="43.78003" lon="6.3553">
        <ele>884.55</ele>
        <time>2013-10-02T08:49:23Z</time>
      </trkpt>
      <trkpt lat="43.77989" lon="6.35545">
        <ele>884.55</ele>
        <time>2013-10-02T08:49:28Z</time>
      </trkpt>
      <trkpt lat="43.77988" lon="6.3555">
        <ele>884.55</ele>
        <time>2013-10-02T08:49:29Z</time>
      </trkpt>
      <trkpt lat="43.77983" lon="6.35574">
        <ele>884.07</ele>
        <time>2013-10-02T08:49:33Z</time>
      </trkpt>
      <trkpt lat="43.77982" lon="6.3558">
        <ele>884.07</ele>
        <time>2013-10-02T08:49:34Z</time>
      </trkpt>
      <trkpt lat="43.77981" lon="6.35587">
        <ele>884.07</ele>
        <time>2013-10-02T08:49:35Z</time>
      </trkpt>
      <trkpt lat="43.77979" lon="6.35593">
        <ele>884.07</ele>
        <time>2013-10-02T08:49:36Z</time>
      </trkpt>
      <trkpt lat="43.77979" lon="6.356">
        <ele>883.59</ele>
        <time>2013-10-02T08:49:37Z</time>
      </trkpt>
      <trkpt lat="43.77977" lon="6.35607">
        <ele>884.07</ele>
        <time>2013-10-02T08:49:38Z</time>
      </trkpt>
      <trkpt lat="43.77976" lon="6.35614">
        <ele>884.07</ele>
        <time>2013-10-02T08:49:39Z</time>
      </trkpt>
      <trkpt lat="43.77963" lon="6.35699">
        <ele>882.63</ele>
        <time>2013-10-02T08:49:51Z</time>
      </trkpt>
      <trkpt lat="43.77954" lon="6.35751">
        <ele>882.15</ele>
        <time>2013-10-02T08:49:59Z</time>
      </trkpt>
      <trkpt lat="43.77954" lon="6.35763">
        <ele>882.15</ele>
        <time>2013-10-02T08:50:01Z</time>
      </trkpt>
      <trkpt lat="43.77954" lon="6.35769">
        <ele>882.15</ele>
        <time>2013-10-02T08:50:02Z</time>
      </trkpt>
      <trkpt lat="43.77954" lon="6.35781">
        <ele>882.15</ele>
        <time>2013-10-02T08:50:04Z</time>
      </trkpt>
      <trkpt lat="43.77954" lon="6.35788">
        <ele>882.15</ele>
        <time>2013-10-02T08:50:05Z</time>
      </trkpt>
      <trkpt lat="43.77951" lon="6.35871">
        <ele>883.11</ele>
        <time>2013-10-02T08:50:17Z</time>
      </trkpt>
      <trkpt lat="43.77942" lon="6.3595">
        <ele>882.63</ele>
        <time>2013-10-02T08:50:28Z</time>
      </trkpt>
      <trkpt lat="43.77941" lon="6.36046">
        <ele>883.11</ele>
        <time>2013-10-02T08:50:41Z</time>
      </trkpt>
      <trkpt lat="43.77942" lon="6.36154">
        <ele>882.15</ele>
        <time>2013-10-02T08:50:54Z</time>
      </trkpt>
      <trkpt lat="43.77943" lon="6.36267">
        <ele>879.26</ele>
        <time>2013-10-02T08:51:05Z</time>
      </trkpt>
      <trkpt lat="43.77944" lon="6.36366">
        <ele>876.86</ele>
        <time>2013-10-02T08:51:14Z</time>
      </trkpt>
      <trkpt lat="43.77942" lon="6.36376">
        <ele>876.38</ele>
        <time>2013-10-02T08:51:15Z</time>
      </trkpt>
      <trkpt lat="43.7794" lon="6.36386">
        <ele>876.38</ele>
        <time>2013-10-02T08:51:16Z</time>
      </trkpt>
      <trkpt lat="43.7791" lon="6.36449">
        <ele>873.98</ele>
        <time>2013-10-02T08:51:24Z</time>
      </trkpt>
      <trkpt lat="43.77872" lon="6.36524">
        <ele>871.57</ele>
        <time>2013-10-02T08:51:33Z</time>
      </trkpt>
      <trkpt lat="43.7784" lon="6.36585">
        <ele>870.13</ele>
        <time>2013-10-02T08:51:41Z</time>
      </trkpt>
      <trkpt lat="43.77803" lon="6.36658">
        <ele>869.65</ele>
        <time>2013-10-02T08:51:51Z</time>
      </trkpt>
      <trkpt lat="43.77789" lon="6.36686">
        <ele>870.13</ele>
        <time>2013-10-02T08:51:55Z</time>
      </trkpt>
      <trkpt lat="43.77787" lon="6.36693">
        <ele>870.13</ele>
        <time>2013-10-02T08:51:56Z</time>
      </trkpt>
      <trkpt lat="43.77784" lon="6.367">
        <ele>870.13</ele>
        <time>2013-10-02T08:51:57Z</time>
      </trkpt>
      <trkpt lat="43.77781" lon="6.36706">
        <ele>870.13</ele>
        <time>2013-10-02T08:51:58Z</time>
      </trkpt>
      <trkpt lat="43.77779" lon="6.36713">
        <ele>870.61</ele>
        <time>2013-10-02T08:51:59Z</time>
      </trkpt>
      <trkpt lat="43.77776" lon="6.3672">
        <ele>870.61</ele>
        <time>2013-10-02T08:52:00Z</time>
      </trkpt>
      <trkpt lat="43.77773" lon="6.36733">
        <ele>870.61</ele>
        <time>2013-10-02T08:52:02Z</time>
      </trkpt>
      <trkpt lat="43.77772" lon="6.36746">
        <ele>871.57</ele>
        <time>2013-10-02T08:52:04Z</time>
      </trkpt>
      <trkpt lat="43.77772" lon="6.36753">
        <ele>871.57</ele>
        <time>2013-10-02T08:52:05Z</time>
      </trkpt>
      <trkpt lat="43.77781" lon="6.36817">
        <ele>872.53</ele>
        <time>2013-10-02T08:52:15Z</time>
      </trkpt>
      <trkpt lat="43.77791" lon="6.36847">
        <ele>873.01</ele>
        <time>2013-10-02T08:52:20Z</time>
      </trkpt>
      <trkpt lat="43.77818" lon="6.36922">
        <ele>873.98</ele>
        <time>2013-10-02T08:52:32Z</time>
      </trkpt>
      <trkpt lat="43.77848" lon="6.3701">
        <ele>873.01</ele>
        <time>2013-10-02T08:52:44Z</time>
      </trkpt>
      <trkpt lat="43.77872" lon="6.37104">
        <ele>873.5</ele>
        <time>2013-10-02T08:52:57Z</time>
      </trkpt>
      <trkpt lat="43.7788" lon="6.3715">
        <ele>874.46</ele>
        <time>2013-10-02T08:53:04Z</time>
      </trkpt>
      <trkpt lat="43.77882" lon="6.37221">
        <ele>876.38</ele>
        <time>2013-10-02T08:53:16Z</time>
      </trkpt>
      <trkpt lat="43.77878" lon="6.37307">
        <ele>877.34</ele>
        <time>2013-10-02T08:53:29Z</time>
      </trkpt>
      <trkpt lat="43.77878" lon="6.37314">
        <ele>877.34</ele>
        <time>2013-10-02T08:53:30Z</time>
      </trkpt>
      <trkpt lat="43.77892" lon="6.37404">
        <ele>877.82</ele>
        <time>2013-10-02T08:53:43Z</time>
      </trkpt>
      <trkpt lat="43.77897" lon="6.37418">
        <ele>877.82</ele>
        <time>2013-10-02T08:53:45Z</time>
      </trkpt>
      <trkpt lat="43.77934" lon="6.37505">
        <ele>875.9</ele>
        <time>2013-10-02T08:53:57Z</time>
      </trkpt>
      <trkpt lat="43.77938" lon="6.37513">
        <ele>875.9</ele>
        <time>2013-10-02T08:53:58Z</time>
      </trkpt>
      <trkpt lat="43.77981" lon="6.37616">
        <ele>873.01</ele>
        <time>2013-10-02T08:54:10Z</time>
      </trkpt>
      <trkpt lat="43.7801" lon="6.37684">
        <ele>869.65</ele>
        <time>2013-10-02T08:54:17Z</time>
      </trkpt>
      <trkpt lat="43.78014" lon="6.37695">
        <ele>870.13</ele>
        <time>2013-10-02T08:54:18Z</time>
      </trkpt>
      <trkpt lat="43.78046" lon="6.37789">
        <ele>866.29</ele>
        <time>2013-10-02T08:54:26Z</time>
      </trkpt>
      <trkpt lat="43.78059" lon="6.37879">
        <ele>863.4</ele>
        <time>2013-10-02T08:54:33Z</time>
      </trkpt>
      <trkpt lat="43.7806" lon="6.37891">
        <ele>863.4</ele>
        <time>2013-10-02T08:54:34Z</time>
      </trkpt>
      <trkpt lat="43.78061" lon="6.3799">
        <ele>864.84</ele>
        <time>2013-10-02T08:54:43Z</time>
      </trkpt>
      <trkpt lat="43.78063" lon="6.38046">
        <ele>866.77</ele>
        <time>2013-10-02T08:54:51Z</time>
      </trkpt>
      <trkpt lat="43.78063" lon="6.38091">
        <ele>869.65</ele>
        <time>2013-10-02T08:55:01Z</time>
      </trkpt>
      <trkpt lat="43.78063" lon="6.38137">
        <ele>872.05</ele>
        <time>2013-10-02T08:55:12Z</time>
      </trkpt>
      <trkpt lat="43.7806" lon="6.3818">
        <ele>873.98</ele>
        <time>2013-10-02T08:55:23Z</time>
      </trkpt>
      <trkpt lat="43.78058" lon="6.38221">
        <ele>876.38</ele>
        <time>2013-10-02T08:55:34Z</time>
      </trkpt>
      <trkpt lat="43.7806" lon="6.38261">
        <ele>878.3</ele>
        <time>2013-10-02T08:55:45Z</time>
      </trkpt>
      <trkpt lat="43.78061" lon="6.38269">
        <ele>879.26</ele>
        <time>2013-10-02T08:55:47Z</time>
      </trkpt>
      <trkpt lat="43.78061" lon="6.38306">
        <ele>881.67</ele>
        <time>2013-10-02T08:55:57Z</time>
      </trkpt>
      <trkpt lat="43.78061" lon="6.3831">
        <ele>881.67</ele>
        <time>2013-10-02T08:55:58Z</time>
      </trkpt>
      <trkpt lat="43.78059" lon="6.3835">
        <ele>883.59</ele>
        <time>2013-10-02T08:56:09Z</time>
      </trkpt>
      <trkpt lat="43.78059" lon="6.38387">
        <ele>885.51</ele>
        <time>2013-10-02T08:56:19Z</time>
      </trkpt>
      <trkpt lat="43.78059" lon="6.38435">
        <ele>888.4</ele>
        <time>2013-10-02T08:56:32Z</time>
      </trkpt>
      <trkpt lat="43.78062" lon="6.38479">
        <ele>890.8</ele>
        <time>2013-10-02T08:56:44Z</time>
      </trkpt>
      <trkpt lat="43.78063" lon="6.38521">
        <ele>892.72</ele>
        <time>2013-10-02T08:56:55Z</time>
      </trkpt>
      <trkpt lat="43.78056" lon="6.38555">
        <ele>895.61</ele>
        <time>2013-10-02T08:57:05Z</time>
      </trkpt>
      <trkpt lat="43.78054" lon="6.38559">
        <ele>895.61</ele>
        <time>2013-10-02T08:57:06Z</time>
      </trkpt>
      <trkpt lat="43.78041" lon="6.38603">
        <ele>898.01</ele>
        <time>2013-10-02T08:57:19Z</time>
      </trkpt>
      <trkpt lat="43.78037" lon="6.38643">
        <ele>899.93</ele>
        <time>2013-10-02T08:57:30Z</time>
      </trkpt>
      <trkpt lat="43.78039" lon="6.38679">
        <ele>902.82</ele>
        <time>2013-10-02T08:57:40Z</time>
      </trkpt>
      <trkpt lat="43.7804" lon="6.38714">
        <ele>905.22</ele>
        <time>2013-10-02T08:57:50Z</time>
      </trkpt>
      <trkpt lat="43.7804" lon="6.38732">
        <ele>906.18</ele>
        <time>2013-10-02T08:57:55Z</time>
      </trkpt>
      <trkpt lat="43.78043" lon="6.38757">
        <ele>908.1</ele>
        <time>2013-10-02T08:58:02Z</time>
      </trkpt>
      <trkpt lat="43.78047" lon="6.38797">
        <ele>910.03</ele>
        <time>2013-10-02T08:58:13Z</time>
      </trkpt>
      <trkpt lat="43.78057" lon="6.38841">
        <ele>912.43</ele>
        <time>2013-10-02T08:58:25Z</time>
      </trkpt>
      <trkpt lat="43.78068" lon="6.38883">
        <ele>915.31</ele>
        <time>2013-10-02T08:58:37Z</time>
      </trkpt>
      <trkpt lat="43.78076" lon="6.38923">
        <ele>917.72</ele>
        <time>2013-10-02T08:58:48Z</time>
      </trkpt>
      <trkpt lat="43.78087" lon="6.38961">
        <ele>919.64</ele>
        <time>2013-10-02T08:58:59Z</time>
      </trkpt>
      <trkpt lat="43.78098" lon="6.38999">
        <ele>922.04</ele>
        <time>2013-10-02T08:59:10Z</time>
      </trkpt>
      <trkpt lat="43.78111" lon="6.39038">
        <ele>924.45</ele>
        <time>2013-10-02T08:59:22Z</time>
      </trkpt>
      <trkpt lat="43.78103" lon="6.39053">
        <ele>925.41</ele>
        <time>2013-10-02T08:59:28Z</time>
      </trkpt>
      <trkpt lat="43.781" lon="6.39057">
        <ele>925.41</ele>
        <time>2013-10-02T08:59:35Z</time>
      </trkpt>
      <trkpt lat="43.78099" lon="6.39059">
        <ele>924.93</ele>
        <time>2013-10-02T08:59:47Z</time>
      </trkpt>
      <trkpt lat="43.781" lon="6.3906">
        <ele>926.37</ele>
        <time>2013-10-02T09:04:48Z</time>
      </trkpt>
      <trkpt lat="43.78097" lon="6.39057">
        <ele>926.85</ele>
        <time>2013-10-02T09:07:12Z</time>
      </trkpt>
      <trkpt lat="43.78096" lon="6.39057">
        <ele>926.37</ele>
        <time>2013-10-02T09:07:19Z</time>
      </trkpt>
      <trkpt lat="43.78095" lon="6.39055">
        <ele>926.85</ele>
        <time>2013-10-02T09:07:24Z</time>
      </trkpt>
      <trkpt lat="43.78093" lon="6.39053">
        <ele>927.33</ele>
        <time>2013-10-02T09:07:25Z</time>
      </trkpt>
      <trkpt lat="43.78091" lon="6.39051">
        <ele>927.33</ele>
        <time>2013-10-02T09:07:26Z</time>
      </trkpt>
      <trkpt lat="43.7809" lon="6.39048">
        <ele>927.33</ele>
        <time>2013-10-02T09:07:27Z</time>
      </trkpt>
      <trkpt lat="43.78089" lon="6.39044">
        <ele>926.85</ele>
        <time>2013-10-02T09:07:28Z</time>
      </trkpt>
      <trkpt lat="43.78088" lon="6.39041">
        <ele>927.33</ele>
        <time>2013-10-02T09:07:29Z</time>
      </trkpt>
      <trkpt lat="43.78078" lon="6.39007">
        <ele>928.29</ele>
        <time>2013-10-02T09:07:39Z</time>
      </trkpt>
      <trkpt lat="43.78057" lon="6.38971">
        <ele>930.21</ele>
        <time>2013-10-02T09:07:52Z</time>
      </trkpt>
      <trkpt lat="43.78034" lon="6.38936">
        <ele>931.65</ele>
        <time>2013-10-02T09:08:05Z</time>
      </trkpt>
      <trkpt lat="43.78014" lon="6.38896">
        <ele>934.06</ele>
        <time>2013-10-02T09:08:18Z</time>
      </trkpt>
      <trkpt lat="43.77997" lon="6.38903">
        <ele>935.5</ele>
        <time>2013-10-02T09:08:25Z</time>
      </trkpt>
      <trkpt lat="43.78002" lon="6.38931">
        <ele>936.94</ele>
        <time>2013-10-02T09:08:33Z</time>
      </trkpt>
      <trkpt lat="43.78021" lon="6.38958">
        <ele>937.42</ele>
        <time>2013-10-02T09:08:42Z</time>
      </trkpt>
      <trkpt lat="43.78041" lon="6.38995">
        <ele>938.86</ele>
        <time>2013-10-02T09:08:53Z</time>
      </trkpt>
      <trkpt lat="43.78052" lon="6.39022">
        <ele>940.31</ele>
        <time>2013-10-02T09:09:01Z</time>
      </trkpt>
      <trkpt lat="43.78051" lon="6.39025">
        <ele>940.31</ele>
        <time>2013-10-02T09:09:02Z</time>
      </trkpt>
      <trkpt lat="43.78049" lon="6.39029">
        <ele>940.79</ele>
        <time>2013-10-02T09:09:03Z</time>
      </trkpt>
      <trkpt lat="43.78047" lon="6.39032">
        <ele>940.79</ele>
        <time>2013-10-02T09:09:04Z</time>
      </trkpt>
      <trkpt lat="43.78045" lon="6.39034">
        <ele>941.27</ele>
        <time>2013-10-02T09:09:05Z</time>
      </trkpt>
      <trkpt lat="43.78043" lon="6.39037">
        <ele>941.27</ele>
        <time>2013-10-02T09:09:06Z</time>
      </trkpt>
      <trkpt lat="43.78042" lon="6.39039">
        <ele>941.75</ele>
        <time>2013-10-02T09:09:07Z</time>
      </trkpt>
      <trkpt lat="43.78044" lon="6.39042">
        <ele>941.75</ele>
        <time>2013-10-02T09:09:08Z</time>
      </trkpt>
      <trkpt lat="43.78044" lon="6.39044">
        <ele>941.75</ele>
        <time>2013-10-02T09:09:09Z</time>
      </trkpt>
      <trkpt lat="43.78045" lon="6.39047">
        <ele>941.75</ele>
        <time>2013-10-02T09:09:10Z</time>
      </trkpt>
      <trkpt lat="43.78045" lon="6.39049">
        <ele>941.75</ele>
        <time>2013-10-02T09:09:11Z</time>
      </trkpt>
      <trkpt lat="43.78045" lon="6.39051">
        <ele>941.27</ele>
        <time>2013-10-02T09:09:12Z</time>
      </trkpt>
      <trkpt lat="43.78044" lon="6.39053">
        <ele>942.23</ele>
        <time>2013-10-02T09:09:13Z</time>
      </trkpt>
      <trkpt lat="43.78041" lon="6.39055">
        <ele>942.23</ele>
        <time>2013-10-02T09:09:22Z</time>
      </trkpt>
      <trkpt lat="43.78042" lon="6.39053">
        <ele>942.23</ele>
        <time>2013-10-02T09:11:05Z</time>
      </trkpt>
      <trkpt lat="43.78035" lon="6.39039">
        <ele>942.23</ele>
        <time>2013-10-02T09:11:10Z</time>
      </trkpt>
      <trkpt lat="43.78015" lon="6.38995">
        <ele>943.19</ele>
        <time>2013-10-02T09:11:21Z</time>
      </trkpt>
      <trkpt lat="43.77994" lon="6.38959">
        <ele>946.07</ele>
        <time>2013-10-02T09:11:32Z</time>
      </trkpt>
      <trkpt lat="43.77982" lon="6.38944">
        <ele>946.56</ele>
        <time>2013-10-02T09:11:38Z</time>
      </trkpt>
      <trkpt lat="43.77962" lon="6.3892">
        <ele>948.48</ele>
        <time>2013-10-02T09:11:47Z</time>
      </trkpt>
      <trkpt lat="43.77941" lon="6.38887">
        <ele>950.88</ele>
        <time>2013-10-02T09:11:58Z</time>
      </trkpt>
      <trkpt lat="43.77923" lon="6.38852">
        <ele>953.28</ele>
        <time>2013-10-02T09:12:09Z</time>
      </trkpt>
      <trkpt lat="43.77905" lon="6.38819">
        <ele>954.73</ele>
        <time>2013-10-02T09:12:20Z</time>
      </trkpt>
      <trkpt lat="43.77885" lon="6.3878">
        <ele>958.09</ele>
        <time>2013-10-02T09:12:33Z</time>
      </trkpt>
      <trkpt lat="43.77869" lon="6.38745">
        <ele>959.53</ele>
        <time>2013-10-02T09:12:44Z</time>
      </trkpt>
      <trkpt lat="43.77853" lon="6.38708">
        <ele>962.9</ele>
        <time>2013-10-02T09:12:56Z</time>
      </trkpt>
      <trkpt lat="43.77839" lon="6.38674">
        <ele>965.3</ele>
        <time>2013-10-02T09:13:08Z</time>
      </trkpt>
      <trkpt lat="43.77826" lon="6.38636">
        <ele>967.7</ele>
        <time>2013-10-02T09:13:21Z</time>
      </trkpt>
      <trkpt lat="43.77813" lon="6.38599">
        <ele>970.59</ele>
        <time>2013-10-02T09:13:34Z</time>
      </trkpt>
      <trkpt lat="43.77801" lon="6.38561">
        <ele>973.47</ele>
        <time>2013-10-02T09:13:47Z</time>
      </trkpt>
      <trkpt lat="43.77791" lon="6.38533">
        <ele>975.88</ele>
        <time>2013-10-02T09:13:57Z</time>
      </trkpt>
      <trkpt lat="43.7778" lon="6.38501">
        <ele>978.28</ele>
        <time>2013-10-02T09:14:08Z</time>
      </trkpt>
      <trkpt lat="43.77777" lon="6.38492">
        <ele>979.72</ele>
        <time>2013-10-02T09:14:11Z</time>
      </trkpt>
      <trkpt lat="43.77765" lon="6.38461">
        <ele>982.12</ele>
        <time>2013-10-02T09:14:22Z</time>
      </trkpt>
      <trkpt lat="43.77755" lon="6.38437">
        <ele>983.57</ele>
        <time>2013-10-02T09:14:31Z</time>
      </trkpt>
      <trkpt lat="43.77747" lon="6.38417">
        <ele>985.97</ele>
        <time>2013-10-02T09:14:38Z</time>
      </trkpt>
      <trkpt lat="43.77734" lon="6.38383">
        <ele>987.41</ele>
        <time>2013-10-02T09:14:50Z</time>
      </trkpt>
      <trkpt lat="43.77725" lon="6.3836">
        <ele>990.3</ele>
        <time>2013-10-02T09:14:58Z</time>
      </trkpt>
      <trkpt lat="43.77713" lon="6.38326">
        <ele>993.18</ele>
        <time>2013-10-02T09:15:10Z</time>
      </trkpt>
      <trkpt lat="43.77708" lon="6.38316">
        <ele>994.14</ele>
        <time>2013-10-02T09:15:14Z</time>
      </trkpt>
      <trkpt lat="43.77696" lon="6.38288">
        <ele>996.54</ele>
        <time>2013-10-02T09:15:25Z</time>
      </trkpt>
      <trkpt lat="43.77693" lon="6.38283">
        <ele>997.51</ele>
        <time>2013-10-02T09:15:27Z</time>
      </trkpt>
      <trkpt lat="43.7768" lon="6.3826">
        <ele>1000.39</ele>
        <time>2013-10-02T09:15:37Z</time>
      </trkpt>
      <trkpt lat="43.77667" lon="6.38242">
        <ele>1001.83</ele>
        <time>2013-10-02T09:15:46Z</time>
      </trkpt>
      <trkpt lat="43.77652" lon="6.38225">
        <ele>1004.72</ele>
        <time>2013-10-02T09:15:55Z</time>
      </trkpt>
      <trkpt lat="43.77638" lon="6.38209">
        <ele>1007.12</ele>
        <time>2013-10-02T09:16:04Z</time>
      </trkpt>
      <trkpt lat="43.77631" lon="6.38201">
        <ele>1008.08</ele>
        <time>2013-10-02T09:16:09Z</time>
      </trkpt>
      <trkpt lat="43.77615" lon="6.38185">
        <ele>1010.48</ele>
        <time>2013-10-02T09:16:19Z</time>
      </trkpt>
      <trkpt lat="43.77595" lon="6.38166">
        <ele>1012.89</ele>
        <time>2013-10-02T09:16:31Z</time>
      </trkpt>
      <trkpt lat="43.77588" lon="6.38158">
        <ele>1013.85</ele>
        <time>2013-10-02T09:16:35Z</time>
      </trkpt>
      <trkpt lat="43.77575" lon="6.38135">
        <ele>1016.73</ele>
        <time>2013-10-02T09:16:45Z</time>
      </trkpt>
      <trkpt lat="43.77571" lon="6.38126">
        <ele>1017.21</ele>
        <time>2013-10-02T09:16:49Z</time>
      </trkpt>
      <trkpt lat="43.7756" lon="6.38094">
        <ele>1019.62</ele>
        <time>2013-10-02T09:17:01Z</time>
      </trkpt>
      <trkpt lat="43.77556" lon="6.38063">
        <ele>1022.98</ele>
        <time>2013-10-02T09:17:11Z</time>
      </trkpt>
      <trkpt lat="43.77555" lon="6.38037">
        <ele>1024.42</ele>
        <time>2013-10-02T09:17:20Z</time>
      </trkpt>
      <trkpt lat="43.77551" lon="6.38018">
        <ele>1024.9</ele>
        <time>2013-10-02T09:17:26Z</time>
      </trkpt>
      <trkpt lat="43.77532" lon="6.38016">
        <ele>1026.83</ele>
        <time>2013-10-02T09:17:35Z</time>
      </trkpt>
      <trkpt lat="43.77525" lon="6.38046">
        <ele>1028.27</ele>
        <time>2013-10-02T09:17:44Z</time>
      </trkpt>
      <trkpt lat="43.77526" lon="6.38081">
        <ele>1030.19</ele>
        <time>2013-10-02T09:17:53Z</time>
      </trkpt>
      <trkpt lat="43.77524" lon="6.3812">
        <ele>1032.59</ele>
        <time>2013-10-02T09:18:04Z</time>
      </trkpt>
      <trkpt lat="43.7752" lon="6.38159">
        <ele>1035.48</ele>
        <time>2013-10-02T09:18:15Z</time>
      </trkpt>
      <trkpt lat="43.77517" lon="6.38187">
        <ele>1037.88</ele>
        <time>2013-10-02T09:18:24Z</time>
      </trkpt>
      <trkpt lat="43.77513" lon="6.38226">
        <ele>1041.25</ele>
        <time>2013-10-02T09:18:36Z</time>
      </trkpt>
      <trkpt lat="43.77514" lon="6.38262">
        <ele>1043.65</ele>
        <time>2013-10-02T09:18:47Z</time>
      </trkpt>
      <trkpt lat="43.77519" lon="6.38294">
        <ele>1045.57</ele>
        <time>2013-10-02T09:18:57Z</time>
      </trkpt>
      <trkpt lat="43.77531" lon="6.38328">
        <ele>1048.45</ele>
        <time>2013-10-02T09:19:08Z</time>
      </trkpt>
      <trkpt lat="43.77544" lon="6.38362">
        <ele>1050.86</ele>
        <time>2013-10-02T09:19:19Z</time>
      </trkpt>
      <trkpt lat="43.77551" lon="6.38382">
        <ele>1051.82</ele>
        <time>2013-10-02T09:19:25Z</time>
      </trkpt>
      <trkpt lat="43.77539" lon="6.38399">
        <ele>1054.22</ele>
        <time>2013-10-02T09:19:33Z</time>
      </trkpt>
      <trkpt lat="43.77537" lon="6.38398">
        <ele>1053.74</ele>
        <time>2013-10-02T09:19:34Z</time>
      </trkpt>
      <trkpt lat="43.77536" lon="6.38399">
        <ele>1053.74</ele>
        <time>2013-10-02T09:19:39Z</time>
      </trkpt>
      <trkpt lat="43.77533" lon="6.38407">
        <ele>1055.18</ele>
        <time>2013-10-02T09:19:48Z</time>
      </trkpt>
      <trkpt lat="43.77523" lon="6.38405">
        <ele>1057.11</ele>
        <time>2013-10-02T09:19:59Z</time>
      </trkpt>
      <trkpt lat="43.77522" lon="6.38405">
        <ele>1057.59</ele>
        <time>2013-10-02T09:20:11Z</time>
      </trkpt>
      <trkpt lat="43.77522" lon="6.38405">
        <ele>1057.59</ele>
        <time>2013-10-02T09:21:32Z</time>
      </trkpt>
      <trkpt lat="43.77523" lon="6.38401">
        <ele>1058.07</ele>
        <time>2013-10-02T09:21:45Z</time>
      </trkpt>
      <trkpt lat="43.77523" lon="6.38392">
        <ele>1057.59</ele>
        <time>2013-10-02T09:21:59Z</time>
      </trkpt>
      <trkpt lat="43.77523" lon="6.38392">
        <ele>1056.63</ele>
        <time>2013-10-02T09:22:10Z</time>
      </trkpt>
      <trkpt lat="43.77523" lon="6.38392">
        <ele>1056.15</ele>
        <time>2013-10-02T09:22:21Z</time>
      </trkpt>
      <trkpt lat="43.77524" lon="6.38382">
        <ele>1055.67</ele>
        <time>2013-10-02T09:22:32Z</time>
      </trkpt>
      <trkpt lat="43.77521" lon="6.38371">
        <ele>1055.18</ele>
        <time>2013-10-02T09:22:44Z</time>
      </trkpt>
      <trkpt lat="43.77521" lon="6.38369">
        <ele>1055.67</ele>
        <time>2013-10-02T09:23:00Z</time>
      </trkpt>
      <trkpt lat="43.77521" lon="6.38367">
        <ele>1055.18</ele>
        <time>2013-10-02T09:23:49Z</time>
      </trkpt>
      <trkpt lat="43.77507" lon="6.38346">
        <ele>1056.63</ele>
        <time>2013-10-02T09:23:58Z</time>
      </trkpt>
      <trkpt lat="43.77496" lon="6.38336">
        <ele>1056.63</ele>
        <time>2013-10-02T09:24:05Z</time>
      </trkpt>
      <trkpt lat="43.77494" lon="6.38334">
        <ele>1057.11</ele>
        <time>2013-10-02T09:24:09Z</time>
      </trkpt>
      <trkpt lat="43.77473" lon="6.38309">
        <ele>1057.11</ele>
        <time>2013-10-02T09:24:19Z</time>
      </trkpt>
      <trkpt lat="43.77455" lon="6.38276">
        <ele>1058.07</ele>
        <time>2013-10-02T09:24:29Z</time>
      </trkpt>
      <trkpt lat="43.77451" lon="6.38267">
        <ele>1058.55</ele>
        <time>2013-10-02T09:24:32Z</time>
      </trkpt>
      <trkpt lat="43.77447" lon="6.38232">
        <ele>1059.51</ele>
        <time>2013-10-02T09:24:41Z</time>
      </trkpt>
      <trkpt lat="43.77439" lon="6.38188">
        <ele>1060.95</ele>
        <time>2013-10-02T09:24:52Z</time>
      </trkpt>
      <trkpt lat="43.7743" lon="6.38141">
        <ele>1063.84</ele>
        <time>2013-10-02T09:25:05Z</time>
      </trkpt>
      <trkpt lat="43.7742" lon="6.38091">
        <ele>1065.76</ele>
        <time>2013-10-02T09:25:19Z</time>
      </trkpt>
      <trkpt lat="43.7741" lon="6.38055">
        <ele>1068.16</ele>
        <time>2013-10-02T09:25:30Z</time>
      </trkpt>
      <trkpt lat="43.77398" lon="6.38024">
        <ele>1071.05</ele>
        <time>2013-10-02T09:25:41Z</time>
      </trkpt>
      <trkpt lat="43.77385" lon="6.37999">
        <ele>1073.45</ele>
        <time>2013-10-02T09:25:51Z</time>
      </trkpt>
      <trkpt lat="43.7737" lon="6.37973">
        <ele>1075.85</ele>
        <time>2013-10-02T09:26:02Z</time>
      </trkpt>
      <trkpt lat="43.77355" lon="6.37945">
        <ele>1078.26</ele>
        <time>2013-10-02T09:26:13Z</time>
      </trkpt>
      <trkpt lat="43.77343" lon="6.37923">
        <ele>1081.14</ele>
        <time>2013-10-02T09:26:21Z</time>
      </trkpt>
      <trkpt lat="43.77324" lon="6.37889">
        <ele>1084.02</ele>
        <time>2013-10-02T09:26:34Z</time>
      </trkpt>
      <trkpt lat="43.77308" lon="6.37862">
        <ele>1086.91</ele>
        <time>2013-10-02T09:26:45Z</time>
      </trkpt>
      <trkpt lat="43.77286" lon="6.37822">
        <ele>1089.79</ele>
        <time>2013-10-02T09:26:59Z</time>
      </trkpt>
      <trkpt lat="43.77267" lon="6.37788">
        <ele>1091.71</ele>
        <time>2013-10-02T09:27:11Z</time>
      </trkpt>
      <trkpt lat="43.77244" lon="6.37751">
        <ele>1094.12</ele>
        <time>2013-10-02T09:27:24Z</time>
      </trkpt>
      <trkpt lat="43.77237" lon="6.3774">
        <ele>1095.08</ele>
        <time>2013-10-02T09:27:28Z</time>
      </trkpt>
      <trkpt lat="43.77216" lon="6.37712">
        <ele>1097</ele>
        <time>2013-10-02T09:27:39Z</time>
      </trkpt>
      <trkpt lat="43.77188" lon="6.37675">
        <ele>1099.4</ele>
        <time>2013-10-02T09:27:53Z</time>
      </trkpt>
      <trkpt lat="43.77165" lon="6.37644">
        <ele>1102.29</ele>
        <time>2013-10-02T09:28:04Z</time>
      </trkpt>
      <trkpt lat="43.77143" lon="6.37615">
        <ele>1104.21</ele>
        <time>2013-10-02T09:28:14Z</time>
      </trkpt>
      <trkpt lat="43.77122" lon="6.37582">
        <ele>1106.13</ele>
        <time>2013-10-02T09:28:25Z</time>
      </trkpt>
      <trkpt lat="43.77101" lon="6.37543">
        <ele>1108.06</ele>
        <time>2013-10-02T09:28:37Z</time>
      </trkpt>
      <trkpt lat="43.7709" lon="6.37519">
        <ele>1109.5</ele>
        <time>2013-10-02T09:28:45Z</time>
      </trkpt>
      <trkpt lat="43.77076" lon="6.37492">
        <ele>1111.9</ele>
        <time>2013-10-02T09:28:54Z</time>
      </trkpt>
      <trkpt lat="43.77057" lon="6.37461">
        <ele>1114.79</ele>
        <time>2013-10-02T09:29:05Z</time>
      </trkpt>
      <trkpt lat="43.7704" lon="6.37434">
        <ele>1116.71</ele>
        <time>2013-10-02T09:29:15Z</time>
      </trkpt>
      <trkpt lat="43.77024" lon="6.3741">
        <ele>1119.59</ele>
        <time>2013-10-02T09:29:25Z</time>
      </trkpt>
      <trkpt lat="43.77007" lon="6.37384">
        <ele>1122.48</ele>
        <time>2013-10-02T09:29:36Z</time>
      </trkpt>
      <trkpt lat="43.76991" lon="6.37357">
        <ele>1125.36</ele>
        <time>2013-10-02T09:29:47Z</time>
      </trkpt>
      <trkpt lat="43.76973" lon="6.37329">
        <ele>1128.24</ele>
        <time>2013-10-02T09:29:59Z</time>
      </trkpt>
      <trkpt lat="43.76957" lon="6.37305">
        <ele>1130.65</ele>
        <time>2013-10-02T09:30:10Z</time>
      </trkpt>
      <trkpt lat="43.76945" lon="6.37286">
        <ele>1133.53</ele>
        <time>2013-10-02T09:30:19Z</time>
      </trkpt>
      <trkpt lat="43.76943" lon="6.37284">
        <ele>1133.05</ele>
        <time>2013-10-02T09:30:20Z</time>
      </trkpt>
      <trkpt lat="43.76927" lon="6.3726">
        <ele>1136.42</ele>
        <time>2013-10-02T09:30:31Z</time>
      </trkpt>
      <trkpt lat="43.76925" lon="6.37258">
        <ele>1136.42</ele>
        <time>2013-10-02T09:30:32Z</time>
      </trkpt>
      <trkpt lat="43.7691" lon="6.37242">
        <ele>1138.34</ele>
        <time>2013-10-02T09:30:41Z</time>
      </trkpt>
      <trkpt lat="43.769" lon="6.37232">
        <ele>1139.78</ele>
        <time>2013-10-02T09:30:47Z</time>
      </trkpt>
      <trkpt lat="43.7688" lon="6.37215">
        <ele>1142.66</ele>
        <time>2013-10-02T09:30:58Z</time>
      </trkpt>
      <trkpt lat="43.76865" lon="6.37201">
        <ele>1145.55</ele>
        <time>2013-10-02T09:31:07Z</time>
      </trkpt>
      <trkpt lat="43.76862" lon="6.37198">
        <ele>1146.03</ele>
        <time>2013-10-02T09:31:09Z</time>
      </trkpt>
      <trkpt lat="43.76852" lon="6.37188">
        <ele>1147.95</ele>
        <time>2013-10-02T09:31:15Z</time>
      </trkpt>
      <trkpt lat="43.76832" lon="6.37169">
        <ele>1150.84</ele>
        <time>2013-10-02T09:31:27Z</time>
      </trkpt>
      <trkpt lat="43.76815" lon="6.37153">
        <ele>1153.24</ele>
        <time>2013-10-02T09:31:37Z</time>
      </trkpt>
      <trkpt lat="43.76799" lon="6.37139">
        <ele>1155.64</ele>
        <time>2013-10-02T09:31:46Z</time>
      </trkpt>
      <trkpt lat="43.76781" lon="6.37123">
        <ele>1157.56</ele>
        <time>2013-10-02T09:31:56Z</time>
      </trkpt>
      <trkpt lat="43.76778" lon="6.37119">
        <ele>1158.05</ele>
        <time>2013-10-02T09:31:58Z</time>
      </trkpt>
      <trkpt lat="43.76764" lon="6.37106">
        <ele>1160.45</ele>
        <time>2013-10-02T09:32:07Z</time>
      </trkpt>
      <trkpt lat="43.76748" lon="6.37087">
        <ele>1162.85</ele>
        <time>2013-10-02T09:32:17Z</time>
      </trkpt>
      <trkpt lat="43.76732" lon="6.37066">
        <ele>1165.74</ele>
        <time>2013-10-02T09:32:28Z</time>
      </trkpt>
      <trkpt lat="43.7672" lon="6.37047">
        <ele>1167.18</ele>
        <time>2013-10-02T09:32:37Z</time>
      </trkpt>
      <trkpt lat="43.76706" lon="6.37026">
        <ele>1169.58</ele>
        <time>2013-10-02T09:32:47Z</time>
      </trkpt>
      <trkpt lat="43.76693" lon="6.37004">
        <ele>1172.47</ele>
        <time>2013-10-02T09:32:57Z</time>
      </trkpt>
      <trkpt lat="43.76677" lon="6.36982">
        <ele>1174.39</ele>
        <time>2013-10-02T09:33:08Z</time>
      </trkpt>
      <trkpt lat="43.7666" lon="6.3696">
        <ele>1177.27</ele>
        <time>2013-10-02T09:33:19Z</time>
      </trkpt>
      <trkpt lat="43.76649" lon="6.36947">
        <ele>1179.19</ele>
        <time>2013-10-02T09:33:26Z</time>
      </trkpt>
      <trkpt lat="43.76628" lon="6.36923">
        <ele>1182.56</ele>
        <time>2013-10-02T09:33:39Z</time>
      </trkpt>
      <trkpt lat="43.76613" lon="6.36908">
        <ele>1184</ele>
        <time>2013-10-02T09:33:48Z</time>
      </trkpt>
      <trkpt lat="43.766" lon="6.36894">
        <ele>1185.92</ele>
        <time>2013-10-02T09:33:56Z</time>
      </trkpt>
      <trkpt lat="43.76582" lon="6.36875">
        <ele>1188.81</ele>
        <time>2013-10-02T09:34:07Z</time>
      </trkpt>
      <trkpt lat="43.76575" lon="6.36868">
        <ele>1190.25</ele>
        <time>2013-10-02T09:34:11Z</time>
      </trkpt>
      <trkpt lat="43.76568" lon="6.36861">
        <ele>1190.73</ele>
        <time>2013-10-02T09:34:15Z</time>
      </trkpt>
      <trkpt lat="43.76559" lon="6.3685">
        <ele>1192.17</ele>
        <time>2013-10-02T09:34:21Z</time>
      </trkpt>
      <trkpt lat="43.76545" lon="6.3683">
        <ele>1194.58</ele>
        <time>2013-10-02T09:34:31Z</time>
      </trkpt>
      <trkpt lat="43.76543" lon="6.36828">
        <ele>1195.06</ele>
        <time>2013-10-02T09:34:32Z</time>
      </trkpt>
      <trkpt lat="43.76535" lon="6.36825">
        <ele>1195.54</ele>
        <time>2013-10-02T09:34:36Z</time>
      </trkpt>
      <trkpt lat="43.76524" lon="6.3683">
        <ele>1196.5</ele>
        <time>2013-10-02T09:34:41Z</time>
      </trkpt>
      <trkpt lat="43.76524" lon="6.3686">
        <ele>1197.46</ele>
        <time>2013-10-02T09:34:50Z</time>
      </trkpt>
      <trkpt lat="43.76542" lon="6.36897">
        <ele>1200.34</ele>
        <time>2013-10-02T09:35:03Z</time>
      </trkpt>
      <trkpt lat="43.76543" lon="6.36931">
        <ele>1203.23</ele>
        <time>2013-10-02T09:35:14Z</time>
      </trkpt>
      <trkpt lat="43.76544" lon="6.36942">
        <ele>1204.19</ele>
        <time>2013-10-02T09:35:18Z</time>
      </trkpt>
      <trkpt lat="43.76543" lon="6.36963">
        <ele>1206.11</ele>
        <time>2013-10-02T09:35:25Z</time>
      </trkpt>
      <trkpt lat="43.76543" lon="6.36978">
        <ele>1207.55</ele>
        <time>2013-10-02T09:35:30Z</time>
      </trkpt>
      <trkpt lat="43.76542" lon="6.37005">
        <ele>1209.96</ele>
        <time>2013-10-02T09:35:40Z</time>
      </trkpt>
      <trkpt lat="43.76542" lon="6.37016">
        <ele>1210.92</ele>
        <time>2013-10-02T09:35:44Z</time>
      </trkpt>
      <trkpt lat="43.76542" lon="6.37047">
        <ele>1213.8</ele>
        <time>2013-10-02T09:35:55Z</time>
      </trkpt>
      <trkpt lat="43.76542" lon="6.37071">
        <ele>1216.21</ele>
        <time>2013-10-02T09:36:04Z</time>
      </trkpt>
      <trkpt lat="43.76542" lon="6.37086">
        <ele>1217.65</ele>
        <time>2013-10-02T09:36:10Z</time>
      </trkpt>
      <trkpt lat="43.76541" lon="6.37105">
        <ele>1219.57</ele>
        <time>2013-10-02T09:36:17Z</time>
      </trkpt>
      <trkpt lat="43.76541" lon="6.37116">
        <ele>1220.53</ele>
        <time>2013-10-02T09:36:21Z</time>
      </trkpt>
      <trkpt lat="43.76543" lon="6.37132">
        <ele>1221.49</ele>
        <time>2013-10-02T09:36:27Z</time>
      </trkpt>
      <trkpt lat="43.76543" lon="6.37148">
        <ele>1222.93</ele>
        <time>2013-10-02T09:36:33Z</time>
      </trkpt>
      <trkpt lat="43.76542" lon="6.37165">
        <ele>1224.38</ele>
        <time>2013-10-02T09:36:39Z</time>
      </trkpt>
      <trkpt lat="43.76542" lon="6.3717">
        <ele>1224.86</ele>
        <time>2013-10-02T09:36:41Z</time>
      </trkpt>
      <trkpt lat="43.76543" lon="6.3718">
        <ele>1226.3</ele>
        <time>2013-10-02T09:36:45Z</time>
      </trkpt>
      <trkpt lat="43.76544" lon="6.3721">
        <ele>1228.7</ele>
        <time>2013-10-02T09:36:56Z</time>
      </trkpt>
      <trkpt lat="43.76545" lon="6.37218">
        <ele>1229.18</ele>
        <time>2013-10-02T09:36:59Z</time>
      </trkpt>
      <trkpt lat="43.76546" lon="6.37251">
        <ele>1231.11</ele>
        <time>2013-10-02T09:37:10Z</time>
      </trkpt>
      <trkpt lat="43.76547" lon="6.37284">
        <ele>1232.55</ele>
        <time>2013-10-02T09:37:21Z</time>
      </trkpt>
      <trkpt lat="43.76552" lon="6.37319">
        <ele>1233.99</ele>
        <time>2013-10-02T09:37:32Z</time>
      </trkpt>
      <trkpt lat="43.76547" lon="6.37333">
        <ele>1235.43</ele>
        <time>2013-10-02T09:37:38Z</time>
      </trkpt>
      <trkpt lat="43.76531" lon="6.37331">
        <ele>1235.91</ele>
        <time>2013-10-02T09:37:49Z</time>
      </trkpt>
      <trkpt lat="43.76531" lon="6.37331">
        <ele>1235.91</ele>
        <time>2013-10-02T09:37:59Z</time>
      </trkpt>
      <trkpt lat="43.7653" lon="6.3733">
        <ele>1237.35</ele>
        <time>2013-10-02T09:44:39Z</time>
      </trkpt>
      <trkpt lat="43.76531" lon="6.37325">
        <ele>1237.35</ele>
        <time>2013-10-02T09:44:49Z</time>
      </trkpt>
      <trkpt lat="43.76531" lon="6.37316">
        <ele>1237.35</ele>
        <time>2013-10-02T09:44:53Z</time>
      </trkpt>
      <trkpt lat="43.76527" lon="6.37263">
        <ele>1237.83</ele>
        <time>2013-10-02T09:45:05Z</time>
      </trkpt>
      <trkpt lat="43.76519" lon="6.37226">
        <ele>1238.32</ele>
        <time>2013-10-02T09:45:12Z</time>
      </trkpt>
      <trkpt lat="43.76517" lon="6.37221">
        <ele>1238.32</ele>
        <time>2013-10-02T09:45:13Z</time>
      </trkpt>
      <trkpt lat="43.76487" lon="6.3715">
        <ele>1239.28</ele>
        <time>2013-10-02T09:45:26Z</time>
      </trkpt>
      <trkpt lat="43.76453" lon="6.37096">
        <ele>1241.2</ele>
        <time>2013-10-02T09:45:38Z</time>
      </trkpt>
      <trkpt lat="43.76439" lon="6.37074">
        <ele>1241.2</ele>
        <time>2013-10-02T09:45:43Z</time>
      </trkpt>
      <trkpt lat="43.76408" lon="6.37036">
        <ele>1243.12</ele>
        <time>2013-10-02T09:45:54Z</time>
      </trkpt>
      <trkpt lat="43.76384" lon="6.37017">
        <ele>1246.01</ele>
        <time>2013-10-02T09:46:04Z</time>
      </trkpt>
      <trkpt lat="43.7636" lon="6.37">
        <ele>1248.41</ele>
        <time>2013-10-02T09:46:15Z</time>
      </trkpt>
      <trkpt lat="43.76337" lon="6.36985">
        <ele>1251.77</ele>
        <time>2013-10-02T09:46:26Z</time>
      </trkpt>
      <trkpt lat="43.7632" lon="6.36973">
        <ele>1254.66</ele>
        <time>2013-10-02T09:46:35Z</time>
      </trkpt>
      <trkpt lat="43.763" lon="6.3696">
        <ele>1256.58</ele>
        <time>2013-10-02T09:46:45Z</time>
      </trkpt>
      <trkpt lat="43.76279" lon="6.36947">
        <ele>1258.5</ele>
        <time>2013-10-02T09:46:55Z</time>
      </trkpt>
      <trkpt lat="43.76263" lon="6.36936">
        <ele>1260.43</ele>
        <time>2013-10-02T09:47:03Z</time>
      </trkpt>
      <trkpt lat="43.76241" lon="6.36906">
        <ele>1261.87</ele>
        <time>2013-10-02T09:47:15Z</time>
      </trkpt>
      <trkpt lat="43.76218" lon="6.36869">
        <ele>1263.79</ele>
        <time>2013-10-02T09:47:27Z</time>
      </trkpt>
      <trkpt lat="43.76198" lon="6.36834">
        <ele>1265.71</ele>
        <time>2013-10-02T09:47:38Z</time>
      </trkpt>
      <trkpt lat="43.7618" lon="6.36805">
        <ele>1266.67</ele>
        <time>2013-10-02T09:47:46Z</time>
      </trkpt>
      <trkpt lat="43.76152" lon="6.3676">
        <ele>1268.6</ele>
        <time>2013-10-02T09:47:58Z</time>
      </trkpt>
      <trkpt lat="43.76128" lon="6.3673">
        <ele>1269.56</ele>
        <time>2013-10-02T09:48:07Z</time>
      </trkpt>
      <trkpt lat="43.7612" lon="6.36726">
        <ele>1269.08</ele>
        <time>2013-10-02T09:48:09Z</time>
      </trkpt>
      <trkpt lat="43.76116" lon="6.36726">
        <ele>1269.56</ele>
        <time>2013-10-02T09:48:10Z</time>
      </trkpt>
      <trkpt lat="43.76112" lon="6.36726">
        <ele>1269.56</ele>
        <time>2013-10-02T09:48:11Z</time>
      </trkpt>
      <trkpt lat="43.76108" lon="6.36728">
        <ele>1270.04</ele>
        <time>2013-10-02T09:48:12Z</time>
      </trkpt>
      <trkpt lat="43.76106" lon="6.3673">
        <ele>1269.56</ele>
        <time>2013-10-02T09:48:13Z</time>
      </trkpt>
      <trkpt lat="43.76103" lon="6.36732">
        <ele>1269.56</ele>
        <time>2013-10-02T09:48:14Z</time>
      </trkpt>
      <trkpt lat="43.76099" lon="6.36736">
        <ele>1269.56</ele>
        <time>2013-10-02T09:48:15Z</time>
      </trkpt>
      <trkpt lat="43.76095" lon="6.3674">
        <ele>1269.56</ele>
        <time>2013-10-02T09:48:16Z</time>
      </trkpt>
      <trkpt lat="43.76092" lon="6.36744">
        <ele>1269.56</ele>
        <time>2013-10-02T09:48:17Z</time>
      </trkpt>
      <trkpt lat="43.76089" lon="6.36749">
        <ele>1270.04</ele>
        <time>2013-10-02T09:48:18Z</time>
      </trkpt>
      <trkpt lat="43.76086" lon="6.36755">
        <ele>1269.56</ele>
        <time>2013-10-02T09:48:19Z</time>
      </trkpt>
      <trkpt lat="43.76084" lon="6.36761">
        <ele>1270.04</ele>
        <time>2013-10-02T09:48:20Z</time>
      </trkpt>
      <trkpt lat="43.76082" lon="6.36767">
        <ele>1270.04</ele>
        <time>2013-10-02T09:48:21Z</time>
      </trkpt>
      <trkpt lat="43.76081" lon="6.36774">
        <ele>1270.52</ele>
        <time>2013-10-02T09:48:22Z</time>
      </trkpt>
      <trkpt lat="43.7608" lon="6.3678">
        <ele>1270.52</ele>
        <time>2013-10-02T09:48:23Z</time>
      </trkpt>
      <trkpt lat="43.76079" lon="6.36787">
        <ele>1270.04</ele>
        <time>2013-10-02T09:48:24Z</time>
      </trkpt>
      <trkpt lat="43.76079" lon="6.36794">
        <ele>1270.04</ele>
        <time>2013-10-02T09:48:25Z</time>
      </trkpt>
      <trkpt lat="43.76074" lon="6.36836">
        <ele>1271</ele>
        <time>2013-10-02T09:48:31Z</time>
      </trkpt>
      <trkpt lat="43.76068" lon="6.36889">
        <ele>1272.44</ele>
        <time>2013-10-02T09:48:41Z</time>
      </trkpt>
      <trkpt lat="43.76064" lon="6.36936">
        <ele>1274.85</ele>
        <time>2013-10-02T09:48:52Z</time>
      </trkpt>
      <trkpt lat="43.76057" lon="6.3696">
        <ele>1276.29</ele>
        <time>2013-10-02T09:48:58Z</time>
      </trkpt>
      <trkpt lat="43.76039" lon="6.36984">
        <ele>1279.17</ele>
        <time>2013-10-02T09:49:07Z</time>
      </trkpt>
      <trkpt lat="43.7601" lon="6.36985">
        <ele>1281.09</ele>
        <time>2013-10-02T09:49:18Z</time>
      </trkpt>
      <trkpt lat="43.75996" lon="6.36973">
        <ele>1283.02</ele>
        <time>2013-10-02T09:49:25Z</time>
      </trkpt>
      <trkpt lat="43.75972" lon="6.36942">
        <ele>1285.42</ele>
        <time>2013-10-02T09:49:37Z</time>
      </trkpt>
      <trkpt lat="43.75951" lon="6.36912">
        <ele>1287.82</ele>
        <time>2013-10-02T09:49:48Z</time>
      </trkpt>
      <trkpt lat="43.75928" lon="6.36879">
        <ele>1290.23</ele>
        <time>2013-10-02T09:50:00Z</time>
      </trkpt>
      <trkpt lat="43.75909" lon="6.36851">
        <ele>1292.63</ele>
        <time>2013-10-02T09:50:10Z</time>
      </trkpt>
      <trkpt lat="43.7589" lon="6.36815">
        <ele>1293.59</ele>
        <time>2013-10-02T09:50:21Z</time>
      </trkpt>
      <trkpt lat="43.75873" lon="6.36779">
        <ele>1295.51</ele>
        <time>2013-10-02T09:50:32Z</time>
      </trkpt>
      <trkpt lat="43.75867" lon="6.36766">
        <ele>1297.92</ele>
        <time>2013-10-02T09:50:36Z</time>
      </trkpt>
      <trkpt lat="43.75851" lon="6.36733">
        <ele>1300.32</ele>
        <time>2013-10-02T09:50:47Z</time>
      </trkpt>
      <trkpt lat="43.75832" lon="6.36697">
        <ele>1303.2</ele>
        <time>2013-10-02T09:51:00Z</time>
      </trkpt>
      <trkpt lat="43.75819" lon="6.36669">
        <ele>1306.09</ele>
        <time>2013-10-02T09:51:11Z</time>
      </trkpt>
      <trkpt lat="43.75816" lon="6.36664">
        <ele>1306.57</ele>
        <time>2013-10-02T09:51:13Z</time>
      </trkpt>
      <trkpt lat="43.75808" lon="6.36647">
        <ele>1308.49</ele>
        <time>2013-10-02T09:51:20Z</time>
      </trkpt>
      <trkpt lat="43.75806" lon="6.36645">
        <ele>1308.97</ele>
        <time>2013-10-02T09:51:21Z</time>
      </trkpt>
      <trkpt lat="43.75804" lon="6.36643">
        <ele>1308.97</ele>
        <time>2013-10-02T09:51:22Z</time>
      </trkpt>
      <trkpt lat="43.75802" lon="6.36642">
        <ele>1309.45</ele>
        <time>2013-10-02T09:51:23Z</time>
      </trkpt>
      <trkpt lat="43.75799" lon="6.36641">
        <ele>1309.93</ele>
        <time>2013-10-02T09:51:24Z</time>
      </trkpt>
      <trkpt lat="43.75797" lon="6.36639">
        <ele>1309.93</ele>
        <time>2013-10-02T09:51:25Z</time>
      </trkpt>
      <trkpt lat="43.75772" lon="6.36633">
        <ele>1312.82</ele>
        <time>2013-10-02T09:51:36Z</time>
      </trkpt>
      <trkpt lat="43.75748" lon="6.36637">
        <ele>1314.26</ele>
        <time>2013-10-02T09:51:47Z</time>
      </trkpt>
      <trkpt lat="43.75727" lon="6.36637">
        <ele>1316.66</ele>
        <time>2013-10-02T09:51:56Z</time>
      </trkpt>
      <trkpt lat="43.75703" lon="6.36621">
        <ele>1318.1</ele>
        <time>2013-10-02T09:52:07Z</time>
      </trkpt>
      <trkpt lat="43.75673" lon="6.36601">
        <ele>1319.07</ele>
        <time>2013-10-02T09:52:18Z</time>
      </trkpt>
      <trkpt lat="43.75651" lon="6.36593">
        <ele>1318.1</ele>
        <time>2013-10-02T09:52:24Z</time>
      </trkpt>
      <trkpt lat="43.75647" lon="6.36593">
        <ele>1317.62</ele>
        <time>2013-10-02T09:52:25Z</time>
      </trkpt>
      <trkpt lat="43.75643" lon="6.36595">
        <ele>1318.1</ele>
        <time>2013-10-02T09:52:26Z</time>
      </trkpt>
      <trkpt lat="43.75631" lon="6.36603">
        <ele>1318.1</ele>
        <time>2013-10-02T09:52:29Z</time>
      </trkpt>
      <trkpt lat="43.75628" lon="6.36606">
        <ele>1317.14</ele>
        <time>2013-10-02T09:52:30Z</time>
      </trkpt>
      <trkpt lat="43.75625" lon="6.36611">
        <ele>1318.1</ele>
        <time>2013-10-02T09:52:31Z</time>
      </trkpt>
      <trkpt lat="43.75622" lon="6.36615">
        <ele>1317.62</ele>
        <time>2013-10-02T09:52:32Z</time>
      </trkpt>
      <trkpt lat="43.7562" lon="6.3662">
        <ele>1317.14</ele>
        <time>2013-10-02T09:52:33Z</time>
      </trkpt>
      <trkpt lat="43.75618" lon="6.36625">
        <ele>1317.62</ele>
        <time>2013-10-02T09:52:34Z</time>
      </trkpt>
      <trkpt lat="43.75617" lon="6.3663">
        <ele>1317.62</ele>
        <time>2013-10-02T09:52:35Z</time>
      </trkpt>
      <trkpt lat="43.75616" lon="6.36674">
        <ele>1317.62</ele>
        <time>2013-10-02T09:52:43Z</time>
      </trkpt>
      <trkpt lat="43.75619" lon="6.36711">
        <ele>1316.18</ele>
        <time>2013-10-02T09:52:48Z</time>
      </trkpt>
      <trkpt lat="43.75618" lon="6.36753">
        <ele>1314.26</ele>
        <time>2013-10-02T09:52:53Z</time>
      </trkpt>
      <trkpt lat="43.75617" lon="6.36763">
        <ele>1312.82</ele>
        <time>2013-10-02T09:52:54Z</time>
      </trkpt>
      <trkpt lat="43.75614" lon="6.36773">
        <ele>1312.82</ele>
        <time>2013-10-02T09:52:55Z</time>
      </trkpt>
      <trkpt lat="43.75611" lon="6.36783">
        <ele>1312.34</ele>
        <time>2013-10-02T09:52:56Z</time>
      </trkpt>
      <trkpt lat="43.75607" lon="6.36792">
        <ele>1311.38</ele>
        <time>2013-10-02T09:52:57Z</time>
      </trkpt>
      <trkpt lat="43.75602" lon="6.36801">
        <ele>1310.41</ele>
        <time>2013-10-02T09:52:58Z</time>
      </trkpt>
      <trkpt lat="43.75595" lon="6.3681">
        <ele>1309.45</ele>
        <time>2013-10-02T09:52:59Z</time>
      </trkpt>
      <trkpt lat="43.75588" lon="6.36817">
        <ele>1308.97</ele>
        <time>2013-10-02T09:53:00Z</time>
      </trkpt>
      <trkpt lat="43.75581" lon="6.36823">
        <ele>1307.53</ele>
        <time>2013-10-02T09:53:01Z</time>
      </trkpt>
      <trkpt lat="43.75573" lon="6.36828">
        <ele>1306.57</ele>
        <time>2013-10-02T09:53:02Z</time>
      </trkpt>
      <trkpt lat="43.75567" lon="6.36831">
        <ele>1306.09</ele>
        <time>2013-10-02T09:53:03Z</time>
      </trkpt>
      <trkpt lat="43.75561" lon="6.36833">
        <ele>1304.65</ele>
        <time>2013-10-02T09:53:04Z</time>
      </trkpt>
      <trkpt lat="43.75555" lon="6.36834">
        <ele>1303.69</ele>
        <time>2013-10-02T09:53:05Z</time>
      </trkpt>
      <trkpt lat="43.75548" lon="6.36834">
        <ele>1302.72</ele>
        <time>2013-10-02T09:53:06Z</time>
      </trkpt>
      <trkpt lat="43.75543" lon="6.36835">
        <ele>1302.72</ele>
        <time>2013-10-02T09:53:07Z</time>
      </trkpt>
      <trkpt lat="43.7553" lon="6.36833">
        <ele>1299.84</ele>
        <time>2013-10-02T09:53:13Z</time>
      </trkpt>
      <trkpt lat="43.75529" lon="6.36833">
        <ele>1299.36</ele>
        <time>2013-10-02T09:53:33Z</time>
      </trkpt>
      <trkpt lat="43.7553" lon="6.36833">
        <ele>1299.84</ele>
        <time>2013-10-02T09:54:25Z</time>
      </trkpt>
      <trkpt lat="43.75529" lon="6.36832">
        <ele>1300.32</ele>
        <time>2013-10-02T09:54:26Z</time>
      </trkpt>
      <trkpt lat="43.7551" lon="6.36808">
        <ele>1297.92</ele>
        <time>2013-10-02T09:54:32Z</time>
      </trkpt>
      <trkpt lat="43.75495" lon="6.36788">
        <ele>1296.48</ele>
        <time>2013-10-02T09:54:35Z</time>
      </trkpt>
      <trkpt lat="43.75475" lon="6.36764">
        <ele>1293.59</ele>
        <time>2013-10-02T09:54:38Z</time>
      </trkpt>
      <trkpt lat="43.75457" lon="6.36739">
        <ele>1290.23</ele>
        <time>2013-10-02T09:54:41Z</time>
      </trkpt>
      <trkpt lat="43.75451" lon="6.3673">
        <ele>1290.23</ele>
        <time>2013-10-02T09:54:42Z</time>
      </trkpt>
      <trkpt lat="43.75446" lon="6.36719">
        <ele>1289.75</ele>
        <time>2013-10-02T09:54:43Z</time>
      </trkpt>
      <trkpt lat="43.75441" lon="6.36709">
        <ele>1287.82</ele>
        <time>2013-10-02T09:54:44Z</time>
      </trkpt>
      <trkpt lat="43.75416" lon="6.3665">
        <ele>1284.46</ele>
        <time>2013-10-02T09:54:50Z</time>
      </trkpt>
      <trkpt lat="43.75402" lon="6.36629">
        <ele>1282.54</ele>
        <time>2013-10-02T09:54:53Z</time>
      </trkpt>
      <trkpt lat="43.75397" lon="6.36626">
        <ele>1281.57</ele>
        <time>2013-10-02T09:54:54Z</time>
      </trkpt>
      <trkpt lat="43.75392" lon="6.36628">
        <ele>1280.61</ele>
        <time>2013-10-02T09:54:55Z</time>
      </trkpt>
      <trkpt lat="43.75388" lon="6.36633">
        <ele>1280.61</ele>
        <time>2013-10-02T09:54:56Z</time>
      </trkpt>
      <trkpt lat="43.75387" lon="6.36639">
        <ele>1280.13</ele>
        <time>2013-10-02T09:54:57Z</time>
      </trkpt>
      <trkpt lat="43.75388" lon="6.36647">
        <ele>1280.13</ele>
        <time>2013-10-02T09:54:58Z</time>
      </trkpt>
      <trkpt lat="43.75392" lon="6.36655">
        <ele>1278.69</ele>
        <time>2013-10-02T09:54:59Z</time>
      </trkpt>
      <trkpt lat="43.75396" lon="6.36664">
        <ele>1278.69</ele>
        <time>2013-10-02T09:55:00Z</time>
      </trkpt>
      <trkpt lat="43.75409" lon="6.36692">
        <ele>1276.77</ele>
        <time>2013-10-02T09:55:03Z</time>
      </trkpt>
      <trkpt lat="43.75412" lon="6.36702">
        <ele>1276.29</ele>
        <time>2013-10-02T09:55:04Z</time>
      </trkpt>
      <trkpt lat="43.75414" lon="6.36713">
        <ele>1275.81</ele>
        <time>2013-10-02T09:55:05Z</time>
      </trkpt>
      <trkpt lat="43.7542" lon="6.36744">
        <ele>1272.92</ele>
        <time>2013-10-02T09:55:08Z</time>
      </trkpt>
      <trkpt lat="43.75428" lon="6.36786">
        <ele>1270.04</ele>
        <time>2013-10-02T09:55:13Z</time>
      </trkpt>
      <trkpt lat="43.75435" lon="6.36816">
        <ele>1267.64</ele>
        <time>2013-10-02T09:55:17Z</time>
      </trkpt>
      <trkpt lat="43.75461" lon="6.36888">
        <ele>1265.71</ele>
        <time>2013-10-02T09:55:25Z</time>
      </trkpt>
      <trkpt lat="43.75497" lon="6.36948">
        <ele>1262.35</ele>
        <time>2013-10-02T09:55:32Z</time>
      </trkpt>
      <trkpt lat="43.75504" lon="6.36955">
        <ele>1261.39</ele>
        <time>2013-10-02T09:55:33Z</time>
      </trkpt>
      <trkpt lat="43.75511" lon="6.36962">
        <ele>1261.39</ele>
        <time>2013-10-02T09:55:34Z</time>
      </trkpt>
      <trkpt lat="43.75534" lon="6.36978">
        <ele>1260.43</ele>
        <time>2013-10-02T09:55:37Z</time>
      </trkpt>
      <trkpt lat="43.75563" lon="6.36989">
        <ele>1258.02</ele>
        <time>2013-10-02T09:55:41Z</time>
      </trkpt>
      <trkpt lat="43.75567" lon="6.36992">
        <ele>1257.54</ele>
        <time>2013-10-02T09:55:42Z</time>
      </trkpt>
      <trkpt lat="43.75565" lon="6.36999">
        <ele>1256.58</ele>
        <time>2013-10-02T09:55:43Z</time>
      </trkpt>
      <trkpt lat="43.75562" lon="6.37003">
        <ele>1256.58</ele>
        <time>2013-10-02T09:55:44Z</time>
      </trkpt>
      <trkpt lat="43.75557" lon="6.37004">
        <ele>1256.58</ele>
        <time>2013-10-02T09:55:45Z</time>
      </trkpt>
      <trkpt lat="43.75554" lon="6.37004">
        <ele>1256.58</ele>
        <time>2013-10-02T09:55:46Z</time>
      </trkpt>
      <trkpt lat="43.75551" lon="6.37004">
        <ele>1256.1</ele>
        <time>2013-10-02T09:55:47Z</time>
      </trkpt>
      <trkpt lat="43.75549" lon="6.37004">
        <ele>1256.1</ele>
        <time>2013-10-02T09:55:48Z</time>
      </trkpt>
      <trkpt lat="43.75525" lon="6.36995">
        <ele>1254.66</ele>
        <time>2013-10-02T09:55:58Z</time>
      </trkpt>
      <trkpt lat="43.75485" lon="6.36972">
        <ele>1252.74</ele>
        <time>2013-10-02T09:56:06Z</time>
      </trkpt>
      <trkpt lat="43.75479" lon="6.36967">
        <ele>1252.25</ele>
        <time>2013-10-02T09:56:07Z</time>
      </trkpt>
      <trkpt lat="43.75474" lon="6.36961">
        <ele>1251.77</ele>
        <time>2013-10-02T09:56:08Z</time>
      </trkpt>
      <trkpt lat="43.75462" lon="6.36947">
        <ele>1251.29</ele>
        <time>2013-10-02T09:56:10Z</time>
      </trkpt>
      <trkpt lat="43.75419" lon="6.36889">
        <ele>1247.45</ele>
        <time>2013-10-02T09:56:17Z</time>
      </trkpt>
      <trkpt lat="43.75402" lon="6.3686">
        <ele>1245.53</ele>
        <time>2013-10-02T09:56:20Z</time>
      </trkpt>
      <trkpt lat="43.75397" lon="6.36849">
        <ele>1245.04</ele>
        <time>2013-10-02T09:56:21Z</time>
      </trkpt>
      <trkpt lat="43.75392" lon="6.36838">
        <ele>1245.04</ele>
        <time>2013-10-02T09:56:22Z</time>
      </trkpt>
      <trkpt lat="43.75376" lon="6.36787">
        <ele>1240.24</ele>
        <time>2013-10-02T09:56:26Z</time>
      </trkpt>
      <trkpt lat="43.75366" lon="6.36759">
        <ele>1237.35</ele>
        <time>2013-10-02T09:56:29Z</time>
      </trkpt>
      <trkpt lat="43.75362" lon="6.36753">
        <ele>1236.87</ele>
        <time>2013-10-02T09:56:30Z</time>
      </trkpt>
      <trkpt lat="43.75355" lon="6.36748">
        <ele>1236.39</ele>
        <time>2013-10-02T09:56:31Z</time>
      </trkpt>
      <trkpt lat="43.75347" lon="6.36746">
        <ele>1235.43</ele>
        <time>2013-10-02T09:56:32Z</time>
      </trkpt>
      <trkpt lat="43.75339" lon="6.36743">
        <ele>1235.43</ele>
        <time>2013-10-02T09:56:33Z</time>
      </trkpt>
      <trkpt lat="43.75322" lon="6.36737">
        <ele>1233.51</ele>
        <time>2013-10-02T09:56:35Z</time>
      </trkpt>
      <trkpt lat="43.75316" lon="6.36732">
        <ele>1232.55</ele>
        <time>2013-10-02T09:56:36Z</time>
      </trkpt>
      <trkpt lat="43.7531" lon="6.36724">
        <ele>1231.59</ele>
        <time>2013-10-02T09:56:37Z</time>
      </trkpt>
      <trkpt lat="43.75306" lon="6.36714">
        <ele>1231.11</ele>
        <time>2013-10-02T09:56:38Z</time>
      </trkpt>
      <trkpt lat="43.75302" lon="6.36704">
        <ele>1230.14</ele>
        <time>2013-10-02T09:56:39Z</time>
      </trkpt>
      <trkpt lat="43.75298" lon="6.36694">
        <ele>1229.18</ele>
        <time>2013-10-02T09:56:40Z</time>
      </trkpt>
      <trkpt lat="43.75283" lon="6.3665">
        <ele>1226.3</ele>
        <time>2013-10-02T09:56:44Z</time>
      </trkpt>
      <trkpt lat="43.75278" lon="6.3664">
        <ele>1225.82</ele>
        <time>2013-10-02T09:56:45Z</time>
      </trkpt>
      <trkpt lat="43.75264" lon="6.36609">
        <ele>1223.9</ele>
        <time>2013-10-02T09:56:48Z</time>
      </trkpt>
      <trkpt lat="43.75254" lon="6.36591">
        <ele>1221.49</ele>
        <time>2013-10-02T09:56:50Z</time>
      </trkpt>
      <trkpt lat="43.75227" lon="6.36557">
        <ele>1217.65</ele>
        <time>2013-10-02T09:56:54Z</time>
      </trkpt>
      <trkpt lat="43.75192" lon="6.36518">
        <ele>1214.28</ele>
        <time>2013-10-02T09:56:59Z</time>
      </trkpt>
      <trkpt lat="43.75173" lon="6.36489">
        <ele>1210.92</ele>
        <time>2013-10-02T09:57:03Z</time>
      </trkpt>
      <trkpt lat="43.75162" lon="6.36464">
        <ele>1208.51</ele>
        <time>2013-10-02T09:57:07Z</time>
      </trkpt>
      <trkpt lat="43.75133" lon="6.364">
        <ele>1205.63</ele>
        <time>2013-10-02T09:57:18Z</time>
      </trkpt>
      <trkpt lat="43.75083" lon="6.36369">
        <ele>1205.15</ele>
        <time>2013-10-02T09:57:24Z</time>
      </trkpt>
      <trkpt lat="43.75064" lon="6.36367">
        <ele>1204.19</ele>
        <time>2013-10-02T09:57:26Z</time>
      </trkpt>
      <trkpt lat="43.75049" lon="6.36365">
        <ele>1202.75</ele>
        <time>2013-10-02T09:57:28Z</time>
      </trkpt>
      <trkpt lat="43.75043" lon="6.3636">
        <ele>1202.27</ele>
        <time>2013-10-02T09:57:29Z</time>
      </trkpt>
      <trkpt lat="43.75038" lon="6.36354">
        <ele>1201.3</ele>
        <time>2013-10-02T09:57:30Z</time>
      </trkpt>
      <trkpt lat="43.75033" lon="6.36346">
        <ele>1202.27</ele>
        <time>2013-10-02T09:57:31Z</time>
      </trkpt>
      <trkpt lat="43.75028" lon="6.36338">
        <ele>1200.82</ele>
        <time>2013-10-02T09:57:32Z</time>
      </trkpt>
      <trkpt lat="43.75011" lon="6.36305">
        <ele>1199.38</ele>
        <time>2013-10-02T09:57:36Z</time>
      </trkpt>
      <trkpt lat="43.75008" lon="6.36295">
        <ele>1198.42</ele>
        <time>2013-10-02T09:57:37Z</time>
      </trkpt>
      <trkpt lat="43.75006" lon="6.36285">
        <ele>1197.94</ele>
        <time>2013-10-02T09:57:38Z</time>
      </trkpt>
      <trkpt lat="43.75001" lon="6.36251">
        <ele>1197.94</ele>
        <time>2013-10-02T09:57:41Z</time>
      </trkpt>
      <trkpt lat="43.75001" lon="6.3624">
        <ele>1197.46</ele>
        <time>2013-10-02T09:57:42Z</time>
      </trkpt>
      <trkpt lat="43.74997" lon="6.36212">
        <ele>1195.06</ele>
        <time>2013-10-02T09:57:45Z</time>
      </trkpt>
      <trkpt lat="43.74995" lon="6.36206">
        <ele>1194.58</ele>
        <time>2013-10-02T09:57:46Z</time>
      </trkpt>
      <trkpt lat="43.74988" lon="6.36181">
        <ele>1192.17</ele>
        <time>2013-10-02T09:57:51Z</time>
      </trkpt>
      <trkpt lat="43.74978" lon="6.36119">
        <ele>1188.81</ele>
        <time>2013-10-02T09:58:03Z</time>
      </trkpt>
      <trkpt lat="43.74957" lon="6.36081">
        <ele>1187.85</ele>
        <time>2013-10-02T09:58:05Z</time>
      </trkpt>
      <trkpt lat="43.74951" lon="6.36074">
        <ele>1186.88</ele>
        <time>2013-10-02T09:58:06Z</time>
      </trkpt>
      <trkpt lat="43.74948" lon="6.36065">
        <ele>1186.4</ele>
        <time>2013-10-02T09:58:07Z</time>
      </trkpt>
      <trkpt lat="43.74945" lon="6.36055">
        <ele>1185.92</ele>
        <time>2013-10-02T09:58:08Z</time>
      </trkpt>
      <trkpt lat="43.74944" lon="6.36046">
        <ele>1185.44</ele>
        <time>2013-10-02T09:58:09Z</time>
      </trkpt>
      <trkpt lat="43.74943" lon="6.36036">
        <ele>1184.96</ele>
        <time>2013-10-02T09:58:10Z</time>
      </trkpt>
      <trkpt lat="43.74942" lon="6.35997">
        <ele>1182.56</ele>
        <time>2013-10-02T09:58:14Z</time>
      </trkpt>
      <trkpt lat="43.74942" lon="6.35987">
        <ele>1180.64</ele>
        <time>2013-10-02T09:58:15Z</time>
      </trkpt>
      <trkpt lat="43.74941" lon="6.35977">
        <ele>1179.67</ele>
        <time>2013-10-02T09:58:16Z</time>
      </trkpt>
      <trkpt lat="43.74938" lon="6.35967">
        <ele>1179.19</ele>
        <time>2013-10-02T09:58:17Z</time>
      </trkpt>
      <trkpt lat="43.74935" lon="6.35957">
        <ele>1178.23</ele>
        <time>2013-10-02T09:58:18Z</time>
      </trkpt>
      <trkpt lat="43.74932" lon="6.35949">
        <ele>1177.27</ele>
        <time>2013-10-02T09:58:19Z</time>
      </trkpt>
      <trkpt lat="43.74926" lon="6.35941">
        <ele>1176.31</ele>
        <time>2013-10-02T09:58:20Z</time>
      </trkpt>
      <trkpt lat="43.74919" lon="6.35936">
        <ele>1175.83</ele>
        <time>2013-10-02T09:58:21Z</time>
      </trkpt>
      <trkpt lat="43.74911" lon="6.35933">
        <ele>1174.87</ele>
        <time>2013-10-02T09:58:22Z</time>
      </trkpt>
      <trkpt lat="43.74905" lon="6.35931">
        <ele>1174.39</ele>
        <time>2013-10-02T09:58:23Z</time>
      </trkpt>
      <trkpt lat="43.74896" lon="6.35929">
        <ele>1173.43</ele>
        <time>2013-10-02T09:58:25Z</time>
      </trkpt>
      <trkpt lat="43.74892" lon="6.35928">
        <ele>1172.47</ele>
        <time>2013-10-02T09:58:26Z</time>
      </trkpt>
      <trkpt lat="43.74888" lon="6.35927">
        <ele>1171.98</ele>
        <time>2013-10-02T09:58:27Z</time>
      </trkpt>
      <trkpt lat="43.74868" lon="6.35914">
        <ele>1170.06</ele>
        <time>2013-10-02T09:58:34Z</time>
      </trkpt>
      <trkpt lat="43.74864" lon="6.3591">
        <ele>1169.58</ele>
        <time>2013-10-02T09:58:35Z</time>
      </trkpt>
      <trkpt lat="43.74861" lon="6.35906">
        <ele>1169.1</ele>
        <time>2013-10-02T09:58:36Z</time>
      </trkpt>
      <trkpt lat="43.74857" lon="6.359">
        <ele>1169.1</ele>
        <time>2013-10-02T09:58:37Z</time>
      </trkpt>
      <trkpt lat="43.74854" lon="6.35894">
        <ele>1169.1</ele>
        <time>2013-10-02T09:58:38Z</time>
      </trkpt>
      <trkpt lat="43.74841" lon="6.35874">
        <ele>1166.22</ele>
        <time>2013-10-02T09:58:41Z</time>
      </trkpt>
      <trkpt lat="43.74836" lon="6.35869">
        <ele>1165.74</ele>
        <time>2013-10-02T09:58:42Z</time>
      </trkpt>
      <trkpt lat="43.74812" lon="6.35843">
        <ele>1162.85</ele>
        <time>2013-10-02T09:58:47Z</time>
      </trkpt>
      <trkpt lat="43.74798" lon="6.35829">
        <ele>1160.93</ele>
        <time>2013-10-02T09:58:53Z</time>
      </trkpt>
      <trkpt lat="43.74798" lon="6.35828">
        <ele>1161.41</ele>
        <time>2013-10-02T09:59:07Z</time>
      </trkpt>
      <trkpt lat="43.74797" lon="6.35826">
        <ele>1161.41</ele>
        <time>2013-10-02T09:59:08Z</time>
      </trkpt>
      <trkpt lat="43.74796" lon="6.35824">
        <ele>1160.93</ele>
        <time>2013-10-02T09:59:09Z</time>
      </trkpt>
      <trkpt lat="43.74795" lon="6.35822">
        <ele>1160.93</ele>
        <time>2013-10-02T09:59:10Z</time>
      </trkpt>
      <trkpt lat="43.74794" lon="6.3582">
        <ele>1160.93</ele>
        <time>2013-10-02T09:59:11Z</time>
      </trkpt>
      <trkpt lat="43.74793" lon="6.35818">
        <ele>1160.93</ele>
        <time>2013-10-02T09:59:12Z</time>
      </trkpt>
      <trkpt lat="43.74792" lon="6.35817">
        <ele>1160.45</ele>
        <time>2013-10-02T09:59:18Z</time>
      </trkpt>
      <trkpt lat="43.74792" lon="6.35817">
        <ele>1161.41</ele>
        <time>2013-10-02T10:00:30Z</time>
      </trkpt>
      <trkpt lat="43.74791" lon="6.35815">
        <ele>1160.93</ele>
        <time>2013-10-02T10:00:40Z</time>
      </trkpt>
      <trkpt lat="43.74791" lon="6.35813">
        <ele>1161.41</ele>
        <time>2013-10-02T10:00:41Z</time>
      </trkpt>
      <trkpt lat="43.74791" lon="6.35812">
        <ele>1161.41</ele>
        <time>2013-10-02T10:00:42Z</time>
      </trkpt>
      <trkpt lat="43.7479" lon="6.35809">
        <ele>1160.93</ele>
        <time>2013-10-02T10:00:43Z</time>
      </trkpt>
      <trkpt lat="43.74789" lon="6.35807">
        <ele>1161.41</ele>
        <time>2013-10-02T10:00:44Z</time>
      </trkpt>
      <trkpt lat="43.74788" lon="6.35804">
        <ele>1160.45</ele>
        <time>2013-10-02T10:00:45Z</time>
      </trkpt>
      <trkpt lat="43.74788" lon="6.35801">
        <ele>1160.45</ele>
        <time>2013-10-02T10:00:46Z</time>
      </trkpt>
      <trkpt lat="43.74787" lon="6.35796">
        <ele>1159.49</ele>
        <time>2013-10-02T10:00:47Z</time>
      </trkpt>
      <trkpt lat="43.74781" lon="6.35752">
        <ele>1159.01</ele>
        <time>2013-10-02T10:00:54Z</time>
      </trkpt>
      <trkpt lat="43.7477" lon="6.35707">
        <ele>1155.64</ele>
        <time>2013-10-02T10:00:59Z</time>
      </trkpt>
      <trkpt lat="43.74756" lon="6.35657">
        <ele>1152.28</ele>
        <time>2013-10-02T10:01:04Z</time>
      </trkpt>
      <trkpt lat="43.74755" lon="6.35646">
        <ele>1151.32</ele>
        <time>2013-10-02T10:01:05Z</time>
      </trkpt>
      <trkpt lat="43.74755" lon="6.35636">
        <ele>1149.87</ele>
        <time>2013-10-02T10:01:06Z</time>
      </trkpt>
      <trkpt lat="43.74755" lon="6.35625">
        <ele>1148.91</ele>
        <time>2013-10-02T10:01:07Z</time>
      </trkpt>
      <trkpt lat="43.74756" lon="6.35614">
        <ele>1148.43</ele>
        <time>2013-10-02T10:01:08Z</time>
      </trkpt>
      <trkpt lat="43.74758" lon="6.35603">
        <ele>1147.47</ele>
        <time>2013-10-02T10:01:09Z</time>
      </trkpt>
      <trkpt lat="43.7476" lon="6.35592">
        <ele>1146.03</ele>
        <time>2013-10-02T10:01:10Z</time>
      </trkpt>
      <trkpt lat="43.74767" lon="6.35562">
        <ele>1143.14</ele>
        <time>2013-10-02T10:01:13Z</time>
      </trkpt>
      <trkpt lat="43.74771" lon="6.35552">
        <ele>1141.7</ele>
        <time>2013-10-02T10:01:14Z</time>
      </trkpt>
      <trkpt lat="43.74776" lon="6.35543">
        <ele>1141.22</ele>
        <time>2013-10-02T10:01:15Z</time>
      </trkpt>
      <trkpt lat="43.74783" lon="6.35534">
        <ele>1139.78</ele>
        <time>2013-10-02T10:01:16Z</time>
      </trkpt>
      <trkpt lat="43.74789" lon="6.35524">
        <ele>1139.3</ele>
        <time>2013-10-02T10:01:17Z</time>
      </trkpt>
      <trkpt lat="43.74801" lon="6.35509">
        <ele>1135.94</ele>
        <time>2013-10-02T10:01:19Z</time>
      </trkpt>
      <trkpt lat="43.74812" lon="6.35496">
        <ele>1134.49</ele>
        <time>2013-10-02T10:01:21Z</time>
      </trkpt>
      <trkpt lat="43.74826" lon="6.35488">
        <ele>1132.09</ele>
        <time>2013-10-02T10:01:23Z</time>
      </trkpt>
      <trkpt lat="43.74841" lon="6.35484">
        <ele>1131.13</ele>
        <time>2013-10-02T10:01:25Z</time>
      </trkpt>
      <trkpt lat="43.74865" lon="6.35476">
        <ele>1127.28</ele>
        <time>2013-10-02T10:01:28Z</time>
      </trkpt>
      <trkpt lat="43.74887" lon="6.35472">
        <ele>1123.44</ele>
        <time>2013-10-02T10:01:31Z</time>
      </trkpt>
      <trkpt lat="43.74892" lon="6.35468">
        <ele>1123.44</ele>
        <time>2013-10-02T10:01:32Z</time>
      </trkpt>
      <trkpt lat="43.74897" lon="6.35462">
        <ele>1122.48</ele>
        <time>2013-10-02T10:01:33Z</time>
      </trkpt>
      <trkpt lat="43.749" lon="6.35456">
        <ele>1122.48</ele>
        <time>2013-10-02T10:01:34Z</time>
      </trkpt>
      <trkpt lat="43.74901" lon="6.35449">
        <ele>1122</ele>
        <time>2013-10-02T10:01:35Z</time>
      </trkpt>
      <trkpt lat="43.74902" lon="6.35443">
        <ele>1121.03</ele>
        <time>2013-10-02T10:01:36Z</time>
      </trkpt>
      <trkpt lat="43.74901" lon="6.35438">
        <ele>1120.07</ele>
        <time>2013-10-02T10:01:37Z</time>
      </trkpt>
      <trkpt lat="43.74897" lon="6.35435">
        <ele>1119.59</ele>
        <time>2013-10-02T10:01:38Z</time>
      </trkpt>
      <trkpt lat="43.74892" lon="6.35436">
        <ele>1119.11</ele>
        <time>2013-10-02T10:01:39Z</time>
      </trkpt>
      <trkpt lat="43.74887" lon="6.35439">
        <ele>1119.11</ele>
        <time>2013-10-02T10:01:40Z</time>
      </trkpt>
      <trkpt lat="43.74882" lon="6.35444">
        <ele>1118.63</ele>
        <time>2013-10-02T10:01:41Z</time>
      </trkpt>
      <trkpt lat="43.74876" lon="6.35448">
        <ele>1118.63</ele>
        <time>2013-10-02T10:01:42Z</time>
      </trkpt>
      <trkpt lat="43.7487" lon="6.35452">
        <ele>1117.67</ele>
        <time>2013-10-02T10:01:43Z</time>
      </trkpt>
      <trkpt lat="43.74862" lon="6.35454">
        <ele>1117.67</ele>
        <time>2013-10-02T10:01:44Z</time>
      </trkpt>
      <trkpt lat="43.74854" lon="6.35455">
        <ele>1116.71</ele>
        <time>2013-10-02T10:01:45Z</time>
      </trkpt>
      <trkpt lat="43.74846" lon="6.35455">
        <ele>1116.71</ele>
        <time>2013-10-02T10:01:46Z</time>
      </trkpt>
      <trkpt lat="43.74829" lon="6.35455">
        <ele>1115.27</ele>
        <time>2013-10-02T10:01:48Z</time>
      </trkpt>
      <trkpt lat="43.74809" lon="6.35456">
        <ele>1113.82</ele>
        <time>2013-10-02T10:01:50Z</time>
      </trkpt>
      <trkpt lat="43.74799" lon="6.35459">
        <ele>1113.34</ele>
        <time>2013-10-02T10:01:51Z</time>
      </trkpt>
      <trkpt lat="43.74789" lon="6.35464">
        <ele>1112.38</ele>
        <time>2013-10-02T10:01:52Z</time>
      </trkpt>
      <trkpt lat="43.74779" lon="6.35471">
        <ele>1111.42</ele>
        <time>2013-10-02T10:01:53Z</time>
      </trkpt>
      <trkpt lat="43.74769" lon="6.35479">
        <ele>1110.94</ele>
        <time>2013-10-02T10:01:54Z</time>
      </trkpt>
      <trkpt lat="43.7476" lon="6.35487">
        <ele>1110.46</ele>
        <time>2013-10-02T10:01:55Z</time>
      </trkpt>
      <trkpt lat="43.74734" lon="6.35515">
        <ele>1106.61</ele>
        <time>2013-10-02T10:01:58Z</time>
      </trkpt>
      <trkpt lat="43.74713" lon="6.35543">
        <ele>1103.73</ele>
        <time>2013-10-02T10:02:01Z</time>
      </trkpt>
      <trkpt lat="43.74709" lon="6.35554">
        <ele>1103.73</ele>
        <time>2013-10-02T10:02:02Z</time>
      </trkpt>
      <trkpt lat="43.74706" lon="6.35566">
        <ele>1102.77</ele>
        <time>2013-10-02T10:02:03Z</time>
      </trkpt>
      <trkpt lat="43.74705" lon="6.35579">
        <ele>1102.29</ele>
        <time>2013-10-02T10:02:04Z</time>
      </trkpt>
      <trkpt lat="43.74705" lon="6.3559">
        <ele>1101.81</ele>
        <time>2013-10-02T10:02:05Z</time>
      </trkpt>
      <trkpt lat="43.74706" lon="6.35601">
        <ele>1100.37</ele>
        <time>2013-10-02T10:02:06Z</time>
      </trkpt>
      <trkpt lat="43.74707" lon="6.3561">
        <ele>1100.37</ele>
        <time>2013-10-02T10:02:07Z</time>
      </trkpt>
      <trkpt lat="43.74707" lon="6.35627">
        <ele>1098.44</ele>
        <time>2013-10-02T10:02:09Z</time>
      </trkpt>
      <trkpt lat="43.74702" lon="6.3563">
        <ele>1098.44</ele>
        <time>2013-10-02T10:02:10Z</time>
      </trkpt>
      <trkpt lat="43.74697" lon="6.35627">
        <ele>1097.96</ele>
        <time>2013-10-02T10:02:11Z</time>
      </trkpt>
      <trkpt lat="43.74693" lon="6.3562">
        <ele>1097.48</ele>
        <time>2013-10-02T10:02:12Z</time>
      </trkpt>
      <trkpt lat="43.74691" lon="6.3561">
        <ele>1096.52</ele>
        <time>2013-10-02T10:02:13Z</time>
      </trkpt>
      <trkpt lat="43.74692" lon="6.35599">
        <ele>1096.04</ele>
        <time>2013-10-02T10:02:14Z</time>
      </trkpt>
      <trkpt lat="43.74692" lon="6.35588">
        <ele>1096.04</ele>
        <time>2013-10-02T10:02:15Z</time>
      </trkpt>
      <trkpt lat="43.74691" lon="6.35576">
        <ele>1094.6</ele>
        <time>2013-10-02T10:02:16Z</time>
      </trkpt>
      <trkpt lat="43.7469" lon="6.35564">
        <ele>1093.64</ele>
        <time>2013-10-02T10:02:17Z</time>
      </trkpt>
      <trkpt lat="43.74688" lon="6.35551">
        <ele>1092.68</ele>
        <time>2013-10-02T10:02:18Z</time>
      </trkpt>
      <trkpt lat="43.74685" lon="6.35538">
        <ele>1092.68</ele>
        <time>2013-10-02T10:02:19Z</time>
      </trkpt>
      <trkpt lat="43.7468" lon="6.35527">
        <ele>1091.71</ele>
        <time>2013-10-02T10:02:20Z</time>
      </trkpt>
      <trkpt lat="43.74676" lon="6.35515">
        <ele>1090.27</ele>
        <time>2013-10-02T10:02:21Z</time>
      </trkpt>
      <trkpt lat="43.7467" lon="6.35503">
        <ele>1089.31</ele>
        <time>2013-10-02T10:02:22Z</time>
      </trkpt>
      <trkpt lat="43.74662" lon="6.35491">
        <ele>1087.87</ele>
        <time>2013-10-02T10:02:23Z</time>
      </trkpt>
      <trkpt lat="43.74653" lon="6.35479">
        <ele>1087.39</ele>
        <time>2013-10-02T10:02:24Z</time>
      </trkpt>
      <trkpt lat="43.74644" lon="6.35468">
        <ele>1085.95</ele>
        <time>2013-10-02T10:02:25Z</time>
      </trkpt>
      <trkpt lat="43.74635" lon="6.35459">
        <ele>1084.5</ele>
        <time>2013-10-02T10:02:26Z</time>
      </trkpt>
      <trkpt lat="43.74627" lon="6.35452">
        <ele>1084.02</ele>
        <time>2013-10-02T10:02:27Z</time>
      </trkpt>
      <trkpt lat="43.74618" lon="6.35447">
        <ele>1083.54</ele>
        <time>2013-10-02T10:02:28Z</time>
      </trkpt>
      <trkpt lat="43.74609" lon="6.35443">
        <ele>1083.06</ele>
        <time>2013-10-02T10:02:29Z</time>
      </trkpt>
      <trkpt lat="43.74599" lon="6.35442">
        <ele>1082.1</ele>
        <time>2013-10-02T10:02:30Z</time>
      </trkpt>
      <trkpt lat="43.7459" lon="6.35444">
        <ele>1081.14</ele>
        <time>2013-10-02T10:02:31Z</time>
      </trkpt>
      <trkpt lat="43.7458" lon="6.35447">
        <ele>1080.66</ele>
        <time>2013-10-02T10:02:32Z</time>
      </trkpt>
      <trkpt lat="43.7457" lon="6.35452">
        <ele>1080.18</ele>
        <time>2013-10-02T10:02:33Z</time>
      </trkpt>
      <trkpt lat="43.74561" lon="6.35458">
        <ele>1078.74</ele>
        <time>2013-10-02T10:02:34Z</time>
      </trkpt>
      <trkpt lat="43.74554" lon="6.35465">
        <ele>1077.78</ele>
        <time>2013-10-02T10:02:35Z</time>
      </trkpt>
      <trkpt lat="43.74546" lon="6.35473">
        <ele>1076.81</ele>
        <time>2013-10-02T10:02:36Z</time>
      </trkpt>
      <trkpt lat="43.74522" lon="6.355">
        <ele>1073.45</ele>
        <time>2013-10-02T10:02:39Z</time>
      </trkpt>
      <trkpt lat="43.74506" lon="6.35519">
        <ele>1072.01</ele>
        <time>2013-10-02T10:02:41Z</time>
      </trkpt>
      <trkpt lat="43.74491" lon="6.35538">
        <ele>1068.64</ele>
        <time>2013-10-02T10:02:43Z</time>
      </trkpt>
      <trkpt lat="43.74471" lon="6.35565">
        <ele>1065.28</ele>
        <time>2013-10-02T10:02:46Z</time>
      </trkpt>
      <trkpt lat="43.74445" lon="6.35612">
        <ele>1061.91</ele>
        <time>2013-10-02T10:02:50Z</time>
      </trkpt>
      <trkpt lat="43.74427" lon="6.35651">
        <ele>1058.07</ele>
        <time>2013-10-02T10:02:53Z</time>
      </trkpt>
      <trkpt lat="43.74412" lon="6.35691">
        <ele>1053.74</ele>
        <time>2013-10-02T10:02:56Z</time>
      </trkpt>
      <trkpt lat="43.744" lon="6.35725">
        <ele>1049.9</ele>
        <time>2013-10-02T10:02:59Z</time>
      </trkpt>
      <trkpt lat="43.74397" lon="6.35737">
        <ele>1049.42</ele>
        <time>2013-10-02T10:03:00Z</time>
      </trkpt>
      <trkpt lat="43.74396" lon="6.35748">
        <ele>1047.49</ele>
        <time>2013-10-02T10:03:01Z</time>
      </trkpt>
      <trkpt lat="43.74395" lon="6.35758">
        <ele>1047.01</ele>
        <time>2013-10-02T10:03:02Z</time>
      </trkpt>
      <trkpt lat="43.74395" lon="6.35765">
        <ele>1046.05</ele>
        <time>2013-10-02T10:03:03Z</time>
      </trkpt>
      <trkpt lat="43.74393" lon="6.35772">
        <ele>1045.57</ele>
        <time>2013-10-02T10:03:04Z</time>
      </trkpt>
      <trkpt lat="43.74389" lon="6.35776">
        <ele>1045.09</ele>
        <time>2013-10-02T10:03:05Z</time>
      </trkpt>
      <trkpt lat="43.74384" lon="6.35776">
        <ele>1044.61</ele>
        <time>2013-10-02T10:03:06Z</time>
      </trkpt>
      <trkpt lat="43.74379" lon="6.35772">
        <ele>1044.13</ele>
        <time>2013-10-02T10:03:07Z</time>
      </trkpt>
      <trkpt lat="43.74376" lon="6.35763">
        <ele>1043.17</ele>
        <time>2013-10-02T10:03:08Z</time>
      </trkpt>
      <trkpt lat="43.74375" lon="6.35754">
        <ele>1043.17</ele>
        <time>2013-10-02T10:03:09Z</time>
      </trkpt>
      <trkpt lat="43.74377" lon="6.35746">
        <ele>1043.17</ele>
        <time>2013-10-02T10:03:10Z</time>
      </trkpt>
      <trkpt lat="43.74379" lon="6.35736">
        <ele>1042.69</ele>
        <time>2013-10-02T10:03:11Z</time>
      </trkpt>
      <trkpt lat="43.74381" lon="6.35726">
        <ele>1042.21</ele>
        <time>2013-10-02T10:03:12Z</time>
      </trkpt>
      <trkpt lat="43.74382" lon="6.35715">
        <ele>1041.73</ele>
        <time>2013-10-02T10:03:13Z</time>
      </trkpt>
      <trkpt lat="43.74384" lon="6.35664">
        <ele>1037.88</ele>
        <time>2013-10-02T10:03:17Z</time>
      </trkpt>
      <trkpt lat="43.74386" lon="6.35622">
        <ele>1034.52</ele>
        <time>2013-10-02T10:03:20Z</time>
      </trkpt>
      <trkpt lat="43.74392" lon="6.35572">
        <ele>1030.19</ele>
        <time>2013-10-02T10:03:24Z</time>
      </trkpt>
      <trkpt lat="43.74394" lon="6.3556">
        <ele>1030.19</ele>
        <time>2013-10-02T10:03:25Z</time>
      </trkpt>
      <trkpt lat="43.74403" lon="6.35528">
        <ele>1026.83</ele>
        <time>2013-10-02T10:03:28Z</time>
      </trkpt>
      <trkpt lat="43.74413" lon="6.35494">
        <ele>1023.46</ele>
        <time>2013-10-02T10:03:31Z</time>
      </trkpt>
      <trkpt lat="43.74424" lon="6.35461">
        <ele>1019.62</ele>
        <time>2013-10-02T10:03:34Z</time>
      </trkpt>
      <trkpt lat="43.74429" lon="6.35452">
        <ele>1019.13</ele>
        <time>2013-10-02T10:03:35Z</time>
      </trkpt>
      <trkpt lat="43.74435" lon="6.35444">
        <ele>1019.13</ele>
        <time>2013-10-02T10:03:36Z</time>
      </trkpt>
      <trkpt lat="43.7444" lon="6.35437">
        <ele>1018.17</ele>
        <time>2013-10-02T10:03:37Z</time>
      </trkpt>
      <trkpt lat="43.74445" lon="6.3543">
        <ele>1017.69</ele>
        <time>2013-10-02T10:03:38Z</time>
      </trkpt>
      <trkpt lat="43.74447" lon="6.35423">
        <ele>1017.69</ele>
        <time>2013-10-02T10:03:39Z</time>
      </trkpt>
      <trkpt lat="43.74447" lon="6.35417">
        <ele>1016.73</ele>
        <time>2013-10-02T10:03:40Z</time>
      </trkpt>
      <trkpt lat="43.74444" lon="6.35412">
        <ele>1016.73</ele>
        <time>2013-10-02T10:03:41Z</time>
      </trkpt>
      <trkpt lat="43.74441" lon="6.35409">
        <ele>1015.77</ele>
        <time>2013-10-02T10:03:42Z</time>
      </trkpt>
      <trkpt lat="43.74437" lon="6.35409">
        <ele>1015.29</ele>
        <time>2013-10-02T10:03:43Z</time>
      </trkpt>
      <trkpt lat="43.74434" lon="6.35411">
        <ele>1015.29</ele>
        <time>2013-10-02T10:03:44Z</time>
      </trkpt>
      <trkpt lat="43.74431" lon="6.35413">
        <ele>1015.29</ele>
        <time>2013-10-02T10:03:45Z</time>
      </trkpt>
      <trkpt lat="43.74429" lon="6.35417">
        <ele>1014.81</ele>
        <time>2013-10-02T10:03:46Z</time>
      </trkpt>
      <trkpt lat="43.74427" lon="6.3542">
        <ele>1014.81</ele>
        <time>2013-10-02T10:03:47Z</time>
      </trkpt>
      <trkpt lat="43.74426" lon="6.35425">
        <ele>1014.81</ele>
        <time>2013-10-02T10:03:48Z</time>
      </trkpt>
      <trkpt lat="43.74424" lon="6.35429">
        <ele>1014.33</ele>
        <time>2013-10-02T10:03:49Z</time>
      </trkpt>
      <trkpt lat="43.74422" lon="6.35434">
        <ele>1014.33</ele>
        <time>2013-10-02T10:03:50Z</time>
      </trkpt>
      <trkpt lat="43.7442" lon="6.35439">
        <ele>1013.37</ele>
        <time>2013-10-02T10:03:51Z</time>
      </trkpt>
      <trkpt lat="43.74388" lon="6.35493">
        <ele>1010</ele>
        <time>2013-10-02T10:03:59Z</time>
      </trkpt>
      <trkpt lat="43.74339" lon="6.35559">
        <ele>1006.64</ele>
        <time>2013-10-02T10:04:07Z</time>
      </trkpt>
      <trkpt lat="43.74326" lon="6.35578">
        <ele>1006.16</ele>
        <time>2013-10-02T10:04:09Z</time>
      </trkpt>
      <trkpt lat="43.74308" lon="6.35619">
        <ele>1002.31</ele>
        <time>2013-10-02T10:04:13Z</time>
      </trkpt>
      <trkpt lat="43.74303" lon="6.35633">
        <ele>1000.87</ele>
        <time>2013-10-02T10:04:15Z</time>
      </trkpt>
      <trkpt lat="43.74298" lon="6.35636">
        <ele>1000.39</ele>
        <time>2013-10-02T10:04:16Z</time>
      </trkpt>
      <trkpt lat="43.74293" lon="6.35635">
        <ele>999.43</ele>
        <time>2013-10-02T10:04:17Z</time>
      </trkpt>
      <trkpt lat="43.7429" lon="6.35628">
        <ele>998.95</ele>
        <time>2013-10-02T10:04:18Z</time>
      </trkpt>
      <trkpt lat="43.74289" lon="6.3562">
        <ele>998.95</ele>
        <time>2013-10-02T10:04:19Z</time>
      </trkpt>
      <trkpt lat="43.74292" lon="6.35612">
        <ele>997.99</ele>
        <time>2013-10-02T10:04:20Z</time>
      </trkpt>
      <trkpt lat="43.74297" lon="6.35605">
        <ele>997.51</ele>
        <time>2013-10-02T10:04:21Z</time>
      </trkpt>
      <trkpt lat="43.74309" lon="6.35582">
        <ele>996.54</ele>
        <time>2013-10-02T10:04:24Z</time>
      </trkpt>
      <trkpt lat="43.74313" lon="6.35572">
        <ele>996.06</ele>
        <time>2013-10-02T10:04:25Z</time>
      </trkpt>
      <trkpt lat="43.74327" lon="6.35527">
        <ele>994.14</ele>
        <time>2013-10-02T10:04:29Z</time>
      </trkpt>
      <trkpt lat="43.74343" lon="6.35471">
        <ele>990.3</ele>
        <time>2013-10-02T10:04:33Z</time>
      </trkpt>
      <trkpt lat="43.74358" lon="6.35423">
        <ele>986.93</ele>
        <time>2013-10-02T10:04:36Z</time>
      </trkpt>
      <trkpt lat="43.74373" lon="6.35377">
        <ele>982.6</ele>
        <time>2013-10-02T10:04:39Z</time>
      </trkpt>
      <trkpt lat="43.74387" lon="6.3533">
        <ele>979.24</ele>
        <time>2013-10-02T10:04:42Z</time>
      </trkpt>
      <trkpt lat="43.74398" lon="6.35296">
        <ele>975.88</ele>
        <time>2013-10-02T10:04:44Z</time>
      </trkpt>
      <trkpt lat="43.74408" lon="6.35261">
        <ele>972.03</ele>
        <time>2013-10-02T10:04:46Z</time>
      </trkpt>
      <trkpt lat="43.74423" lon="6.35217">
        <ele>967.7</ele>
        <time>2013-10-02T10:04:49Z</time>
      </trkpt>
      <trkpt lat="43.74436" lon="6.35174">
        <ele>963.38</ele>
        <time>2013-10-02T10:04:52Z</time>
      </trkpt>
      <trkpt lat="43.74448" lon="6.35135">
        <ele>960.49</ele>
        <time>2013-10-02T10:04:55Z</time>
      </trkpt>
      <trkpt lat="43.74462" lon="6.351">
        <ele>956.65</ele>
        <time>2013-10-02T10:04:58Z</time>
      </trkpt>
      <trkpt lat="43.74469" lon="6.3509">
        <ele>956.17</ele>
        <time>2013-10-02T10:04:59Z</time>
      </trkpt>
      <trkpt lat="43.74476" lon="6.35082">
        <ele>954.73</ele>
        <time>2013-10-02T10:05:00Z</time>
      </trkpt>
      <trkpt lat="43.74484" lon="6.35074">
        <ele>953.28</ele>
        <time>2013-10-02T10:05:01Z</time>
      </trkpt>
      <trkpt lat="43.74493" lon="6.35067">
        <ele>953.28</ele>
        <time>2013-10-02T10:05:02Z</time>
      </trkpt>
      <trkpt lat="43.74502" lon="6.35061">
        <ele>952.32</ele>
        <time>2013-10-02T10:05:03Z</time>
      </trkpt>
      <trkpt lat="43.74512" lon="6.35057">
        <ele>950.88</ele>
        <time>2013-10-02T10:05:04Z</time>
      </trkpt>
      <trkpt lat="43.74521" lon="6.35055">
        <ele>949.92</ele>
        <time>2013-10-02T10:05:05Z</time>
      </trkpt>
      <trkpt lat="43.7453" lon="6.35055">
        <ele>949.44</ele>
        <time>2013-10-02T10:05:06Z</time>
      </trkpt>
      <trkpt lat="43.74539" lon="6.35056">
        <ele>947.52</ele>
        <time>2013-10-02T10:05:07Z</time>
      </trkpt>
      <trkpt lat="43.74549" lon="6.35058">
        <ele>947.04</ele>
        <time>2013-10-02T10:05:08Z</time>
      </trkpt>
      <trkpt lat="43.74598" lon="6.35068">
        <ele>943.19</ele>
        <time>2013-10-02T10:05:13Z</time>
      </trkpt>
      <trkpt lat="43.74619" lon="6.35073">
        <ele>941.27</ele>
        <time>2013-10-02T10:05:15Z</time>
      </trkpt>
      <trkpt lat="43.7466" lon="6.3508">
        <ele>937.9</ele>
        <time>2013-10-02T10:05:19Z</time>
      </trkpt>
      <trkpt lat="43.7467" lon="6.3508">
        <ele>936.94</ele>
        <time>2013-10-02T10:05:20Z</time>
      </trkpt>
      <trkpt lat="43.74713" lon="6.35073">
        <ele>934.54</ele>
        <time>2013-10-02T10:05:24Z</time>
      </trkpt>
      <trkpt lat="43.74724" lon="6.35072">
        <ele>932.62</ele>
        <time>2013-10-02T10:05:25Z</time>
      </trkpt>
      <trkpt lat="43.74752" lon="6.35072">
        <ele>930.69</ele>
        <time>2013-10-02T10:05:28Z</time>
      </trkpt>
      <trkpt lat="43.7476" lon="6.35069">
        <ele>929.25</ele>
        <time>2013-10-02T10:05:29Z</time>
      </trkpt>
      <trkpt lat="43.74767" lon="6.35066">
        <ele>928.29</ele>
        <time>2013-10-02T10:05:30Z</time>
      </trkpt>
      <trkpt lat="43.74772" lon="6.35062">
        <ele>928.29</ele>
        <time>2013-10-02T10:05:31Z</time>
      </trkpt>
      <trkpt lat="43.74776" lon="6.35059">
        <ele>927.33</ele>
        <time>2013-10-02T10:05:32Z</time>
      </trkpt>
      <trkpt lat="43.7478" lon="6.35056">
        <ele>927.33</ele>
        <time>2013-10-02T10:05:33Z</time>
      </trkpt>
      <trkpt lat="43.74783" lon="6.35054">
        <ele>926.85</ele>
        <time>2013-10-02T10:05:34Z</time>
      </trkpt>
      <trkpt lat="43.74786" lon="6.35052">
        <ele>926.37</ele>
        <time>2013-10-02T10:05:35Z</time>
      </trkpt>
      <trkpt lat="43.7479" lon="6.35048">
        <ele>925.89</ele>
        <time>2013-10-02T10:05:36Z</time>
      </trkpt>
      <trkpt lat="43.74793" lon="6.35043">
        <ele>926.37</ele>
        <time>2013-10-02T10:05:37Z</time>
      </trkpt>
      <trkpt lat="43.74796" lon="6.35037">
        <ele>925.41</ele>
        <time>2013-10-02T10:05:38Z</time>
      </trkpt>
      <trkpt lat="43.74798" lon="6.3503">
        <ele>925.41</ele>
        <time>2013-10-02T10:05:39Z</time>
      </trkpt>
      <trkpt lat="43.74799" lon="6.35022">
        <ele>924.93</ele>
        <time>2013-10-02T10:05:40Z</time>
      </trkpt>
      <trkpt lat="43.74799" lon="6.35015">
        <ele>924.45</ele>
        <time>2013-10-02T10:05:41Z</time>
      </trkpt>
      <trkpt lat="43.74798" lon="6.35007">
        <ele>924.93</ele>
        <time>2013-10-02T10:05:42Z</time>
      </trkpt>
      <trkpt lat="43.74796" lon="6.34999">
        <ele>924.45</ele>
        <time>2013-10-02T10:05:43Z</time>
      </trkpt>
      <trkpt lat="43.74794" lon="6.3499">
        <ele>923.96</ele>
        <time>2013-10-02T10:05:44Z</time>
      </trkpt>
      <trkpt lat="43.74792" lon="6.34981">
        <ele>923.48</ele>
        <time>2013-10-02T10:05:45Z</time>
      </trkpt>
      <trkpt lat="43.74775" lon="6.34934">
        <ele>922.04</ele>
        <time>2013-10-02T10:05:50Z</time>
      </trkpt>
      <trkpt lat="43.74773" lon="6.34925">
        <ele>922.52</ele>
        <time>2013-10-02T10:05:51Z</time>
      </trkpt>
      <trkpt lat="43.74773" lon="6.34915">
        <ele>921.08</ele>
        <time>2013-10-02T10:05:52Z</time>
      </trkpt>
      <trkpt lat="43.74774" lon="6.34906">
        <ele>921.08</ele>
        <time>2013-10-02T10:05:53Z</time>
      </trkpt>
      <trkpt lat="43.74776" lon="6.34897">
        <ele>920.6</ele>
        <time>2013-10-02T10:05:54Z</time>
      </trkpt>
      <trkpt lat="43.74777" lon="6.3489">
        <ele>920.12</ele>
        <time>2013-10-02T10:05:55Z</time>
      </trkpt>
      <trkpt lat="43.7478" lon="6.34882">
        <ele>919.64</ele>
        <time>2013-10-02T10:05:56Z</time>
      </trkpt>
      <trkpt lat="43.74783" lon="6.34875">
        <ele>918.68</ele>
        <time>2013-10-02T10:05:57Z</time>
      </trkpt>
      <trkpt lat="43.74786" lon="6.34868">
        <ele>918.68</ele>
        <time>2013-10-02T10:05:58Z</time>
      </trkpt>
      <trkpt lat="43.74813" lon="6.3483">
        <ele>916.27</ele>
        <time>2013-10-02T10:06:05Z</time>
      </trkpt>
      <trkpt lat="43.74823" lon="6.34814">
        <ele>915.31</ele>
        <time>2013-10-02T10:06:14Z</time>
      </trkpt>
      <trkpt lat="43.74827" lon="6.34809">
        <ele>914.83</ele>
        <time>2013-10-02T10:06:30Z</time>
      </trkpt>
      <trkpt lat="43.74829" lon="6.34807">
        <ele>914.35</ele>
        <time>2013-10-02T10:06:31Z</time>
      </trkpt>
      <trkpt lat="43.74831" lon="6.34805">
        <ele>914.83</ele>
        <time>2013-10-02T10:06:32Z</time>
      </trkpt>
      <trkpt lat="43.74833" lon="6.34802">
        <ele>914.35</ele>
        <time>2013-10-02T10:06:33Z</time>
      </trkpt>
      <trkpt lat="43.74836" lon="6.34799">
        <ele>914.83</ele>
        <time>2013-10-02T10:06:34Z</time>
      </trkpt>
      <trkpt lat="43.74838" lon="6.34796">
        <ele>914.83</ele>
        <time>2013-10-02T10:06:35Z</time>
      </trkpt>
      <trkpt lat="43.74843" lon="6.34787">
        <ele>914.35</ele>
        <time>2013-10-02T10:06:37Z</time>
      </trkpt>
      <trkpt lat="43.74845" lon="6.34782">
        <ele>914.35</ele>
        <time>2013-10-02T10:06:38Z</time>
      </trkpt>
      <trkpt lat="43.74847" lon="6.34775">
        <ele>914.35</ele>
        <time>2013-10-02T10:06:39Z</time>
      </trkpt>
      <trkpt lat="43.74847" lon="6.34769">
        <ele>914.35</ele>
        <time>2013-10-02T10:06:40Z</time>
      </trkpt>
      <trkpt lat="43.74847" lon="6.34763">
        <ele>913.87</ele>
        <time>2013-10-02T10:06:41Z</time>
      </trkpt>
      <trkpt lat="43.74846" lon="6.34756">
        <ele>913.39</ele>
        <time>2013-10-02T10:06:42Z</time>
      </trkpt>
      <trkpt lat="43.74844" lon="6.3475">
        <ele>914.35</ele>
        <time>2013-10-02T10:06:43Z</time>
      </trkpt>
      <trkpt lat="43.7484" lon="6.3467">
        <ele>913.39</ele>
        <time>2013-10-02T10:06:53Z</time>
      </trkpt>
      <trkpt lat="43.74839" lon="6.34661">
        <ele>912.91</ele>
        <time>2013-10-02T10:06:54Z</time>
      </trkpt>
      <trkpt lat="43.74838" lon="6.34652">
        <ele>912.91</ele>
        <time>2013-10-02T10:06:55Z</time>
      </trkpt>
      <trkpt lat="43.74835" lon="6.34644">
        <ele>912.91</ele>
        <time>2013-10-02T10:06:56Z</time>
      </trkpt>
      <trkpt lat="43.74831" lon="6.34636">
        <ele>912.91</ele>
        <time>2013-10-02T10:06:57Z</time>
      </trkpt>
      <trkpt lat="43.74826" lon="6.3463">
        <ele>912.91</ele>
        <time>2013-10-02T10:06:58Z</time>
      </trkpt>
      <trkpt lat="43.74821" lon="6.34625">
        <ele>912.91</ele>
        <time>2013-10-02T10:06:59Z</time>
      </trkpt>
      <trkpt lat="43.74815" lon="6.34622">
        <ele>912.43</ele>
        <time>2013-10-02T10:07:00Z</time>
      </trkpt>
      <trkpt lat="43.74809" lon="6.34619">
        <ele>912.43</ele>
        <time>2013-10-02T10:07:01Z</time>
      </trkpt>
      <trkpt lat="43.74731" lon="6.34593">
        <ele>910.51</ele>
        <time>2013-10-02T10:07:14Z</time>
      </trkpt>
      <trkpt lat="43.74699" lon="6.34582">
        <ele>909.06</ele>
        <time>2013-10-02T10:07:22Z</time>
      </trkpt>
      <trkpt lat="43.74696" lon="6.3458">
        <ele>908.58</ele>
        <time>2013-10-02T10:07:25Z</time>
      </trkpt>
      <trkpt lat="43.74695" lon="6.34579">
        <ele>908.58</ele>
        <time>2013-10-02T10:07:26Z</time>
      </trkpt>
      <trkpt lat="43.74691" lon="6.34577">
        <ele>908.1</ele>
        <time>2013-10-02T10:07:35Z</time>
      </trkpt>
      <trkpt lat="43.7469" lon="6.34576">
        <ele>907.62</ele>
        <time>2013-10-02T10:07:39Z</time>
      </trkpt>
      <trkpt lat="43.74689" lon="6.34575">
        <ele>908.58</ele>
        <time>2013-10-02T10:07:40Z</time>
      </trkpt>
      <trkpt lat="43.74687" lon="6.34573">
        <ele>908.1</ele>
        <time>2013-10-02T10:07:41Z</time>
      </trkpt>
      <trkpt lat="43.74663" lon="6.34539">
        <ele>907.62</ele>
        <time>2013-10-02T10:07:49Z</time>
      </trkpt>
      <trkpt lat="43.74647" lon="6.34514">
        <ele>904.74</ele>
        <time>2013-10-02T10:07:54Z</time>
      </trkpt>
      <trkpt lat="43.74643" lon="6.34505">
        <ele>904.74</ele>
        <time>2013-10-02T10:07:56Z</time>
      </trkpt>
      <trkpt lat="43.74642" lon="6.34499">
        <ele>904.26</ele>
        <time>2013-10-02T10:07:57Z</time>
      </trkpt>
      <trkpt lat="43.74642" lon="6.34493">
        <ele>903.78</ele>
        <time>2013-10-02T10:07:58Z</time>
      </trkpt>
      <trkpt lat="43.74642" lon="6.3447">
        <ele>903.3</ele>
        <time>2013-10-02T10:08:01Z</time>
      </trkpt>
      <trkpt lat="43.7465" lon="6.34408">
        <ele>899.93</ele>
        <time>2013-10-02T10:08:08Z</time>
      </trkpt>
      <trkpt lat="43.74649" lon="6.34373">
        <ele>898.01</ele>
        <time>2013-10-02T10:08:11Z</time>
      </trkpt>
      <trkpt lat="43.7465" lon="6.3436">
        <ele>897.53</ele>
        <time>2013-10-02T10:08:12Z</time>
      </trkpt>
      <trkpt lat="43.74652" lon="6.34334">
        <ele>896.57</ele>
        <time>2013-10-02T10:08:14Z</time>
      </trkpt>
      <trkpt lat="43.74651" lon="6.34321">
        <ele>895.12</ele>
        <time>2013-10-02T10:08:15Z</time>
      </trkpt>
      <trkpt lat="43.74649" lon="6.34309">
        <ele>894.64</ele>
        <time>2013-10-02T10:08:16Z</time>
      </trkpt>
      <trkpt lat="43.74639" lon="6.34258">
        <ele>891.76</ele>
        <time>2013-10-02T10:08:20Z</time>
      </trkpt>
      <trkpt lat="43.74633" lon="6.34232">
        <ele>890.32</ele>
        <time>2013-10-02T10:08:22Z</time>
      </trkpt>
      <trkpt lat="43.74616" lon="6.34182">
        <ele>886.95</ele>
        <time>2013-10-02T10:08:26Z</time>
      </trkpt>
      <trkpt lat="43.74604" lon="6.34161">
        <ele>885.99</ele>
        <time>2013-10-02T10:08:28Z</time>
      </trkpt>
      <trkpt lat="43.74584" lon="6.34134">
        <ele>882.63</ele>
        <time>2013-10-02T10:08:31Z</time>
      </trkpt>
      <trkpt lat="43.74569" lon="6.34112">
        <ele>880.22</ele>
        <time>2013-10-02T10:08:34Z</time>
      </trkpt>
      <trkpt lat="43.74566" lon="6.34104">
        <ele>879.26</ele>
        <time>2013-10-02T10:08:35Z</time>
      </trkpt>
      <trkpt lat="43.74566" lon="6.34096">
        <ele>878.3</ele>
        <time>2013-10-02T10:08:36Z</time>
      </trkpt>
      <trkpt lat="43.74568" lon="6.34089">
        <ele>877.82</ele>
        <time>2013-10-02T10:08:37Z</time>
      </trkpt>
      <trkpt lat="43.74571" lon="6.3408">
        <ele>877.34</ele>
        <time>2013-10-02T10:08:38Z</time>
      </trkpt>
      <trkpt lat="43.74584" lon="6.34044">
        <ele>875.42</ele>
        <time>2013-10-02T10:08:42Z</time>
      </trkpt>
      <trkpt lat="43.74585" lon="6.34034">
        <ele>874.94</ele>
        <time>2013-10-02T10:08:43Z</time>
      </trkpt>
      <trkpt lat="43.74584" lon="6.34023">
        <ele>873.98</ele>
        <time>2013-10-02T10:08:44Z</time>
      </trkpt>
      <trkpt lat="43.74581" lon="6.34012">
        <ele>873.98</ele>
        <time>2013-10-02T10:08:45Z</time>
      </trkpt>
      <trkpt lat="43.74576" lon="6.34002">
        <ele>873.01</ele>
        <time>2013-10-02T10:08:46Z</time>
      </trkpt>
      <trkpt lat="43.74572" lon="6.33991">
        <ele>872.53</ele>
        <time>2013-10-02T10:08:47Z</time>
      </trkpt>
      <trkpt lat="43.74568" lon="6.33978">
        <ele>871.57</ele>
        <time>2013-10-02T10:08:48Z</time>
      </trkpt>
      <trkpt lat="43.74559" lon="6.33925">
        <ele>868.21</ele>
        <time>2013-10-02T10:08:53Z</time>
      </trkpt>
      <trkpt lat="43.74561" lon="6.33916">
        <ele>867.73</ele>
        <time>2013-10-02T10:08:54Z</time>
      </trkpt>
      <trkpt lat="43.74565" lon="6.33907">
        <ele>867.25</ele>
        <time>2013-10-02T10:08:55Z</time>
      </trkpt>
      <trkpt lat="43.74567" lon="6.33898">
        <ele>867.25</ele>
        <time>2013-10-02T10:08:56Z</time>
      </trkpt>
      <trkpt lat="43.74567" lon="6.33887">
        <ele>866.77</ele>
        <time>2013-10-02T10:08:57Z</time>
      </trkpt>
      <trkpt lat="43.74565" lon="6.33877">
        <ele>865.8</ele>
        <time>2013-10-02T10:08:58Z</time>
      </trkpt>
      <trkpt lat="43.74563" lon="6.33867">
        <ele>865.8</ele>
        <time>2013-10-02T10:08:59Z</time>
      </trkpt>
      <trkpt lat="43.74541" lon="6.33809">
        <ele>862.92</ele>
        <time>2013-10-02T10:09:05Z</time>
      </trkpt>
      <trkpt lat="43.74539" lon="6.33802">
        <ele>862.44</ele>
        <time>2013-10-02T10:09:06Z</time>
      </trkpt>
      <trkpt lat="43.74539" lon="6.33794">
        <ele>862.44</ele>
        <time>2013-10-02T10:09:07Z</time>
      </trkpt>
      <trkpt lat="43.7454" lon="6.33787">
        <ele>861.96</ele>
        <time>2013-10-02T10:09:08Z</time>
      </trkpt>
      <trkpt lat="43.74545" lon="6.33773">
        <ele>861.48</ele>
        <time>2013-10-02T10:09:10Z</time>
      </trkpt>
      <trkpt lat="43.74547" lon="6.33764">
        <ele>861</ele>
        <time>2013-10-02T10:09:11Z</time>
      </trkpt>
      <trkpt lat="43.74551" lon="6.33741">
        <ele>860.52</ele>
        <time>2013-10-02T10:09:14Z</time>
      </trkpt>
      <trkpt lat="43.74554" lon="6.33734">
        <ele>860.52</ele>
        <time>2013-10-02T10:09:15Z</time>
      </trkpt>
      <trkpt lat="43.74558" lon="6.33728">
        <ele>860.04</ele>
        <time>2013-10-02T10:09:16Z</time>
      </trkpt>
      <trkpt lat="43.74563" lon="6.33723">
        <ele>860.04</ele>
        <time>2013-10-02T10:09:17Z</time>
      </trkpt>
      <trkpt lat="43.74569" lon="6.33718">
        <ele>860.04</ele>
        <time>2013-10-02T10:09:18Z</time>
      </trkpt>
      <trkpt lat="43.74573" lon="6.33712">
        <ele>859.56</ele>
        <time>2013-10-02T10:09:19Z</time>
      </trkpt>
      <trkpt lat="43.74576" lon="6.33704">
        <ele>859.08</ele>
        <time>2013-10-02T10:09:20Z</time>
      </trkpt>
      <trkpt lat="43.74578" lon="6.33695">
        <ele>859.08</ele>
        <time>2013-10-02T10:09:21Z</time>
      </trkpt>
      <trkpt lat="43.74579" lon="6.33686">
        <ele>859.56</ele>
        <time>2013-10-02T10:09:22Z</time>
      </trkpt>
      <trkpt lat="43.74579" lon="6.33677">
        <ele>859.08</ele>
        <time>2013-10-02T10:09:23Z</time>
      </trkpt>
      <trkpt lat="43.7458" lon="6.33669">
        <ele>859.56</ele>
        <time>2013-10-02T10:09:24Z</time>
      </trkpt>
      <trkpt lat="43.74582" lon="6.33661">
        <ele>859.08</ele>
        <time>2013-10-02T10:09:25Z</time>
      </trkpt>
      <trkpt lat="43.74585" lon="6.33653">
        <ele>858.59</ele>
        <time>2013-10-02T10:09:26Z</time>
      </trkpt>
      <trkpt lat="43.74589" lon="6.33646">
        <ele>859.08</ele>
        <time>2013-10-02T10:09:27Z</time>
      </trkpt>
      <trkpt lat="43.74595" lon="6.33641">
        <ele>858.11</ele>
        <time>2013-10-02T10:09:28Z</time>
      </trkpt>
      <trkpt lat="43.746" lon="6.33637">
        <ele>857.63</ele>
        <time>2013-10-02T10:09:29Z</time>
      </trkpt>
      <trkpt lat="43.74623" lon="6.33617">
        <ele>857.15</ele>
        <time>2013-10-02T10:09:33Z</time>
      </trkpt>
      <trkpt lat="43.74655" lon="6.33593">
        <ele>856.67</ele>
        <time>2013-10-02T10:09:38Z</time>
      </trkpt>
      <trkpt lat="43.7466" lon="6.33586">
        <ele>856.67</ele>
        <time>2013-10-02T10:09:39Z</time>
      </trkpt>
      <trkpt lat="43.74664" lon="6.33579">
        <ele>856.67</ele>
        <time>2013-10-02T10:09:40Z</time>
      </trkpt>
      <trkpt lat="43.74668" lon="6.33571">
        <ele>856.19</ele>
        <time>2013-10-02T10:09:41Z</time>
      </trkpt>
      <trkpt lat="43.74671" lon="6.33562">
        <ele>856.19</ele>
        <time>2013-10-02T10:09:42Z</time>
      </trkpt>
      <trkpt lat="43.74673" lon="6.33553">
        <ele>856.67</ele>
        <time>2013-10-02T10:09:43Z</time>
      </trkpt>
      <trkpt lat="43.74674" lon="6.33544">
        <ele>856.67</ele>
        <time>2013-10-02T10:09:44Z</time>
      </trkpt>
      <trkpt lat="43.74674" lon="6.33535">
        <ele>856.19</ele>
        <time>2013-10-02T10:09:45Z</time>
      </trkpt>
      <trkpt lat="43.74673" lon="6.33525">
        <ele>855.71</ele>
        <time>2013-10-02T10:09:46Z</time>
      </trkpt>
      <trkpt lat="43.7467" lon="6.33517">
        <ele>855.71</ele>
        <time>2013-10-02T10:09:47Z</time>
      </trkpt>
      <trkpt lat="43.74667" lon="6.33509">
        <ele>855.71</ele>
        <time>2013-10-02T10:09:48Z</time>
      </trkpt>
      <trkpt lat="43.7466" lon="6.33492">
        <ele>855.23</ele>
        <time>2013-10-02T10:09:50Z</time>
      </trkpt>
      <trkpt lat="43.74659" lon="6.33483">
        <ele>855.23</ele>
        <time>2013-10-02T10:09:51Z</time>
      </trkpt>
      <trkpt lat="43.74659" lon="6.33474">
        <ele>855.23</ele>
        <time>2013-10-02T10:09:52Z</time>
      </trkpt>
      <trkpt lat="43.7466" lon="6.33466">
        <ele>855.23</ele>
        <time>2013-10-02T10:09:53Z</time>
      </trkpt>
      <trkpt lat="43.74662" lon="6.33457">
        <ele>854.75</ele>
        <time>2013-10-02T10:09:54Z</time>
      </trkpt>
      <trkpt lat="43.74666" lon="6.33449">
        <ele>854.75</ele>
        <time>2013-10-02T10:09:55Z</time>
      </trkpt>
      <trkpt lat="43.7467" lon="6.3344">
        <ele>854.27</ele>
        <time>2013-10-02T10:09:56Z</time>
      </trkpt>
      <trkpt lat="43.74674" lon="6.33431">
        <ele>854.27</ele>
        <time>2013-10-02T10:09:57Z</time>
      </trkpt>
      <trkpt lat="43.74679" lon="6.33422">
        <ele>854.27</ele>
        <time>2013-10-02T10:09:58Z</time>
      </trkpt>
      <trkpt lat="43.74686" lon="6.33403">
        <ele>852.83</ele>
        <time>2013-10-02T10:10:00Z</time>
      </trkpt>
      <trkpt lat="43.74688" lon="6.33392">
        <ele>852.83</ele>
        <time>2013-10-02T10:10:01Z</time>
      </trkpt>
      <trkpt lat="43.74689" lon="6.33381">
        <ele>852.83</ele>
        <time>2013-10-02T10:10:02Z</time>
      </trkpt>
      <trkpt lat="43.74688" lon="6.3337">
        <ele>851.87</ele>
        <time>2013-10-02T10:10:03Z</time>
      </trkpt>
      <trkpt lat="43.74687" lon="6.33362">
        <ele>850.9</ele>
        <time>2013-10-02T10:10:04Z</time>
      </trkpt>
      <trkpt lat="43.74686" lon="6.33356">
        <ele>850.42</ele>
        <time>2013-10-02T10:10:05Z</time>
      </trkpt>
      <trkpt lat="43.74685" lon="6.33351">
        <ele>849.94</ele>
        <time>2013-10-02T10:10:06Z</time>
      </trkpt>
      <trkpt lat="43.7468" lon="6.33327">
        <ele>848.98</ele>
        <time>2013-10-02T10:10:11Z</time>
      </trkpt>
      <trkpt lat="43.74676" lon="6.33306">
        <ele>848.02</ele>
        <time>2013-10-02T10:10:16Z</time>
      </trkpt>
      <trkpt lat="43.7468" lon="6.33295">
        <ele>848.02</ele>
        <time>2013-10-02T10:10:18Z</time>
      </trkpt>
      <trkpt lat="43.747" lon="6.33256">
        <ele>846.1</ele>
        <time>2013-10-02T10:10:24Z</time>
      </trkpt>
      <trkpt lat="43.74702" lon="6.33248">
        <ele>846.1</ele>
        <time>2013-10-02T10:10:25Z</time>
      </trkpt>
      <trkpt lat="43.74703" lon="6.33239">
        <ele>845.62</ele>
        <time>2013-10-02T10:10:26Z</time>
      </trkpt>
      <trkpt lat="43.74702" lon="6.3319">
        <ele>845.62</ele>
        <time>2013-10-02T10:10:32Z</time>
      </trkpt>
      <trkpt lat="43.747" lon="6.33185">
        <ele>844.66</ele>
        <time>2013-10-02T10:10:33Z</time>
      </trkpt>
      <trkpt lat="43.747" lon="6.3318">
        <ele>845.14</ele>
        <time>2013-10-02T10:10:34Z</time>
      </trkpt>
      <trkpt lat="43.74699" lon="6.33176">
        <ele>845.14</ele>
        <time>2013-10-02T10:10:35Z</time>
      </trkpt>
      <trkpt lat="43.74698" lon="6.33173">
        <ele>845.14</ele>
        <time>2013-10-02T10:10:36Z</time>
      </trkpt>
      <trkpt lat="43.74698" lon="6.3317">
        <ele>845.14</ele>
        <time>2013-10-02T10:10:37Z</time>
      </trkpt>
      <trkpt lat="43.74698" lon="6.33167">
        <ele>844.66</ele>
        <time>2013-10-02T10:10:38Z</time>
      </trkpt>
      <trkpt lat="43.74697" lon="6.33164">
        <ele>844.66</ele>
        <time>2013-10-02T10:10:39Z</time>
      </trkpt>
      <trkpt lat="43.74697" lon="6.3316">
        <ele>844.18</ele>
        <time>2013-10-02T10:10:45Z</time>
      </trkpt>
      <trkpt lat="43.74699" lon="6.33157">
        <ele>844.66</ele>
        <time>2013-10-02T10:10:46Z</time>
      </trkpt>
      <trkpt lat="43.74703" lon="6.3312">
        <ele>844.18</ele>
        <time>2013-10-02T10:10:53Z</time>
      </trkpt>
      <trkpt lat="43.74706" lon="6.33098">
        <ele>844.18</ele>
        <time>2013-10-02T10:10:56Z</time>
      </trkpt>
      <trkpt lat="43.74709" lon="6.3309">
        <ele>844.18</ele>
        <time>2013-10-02T10:10:57Z</time>
      </trkpt>
      <trkpt lat="43.74712" lon="6.33083">
        <ele>843.21</ele>
        <time>2013-10-02T10:10:58Z</time>
      </trkpt>
      <trkpt lat="43.74716" lon="6.33077">
        <ele>843.69</ele>
        <time>2013-10-02T10:10:59Z</time>
      </trkpt>
      <trkpt lat="43.74721" lon="6.33071">
        <ele>844.18</ele>
        <time>2013-10-02T10:11:00Z</time>
      </trkpt>
      <trkpt lat="43.74726" lon="6.33066">
        <ele>843.21</ele>
        <time>2013-10-02T10:11:01Z</time>
      </trkpt>
      <trkpt lat="43.74741" lon="6.33049">
        <ele>842.73</ele>
        <time>2013-10-02T10:11:04Z</time>
      </trkpt>
      <trkpt lat="43.74748" lon="6.33032">
        <ele>842.25</ele>
        <time>2013-10-02T10:11:06Z</time>
      </trkpt>
      <trkpt lat="43.7475" lon="6.33023">
        <ele>842.25</ele>
        <time>2013-10-02T10:11:07Z</time>
      </trkpt>
      <trkpt lat="43.74752" lon="6.33014">
        <ele>842.73</ele>
        <time>2013-10-02T10:11:08Z</time>
      </trkpt>
      <trkpt lat="43.74754" lon="6.33005">
        <ele>842.73</ele>
        <time>2013-10-02T10:11:09Z</time>
      </trkpt>
      <trkpt lat="43.74754" lon="6.32996">
        <ele>842.25</ele>
        <time>2013-10-02T10:11:10Z</time>
      </trkpt>
      <trkpt lat="43.74757" lon="6.32936">
        <ele>840.81</ele>
        <time>2013-10-02T10:11:16Z</time>
      </trkpt>
      <trkpt lat="43.7476" lon="6.32927">
        <ele>841.29</ele>
        <time>2013-10-02T10:11:17Z</time>
      </trkpt>
      <trkpt lat="43.74765" lon="6.32919">
        <ele>840.81</ele>
        <time>2013-10-02T10:11:18Z</time>
      </trkpt>
      <trkpt lat="43.7477" lon="6.32912">
        <ele>840.81</ele>
        <time>2013-10-02T10:11:19Z</time>
      </trkpt>
      <trkpt lat="43.74776" lon="6.32906">
        <ele>840.81</ele>
        <time>2013-10-02T10:11:20Z</time>
      </trkpt>
      <trkpt lat="43.74782" lon="6.32901">
        <ele>840.33</ele>
        <time>2013-10-02T10:11:21Z</time>
      </trkpt>
      <trkpt lat="43.74787" lon="6.32894">
        <ele>840.33</ele>
        <time>2013-10-02T10:11:22Z</time>
      </trkpt>
      <trkpt lat="43.74792" lon="6.32887">
        <ele>840.33</ele>
        <time>2013-10-02T10:11:23Z</time>
      </trkpt>
      <trkpt lat="43.74797" lon="6.32879">
        <ele>840.33</ele>
        <time>2013-10-02T10:11:24Z</time>
      </trkpt>
      <trkpt lat="43.74815" lon="6.32848">
        <ele>840.33</ele>
        <time>2013-10-02T10:11:28Z</time>
      </trkpt>
      <trkpt lat="43.74821" lon="6.32842">
        <ele>840.33</ele>
        <time>2013-10-02T10:11:29Z</time>
      </trkpt>
      <trkpt lat="43.74827" lon="6.32836">
        <ele>839.85</ele>
        <time>2013-10-02T10:11:30Z</time>
      </trkpt>
      <trkpt lat="43.74833" lon="6.32833">
        <ele>839.85</ele>
        <time>2013-10-02T10:11:31Z</time>
      </trkpt>
      <trkpt lat="43.74839" lon="6.32831">
        <ele>840.33</ele>
        <time>2013-10-02T10:11:32Z</time>
      </trkpt>
      <trkpt lat="43.74845" lon="6.32831">
        <ele>839.85</ele>
        <time>2013-10-02T10:11:33Z</time>
      </trkpt>
      <trkpt lat="43.74853" lon="6.32836">
        <ele>839.85</ele>
        <time>2013-10-02T10:11:34Z</time>
      </trkpt>
      <trkpt lat="43.7486" lon="6.32841">
        <ele>840.33</ele>
        <time>2013-10-02T10:11:35Z</time>
      </trkpt>
      <trkpt lat="43.74867" lon="6.32846">
        <ele>840.33</ele>
        <time>2013-10-02T10:11:36Z</time>
      </trkpt>
      <trkpt lat="43.7491" lon="6.32885">
        <ele>841.29</ele>
        <time>2013-10-02T10:11:44Z</time>
      </trkpt>
      <trkpt lat="43.74941" lon="6.3291">
        <ele>843.21</ele>
        <time>2013-10-02T10:11:52Z</time>
      </trkpt>
      <trkpt lat="43.74979" lon="6.32934">
        <ele>844.66</ele>
        <time>2013-10-02T10:12:04Z</time>
      </trkpt>
      <trkpt lat="43.75016" lon="6.32956">
        <ele>847.06</ele>
        <time>2013-10-02T10:12:16Z</time>
      </trkpt>
      <trkpt lat="43.75038" lon="6.32984">
        <ele>848.98</ele>
        <time>2013-10-02T10:12:25Z</time>
      </trkpt>
      <trkpt lat="43.7506" lon="6.33021">
        <ele>851.38</ele>
        <time>2013-10-02T10:12:36Z</time>
      </trkpt>
      <trkpt lat="43.75087" lon="6.33047">
        <ele>853.79</ele>
        <time>2013-10-02T10:12:47Z</time>
      </trkpt>
      <trkpt lat="43.75118" lon="6.33057">
        <ele>854.75</ele>
        <time>2013-10-02T10:12:57Z</time>
      </trkpt>
      <trkpt lat="43.75151" lon="6.33059">
        <ele>855.23</ele>
        <time>2013-10-02T10:13:06Z</time>
      </trkpt>
      <trkpt lat="43.75154" lon="6.33055">
        <ele>855.71</ele>
        <time>2013-10-02T10:13:07Z</time>
      </trkpt>
      <trkpt lat="43.75157" lon="6.3305">
        <ele>855.23</ele>
        <time>2013-10-02T10:13:08Z</time>
      </trkpt>
      <trkpt lat="43.75159" lon="6.33045">
        <ele>855.71</ele>
        <time>2013-10-02T10:13:09Z</time>
      </trkpt>
      <trkpt lat="43.7516" lon="6.33039">
        <ele>855.71</ele>
        <time>2013-10-02T10:13:10Z</time>
      </trkpt>
      <trkpt lat="43.75161" lon="6.33033">
        <ele>855.71</ele>
        <time>2013-10-02T10:13:11Z</time>
      </trkpt>
      <trkpt lat="43.7516" lon="6.33028">
        <ele>855.71</ele>
        <time>2013-10-02T10:13:12Z</time>
      </trkpt>
      <trkpt lat="43.75159" lon="6.33022">
        <ele>856.67</ele>
        <time>2013-10-02T10:13:13Z</time>
      </trkpt>
      <trkpt lat="43.75158" lon="6.33017">
        <ele>856.67</ele>
        <time>2013-10-02T10:13:14Z</time>
      </trkpt>
      <trkpt lat="43.75156" lon="6.33012">
        <ele>856.67</ele>
        <time>2013-10-02T10:13:15Z</time>
      </trkpt>
      <trkpt lat="43.75154" lon="6.33007">
        <ele>856.67</ele>
        <time>2013-10-02T10:13:16Z</time>
      </trkpt>
      <trkpt lat="43.75144" lon="6.32956">
        <ele>858.59</ele>
        <time>2013-10-02T10:13:26Z</time>
      </trkpt>
      <trkpt lat="43.75152" lon="6.32915">
        <ele>860.04</ele>
        <time>2013-10-02T10:13:35Z</time>
      </trkpt>
      <trkpt lat="43.75172" lon="6.32864">
        <ele>862.92</ele>
        <time>2013-10-02T10:13:48Z</time>
      </trkpt>
      <trkpt lat="43.75197" lon="6.32835">
        <ele>864.84</ele>
        <time>2013-10-02T10:13:58Z</time>
      </trkpt>
      <trkpt lat="43.75234" lon="6.32839">
        <ele>865.8</ele>
        <time>2013-10-02T10:14:08Z</time>
      </trkpt>
      <trkpt lat="43.75278" lon="6.32841">
        <ele>867.25</ele>
        <time>2013-10-02T10:14:19Z</time>
      </trkpt>
      <trkpt lat="43.75322" lon="6.32833">
        <ele>868.69</ele>
        <time>2013-10-02T10:14:30Z</time>
      </trkpt>
      <trkpt lat="43.75325" lon="6.32829">
        <ele>867.73</ele>
        <time>2013-10-02T10:14:31Z</time>
      </trkpt>
      <trkpt lat="43.75327" lon="6.32825">
        <ele>868.69</ele>
        <time>2013-10-02T10:14:32Z</time>
      </trkpt>
      <trkpt lat="43.7533" lon="6.3282">
        <ele>868.69</ele>
        <time>2013-10-02T10:14:33Z</time>
      </trkpt>
      <trkpt lat="43.75331" lon="6.32815">
        <ele>868.69</ele>
        <time>2013-10-02T10:14:34Z</time>
      </trkpt>
      <trkpt lat="43.75332" lon="6.32809">
        <ele>868.69</ele>
        <time>2013-10-02T10:14:35Z</time>
      </trkpt>
      <trkpt lat="43.75333" lon="6.32802">
        <ele>868.21</ele>
        <time>2013-10-02T10:14:36Z</time>
      </trkpt>
      <trkpt lat="43.75333" lon="6.32796">
        <ele>869.17</ele>
        <time>2013-10-02T10:14:37Z</time>
      </trkpt>
      <trkpt lat="43.75333" lon="6.32789">
        <ele>868.69</ele>
        <time>2013-10-02T10:14:38Z</time>
      </trkpt>
      <trkpt lat="43.75344" lon="6.32702">
        <ele>869.65</ele>
        <time>2013-10-02T10:14:50Z</time>
      </trkpt>
      <trkpt lat="43.75347" lon="6.32695">
        <ele>869.65</ele>
        <time>2013-10-02T10:14:51Z</time>
      </trkpt>
      <trkpt lat="43.75351" lon="6.32689">
        <ele>869.65</ele>
        <time>2013-10-02T10:14:52Z</time>
      </trkpt>
      <trkpt lat="43.75355" lon="6.32684">
        <ele>869.17</ele>
        <time>2013-10-02T10:14:53Z</time>
      </trkpt>
      <trkpt lat="43.7536" lon="6.3268">
        <ele>869.17</ele>
        <time>2013-10-02T10:14:54Z</time>
      </trkpt>
      <trkpt lat="43.75366" lon="6.32678">
        <ele>869.17</ele>
        <time>2013-10-02T10:14:55Z</time>
      </trkpt>
      <trkpt lat="43.75371" lon="6.32677">
        <ele>869.17</ele>
        <time>2013-10-02T10:14:56Z</time>
      </trkpt>
      <trkpt lat="43.75377" lon="6.32677">
        <ele>869.17</ele>
        <time>2013-10-02T10:14:57Z</time>
      </trkpt>
      <trkpt lat="43.75383" lon="6.32677">
        <ele>869.17</ele>
        <time>2013-10-02T10:14:58Z</time>
      </trkpt>
      <trkpt lat="43.754" lon="6.32676">
        <ele>868.69</ele>
        <time>2013-10-02T10:15:01Z</time>
      </trkpt>
      <trkpt lat="43.75406" lon="6.32674">
        <ele>868.69</ele>
        <time>2013-10-02T10:15:02Z</time>
      </trkpt>
      <trkpt lat="43.75418" lon="6.32666">
        <ele>868.21</ele>
        <time>2013-10-02T10:15:04Z</time>
      </trkpt>
      <trkpt lat="43.75422" lon="6.32659">
        <ele>868.21</ele>
        <time>2013-10-02T10:15:05Z</time>
      </trkpt>
      <trkpt lat="43.75424" lon="6.32651">
        <ele>868.69</ele>
        <time>2013-10-02T10:15:06Z</time>
      </trkpt>
      <trkpt lat="43.75425" lon="6.32641">
        <ele>868.21</ele>
        <time>2013-10-02T10:15:07Z</time>
      </trkpt>
      <trkpt lat="43.75425" lon="6.32632">
        <ele>867.73</ele>
        <time>2013-10-02T10:15:08Z</time>
      </trkpt>
      <trkpt lat="43.75424" lon="6.32622">
        <ele>867.25</ele>
        <time>2013-10-02T10:15:09Z</time>
      </trkpt>
      <trkpt lat="43.75422" lon="6.32612">
        <ele>867.25</ele>
        <time>2013-10-02T10:15:10Z</time>
      </trkpt>
      <trkpt lat="43.75421" lon="6.32603">
        <ele>866.77</ele>
        <time>2013-10-02T10:15:11Z</time>
      </trkpt>
      <trkpt lat="43.75421" lon="6.32596">
        <ele>866.29</ele>
        <time>2013-10-02T10:15:12Z</time>
      </trkpt>
      <trkpt lat="43.75423" lon="6.32589">
        <ele>865.8</ele>
        <time>2013-10-02T10:15:13Z</time>
      </trkpt>
      <trkpt lat="43.75426" lon="6.32582">
        <ele>865.32</ele>
        <time>2013-10-02T10:15:14Z</time>
      </trkpt>
      <trkpt lat="43.75431" lon="6.32575">
        <ele>865.32</ele>
        <time>2013-10-02T10:15:15Z</time>
      </trkpt>
      <trkpt lat="43.75437" lon="6.3257">
        <ele>864.36</ele>
        <time>2013-10-02T10:15:16Z</time>
      </trkpt>
      <trkpt lat="43.75443" lon="6.32565">
        <ele>864.36</ele>
        <time>2013-10-02T10:15:17Z</time>
      </trkpt>
      <trkpt lat="43.75463" lon="6.32553">
        <ele>862.92</ele>
        <time>2013-10-02T10:15:20Z</time>
      </trkpt>
      <trkpt lat="43.75506" lon="6.32539">
        <ele>860.04</ele>
        <time>2013-10-02T10:15:25Z</time>
      </trkpt>
      <trkpt lat="43.75515" lon="6.32534">
        <ele>859.56</ele>
        <time>2013-10-02T10:15:26Z</time>
      </trkpt>
      <trkpt lat="43.75523" lon="6.32527">
        <ele>859.08</ele>
        <time>2013-10-02T10:15:27Z</time>
      </trkpt>
      <trkpt lat="43.75531" lon="6.32519">
        <ele>859.08</ele>
        <time>2013-10-02T10:15:28Z</time>
      </trkpt>
      <trkpt lat="43.75539" lon="6.32511">
        <ele>857.63</ele>
        <time>2013-10-02T10:15:29Z</time>
      </trkpt>
      <trkpt lat="43.75561" lon="6.32482">
        <ele>856.19</ele>
        <time>2013-10-02T10:15:32Z</time>
      </trkpt>
      <trkpt lat="43.75594" lon="6.32446">
        <ele>853.31</ele>
        <time>2013-10-02T10:15:36Z</time>
      </trkpt>
      <trkpt lat="43.75601" lon="6.32438">
        <ele>852.35</ele>
        <time>2013-10-02T10:15:37Z</time>
      </trkpt>
      <trkpt lat="43.75606" lon="6.3243">
        <ele>851.38</ele>
        <time>2013-10-02T10:15:38Z</time>
      </trkpt>
      <trkpt lat="43.75609" lon="6.3242">
        <ele>850.42</ele>
        <time>2013-10-02T10:15:39Z</time>
      </trkpt>
      <trkpt lat="43.75611" lon="6.32409">
        <ele>849.94</ele>
        <time>2013-10-02T10:15:40Z</time>
      </trkpt>
      <trkpt lat="43.7561" lon="6.32398">
        <ele>850.42</ele>
        <time>2013-10-02T10:15:41Z</time>
      </trkpt>
      <trkpt lat="43.75609" lon="6.32386">
        <ele>849.94</ele>
        <time>2013-10-02T10:15:42Z</time>
      </trkpt>
      <trkpt lat="43.75605" lon="6.32351">
        <ele>848.5</ele>
        <time>2013-10-02T10:15:45Z</time>
      </trkpt>
      <trkpt lat="43.75605" lon="6.32338">
        <ele>848.02</ele>
        <time>2013-10-02T10:15:46Z</time>
      </trkpt>
      <trkpt lat="43.75606" lon="6.32326">
        <ele>847.54</ele>
        <time>2013-10-02T10:15:47Z</time>
      </trkpt>
      <trkpt lat="43.75612" lon="6.32289">
        <ele>846.1</ele>
        <time>2013-10-02T10:15:50Z</time>
      </trkpt>
      <trkpt lat="43.75611" lon="6.32276">
        <ele>846.1</ele>
        <time>2013-10-02T10:15:51Z</time>
      </trkpt>
      <trkpt lat="43.75605" lon="6.32227">
        <ele>844.18</ele>
        <time>2013-10-02T10:15:55Z</time>
      </trkpt>
      <trkpt lat="43.75604" lon="6.32215">
        <ele>844.18</ele>
        <time>2013-10-02T10:15:56Z</time>
      </trkpt>
      <trkpt lat="43.75604" lon="6.32202">
        <ele>843.69</ele>
        <time>2013-10-02T10:15:57Z</time>
      </trkpt>
      <trkpt lat="43.75611" lon="6.32152">
        <ele>842.25</ele>
        <time>2013-10-02T10:16:01Z</time>
      </trkpt>
      <trkpt lat="43.75611" lon="6.32139">
        <ele>842.73</ele>
        <time>2013-10-02T10:16:02Z</time>
      </trkpt>
      <trkpt lat="43.7561" lon="6.32126">
        <ele>842.25</ele>
        <time>2013-10-02T10:16:03Z</time>
      </trkpt>
      <trkpt lat="43.75609" lon="6.32114">
        <ele>841.77</ele>
        <time>2013-10-02T10:16:04Z</time>
      </trkpt>
      <trkpt lat="43.75608" lon="6.32101">
        <ele>842.25</ele>
        <time>2013-10-02T10:16:05Z</time>
      </trkpt>
      <trkpt lat="43.75605" lon="6.3209">
        <ele>842.25</ele>
        <time>2013-10-02T10:16:06Z</time>
      </trkpt>
      <trkpt lat="43.75602" lon="6.32078">
        <ele>841.77</ele>
        <time>2013-10-02T10:16:07Z</time>
      </trkpt>
      <trkpt lat="43.75598" lon="6.32068">
        <ele>841.29</ele>
        <time>2013-10-02T10:16:08Z</time>
      </trkpt>
      <trkpt lat="43.75595" lon="6.32058">
        <ele>841.29</ele>
        <time>2013-10-02T10:16:09Z</time>
      </trkpt>
      <trkpt lat="43.75593" lon="6.32049">
        <ele>840.81</ele>
        <time>2013-10-02T10:16:10Z</time>
      </trkpt>
      <trkpt lat="43.75593" lon="6.32041">
        <ele>840.33</ele>
        <time>2013-10-02T10:16:11Z</time>
      </trkpt>
      <trkpt lat="43.75595" lon="6.32033">
        <ele>839.85</ele>
        <time>2013-10-02T10:16:12Z</time>
      </trkpt>
      <trkpt lat="43.75599" lon="6.32025">
        <ele>839.37</ele>
        <time>2013-10-02T10:16:13Z</time>
      </trkpt>
      <trkpt lat="43.75604" lon="6.32021">
        <ele>838.89</ele>
        <time>2013-10-02T10:16:14Z</time>
      </trkpt>
      <trkpt lat="43.75609" lon="6.3202">
        <ele>837.93</ele>
        <time>2013-10-02T10:16:15Z</time>
      </trkpt>
      <trkpt lat="43.75614" lon="6.32021">
        <ele>837.93</ele>
        <time>2013-10-02T10:16:16Z</time>
      </trkpt>
      <trkpt lat="43.75621" lon="6.32028">
        <ele>836.96</ele>
        <time>2013-10-02T10:16:17Z</time>
      </trkpt>
      <trkpt lat="43.75628" lon="6.32034">
        <ele>836.96</ele>
        <time>2013-10-02T10:16:18Z</time>
      </trkpt>
      <trkpt lat="43.75653" lon="6.32047">
        <ele>835.04</ele>
        <time>2013-10-02T10:16:21Z</time>
      </trkpt>
      <trkpt lat="43.75663" lon="6.32049">
        <ele>834.56</ele>
        <time>2013-10-02T10:16:22Z</time>
      </trkpt>
      <trkpt lat="43.75672" lon="6.32051">
        <ele>834.08</ele>
        <time>2013-10-02T10:16:23Z</time>
      </trkpt>
      <trkpt lat="43.75711" lon="6.32064">
        <ele>831.2</ele>
        <time>2013-10-02T10:16:27Z</time>
      </trkpt>
      <trkpt lat="43.75732" lon="6.32066">
        <ele>830.72</ele>
        <time>2013-10-02T10:16:29Z</time>
      </trkpt>
      <trkpt lat="43.75751" lon="6.32065">
        <ele>828.79</ele>
        <time>2013-10-02T10:16:31Z</time>
      </trkpt>
      <trkpt lat="43.75759" lon="6.32061">
        <ele>827.35</ele>
        <time>2013-10-02T10:16:32Z</time>
      </trkpt>
      <trkpt lat="43.75765" lon="6.32057">
        <ele>825.91</ele>
        <time>2013-10-02T10:16:33Z</time>
      </trkpt>
      <trkpt lat="43.7577" lon="6.32053">
        <ele>826.39</ele>
        <time>2013-10-02T10:16:34Z</time>
      </trkpt>
      <trkpt lat="43.75772" lon="6.32048">
        <ele>824.95</ele>
        <time>2013-10-02T10:16:39Z</time>
      </trkpt>
      <trkpt lat="43.75772" lon="6.32046">
        <ele>824.47</ele>
        <time>2013-10-02T10:16:49Z</time>
      </trkpt>
      <trkpt lat="43.75773" lon="6.32046">
        <ele>824.47</ele>
        <time>2013-10-02T10:17:06Z</time>
      </trkpt>
      <trkpt lat="43.7577" lon="6.32049">
        <ele>824.95</ele>
        <time>2013-10-02T10:17:12Z</time>
      </trkpt>
      <trkpt lat="43.75771" lon="6.32048">
        <ele>824.47</ele>
        <time>2013-10-02T10:17:13Z</time>
      </trkpt>
      <trkpt lat="43.75776" lon="6.32043">
        <ele>824.47</ele>
        <time>2013-10-02T10:17:21Z</time>
      </trkpt>
      <trkpt lat="43.75783" lon="6.32032">
        <ele>823.51</ele>
        <time>2013-10-02T10:17:27Z</time>
      </trkpt>
      <trkpt lat="43.75785" lon="6.32028">
        <ele>823.51</ele>
        <time>2013-10-02T10:17:31Z</time>
      </trkpt>
      <trkpt lat="43.75787" lon="6.32013">
        <ele>823.03</ele>
        <time>2013-10-02T10:17:44Z</time>
      </trkpt>
      <trkpt lat="43.75788" lon="6.32012">
        <ele>823.03</ele>
        <time>2013-10-02T10:17:55Z</time>
      </trkpt>
      <trkpt lat="43.75787" lon="6.32015">
        <ele>823.03</ele>
        <time>2013-10-02T10:18:55Z</time>
      </trkpt>
      <trkpt lat="43.75787" lon="6.32015">
        <ele>820.62</ele>
        <time>2013-10-02T10:19:20Z</time>
      </trkpt>
      <trkpt lat="43.75788" lon="6.32016">
        <ele>821.1</ele>
        <time>2013-10-02T10:19:33Z</time>
      </trkpt>
      <trkpt lat="43.7579" lon="6.32018">
        <ele>820.14</ele>
        <time>2013-10-02T10:19:40Z</time>
      </trkpt>
      <trkpt lat="43.7579" lon="6.32018">
        <ele>823.51</ele>
        <time>2013-10-02T10:19:51Z</time>
      </trkpt>
      <trkpt lat="43.75791" lon="6.32017">
        <ele>823.03</ele>
        <time>2013-10-02T10:19:58Z</time>
      </trkpt>
      <trkpt lat="43.75806" lon="6.31996">
        <ele>822.06</ele>
        <time>2013-10-02T10:20:04Z</time>
      </trkpt>
      <trkpt lat="43.7582" lon="6.31981">
        <ele>820.14</ele>
        <time>2013-10-02T10:20:07Z</time>
      </trkpt>
      <trkpt lat="43.75833" lon="6.31971">
        <ele>819.18</ele>
        <time>2013-10-02T10:20:09Z</time>
      </trkpt>
      <trkpt lat="43.7584" lon="6.31964">
        <ele>818.7</ele>
        <time>2013-10-02T10:20:10Z</time>
      </trkpt>
      <trkpt lat="43.7586" lon="6.31947">
        <ele>817.26</ele>
        <time>2013-10-02T10:20:13Z</time>
      </trkpt>
      <trkpt lat="43.75867" lon="6.31945">
        <ele>817.26</ele>
        <time>2013-10-02T10:20:14Z</time>
      </trkpt>
      <trkpt lat="43.75875" lon="6.31946">
        <ele>816.78</ele>
        <time>2013-10-02T10:20:15Z</time>
      </trkpt>
      <trkpt lat="43.75882" lon="6.31949">
        <ele>816.78</ele>
        <time>2013-10-02T10:20:16Z</time>
      </trkpt>
      <trkpt lat="43.75888" lon="6.31953">
        <ele>815.82</ele>
        <time>2013-10-02T10:20:17Z</time>
      </trkpt>
      <trkpt lat="43.75894" lon="6.31958">
        <ele>815.82</ele>
        <time>2013-10-02T10:20:18Z</time>
      </trkpt>
      <trkpt lat="43.75919" lon="6.31975">
        <ele>815.82</ele>
        <time>2013-10-02T10:20:22Z</time>
      </trkpt>
      <trkpt lat="43.75925" lon="6.31978">
        <ele>815.82</ele>
        <time>2013-10-02T10:20:23Z</time>
      </trkpt>
      <trkpt lat="43.75931" lon="6.31979">
        <ele>815.82</ele>
        <time>2013-10-02T10:20:24Z</time>
      </trkpt>
      <trkpt lat="43.75938" lon="6.31978">
        <ele>815.82</ele>
        <time>2013-10-02T10:20:25Z</time>
      </trkpt>
      <trkpt lat="43.75944" lon="6.31975">
        <ele>814.85</ele>
        <time>2013-10-02T10:20:26Z</time>
      </trkpt>
      <trkpt lat="43.7595" lon="6.31971">
        <ele>815.34</ele>
        <time>2013-10-02T10:20:27Z</time>
      </trkpt>
      <trkpt lat="43.75955" lon="6.31965">
        <ele>815.34</ele>
        <time>2013-10-02T10:20:28Z</time>
      </trkpt>
      <trkpt lat="43.75959" lon="6.31959">
        <ele>815.34</ele>
        <time>2013-10-02T10:20:29Z</time>
      </trkpt>
      <trkpt lat="43.75984" lon="6.31929">
        <ele>815.82</ele>
        <time>2013-10-02T10:20:34Z</time>
      </trkpt>
      <trkpt lat="43.75989" lon="6.31922">
        <ele>815.82</ele>
        <time>2013-10-02T10:20:35Z</time>
      </trkpt>
      <trkpt lat="43.75993" lon="6.31915">
        <ele>815.82</ele>
        <time>2013-10-02T10:20:36Z</time>
      </trkpt>
      <trkpt lat="43.75995" lon="6.31906">
        <ele>815.34</ele>
        <time>2013-10-02T10:20:37Z</time>
      </trkpt>
      <trkpt lat="43.75996" lon="6.31897">
        <ele>815.34</ele>
        <time>2013-10-02T10:20:38Z</time>
      </trkpt>
      <trkpt lat="43.75997" lon="6.31887">
        <ele>815.82</ele>
        <time>2013-10-02T10:20:39Z</time>
      </trkpt>
      <trkpt lat="43.75996" lon="6.31877">
        <ele>815.34</ele>
        <time>2013-10-02T10:20:40Z</time>
      </trkpt>
      <trkpt lat="43.75995" lon="6.31867">
        <ele>815.34</ele>
        <time>2013-10-02T10:20:41Z</time>
      </trkpt>
      <trkpt lat="43.75994" lon="6.31858">
        <ele>815.34</ele>
        <time>2013-10-02T10:20:42Z</time>
      </trkpt>
      <trkpt lat="43.7597" lon="6.31761">
        <ele>814.37</ele>
        <time>2013-10-02T10:20:52Z</time>
      </trkpt>
      <trkpt lat="43.75965" lon="6.31736">
        <ele>814.85</ele>
        <time>2013-10-02T10:20:55Z</time>
      </trkpt>
      <trkpt lat="43.75965" lon="6.31728">
        <ele>814.85</ele>
        <time>2013-10-02T10:20:56Z</time>
      </trkpt>
      <trkpt lat="43.75965" lon="6.3172">
        <ele>814.85</ele>
        <time>2013-10-02T10:20:57Z</time>
      </trkpt>
      <trkpt lat="43.75966" lon="6.31713">
        <ele>815.34</ele>
        <time>2013-10-02T10:20:58Z</time>
      </trkpt>
      <trkpt lat="43.75967" lon="6.31705">
        <ele>815.34</ele>
        <time>2013-10-02T10:20:59Z</time>
      </trkpt>
      <trkpt lat="43.75969" lon="6.31699">
        <ele>815.82</ele>
        <time>2013-10-02T10:21:00Z</time>
      </trkpt>
      <trkpt lat="43.75972" lon="6.31693">
        <ele>815.34</ele>
        <time>2013-10-02T10:21:01Z</time>
      </trkpt>
      <trkpt lat="43.75974" lon="6.31688">
        <ele>815.34</ele>
        <time>2013-10-02T10:21:02Z</time>
      </trkpt>
      <trkpt lat="43.75997" lon="6.31652">
        <ele>817.74</ele>
        <time>2013-10-02T10:21:12Z</time>
      </trkpt>
      <trkpt lat="43.76034" lon="6.31596">
        <ele>819.66</ele>
        <time>2013-10-02T10:21:28Z</time>
      </trkpt>
      <trkpt lat="43.76042" lon="6.31592">
        <ele>821.1</ele>
        <time>2013-10-02T10:21:31Z</time>
      </trkpt>
      <trkpt lat="43.76046" lon="6.31593">
        <ele>821.1</ele>
        <time>2013-10-02T10:21:32Z</time>
      </trkpt>
      <trkpt lat="43.76049" lon="6.31595">
        <ele>821.58</ele>
        <time>2013-10-02T10:21:33Z</time>
      </trkpt>
      <trkpt lat="43.76091" lon="6.31621">
        <ele>823.03</ele>
        <time>2013-10-02T10:21:45Z</time>
      </trkpt>
      <trkpt lat="43.76121" lon="6.31645">
        <ele>823.51</ele>
        <time>2013-10-02T10:21:54Z</time>
      </trkpt>
      <trkpt lat="43.7613" lon="6.31656">
        <ele>823.51</ele>
        <time>2013-10-02T10:21:57Z</time>
      </trkpt>
      <trkpt lat="43.76147" lon="6.31672">
        <ele>824.47</ele>
        <time>2013-10-02T10:22:02Z</time>
      </trkpt>
      <trkpt lat="43.76179" lon="6.31685">
        <ele>824.95</ele>
        <time>2013-10-02T10:22:10Z</time>
      </trkpt>
      <trkpt lat="43.76184" lon="6.31685">
        <ele>824.95</ele>
        <time>2013-10-02T10:22:11Z</time>
      </trkpt>
      <trkpt lat="43.76198" lon="6.31685">
        <ele>825.43</ele>
        <time>2013-10-02T10:22:14Z</time>
      </trkpt>
      <trkpt lat="43.76203" lon="6.31684">
        <ele>825.43</ele>
        <time>2013-10-02T10:22:15Z</time>
      </trkpt>
      <trkpt lat="43.76207" lon="6.31683">
        <ele>825.43</ele>
        <time>2013-10-02T10:22:16Z</time>
      </trkpt>
      <trkpt lat="43.76211" lon="6.31681">
        <ele>825.43</ele>
        <time>2013-10-02T10:22:17Z</time>
      </trkpt>
      <trkpt lat="43.76215" lon="6.31678">
        <ele>825.91</ele>
        <time>2013-10-02T10:22:18Z</time>
      </trkpt>
      <trkpt lat="43.76219" lon="6.31675">
        <ele>825.91</ele>
        <time>2013-10-02T10:22:19Z</time>
      </trkpt>
      <trkpt lat="43.76223" lon="6.31671">
        <ele>825.91</ele>
        <time>2013-10-02T10:22:20Z</time>
      </trkpt>
      <trkpt lat="43.76239" lon="6.31659">
        <ele>826.39</ele>
        <time>2013-10-02T10:22:24Z</time>
      </trkpt>
      <trkpt lat="43.76243" lon="6.31656">
        <ele>826.39</ele>
        <time>2013-10-02T10:22:25Z</time>
      </trkpt>
      <trkpt lat="43.76248" lon="6.31655">
        <ele>826.39</ele>
        <time>2013-10-02T10:22:26Z</time>
      </trkpt>
      <trkpt lat="43.76253" lon="6.31655">
        <ele>826.39</ele>
        <time>2013-10-02T10:22:27Z</time>
      </trkpt>
      <trkpt lat="43.76258" lon="6.31656">
        <ele>826.39</ele>
        <time>2013-10-02T10:22:28Z</time>
      </trkpt>
      <trkpt lat="43.76262" lon="6.31658">
        <ele>826.39</ele>
        <time>2013-10-02T10:22:29Z</time>
      </trkpt>
      <trkpt lat="43.76267" lon="6.31661">
        <ele>826.39</ele>
        <time>2013-10-02T10:22:30Z</time>
      </trkpt>
      <trkpt lat="43.7627" lon="6.31666">
        <ele>826.39</ele>
        <time>2013-10-02T10:22:31Z</time>
      </trkpt>
      <trkpt lat="43.76274" lon="6.31671">
        <ele>826.39</ele>
        <time>2013-10-02T10:22:32Z</time>
      </trkpt>
      <trkpt lat="43.76277" lon="6.31676">
        <ele>826.39</ele>
        <time>2013-10-02T10:22:33Z</time>
      </trkpt>
      <trkpt lat="43.76279" lon="6.31683">
        <ele>826.39</ele>
        <time>2013-10-02T10:22:34Z</time>
      </trkpt>
      <trkpt lat="43.76282" lon="6.31689">
        <ele>826.39</ele>
        <time>2013-10-02T10:22:35Z</time>
      </trkpt>
      <trkpt lat="43.76284" lon="6.31695">
        <ele>826.87</ele>
        <time>2013-10-02T10:22:36Z</time>
      </trkpt>
      <trkpt lat="43.76295" lon="6.31727">
        <ele>827.35</ele>
        <time>2013-10-02T10:22:41Z</time>
      </trkpt>
      <trkpt lat="43.76298" lon="6.31733">
        <ele>826.87</ele>
        <time>2013-10-02T10:22:42Z</time>
      </trkpt>
      <trkpt lat="43.76301" lon="6.31738">
        <ele>826.39</ele>
        <time>2013-10-02T10:22:43Z</time>
      </trkpt>
      <trkpt lat="43.76304" lon="6.31743">
        <ele>826.87</ele>
        <time>2013-10-02T10:22:44Z</time>
      </trkpt>
      <trkpt lat="43.76308" lon="6.31748">
        <ele>826.87</ele>
        <time>2013-10-02T10:22:45Z</time>
      </trkpt>
      <trkpt lat="43.76313" lon="6.31752">
        <ele>826.87</ele>
        <time>2013-10-02T10:22:46Z</time>
      </trkpt>
      <trkpt lat="43.76318" lon="6.31756">
        <ele>826.39</ele>
        <time>2013-10-02T10:22:47Z</time>
      </trkpt>
      <trkpt lat="43.76323" lon="6.31759">
        <ele>826.87</ele>
        <time>2013-10-02T10:22:48Z</time>
      </trkpt>
      <trkpt lat="43.76328" lon="6.31761">
        <ele>826.39</ele>
        <time>2013-10-02T10:22:49Z</time>
      </trkpt>
      <trkpt lat="43.76334" lon="6.31763">
        <ele>826.87</ele>
        <time>2013-10-02T10:22:50Z</time>
      </trkpt>
      <trkpt lat="43.76359" lon="6.3177">
        <ele>826.87</ele>
        <time>2013-10-02T10:22:55Z</time>
      </trkpt>
      <trkpt lat="43.76363" lon="6.31773">
        <ele>826.87</ele>
        <time>2013-10-02T10:22:56Z</time>
      </trkpt>
      <trkpt lat="43.76372" lon="6.3178">
        <ele>826.87</ele>
        <time>2013-10-02T10:22:58Z</time>
      </trkpt>
      <trkpt lat="43.76381" lon="6.31789">
        <ele>826.87</ele>
        <time>2013-10-02T10:23:00Z</time>
      </trkpt>
      <trkpt lat="43.76408" lon="6.31827">
        <ele>827.35</ele>
        <time>2013-10-02T10:23:07Z</time>
      </trkpt>
      <trkpt lat="43.76417" lon="6.31846">
        <ele>827.83</ele>
        <time>2013-10-02T10:23:10Z</time>
      </trkpt>
      <trkpt lat="43.7642" lon="6.31853">
        <ele>827.83</ele>
        <time>2013-10-02T10:23:11Z</time>
      </trkpt>
      <trkpt lat="43.76425" lon="6.31865">
        <ele>828.31</ele>
        <time>2013-10-02T10:23:13Z</time>
      </trkpt>
      <trkpt lat="43.7643" lon="6.31879">
        <ele>828.31</ele>
        <time>2013-10-02T10:23:15Z</time>
      </trkpt>
      <trkpt lat="43.76433" lon="6.31884">
        <ele>827.83</ele>
        <time>2013-10-02T10:23:16Z</time>
      </trkpt>
      <trkpt lat="43.76437" lon="6.3189">
        <ele>828.31</ele>
        <time>2013-10-02T10:23:17Z</time>
      </trkpt>
      <trkpt lat="43.76441" lon="6.31894">
        <ele>828.31</ele>
        <time>2013-10-02T10:23:18Z</time>
      </trkpt>
      <trkpt lat="43.76446" lon="6.31898">
        <ele>828.31</ele>
        <time>2013-10-02T10:23:19Z</time>
      </trkpt>
      <trkpt lat="43.7645" lon="6.31902">
        <ele>828.31</ele>
        <time>2013-10-02T10:23:20Z</time>
      </trkpt>
      <trkpt lat="43.76455" lon="6.31906">
        <ele>828.79</ele>
        <time>2013-10-02T10:23:21Z</time>
      </trkpt>
      <trkpt lat="43.76459" lon="6.3191">
        <ele>828.79</ele>
        <time>2013-10-02T10:23:22Z</time>
      </trkpt>
      <trkpt lat="43.76468" lon="6.3192">
        <ele>827.83</ele>
        <time>2013-10-02T10:23:24Z</time>
      </trkpt>
      <trkpt lat="43.76475" lon="6.3193">
        <ele>827.83</ele>
        <time>2013-10-02T10:23:26Z</time>
      </trkpt>
      <trkpt lat="43.76486" lon="6.31956">
        <ele>828.79</ele>
        <time>2013-10-02T10:23:30Z</time>
      </trkpt>
      <trkpt lat="43.76496" lon="6.3199">
        <ele>829.27</ele>
        <time>2013-10-02T10:23:35Z</time>
      </trkpt>
      <trkpt lat="43.76503" lon="6.32009">
        <ele>829.27</ele>
        <time>2013-10-02T10:23:38Z</time>
      </trkpt>
      <trkpt lat="43.76505" lon="6.32014">
        <ele>829.76</ele>
        <time>2013-10-02T10:23:39Z</time>
      </trkpt>
      <trkpt lat="43.76508" lon="6.32019">
        <ele>829.76</ele>
        <time>2013-10-02T10:23:40Z</time>
      </trkpt>
      <trkpt lat="43.76519" lon="6.32038">
        <ele>830.24</ele>
        <time>2013-10-02T10:23:44Z</time>
      </trkpt>
      <trkpt lat="43.76522" lon="6.32042">
        <ele>830.24</ele>
        <time>2013-10-02T10:23:45Z</time>
      </trkpt>
      <trkpt lat="43.7653" lon="6.32051">
        <ele>830.24</ele>
        <time>2013-10-02T10:23:47Z</time>
      </trkpt>
      <trkpt lat="43.76533" lon="6.32056">
        <ele>829.76</ele>
        <time>2013-10-02T10:23:48Z</time>
      </trkpt>
      <trkpt lat="43.76542" lon="6.32069">
        <ele>830.72</ele>
        <time>2013-10-02T10:23:51Z</time>
      </trkpt>
      <trkpt lat="43.76579" lon="6.32127">
        <ele>831.68</ele>
        <time>2013-10-02T10:24:02Z</time>
      </trkpt>
      <trkpt lat="43.76586" lon="6.32137">
        <ele>831.68</ele>
        <time>2013-10-02T10:24:04Z</time>
      </trkpt>
      <trkpt lat="43.76589" lon="6.32143">
        <ele>832.16</ele>
        <time>2013-10-02T10:24:05Z</time>
      </trkpt>
      <trkpt lat="43.76595" lon="6.32153">
        <ele>832.16</ele>
        <time>2013-10-02T10:24:07Z</time>
      </trkpt>
      <trkpt lat="43.76611" lon="6.32189">
        <ele>833.6</ele>
        <time>2013-10-02T10:24:13Z</time>
      </trkpt>
      <trkpt lat="43.76622" lon="6.3222">
        <ele>834.08</ele>
        <time>2013-10-02T10:24:18Z</time>
      </trkpt>
      <trkpt lat="43.76627" lon="6.32232">
        <ele>834.56</ele>
        <time>2013-10-02T10:24:20Z</time>
      </trkpt>
      <trkpt lat="43.76649" lon="6.32297">
        <ele>836</ele>
        <time>2013-10-02T10:24:30Z</time>
      </trkpt>
      <trkpt lat="43.76668" lon="6.32348">
        <ele>837.45</ele>
        <time>2013-10-02T10:24:39Z</time>
      </trkpt>
      <trkpt lat="43.76671" lon="6.32353">
        <ele>837.93</ele>
        <time>2013-10-02T10:24:40Z</time>
      </trkpt>
      <trkpt lat="43.76675" lon="6.32358">
        <ele>837.93</ele>
        <time>2013-10-02T10:24:41Z</time>
      </trkpt>
      <trkpt lat="43.76684" lon="6.32374">
        <ele>837.93</ele>
        <time>2013-10-02T10:24:44Z</time>
      </trkpt>
      <trkpt lat="43.76698" lon="6.32399">
        <ele>838.41</ele>
        <time>2013-10-02T10:24:49Z</time>
      </trkpt>
      <trkpt lat="43.7672" lon="6.32436">
        <ele>839.85</ele>
        <time>2013-10-02T10:24:56Z</time>
      </trkpt>
      <trkpt lat="43.76723" lon="6.32443">
        <ele>840.33</ele>
        <time>2013-10-02T10:24:57Z</time>
      </trkpt>
      <trkpt lat="43.76725" lon="6.32449">
        <ele>839.85</ele>
        <time>2013-10-02T10:24:58Z</time>
      </trkpt>
      <trkpt lat="43.76726" lon="6.32455">
        <ele>839.85</ele>
        <time>2013-10-02T10:24:59Z</time>
      </trkpt>
      <trkpt lat="43.76727" lon="6.32462">
        <ele>840.33</ele>
        <time>2013-10-02T10:25:00Z</time>
      </trkpt>
      <trkpt lat="43.76734" lon="6.32489">
        <ele>840.33</ele>
        <time>2013-10-02T10:25:04Z</time>
      </trkpt>
      <trkpt lat="43.76736" lon="6.32495">
        <ele>840.81</ele>
        <time>2013-10-02T10:25:05Z</time>
      </trkpt>
      <trkpt lat="43.76739" lon="6.32501">
        <ele>840.81</ele>
        <time>2013-10-02T10:25:06Z</time>
      </trkpt>
      <trkpt lat="43.76744" lon="6.32511">
        <ele>841.29</ele>
        <time>2013-10-02T10:25:08Z</time>
      </trkpt>
      <trkpt lat="43.76747" lon="6.32515">
        <ele>841.77</ele>
        <time>2013-10-02T10:25:09Z</time>
      </trkpt>
      <trkpt lat="43.7675" lon="6.3252">
        <ele>842.25</ele>
        <time>2013-10-02T10:25:10Z</time>
      </trkpt>
      <trkpt lat="43.76752" lon="6.32524">
        <ele>842.73</ele>
        <time>2013-10-02T10:25:11Z</time>
      </trkpt>
      <trkpt lat="43.76755" lon="6.32529">
        <ele>842.73</ele>
        <time>2013-10-02T10:25:12Z</time>
      </trkpt>
      <trkpt lat="43.76757" lon="6.32534">
        <ele>842.73</ele>
        <time>2013-10-02T10:25:13Z</time>
      </trkpt>
      <trkpt lat="43.76759" lon="6.32539">
        <ele>842.73</ele>
        <time>2013-10-02T10:25:14Z</time>
      </trkpt>
      <trkpt lat="43.76763" lon="6.32548">
        <ele>842.73</ele>
        <time>2013-10-02T10:25:16Z</time>
      </trkpt>
      <trkpt lat="43.76771" lon="6.32577">
        <ele>843.69</ele>
        <time>2013-10-02T10:25:21Z</time>
      </trkpt>
      <trkpt lat="43.76771" lon="6.32583">
        <ele>843.69</ele>
        <time>2013-10-02T10:25:22Z</time>
      </trkpt>
      <trkpt lat="43.76771" lon="6.32589">
        <ele>843.69</ele>
        <time>2013-10-02T10:25:23Z</time>
      </trkpt>
      <trkpt lat="43.76771" lon="6.32632">
        <ele>845.62</ele>
        <time>2013-10-02T10:25:31Z</time>
      </trkpt>
      <trkpt lat="43.76772" lon="6.32649">
        <ele>846.58</ele>
        <time>2013-10-02T10:25:34Z</time>
      </trkpt>
      <trkpt lat="43.76776" lon="6.32672">
        <ele>847.06</ele>
        <time>2013-10-02T10:25:38Z</time>
      </trkpt>
      <trkpt lat="43.76778" lon="6.32677">
        <ele>847.06</ele>
        <time>2013-10-02T10:25:39Z</time>
      </trkpt>
      <trkpt lat="43.76779" lon="6.32682">
        <ele>847.54</ele>
        <time>2013-10-02T10:25:40Z</time>
      </trkpt>
      <trkpt lat="43.76787" lon="6.32695">
        <ele>847.54</ele>
        <time>2013-10-02T10:25:43Z</time>
      </trkpt>
      <trkpt lat="43.76815" lon="6.32717">
        <ele>848.98</ele>
        <time>2013-10-02T10:25:51Z</time>
      </trkpt>
      <trkpt lat="43.76821" lon="6.32724">
        <ele>849.94</ele>
        <time>2013-10-02T10:25:57Z</time>
      </trkpt>
      <trkpt lat="43.7682" lon="6.32733">
        <ele>850.42</ele>
        <time>2013-10-02T10:26:00Z</time>
      </trkpt>
      <trkpt lat="43.76818" lon="6.32775">
        <ele>851.38</ele>
        <time>2013-10-02T10:26:06Z</time>
      </trkpt>
      <trkpt lat="43.76822" lon="6.32777">
        <ele>851.38</ele>
        <time>2013-10-02T10:26:07Z</time>
      </trkpt>
      <trkpt lat="43.76824" lon="6.32786">
        <ele>851.87</ele>
        <time>2013-10-02T10:26:09Z</time>
      </trkpt>
      <trkpt lat="43.76825" lon="6.32788">
        <ele>851.87</ele>
        <time>2013-10-02T10:26:10Z</time>
      </trkpt>
      <trkpt lat="43.76818" lon="6.32798">
        <ele>851.87</ele>
        <time>2013-10-02T10:26:11Z</time>
      </trkpt>
      <trkpt lat="43.76815" lon="6.32801">
        <ele>852.35</ele>
        <time>2013-10-02T10:26:12Z</time>
      </trkpt>
      <trkpt lat="43.76816" lon="6.328">
        <ele>852.83</ele>
        <time>2013-10-02T10:26:13Z</time>
      </trkpt>
      <trkpt lat="43.76818" lon="6.32797">
        <ele>852.35</ele>
        <time>2013-10-02T10:26:14Z</time>
      </trkpt>
      <trkpt lat="43.76819" lon="6.32794">
        <ele>852.35</ele>
        <time>2013-10-02T10:26:15Z</time>
      </trkpt>
      <trkpt lat="43.76829" lon="6.32761">
        <ele>854.27</ele>
        <time>2013-10-02T10:26:24Z</time>
      </trkpt>
      <trkpt lat="43.76832" lon="6.32755">
        <ele>855.23</ele>
        <time>2013-10-02T10:26:26Z</time>
      </trkpt>
      <trkpt lat="43.7684" lon="6.32749">
        <ele>855.23</ele>
        <time>2013-10-02T10:26:29Z</time>
      </trkpt>
      <trkpt lat="43.76843" lon="6.3275">
        <ele>854.75</ele>
        <time>2013-10-02T10:26:30Z</time>
      </trkpt>
      <trkpt lat="43.76845" lon="6.32753">
        <ele>854.75</ele>
        <time>2013-10-02T10:26:31Z</time>
      </trkpt>
      <trkpt lat="43.76846" lon="6.32756">
        <ele>855.71</ele>
        <time>2013-10-02T10:26:32Z</time>
      </trkpt>
      <trkpt lat="43.76847" lon="6.32759">
        <ele>855.71</ele>
        <time>2013-10-02T10:26:33Z</time>
      </trkpt>
      <trkpt lat="43.76846" lon="6.32763">
        <ele>856.19</ele>
        <time>2013-10-02T10:26:34Z</time>
      </trkpt>
      <trkpt lat="43.76846" lon="6.32766">
        <ele>855.71</ele>
        <time>2013-10-02T10:26:35Z</time>
      </trkpt>
      <trkpt lat="43.76844" lon="6.3277">
        <ele>856.19</ele>
        <time>2013-10-02T10:26:36Z</time>
      </trkpt>
      <trkpt lat="43.76842" lon="6.32773">
        <ele>855.71</ele>
        <time>2013-10-02T10:26:37Z</time>
      </trkpt>
      <trkpt lat="43.76841" lon="6.32776">
        <ele>856.67</ele>
        <time>2013-10-02T10:26:38Z</time>
      </trkpt>
      <trkpt lat="43.76839" lon="6.32779">
        <ele>856.67</ele>
        <time>2013-10-02T10:26:39Z</time>
      </trkpt>
      <trkpt lat="43.76837" lon="6.32782">
        <ele>857.15</ele>
        <time>2013-10-02T10:26:40Z</time>
      </trkpt>
      <trkpt lat="43.76824" lon="6.3281">
        <ele>859.08</ele>
        <time>2013-10-02T10:26:49Z</time>
      </trkpt>
      <trkpt lat="43.76814" lon="6.32842">
        <ele>861.48</ele>
        <time>2013-10-02T10:26:59Z</time>
      </trkpt>
      <trkpt lat="43.76805" lon="6.32877">
        <ele>862.92</ele>
        <time>2013-10-02T10:27:08Z</time>
      </trkpt>
      <trkpt lat="43.76804" lon="6.3288">
        <ele>862.92</ele>
        <time>2013-10-02T10:27:09Z</time>
      </trkpt>
      <trkpt lat="43.76807" lon="6.32922">
        <ele>864.36</ele>
        <time>2013-10-02T10:27:19Z</time>
      </trkpt>
      <trkpt lat="43.76814" lon="6.32961">
        <ele>866.29</ele>
        <time>2013-10-02T10:27:28Z</time>
      </trkpt>
      <trkpt lat="43.76826" lon="6.32993">
        <ele>868.21</ele>
        <time>2013-10-02T10:27:37Z</time>
      </trkpt>
      <trkpt lat="43.76854" lon="6.33016">
        <ele>870.61</ele>
        <time>2013-10-02T10:27:48Z</time>
      </trkpt>
      <trkpt lat="43.7688" lon="6.33044">
        <ele>871.57</ele>
        <time>2013-10-02T10:27:58Z</time>
      </trkpt>
      <trkpt lat="43.76898" lon="6.33056">
        <ele>872.05</ele>
        <time>2013-10-02T10:28:05Z</time>
      </trkpt>
      <trkpt lat="43.76923" lon="6.33069">
        <ele>873.98</ele>
        <time>2013-10-02T10:28:13Z</time>
      </trkpt>
      <trkpt lat="43.76959" lon="6.33095">
        <ele>875.9</ele>
        <time>2013-10-02T10:28:24Z</time>
      </trkpt>
      <trkpt lat="43.76989" lon="6.33132">
        <ele>877.82</ele>
        <time>2013-10-02T10:28:35Z</time>
      </trkpt>
      <trkpt lat="43.77017" lon="6.33167">
        <ele>880.71</ele>
        <time>2013-10-02T10:28:46Z</time>
      </trkpt>
      <trkpt lat="43.77037" lon="6.33197">
        <ele>882.63</ele>
        <time>2013-10-02T10:28:55Z</time>
      </trkpt>
      <trkpt lat="43.77052" lon="6.33221">
        <ele>884.07</ele>
        <time>2013-10-02T10:29:02Z</time>
      </trkpt>
      <trkpt lat="43.77078" lon="6.33266">
        <ele>886.47</ele>
        <time>2013-10-02T10:29:14Z</time>
      </trkpt>
      <trkpt lat="43.7711" lon="6.33317">
        <ele>888.4</ele>
        <time>2013-10-02T10:29:28Z</time>
      </trkpt>
      <trkpt lat="43.77132" lon="6.33358">
        <ele>888.88</ele>
        <time>2013-10-02T10:29:37Z</time>
      </trkpt>
      <trkpt lat="43.77141" lon="6.3338">
        <ele>889.84</ele>
        <time>2013-10-02T10:29:41Z</time>
      </trkpt>
      <trkpt lat="43.77142" lon="6.33386">
        <ele>889.84</ele>
        <time>2013-10-02T10:29:42Z</time>
      </trkpt>
      <trkpt lat="43.77142" lon="6.33392">
        <ele>889.84</ele>
        <time>2013-10-02T10:29:43Z</time>
      </trkpt>
      <trkpt lat="43.77148" lon="6.33439">
        <ele>892.24</ele>
        <time>2013-10-02T10:29:53Z</time>
      </trkpt>
      <trkpt lat="43.77175" lon="6.33462">
        <ele>894.16</ele>
        <time>2013-10-02T10:30:04Z</time>
      </trkpt>
      <trkpt lat="43.77199" lon="6.33476">
        <ele>896.09</ele>
        <time>2013-10-02T10:30:14Z</time>
      </trkpt>
      <trkpt lat="43.77217" lon="6.3351">
        <ele>897.53</ele>
        <time>2013-10-02T10:30:24Z</time>
      </trkpt>
      <trkpt lat="43.77228" lon="6.33551">
        <ele>899.45</ele>
        <time>2013-10-02T10:30:34Z</time>
      </trkpt>
      <trkpt lat="43.77242" lon="6.33592">
        <ele>901.37</ele>
        <time>2013-10-02T10:30:45Z</time>
      </trkpt>
      <trkpt lat="43.77265" lon="6.3361">
        <ele>903.3</ele>
        <time>2013-10-02T10:30:54Z</time>
      </trkpt>
      <trkpt lat="43.77272" lon="6.33608">
        <ele>904.26</ele>
        <time>2013-10-02T10:30:57Z</time>
      </trkpt>
      <trkpt lat="43.77303" lon="6.33588">
        <ele>906.66</ele>
        <time>2013-10-02T10:31:09Z</time>
      </trkpt>
      <trkpt lat="43.77306" lon="6.33588">
        <ele>907.14</ele>
        <time>2013-10-02T10:31:10Z</time>
      </trkpt>
      <trkpt lat="43.77325" lon="6.33604">
        <ele>909.54</ele>
        <time>2013-10-02T10:31:18Z</time>
      </trkpt>
      <trkpt lat="43.77342" lon="6.33632">
        <ele>910.51</ele>
        <time>2013-10-02T10:31:27Z</time>
      </trkpt>
      <trkpt lat="43.77364" lon="6.33666">
        <ele>912.91</ele>
        <time>2013-10-02T10:31:38Z</time>
      </trkpt>
      <trkpt lat="43.77398" lon="6.33685">
        <ele>915.79</ele>
        <time>2013-10-02T10:31:50Z</time>
      </trkpt>
      <trkpt lat="43.77423" lon="6.33698">
        <ele>917.72</ele>
        <time>2013-10-02T10:31:58Z</time>
      </trkpt>
      <trkpt lat="43.77457" lon="6.33713">
        <ele>919.16</ele>
        <time>2013-10-02T10:32:09Z</time>
      </trkpt>
      <trkpt lat="43.77465" lon="6.33717">
        <ele>920.6</ele>
        <time>2013-10-02T10:32:12Z</time>
      </trkpt>
      <trkpt lat="43.77495" lon="6.33737">
        <ele>922.04</ele>
        <time>2013-10-02T10:32:22Z</time>
      </trkpt>
      <trkpt lat="43.775" lon="6.33774">
        <ele>923.48</ele>
        <time>2013-10-02T10:32:30Z</time>
      </trkpt>
      <trkpt lat="43.77478" lon="6.33817">
        <ele>925.89</ele>
        <time>2013-10-02T10:32:41Z</time>
      </trkpt>
      <trkpt lat="43.77461" lon="6.33862">
        <ele>928.29</ele>
        <time>2013-10-02T10:32:52Z</time>
      </trkpt>
      <trkpt lat="43.77455" lon="6.3392">
        <ele>929.73</ele>
        <time>2013-10-02T10:33:03Z</time>
      </trkpt>
      <trkpt lat="43.77455" lon="6.33926">
        <ele>930.21</ele>
        <time>2013-10-02T10:33:04Z</time>
      </trkpt>
      <trkpt lat="43.77455" lon="6.33938">
        <ele>930.69</ele>
        <time>2013-10-02T10:33:06Z</time>
      </trkpt>
      <trkpt lat="43.77457" lon="6.33955">
        <ele>931.65</ele>
        <time>2013-10-02T10:33:09Z</time>
      </trkpt>
      <trkpt lat="43.77457" lon="6.33961">
        <ele>931.65</ele>
        <time>2013-10-02T10:33:10Z</time>
      </trkpt>
      <trkpt lat="43.77464" lon="6.33988">
        <ele>932.62</ele>
        <time>2013-10-02T10:33:15Z</time>
      </trkpt>
      <trkpt lat="43.77473" lon="6.34022">
        <ele>933.58</ele>
        <time>2013-10-02T10:33:21Z</time>
      </trkpt>
      <trkpt lat="43.77483" lon="6.34044">
        <ele>934.06</ele>
        <time>2013-10-02T10:33:25Z</time>
      </trkpt>
      <trkpt lat="43.77486" lon="6.34048">
        <ele>933.58</ele>
        <time>2013-10-02T10:33:26Z</time>
      </trkpt>
      <trkpt lat="43.77526" lon="6.34109">
        <ele>935.98</ele>
        <time>2013-10-02T10:33:39Z</time>
      </trkpt>
      <trkpt lat="43.7753" lon="6.34111">
        <ele>935.5</ele>
        <time>2013-10-02T10:33:40Z</time>
      </trkpt>
      <trkpt lat="43.77534" lon="6.34112">
        <ele>935.98</ele>
        <time>2013-10-02T10:33:41Z</time>
      </trkpt>
      <trkpt lat="43.77538" lon="6.34112">
        <ele>936.46</ele>
        <time>2013-10-02T10:33:42Z</time>
      </trkpt>
      <trkpt lat="43.77541" lon="6.34109">
        <ele>935.98</ele>
        <time>2013-10-02T10:33:43Z</time>
      </trkpt>
      <trkpt lat="43.77543" lon="6.34106">
        <ele>936.46</ele>
        <time>2013-10-02T10:33:44Z</time>
      </trkpt>
      <trkpt lat="43.77545" lon="6.34101">
        <ele>935.98</ele>
        <time>2013-10-02T10:33:45Z</time>
      </trkpt>
      <trkpt lat="43.77546" lon="6.34098">
        <ele>936.46</ele>
        <time>2013-10-02T10:33:46Z</time>
      </trkpt>
      <trkpt lat="43.77548" lon="6.34096">
        <ele>935.98</ele>
        <time>2013-10-02T10:33:47Z</time>
      </trkpt>
      <trkpt lat="43.77548" lon="6.34093">
        <ele>936.46</ele>
        <time>2013-10-02T10:33:55Z</time>
      </trkpt>
      <trkpt lat="43.77548" lon="6.34092">
        <ele>936.94</ele>
        <time>2013-10-02T10:34:58Z</time>
      </trkpt>
      <trkpt lat="43.77548" lon="6.34089">
        <ele>936.94</ele>
        <time>2013-10-02T10:34:59Z</time>
      </trkpt>
      <trkpt lat="43.77548" lon="6.34086">
        <ele>936.94</ele>
        <time>2013-10-02T10:35:00Z</time>
      </trkpt>
      <trkpt lat="43.77548" lon="6.34083">
        <ele>937.42</ele>
        <time>2013-10-02T10:35:01Z</time>
      </trkpt>
      <trkpt lat="43.77547" lon="6.3408">
        <ele>936.94</ele>
        <time>2013-10-02T10:35:02Z</time>
      </trkpt>
      <trkpt lat="43.7754" lon="6.34044">
        <ele>937.42</ele>
        <time>2013-10-02T10:35:11Z</time>
      </trkpt>
      <trkpt lat="43.7753" lon="6.33988">
        <ele>938.86</ele>
        <time>2013-10-02T10:35:22Z</time>
      </trkpt>
      <trkpt lat="43.77527" lon="6.33959">
        <ele>938.86</ele>
        <time>2013-10-02T10:35:27Z</time>
      </trkpt>
      <trkpt lat="43.77528" lon="6.33953">
        <ele>938.86</ele>
        <time>2013-10-02T10:35:28Z</time>
      </trkpt>
      <trkpt lat="43.77529" lon="6.33948">
        <ele>938.86</ele>
        <time>2013-10-02T10:35:29Z</time>
      </trkpt>
      <trkpt lat="43.77532" lon="6.33943">
        <ele>938.86</ele>
        <time>2013-10-02T10:35:30Z</time>
      </trkpt>
      <trkpt lat="43.77537" lon="6.33941">
        <ele>938.86</ele>
        <time>2013-10-02T10:35:31Z</time>
      </trkpt>
      <trkpt lat="43.77543" lon="6.33943">
        <ele>937.9</ele>
        <time>2013-10-02T10:35:32Z</time>
      </trkpt>
      <trkpt lat="43.77548" lon="6.33948">
        <ele>937.9</ele>
        <time>2013-10-02T10:35:33Z</time>
      </trkpt>
      <trkpt lat="43.77551" lon="6.33956">
        <ele>937.42</ele>
        <time>2013-10-02T10:35:34Z</time>
      </trkpt>
      <trkpt lat="43.77554" lon="6.33965">
        <ele>937.42</ele>
        <time>2013-10-02T10:35:35Z</time>
      </trkpt>
      <trkpt lat="43.77555" lon="6.33974">
        <ele>937.42</ele>
        <time>2013-10-02T10:35:36Z</time>
      </trkpt>
      <trkpt lat="43.77568" lon="6.34039">
        <ele>933.58</ele>
        <time>2013-10-02T10:35:42Z</time>
      </trkpt>
      <trkpt lat="43.7757" lon="6.34051">
        <ele>933.58</ele>
        <time>2013-10-02T10:35:43Z</time>
      </trkpt>
      <trkpt lat="43.77581" lon="6.34106">
        <ele>929.73</ele>
        <time>2013-10-02T10:35:47Z</time>
      </trkpt>
      <trkpt lat="43.77588" lon="6.34131">
        <ele>928.77</ele>
        <time>2013-10-02T10:35:49Z</time>
      </trkpt>
      <trkpt lat="43.77593" lon="6.34141">
        <ele>927.81</ele>
        <time>2013-10-02T10:35:50Z</time>
      </trkpt>
      <trkpt lat="43.77601" lon="6.3415">
        <ele>926.85</ele>
        <time>2013-10-02T10:35:51Z</time>
      </trkpt>
      <trkpt lat="43.7761" lon="6.34155">
        <ele>926.37</ele>
        <time>2013-10-02T10:35:52Z</time>
      </trkpt>
      <trkpt lat="43.77621" lon="6.34158">
        <ele>926.37</ele>
        <time>2013-10-02T10:35:53Z</time>
      </trkpt>
      <trkpt lat="43.77631" lon="6.34159">
        <ele>925.41</ele>
        <time>2013-10-02T10:35:54Z</time>
      </trkpt>
      <trkpt lat="43.77662" lon="6.34161">
        <ele>923.96</ele>
        <time>2013-10-02T10:35:57Z</time>
      </trkpt>
      <trkpt lat="43.77754" lon="6.3417">
        <ele>923.48</ele>
        <time>2013-10-02T10:36:07Z</time>
      </trkpt>
      <trkpt lat="43.77837" lon="6.34177">
        <ele>923</ele>
        <time>2013-10-02T10:36:18Z</time>
      </trkpt>
      <trkpt lat="43.7787" lon="6.34176">
        <ele>923.96</ele>
        <time>2013-10-02T10:36:23Z</time>
      </trkpt>
      <trkpt lat="43.77876" lon="6.34173">
        <ele>924.93</ele>
        <time>2013-10-02T10:36:24Z</time>
      </trkpt>
      <trkpt lat="43.7788" lon="6.34169">
        <ele>925.41</ele>
        <time>2013-10-02T10:36:25Z</time>
      </trkpt>
      <trkpt lat="43.77884" lon="6.34165">
        <ele>925.41</ele>
        <time>2013-10-02T10:36:26Z</time>
      </trkpt>
      <trkpt lat="43.77887" lon="6.3416">
        <ele>925.41</ele>
        <time>2013-10-02T10:36:27Z</time>
      </trkpt>
      <trkpt lat="43.77889" lon="6.34154">
        <ele>925.41</ele>
        <time>2013-10-02T10:36:28Z</time>
      </trkpt>
      <trkpt lat="43.7789" lon="6.34149">
        <ele>926.37</ele>
        <time>2013-10-02T10:36:29Z</time>
      </trkpt>
      <trkpt lat="43.77892" lon="6.34143">
        <ele>926.85</ele>
        <time>2013-10-02T10:36:30Z</time>
      </trkpt>
      <trkpt lat="43.77906" lon="6.34081">
        <ele>929.73</ele>
        <time>2013-10-02T10:36:43Z</time>
      </trkpt>
      <trkpt lat="43.77928" lon="6.34045">
        <ele>933.1</ele>
        <time>2013-10-02T10:36:54Z</time>
      </trkpt>
      <trkpt lat="43.77958" lon="6.34026">
        <ele>935.98</ele>
        <time>2013-10-02T10:37:05Z</time>
      </trkpt>
      <trkpt lat="43.77978" lon="6.34011">
        <ele>937.9</ele>
        <time>2013-10-02T10:37:14Z</time>
      </trkpt>
      <trkpt lat="43.77979" lon="6.34001">
        <ele>937.9</ele>
        <time>2013-10-02T10:37:17Z</time>
      </trkpt>
      <trkpt lat="43.77968" lon="6.33975">
        <ele>939.35</ele>
        <time>2013-10-02T10:37:25Z</time>
      </trkpt>
      <trkpt lat="43.77966" lon="6.33973">
        <ele>939.83</ele>
        <time>2013-10-02T10:37:26Z</time>
      </trkpt>
      <trkpt lat="43.77953" lon="6.3396">
        <ele>940.31</ele>
        <time>2013-10-02T10:37:31Z</time>
      </trkpt>
      <trkpt lat="43.77951" lon="6.33958">
        <ele>940.31</ele>
        <time>2013-10-02T10:37:32Z</time>
      </trkpt>
      <trkpt lat="43.77924" lon="6.33925">
        <ele>942.71</ele>
        <time>2013-10-02T10:37:44Z</time>
      </trkpt>
      <trkpt lat="43.779" lon="6.33879">
        <ele>944.63</ele>
        <time>2013-10-02T10:37:58Z</time>
      </trkpt>
      <trkpt lat="43.77885" lon="6.33848">
        <ele>946.56</ele>
        <time>2013-10-02T10:38:08Z</time>
      </trkpt>
      <trkpt lat="43.77869" lon="6.33816">
        <ele>948.96</ele>
        <time>2013-10-02T10:38:18Z</time>
      </trkpt>
      <trkpt lat="43.7785" lon="6.3378">
        <ele>951.84</ele>
        <time>2013-10-02T10:38:30Z</time>
      </trkpt>
      <trkpt lat="43.77835" lon="6.33754">
        <ele>953.77</ele>
        <time>2013-10-02T10:38:39Z</time>
      </trkpt>
      <trkpt lat="43.77816" lon="6.33721">
        <ele>955.69</ele>
        <time>2013-10-02T10:38:50Z</time>
      </trkpt>
      <trkpt lat="43.77801" lon="6.33695">
        <ele>959.05</ele>
        <time>2013-10-02T10:38:59Z</time>
      </trkpt>
      <trkpt lat="43.77784" lon="6.3366">
        <ele>960.98</ele>
        <time>2013-10-02T10:39:11Z</time>
      </trkpt>
      <trkpt lat="43.7777" lon="6.33627">
        <ele>963.86</ele>
        <time>2013-10-02T10:39:22Z</time>
      </trkpt>
      <trkpt lat="43.7776" lon="6.33593">
        <ele>967.22</ele>
        <time>2013-10-02T10:39:33Z</time>
      </trkpt>
      <trkpt lat="43.77745" lon="6.33561">
        <ele>968.67</ele>
        <time>2013-10-02T10:39:44Z</time>
      </trkpt>
      <trkpt lat="43.77729" lon="6.33539">
        <ele>971.07</ele>
        <time>2013-10-02T10:39:53Z</time>
      </trkpt>
      <trkpt lat="43.77712" lon="6.33511">
        <ele>973.47</ele>
        <time>2013-10-02T10:40:04Z</time>
      </trkpt>
      <trkpt lat="43.77694" lon="6.33473">
        <ele>975.39</ele>
        <time>2013-10-02T10:40:15Z</time>
      </trkpt>
      <trkpt lat="43.77672" lon="6.33428">
        <ele>975.88</ele>
        <time>2013-10-02T10:40:26Z</time>
      </trkpt>
      <trkpt lat="43.77668" lon="6.33418">
        <ele>975.39</ele>
        <time>2013-10-02T10:40:28Z</time>
      </trkpt>
      <trkpt lat="43.77666" lon="6.33413">
        <ele>976.36</ele>
        <time>2013-10-02T10:40:29Z</time>
      </trkpt>
      <trkpt lat="43.77661" lon="6.33404">
        <ele>975.88</ele>
        <time>2013-10-02T10:40:31Z</time>
      </trkpt>
      <trkpt lat="43.77641" lon="6.33376">
        <ele>976.36</ele>
        <time>2013-10-02T10:40:38Z</time>
      </trkpt>
      <trkpt lat="43.77598" lon="6.33345">
        <ele>975.39</ele>
        <time>2013-10-02T10:40:48Z</time>
      </trkpt>
      <trkpt lat="43.7757" lon="6.33331">
        <ele>976.84</ele>
        <time>2013-10-02T10:40:54Z</time>
      </trkpt>
      <trkpt lat="43.77565" lon="6.33327">
        <ele>976.84</ele>
        <time>2013-10-02T10:40:55Z</time>
      </trkpt>
      <trkpt lat="43.77562" lon="6.33324">
        <ele>976.84</ele>
        <time>2013-10-02T10:40:56Z</time>
      </trkpt>
      <trkpt lat="43.77532" lon="6.33291">
        <ele>979.24</ele>
        <time>2013-10-02T10:41:06Z</time>
      </trkpt>
      <trkpt lat="43.775" lon="6.33249">
        <ele>981.64</ele>
        <time>2013-10-02T10:41:18Z</time>
      </trkpt>
      <trkpt lat="43.77471" lon="6.33215">
        <ele>982.12</ele>
        <time>2013-10-02T10:41:27Z</time>
      </trkpt>
      <trkpt lat="43.77441" lon="6.33194">
        <ele>982.6</ele>
        <time>2013-10-02T10:41:34Z</time>
      </trkpt>
      <trkpt lat="43.77437" lon="6.33192">
        <ele>982.6</ele>
        <time>2013-10-02T10:41:35Z</time>
      </trkpt>
      <trkpt lat="43.77379" lon="6.33176">
        <ele>984.05</ele>
        <time>2013-10-02T10:41:47Z</time>
      </trkpt>
      <trkpt lat="43.77375" lon="6.33174">
        <ele>984.05</ele>
        <time>2013-10-02T10:41:48Z</time>
      </trkpt>
      <trkpt lat="43.77371" lon="6.33171">
        <ele>984.05</ele>
        <time>2013-10-02T10:41:49Z</time>
      </trkpt>
      <trkpt lat="43.77367" lon="6.33167">
        <ele>984.53</ele>
        <time>2013-10-02T10:41:50Z</time>
      </trkpt>
      <trkpt lat="43.77363" lon="6.33164">
        <ele>984.05</ele>
        <time>2013-10-02T10:41:51Z</time>
      </trkpt>
      <trkpt lat="43.77359" lon="6.3316">
        <ele>985.01</ele>
        <time>2013-10-02T10:41:52Z</time>
      </trkpt>
      <trkpt lat="43.77352" lon="6.33151">
        <ele>985.01</ele>
        <time>2013-10-02T10:41:54Z</time>
      </trkpt>
      <trkpt lat="43.77345" lon="6.33136">
        <ele>985.01</ele>
        <time>2013-10-02T10:41:57Z</time>
      </trkpt>
      <trkpt lat="43.77332" lon="6.33101">
        <ele>985.97</ele>
        <time>2013-10-02T10:42:04Z</time>
      </trkpt>
      <trkpt lat="43.7731" lon="6.33042">
        <ele>987.89</ele>
        <time>2013-10-02T10:42:16Z</time>
      </trkpt>
      <trkpt lat="43.77292" lon="6.32974">
        <ele>990.3</ele>
        <time>2013-10-02T10:42:29Z</time>
      </trkpt>
      <trkpt lat="43.7729" lon="6.32913">
        <ele>992.7</ele>
        <time>2013-10-02T10:42:41Z</time>
      </trkpt>
      <trkpt lat="43.77296" lon="6.32861">
        <ele>993.66</ele>
        <time>2013-10-02T10:42:51Z</time>
      </trkpt>
      <trkpt lat="43.77307" lon="6.32803">
        <ele>995.58</ele>
        <time>2013-10-02T10:43:02Z</time>
      </trkpt>
      <trkpt lat="43.77308" lon="6.32756">
        <ele>996.54</ele>
        <time>2013-10-02T10:43:11Z</time>
      </trkpt>
      <trkpt lat="43.77299" lon="6.32705">
        <ele>997.99</ele>
        <time>2013-10-02T10:43:21Z</time>
      </trkpt>
      <trkpt lat="43.77297" lon="6.327">
        <ele>998.47</ele>
        <time>2013-10-02T10:43:22Z</time>
      </trkpt>
      <trkpt lat="43.77273" lon="6.32637">
        <ele>1000.39</ele>
        <time>2013-10-02T10:43:34Z</time>
      </trkpt>
      <trkpt lat="43.77276" lon="6.32584">
        <ele>1002.31</ele>
        <time>2013-10-02T10:43:44Z</time>
      </trkpt>
      <trkpt lat="43.77281" lon="6.32546">
        <ele>1002.79</ele>
        <time>2013-10-02T10:43:51Z</time>
      </trkpt>
      <trkpt lat="43.77281" lon="6.32539">
        <ele>1003.27</ele>
        <time>2013-10-02T10:43:52Z</time>
      </trkpt>
      <trkpt lat="43.7728" lon="6.32533">
        <ele>1002.79</ele>
        <time>2013-10-02T10:43:53Z</time>
      </trkpt>
      <trkpt lat="43.77279" lon="6.32527">
        <ele>1002.79</ele>
        <time>2013-10-02T10:43:54Z</time>
      </trkpt>
      <trkpt lat="43.77277" lon="6.32521">
        <ele>1002.79</ele>
        <time>2013-10-02T10:43:55Z</time>
      </trkpt>
      <trkpt lat="43.77274" lon="6.32516">
        <ele>1003.27</ele>
        <time>2013-10-02T10:43:56Z</time>
      </trkpt>
      <trkpt lat="43.77271" lon="6.32511">
        <ele>1003.27</ele>
        <time>2013-10-02T10:43:57Z</time>
      </trkpt>
      <trkpt lat="43.77268" lon="6.32506">
        <ele>1002.79</ele>
        <time>2013-10-02T10:43:58Z</time>
      </trkpt>
      <trkpt lat="43.77254" lon="6.32489">
        <ele>1003.27</ele>
        <time>2013-10-02T10:44:02Z</time>
      </trkpt>
      <trkpt lat="43.7722" lon="6.32444">
        <ele>1006.16</ele>
        <time>2013-10-02T10:44:14Z</time>
      </trkpt>
      <trkpt lat="43.77185" lon="6.32417">
        <ele>1008.08</ele>
        <time>2013-10-02T10:44:25Z</time>
      </trkpt>
      <trkpt lat="43.77154" lon="6.32383">
        <ele>1010.48</ele>
        <time>2013-10-02T10:44:36Z</time>
      </trkpt>
      <trkpt lat="43.77116" lon="6.32338">
        <ele>1012.41</ele>
        <time>2013-10-02T10:44:50Z</time>
      </trkpt>
      <trkpt lat="43.77073" lon="6.32286">
        <ele>1014.33</ele>
        <time>2013-10-02T10:45:05Z</time>
      </trkpt>
      <trkpt lat="43.77047" lon="6.32233">
        <ele>1016.73</ele>
        <time>2013-10-02T10:45:18Z</time>
      </trkpt>
      <trkpt lat="43.7703" lon="6.32182">
        <ele>1019.62</ele>
        <time>2013-10-02T10:45:30Z</time>
      </trkpt>
      <trkpt lat="43.7702" lon="6.32137">
        <ele>1021.06</ele>
        <time>2013-10-02T10:45:40Z</time>
      </trkpt>
      <trkpt lat="43.77015" lon="6.32082">
        <ele>1020.58</ele>
        <time>2013-10-02T10:45:49Z</time>
      </trkpt>
      <trkpt lat="43.77013" lon="6.31998">
        <ele>1022.02</ele>
        <time>2013-10-02T10:46:01Z</time>
      </trkpt>
      <trkpt lat="43.77012" lon="6.31993">
        <ele>1022.02</ele>
        <time>2013-10-02T10:46:02Z</time>
      </trkpt>
      <trkpt lat="43.7701" lon="6.31987">
        <ele>1022.02</ele>
        <time>2013-10-02T10:46:03Z</time>
      </trkpt>
      <trkpt lat="43.76994" lon="6.31942">
        <ele>1025.38</ele>
        <time>2013-10-02T10:46:13Z</time>
      </trkpt>
      <trkpt lat="43.76996" lon="6.3189">
        <ele>1026.34</ele>
        <time>2013-10-02T10:46:24Z</time>
      </trkpt>
      <trkpt lat="43.77003" lon="6.3186">
        <ele>1027.79</ele>
        <time>2013-10-02T10:46:29Z</time>
      </trkpt>
      <trkpt lat="43.77026" lon="6.31779">
        <ele>1027.31</ele>
        <time>2013-10-02T10:46:40Z</time>
      </trkpt>
      <trkpt lat="43.7703" lon="6.31763">
        <ele>1027.31</ele>
        <time>2013-10-02T10:46:42Z</time>
      </trkpt>
      <trkpt lat="43.7703" lon="6.31755">
        <ele>1027.31</ele>
        <time>2013-10-02T10:46:43Z</time>
      </trkpt>
      <trkpt lat="43.77029" lon="6.31747">
        <ele>1027.79</ele>
        <time>2013-10-02T10:46:44Z</time>
      </trkpt>
      <trkpt lat="43.77027" lon="6.31739">
        <ele>1027.79</ele>
        <time>2013-10-02T10:46:45Z</time>
      </trkpt>
      <trkpt lat="43.77024" lon="6.31732">
        <ele>1028.27</ele>
        <time>2013-10-02T10:46:46Z</time>
      </trkpt>
      <trkpt lat="43.77006" lon="6.31691">
        <ele>1029.71</ele>
        <time>2013-10-02T10:46:53Z</time>
      </trkpt>
      <trkpt lat="43.77003" lon="6.31686">
        <ele>1029.71</ele>
        <time>2013-10-02T10:46:54Z</time>
      </trkpt>
      <trkpt lat="43.76974" lon="6.31654">
        <ele>1030.67</ele>
        <time>2013-10-02T10:47:02Z</time>
      </trkpt>
      <trkpt lat="43.76971" lon="6.31649">
        <ele>1031.15</ele>
        <time>2013-10-02T10:47:03Z</time>
      </trkpt>
      <trkpt lat="43.76966" lon="6.31638">
        <ele>1031.63</ele>
        <time>2013-10-02T10:47:05Z</time>
      </trkpt>
      <trkpt lat="43.76964" lon="6.31633">
        <ele>1032.11</ele>
        <time>2013-10-02T10:47:06Z</time>
      </trkpt>
      <trkpt lat="43.76962" lon="6.31627">
        <ele>1032.11</ele>
        <time>2013-10-02T10:47:07Z</time>
      </trkpt>
      <trkpt lat="43.76961" lon="6.31621">
        <ele>1032.59</ele>
        <time>2013-10-02T10:47:08Z</time>
      </trkpt>
      <trkpt lat="43.7696" lon="6.31616">
        <ele>1033.07</ele>
        <time>2013-10-02T10:47:09Z</time>
      </trkpt>
      <trkpt lat="43.76956" lon="6.31599">
        <ele>1033.55</ele>
        <time>2013-10-02T10:47:12Z</time>
      </trkpt>
      <trkpt lat="43.76954" lon="6.31594">
        <ele>1033.55</ele>
        <time>2013-10-02T10:47:13Z</time>
      </trkpt>
      <trkpt lat="43.76952" lon="6.3159">
        <ele>1033.55</ele>
        <time>2013-10-02T10:47:14Z</time>
      </trkpt>
      <trkpt lat="43.7695" lon="6.31586">
        <ele>1033.55</ele>
        <time>2013-10-02T10:47:15Z</time>
      </trkpt>
      <trkpt lat="43.76947" lon="6.31584">
        <ele>1032.59</ele>
        <time>2013-10-02T10:47:16Z</time>
      </trkpt>
      <trkpt lat="43.7694" lon="6.31578">
        <ele>1033.07</ele>
        <time>2013-10-02T10:47:23Z</time>
      </trkpt>
      <trkpt lat="43.76929" lon="6.31569">
        <ele>1033.55</ele>
        <time>2013-10-02T10:47:38Z</time>
      </trkpt>
      <trkpt lat="43.76896" lon="6.3154">
        <ele>1032.11</ele>
        <time>2013-10-02T10:47:47Z</time>
      </trkpt>
      <trkpt lat="43.76868" lon="6.31514">
        <ele>1031.15</ele>
        <time>2013-10-02T10:47:53Z</time>
      </trkpt>
      <trkpt lat="43.76865" lon="6.31506">
        <ele>1030.67</ele>
        <time>2013-10-02T10:47:54Z</time>
      </trkpt>
      <trkpt lat="43.76862" lon="6.31498">
        <ele>1030.19</ele>
        <time>2013-10-02T10:47:55Z</time>
      </trkpt>
      <trkpt lat="43.7686" lon="6.31489">
        <ele>1029.71</ele>
        <time>2013-10-02T10:47:56Z</time>
      </trkpt>
      <trkpt lat="43.76859" lon="6.3148">
        <ele>1029.71</ele>
        <time>2013-10-02T10:47:57Z</time>
      </trkpt>
      <trkpt lat="43.76842" lon="6.31379">
        <ele>1027.31</ele>
        <time>2013-10-02T10:48:07Z</time>
      </trkpt>
      <trkpt lat="43.76823" lon="6.31314">
        <ele>1023.94</ele>
        <time>2013-10-02T10:48:13Z</time>
      </trkpt>
      <trkpt lat="43.76792" lon="6.31237">
        <ele>1021.06</ele>
        <time>2013-10-02T10:48:20Z</time>
      </trkpt>
      <trkpt lat="43.76756" lon="6.31181">
        <ele>1018.65</ele>
        <time>2013-10-02T10:48:26Z</time>
      </trkpt>
      <trkpt lat="43.76751" lon="6.3117">
        <ele>1018.17</ele>
        <time>2013-10-02T10:48:27Z</time>
      </trkpt>
      <trkpt lat="43.76747" lon="6.31158">
        <ele>1017.69</ele>
        <time>2013-10-02T10:48:28Z</time>
      </trkpt>
      <trkpt lat="43.76743" lon="6.31146">
        <ele>1016.73</ele>
        <time>2013-10-02T10:48:29Z</time>
      </trkpt>
      <trkpt lat="43.7674" lon="6.31134">
        <ele>1016.73</ele>
        <time>2013-10-02T10:48:30Z</time>
      </trkpt>
      <trkpt lat="43.76738" lon="6.31121">
        <ele>1016.25</ele>
        <time>2013-10-02T10:48:31Z</time>
      </trkpt>
      <trkpt lat="43.76737" lon="6.31108">
        <ele>1016.25</ele>
        <time>2013-10-02T10:48:32Z</time>
      </trkpt>
      <trkpt lat="43.76738" lon="6.31094">
        <ele>1015.77</ele>
        <time>2013-10-02T10:48:33Z</time>
      </trkpt>
      <trkpt lat="43.76741" lon="6.31081">
        <ele>1015.29</ele>
        <time>2013-10-02T10:48:34Z</time>
      </trkpt>
      <trkpt lat="43.76745" lon="6.31069">
        <ele>1013.85</ele>
        <time>2013-10-02T10:48:35Z</time>
      </trkpt>
      <trkpt lat="43.76748" lon="6.31056">
        <ele>1013.85</ele>
        <time>2013-10-02T10:48:36Z</time>
      </trkpt>
      <trkpt lat="43.76776" lon="6.30985">
        <ele>1011.44</ele>
        <time>2013-10-02T10:48:42Z</time>
      </trkpt>
      <trkpt lat="43.76781" lon="6.30974">
        <ele>1010.96</ele>
        <time>2013-10-02T10:48:43Z</time>
      </trkpt>
      <trkpt lat="43.76785" lon="6.30961">
        <ele>1010.48</ele>
        <time>2013-10-02T10:48:44Z</time>
      </trkpt>
      <trkpt lat="43.76792" lon="6.30937">
        <ele>1009.52</ele>
        <time>2013-10-02T10:48:46Z</time>
      </trkpt>
      <trkpt lat="43.76798" lon="6.30925">
        <ele>1009.52</ele>
        <time>2013-10-02T10:48:47Z</time>
      </trkpt>
      <trkpt lat="43.76804" lon="6.30915">
        <ele>1009.04</ele>
        <time>2013-10-02T10:48:48Z</time>
      </trkpt>
      <trkpt lat="43.7681" lon="6.30905">
        <ele>1008.56</ele>
        <time>2013-10-02T10:48:49Z</time>
      </trkpt>
      <trkpt lat="43.76817" lon="6.30896">
        <ele>1008.56</ele>
        <time>2013-10-02T10:48:50Z</time>
      </trkpt>
      <trkpt lat="43.76824" lon="6.30887">
        <ele>1007.6</ele>
        <time>2013-10-02T10:48:51Z</time>
      </trkpt>
      <trkpt lat="43.76839" lon="6.30872">
        <ele>1007.6</ele>
        <time>2013-10-02T10:48:53Z</time>
      </trkpt>
      <trkpt lat="43.76847" lon="6.30866">
        <ele>1007.12</ele>
        <time>2013-10-02T10:48:54Z</time>
      </trkpt>
      <trkpt lat="43.76856" lon="6.30862">
        <ele>1006.64</ele>
        <time>2013-10-02T10:48:55Z</time>
      </trkpt>
      <trkpt lat="43.76865" lon="6.30863">
        <ele>1006.16</ele>
        <time>2013-10-02T10:48:56Z</time>
      </trkpt>
      <trkpt lat="43.76874" lon="6.30866">
        <ele>1006.16</ele>
        <time>2013-10-02T10:48:57Z</time>
      </trkpt>
      <trkpt lat="43.76882" lon="6.30871">
        <ele>1006.64</ele>
        <time>2013-10-02T10:48:58Z</time>
      </trkpt>
      <trkpt lat="43.76944" lon="6.30912">
        <ele>1006.64</ele>
        <time>2013-10-02T10:49:07Z</time>
      </trkpt>
      <trkpt lat="43.76964" lon="6.30927">
        <ele>1007.12</ele>
        <time>2013-10-02T10:49:10Z</time>
      </trkpt>
      <trkpt lat="43.76971" lon="6.3093">
        <ele>1006.64</ele>
        <time>2013-10-02T10:49:11Z</time>
      </trkpt>
      <trkpt lat="43.76979" lon="6.30932">
        <ele>1006.64</ele>
        <time>2013-10-02T10:49:12Z</time>
      </trkpt>
      <trkpt lat="43.76986" lon="6.30932">
        <ele>1006.64</ele>
        <time>2013-10-02T10:49:13Z</time>
      </trkpt>
      <trkpt lat="43.76994" lon="6.30931">
        <ele>1006.64</ele>
        <time>2013-10-02T10:49:14Z</time>
      </trkpt>
      <trkpt lat="43.77001" lon="6.30927">
        <ele>1006.64</ele>
        <time>2013-10-02T10:49:15Z</time>
      </trkpt>
      <trkpt lat="43.77008" lon="6.30922">
        <ele>1006.64</ele>
        <time>2013-10-02T10:49:16Z</time>
      </trkpt>
      <trkpt lat="43.77014" lon="6.30915">
        <ele>1005.68</ele>
        <time>2013-10-02T10:49:17Z</time>
      </trkpt>
      <trkpt lat="43.77019" lon="6.30905">
        <ele>1004.72</ele>
        <time>2013-10-02T10:49:18Z</time>
      </trkpt>
      <trkpt lat="43.77021" lon="6.30894">
        <ele>1004.23</ele>
        <time>2013-10-02T10:49:19Z</time>
      </trkpt>
      <trkpt lat="43.7702" lon="6.30882">
        <ele>1004.23</ele>
        <time>2013-10-02T10:49:20Z</time>
      </trkpt>
      <trkpt lat="43.77017" lon="6.30869">
        <ele>1004.23</ele>
        <time>2013-10-02T10:49:21Z</time>
      </trkpt>
      <trkpt lat="43.77013" lon="6.30814">
        <ele>1001.35</ele>
        <time>2013-10-02T10:49:25Z</time>
      </trkpt>
      <trkpt lat="43.77015" lon="6.308">
        <ele>1001.83</ele>
        <time>2013-10-02T10:49:26Z</time>
      </trkpt>
      <trkpt lat="43.77027" lon="6.30745">
        <ele>997.99</ele>
        <time>2013-10-02T10:49:30Z</time>
      </trkpt>
      <trkpt lat="43.77031" lon="6.30732">
        <ele>997.99</ele>
        <time>2013-10-02T10:49:31Z</time>
      </trkpt>
      <trkpt lat="43.77041" lon="6.30706">
        <ele>997.02</ele>
        <time>2013-10-02T10:49:33Z</time>
      </trkpt>
      <trkpt lat="43.77047" lon="6.30693">
        <ele>996.06</ele>
        <time>2013-10-02T10:49:34Z</time>
      </trkpt>
      <trkpt lat="43.77058" lon="6.30668">
        <ele>994.14</ele>
        <time>2013-10-02T10:49:36Z</time>
      </trkpt>
      <trkpt lat="43.77064" lon="6.30657">
        <ele>993.66</ele>
        <time>2013-10-02T10:49:37Z</time>
      </trkpt>
      <trkpt lat="43.77076" lon="6.30637">
        <ele>991.26</ele>
        <time>2013-10-02T10:49:39Z</time>
      </trkpt>
      <trkpt lat="43.77079" lon="6.30625">
        <ele>990.78</ele>
        <time>2013-10-02T10:49:40Z</time>
      </trkpt>
      <trkpt lat="43.77077" lon="6.30613">
        <ele>990.3</ele>
        <time>2013-10-02T10:49:41Z</time>
      </trkpt>
      <trkpt lat="43.77073" lon="6.30603">
        <ele>989.33</ele>
        <time>2013-10-02T10:49:42Z</time>
      </trkpt>
      <trkpt lat="43.77067" lon="6.30593">
        <ele>988.85</ele>
        <time>2013-10-02T10:49:43Z</time>
      </trkpt>
      <trkpt lat="43.7706" lon="6.30584">
        <ele>988.37</ele>
        <time>2013-10-02T10:49:44Z</time>
      </trkpt>
      <trkpt lat="43.77053" lon="6.30576">
        <ele>988.37</ele>
        <time>2013-10-02T10:49:45Z</time>
      </trkpt>
      <trkpt lat="43.77037" lon="6.3056">
        <ele>987.89</ele>
        <time>2013-10-02T10:49:47Z</time>
      </trkpt>
      <trkpt lat="43.77029" lon="6.30554">
        <ele>986.45</ele>
        <time>2013-10-02T10:49:48Z</time>
      </trkpt>
      <trkpt lat="43.77011" lon="6.30541">
        <ele>984.53</ele>
        <time>2013-10-02T10:49:50Z</time>
      </trkpt>
      <trkpt lat="43.77004" lon="6.30531">
        <ele>984.53</ele>
        <time>2013-10-02T10:49:51Z</time>
      </trkpt>
      <trkpt lat="43.76998" lon="6.3052">
        <ele>983.57</ele>
        <time>2013-10-02T10:49:52Z</time>
      </trkpt>
      <trkpt lat="43.76995" lon="6.30507">
        <ele>984.05</ele>
        <time>2013-10-02T10:49:53Z</time>
      </trkpt>
      <trkpt lat="43.76992" lon="6.30494">
        <ele>984.05</ele>
        <time>2013-10-02T10:49:54Z</time>
      </trkpt>
      <trkpt lat="43.7699" lon="6.30481">
        <ele>984.05</ele>
        <time>2013-10-02T10:49:55Z</time>
      </trkpt>
      <trkpt lat="43.76989" lon="6.30467">
        <ele>982.6</ele>
        <time>2013-10-02T10:49:56Z</time>
      </trkpt>
      <trkpt lat="43.76989" lon="6.30454">
        <ele>982.6</ele>
        <time>2013-10-02T10:49:57Z</time>
      </trkpt>
      <trkpt lat="43.76991" lon="6.30403">
        <ele>981.16</ele>
        <time>2013-10-02T10:50:01Z</time>
      </trkpt>
      <trkpt lat="43.76993" lon="6.3039">
        <ele>981.16</ele>
        <time>2013-10-02T10:50:02Z</time>
      </trkpt>
      <trkpt lat="43.76997" lon="6.30379">
        <ele>980.68</ele>
        <time>2013-10-02T10:50:03Z</time>
      </trkpt>
      <trkpt lat="43.77004" lon="6.3037">
        <ele>980.2</ele>
        <time>2013-10-02T10:50:04Z</time>
      </trkpt>
      <trkpt lat="43.77013" lon="6.30365">
        <ele>979.72</ele>
        <time>2013-10-02T10:50:05Z</time>
      </trkpt>
      <trkpt lat="43.77022" lon="6.30363">
        <ele>979.72</ele>
        <time>2013-10-02T10:50:06Z</time>
      </trkpt>
      <trkpt lat="43.77031" lon="6.30363">
        <ele>978.76</ele>
        <time>2013-10-02T10:50:07Z</time>
      </trkpt>
      <trkpt lat="43.7704" lon="6.30364">
        <ele>978.76</ele>
        <time>2013-10-02T10:50:08Z</time>
      </trkpt>
      <trkpt lat="43.7705" lon="6.30366">
        <ele>978.76</ele>
        <time>2013-10-02T10:50:09Z</time>
      </trkpt>
      <trkpt lat="43.77059" lon="6.30369">
        <ele>977.8</ele>
        <time>2013-10-02T10:50:10Z</time>
      </trkpt>
      <trkpt lat="43.77069" lon="6.30373">
        <ele>977.32</ele>
        <time>2013-10-02T10:50:11Z</time>
      </trkpt>
      <trkpt lat="43.77078" lon="6.30375">
        <ele>977.8</ele>
        <time>2013-10-02T10:50:12Z</time>
      </trkpt>
      <trkpt lat="43.77088" lon="6.30373">
        <ele>977.8</ele>
        <time>2013-10-02T10:50:13Z</time>
      </trkpt>
      <trkpt lat="43.77097" lon="6.30368">
        <ele>977.8</ele>
        <time>2013-10-02T10:50:14Z</time>
      </trkpt>
      <trkpt lat="43.77105" lon="6.3036">
        <ele>976.36</ele>
        <time>2013-10-02T10:50:15Z</time>
      </trkpt>
      <trkpt lat="43.77111" lon="6.30349">
        <ele>976.36</ele>
        <time>2013-10-02T10:50:16Z</time>
      </trkpt>
      <trkpt lat="43.77116" lon="6.30337">
        <ele>976.36</ele>
        <time>2013-10-02T10:50:17Z</time>
      </trkpt>
      <trkpt lat="43.77119" lon="6.30323">
        <ele>975.88</ele>
        <time>2013-10-02T10:50:18Z</time>
      </trkpt>
      <trkpt lat="43.7712" lon="6.30309">
        <ele>974.91</ele>
        <time>2013-10-02T10:50:19Z</time>
      </trkpt>
      <trkpt lat="43.7712" lon="6.30294">
        <ele>974.43</ele>
        <time>2013-10-02T10:50:20Z</time>
      </trkpt>
      <trkpt lat="43.77121" lon="6.30265">
        <ele>973.95</ele>
        <time>2013-10-02T10:50:22Z</time>
      </trkpt>
      <trkpt lat="43.77123" lon="6.3025">
        <ele>972.03</ele>
        <time>2013-10-02T10:50:23Z</time>
      </trkpt>
      <trkpt lat="43.77126" lon="6.30237">
        <ele>972.03</ele>
        <time>2013-10-02T10:50:24Z</time>
      </trkpt>
      <trkpt lat="43.77132" lon="6.30224">
        <ele>971.55</ele>
        <time>2013-10-02T10:50:25Z</time>
      </trkpt>
      <trkpt lat="43.77138" lon="6.30212">
        <ele>970.59</ele>
        <time>2013-10-02T10:50:26Z</time>
      </trkpt>
      <trkpt lat="43.77145" lon="6.30201">
        <ele>970.59</ele>
        <time>2013-10-02T10:50:27Z</time>
      </trkpt>
      <trkpt lat="43.77153" lon="6.30192">
        <ele>968.67</ele>
        <time>2013-10-02T10:50:28Z</time>
      </trkpt>
      <trkpt lat="43.77161" lon="6.30182">
        <ele>969.63</ele>
        <time>2013-10-02T10:50:29Z</time>
      </trkpt>
      <trkpt lat="43.7719" lon="6.3014">
        <ele>966.74</ele>
        <time>2013-10-02T10:50:33Z</time>
      </trkpt>
      <trkpt lat="43.77195" lon="6.30128">
        <ele>966.26</ele>
        <time>2013-10-02T10:50:34Z</time>
      </trkpt>
      <trkpt lat="43.772" lon="6.30115">
        <ele>965.78</ele>
        <time>2013-10-02T10:50:35Z</time>
      </trkpt>
      <trkpt lat="43.77204" lon="6.30101">
        <ele>964.82</ele>
        <time>2013-10-02T10:50:36Z</time>
      </trkpt>
      <trkpt lat="43.77206" lon="6.30085">
        <ele>963.38</ele>
        <time>2013-10-02T10:50:37Z</time>
      </trkpt>
      <trkpt lat="43.77207" lon="6.3007">
        <ele>963.86</ele>
        <time>2013-10-02T10:50:38Z</time>
      </trkpt>
      <trkpt lat="43.77206" lon="6.30054">
        <ele>963.38</ele>
        <time>2013-10-02T10:50:39Z</time>
      </trkpt>
      <trkpt lat="43.77204" lon="6.30039">
        <ele>962.42</ele>
        <time>2013-10-02T10:50:40Z</time>
      </trkpt>
      <trkpt lat="43.77201" lon="6.30008">
        <ele>961.46</ele>
        <time>2013-10-02T10:50:42Z</time>
      </trkpt>
      <trkpt lat="43.77196" lon="6.29961">
        <ele>958.09</ele>
        <time>2013-10-02T10:50:45Z</time>
      </trkpt>
      <trkpt lat="43.77195" lon="6.29945">
        <ele>957.61</ele>
        <time>2013-10-02T10:50:46Z</time>
      </trkpt>
      <trkpt lat="43.77196" lon="6.29929">
        <ele>957.13</ele>
        <time>2013-10-02T10:50:47Z</time>
      </trkpt>
      <trkpt lat="43.77199" lon="6.29913">
        <ele>956.65</ele>
        <time>2013-10-02T10:50:48Z</time>
      </trkpt>
      <trkpt lat="43.77206" lon="6.29899">
        <ele>955.21</ele>
        <time>2013-10-02T10:50:49Z</time>
      </trkpt>
      <trkpt lat="43.77215" lon="6.29888">
        <ele>954.25</ele>
        <time>2013-10-02T10:50:50Z</time>
      </trkpt>
      <trkpt lat="43.77225" lon="6.29878">
        <ele>952.8</ele>
        <time>2013-10-02T10:50:51Z</time>
      </trkpt>
      <trkpt lat="43.77233" lon="6.29866">
        <ele>952.8</ele>
        <time>2013-10-02T10:50:52Z</time>
      </trkpt>
      <trkpt lat="43.77241" lon="6.29853">
        <ele>951.84</ele>
        <time>2013-10-02T10:50:53Z</time>
      </trkpt>
      <trkpt lat="43.77249" lon="6.2984">
        <ele>951.36</ele>
        <time>2013-10-02T10:50:54Z</time>
      </trkpt>
      <trkpt lat="43.77258" lon="6.29828">
        <ele>951.36</ele>
        <time>2013-10-02T10:50:55Z</time>
      </trkpt>
      <trkpt lat="43.77268" lon="6.29818">
        <ele>950.4</ele>
        <time>2013-10-02T10:50:56Z</time>
      </trkpt>
      <trkpt lat="43.77279" lon="6.29811">
        <ele>948.96</ele>
        <time>2013-10-02T10:50:57Z</time>
      </trkpt>
      <trkpt lat="43.77291" lon="6.29804">
        <ele>948</ele>
        <time>2013-10-02T10:50:58Z</time>
      </trkpt>
      <trkpt lat="43.77302" lon="6.29796">
        <ele>948</ele>
        <time>2013-10-02T10:50:59Z</time>
      </trkpt>
      <trkpt lat="43.77312" lon="6.29786">
        <ele>946.07</ele>
        <time>2013-10-02T10:51:00Z</time>
      </trkpt>
      <trkpt lat="43.77321" lon="6.29773">
        <ele>946.07</ele>
        <time>2013-10-02T10:51:01Z</time>
      </trkpt>
      <trkpt lat="43.77327" lon="6.29758">
        <ele>945.59</ele>
        <time>2013-10-02T10:51:02Z</time>
      </trkpt>
      <trkpt lat="43.77331" lon="6.29741">
        <ele>944.63</ele>
        <time>2013-10-02T10:51:03Z</time>
      </trkpt>
      <trkpt lat="43.77336" lon="6.29725">
        <ele>944.15</ele>
        <time>2013-10-02T10:51:04Z</time>
      </trkpt>
      <trkpt lat="43.7735" lon="6.29677">
        <ele>940.79</ele>
        <time>2013-10-02T10:51:07Z</time>
      </trkpt>
      <trkpt lat="43.77356" lon="6.29661">
        <ele>940.79</ele>
        <time>2013-10-02T10:51:08Z</time>
      </trkpt>
      <trkpt lat="43.77376" lon="6.29617">
        <ele>938.86</ele>
        <time>2013-10-02T10:51:11Z</time>
      </trkpt>
      <trkpt lat="43.7739" lon="6.29588">
        <ele>935.98</ele>
        <time>2013-10-02T10:51:13Z</time>
      </trkpt>
      <trkpt lat="43.77413" lon="6.29526">
        <ele>932.62</ele>
        <time>2013-10-02T10:51:17Z</time>
      </trkpt>
      <trkpt lat="43.77419" lon="6.29511">
        <ele>931.17</ele>
        <time>2013-10-02T10:51:18Z</time>
      </trkpt>
      <trkpt lat="43.77426" lon="6.29497">
        <ele>930.69</ele>
        <time>2013-10-02T10:51:19Z</time>
      </trkpt>
      <trkpt lat="43.77434" lon="6.29484">
        <ele>929.73</ele>
        <time>2013-10-02T10:51:20Z</time>
      </trkpt>
      <trkpt lat="43.77461" lon="6.29446">
        <ele>927.33</ele>
        <time>2013-10-02T10:51:23Z</time>
      </trkpt>
      <trkpt lat="43.77468" lon="6.29432">
        <ele>926.37</ele>
        <time>2013-10-02T10:51:24Z</time>
      </trkpt>
      <trkpt lat="43.77472" lon="6.29415">
        <ele>926.37</ele>
        <time>2013-10-02T10:51:25Z</time>
      </trkpt>
      <trkpt lat="43.77474" lon="6.29398">
        <ele>924.45</ele>
        <time>2013-10-02T10:51:26Z</time>
      </trkpt>
      <trkpt lat="43.77472" lon="6.29381">
        <ele>923.96</ele>
        <time>2013-10-02T10:51:27Z</time>
      </trkpt>
      <trkpt lat="43.77467" lon="6.29366">
        <ele>923.96</ele>
        <time>2013-10-02T10:51:28Z</time>
      </trkpt>
      <trkpt lat="43.77462" lon="6.29352">
        <ele>923</ele>
        <time>2013-10-02T10:51:29Z</time>
      </trkpt>
      <trkpt lat="43.7746" lon="6.29337">
        <ele>921.56</ele>
        <time>2013-10-02T10:51:30Z</time>
      </trkpt>
      <trkpt lat="43.77461" lon="6.29321">
        <ele>920.12</ele>
        <time>2013-10-02T10:51:31Z</time>
      </trkpt>
      <trkpt lat="43.77464" lon="6.29306">
        <ele>919.16</ele>
        <time>2013-10-02T10:51:32Z</time>
      </trkpt>
      <trkpt lat="43.77471" lon="6.29293">
        <ele>919.16</ele>
        <time>2013-10-02T10:51:33Z</time>
      </trkpt>
      <trkpt lat="43.77478" lon="6.2928">
        <ele>918.2</ele>
        <time>2013-10-02T10:51:34Z</time>
      </trkpt>
      <trkpt lat="43.77501" lon="6.29242">
        <ele>915.79</ele>
        <time>2013-10-02T10:51:37Z</time>
      </trkpt>
      <trkpt lat="43.7751" lon="6.2923">
        <ele>914.83</ele>
        <time>2013-10-02T10:51:38Z</time>
      </trkpt>
      <trkpt lat="43.77547" lon="6.29185">
        <ele>911.47</ele>
        <time>2013-10-02T10:51:42Z</time>
      </trkpt>
      <trkpt lat="43.77566" lon="6.29162">
        <ele>910.51</ele>
        <time>2013-10-02T10:51:44Z</time>
      </trkpt>
      <trkpt lat="43.77574" lon="6.29147">
        <ele>910.03</ele>
        <time>2013-10-02T10:51:45Z</time>
      </trkpt>
      <trkpt lat="43.77579" lon="6.29131">
        <ele>909.06</ele>
        <time>2013-10-02T10:51:46Z</time>
      </trkpt>
      <trkpt lat="43.77583" lon="6.29114">
        <ele>907.62</ele>
        <time>2013-10-02T10:51:47Z</time>
      </trkpt>
      <trkpt lat="43.77586" lon="6.29096">
        <ele>907.14</ele>
        <time>2013-10-02T10:51:48Z</time>
      </trkpt>
      <trkpt lat="43.77597" lon="6.29044">
        <ele>904.26</ele>
        <time>2013-10-02T10:51:51Z</time>
      </trkpt>
      <trkpt lat="43.77598" lon="6.29026">
        <ele>903.3</ele>
        <time>2013-10-02T10:51:52Z</time>
      </trkpt>
      <trkpt lat="43.77598" lon="6.28989">
        <ele>901.85</ele>
        <time>2013-10-02T10:51:54Z</time>
      </trkpt>
      <trkpt lat="43.776" lon="6.28971">
        <ele>900.41</ele>
        <time>2013-10-02T10:51:55Z</time>
      </trkpt>
      <trkpt lat="43.77609" lon="6.2888">
        <ele>897.05</ele>
        <time>2013-10-02T10:52:00Z</time>
      </trkpt>
      <trkpt lat="43.77609" lon="6.28825">
        <ele>893.68</ele>
        <time>2013-10-02T10:52:03Z</time>
      </trkpt>
      <trkpt lat="43.77608" lon="6.28806">
        <ele>893.2</ele>
        <time>2013-10-02T10:52:04Z</time>
      </trkpt>
      <trkpt lat="43.7761" lon="6.28731">
        <ele>889.84</ele>
        <time>2013-10-02T10:52:08Z</time>
      </trkpt>
      <trkpt lat="43.77607" lon="6.28694">
        <ele>887.91</ele>
        <time>2013-10-02T10:52:10Z</time>
      </trkpt>
      <trkpt lat="43.77604" lon="6.28675">
        <ele>887.43</ele>
        <time>2013-10-02T10:52:11Z</time>
      </trkpt>
      <trkpt lat="43.77599" lon="6.28658">
        <ele>885.99</ele>
        <time>2013-10-02T10:52:12Z</time>
      </trkpt>
      <trkpt lat="43.77592" lon="6.28642">
        <ele>885.99</ele>
        <time>2013-10-02T10:52:13Z</time>
      </trkpt>
      <trkpt lat="43.77586" lon="6.28627">
        <ele>885.03</ele>
        <time>2013-10-02T10:52:14Z</time>
      </trkpt>
      <trkpt lat="43.77581" lon="6.28613">
        <ele>884.07</ele>
        <time>2013-10-02T10:52:15Z</time>
      </trkpt>
      <trkpt lat="43.77578" lon="6.28598">
        <ele>882.63</ele>
        <time>2013-10-02T10:52:16Z</time>
      </trkpt>
      <trkpt lat="43.77577" lon="6.28581">
        <ele>882.15</ele>
        <time>2013-10-02T10:52:17Z</time>
      </trkpt>
      <trkpt lat="43.77578" lon="6.28565">
        <ele>881.19</ele>
        <time>2013-10-02T10:52:18Z</time>
      </trkpt>
      <trkpt lat="43.77581" lon="6.28549">
        <ele>880.22</ele>
        <time>2013-10-02T10:52:19Z</time>
      </trkpt>
      <trkpt lat="43.77587" lon="6.285">
        <ele>877.82</ele>
        <time>2013-10-02T10:52:22Z</time>
      </trkpt>
      <trkpt lat="43.77592" lon="6.28485">
        <ele>877.34</ele>
        <time>2013-10-02T10:52:23Z</time>
      </trkpt>
      <trkpt lat="43.77598" lon="6.28471">
        <ele>876.86</ele>
        <time>2013-10-02T10:52:24Z</time>
      </trkpt>
      <trkpt lat="43.77606" lon="6.28459">
        <ele>875.42</ele>
        <time>2013-10-02T10:52:25Z</time>
      </trkpt>
      <trkpt lat="43.77615" lon="6.28447">
        <ele>874.46</ele>
        <time>2013-10-02T10:52:26Z</time>
      </trkpt>
      <trkpt lat="43.77622" lon="6.28435">
        <ele>873.98</ele>
        <time>2013-10-02T10:52:27Z</time>
      </trkpt>
      <trkpt lat="43.77629" lon="6.28421">
        <ele>873.5</ele>
        <time>2013-10-02T10:52:28Z</time>
      </trkpt>
      <trkpt lat="43.77644" lon="6.28396">
        <ele>871.57</ele>
        <time>2013-10-02T10:52:30Z</time>
      </trkpt>
      <trkpt lat="43.77654" lon="6.28385">
        <ele>871.09</ele>
        <time>2013-10-02T10:52:31Z</time>
      </trkpt>
      <trkpt lat="43.77674" lon="6.28366">
        <ele>869.65</ele>
        <time>2013-10-02T10:52:33Z</time>
      </trkpt>
      <trkpt lat="43.77686" lon="6.28362">
        <ele>868.21</ele>
        <time>2013-10-02T10:52:34Z</time>
      </trkpt>
      <trkpt lat="43.77698" lon="6.28361">
        <ele>867.73</ele>
        <time>2013-10-02T10:52:35Z</time>
      </trkpt>
      <trkpt lat="43.77746" lon="6.28361">
        <ele>864.84</ele>
        <time>2013-10-02T10:52:39Z</time>
      </trkpt>
      <trkpt lat="43.77758" lon="6.28361">
        <ele>864.36</ele>
        <time>2013-10-02T10:52:40Z</time>
      </trkpt>
      <trkpt lat="43.77807" lon="6.28352">
        <ele>861.48</ele>
        <time>2013-10-02T10:52:44Z</time>
      </trkpt>
      <trkpt lat="43.77843" lon="6.28339">
        <ele>858.59</ele>
        <time>2013-10-02T10:52:47Z</time>
      </trkpt>
      <trkpt lat="43.77867" lon="6.28329">
        <ele>856.67</ele>
        <time>2013-10-02T10:52:49Z</time>
      </trkpt>
      <trkpt lat="43.77878" lon="6.28322">
        <ele>856.67</ele>
        <time>2013-10-02T10:52:50Z</time>
      </trkpt>
      <trkpt lat="43.7789" lon="6.28313">
        <ele>855.71</ele>
        <time>2013-10-02T10:52:51Z</time>
      </trkpt>
      <trkpt lat="43.77922" lon="6.28285">
        <ele>853.31</ele>
        <time>2013-10-02T10:52:54Z</time>
      </trkpt>
      <trkpt lat="43.77933" lon="6.28278">
        <ele>852.83</ele>
        <time>2013-10-02T10:52:55Z</time>
      </trkpt>
      <trkpt lat="43.77946" lon="6.28273">
        <ele>851.87</ele>
        <time>2013-10-02T10:52:56Z</time>
      </trkpt>
      <trkpt lat="43.77996" lon="6.28258">
        <ele>848.5</ele>
        <time>2013-10-02T10:53:00Z</time>
      </trkpt>
      <trkpt lat="43.7802" lon="6.28252">
        <ele>846.58</ele>
        <time>2013-10-02T10:53:02Z</time>
      </trkpt>
      <trkpt lat="43.78032" lon="6.28251">
        <ele>845.62</ele>
        <time>2013-10-02T10:53:03Z</time>
      </trkpt>
      <trkpt lat="43.78042" lon="6.28252">
        <ele>844.18</ele>
        <time>2013-10-02T10:53:04Z</time>
      </trkpt>
      <trkpt lat="43.78051" lon="6.28252">
        <ele>843.69</ele>
        <time>2013-10-02T10:53:05Z</time>
      </trkpt>
      <trkpt lat="43.78059" lon="6.2825">
        <ele>842.25</ele>
        <time>2013-10-02T10:53:06Z</time>
      </trkpt>
      <trkpt lat="43.78065" lon="6.28244">
        <ele>841.29</ele>
        <time>2013-10-02T10:53:07Z</time>
      </trkpt>
      <trkpt lat="43.78068" lon="6.28236">
        <ele>840.81</ele>
        <time>2013-10-02T10:53:08Z</time>
      </trkpt>
      <trkpt lat="43.78068" lon="6.28225">
        <ele>840.81</ele>
        <time>2013-10-02T10:53:09Z</time>
      </trkpt>
      <trkpt lat="43.78064" lon="6.28217">
        <ele>840.33</ele>
        <time>2013-10-02T10:53:10Z</time>
      </trkpt>
      <trkpt lat="43.78057" lon="6.28213">
        <ele>839.85</ele>
        <time>2013-10-02T10:53:11Z</time>
      </trkpt>
      <trkpt lat="43.7805" lon="6.28212">
        <ele>838.89</ele>
        <time>2013-10-02T10:53:12Z</time>
      </trkpt>
      <trkpt lat="43.78042" lon="6.28213">
        <ele>838.89</ele>
        <time>2013-10-02T10:53:13Z</time>
      </trkpt>
      <trkpt lat="43.78034" lon="6.28219">
        <ele>838.89</ele>
        <time>2013-10-02T10:53:14Z</time>
      </trkpt>
      <trkpt lat="43.78025" lon="6.28223">
        <ele>838.41</ele>
        <time>2013-10-02T10:53:15Z</time>
      </trkpt>
      <trkpt lat="43.77998" lon="6.28228">
        <ele>836.96</ele>
        <time>2013-10-02T10:53:18Z</time>
      </trkpt>
      <trkpt lat="43.77988" lon="6.28226">
        <ele>836.96</ele>
        <time>2013-10-02T10:53:19Z</time>
      </trkpt>
      <trkpt lat="43.77978" lon="6.28223">
        <ele>836.48</ele>
        <time>2013-10-02T10:53:20Z</time>
      </trkpt>
      <trkpt lat="43.77967" lon="6.28219">
        <ele>835.04</ele>
        <time>2013-10-02T10:53:21Z</time>
      </trkpt>
      <trkpt lat="43.77957" lon="6.28217">
        <ele>835.04</ele>
        <time>2013-10-02T10:53:22Z</time>
      </trkpt>
      <trkpt lat="43.77946" lon="6.28216">
        <ele>834.56</ele>
        <time>2013-10-02T10:53:23Z</time>
      </trkpt>
      <trkpt lat="43.77935" lon="6.28217">
        <ele>834.08</ele>
        <time>2013-10-02T10:53:24Z</time>
      </trkpt>
      <trkpt lat="43.77925" lon="6.28221">
        <ele>833.12</ele>
        <time>2013-10-02T10:53:25Z</time>
      </trkpt>
      <trkpt lat="43.77914" lon="6.28225">
        <ele>833.12</ele>
        <time>2013-10-02T10:53:26Z</time>
      </trkpt>
      <trkpt lat="43.77882" lon="6.28243">
        <ele>830.24</ele>
        <time>2013-10-02T10:53:29Z</time>
      </trkpt>
      <trkpt lat="43.77871" lon="6.2825">
        <ele>830.24</ele>
        <time>2013-10-02T10:53:30Z</time>
      </trkpt>
      <trkpt lat="43.7786" lon="6.28255">
        <ele>830.24</ele>
        <time>2013-10-02T10:53:31Z</time>
      </trkpt>
      <trkpt lat="43.77847" lon="6.28257">
        <ele>828.79</ele>
        <time>2013-10-02T10:53:32Z</time>
      </trkpt>
      <trkpt lat="43.77798" lon="6.28259">
        <ele>825.43</ele>
        <time>2013-10-02T10:53:36Z</time>
      </trkpt>
      <trkpt lat="43.77735" lon="6.28249">
        <ele>821.1</ele>
        <time>2013-10-02T10:53:41Z</time>
      </trkpt>
      <trkpt lat="43.77673" lon="6.2823">
        <ele>817.74</ele>
        <time>2013-10-02T10:53:46Z</time>
      </trkpt>
      <trkpt lat="43.77661" lon="6.28227">
        <ele>816.78</ele>
        <time>2013-10-02T10:53:47Z</time>
      </trkpt>
      <trkpt lat="43.77648" lon="6.28227">
        <ele>816.3</ele>
        <time>2013-10-02T10:53:48Z</time>
      </trkpt>
      <trkpt lat="43.77637" lon="6.28227">
        <ele>814.85</ele>
        <time>2013-10-02T10:53:49Z</time>
      </trkpt>
      <trkpt lat="43.77626" lon="6.2823">
        <ele>813.89</ele>
        <time>2013-10-02T10:53:50Z</time>
      </trkpt>
      <trkpt lat="43.77617" lon="6.28234">
        <ele>812.93</ele>
        <time>2013-10-02T10:53:51Z</time>
      </trkpt>
      <trkpt lat="43.77608" lon="6.28236">
        <ele>811.97</ele>
        <time>2013-10-02T10:53:52Z</time>
      </trkpt>
      <trkpt lat="43.77601" lon="6.28236">
        <ele>811.49</ele>
        <time>2013-10-02T10:53:53Z</time>
      </trkpt>
      <trkpt lat="43.77594" lon="6.28232">
        <ele>810.53</ele>
        <time>2013-10-02T10:53:54Z</time>
      </trkpt>
      <trkpt lat="43.7759" lon="6.28224">
        <ele>810.05</ele>
        <time>2013-10-02T10:53:55Z</time>
      </trkpt>
      <trkpt lat="43.77586" lon="6.28216">
        <ele>810.05</ele>
        <time>2013-10-02T10:53:56Z</time>
      </trkpt>
      <trkpt lat="43.77584" lon="6.28208">
        <ele>810.05</ele>
        <time>2013-10-02T10:53:57Z</time>
      </trkpt>
      <trkpt lat="43.77585" lon="6.28204">
        <ele>809.09</ele>
        <time>2013-10-02T10:53:58Z</time>
      </trkpt>
      <trkpt lat="43.77587" lon="6.28202">
        <ele>809.09</ele>
        <time>2013-10-02T10:53:59Z</time>
      </trkpt>
      <trkpt lat="43.77588" lon="6.28201">
        <ele>809.09</ele>
        <time>2013-10-02T10:54:00Z</time>
      </trkpt>
      <trkpt lat="43.77589" lon="6.28199">
        <ele>808.61</ele>
        <time>2013-10-02T10:54:01Z</time>
      </trkpt>
      <trkpt lat="43.77597" lon="6.28197">
        <ele>808.13</ele>
        <time>2013-10-02T10:54:02Z</time>
      </trkpt>
      <trkpt lat="43.77608" lon="6.28197">
        <ele>807.64</ele>
        <time>2013-10-02T10:54:03Z</time>
      </trkpt>
      <trkpt lat="43.77695" lon="6.28195">
        <ele>804.28</ele>
        <time>2013-10-02T10:54:10Z</time>
      </trkpt>
      <trkpt lat="43.77755" lon="6.28185">
        <ele>800.44</ele>
        <time>2013-10-02T10:54:15Z</time>
      </trkpt>
      <trkpt lat="43.77825" lon="6.28154">
        <ele>797.55</ele>
        <time>2013-10-02T10:54:21Z</time>
      </trkpt>
      <trkpt lat="43.77859" lon="6.28131">
        <ele>794.67</ele>
        <time>2013-10-02T10:54:24Z</time>
      </trkpt>
      <trkpt lat="43.7787" lon="6.28122">
        <ele>794.19</ele>
        <time>2013-10-02T10:54:25Z</time>
      </trkpt>
      <trkpt lat="43.77912" lon="6.28083">
        <ele>791.3</ele>
        <time>2013-10-02T10:54:29Z</time>
      </trkpt>
      <trkpt lat="43.77924" lon="6.28076">
        <ele>790.82</ele>
        <time>2013-10-02T10:54:30Z</time>
      </trkpt>
      <trkpt lat="43.77937" lon="6.2807">
        <ele>789.38</ele>
        <time>2013-10-02T10:54:31Z</time>
      </trkpt>
      <trkpt lat="43.77951" lon="6.28066">
        <ele>788.42</ele>
        <time>2013-10-02T10:54:32Z</time>
      </trkpt>
      <trkpt lat="43.77988" lon="6.28052">
        <ele>786.02</ele>
        <time>2013-10-02T10:54:35Z</time>
      </trkpt>
      <trkpt lat="43.78011" lon="6.28038">
        <ele>785.53</ele>
        <time>2013-10-02T10:54:37Z</time>
      </trkpt>
      <trkpt lat="43.78047" lon="6.28016">
        <ele>782.65</ele>
        <time>2013-10-02T10:54:40Z</time>
      </trkpt>
      <trkpt lat="43.78057" lon="6.28006">
        <ele>782.17</ele>
        <time>2013-10-02T10:54:41Z</time>
      </trkpt>
      <trkpt lat="43.78066" lon="6.27995">
        <ele>780.73</ele>
        <time>2013-10-02T10:54:42Z</time>
      </trkpt>
      <trkpt lat="43.78073" lon="6.27981">
        <ele>780.25</ele>
        <time>2013-10-02T10:54:43Z</time>
      </trkpt>
      <trkpt lat="43.78078" lon="6.27965">
        <ele>778.32</ele>
        <time>2013-10-02T10:54:44Z</time>
      </trkpt>
      <trkpt lat="43.7808" lon="6.27948">
        <ele>778.81</ele>
        <time>2013-10-02T10:54:45Z</time>
      </trkpt>
      <trkpt lat="43.78082" lon="6.27932">
        <ele>777.84</ele>
        <time>2013-10-02T10:54:46Z</time>
      </trkpt>
      <trkpt lat="43.78085" lon="6.27917">
        <ele>777.36</ele>
        <time>2013-10-02T10:54:47Z</time>
      </trkpt>
      <trkpt lat="43.78089" lon="6.27902">
        <ele>776.4</ele>
        <time>2013-10-02T10:54:48Z</time>
      </trkpt>
      <trkpt lat="43.78095" lon="6.27888">
        <ele>774.96</ele>
        <time>2013-10-02T10:54:49Z</time>
      </trkpt>
      <trkpt lat="43.78102" lon="6.27874">
        <ele>774.96</ele>
        <time>2013-10-02T10:54:50Z</time>
      </trkpt>
      <trkpt lat="43.78111" lon="6.27861">
        <ele>774</ele>
        <time>2013-10-02T10:54:51Z</time>
      </trkpt>
      <trkpt lat="43.7812" lon="6.27849">
        <ele>773.04</ele>
        <time>2013-10-02T10:54:52Z</time>
      </trkpt>
      <trkpt lat="43.78153" lon="6.27796">
        <ele>769.19</ele>
        <time>2013-10-02T10:54:56Z</time>
      </trkpt>
      <trkpt lat="43.78185" lon="6.27741">
        <ele>765.83</ele>
        <time>2013-10-02T10:55:00Z</time>
      </trkpt>
      <trkpt lat="43.78206" lon="6.27704">
        <ele>762.94</ele>
        <time>2013-10-02T10:55:03Z</time>
      </trkpt>
      <trkpt lat="43.78214" lon="6.27695">
        <ele>762.46</ele>
        <time>2013-10-02T10:55:04Z</time>
      </trkpt>
      <trkpt lat="43.78225" lon="6.2769">
        <ele>761.5</ele>
        <time>2013-10-02T10:55:05Z</time>
      </trkpt>
      <trkpt lat="43.78236" lon="6.27688">
        <ele>761.02</ele>
        <time>2013-10-02T10:55:06Z</time>
      </trkpt>
      <trkpt lat="43.78246" lon="6.27684">
        <ele>760.06</ele>
        <time>2013-10-02T10:55:07Z</time>
      </trkpt>
      <trkpt lat="43.78255" lon="6.27678">
        <ele>759.1</ele>
        <time>2013-10-02T10:55:08Z</time>
      </trkpt>
      <trkpt lat="43.78261" lon="6.27667">
        <ele>758.62</ele>
        <time>2013-10-02T10:55:09Z</time>
      </trkpt>
      <trkpt lat="43.78266" lon="6.27653">
        <ele>758.14</ele>
        <time>2013-10-02T10:55:10Z</time>
      </trkpt>
      <trkpt lat="43.78269" lon="6.27639">
        <ele>757.66</ele>
        <time>2013-10-02T10:55:11Z</time>
      </trkpt>
      <trkpt lat="43.78272" lon="6.27625">
        <ele>756.69</ele>
        <time>2013-10-02T10:55:12Z</time>
      </trkpt>
      <trkpt lat="43.78277" lon="6.27595">
        <ele>755.73</ele>
        <time>2013-10-02T10:55:14Z</time>
      </trkpt>
      <trkpt lat="43.78284" lon="6.27566">
        <ele>755.25</ele>
        <time>2013-10-02T10:55:16Z</time>
      </trkpt>
      <trkpt lat="43.78289" lon="6.27552">
        <ele>753.33</ele>
        <time>2013-10-02T10:55:17Z</time>
      </trkpt>
      <trkpt lat="43.78296" lon="6.27539">
        <ele>752.85</ele>
        <time>2013-10-02T10:55:18Z</time>
      </trkpt>
      <trkpt lat="43.78304" lon="6.27528">
        <ele>752.37</ele>
        <time>2013-10-02T10:55:19Z</time>
      </trkpt>
      <trkpt lat="43.78313" lon="6.27517">
        <ele>751.41</ele>
        <time>2013-10-02T10:55:20Z</time>
      </trkpt>
      <trkpt lat="43.78329" lon="6.27495">
        <ele>749.49</ele>
        <time>2013-10-02T10:55:22Z</time>
      </trkpt>
      <trkpt lat="43.78335" lon="6.27481">
        <ele>749.49</ele>
        <time>2013-10-02T10:55:23Z</time>
      </trkpt>
      <trkpt lat="43.7834" lon="6.27466">
        <ele>748.04</ele>
        <time>2013-10-02T10:55:24Z</time>
      </trkpt>
      <trkpt lat="43.78342" lon="6.2745">
        <ele>747.56</ele>
        <time>2013-10-02T10:55:25Z</time>
      </trkpt>
      <trkpt lat="43.78343" lon="6.27434">
        <ele>747.56</ele>
        <time>2013-10-02T10:55:26Z</time>
      </trkpt>
      <trkpt lat="43.78347" lon="6.27403">
        <ele>746.12</ele>
        <time>2013-10-02T10:55:28Z</time>
      </trkpt>
      <trkpt lat="43.78351" lon="6.27388">
        <ele>745.16</ele>
        <time>2013-10-02T10:55:29Z</time>
      </trkpt>
      <trkpt lat="43.78357" lon="6.27374">
        <ele>744.2</ele>
        <time>2013-10-02T10:55:30Z</time>
      </trkpt>
      <trkpt lat="43.78386" lon="6.27322">
        <ele>741.31</ele>
        <time>2013-10-02T10:55:34Z</time>
      </trkpt>
      <trkpt lat="43.78401" lon="6.27297">
        <ele>739.39</ele>
        <time>2013-10-02T10:55:36Z</time>
      </trkpt>
      <trkpt lat="43.78409" lon="6.27285">
        <ele>738.91</ele>
        <time>2013-10-02T10:55:37Z</time>
      </trkpt>
      <trkpt lat="43.78419" lon="6.27274">
        <ele>737.47</ele>
        <time>2013-10-02T10:55:38Z</time>
      </trkpt>
      <trkpt lat="43.78438" lon="6.27257">
        <ele>736.03</ele>
        <time>2013-10-02T10:55:40Z</time>
      </trkpt>
      <trkpt lat="43.78444" lon="6.27246">
        <ele>734.58</ele>
        <time>2013-10-02T10:55:41Z</time>
      </trkpt>
      <trkpt lat="43.78447" lon="6.27234">
        <ele>734.58</ele>
        <time>2013-10-02T10:55:42Z</time>
      </trkpt>
      <trkpt lat="43.78448" lon="6.27221">
        <ele>734.58</ele>
        <time>2013-10-02T10:55:43Z</time>
      </trkpt>
      <trkpt lat="43.78446" lon="6.27207">
        <ele>734.58</ele>
        <time>2013-10-02T10:55:44Z</time>
      </trkpt>
      <trkpt lat="43.78445" lon="6.27194">
        <ele>734.58</ele>
        <time>2013-10-02T10:55:45Z</time>
      </trkpt>
      <trkpt lat="43.78444" lon="6.2718">
        <ele>734.1</ele>
        <time>2013-10-02T10:55:46Z</time>
      </trkpt>
      <trkpt lat="43.78447" lon="6.27141">
        <ele>733.14</ele>
        <time>2013-10-02T10:55:49Z</time>
      </trkpt>
      <trkpt lat="43.78449" lon="6.27128">
        <ele>732.66</ele>
        <time>2013-10-02T10:55:50Z</time>
      </trkpt>
      <trkpt lat="43.78456" lon="6.27102">
        <ele>731.7</ele>
        <time>2013-10-02T10:55:52Z</time>
      </trkpt>
      <trkpt lat="43.78458" lon="6.27089">
        <ele>731.7</ele>
        <time>2013-10-02T10:55:53Z</time>
      </trkpt>
      <trkpt lat="43.78458" lon="6.27076">
        <ele>731.22</ele>
        <time>2013-10-02T10:55:54Z</time>
      </trkpt>
      <trkpt lat="43.78457" lon="6.27063">
        <ele>730.74</ele>
        <time>2013-10-02T10:55:55Z</time>
      </trkpt>
      <trkpt lat="43.78454" lon="6.2705">
        <ele>730.74</ele>
        <time>2013-10-02T10:55:56Z</time>
      </trkpt>
      <trkpt lat="43.78435" lon="6.26928">
        <ele>728.34</ele>
        <time>2013-10-02T10:56:05Z</time>
      </trkpt>
      <trkpt lat="43.78433" lon="6.26809">
        <ele>724.49</ele>
        <time>2013-10-02T10:56:14Z</time>
      </trkpt>
      <trkpt lat="43.78435" lon="6.26784">
        <ele>724.49</ele>
        <time>2013-10-02T10:56:16Z</time>
      </trkpt>
      <trkpt lat="43.78437" lon="6.26771">
        <ele>723.53</ele>
        <time>2013-10-02T10:56:17Z</time>
      </trkpt>
      <trkpt lat="43.7844" lon="6.2676">
        <ele>723.53</ele>
        <time>2013-10-02T10:56:18Z</time>
      </trkpt>
      <trkpt lat="43.78445" lon="6.26749">
        <ele>723.05</ele>
        <time>2013-10-02T10:56:19Z</time>
      </trkpt>
      <trkpt lat="43.78452" lon="6.26741">
        <ele>722.09</ele>
        <time>2013-10-02T10:56:20Z</time>
      </trkpt>
      <trkpt lat="43.7846" lon="6.26733">
        <ele>721.61</ele>
        <time>2013-10-02T10:56:21Z</time>
      </trkpt>
      <trkpt lat="43.78468" lon="6.26727">
        <ele>721.13</ele>
        <time>2013-10-02T10:56:22Z</time>
      </trkpt>
      <trkpt lat="43.78503" lon="6.26697">
        <ele>719.2</ele>
        <time>2013-10-02T10:56:26Z</time>
      </trkpt>
      <trkpt lat="43.78521" lon="6.2668">
        <ele>717.76</ele>
        <time>2013-10-02T10:56:28Z</time>
      </trkpt>
      <trkpt lat="43.78531" lon="6.26674">
        <ele>716.8</ele>
        <time>2013-10-02T10:56:29Z</time>
      </trkpt>
      <trkpt lat="43.78541" lon="6.26671">
        <ele>716.32</ele>
        <time>2013-10-02T10:56:30Z</time>
      </trkpt>
      <trkpt lat="43.7855" lon="6.2667">
        <ele>715.84</ele>
        <time>2013-10-02T10:56:31Z</time>
      </trkpt>
      <trkpt lat="43.78559" lon="6.26671">
        <ele>715.36</ele>
        <time>2013-10-02T10:56:32Z</time>
      </trkpt>
      <trkpt lat="43.78568" lon="6.26673">
        <ele>714.88</ele>
        <time>2013-10-02T10:56:33Z</time>
      </trkpt>
      <trkpt lat="43.78576" lon="6.26674">
        <ele>714.4</ele>
        <time>2013-10-02T10:56:34Z</time>
      </trkpt>
      <trkpt lat="43.78584" lon="6.26674">
        <ele>715.36</ele>
        <time>2013-10-02T10:56:35Z</time>
      </trkpt>
      <trkpt lat="43.78592" lon="6.26672">
        <ele>714.88</ele>
        <time>2013-10-02T10:56:36Z</time>
      </trkpt>
      <trkpt lat="43.78599" lon="6.26668">
        <ele>714.88</ele>
        <time>2013-10-02T10:56:37Z</time>
      </trkpt>
      <trkpt lat="43.78606" lon="6.26662">
        <ele>713.92</ele>
        <time>2013-10-02T10:56:38Z</time>
      </trkpt>
      <trkpt lat="43.78613" lon="6.26655">
        <ele>713.44</ele>
        <time>2013-10-02T10:56:39Z</time>
      </trkpt>
      <trkpt lat="43.78619" lon="6.26648">
        <ele>713.92</ele>
        <time>2013-10-02T10:56:40Z</time>
      </trkpt>
      <trkpt lat="43.78639" lon="6.26626">
        <ele>712.47</ele>
        <time>2013-10-02T10:56:43Z</time>
      </trkpt>
      <trkpt lat="43.78681" lon="6.26593">
        <ele>709.59</ele>
        <time>2013-10-02T10:56:48Z</time>
      </trkpt>
      <trkpt lat="43.7869" lon="6.26589">
        <ele>708.63</ele>
        <time>2013-10-02T10:56:49Z</time>
      </trkpt>
      <trkpt lat="43.78725" lon="6.26574">
        <ele>705.26</ele>
        <time>2013-10-02T10:56:54Z</time>
      </trkpt>
      <trkpt lat="43.78735" lon="6.26571">
        <ele>704.78</ele>
        <time>2013-10-02T10:56:56Z</time>
      </trkpt>
      <trkpt lat="43.7875" lon="6.26573">
        <ele>703.34</ele>
        <time>2013-10-02T10:57:01Z</time>
      </trkpt>
      <trkpt lat="43.7875" lon="6.26573">
        <ele>703.34</ele>
        <time>2013-10-02T10:57:24Z</time>
      </trkpt>
      <trkpt lat="43.7875" lon="6.26575">
        <ele>703.82</ele>
        <time>2013-10-02T10:57:41Z</time>
      </trkpt>
      <trkpt lat="43.78753" lon="6.26589">
        <ele>702.86</ele>
        <time>2013-10-02T10:57:44Z</time>
      </trkpt>
      <trkpt lat="43.78764" lon="6.26609">
        <ele>701.9</ele>
        <time>2013-10-02T10:57:48Z</time>
      </trkpt>
      <trkpt lat="43.78769" lon="6.26614">
        <ele>701.9</ele>
        <time>2013-10-02T10:57:49Z</time>
      </trkpt>
      <trkpt lat="43.78775" lon="6.26618">
        <ele>701.9</ele>
        <time>2013-10-02T10:57:50Z</time>
      </trkpt>
      <trkpt lat="43.78803" lon="6.26634">
        <ele>699.98</ele>
        <time>2013-10-02T10:57:54Z</time>
      </trkpt>
      <trkpt lat="43.78812" lon="6.26636">
        <ele>699.02</ele>
        <time>2013-10-02T10:57:55Z</time>
      </trkpt>
      <trkpt lat="43.78871" lon="6.26655">
        <ele>697.57</ele>
        <time>2013-10-02T10:58:02Z</time>
      </trkpt>
      <trkpt lat="43.78881" lon="6.26653">
        <ele>696.61</ele>
        <time>2013-10-02T10:58:03Z</time>
      </trkpt>
      <trkpt lat="43.7889" lon="6.26648">
        <ele>696.13</ele>
        <time>2013-10-02T10:58:04Z</time>
      </trkpt>
      <trkpt lat="43.78897" lon="6.26639">
        <ele>695.65</ele>
        <time>2013-10-02T10:58:05Z</time>
      </trkpt>
      <trkpt lat="43.78902" lon="6.26628">
        <ele>694.69</ele>
        <time>2013-10-02T10:58:06Z</time>
      </trkpt>
      <trkpt lat="43.78905" lon="6.26614">
        <ele>694.21</ele>
        <time>2013-10-02T10:58:07Z</time>
      </trkpt>
      <trkpt lat="43.78907" lon="6.26598">
        <ele>694.21</ele>
        <time>2013-10-02T10:58:08Z</time>
      </trkpt>
      <trkpt lat="43.78908" lon="6.26583">
        <ele>693.25</ele>
        <time>2013-10-02T10:58:09Z</time>
      </trkpt>
      <trkpt lat="43.78911" lon="6.26569">
        <ele>692.29</ele>
        <time>2013-10-02T10:58:10Z</time>
      </trkpt>
      <trkpt lat="43.78927" lon="6.2653">
        <ele>689.88</ele>
        <time>2013-10-02T10:58:13Z</time>
      </trkpt>
      <trkpt lat="43.78935" lon="6.26521">
        <ele>688.92</ele>
        <time>2013-10-02T10:58:14Z</time>
      </trkpt>
      <trkpt lat="43.78945" lon="6.26516">
        <ele>688.92</ele>
        <time>2013-10-02T10:58:15Z</time>
      </trkpt>
      <trkpt lat="43.78955" lon="6.26514">
        <ele>688.92</ele>
        <time>2013-10-02T10:58:16Z</time>
      </trkpt>
      <trkpt lat="43.78986" lon="6.26514">
        <ele>687</ele>
        <time>2013-10-02T10:58:19Z</time>
      </trkpt>
      <trkpt lat="43.79035" lon="6.26498">
        <ele>684.6</ele>
        <time>2013-10-02T10:58:24Z</time>
      </trkpt>
      <trkpt lat="43.79063" lon="6.26483">
        <ele>683.15</ele>
        <time>2013-10-02T10:58:27Z</time>
      </trkpt>
      <trkpt lat="43.79073" lon="6.26483">
        <ele>683.15</ele>
        <time>2013-10-02T10:58:28Z</time>
      </trkpt>
      <trkpt lat="43.79133" lon="6.26506">
        <ele>682.19</ele>
        <time>2013-10-02T10:58:35Z</time>
      </trkpt>
      <trkpt lat="43.79141" lon="6.26507">
        <ele>681.71</ele>
        <time>2013-10-02T10:58:36Z</time>
      </trkpt>
      <trkpt lat="43.79149" lon="6.26506">
        <ele>681.71</ele>
        <time>2013-10-02T10:58:37Z</time>
      </trkpt>
      <trkpt lat="43.79183" lon="6.26497">
        <ele>680.75</ele>
        <time>2013-10-02T10:58:41Z</time>
      </trkpt>
      <trkpt lat="43.79259" lon="6.26498">
        <ele>677.87</ele>
        <time>2013-10-02T10:58:49Z</time>
      </trkpt>
      <trkpt lat="43.79286" lon="6.2649">
        <ele>677.39</ele>
        <time>2013-10-02T10:58:52Z</time>
      </trkpt>
      <trkpt lat="43.79304" lon="6.26489">
        <ele>676.42</ele>
        <time>2013-10-02T10:58:54Z</time>
      </trkpt>
      <trkpt lat="43.79313" lon="6.26485">
        <ele>675.94</ele>
        <time>2013-10-02T10:58:55Z</time>
      </trkpt>
      <trkpt lat="43.79321" lon="6.26479">
        <ele>675.46</ele>
        <time>2013-10-02T10:58:56Z</time>
      </trkpt>
      <trkpt lat="43.79339" lon="6.26466">
        <ele>674.5</ele>
        <time>2013-10-02T10:58:58Z</time>
      </trkpt>
      <trkpt lat="43.79356" lon="6.26452">
        <ele>674.02</ele>
        <time>2013-10-02T10:59:00Z</time>
      </trkpt>
      <trkpt lat="43.79364" lon="6.26442">
        <ele>673.06</ele>
        <time>2013-10-02T10:59:01Z</time>
      </trkpt>
      <trkpt lat="43.79371" lon="6.26429">
        <ele>673.06</ele>
        <time>2013-10-02T10:59:02Z</time>
      </trkpt>
      <trkpt lat="43.79375" lon="6.26417">
        <ele>672.58</ele>
        <time>2013-10-02T10:59:03Z</time>
      </trkpt>
      <trkpt lat="43.79379" lon="6.26403">
        <ele>671.62</ele>
        <time>2013-10-02T10:59:04Z</time>
      </trkpt>
      <trkpt lat="43.79382" lon="6.26389">
        <ele>671.62</ele>
        <time>2013-10-02T10:59:05Z</time>
      </trkpt>
      <trkpt lat="43.79386" lon="6.26375">
        <ele>670.18</ele>
        <time>2013-10-02T10:59:06Z</time>
      </trkpt>
      <trkpt lat="43.79392" lon="6.26362">
        <ele>670.18</ele>
        <time>2013-10-02T10:59:07Z</time>
      </trkpt>
      <trkpt lat="43.79428" lon="6.26306">
        <ele>666.81</ele>
        <time>2013-10-02T10:59:12Z</time>
      </trkpt>
      <trkpt lat="43.79436" lon="6.26296">
        <ele>666.81</ele>
        <time>2013-10-02T10:59:13Z</time>
      </trkpt>
      <trkpt lat="43.79442" lon="6.26285">
        <ele>666.81</ele>
        <time>2013-10-02T10:59:14Z</time>
      </trkpt>
      <trkpt lat="43.79446" lon="6.26274">
        <ele>666.33</ele>
        <time>2013-10-02T10:59:15Z</time>
      </trkpt>
      <trkpt lat="43.79451" lon="6.26263">
        <ele>665.85</ele>
        <time>2013-10-02T10:59:16Z</time>
      </trkpt>
      <trkpt lat="43.79456" lon="6.26252">
        <ele>665.85</ele>
        <time>2013-10-02T10:59:17Z</time>
      </trkpt>
      <trkpt lat="43.79463" lon="6.26243">
        <ele>665.85</ele>
        <time>2013-10-02T10:59:18Z</time>
      </trkpt>
      <trkpt lat="43.79472" lon="6.26238">
        <ele>664.89</ele>
        <time>2013-10-02T10:59:19Z</time>
      </trkpt>
      <trkpt lat="43.79481" lon="6.26235">
        <ele>665.37</ele>
        <time>2013-10-02T10:59:20Z</time>
      </trkpt>
      <trkpt lat="43.79488" lon="6.26233">
        <ele>665.85</ele>
        <time>2013-10-02T10:59:21Z</time>
      </trkpt>
      <trkpt lat="43.79495" lon="6.26232">
        <ele>665.37</ele>
        <time>2013-10-02T10:59:22Z</time>
      </trkpt>
      <trkpt lat="43.79502" lon="6.26235">
        <ele>664.89</ele>
        <time>2013-10-02T10:59:23Z</time>
      </trkpt>
      <trkpt lat="43.79509" lon="6.2624">
        <ele>664.89</ele>
        <time>2013-10-02T10:59:24Z</time>
      </trkpt>
      <trkpt lat="43.79514" lon="6.26249">
        <ele>665.37</ele>
        <time>2013-10-02T10:59:25Z</time>
      </trkpt>
      <trkpt lat="43.79519" lon="6.26265">
        <ele>664.89</ele>
        <time>2013-10-02T10:59:26Z</time>
      </trkpt>
      <trkpt lat="43.79529" lon="6.26286">
        <ele>665.85</ele>
        <time>2013-10-02T10:59:28Z</time>
      </trkpt>
      <trkpt lat="43.79535" lon="6.26294">
        <ele>665.85</ele>
        <time>2013-10-02T10:59:29Z</time>
      </trkpt>
      <trkpt lat="43.79542" lon="6.26301">
        <ele>666.33</ele>
        <time>2013-10-02T10:59:30Z</time>
      </trkpt>
      <trkpt lat="43.79565" lon="6.26312">
        <ele>666.33</ele>
        <time>2013-10-02T10:59:33Z</time>
      </trkpt>
      <trkpt lat="43.79613" lon="6.26309">
        <ele>665.85</ele>
        <time>2013-10-02T10:59:39Z</time>
      </trkpt>
      <trkpt lat="43.7962" lon="6.26305">
        <ele>665.85</ele>
        <time>2013-10-02T10:59:40Z</time>
      </trkpt>
      <trkpt lat="43.79643" lon="6.26292">
        <ele>665.85</ele>
        <time>2013-10-02T10:59:43Z</time>
      </trkpt>
      <trkpt lat="43.79651" lon="6.2629">
        <ele>665.37</ele>
        <time>2013-10-02T10:59:44Z</time>
      </trkpt>
      <trkpt lat="43.79668" lon="6.26288">
        <ele>665.85</ele>
        <time>2013-10-02T10:59:46Z</time>
      </trkpt>
      <trkpt lat="43.79675" lon="6.26285">
        <ele>665.37</ele>
        <time>2013-10-02T10:59:47Z</time>
      </trkpt>
      <trkpt lat="43.79683" lon="6.2628">
        <ele>665.37</ele>
        <time>2013-10-02T10:59:48Z</time>
      </trkpt>
      <trkpt lat="43.7969" lon="6.26273">
        <ele>665.37</ele>
        <time>2013-10-02T10:59:49Z</time>
      </trkpt>
      <trkpt lat="43.79696" lon="6.26266">
        <ele>665.37</ele>
        <time>2013-10-02T10:59:50Z</time>
      </trkpt>
      <trkpt lat="43.79703" lon="6.26259">
        <ele>665.37</ele>
        <time>2013-10-02T10:59:51Z</time>
      </trkpt>
      <trkpt lat="43.7971" lon="6.26254">
        <ele>665.37</ele>
        <time>2013-10-02T10:59:52Z</time>
      </trkpt>
      <trkpt lat="43.79718" lon="6.2625">
        <ele>664.89</ele>
        <time>2013-10-02T10:59:53Z</time>
      </trkpt>
      <trkpt lat="43.79742" lon="6.26235">
        <ele>664.41</ele>
        <time>2013-10-02T10:59:56Z</time>
      </trkpt>
      <trkpt lat="43.79749" lon="6.26228">
        <ele>663.93</ele>
        <time>2013-10-02T10:59:57Z</time>
      </trkpt>
      <trkpt lat="43.79756" lon="6.2622">
        <ele>663.93</ele>
        <time>2013-10-02T10:59:58Z</time>
      </trkpt>
      <trkpt lat="43.79783" lon="6.26191">
        <ele>663.93</ele>
        <time>2013-10-02T11:00:02Z</time>
      </trkpt>
      <trkpt lat="43.7979" lon="6.26185">
        <ele>664.89</ele>
        <time>2013-10-02T11:00:03Z</time>
      </trkpt>
      <trkpt lat="43.79798" lon="6.26181">
        <ele>664.41</ele>
        <time>2013-10-02T11:00:04Z</time>
      </trkpt>
      <trkpt lat="43.79806" lon="6.26175">
        <ele>664.41</ele>
        <time>2013-10-02T11:00:05Z</time>
      </trkpt>
      <trkpt lat="43.79811" lon="6.26167">
        <ele>663.93</ele>
        <time>2013-10-02T11:00:06Z</time>
      </trkpt>
      <trkpt lat="43.79814" lon="6.26159">
        <ele>663.93</ele>
        <time>2013-10-02T11:00:07Z</time>
      </trkpt>
      <trkpt lat="43.79817" lon="6.2615">
        <ele>664.41</ele>
        <time>2013-10-02T11:00:08Z</time>
      </trkpt>
      <trkpt lat="43.79818" lon="6.26143">
        <ele>663.93</ele>
        <time>2013-10-02T11:00:09Z</time>
      </trkpt>
      <trkpt lat="43.79814" lon="6.26131">
        <ele>664.89</ele>
        <time>2013-10-02T11:00:10Z</time>
      </trkpt>
      <trkpt lat="43.7981" lon="6.26122">
        <ele>665.37</ele>
        <time>2013-10-02T11:00:11Z</time>
      </trkpt>
      <trkpt lat="43.79805" lon="6.26113">
        <ele>665.37</ele>
        <time>2013-10-02T11:00:12Z</time>
      </trkpt>
      <trkpt lat="43.798" lon="6.26106">
        <ele>665.37</ele>
        <time>2013-10-02T11:00:13Z</time>
      </trkpt>
      <trkpt lat="43.79797" lon="6.261">
        <ele>665.37</ele>
        <time>2013-10-02T11:00:14Z</time>
      </trkpt>
      <trkpt lat="43.79795" lon="6.26095">
        <ele>665.37</ele>
        <time>2013-10-02T11:00:15Z</time>
      </trkpt>
      <trkpt lat="43.79793" lon="6.26092">
        <ele>665.37</ele>
        <time>2013-10-02T11:00:16Z</time>
      </trkpt>
      <trkpt lat="43.79788" lon="6.2609">
        <ele>666.33</ele>
        <time>2013-10-02T11:00:17Z</time>
      </trkpt>
      <trkpt lat="43.79786" lon="6.26088">
        <ele>666.33</ele>
        <time>2013-10-02T11:00:18Z</time>
      </trkpt>
      <trkpt lat="43.79785" lon="6.26087">
        <ele>666.33</ele>
        <time>2013-10-02T11:00:24Z</time>
      </trkpt>
      <trkpt lat="43.79781" lon="6.26084">
        <ele>665.85</ele>
        <time>2013-10-02T11:00:47Z</time>
      </trkpt>
      <trkpt lat="43.79782" lon="6.26083">
        <ele>665.37</ele>
        <time>2013-10-02T11:01:14Z</time>
      </trkpt>
      <trkpt lat="43.79783" lon="6.26082">
        <ele>666.33</ele>
        <time>2013-10-02T11:01:15Z</time>
      </trkpt>
      <trkpt lat="43.79784" lon="6.2608">
        <ele>665.85</ele>
        <time>2013-10-02T11:01:16Z</time>
      </trkpt>
      <trkpt lat="43.79785" lon="6.26078">
        <ele>665.85</ele>
        <time>2013-10-02T11:01:17Z</time>
      </trkpt>
      <trkpt lat="43.79786" lon="6.26074">
        <ele>665.85</ele>
        <time>2013-10-02T11:01:18Z</time>
      </trkpt>
      <trkpt lat="43.79786" lon="6.26072">
        <ele>665.85</ele>
        <time>2013-10-02T11:01:19Z</time>
      </trkpt>
      <trkpt lat="43.79787" lon="6.26069">
        <ele>666.33</ele>
        <time>2013-10-02T11:01:20Z</time>
      </trkpt>
      <trkpt lat="43.79788" lon="6.26067">
        <ele>666.33</ele>
        <time>2013-10-02T11:01:21Z</time>
      </trkpt>
      <trkpt lat="43.79789" lon="6.26064">
        <ele>666.33</ele>
        <time>2013-10-02T11:01:22Z</time>
      </trkpt>
      <trkpt lat="43.7979" lon="6.26062">
        <ele>666.81</ele>
        <time>2013-10-02T11:01:23Z</time>
      </trkpt>
      <trkpt lat="43.79792" lon="6.2606">
        <ele>666.81</ele>
        <time>2013-10-02T11:01:24Z</time>
      </trkpt>
      <trkpt lat="43.79807" lon="6.26037">
        <ele>668.25</ele>
        <time>2013-10-02T11:01:32Z</time>
      </trkpt>
      <trkpt lat="43.79816" lon="6.26015">
        <ele>669.22</ele>
        <time>2013-10-02T11:01:37Z</time>
      </trkpt>
      <trkpt lat="43.79818" lon="6.26011">
        <ele>669.7</ele>
        <time>2013-10-02T11:01:38Z</time>
      </trkpt>
      <trkpt lat="43.79845" lon="6.2597">
        <ele>670.18</ele>
        <time>2013-10-02T11:01:49Z</time>
      </trkpt>
      <trkpt lat="43.79867" lon="6.25964">
        <ele>669.7</ele>
        <time>2013-10-02T11:01:58Z</time>
      </trkpt>
      <trkpt lat="43.79869" lon="6.25964">
        <ele>669.7</ele>
        <time>2013-10-02T11:02:12Z</time>
      </trkpt>
      <trkpt lat="43.79877" lon="6.25965">
        <ele>669.22</ele>
        <time>2013-10-02T11:02:51Z</time>
      </trkpt>
      <trkpt lat="43.79881" lon="6.25964">
        <ele>669.22</ele>
        <time>2013-10-02T11:02:52Z</time>
      </trkpt>
      <trkpt lat="43.79884" lon="6.25963">
        <ele>669.7</ele>
        <time>2013-10-02T11:02:53Z</time>
      </trkpt>
      <trkpt lat="43.79888" lon="6.25961">
        <ele>670.18</ele>
        <time>2013-10-02T11:02:54Z</time>
      </trkpt>
      <trkpt lat="43.79892" lon="6.2596">
        <ele>669.7</ele>
        <time>2013-10-02T11:02:55Z</time>
      </trkpt>
      <trkpt lat="43.79896" lon="6.25958">
        <ele>669.7</ele>
        <time>2013-10-02T11:02:56Z</time>
      </trkpt>
      <trkpt lat="43.79916" lon="6.25949">
        <ele>669.7</ele>
        <time>2013-10-02T11:03:01Z</time>
      </trkpt>
      <trkpt lat="43.79957" lon="6.25955">
        <ele>669.7</ele>
        <time>2013-10-02T11:03:11Z</time>
      </trkpt>
      <trkpt lat="43.79968" lon="6.25963">
        <ele>669.7</ele>
        <time>2013-10-02T11:03:14Z</time>
      </trkpt>
      <trkpt lat="43.79973" lon="6.25964">
        <ele>669.7</ele>
        <time>2013-10-02T11:03:15Z</time>
      </trkpt>
      <trkpt lat="43.79977" lon="6.25966">
        <ele>670.18</ele>
        <time>2013-10-02T11:03:16Z</time>
      </trkpt>
      <trkpt lat="43.79982" lon="6.25967">
        <ele>670.18</ele>
        <time>2013-10-02T11:03:17Z</time>
      </trkpt>
      <trkpt lat="43.79987" lon="6.25966">
        <ele>670.18</ele>
        <time>2013-10-02T11:03:18Z</time>
      </trkpt>
      <trkpt lat="43.79991" lon="6.25965">
        <ele>670.18</ele>
        <time>2013-10-02T11:03:19Z</time>
      </trkpt>
      <trkpt lat="43.80016" lon="6.25962">
        <ele>669.7</ele>
        <time>2013-10-02T11:03:24Z</time>
      </trkpt>
      <trkpt lat="43.80048" lon="6.25964">
        <ele>669.7</ele>
        <time>2013-10-02T11:03:30Z</time>
      </trkpt>
      <trkpt lat="43.80053" lon="6.25963">
        <ele>669.7</ele>
        <time>2013-10-02T11:03:31Z</time>
      </trkpt>
      <trkpt lat="43.80058" lon="6.2596">
        <ele>669.7</ele>
        <time>2013-10-02T11:03:32Z</time>
      </trkpt>
      <trkpt lat="43.80063" lon="6.25955">
        <ele>669.7</ele>
        <time>2013-10-02T11:03:33Z</time>
      </trkpt>
      <trkpt lat="43.80067" lon="6.25951">
        <ele>669.7</ele>
        <time>2013-10-02T11:03:34Z</time>
      </trkpt>
      <trkpt lat="43.8007" lon="6.25944">
        <ele>669.7</ele>
        <time>2013-10-02T11:03:35Z</time>
      </trkpt>
      <trkpt lat="43.80072" lon="6.25938">
        <ele>669.7</ele>
        <time>2013-10-02T11:03:36Z</time>
      </trkpt>
      <trkpt lat="43.80074" lon="6.2593">
        <ele>669.7</ele>
        <time>2013-10-02T11:03:37Z</time>
      </trkpt>
      <trkpt lat="43.80075" lon="6.25922">
        <ele>669.7</ele>
        <time>2013-10-02T11:03:38Z</time>
      </trkpt>
      <trkpt lat="43.80077" lon="6.25891">
        <ele>669.7</ele>
        <time>2013-10-02T11:03:42Z</time>
      </trkpt>
      <trkpt lat="43.80078" lon="6.25867">
        <ele>669.22</ele>
        <time>2013-10-02T11:03:45Z</time>
      </trkpt>
      <trkpt lat="43.80081" lon="6.25847">
        <ele>669.22</ele>
        <time>2013-10-02T11:03:48Z</time>
      </trkpt>
      <trkpt lat="43.8008" lon="6.25842">
        <ele>670.18</ele>
        <time>2013-10-02T11:03:49Z</time>
      </trkpt>
      <trkpt lat="43.80079" lon="6.25837">
        <ele>669.7</ele>
        <time>2013-10-02T11:03:50Z</time>
      </trkpt>
      <trkpt lat="43.80077" lon="6.25832">
        <ele>669.7</ele>
        <time>2013-10-02T11:03:51Z</time>
      </trkpt>
      <trkpt lat="43.80076" lon="6.25827">
        <ele>669.7</ele>
        <time>2013-10-02T11:03:52Z</time>
      </trkpt>
      <trkpt lat="43.80069" lon="6.25816">
        <ele>670.18</ele>
        <time>2013-10-02T11:03:55Z</time>
      </trkpt>
      <trkpt lat="43.80067" lon="6.25812">
        <ele>669.7</ele>
        <time>2013-10-02T11:03:56Z</time>
      </trkpt>
      <trkpt lat="43.80065" lon="6.25808">
        <ele>669.7</ele>
        <time>2013-10-02T11:03:57Z</time>
      </trkpt>
      <trkpt lat="43.80062" lon="6.25805">
        <ele>670.18</ele>
        <time>2013-10-02T11:03:58Z</time>
      </trkpt>
      <trkpt lat="43.80059" lon="6.25802">
        <ele>670.66</ele>
        <time>2013-10-02T11:03:59Z</time>
      </trkpt>
      <trkpt lat="43.80056" lon="6.25799">
        <ele>669.7</ele>
        <time>2013-10-02T11:04:00Z</time>
      </trkpt>
      <trkpt lat="43.80053" lon="6.25797">
        <ele>669.7</ele>
        <time>2013-10-02T11:04:01Z</time>
      </trkpt>
      <trkpt lat="43.80029" lon="6.25762">
        <ele>669.7</ele>
        <time>2013-10-02T11:04:11Z</time>
      </trkpt>
      <trkpt lat="43.80025" lon="6.25753">
        <ele>669.7</ele>
        <time>2013-10-02T11:04:17Z</time>
      </trkpt>
      <trkpt lat="43.80025" lon="6.25753">
        <ele>669.7</ele>
        <time>2013-10-02T11:04:33Z</time>
      </trkpt>
      <trkpt lat="43.80026" lon="6.25749">
        <ele>669.22</ele>
        <time>2013-10-02T11:05:53Z</time>
      </trkpt>
      <trkpt lat="43.80032" lon="6.2572">
        <ele>669.7</ele>
        <time>2013-10-02T11:06:01Z</time>
      </trkpt>
      <trkpt lat="43.80039" lon="6.2571">
        <ele>669.22</ele>
        <time>2013-10-02T11:06:08Z</time>
      </trkpt>
      <trkpt lat="43.80042" lon="6.2571">
        <ele>669.22</ele>
        <time>2013-10-02T11:06:41Z</time>
      </trkpt>
      <trkpt lat="43.80042" lon="6.25709">
        <ele>669.22</ele>
        <time>2013-10-02T11:07:23Z</time>
      </trkpt>
      <trkpt lat="43.80042" lon="6.25709">
        <ele>667.29</ele>
        <time>2013-10-02T11:07:33Z</time>
      </trkpt>
      <trkpt lat="43.80043" lon="6.25709">
        <ele>667.77</ele>
        <time>2013-10-02T11:07:45Z</time>
      </trkpt>
      <trkpt lat="43.80044" lon="6.25708">
        <ele>667.77</ele>
        <time>2013-10-02T11:07:46Z</time>
      </trkpt>
      <trkpt lat="43.80046" lon="6.25707">
        <ele>667.29</ele>
        <time>2013-10-02T11:07:47Z</time>
      </trkpt>
      <trkpt lat="43.80053" lon="6.25704">
        <ele>667.77</ele>
        <time>2013-10-02T11:07:50Z</time>
      </trkpt>
      <trkpt lat="43.80071" lon="6.25678">
        <ele>669.22</ele>
        <time>2013-10-02T11:07:56Z</time>
      </trkpt>
      <trkpt lat="43.80075" lon="6.25673">
        <ele>669.7</ele>
        <time>2013-10-02T11:07:57Z</time>
      </trkpt>
      <trkpt lat="43.80121" lon="6.25622">
        <ele>669.7</ele>
        <time>2013-10-02T11:08:09Z</time>
      </trkpt>
      <trkpt lat="43.80166" lon="6.25563">
        <ele>670.18</ele>
        <time>2013-10-02T11:08:20Z</time>
      </trkpt>
      <trkpt lat="43.80175" lon="6.25555">
        <ele>670.66</ele>
        <time>2013-10-02T11:08:22Z</time>
      </trkpt>
      <trkpt lat="43.80178" lon="6.25552">
        <ele>669.7</ele>
        <time>2013-10-02T11:08:23Z</time>
      </trkpt>
      <trkpt lat="43.8018" lon="6.2555">
        <ele>669.7</ele>
        <time>2013-10-02T11:08:24Z</time>
      </trkpt>
      <trkpt lat="43.80183" lon="6.25549">
        <ele>669.7</ele>
        <time>2013-10-02T11:08:32Z</time>
      </trkpt>
      <trkpt lat="43.80195" lon="6.25546">
        <ele>669.7</ele>
        <time>2013-10-02T11:08:57Z</time>
      </trkpt>
      <trkpt lat="43.80198" lon="6.25544">
        <ele>669.22</ele>
        <time>2013-10-02T11:08:58Z</time>
      </trkpt>
      <trkpt lat="43.80202" lon="6.25542">
        <ele>669.22</ele>
        <time>2013-10-02T11:08:59Z</time>
      </trkpt>
      <trkpt lat="43.80211" lon="6.25533">
        <ele>669.7</ele>
        <time>2013-10-02T11:09:02Z</time>
      </trkpt>
      <trkpt lat="43.80214" lon="6.25529">
        <ele>669.7</ele>
        <time>2013-10-02T11:09:03Z</time>
      </trkpt>
      <trkpt lat="43.80224" lon="6.25515">
        <ele>669.7</ele>
        <time>2013-10-02T11:09:06Z</time>
      </trkpt>
      <trkpt lat="43.80229" lon="6.25504">
        <ele>669.7</ele>
        <time>2013-10-02T11:09:08Z</time>
      </trkpt>
      <trkpt lat="43.80231" lon="6.25498">
        <ele>670.18</ele>
        <time>2013-10-02T11:09:09Z</time>
      </trkpt>
      <trkpt lat="43.80233" lon="6.25491">
        <ele>669.7</ele>
        <time>2013-10-02T11:09:10Z</time>
      </trkpt>
      <trkpt lat="43.80242" lon="6.25455">
        <ele>669.7</ele>
        <time>2013-10-02T11:09:15Z</time>
      </trkpt>
      <trkpt lat="43.80245" lon="6.25449">
        <ele>670.18</ele>
        <time>2013-10-02T11:09:16Z</time>
      </trkpt>
      <trkpt lat="43.80249" lon="6.25443">
        <ele>669.7</ele>
        <time>2013-10-02T11:09:17Z</time>
      </trkpt>
      <trkpt lat="43.80253" lon="6.25438">
        <ele>670.18</ele>
        <time>2013-10-02T11:09:18Z</time>
      </trkpt>
      <trkpt lat="43.80258" lon="6.25434">
        <ele>669.22</ele>
        <time>2013-10-02T11:09:19Z</time>
      </trkpt>
      <trkpt lat="43.80263" lon="6.25432">
        <ele>669.22</ele>
        <time>2013-10-02T11:09:20Z</time>
      </trkpt>
      <trkpt lat="43.80269" lon="6.25431">
        <ele>669.7</ele>
        <time>2013-10-02T11:09:21Z</time>
      </trkpt>
      <trkpt lat="43.80275" lon="6.25431">
        <ele>669.22</ele>
        <time>2013-10-02T11:09:22Z</time>
      </trkpt>
      <trkpt lat="43.80281" lon="6.25431">
        <ele>669.22</ele>
        <time>2013-10-02T11:09:23Z</time>
      </trkpt>
      <trkpt lat="43.80287" lon="6.25433">
        <ele>669.7</ele>
        <time>2013-10-02T11:09:24Z</time>
      </trkpt>
      <trkpt lat="43.80293" lon="6.25435">
        <ele>669.7</ele>
        <time>2013-10-02T11:09:25Z</time>
      </trkpt>
      <trkpt lat="43.80299" lon="6.25438">
        <ele>669.22</ele>
        <time>2013-10-02T11:09:26Z</time>
      </trkpt>
      <trkpt lat="43.80305" lon="6.25441">
        <ele>669.7</ele>
        <time>2013-10-02T11:09:27Z</time>
      </trkpt>
      <trkpt lat="43.80311" lon="6.25443">
        <ele>669.7</ele>
        <time>2013-10-02T11:09:28Z</time>
      </trkpt>
      <trkpt lat="43.80317" lon="6.25444">
        <ele>669.22</ele>
        <time>2013-10-02T11:09:29Z</time>
      </trkpt>
      <trkpt lat="43.80323" lon="6.25445">
        <ele>669.7</ele>
        <time>2013-10-02T11:09:30Z</time>
      </trkpt>
      <trkpt lat="43.80335" lon="6.25445">
        <ele>669.7</ele>
        <time>2013-10-02T11:09:32Z</time>
      </trkpt>
      <trkpt lat="43.80341" lon="6.25442">
        <ele>669.7</ele>
        <time>2013-10-02T11:09:33Z</time>
      </trkpt>
      <trkpt lat="43.80357" lon="6.25433">
        <ele>669.7</ele>
        <time>2013-10-02T11:09:36Z</time>
      </trkpt>
      <trkpt lat="43.80373" lon="6.25418">
        <ele>670.18</ele>
        <time>2013-10-02T11:09:39Z</time>
      </trkpt>
      <trkpt lat="43.80378" lon="6.25413">
        <ele>669.7</ele>
        <time>2013-10-02T11:09:40Z</time>
      </trkpt>
      <trkpt lat="43.80382" lon="6.25407">
        <ele>669.7</ele>
        <time>2013-10-02T11:09:41Z</time>
      </trkpt>
      <trkpt lat="43.80387" lon="6.25402">
        <ele>669.7</ele>
        <time>2013-10-02T11:09:42Z</time>
      </trkpt>
      <trkpt lat="43.80393" lon="6.25398">
        <ele>669.7</ele>
        <time>2013-10-02T11:09:43Z</time>
      </trkpt>
      <trkpt lat="43.80399" lon="6.25398">
        <ele>669.7</ele>
        <time>2013-10-02T11:09:44Z</time>
      </trkpt>
      <trkpt lat="43.80405" lon="6.254">
        <ele>669.22</ele>
        <time>2013-10-02T11:09:45Z</time>
      </trkpt>
      <trkpt lat="43.80411" lon="6.25403">
        <ele>669.22</ele>
        <time>2013-10-02T11:09:46Z</time>
      </trkpt>
      <trkpt lat="43.80416" lon="6.25407">
        <ele>670.18</ele>
        <time>2013-10-02T11:09:47Z</time>
      </trkpt>
      <trkpt lat="43.80422" lon="6.2541">
        <ele>669.7</ele>
        <time>2013-10-02T11:09:48Z</time>
      </trkpt>
      <trkpt lat="43.80428" lon="6.25411">
        <ele>669.7</ele>
        <time>2013-10-02T11:09:49Z</time>
      </trkpt>
      <trkpt lat="43.80435" lon="6.25412">
        <ele>669.7</ele>
        <time>2013-10-02T11:09:50Z</time>
      </trkpt>
      <trkpt lat="43.80441" lon="6.2541">
        <ele>670.18</ele>
        <time>2013-10-02T11:09:51Z</time>
      </trkpt>
      <trkpt lat="43.80447" lon="6.25408">
        <ele>669.7</ele>
        <time>2013-10-02T11:09:52Z</time>
      </trkpt>
      <trkpt lat="43.80453" lon="6.25404">
        <ele>669.22</ele>
        <time>2013-10-02T11:09:53Z</time>
      </trkpt>
      <trkpt lat="43.80459" lon="6.25402">
        <ele>670.18</ele>
        <time>2013-10-02T11:09:54Z</time>
      </trkpt>
      <trkpt lat="43.80465" lon="6.25401">
        <ele>669.7</ele>
        <time>2013-10-02T11:09:55Z</time>
      </trkpt>
      <trkpt lat="43.80472" lon="6.25401">
        <ele>669.7</ele>
        <time>2013-10-02T11:09:56Z</time>
      </trkpt>
      <trkpt lat="43.80545" lon="6.25404">
        <ele>669.7</ele>
        <time>2013-10-02T11:10:07Z</time>
      </trkpt>
      <trkpt lat="43.80578" lon="6.25412">
        <ele>669.7</ele>
        <time>2013-10-02T11:10:12Z</time>
      </trkpt>
      <trkpt lat="43.80584" lon="6.25415">
        <ele>670.18</ele>
        <time>2013-10-02T11:10:13Z</time>
      </trkpt>
      <trkpt lat="43.8059" lon="6.2542">
        <ele>669.7</ele>
        <time>2013-10-02T11:10:14Z</time>
      </trkpt>
      <trkpt lat="43.80595" lon="6.25426">
        <ele>669.7</ele>
        <time>2013-10-02T11:10:15Z</time>
      </trkpt>
      <trkpt lat="43.806" lon="6.25433">
        <ele>669.7</ele>
        <time>2013-10-02T11:10:16Z</time>
      </trkpt>
      <trkpt lat="43.80604" lon="6.25441">
        <ele>669.22</ele>
        <time>2013-10-02T11:10:17Z</time>
      </trkpt>
      <trkpt lat="43.80608" lon="6.25448">
        <ele>669.7</ele>
        <time>2013-10-02T11:10:18Z</time>
      </trkpt>
      <trkpt lat="43.80628" lon="6.25469">
        <ele>669.7</ele>
        <time>2013-10-02T11:10:22Z</time>
      </trkpt>
      <trkpt lat="43.80636" lon="6.25469">
        <ele>670.18</ele>
        <time>2013-10-02T11:10:23Z</time>
      </trkpt>
      <trkpt lat="43.80645" lon="6.25466">
        <ele>669.7</ele>
        <time>2013-10-02T11:10:24Z</time>
      </trkpt>
      <trkpt lat="43.80652" lon="6.25462">
        <ele>669.7</ele>
        <time>2013-10-02T11:10:25Z</time>
      </trkpt>
      <trkpt lat="43.80658" lon="6.25457">
        <ele>670.18</ele>
        <time>2013-10-02T11:10:26Z</time>
      </trkpt>
      <trkpt lat="43.80665" lon="6.25453">
        <ele>670.18</ele>
        <time>2013-10-02T11:10:27Z</time>
      </trkpt>
      <trkpt lat="43.80673" lon="6.25451">
        <ele>669.7</ele>
        <time>2013-10-02T11:10:28Z</time>
      </trkpt>
      <trkpt lat="43.8068" lon="6.25451">
        <ele>670.18</ele>
        <time>2013-10-02T11:10:29Z</time>
      </trkpt>
      <trkpt lat="43.80694" lon="6.25456">
        <ele>669.7</ele>
        <time>2013-10-02T11:10:31Z</time>
      </trkpt>
      <trkpt lat="43.80701" lon="6.25459">
        <ele>669.7</ele>
        <time>2013-10-02T11:10:32Z</time>
      </trkpt>
      <trkpt lat="43.80782" lon="6.25489">
        <ele>668.25</ele>
        <time>2013-10-02T11:10:43Z</time>
      </trkpt>
      <trkpt lat="43.80854" lon="6.25492">
        <ele>666.81</ele>
        <time>2013-10-02T11:10:52Z</time>
      </trkpt>
      <trkpt lat="43.80861" lon="6.25489">
        <ele>667.29</ele>
        <time>2013-10-02T11:10:53Z</time>
      </trkpt>
      <trkpt lat="43.80869" lon="6.25483">
        <ele>667.29</ele>
        <time>2013-10-02T11:10:54Z</time>
      </trkpt>
      <trkpt lat="43.80875" lon="6.25476">
        <ele>667.29</ele>
        <time>2013-10-02T11:10:55Z</time>
      </trkpt>
      <trkpt lat="43.8088" lon="6.25468">
        <ele>667.29</ele>
        <time>2013-10-02T11:10:56Z</time>
      </trkpt>
      <trkpt lat="43.80892" lon="6.25455">
        <ele>666.81</ele>
        <time>2013-10-02T11:10:58Z</time>
      </trkpt>
      <trkpt lat="43.809" lon="6.25452">
        <ele>666.33</ele>
        <time>2013-10-02T11:10:59Z</time>
      </trkpt>
      <trkpt lat="43.80909" lon="6.25452">
        <ele>665.85</ele>
        <time>2013-10-02T11:11:00Z</time>
      </trkpt>
      <trkpt lat="43.80917" lon="6.25454">
        <ele>665.37</ele>
        <time>2013-10-02T11:11:01Z</time>
      </trkpt>
      <trkpt lat="43.80925" lon="6.25456">
        <ele>665.85</ele>
        <time>2013-10-02T11:11:02Z</time>
      </trkpt>
      <trkpt lat="43.80979" lon="6.25488">
        <ele>664.41</ele>
        <time>2013-10-02T11:11:09Z</time>
      </trkpt>
      <trkpt lat="43.80985" lon="6.25495">
        <ele>664.89</ele>
        <time>2013-10-02T11:11:10Z</time>
      </trkpt>
      <trkpt lat="43.80991" lon="6.25503">
        <ele>664.41</ele>
        <time>2013-10-02T11:11:11Z</time>
      </trkpt>
      <trkpt lat="43.80996" lon="6.25512">
        <ele>664.41</ele>
        <time>2013-10-02T11:11:12Z</time>
      </trkpt>
      <trkpt lat="43.81001" lon="6.25521">
        <ele>664.41</ele>
        <time>2013-10-02T11:11:13Z</time>
      </trkpt>
      <trkpt lat="43.81005" lon="6.25531">
        <ele>663.93</ele>
        <time>2013-10-02T11:11:14Z</time>
      </trkpt>
      <trkpt lat="43.81015" lon="6.25548">
        <ele>664.41</ele>
        <time>2013-10-02T11:11:16Z</time>
      </trkpt>
      <trkpt lat="43.81021" lon="6.25555">
        <ele>663.93</ele>
        <time>2013-10-02T11:11:17Z</time>
      </trkpt>
      <trkpt lat="43.81028" lon="6.2556">
        <ele>663.45</ele>
        <time>2013-10-02T11:11:18Z</time>
      </trkpt>
      <trkpt lat="43.81035" lon="6.25564">
        <ele>663.45</ele>
        <time>2013-10-02T11:11:19Z</time>
      </trkpt>
      <trkpt lat="43.81043" lon="6.25566">
        <ele>662.97</ele>
        <time>2013-10-02T11:11:20Z</time>
      </trkpt>
      <trkpt lat="43.81051" lon="6.25567">
        <ele>662.49</ele>
        <time>2013-10-02T11:11:21Z</time>
      </trkpt>
      <trkpt lat="43.81059" lon="6.25565">
        <ele>662.97</ele>
        <time>2013-10-02T11:11:22Z</time>
      </trkpt>
      <trkpt lat="43.81066" lon="6.25559">
        <ele>662.49</ele>
        <time>2013-10-02T11:11:23Z</time>
      </trkpt>
      <trkpt lat="43.81073" lon="6.2555">
        <ele>662.49</ele>
        <time>2013-10-02T11:11:24Z</time>
      </trkpt>
      <trkpt lat="43.81078" lon="6.25541">
        <ele>662.01</ele>
        <time>2013-10-02T11:11:25Z</time>
      </trkpt>
      <trkpt lat="43.81084" lon="6.25531">
        <ele>662.01</ele>
        <time>2013-10-02T11:11:26Z</time>
      </trkpt>
      <trkpt lat="43.81089" lon="6.25522">
        <ele>661.52</ele>
        <time>2013-10-02T11:11:27Z</time>
      </trkpt>
      <trkpt lat="43.81095" lon="6.25517">
        <ele>661.52</ele>
        <time>2013-10-02T11:11:28Z</time>
      </trkpt>
      <trkpt lat="43.81104" lon="6.25516">
        <ele>661.52</ele>
        <time>2013-10-02T11:11:29Z</time>
      </trkpt>
      <trkpt lat="43.81113" lon="6.25518">
        <ele>661.04</ele>
        <time>2013-10-02T11:11:30Z</time>
      </trkpt>
      <trkpt lat="43.81122" lon="6.25521">
        <ele>661.52</ele>
        <time>2013-10-02T11:11:31Z</time>
      </trkpt>
      <trkpt lat="43.81147" lon="6.25527">
        <ele>660.56</ele>
        <time>2013-10-02T11:11:34Z</time>
      </trkpt>
      <trkpt lat="43.81156" lon="6.25527">
        <ele>661.04</ele>
        <time>2013-10-02T11:11:35Z</time>
      </trkpt>
      <trkpt lat="43.81216" lon="6.25526">
        <ele>659.6</ele>
        <time>2013-10-02T11:11:42Z</time>
      </trkpt>
      <trkpt lat="43.81224" lon="6.25522">
        <ele>659.6</ele>
        <time>2013-10-02T11:11:43Z</time>
      </trkpt>
      <trkpt lat="43.81231" lon="6.25514">
        <ele>659.6</ele>
        <time>2013-10-02T11:11:44Z</time>
      </trkpt>
      <trkpt lat="43.81238" lon="6.25504">
        <ele>660.08</ele>
        <time>2013-10-02T11:11:45Z</time>
      </trkpt>
      <trkpt lat="43.81241" lon="6.25493">
        <ele>659.12</ele>
        <time>2013-10-02T11:11:46Z</time>
      </trkpt>
      <trkpt lat="43.81242" lon="6.25482">
        <ele>659.12</ele>
        <time>2013-10-02T11:11:47Z</time>
      </trkpt>
      <trkpt lat="43.81237" lon="6.25471">
        <ele>659.6</ele>
        <time>2013-10-02T11:11:48Z</time>
      </trkpt>
      <trkpt lat="43.81235" lon="6.2546">
        <ele>659.12</ele>
        <time>2013-10-02T11:11:49Z</time>
      </trkpt>
      <trkpt lat="43.81236" lon="6.25448">
        <ele>659.12</ele>
        <time>2013-10-02T11:11:50Z</time>
      </trkpt>
      <trkpt lat="43.81237" lon="6.25437">
        <ele>658.16</ele>
        <time>2013-10-02T11:11:51Z</time>
      </trkpt>
      <trkpt lat="43.81239" lon="6.25426">
        <ele>658.16</ele>
        <time>2013-10-02T11:11:52Z</time>
      </trkpt>
      <trkpt lat="43.81243" lon="6.25415">
        <ele>657.68</ele>
        <time>2013-10-02T11:11:53Z</time>
      </trkpt>
      <trkpt lat="43.81246" lon="6.25405">
        <ele>658.16</ele>
        <time>2013-10-02T11:11:54Z</time>
      </trkpt>
      <trkpt lat="43.81251" lon="6.25395">
        <ele>657.68</ele>
        <time>2013-10-02T11:11:55Z</time>
      </trkpt>
      <trkpt lat="43.81256" lon="6.25387">
        <ele>657.68</ele>
        <time>2013-10-02T11:11:56Z</time>
      </trkpt>
      <trkpt lat="43.81262" lon="6.25379">
        <ele>657.2</ele>
        <time>2013-10-02T11:11:57Z</time>
      </trkpt>
      <trkpt lat="43.81269" lon="6.25372">
        <ele>657.2</ele>
        <time>2013-10-02T11:11:58Z</time>
      </trkpt>
      <trkpt lat="43.81276" lon="6.25365">
        <ele>656.24</ele>
        <time>2013-10-02T11:11:59Z</time>
      </trkpt>
      <trkpt lat="43.81283" lon="6.25359">
        <ele>657.2</ele>
        <time>2013-10-02T11:12:00Z</time>
      </trkpt>
      <trkpt lat="43.81289" lon="6.25351">
        <ele>656.72</ele>
        <time>2013-10-02T11:12:01Z</time>
      </trkpt>
      <trkpt lat="43.81295" lon="6.25341">
        <ele>656.72</ele>
        <time>2013-10-02T11:12:02Z</time>
      </trkpt>
      <trkpt lat="43.81299" lon="6.2533">
        <ele>656.72</ele>
        <time>2013-10-02T11:12:03Z</time>
      </trkpt>
      <trkpt lat="43.81302" lon="6.25319">
        <ele>656.24</ele>
        <time>2013-10-02T11:12:04Z</time>
      </trkpt>
      <trkpt lat="43.81304" lon="6.25307">
        <ele>656.72</ele>
        <time>2013-10-02T11:12:05Z</time>
      </trkpt>
      <trkpt lat="43.81304" lon="6.25296">
        <ele>656.72</ele>
        <time>2013-10-02T11:12:06Z</time>
      </trkpt>
      <trkpt lat="43.81304" lon="6.25284">
        <ele>656.72</ele>
        <time>2013-10-02T11:12:07Z</time>
      </trkpt>
      <trkpt lat="43.81291" lon="6.25181">
        <ele>657.2</ele>
        <time>2013-10-02T11:12:17Z</time>
      </trkpt>
      <trkpt lat="43.81281" lon="6.25083">
        <ele>659.12</ele>
        <time>2013-10-02T11:12:28Z</time>
      </trkpt>
      <trkpt lat="43.81282" lon="6.25074">
        <ele>659.6</ele>
        <time>2013-10-02T11:12:29Z</time>
      </trkpt>
      <trkpt lat="43.81285" lon="6.2505">
        <ele>660.56</ele>
        <time>2013-10-02T11:12:32Z</time>
      </trkpt>
      <trkpt lat="43.81287" lon="6.25043">
        <ele>660.56</ele>
        <time>2013-10-02T11:12:33Z</time>
      </trkpt>
      <trkpt lat="43.81291" lon="6.25037">
        <ele>661.04</ele>
        <time>2013-10-02T11:12:34Z</time>
      </trkpt>
      <trkpt lat="43.81295" lon="6.25032">
        <ele>661.52</ele>
        <time>2013-10-02T11:12:35Z</time>
      </trkpt>
      <trkpt lat="43.813" lon="6.25032">
        <ele>661.04</ele>
        <time>2013-10-02T11:12:36Z</time>
      </trkpt>
      <trkpt lat="43.81305" lon="6.25034">
        <ele>662.01</ele>
        <time>2013-10-02T11:12:37Z</time>
      </trkpt>
      <trkpt lat="43.81308" lon="6.25038">
        <ele>662.49</ele>
        <time>2013-10-02T11:12:38Z</time>
      </trkpt>
      <trkpt lat="43.81312" lon="6.25041">
        <ele>662.97</ele>
        <time>2013-10-02T11:12:39Z</time>
      </trkpt>
      <trkpt lat="43.81323" lon="6.2505">
        <ele>663.45</ele>
        <time>2013-10-02T11:12:42Z</time>
      </trkpt>
      <trkpt lat="43.81327" lon="6.25051">
        <ele>663.93</ele>
        <time>2013-10-02T11:12:43Z</time>
      </trkpt>
      <trkpt lat="43.81331" lon="6.25052">
        <ele>664.41</ele>
        <time>2013-10-02T11:12:44Z</time>
      </trkpt>
      <trkpt lat="43.81334" lon="6.25053">
        <ele>664.41</ele>
        <time>2013-10-02T11:12:45Z</time>
      </trkpt>
      <trkpt lat="43.81338" lon="6.25053">
        <ele>664.89</ele>
        <time>2013-10-02T11:12:46Z</time>
      </trkpt>
      <trkpt lat="43.81342" lon="6.25052">
        <ele>664.89</ele>
        <time>2013-10-02T11:12:47Z</time>
      </trkpt>
      <trkpt lat="43.81346" lon="6.25051">
        <ele>665.37</ele>
        <time>2013-10-02T11:12:48Z</time>
      </trkpt>
      <trkpt lat="43.81385" lon="6.25031">
        <ele>667.77</ele>
        <time>2013-10-02T11:12:59Z</time>
      </trkpt>
      <trkpt lat="43.81413" lon="6.2501">
        <ele>669.7</ele>
        <time>2013-10-02T11:13:09Z</time>
      </trkpt>
      <trkpt lat="43.81431" lon="6.24984">
        <ele>670.66</ele>
        <time>2013-10-02T11:13:16Z</time>
      </trkpt>
      <trkpt lat="43.81431" lon="6.24978">
        <ele>670.66</ele>
        <time>2013-10-02T11:13:17Z</time>
      </trkpt>
      <trkpt lat="43.8143" lon="6.24967">
        <ele>671.14</ele>
        <time>2013-10-02T11:13:19Z</time>
      </trkpt>
      <trkpt lat="43.81428" lon="6.24961">
        <ele>671.14</ele>
        <time>2013-10-02T11:13:20Z</time>
      </trkpt>
      <trkpt lat="43.81425" lon="6.24951">
        <ele>671.14</ele>
        <time>2013-10-02T11:13:22Z</time>
      </trkpt>
      <trkpt lat="43.81424" lon="6.24946">
        <ele>671.14</ele>
        <time>2013-10-02T11:13:23Z</time>
      </trkpt>
      <trkpt lat="43.81423" lon="6.24935">
        <ele>672.1</ele>
        <time>2013-10-02T11:13:25Z</time>
      </trkpt>
      <trkpt lat="43.81423" lon="6.24929">
        <ele>672.58</ele>
        <time>2013-10-02T11:13:26Z</time>
      </trkpt>
      <trkpt lat="43.81424" lon="6.24923">
        <ele>672.58</ele>
        <time>2013-10-02T11:13:27Z</time>
      </trkpt>
      <trkpt lat="43.81425" lon="6.24918">
        <ele>672.58</ele>
        <time>2013-10-02T11:13:28Z</time>
      </trkpt>
      <trkpt lat="43.81426" lon="6.24913">
        <ele>673.06</ele>
        <time>2013-10-02T11:13:29Z</time>
      </trkpt>
      <trkpt lat="43.81428" lon="6.24907">
        <ele>673.06</ele>
        <time>2013-10-02T11:13:30Z</time>
      </trkpt>
      <trkpt lat="43.81429" lon="6.24902">
        <ele>673.06</ele>
        <time>2013-10-02T11:13:31Z</time>
      </trkpt>
      <trkpt lat="43.81431" lon="6.24897">
        <ele>673.54</ele>
        <time>2013-10-02T11:13:32Z</time>
      </trkpt>
      <trkpt lat="43.81457" lon="6.2485">
        <ele>676.42</ele>
        <time>2013-10-02T11:13:43Z</time>
      </trkpt>
      <trkpt lat="43.8146" lon="6.24846">
        <ele>676.42</ele>
        <time>2013-10-02T11:13:44Z</time>
      </trkpt>
      <trkpt lat="43.81501" lon="6.24814">
        <ele>678.83</ele>
        <time>2013-10-02T11:13:56Z</time>
      </trkpt>
      <trkpt lat="43.81512" lon="6.248">
        <ele>678.83</ele>
        <time>2013-10-02T11:14:00Z</time>
      </trkpt>
      <trkpt lat="43.81514" lon="6.24795">
        <ele>679.31</ele>
        <time>2013-10-02T11:14:01Z</time>
      </trkpt>
      <trkpt lat="43.81515" lon="6.24789">
        <ele>678.83</ele>
        <time>2013-10-02T11:14:02Z</time>
      </trkpt>
      <trkpt lat="43.81515" lon="6.24783">
        <ele>678.83</ele>
        <time>2013-10-02T11:14:03Z</time>
      </trkpt>
      <trkpt lat="43.81515" lon="6.24777">
        <ele>678.83</ele>
        <time>2013-10-02T11:14:04Z</time>
      </trkpt>
      <trkpt lat="43.81514" lon="6.24771">
        <ele>679.79</ele>
        <time>2013-10-02T11:14:05Z</time>
      </trkpt>
      <trkpt lat="43.81513" lon="6.24765">
        <ele>680.27</ele>
        <time>2013-10-02T11:14:06Z</time>
      </trkpt>
      <trkpt lat="43.81511" lon="6.2476">
        <ele>679.79</ele>
        <time>2013-10-02T11:14:07Z</time>
      </trkpt>
      <trkpt lat="43.81509" lon="6.24755">
        <ele>679.79</ele>
        <time>2013-10-02T11:14:08Z</time>
      </trkpt>
      <trkpt lat="43.81507" lon="6.24749">
        <ele>680.27</ele>
        <time>2013-10-02T11:14:09Z</time>
      </trkpt>
      <trkpt lat="43.81506" lon="6.24744">
        <ele>680.27</ele>
        <time>2013-10-02T11:14:10Z</time>
      </trkpt>
      <trkpt lat="43.81506" lon="6.24737">
        <ele>680.27</ele>
        <time>2013-10-02T11:14:11Z</time>
      </trkpt>
      <trkpt lat="43.81506" lon="6.24731">
        <ele>679.79</ele>
        <time>2013-10-02T11:14:12Z</time>
      </trkpt>
      <trkpt lat="43.81506" lon="6.24725">
        <ele>680.75</ele>
        <time>2013-10-02T11:14:13Z</time>
      </trkpt>
      <trkpt lat="43.81507" lon="6.2472">
        <ele>681.23</ele>
        <time>2013-10-02T11:14:14Z</time>
      </trkpt>
      <trkpt lat="43.81508" lon="6.24714">
        <ele>680.75</ele>
        <time>2013-10-02T11:14:15Z</time>
      </trkpt>
      <trkpt lat="43.81522" lon="6.24665">
        <ele>683.15</ele>
        <time>2013-10-02T11:14:24Z</time>
      </trkpt>
      <trkpt lat="43.81523" lon="6.24659">
        <ele>683.15</ele>
        <time>2013-10-02T11:14:25Z</time>
      </trkpt>
      <trkpt lat="43.81523" lon="6.24653">
        <ele>683.15</ele>
        <time>2013-10-02T11:14:26Z</time>
      </trkpt>
      <trkpt lat="43.81522" lon="6.24647">
        <ele>683.15</ele>
        <time>2013-10-02T11:14:27Z</time>
      </trkpt>
      <trkpt lat="43.81522" lon="6.24641">
        <ele>683.63</ele>
        <time>2013-10-02T11:14:28Z</time>
      </trkpt>
      <trkpt lat="43.8152" lon="6.24636">
        <ele>683.63</ele>
        <time>2013-10-02T11:14:29Z</time>
      </trkpt>
      <trkpt lat="43.81518" lon="6.2463">
        <ele>683.63</ele>
        <time>2013-10-02T11:14:30Z</time>
      </trkpt>
      <trkpt lat="43.81516" lon="6.24625">
        <ele>683.63</ele>
        <time>2013-10-02T11:14:31Z</time>
      </trkpt>
      <trkpt lat="43.81496" lon="6.24591">
        <ele>684.6</ele>
        <time>2013-10-02T11:14:38Z</time>
      </trkpt>
      <trkpt lat="43.81494" lon="6.24586">
        <ele>684.6</ele>
        <time>2013-10-02T11:14:39Z</time>
      </trkpt>
      <trkpt lat="43.81486" lon="6.24569">
        <ele>685.08</ele>
        <time>2013-10-02T11:14:42Z</time>
      </trkpt>
      <trkpt lat="43.81484" lon="6.24562">
        <ele>685.08</ele>
        <time>2013-10-02T11:14:43Z</time>
      </trkpt>
      <trkpt lat="43.81481" lon="6.24554">
        <ele>684.6</ele>
        <time>2013-10-02T11:14:44Z</time>
      </trkpt>
      <trkpt lat="43.81468" lon="6.2449">
        <ele>682.19</ele>
        <time>2013-10-02T11:14:50Z</time>
      </trkpt>
      <trkpt lat="43.81467" lon="6.24478">
        <ele>681.23</ele>
        <time>2013-10-02T11:14:51Z</time>
      </trkpt>
      <trkpt lat="43.81473" lon="6.244">
        <ele>678.83</ele>
        <time>2013-10-02T11:14:57Z</time>
      </trkpt>
      <trkpt lat="43.81475" lon="6.24386">
        <ele>678.83</ele>
        <time>2013-10-02T11:14:58Z</time>
      </trkpt>
      <trkpt lat="43.81478" lon="6.24373">
        <ele>678.35</ele>
        <time>2013-10-02T11:14:59Z</time>
      </trkpt>
      <trkpt lat="43.81492" lon="6.24321">
        <ele>676.91</ele>
        <time>2013-10-02T11:15:03Z</time>
      </trkpt>
      <trkpt lat="43.81498" lon="6.2431">
        <ele>676.91</ele>
        <time>2013-10-02T11:15:04Z</time>
      </trkpt>
      <trkpt lat="43.81504" lon="6.24301">
        <ele>675.46</ele>
        <time>2013-10-02T11:15:05Z</time>
      </trkpt>
      <trkpt lat="43.81551" lon="6.24267">
        <ele>674.5</ele>
        <time>2013-10-02T11:15:10Z</time>
      </trkpt>
      <trkpt lat="43.81561" lon="6.24264">
        <ele>674.5</ele>
        <time>2013-10-02T11:15:11Z</time>
      </trkpt>
      <trkpt lat="43.81571" lon="6.24261">
        <ele>674.02</ele>
        <time>2013-10-02T11:15:12Z</time>
      </trkpt>
      <trkpt lat="43.81627" lon="6.24245">
        <ele>672.1</ele>
        <time>2013-10-02T11:15:18Z</time>
      </trkpt>
      <trkpt lat="43.81636" lon="6.24245">
        <ele>672.1</ele>
        <time>2013-10-02T11:15:19Z</time>
      </trkpt>
      <trkpt lat="43.81645" lon="6.24245">
        <ele>672.1</ele>
        <time>2013-10-02T11:15:20Z</time>
      </trkpt>
      <trkpt lat="43.81654" lon="6.24247">
        <ele>672.1</ele>
        <time>2013-10-02T11:15:21Z</time>
      </trkpt>
      <trkpt lat="43.81663" lon="6.2425">
        <ele>671.62</ele>
        <time>2013-10-02T11:15:22Z</time>
      </trkpt>
      <trkpt lat="43.81671" lon="6.24254">
        <ele>671.62</ele>
        <time>2013-10-02T11:15:23Z</time>
      </trkpt>
      <trkpt lat="43.81678" lon="6.24261">
        <ele>671.14</ele>
        <time>2013-10-02T11:15:24Z</time>
      </trkpt>
      <trkpt lat="43.81685" lon="6.24268">
        <ele>670.66</ele>
        <time>2013-10-02T11:15:25Z</time>
      </trkpt>
      <trkpt lat="43.81691" lon="6.24276">
        <ele>670.66</ele>
        <time>2013-10-02T11:15:26Z</time>
      </trkpt>
      <trkpt lat="43.81722" lon="6.24312">
        <ele>670.18</ele>
        <time>2013-10-02T11:15:31Z</time>
      </trkpt>
      <trkpt lat="43.81728" lon="6.24321">
        <ele>670.18</ele>
        <time>2013-10-02T11:15:32Z</time>
      </trkpt>
      <trkpt lat="43.81733" lon="6.24331">
        <ele>670.66</ele>
        <time>2013-10-02T11:15:33Z</time>
      </trkpt>
      <trkpt lat="43.81738" lon="6.24339">
        <ele>670.66</ele>
        <time>2013-10-02T11:15:34Z</time>
      </trkpt>
      <trkpt lat="43.81744" lon="6.24345">
        <ele>670.18</ele>
        <time>2013-10-02T11:15:35Z</time>
      </trkpt>
      <trkpt lat="43.81751" lon="6.24346">
        <ele>669.7</ele>
        <time>2013-10-02T11:15:36Z</time>
      </trkpt>
      <trkpt lat="43.81759" lon="6.24344">
        <ele>669.7</ele>
        <time>2013-10-02T11:15:37Z</time>
      </trkpt>
      <trkpt lat="43.81767" lon="6.24339">
        <ele>669.22</ele>
        <time>2013-10-02T11:15:38Z</time>
      </trkpt>
      <trkpt lat="43.81774" lon="6.24331">
        <ele>668.73</ele>
        <time>2013-10-02T11:15:39Z</time>
      </trkpt>
      <trkpt lat="43.81778" lon="6.2432">
        <ele>668.73</ele>
        <time>2013-10-02T11:15:40Z</time>
      </trkpt>
      <trkpt lat="43.81781" lon="6.24308">
        <ele>668.73</ele>
        <time>2013-10-02T11:15:41Z</time>
      </trkpt>
      <trkpt lat="43.81784" lon="6.24296">
        <ele>667.77</ele>
        <time>2013-10-02T11:15:42Z</time>
      </trkpt>
      <trkpt lat="43.81786" lon="6.24284">
        <ele>666.81</ele>
        <time>2013-10-02T11:15:43Z</time>
      </trkpt>
      <trkpt lat="43.81789" lon="6.24271">
        <ele>666.81</ele>
        <time>2013-10-02T11:15:44Z</time>
      </trkpt>
      <trkpt lat="43.81801" lon="6.24212">
        <ele>666.33</ele>
        <time>2013-10-02T11:15:49Z</time>
      </trkpt>
      <trkpt lat="43.81804" lon="6.24176">
        <ele>665.37</ele>
        <time>2013-10-02T11:15:52Z</time>
      </trkpt>
      <trkpt lat="43.81803" lon="6.24163">
        <ele>665.37</ele>
        <time>2013-10-02T11:15:53Z</time>
      </trkpt>
      <trkpt lat="43.81796" lon="6.24097">
        <ele>663.45</ele>
        <time>2013-10-02T11:15:58Z</time>
      </trkpt>
      <trkpt lat="43.81797" lon="6.24084">
        <ele>662.97</ele>
        <time>2013-10-02T11:15:59Z</time>
      </trkpt>
      <trkpt lat="43.81799" lon="6.2407">
        <ele>662.97</ele>
        <time>2013-10-02T11:16:00Z</time>
      </trkpt>
      <trkpt lat="43.81818" lon="6.23946">
        <ele>661.52</ele>
        <time>2013-10-02T11:16:10Z</time>
      </trkpt>
      <trkpt lat="43.81839" lon="6.23879">
        <ele>662.97</ele>
        <time>2013-10-02T11:16:17Z</time>
      </trkpt>
      <trkpt lat="43.8186" lon="6.2383">
        <ele>663.45</ele>
        <time>2013-10-02T11:16:23Z</time>
      </trkpt>
      <trkpt lat="43.81864" lon="6.23822">
        <ele>663.45</ele>
        <time>2013-10-02T11:16:24Z</time>
      </trkpt>
      <trkpt lat="43.81879" lon="6.23785">
        <ele>663.45</ele>
        <time>2013-10-02T11:16:29Z</time>
      </trkpt>
      <trkpt lat="43.81887" lon="6.23761">
        <ele>663.93</ele>
        <time>2013-10-02T11:16:32Z</time>
      </trkpt>
      <trkpt lat="43.81891" lon="6.23753">
        <ele>663.93</ele>
        <time>2013-10-02T11:16:33Z</time>
      </trkpt>
      <trkpt lat="43.81893" lon="6.23746">
        <ele>663.93</ele>
        <time>2013-10-02T11:16:34Z</time>
      </trkpt>
      <trkpt lat="43.81895" lon="6.23738">
        <ele>663.93</ele>
        <time>2013-10-02T11:16:35Z</time>
      </trkpt>
      <trkpt lat="43.81896" lon="6.2373">
        <ele>663.93</ele>
        <time>2013-10-02T11:16:36Z</time>
      </trkpt>
      <trkpt lat="43.81896" lon="6.23721">
        <ele>663.93</ele>
        <time>2013-10-02T11:16:37Z</time>
      </trkpt>
      <trkpt lat="43.81895" lon="6.23711">
        <ele>663.45</ele>
        <time>2013-10-02T11:16:38Z</time>
      </trkpt>
      <trkpt lat="43.81893" lon="6.237">
        <ele>663.45</ele>
        <time>2013-10-02T11:16:39Z</time>
      </trkpt>
      <trkpt lat="43.81889" lon="6.2366">
        <ele>661.52</ele>
        <time>2013-10-02T11:16:42Z</time>
      </trkpt>
      <trkpt lat="43.8189" lon="6.23646">
        <ele>661.04</ele>
        <time>2013-10-02T11:16:43Z</time>
      </trkpt>
      <trkpt lat="43.81893" lon="6.23632">
        <ele>660.56</ele>
        <time>2013-10-02T11:16:44Z</time>
      </trkpt>
      <trkpt lat="43.81899" lon="6.23606">
        <ele>659.12</ele>
        <time>2013-10-02T11:16:46Z</time>
      </trkpt>
      <trkpt lat="43.81903" lon="6.23579">
        <ele>659.12</ele>
        <time>2013-10-02T11:16:48Z</time>
      </trkpt>
      <trkpt lat="43.81904" lon="6.23566">
        <ele>658.16</ele>
        <time>2013-10-02T11:16:49Z</time>
      </trkpt>
      <trkpt lat="43.81901" lon="6.23503">
        <ele>655.28</ele>
        <time>2013-10-02T11:16:53Z</time>
      </trkpt>
      <trkpt lat="43.81901" lon="6.23487">
        <ele>654.31</ele>
        <time>2013-10-02T11:16:54Z</time>
      </trkpt>
      <trkpt lat="43.81904" lon="6.23471">
        <ele>653.35</ele>
        <time>2013-10-02T11:16:55Z</time>
      </trkpt>
      <trkpt lat="43.81908" lon="6.23457">
        <ele>653.35</ele>
        <time>2013-10-02T11:16:56Z</time>
      </trkpt>
      <trkpt lat="43.81914" lon="6.23444">
        <ele>652.39</ele>
        <time>2013-10-02T11:16:57Z</time>
      </trkpt>
      <trkpt lat="43.81921" lon="6.23435">
        <ele>651.43</ele>
        <time>2013-10-02T11:16:58Z</time>
      </trkpt>
      <trkpt lat="43.81931" lon="6.23429">
        <ele>650.47</ele>
        <time>2013-10-02T11:16:59Z</time>
      </trkpt>
      <trkpt lat="43.81941" lon="6.23425">
        <ele>650.47</ele>
        <time>2013-10-02T11:17:00Z</time>
      </trkpt>
      <trkpt lat="43.81952" lon="6.23424">
        <ele>649.99</ele>
        <time>2013-10-02T11:17:01Z</time>
      </trkpt>
      <trkpt lat="43.81963" lon="6.23421">
        <ele>649.03</ele>
        <time>2013-10-02T11:17:02Z</time>
      </trkpt>
      <trkpt lat="43.81974" lon="6.23414">
        <ele>648.07</ele>
        <time>2013-10-02T11:17:03Z</time>
      </trkpt>
      <trkpt lat="43.81983" lon="6.23403">
        <ele>648.07</ele>
        <time>2013-10-02T11:17:04Z</time>
      </trkpt>
      <trkpt lat="43.8199" lon="6.23389">
        <ele>647.59</ele>
        <time>2013-10-02T11:17:05Z</time>
      </trkpt>
      <trkpt lat="43.81994" lon="6.23376">
        <ele>646.62</ele>
        <time>2013-10-02T11:17:06Z</time>
      </trkpt>
      <trkpt lat="43.82" lon="6.23363">
        <ele>645.18</ele>
        <time>2013-10-02T11:17:07Z</time>
      </trkpt>
      <trkpt lat="43.82007" lon="6.23352">
        <ele>643.74</ele>
        <time>2013-10-02T11:17:08Z</time>
      </trkpt>
      <trkpt lat="43.82017" lon="6.23345">
        <ele>644.22</ele>
        <time>2013-10-02T11:17:09Z</time>
      </trkpt>
      <trkpt lat="43.82029" lon="6.23341">
        <ele>643.26</ele>
        <time>2013-10-02T11:17:10Z</time>
      </trkpt>
      <trkpt lat="43.82039" lon="6.23338">
        <ele>642.3</ele>
        <time>2013-10-02T11:17:11Z</time>
      </trkpt>
      <trkpt lat="43.82051" lon="6.23333">
        <ele>642.3</ele>
        <time>2013-10-02T11:17:12Z</time>
      </trkpt>
      <trkpt lat="43.82062" lon="6.23325">
        <ele>641.34</ele>
        <time>2013-10-02T11:17:13Z</time>
      </trkpt>
      <trkpt lat="43.82071" lon="6.23315">
        <ele>640.38</ele>
        <time>2013-10-02T11:17:14Z</time>
      </trkpt>
      <trkpt lat="43.82079" lon="6.23303">
        <ele>639.41</ele>
        <time>2013-10-02T11:17:15Z</time>
      </trkpt>
      <trkpt lat="43.82087" lon="6.2329">
        <ele>638.93</ele>
        <time>2013-10-02T11:17:16Z</time>
      </trkpt>
      <trkpt lat="43.82112" lon="6.23253">
        <ele>636.53</ele>
        <time>2013-10-02T11:17:19Z</time>
      </trkpt>
      <trkpt lat="43.82121" lon="6.23243">
        <ele>635.57</ele>
        <time>2013-10-02T11:17:20Z</time>
      </trkpt>
      <trkpt lat="43.82131" lon="6.23234">
        <ele>635.09</ele>
        <time>2013-10-02T11:17:21Z</time>
      </trkpt>
      <trkpt lat="43.82142" lon="6.23226">
        <ele>634.61</ele>
        <time>2013-10-02T11:17:22Z</time>
      </trkpt>
      <trkpt lat="43.82153" lon="6.23219">
        <ele>633.65</ele>
        <time>2013-10-02T11:17:23Z</time>
      </trkpt>
      <trkpt lat="43.82165" lon="6.23213">
        <ele>632.68</ele>
        <time>2013-10-02T11:17:24Z</time>
      </trkpt>
      <trkpt lat="43.82178" lon="6.23207">
        <ele>632.2</ele>
        <time>2013-10-02T11:17:25Z</time>
      </trkpt>
      <trkpt lat="43.82204" lon="6.23199">
        <ele>631.24</ele>
        <time>2013-10-02T11:17:27Z</time>
      </trkpt>
      <trkpt lat="43.82254" lon="6.23191">
        <ele>627.4</ele>
        <time>2013-10-02T11:17:31Z</time>
      </trkpt>
      <trkpt lat="43.82265" lon="6.23193">
        <ele>625.96</ele>
        <time>2013-10-02T11:17:32Z</time>
      </trkpt>
      <trkpt lat="43.82276" lon="6.23198">
        <ele>624.51</ele>
        <time>2013-10-02T11:17:33Z</time>
      </trkpt>
      <trkpt lat="43.82286" lon="6.23207">
        <ele>624.51</ele>
        <time>2013-10-02T11:17:34Z</time>
      </trkpt>
      <trkpt lat="43.82296" lon="6.23217">
        <ele>623.55</ele>
        <time>2013-10-02T11:17:35Z</time>
      </trkpt>
      <trkpt lat="43.82316" lon="6.23233">
        <ele>621.63</ele>
        <time>2013-10-02T11:17:37Z</time>
      </trkpt>
      <trkpt lat="43.82326" lon="6.23238">
        <ele>621.63</ele>
        <time>2013-10-02T11:17:38Z</time>
      </trkpt>
      <trkpt lat="43.82338" lon="6.23239">
        <ele>620.67</ele>
        <time>2013-10-02T11:17:39Z</time>
      </trkpt>
      <trkpt lat="43.82351" lon="6.23238">
        <ele>620.19</ele>
        <time>2013-10-02T11:17:40Z</time>
      </trkpt>
      <trkpt lat="43.82363" lon="6.23233">
        <ele>619.71</ele>
        <time>2013-10-02T11:17:41Z</time>
      </trkpt>
      <trkpt lat="43.82374" lon="6.23227">
        <ele>618.75</ele>
        <time>2013-10-02T11:17:42Z</time>
      </trkpt>
      <trkpt lat="43.8242" lon="6.23193">
        <ele>614.9</ele>
        <time>2013-10-02T11:17:46Z</time>
      </trkpt>
      <trkpt lat="43.82431" lon="6.23182">
        <ele>613.94</ele>
        <time>2013-10-02T11:17:47Z</time>
      </trkpt>
      <trkpt lat="43.82483" lon="6.23123">
        <ele>610.57</ele>
        <time>2013-10-02T11:17:52Z</time>
      </trkpt>
      <trkpt lat="43.82522" lon="6.23077">
        <ele>607.21</ele>
        <time>2013-10-02T11:17:56Z</time>
      </trkpt>
      <trkpt lat="43.8253" lon="6.23065">
        <ele>605.77</ele>
        <time>2013-10-02T11:17:57Z</time>
      </trkpt>
      <trkpt lat="43.82536" lon="6.2305">
        <ele>605.77</ele>
        <time>2013-10-02T11:17:58Z</time>
      </trkpt>
      <trkpt lat="43.82539" lon="6.23034">
        <ele>604.33</ele>
        <time>2013-10-02T11:17:59Z</time>
      </trkpt>
      <trkpt lat="43.82541" lon="6.23017">
        <ele>603.85</ele>
        <time>2013-10-02T11:18:00Z</time>
      </trkpt>
      <trkpt lat="43.82543" lon="6.23">
        <ele>603.36</ele>
        <time>2013-10-02T11:18:01Z</time>
      </trkpt>
      <trkpt lat="43.82546" lon="6.22954">
        <ele>600.96</ele>
        <time>2013-10-02T11:18:04Z</time>
      </trkpt>
      <trkpt lat="43.82549" lon="6.22942">
        <ele>599.52</ele>
        <time>2013-10-02T11:18:05Z</time>
      </trkpt>
      <trkpt lat="43.82556" lon="6.22931">
        <ele>598.08</ele>
        <time>2013-10-02T11:18:06Z</time>
      </trkpt>
      <trkpt lat="43.82564" lon="6.22923">
        <ele>597.6</ele>
        <time>2013-10-02T11:18:07Z</time>
      </trkpt>
      <trkpt lat="43.82575" lon="6.22918">
        <ele>597.12</ele>
        <time>2013-10-02T11:18:08Z</time>
      </trkpt>
      <trkpt lat="43.82586" lon="6.22913">
        <ele>596.15</ele>
        <time>2013-10-02T11:18:09Z</time>
      </trkpt>
      <trkpt lat="43.82643" lon="6.22891">
        <ele>593.75</ele>
        <time>2013-10-02T11:18:14Z</time>
      </trkpt>
      <trkpt lat="43.82665" lon="6.22879">
        <ele>592.79</ele>
        <time>2013-10-02T11:18:16Z</time>
      </trkpt>
      <trkpt lat="43.82686" lon="6.22862">
        <ele>590.87</ele>
        <time>2013-10-02T11:18:18Z</time>
      </trkpt>
      <trkpt lat="43.82728" lon="6.22824">
        <ele>587.98</ele>
        <time>2013-10-02T11:18:22Z</time>
      </trkpt>
      <trkpt lat="43.82762" lon="6.228">
        <ele>585.1</ele>
        <time>2013-10-02T11:18:25Z</time>
      </trkpt>
      <trkpt lat="43.82774" lon="6.22795">
        <ele>584.14</ele>
        <time>2013-10-02T11:18:26Z</time>
      </trkpt>
      <trkpt lat="43.82786" lon="6.22792">
        <ele>583.18</ele>
        <time>2013-10-02T11:18:27Z</time>
      </trkpt>
      <trkpt lat="43.82796" lon="6.22789">
        <ele>582.7</ele>
        <time>2013-10-02T11:18:28Z</time>
      </trkpt>
      <trkpt lat="43.82804" lon="6.22784">
        <ele>581.73</ele>
        <time>2013-10-02T11:18:29Z</time>
      </trkpt>
      <trkpt lat="43.82809" lon="6.22777">
        <ele>581.25</ele>
        <time>2013-10-02T11:18:30Z</time>
      </trkpt>
      <trkpt lat="43.8281" lon="6.22768">
        <ele>579.81</ele>
        <time>2013-10-02T11:18:31Z</time>
      </trkpt>
      <trkpt lat="43.82808" lon="6.22759">
        <ele>579.33</ele>
        <time>2013-10-02T11:18:32Z</time>
      </trkpt>
      <trkpt lat="43.82804" lon="6.22753">
        <ele>579.33</ele>
        <time>2013-10-02T11:18:33Z</time>
      </trkpt>
      <trkpt lat="43.82797" lon="6.22751">
        <ele>578.85</ele>
        <time>2013-10-02T11:18:34Z</time>
      </trkpt>
      <trkpt lat="43.82759" lon="6.22748">
        <ele>576.45</ele>
        <time>2013-10-02T11:18:38Z</time>
      </trkpt>
      <trkpt lat="43.82742" lon="6.22746">
        <ele>575.49</ele>
        <time>2013-10-02T11:18:40Z</time>
      </trkpt>
      <trkpt lat="43.82735" lon="6.22741">
        <ele>575.01</ele>
        <time>2013-10-02T11:18:41Z</time>
      </trkpt>
      <trkpt lat="43.82731" lon="6.22732">
        <ele>573.56</ele>
        <time>2013-10-02T11:18:42Z</time>
      </trkpt>
      <trkpt lat="43.8273" lon="6.22721">
        <ele>573.08</ele>
        <time>2013-10-02T11:18:43Z</time>
      </trkpt>
      <trkpt lat="43.8273" lon="6.22713">
        <ele>572.6</ele>
        <time>2013-10-02T11:18:44Z</time>
      </trkpt>
      <trkpt lat="43.82732" lon="6.22706">
        <ele>572.6</ele>
        <time>2013-10-02T11:18:45Z</time>
      </trkpt>
      <trkpt lat="43.82737" lon="6.22699">
        <ele>571.64</ele>
        <time>2013-10-02T11:18:46Z</time>
      </trkpt>
      <trkpt lat="43.82749" lon="6.22684">
        <ele>570.2</ele>
        <time>2013-10-02T11:18:48Z</time>
      </trkpt>
      <trkpt lat="43.82783" lon="6.2265">
        <ele>568.28</ele>
        <time>2013-10-02T11:18:52Z</time>
      </trkpt>
      <trkpt lat="43.82793" lon="6.22644">
        <ele>566.83</ele>
        <time>2013-10-02T11:18:53Z</time>
      </trkpt>
      <trkpt lat="43.82804" lon="6.22643">
        <ele>566.83</ele>
        <time>2013-10-02T11:18:54Z</time>
      </trkpt>
      <trkpt lat="43.82817" lon="6.22646">
        <ele>566.35</ele>
        <time>2013-10-02T11:18:55Z</time>
      </trkpt>
      <trkpt lat="43.82827" lon="6.22654">
        <ele>565.39</ele>
        <time>2013-10-02T11:18:56Z</time>
      </trkpt>
      <trkpt lat="43.82837" lon="6.22666">
        <ele>564.91</ele>
        <time>2013-10-02T11:18:57Z</time>
      </trkpt>
      <trkpt lat="43.82845" lon="6.22679">
        <ele>564.91</ele>
        <time>2013-10-02T11:18:58Z</time>
      </trkpt>
      <trkpt lat="43.82868" lon="6.22719">
        <ele>562.03</ele>
        <time>2013-10-02T11:19:01Z</time>
      </trkpt>
      <trkpt lat="43.82874" lon="6.22734">
        <ele>561.55</ele>
        <time>2013-10-02T11:19:02Z</time>
      </trkpt>
      <trkpt lat="43.82879" lon="6.22749">
        <ele>561.07</ele>
        <time>2013-10-02T11:19:03Z</time>
      </trkpt>
      <trkpt lat="43.82893" lon="6.22787">
        <ele>558.18</ele>
        <time>2013-10-02T11:19:07Z</time>
      </trkpt>
      <trkpt lat="43.82896" lon="6.22788">
        <ele>558.18</ele>
        <time>2013-10-02T11:19:08Z</time>
      </trkpt>
      <trkpt lat="43.829" lon="6.22785">
        <ele>557.22</ele>
        <time>2013-10-02T11:19:09Z</time>
      </trkpt>
      <trkpt lat="43.82904" lon="6.22778">
        <ele>557.22</ele>
        <time>2013-10-02T11:19:10Z</time>
      </trkpt>
      <trkpt lat="43.82906" lon="6.22768">
        <ele>557.22</ele>
        <time>2013-10-02T11:19:11Z</time>
      </trkpt>
      <trkpt lat="43.82907" lon="6.22756">
        <ele>556.74</ele>
        <time>2013-10-02T11:19:12Z</time>
      </trkpt>
      <trkpt lat="43.82906" lon="6.22744">
        <ele>556.26</ele>
        <time>2013-10-02T11:19:13Z</time>
      </trkpt>
      <trkpt lat="43.82905" lon="6.22733">
        <ele>556.26</ele>
        <time>2013-10-02T11:19:14Z</time>
      </trkpt>
      <trkpt lat="43.82902" lon="6.22721">
        <ele>554.82</ele>
        <time>2013-10-02T11:19:15Z</time>
      </trkpt>
      <trkpt lat="43.829" lon="6.22709">
        <ele>555.3</ele>
        <time>2013-10-02T11:19:16Z</time>
      </trkpt>
      <trkpt lat="43.82896" lon="6.22699">
        <ele>554.34</ele>
        <time>2013-10-02T11:19:17Z</time>
      </trkpt>
      <trkpt lat="43.82886" lon="6.2266">
        <ele>553.38</ele>
        <time>2013-10-02T11:19:20Z</time>
      </trkpt>
      <trkpt lat="43.82882" lon="6.22647">
        <ele>551.93</ele>
        <time>2013-10-02T11:19:21Z</time>
      </trkpt>
      <trkpt lat="43.82877" lon="6.22633">
        <ele>551.45</ele>
        <time>2013-10-02T11:19:22Z</time>
      </trkpt>
      <trkpt lat="43.8287" lon="6.22619">
        <ele>551.45</ele>
        <time>2013-10-02T11:19:23Z</time>
      </trkpt>
      <trkpt lat="43.82863" lon="6.22607">
        <ele>550.97</ele>
        <time>2013-10-02T11:19:24Z</time>
      </trkpt>
      <trkpt lat="43.82813" lon="6.22539">
        <ele>548.09</ele>
        <time>2013-10-02T11:19:30Z</time>
      </trkpt>
      <trkpt lat="43.82784" lon="6.22476">
        <ele>544.72</ele>
        <time>2013-10-02T11:19:36Z</time>
      </trkpt>
      <trkpt lat="43.82782" lon="6.22467">
        <ele>544.24</ele>
        <time>2013-10-02T11:19:37Z</time>
      </trkpt>
      <trkpt lat="43.82781" lon="6.22458">
        <ele>543.76</ele>
        <time>2013-10-02T11:19:38Z</time>
      </trkpt>
      <trkpt lat="43.82782" lon="6.22451">
        <ele>543.76</ele>
        <time>2013-10-02T11:19:39Z</time>
      </trkpt>
      <trkpt lat="43.82783" lon="6.22443">
        <ele>543.76</ele>
        <time>2013-10-02T11:19:40Z</time>
      </trkpt>
      <trkpt lat="43.82782" lon="6.22436">
        <ele>543.28</ele>
        <time>2013-10-02T11:19:41Z</time>
      </trkpt>
      <trkpt lat="43.82783" lon="6.22433">
        <ele>544.24</ele>
        <time>2013-10-02T11:19:42Z</time>
      </trkpt>
      <trkpt lat="43.82781" lon="6.22436">
        <ele>543.76</ele>
        <time>2013-10-02T11:19:43Z</time>
      </trkpt>
      <trkpt lat="43.82778" lon="6.2244">
        <ele>543.76</ele>
        <time>2013-10-02T11:19:44Z</time>
      </trkpt>
      <trkpt lat="43.82775" lon="6.22443">
        <ele>544.24</ele>
        <time>2013-10-02T11:19:45Z</time>
      </trkpt>
      <trkpt lat="43.82772" lon="6.22445">
        <ele>544.72</ele>
        <time>2013-10-02T11:19:46Z</time>
      </trkpt>
      <trkpt lat="43.82768" lon="6.22446">
        <ele>544.24</ele>
        <time>2013-10-02T11:19:47Z</time>
      </trkpt>
      <trkpt lat="43.82761" lon="6.22446">
        <ele>543.76</ele>
        <time>2013-10-02T11:19:49Z</time>
      </trkpt>
      <trkpt lat="43.82757" lon="6.22446">
        <ele>544.72</ele>
        <time>2013-10-02T11:19:50Z</time>
      </trkpt>
      <trkpt lat="43.82752" lon="6.22445">
        <ele>544.24</ele>
        <time>2013-10-02T11:19:51Z</time>
      </trkpt>
      <trkpt lat="43.82693" lon="6.22452">
        <ele>544.24</ele>
        <time>2013-10-02T11:20:02Z</time>
      </trkpt>
      <trkpt lat="43.8262" lon="6.22461">
        <ele>543.28</ele>
        <time>2013-10-02T11:20:13Z</time>
      </trkpt>
      <trkpt lat="43.82539" lon="6.22459">
        <ele>539.92</ele>
        <time>2013-10-02T11:20:23Z</time>
      </trkpt>
      <trkpt lat="43.82462" lon="6.22451">
        <ele>536.55</ele>
        <time>2013-10-02T11:20:32Z</time>
      </trkpt>
      <trkpt lat="43.82436" lon="6.22442">
        <ele>535.11</ele>
        <time>2013-10-02T11:20:35Z</time>
      </trkpt>
      <trkpt lat="43.82382" lon="6.22429">
        <ele>533.19</ele>
        <time>2013-10-02T11:20:41Z</time>
      </trkpt>
      <trkpt lat="43.82373" lon="6.2243">
        <ele>532.71</ele>
        <time>2013-10-02T11:20:42Z</time>
      </trkpt>
      <trkpt lat="43.82326" lon="6.22445">
        <ele>530.79</ele>
        <time>2013-10-02T11:20:47Z</time>
      </trkpt>
      <trkpt lat="43.82264" lon="6.22482">
        <ele>527.9</ele>
        <time>2013-10-02T11:20:54Z</time>
      </trkpt>
      <trkpt lat="43.8218" lon="6.22539">
        <ele>525.98</ele>
        <time>2013-10-02T11:21:05Z</time>
      </trkpt>
      <trkpt lat="43.82121" lon="6.22578">
        <ele>525.5</ele>
        <time>2013-10-02T11:21:15Z</time>
      </trkpt>
      <trkpt lat="43.82035" lon="6.22632">
        <ele>524.54</ele>
        <time>2013-10-02T11:21:30Z</time>
      </trkpt>
      <trkpt lat="43.81971" lon="6.22657">
        <ele>524.06</ele>
        <time>2013-10-02T11:21:41Z</time>
      </trkpt>
      <trkpt lat="43.81893" lon="6.22658">
        <ele>523.09</ele>
        <time>2013-10-02T11:21:52Z</time>
      </trkpt>
      <trkpt lat="43.81814" lon="6.22654">
        <ele>520.21</ele>
        <time>2013-10-02T11:22:02Z</time>
      </trkpt>
      <trkpt lat="43.81771" lon="6.22652">
        <ele>518.77</ele>
        <time>2013-10-02T11:22:07Z</time>
      </trkpt>
      <trkpt lat="43.81754" lon="6.22651">
        <ele>517.81</ele>
        <time>2013-10-02T11:22:09Z</time>
      </trkpt>
      <trkpt lat="43.81691" lon="6.22648">
        <ele>514.44</ele>
        <time>2013-10-02T11:22:16Z</time>
      </trkpt>
      <trkpt lat="43.81681" lon="6.22647">
        <ele>514.44</ele>
        <time>2013-10-02T11:22:17Z</time>
      </trkpt>
      <trkpt lat="43.81589" lon="6.22643">
        <ele>511.08</ele>
        <time>2013-10-02T11:22:27Z</time>
      </trkpt>
      <trkpt lat="43.81554" lon="6.22641">
        <ele>509.64</ele>
        <time>2013-10-02T11:22:31Z</time>
      </trkpt>
      <trkpt lat="43.81442" lon="6.22634">
        <ele>506.75</ele>
        <time>2013-10-02T11:22:44Z</time>
      </trkpt>
      <trkpt lat="43.81355" lon="6.2263">
        <ele>503.39</ele>
        <time>2013-10-02T11:22:54Z</time>
      </trkpt>
      <trkpt lat="43.81338" lon="6.22634">
        <ele>502.91</ele>
        <time>2013-10-02T11:22:56Z</time>
      </trkpt>
      <trkpt lat="43.81277" lon="6.22674">
        <ele>501.46</ele>
        <time>2013-10-02T11:23:04Z</time>
      </trkpt>
      <trkpt lat="43.81196" lon="6.22729">
        <ele>501.95</ele>
        <time>2013-10-02T11:23:16Z</time>
      </trkpt>
      <trkpt lat="43.81111" lon="6.22769">
        <ele>502.43</ele>
        <time>2013-10-02T11:23:29Z</time>
      </trkpt>
      <trkpt lat="43.81025" lon="6.22803">
        <ele>502.91</ele>
        <time>2013-10-02T11:23:42Z</time>
      </trkpt>
      <trkpt lat="43.80944" lon="6.22838">
        <ele>503.87</ele>
        <time>2013-10-02T11:23:55Z</time>
      </trkpt>
      <trkpt lat="43.80888" lon="6.22876">
        <ele>505.31</ele>
        <time>2013-10-02T11:24:05Z</time>
      </trkpt>
      <trkpt lat="43.80844" lon="6.22945">
        <ele>505.79</ele>
        <time>2013-10-02T11:24:16Z</time>
      </trkpt>
      <trkpt lat="43.80825" lon="6.22995">
        <ele>506.75</ele>
        <time>2013-10-02T11:24:24Z</time>
      </trkpt>
      <trkpt lat="43.80817" lon="6.23038">
        <ele>509.64</ele>
        <time>2013-10-02T11:24:31Z</time>
      </trkpt>
      <trkpt lat="43.80815" lon="6.23057">
        <ele>510.6</ele>
        <time>2013-10-02T11:24:34Z</time>
      </trkpt>
      <trkpt lat="43.80815" lon="6.23063">
        <ele>511.08</ele>
        <time>2013-10-02T11:24:35Z</time>
      </trkpt>
      <trkpt lat="43.80814" lon="6.23069">
        <ele>511.08</ele>
        <time>2013-10-02T11:24:36Z</time>
      </trkpt>
      <trkpt lat="43.80814" lon="6.23074">
        <ele>511.08</ele>
        <time>2013-10-02T11:24:37Z</time>
      </trkpt>
      <trkpt lat="43.80814" lon="6.2308">
        <ele>512.04</ele>
        <time>2013-10-02T11:24:38Z</time>
      </trkpt>
      <trkpt lat="43.80814" lon="6.23086">
        <ele>511.56</ele>
        <time>2013-10-02T11:24:39Z</time>
      </trkpt>
      <trkpt lat="43.80821" lon="6.23141">
        <ele>514.44</ele>
        <time>2013-10-02T11:24:50Z</time>
      </trkpt>
      <trkpt lat="43.80836" lon="6.23203">
        <ele>517.33</ele>
        <time>2013-10-02T11:25:03Z</time>
      </trkpt>
      <trkpt lat="43.80852" lon="6.23259">
        <ele>520.21</ele>
        <time>2013-10-02T11:25:15Z</time>
      </trkpt>
      <trkpt lat="43.80863" lon="6.23317">
        <ele>522.61</ele>
        <time>2013-10-02T11:25:27Z</time>
      </trkpt>
      <trkpt lat="43.80857" lon="6.23378">
        <ele>525.98</ele>
        <time>2013-10-02T11:25:40Z</time>
      </trkpt>
      <trkpt lat="43.80856" lon="6.23382">
        <ele>525.98</ele>
        <time>2013-10-02T11:25:41Z</time>
      </trkpt>
      <trkpt lat="43.80832" lon="6.23433">
        <ele>528.86</ele>
        <time>2013-10-02T11:25:54Z</time>
      </trkpt>
      <trkpt lat="43.80799" lon="6.23465">
        <ele>531.75</ele>
        <time>2013-10-02T11:26:06Z</time>
      </trkpt>
      <trkpt lat="43.8076" lon="6.23479">
        <ele>533.67</ele>
        <time>2013-10-02T11:26:18Z</time>
      </trkpt>
      <trkpt lat="43.80707" lon="6.23468">
        <ele>536.55</ele>
        <time>2013-10-02T11:26:32Z</time>
      </trkpt>
      <trkpt lat="43.80642" lon="6.23445">
        <ele>537.51</ele>
        <time>2013-10-02T11:26:47Z</time>
      </trkpt>
      <trkpt lat="43.80568" lon="6.23419">
        <ele>538.96</ele>
        <time>2013-10-02T11:27:02Z</time>
      </trkpt>
      <trkpt lat="43.80493" lon="6.23393">
        <ele>539.44</ele>
        <time>2013-10-02T11:27:16Z</time>
      </trkpt>
      <trkpt lat="43.8047" lon="6.23385">
        <ele>539.92</ele>
        <time>2013-10-02T11:27:20Z</time>
      </trkpt>
      <trkpt lat="43.80401" lon="6.23367">
        <ele>540.88</ele>
        <time>2013-10-02T11:27:32Z</time>
      </trkpt>
      <trkpt lat="43.80395" lon="6.23368">
        <ele>541.36</ele>
        <time>2013-10-02T11:27:33Z</time>
      </trkpt>
      <trkpt lat="43.80389" lon="6.23369">
        <ele>540.88</ele>
        <time>2013-10-02T11:27:34Z</time>
      </trkpt>
      <trkpt lat="43.80383" lon="6.23371">
        <ele>540.88</ele>
        <time>2013-10-02T11:27:35Z</time>
      </trkpt>
      <trkpt lat="43.80378" lon="6.23374">
        <ele>540.88</ele>
        <time>2013-10-02T11:27:36Z</time>
      </trkpt>
      <trkpt lat="43.80372" lon="6.23377">
        <ele>541.36</ele>
        <time>2013-10-02T11:27:37Z</time>
      </trkpt>
      <trkpt lat="43.80366" lon="6.23381">
        <ele>541.36</ele>
        <time>2013-10-02T11:27:38Z</time>
      </trkpt>
      <trkpt lat="43.80356" lon="6.2339">
        <ele>540.88</ele>
        <time>2013-10-02T11:27:40Z</time>
      </trkpt>
      <trkpt lat="43.80351" lon="6.23396">
        <ele>540.4</ele>
        <time>2013-10-02T11:27:41Z</time>
      </trkpt>
      <trkpt lat="43.80346" lon="6.23403">
        <ele>540.4</ele>
        <time>2013-10-02T11:27:42Z</time>
      </trkpt>
      <trkpt lat="43.80342" lon="6.2341">
        <ele>540.4</ele>
        <time>2013-10-02T11:27:43Z</time>
      </trkpt>
      <trkpt lat="43.80339" lon="6.23418">
        <ele>540.88</ele>
        <time>2013-10-02T11:27:44Z</time>
      </trkpt>
      <trkpt lat="43.80335" lon="6.23426">
        <ele>539.44</ele>
        <time>2013-10-02T11:27:45Z</time>
      </trkpt>
      <trkpt lat="43.80332" lon="6.23435">
        <ele>539.92</ele>
        <time>2013-10-02T11:27:46Z</time>
      </trkpt>
      <trkpt lat="43.8033" lon="6.23444">
        <ele>539.92</ele>
        <time>2013-10-02T11:27:47Z</time>
      </trkpt>
      <trkpt lat="43.80328" lon="6.23453">
        <ele>539.44</ele>
        <time>2013-10-02T11:27:48Z</time>
      </trkpt>
      <trkpt lat="43.80327" lon="6.23463">
        <ele>539.44</ele>
        <time>2013-10-02T11:27:49Z</time>
      </trkpt>
      <trkpt lat="43.80326" lon="6.23473">
        <ele>538.96</ele>
        <time>2013-10-02T11:27:50Z</time>
      </trkpt>
      <trkpt lat="43.80326" lon="6.23484">
        <ele>538.48</ele>
        <time>2013-10-02T11:27:51Z</time>
      </trkpt>
      <trkpt lat="43.80327" lon="6.23494">
        <ele>538.96</ele>
        <time>2013-10-02T11:27:52Z</time>
      </trkpt>
      <trkpt lat="43.80329" lon="6.23505">
        <ele>538.48</ele>
        <time>2013-10-02T11:27:53Z</time>
      </trkpt>
      <trkpt lat="43.80331" lon="6.23515">
        <ele>538.48</ele>
        <time>2013-10-02T11:27:54Z</time>
      </trkpt>
      <trkpt lat="43.80335" lon="6.23526">
        <ele>537.99</ele>
        <time>2013-10-02T11:27:55Z</time>
      </trkpt>
      <trkpt lat="43.80339" lon="6.23536">
        <ele>537.99</ele>
        <time>2013-10-02T11:27:56Z</time>
      </trkpt>
      <trkpt lat="43.80343" lon="6.23546">
        <ele>537.99</ele>
        <time>2013-10-02T11:27:57Z</time>
      </trkpt>
      <trkpt lat="43.80368" lon="6.23594">
        <ele>536.07</ele>
        <time>2013-10-02T11:28:02Z</time>
      </trkpt>
      <trkpt lat="43.80388" lon="6.23635">
        <ele>534.15</ele>
        <time>2013-10-02T11:28:06Z</time>
      </trkpt>
      <trkpt lat="43.80421" lon="6.23715">
        <ele>531.75</ele>
        <time>2013-10-02T11:28:13Z</time>
      </trkpt>
      <trkpt lat="43.80424" lon="6.23728">
        <ele>531.75</ele>
        <time>2013-10-02T11:28:14Z</time>
      </trkpt>
      <trkpt lat="43.80426" lon="6.23742">
        <ele>531.27</ele>
        <time>2013-10-02T11:28:15Z</time>
      </trkpt>
      <trkpt lat="43.80427" lon="6.23755">
        <ele>530.79</ele>
        <time>2013-10-02T11:28:16Z</time>
      </trkpt>
      <trkpt lat="43.80428" lon="6.23769">
        <ele>530.79</ele>
        <time>2013-10-02T11:28:17Z</time>
      </trkpt>
      <trkpt lat="43.80428" lon="6.23783">
        <ele>530.79</ele>
        <time>2013-10-02T11:28:18Z</time>
      </trkpt>
      <trkpt lat="43.80427" lon="6.23797">
        <ele>530.3</ele>
        <time>2013-10-02T11:28:19Z</time>
      </trkpt>
      <trkpt lat="43.80425" lon="6.23811">
        <ele>529.82</ele>
        <time>2013-10-02T11:28:20Z</time>
      </trkpt>
      <trkpt lat="43.8041" lon="6.23934">
        <ele>526.46</ele>
        <time>2013-10-02T11:28:29Z</time>
      </trkpt>
      <trkpt lat="43.80418" lon="6.24046">
        <ele>523.58</ele>
        <time>2013-10-02T11:28:37Z</time>
      </trkpt>
      <trkpt lat="43.80427" lon="6.24161">
        <ele>520.21</ele>
        <time>2013-10-02T11:28:45Z</time>
      </trkpt>
      <trkpt lat="43.80422" lon="6.24234">
        <ele>516.85</ele>
        <time>2013-10-02T11:28:50Z</time>
      </trkpt>
      <trkpt lat="43.80417" lon="6.24295">
        <ele>513.96</ele>
        <time>2013-10-02T11:28:54Z</time>
      </trkpt>
      <trkpt lat="43.80417" lon="6.24311">
        <ele>513.96</ele>
        <time>2013-10-02T11:28:55Z</time>
      </trkpt>
      <trkpt lat="43.80417" lon="6.24374">
        <ele>511.08</ele>
        <time>2013-10-02T11:28:59Z</time>
      </trkpt>
      <trkpt lat="43.80422" lon="6.24438">
        <ele>507.23</ele>
        <time>2013-10-02T11:29:03Z</time>
      </trkpt>
      <trkpt lat="43.80419" lon="6.24506">
        <ele>504.35</ele>
        <time>2013-10-02T11:29:07Z</time>
      </trkpt>
      <trkpt lat="43.80415" lon="6.2454">
        <ele>503.39</ele>
        <time>2013-10-02T11:29:09Z</time>
      </trkpt>
      <trkpt lat="43.8041" lon="6.24603">
        <ele>500.98</ele>
        <time>2013-10-02T11:29:13Z</time>
      </trkpt>
      <trkpt lat="43.80402" lon="6.24685">
        <ele>500.98</ele>
        <time>2013-10-02T11:29:20Z</time>
      </trkpt>
      <trkpt lat="43.80399" lon="6.24708">
        <ele>500.98</ele>
        <time>2013-10-02T11:29:27Z</time>
      </trkpt>
      <trkpt lat="43.80393" lon="6.24738">
        <ele>501.95</ele>
        <time>2013-10-02T11:29:37Z</time>
      </trkpt>
      <trkpt lat="43.80382" lon="6.24768">
        <ele>502.43</ele>
        <time>2013-10-02T11:29:47Z</time>
      </trkpt>
      <trkpt lat="43.80356" lon="6.24813">
        <ele>503.39</ele>
        <time>2013-10-02T11:29:57Z</time>
      </trkpt>
      <trkpt lat="43.80344" lon="6.24833">
        <ele>503.39</ele>
        <time>2013-10-02T11:30:01Z</time>
      </trkpt>
      <trkpt lat="43.80309" lon="6.24892">
        <ele>504.35</ele>
        <time>2013-10-02T11:30:13Z</time>
      </trkpt>
      <trkpt lat="43.80307" lon="6.24898">
        <ele>504.35</ele>
        <time>2013-10-02T11:30:14Z</time>
      </trkpt>
      <trkpt lat="43.80306" lon="6.24903">
        <ele>504.35</ele>
        <time>2013-10-02T11:30:15Z</time>
      </trkpt>
      <trkpt lat="43.80305" lon="6.24909">
        <ele>503.87</ele>
        <time>2013-10-02T11:30:16Z</time>
      </trkpt>
      <trkpt lat="43.80304" lon="6.24915">
        <ele>503.87</ele>
        <time>2013-10-02T11:30:17Z</time>
      </trkpt>
      <trkpt lat="43.803" lon="6.24949">
        <ele>503.39</ele>
        <time>2013-10-02T11:30:22Z</time>
      </trkpt>
      <trkpt lat="43.80298" lon="6.24956">
        <ele>503.39</ele>
        <time>2013-10-02T11:30:23Z</time>
      </trkpt>
      <trkpt lat="43.80296" lon="6.24962">
        <ele>503.87</ele>
        <time>2013-10-02T11:30:24Z</time>
      </trkpt>
      <trkpt lat="43.80293" lon="6.24969">
        <ele>504.35</ele>
        <time>2013-10-02T11:30:25Z</time>
      </trkpt>
      <trkpt lat="43.8029" lon="6.24974">
        <ele>504.35</ele>
        <time>2013-10-02T11:30:26Z</time>
      </trkpt>
      <trkpt lat="43.80287" lon="6.2498">
        <ele>503.87</ele>
        <time>2013-10-02T11:30:27Z</time>
      </trkpt>
      <trkpt lat="43.80283" lon="6.24984">
        <ele>503.87</ele>
        <time>2013-10-02T11:30:28Z</time>
      </trkpt>
      <trkpt lat="43.80279" lon="6.24988">
        <ele>503.39</ele>
        <time>2013-10-02T11:30:29Z</time>
      </trkpt>
      <trkpt lat="43.80275" lon="6.24991">
        <ele>503.87</ele>
        <time>2013-10-02T11:30:30Z</time>
      </trkpt>
      <trkpt lat="43.80271" lon="6.24993">
        <ele>504.35</ele>
        <time>2013-10-02T11:30:31Z</time>
      </trkpt>
      <trkpt lat="43.80267" lon="6.24995">
        <ele>503.87</ele>
        <time>2013-10-02T11:30:32Z</time>
      </trkpt>
      <trkpt lat="43.80262" lon="6.24996">
        <ele>503.87</ele>
        <time>2013-10-02T11:30:33Z</time>
      </trkpt>
      <trkpt lat="43.80258" lon="6.24996">
        <ele>503.87</ele>
        <time>2013-10-02T11:30:34Z</time>
      </trkpt>
      <trkpt lat="43.80242" lon="6.24991">
        <ele>503.39</ele>
        <time>2013-10-02T11:30:38Z</time>
      </trkpt>
      <trkpt lat="43.80238" lon="6.2499">
        <ele>503.87</ele>
        <time>2013-10-02T11:30:39Z</time>
      </trkpt>
      <trkpt lat="43.80216" lon="6.24979">
        <ele>503.39</ele>
        <time>2013-10-02T11:30:47Z</time>
      </trkpt>
      <trkpt lat="43.80197" lon="6.24965">
        <ele>503.39</ele>
        <time>2013-10-02T11:30:57Z</time>
      </trkpt>
      <trkpt lat="43.80192" lon="6.24961">
        <ele>503.39</ele>
        <time>2013-10-02T11:31:05Z</time>
      </trkpt>
      <trkpt lat="43.80191" lon="6.24961">
        <ele>502.91</ele>
        <time>2013-10-02T11:31:14Z</time>
      </trkpt>
      <trkpt lat="43.80185" lon="6.24955">
        <ele>503.39</ele>
        <time>2013-10-02T11:31:45Z</time>
      </trkpt>
      <trkpt lat="43.80183" lon="6.24954">
        <ele>503.39</ele>
        <time>2013-10-02T11:31:59Z</time>
      </trkpt>
      <trkpt lat="43.80183" lon="6.24952">
        <ele>503.39</ele>
        <time>2013-10-02T11:32:15Z</time>
      </trkpt>
      <trkpt lat="43.80182" lon="6.2495">
        <ele>503.39</ele>
        <time>2013-10-02T11:32:22Z</time>
      </trkpt>
      <trkpt lat="43.80182" lon="6.24948">
        <ele>503.39</ele>
        <time>2013-10-02T11:32:23Z</time>
      </trkpt>
      <trkpt lat="43.8018" lon="6.24947">
        <ele>503.39</ele>
        <time>2013-10-02T11:32:24Z</time>
      </trkpt>
      <trkpt lat="43.80179" lon="6.24944">
        <ele>503.87</ele>
        <time>2013-10-02T11:32:25Z</time>
      </trkpt>
      <trkpt lat="43.80177" lon="6.24942">
        <ele>503.39</ele>
        <time>2013-10-02T11:32:26Z</time>
      </trkpt>
      <trkpt lat="43.80175" lon="6.2494">
        <ele>503.87</ele>
        <time>2013-10-02T11:32:27Z</time>
      </trkpt>
      <trkpt lat="43.80172" lon="6.24938">
        <ele>503.39</ele>
        <time>2013-10-02T11:32:28Z</time>
      </trkpt>
      <trkpt lat="43.80154" lon="6.24926">
        <ele>503.87</ele>
        <time>2013-10-02T11:32:33Z</time>
      </trkpt>
      <trkpt lat="43.80115" lon="6.24893">
        <ele>503.87</ele>
        <time>2013-10-02T11:32:42Z</time>
      </trkpt>
      <trkpt lat="43.80111" lon="6.24887">
        <ele>503.39</ele>
        <time>2013-10-02T11:32:43Z</time>
      </trkpt>
      <trkpt lat="43.80081" lon="6.2482">
        <ele>504.83</ele>
        <time>2013-10-02T11:32:53Z</time>
      </trkpt>
      <trkpt lat="43.8005" lon="6.24749">
        <ele>506.27</ele>
        <time>2013-10-02T11:33:04Z</time>
      </trkpt>
      <trkpt lat="43.80048" lon="6.24742">
        <ele>506.27</ele>
        <time>2013-10-02T11:33:05Z</time>
      </trkpt>
      <trkpt lat="43.80013" lon="6.24665">
        <ele>507.71</ele>
        <time>2013-10-02T11:33:17Z</time>
      </trkpt>
      <trkpt lat="43.79978" lon="6.24607">
        <ele>509.16</ele>
        <time>2013-10-02T11:33:27Z</time>
      </trkpt>
      <trkpt lat="43.79975" lon="6.24602">
        <ele>508.67</ele>
        <time>2013-10-02T11:33:28Z</time>
      </trkpt>
      <trkpt lat="43.79938" lon="6.24552">
        <ele>510.6</ele>
        <time>2013-10-02T11:33:38Z</time>
      </trkpt>
      <trkpt lat="43.79913" lon="6.24524">
        <ele>511.08</ele>
        <time>2013-10-02T11:33:44Z</time>
      </trkpt>
      <trkpt lat="43.79909" lon="6.2452">
        <ele>511.08</ele>
        <time>2013-10-02T11:33:45Z</time>
      </trkpt>
      <trkpt lat="43.79865" lon="6.24482">
        <ele>512.52</ele>
        <time>2013-10-02T11:33:54Z</time>
      </trkpt>
      <trkpt lat="43.79816" lon="6.24443">
        <ele>513.48</ele>
        <time>2013-10-02T11:34:04Z</time>
      </trkpt>
      <trkpt lat="43.79753" lon="6.2439">
        <ele>513</ele>
        <time>2013-10-02T11:34:16Z</time>
      </trkpt>
      <trkpt lat="43.79712" lon="6.24331">
        <ele>512.04</ele>
        <time>2013-10-02T11:34:25Z</time>
      </trkpt>
      <trkpt lat="43.79705" lon="6.24317">
        <ele>511.56</ele>
        <time>2013-10-02T11:34:27Z</time>
      </trkpt>
      <trkpt lat="43.79699" lon="6.24303">
        <ele>511.08</ele>
        <time>2013-10-02T11:34:29Z</time>
      </trkpt>
      <trkpt lat="43.79695" lon="6.24297">
        <ele>511.56</ele>
        <time>2013-10-02T11:34:30Z</time>
      </trkpt>
      <trkpt lat="43.79692" lon="6.24293">
        <ele>512.04</ele>
        <time>2013-10-02T11:34:31Z</time>
      </trkpt>
      <trkpt lat="43.79689" lon="6.24292">
        <ele>511.56</ele>
        <time>2013-10-02T11:34:32Z</time>
      </trkpt>
      <trkpt lat="43.79688" lon="6.24291">
        <ele>511.08</ele>
        <time>2013-10-02T11:34:33Z</time>
      </trkpt>
      <trkpt lat="43.79685" lon="6.24293">
        <ele>511.56</ele>
        <time>2013-10-02T11:34:40Z</time>
      </trkpt>
      <trkpt lat="43.79685" lon="6.24294">
        <ele>511.08</ele>
        <time>2013-10-02T11:34:41Z</time>
      </trkpt>
      <trkpt lat="43.79686" lon="6.24296">
        <ele>511.56</ele>
        <time>2013-10-02T11:34:42Z</time>
      </trkpt>
      <trkpt lat="43.79686" lon="6.24298">
        <ele>511.56</ele>
        <time>2013-10-02T11:34:43Z</time>
      </trkpt>
      <trkpt lat="43.79688" lon="6.24308">
        <ele>512.52</ele>
        <time>2013-10-02T11:34:51Z</time>
      </trkpt>
      <trkpt lat="43.79692" lon="6.24319">
        <ele>512.04</ele>
        <time>2013-10-02T11:35:00Z</time>
      </trkpt>
      <trkpt lat="43.79693" lon="6.24321">
        <ele>512.52</ele>
        <time>2013-10-02T11:35:08Z</time>
      </trkpt>
      <trkpt lat="43.79693" lon="6.24321">
        <ele>512.04</ele>
        <time>2013-10-02T11:35:26Z</time>
      </trkpt>
      <trkpt lat="43.79694" lon="6.24323">
        <ele>512.04</ele>
        <time>2013-10-02T11:35:45Z</time>
      </trkpt>
      <trkpt lat="43.79694" lon="6.24324">
        <ele>512.04</ele>
        <time>2013-10-02T11:35:54Z</time>
      </trkpt>
      <trkpt lat="43.79694" lon="6.24323">
        <ele>511.56</ele>
        <time>2013-10-02T11:36:41Z</time>
      </trkpt>
      <trkpt lat="43.7969" lon="6.24316">
        <ele>511.08</ele>
        <time>2013-10-02T11:36:52Z</time>
      </trkpt>
      <trkpt lat="43.7969" lon="6.24311">
        <ele>511.08</ele>
        <time>2013-10-02T11:36:55Z</time>
      </trkpt>
      <trkpt lat="43.7969" lon="6.24308">
        <ele>511.56</ele>
        <time>2013-10-02T11:36:56Z</time>
      </trkpt>
      <trkpt lat="43.7969" lon="6.24305">
        <ele>510.6</ele>
        <time>2013-10-02T11:36:57Z</time>
      </trkpt>
      <trkpt lat="43.7969" lon="6.24302">
        <ele>511.08</ele>
        <time>2013-10-02T11:36:58Z</time>
      </trkpt>
      <trkpt lat="43.79691" lon="6.24298">
        <ele>510.12</ele>
        <time>2013-10-02T11:36:59Z</time>
      </trkpt>
      <trkpt lat="43.79693" lon="6.24294">
        <ele>510.6</ele>
        <time>2013-10-02T11:37:00Z</time>
      </trkpt>
      <trkpt lat="43.79695" lon="6.24289">
        <ele>510.12</ele>
        <time>2013-10-02T11:37:01Z</time>
      </trkpt>
      <trkpt lat="43.79696" lon="6.24283">
        <ele>510.12</ele>
        <time>2013-10-02T11:37:02Z</time>
      </trkpt>
      <trkpt lat="43.79697" lon="6.24276">
        <ele>510.6</ele>
        <time>2013-10-02T11:37:03Z</time>
      </trkpt>
      <trkpt lat="43.79696" lon="6.24269">
        <ele>510.6</ele>
        <time>2013-10-02T11:37:04Z</time>
      </trkpt>
      <trkpt lat="43.79695" lon="6.24262">
        <ele>510.6</ele>
        <time>2013-10-02T11:37:05Z</time>
      </trkpt>
      <trkpt lat="43.79688" lon="6.24182">
        <ele>509.16</ele>
        <time>2013-10-02T11:37:14Z</time>
      </trkpt>
      <trkpt lat="43.79698" lon="6.24076">
        <ele>508.19</ele>
        <time>2013-10-02T11:37:25Z</time>
      </trkpt>
      <trkpt lat="43.79714" lon="6.23927">
        <ele>507.23</ele>
        <time>2013-10-02T11:37:40Z</time>
      </trkpt>
      <trkpt lat="43.79726" lon="6.23814">
        <ele>505.79</ele>
        <time>2013-10-02T11:37:51Z</time>
      </trkpt>
      <trkpt lat="43.79725" lon="6.23804">
        <ele>505.31</ele>
        <time>2013-10-02T11:37:52Z</time>
      </trkpt>
      <trkpt lat="43.79724" lon="6.23794">
        <ele>505.31</ele>
        <time>2013-10-02T11:37:53Z</time>
      </trkpt>
      <trkpt lat="43.79721" lon="6.23784">
        <ele>505.31</ele>
        <time>2013-10-02T11:37:54Z</time>
      </trkpt>
      <trkpt lat="43.79718" lon="6.23774">
        <ele>504.83</ele>
        <time>2013-10-02T11:37:55Z</time>
      </trkpt>
      <trkpt lat="43.79713" lon="6.23765">
        <ele>504.83</ele>
        <time>2013-10-02T11:37:56Z</time>
      </trkpt>
      <trkpt lat="43.79707" lon="6.23756">
        <ele>503.87</ele>
        <time>2013-10-02T11:37:57Z</time>
      </trkpt>
      <trkpt lat="43.797" lon="6.23747">
        <ele>504.35</ele>
        <time>2013-10-02T11:37:58Z</time>
      </trkpt>
      <trkpt lat="43.79692" lon="6.2374">
        <ele>504.35</ele>
        <time>2013-10-02T11:37:59Z</time>
      </trkpt>
      <trkpt lat="43.79683" lon="6.23735">
        <ele>503.87</ele>
        <time>2013-10-02T11:38:00Z</time>
      </trkpt>
      <trkpt lat="43.79676" lon="6.2373">
        <ele>503.87</ele>
        <time>2013-10-02T11:38:01Z</time>
      </trkpt>
      <trkpt lat="43.79668" lon="6.23727">
        <ele>504.35</ele>
        <time>2013-10-02T11:38:02Z</time>
      </trkpt>
      <trkpt lat="43.79661" lon="6.23724">
        <ele>503.39</ele>
        <time>2013-10-02T11:38:03Z</time>
      </trkpt>
      <trkpt lat="43.79654" lon="6.23722">
        <ele>502.91</ele>
        <time>2013-10-02T11:38:04Z</time>
      </trkpt>
      <trkpt lat="43.79618" lon="6.2371">
        <ele>502.43</ele>
        <time>2013-10-02T11:38:09Z</time>
      </trkpt>
      <trkpt lat="43.79611" lon="6.23708">
        <ele>502.43</ele>
        <time>2013-10-02T11:38:10Z</time>
      </trkpt>
      <trkpt lat="43.79583" lon="6.23695">
        <ele>501.95</ele>
        <time>2013-10-02T11:38:14Z</time>
      </trkpt>
      <trkpt lat="43.79576" lon="6.2369">
        <ele>501.95</ele>
        <time>2013-10-02T11:38:15Z</time>
      </trkpt>
      <trkpt lat="43.7957" lon="6.23684">
        <ele>501.95</ele>
        <time>2013-10-02T11:38:16Z</time>
      </trkpt>
      <trkpt lat="43.79565" lon="6.23678">
        <ele>502.43</ele>
        <time>2013-10-02T11:38:17Z</time>
      </trkpt>
      <trkpt lat="43.7956" lon="6.2367">
        <ele>502.43</ele>
        <time>2013-10-02T11:38:18Z</time>
      </trkpt>
      <trkpt lat="43.79556" lon="6.23662">
        <ele>501.95</ele>
        <time>2013-10-02T11:38:19Z</time>
      </trkpt>
      <trkpt lat="43.79553" lon="6.23653">
        <ele>502.91</ele>
        <time>2013-10-02T11:38:20Z</time>
      </trkpt>
      <trkpt lat="43.7955" lon="6.23644">
        <ele>502.43</ele>
        <time>2013-10-02T11:38:21Z</time>
      </trkpt>
      <trkpt lat="43.79548" lon="6.23635">
        <ele>501.95</ele>
        <time>2013-10-02T11:38:22Z</time>
      </trkpt>
      <trkpt lat="43.79546" lon="6.23625">
        <ele>502.91</ele>
        <time>2013-10-02T11:38:23Z</time>
      </trkpt>
      <trkpt lat="43.79545" lon="6.23615">
        <ele>502.91</ele>
        <time>2013-10-02T11:38:24Z</time>
      </trkpt>
      <trkpt lat="43.79545" lon="6.23596">
        <ele>502.91</ele>
        <time>2013-10-02T11:38:26Z</time>
      </trkpt>
      <trkpt lat="43.79547" lon="6.23587">
        <ele>502.43</ele>
        <time>2013-10-02T11:38:27Z</time>
      </trkpt>
      <trkpt lat="43.79548" lon="6.23578">
        <ele>502.91</ele>
        <time>2013-10-02T11:38:28Z</time>
      </trkpt>
      <trkpt lat="43.79564" lon="6.23519">
        <ele>503.39</ele>
        <time>2013-10-02T11:38:35Z</time>
      </trkpt>
      <trkpt lat="43.79589" lon="6.23431">
        <ele>504.35</ele>
        <time>2013-10-02T11:38:46Z</time>
      </trkpt>
      <trkpt lat="43.79593" lon="6.23413">
        <ele>504.35</ele>
        <time>2013-10-02T11:38:48Z</time>
      </trkpt>
      <trkpt lat="43.79596" lon="6.23372">
        <ele>504.35</ele>
        <time>2013-10-02T11:38:53Z</time>
      </trkpt>
      <trkpt lat="43.79596" lon="6.23363">
        <ele>505.31</ele>
        <time>2013-10-02T11:38:54Z</time>
      </trkpt>
      <trkpt lat="43.79588" lon="6.23321">
        <ele>505.31</ele>
        <time>2013-10-02T11:38:59Z</time>
      </trkpt>
      <trkpt lat="43.79583" lon="6.23305">
        <ele>504.83</ele>
        <time>2013-10-02T11:39:01Z</time>
      </trkpt>
      <trkpt lat="43.79541" lon="6.23245">
        <ele>505.79</ele>
        <time>2013-10-02T11:39:10Z</time>
      </trkpt>
      <trkpt lat="43.79536" lon="6.2324">
        <ele>505.79</ele>
        <time>2013-10-02T11:39:11Z</time>
      </trkpt>
      <trkpt lat="43.7953" lon="6.23236">
        <ele>506.27</ele>
        <time>2013-10-02T11:39:12Z</time>
      </trkpt>
      <trkpt lat="43.79512" lon="6.23227">
        <ele>506.75</ele>
        <time>2013-10-02T11:39:15Z</time>
      </trkpt>
      <trkpt lat="43.79434" lon="6.23213">
        <ele>506.75</ele>
        <time>2013-10-02T11:39:27Z</time>
      </trkpt>
      <trkpt lat="43.79376" lon="6.23198">
        <ele>507.23</ele>
        <time>2013-10-02T11:39:36Z</time>
      </trkpt>
      <trkpt lat="43.79371" lon="6.23195">
        <ele>507.23</ele>
        <time>2013-10-02T11:39:37Z</time>
      </trkpt>
      <trkpt lat="43.79352" lon="6.23181">
        <ele>507.71</ele>
        <time>2013-10-02T11:39:41Z</time>
      </trkpt>
      <trkpt lat="43.79348" lon="6.23178">
        <ele>507.23</ele>
        <time>2013-10-02T11:39:42Z</time>
      </trkpt>
      <trkpt lat="43.79345" lon="6.23174">
        <ele>507.23</ele>
        <time>2013-10-02T11:39:43Z</time>
      </trkpt>
      <trkpt lat="43.79337" lon="6.23166">
        <ele>507.71</ele>
        <time>2013-10-02T11:39:46Z</time>
      </trkpt>
      <trkpt lat="43.79334" lon="6.23166">
        <ele>507.71</ele>
        <time>2013-10-02T11:39:47Z</time>
      </trkpt>
      <trkpt lat="43.79331" lon="6.23168">
        <ele>507.23</ele>
        <time>2013-10-02T11:39:48Z</time>
      </trkpt>
      <trkpt lat="43.7933" lon="6.23171">
        <ele>507.23</ele>
        <time>2013-10-02T11:39:49Z</time>
      </trkpt>
      <trkpt lat="43.7933" lon="6.23173">
        <ele>507.23</ele>
        <time>2013-10-02T11:39:50Z</time>
      </trkpt>
      <trkpt lat="43.7933" lon="6.23175">
        <ele>507.23</ele>
        <time>2013-10-02T11:39:58Z</time>
      </trkpt>
      <trkpt lat="43.79329" lon="6.23175">
        <ele>506.75</ele>
        <time>2013-10-02T11:40:01Z</time>
      </trkpt>
      <trkpt lat="43.79328" lon="6.23176">
        <ele>507.71</ele>
        <time>2013-10-02T11:40:02Z</time>
      </trkpt>
      <trkpt lat="43.79311" lon="6.23192">
        <ele>506.75</ele>
        <time>2013-10-02T11:40:10Z</time>
      </trkpt>
      <trkpt lat="43.79277" lon="6.23212">
        <ele>509.16</ele>
        <time>2013-10-02T11:40:20Z</time>
      </trkpt>
      <trkpt lat="43.79238" lon="6.23234">
        <ele>511.08</ele>
        <time>2013-10-02T11:40:33Z</time>
      </trkpt>
      <trkpt lat="43.79232" lon="6.23262">
        <ele>512.52</ele>
        <time>2013-10-02T11:40:40Z</time>
      </trkpt>
      <trkpt lat="43.79251" lon="6.23273">
        <ele>513.48</ele>
        <time>2013-10-02T11:40:47Z</time>
      </trkpt>
      <trkpt lat="43.7929" lon="6.23275">
        <ele>514.92</ele>
        <time>2013-10-02T11:40:58Z</time>
      </trkpt>
      <trkpt lat="43.79328" lon="6.2329">
        <ele>516.85</ele>
        <time>2013-10-02T11:41:09Z</time>
      </trkpt>
      <trkpt lat="43.79364" lon="6.23307">
        <ele>519.25</ele>
        <time>2013-10-02T11:41:20Z</time>
      </trkpt>
      <trkpt lat="43.79414" lon="6.23329">
        <ele>521.17</ele>
        <time>2013-10-02T11:41:35Z</time>
      </trkpt>
      <trkpt lat="43.7945" lon="6.23341">
        <ele>523.09</ele>
        <time>2013-10-02T11:41:46Z</time>
      </trkpt>
      <trkpt lat="43.79472" lon="6.23354">
        <ele>524.54</ele>
        <time>2013-10-02T11:41:53Z</time>
      </trkpt>
      <trkpt lat="43.79473" lon="6.23359">
        <ele>524.54</ele>
        <time>2013-10-02T11:41:54Z</time>
      </trkpt>
      <trkpt lat="43.79474" lon="6.23363">
        <ele>525.02</ele>
        <time>2013-10-02T11:41:55Z</time>
      </trkpt>
      <trkpt lat="43.79474" lon="6.23368">
        <ele>525.02</ele>
        <time>2013-10-02T11:41:56Z</time>
      </trkpt>
      <trkpt lat="43.79473" lon="6.23373">
        <ele>525.98</ele>
        <time>2013-10-02T11:41:57Z</time>
      </trkpt>
      <trkpt lat="43.79471" lon="6.23377">
        <ele>525.5</ele>
        <time>2013-10-02T11:41:58Z</time>
      </trkpt>
      <trkpt lat="43.79469" lon="6.2338">
        <ele>525.98</ele>
        <time>2013-10-02T11:41:59Z</time>
      </trkpt>
      <trkpt lat="43.79466" lon="6.23383">
        <ele>526.46</ele>
        <time>2013-10-02T11:42:00Z</time>
      </trkpt>
      <trkpt lat="43.79463" lon="6.23385">
        <ele>526.46</ele>
        <time>2013-10-02T11:42:01Z</time>
      </trkpt>
      <trkpt lat="43.79459" lon="6.23385">
        <ele>526.94</ele>
        <time>2013-10-02T11:42:02Z</time>
      </trkpt>
      <trkpt lat="43.79456" lon="6.23385">
        <ele>526.46</ele>
        <time>2013-10-02T11:42:03Z</time>
      </trkpt>
      <trkpt lat="43.79453" lon="6.23385">
        <ele>527.42</ele>
        <time>2013-10-02T11:42:04Z</time>
      </trkpt>
      <trkpt lat="43.79449" lon="6.23384">
        <ele>527.9</ele>
        <time>2013-10-02T11:42:05Z</time>
      </trkpt>
      <trkpt lat="43.79407" lon="6.23375">
        <ele>529.34</ele>
        <time>2013-10-02T11:42:17Z</time>
      </trkpt>
      <trkpt lat="43.79356" lon="6.23383">
        <ele>531.75</ele>
        <time>2013-10-02T11:42:31Z</time>
      </trkpt>
      <trkpt lat="43.79311" lon="6.23395">
        <ele>534.63</ele>
        <time>2013-10-02T11:42:44Z</time>
      </trkpt>
      <trkpt lat="43.79265" lon="6.23413">
        <ele>536.55</ele>
        <time>2013-10-02T11:42:57Z</time>
      </trkpt>
      <trkpt lat="43.79215" lon="6.23427">
        <ele>538.96</ele>
        <time>2013-10-02T11:43:11Z</time>
      </trkpt>
      <trkpt lat="43.79192" lon="6.23456">
        <ele>540.88</ele>
        <time>2013-10-02T11:43:20Z</time>
      </trkpt>
      <trkpt lat="43.79179" lon="6.23498">
        <ele>542.8</ele>
        <time>2013-10-02T11:43:29Z</time>
      </trkpt>
      <trkpt lat="43.79149" lon="6.23511">
        <ele>544.72</ele>
        <time>2013-10-02T11:43:38Z</time>
      </trkpt>
      <trkpt lat="43.79111" lon="6.23534">
        <ele>546.65</ele>
        <time>2013-10-02T11:43:50Z</time>
      </trkpt>
      <trkpt lat="43.79059" lon="6.23562">
        <ele>549.05</ele>
        <time>2013-10-02T11:44:05Z</time>
      </trkpt>
      <trkpt lat="43.79011" lon="6.23572">
        <ele>551.45</ele>
        <time>2013-10-02T11:44:18Z</time>
      </trkpt>
      <trkpt lat="43.78953" lon="6.23575">
        <ele>553.86</ele>
        <time>2013-10-02T11:44:33Z</time>
      </trkpt>
      <trkpt lat="43.7891" lon="6.2359">
        <ele>555.3</ele>
        <time>2013-10-02T11:44:44Z</time>
      </trkpt>
      <trkpt lat="43.78882" lon="6.23596">
        <ele>556.74</ele>
        <time>2013-10-02T11:44:51Z</time>
      </trkpt>
      <trkpt lat="43.78878" lon="6.23594">
        <ele>556.74</ele>
        <time>2013-10-02T11:44:52Z</time>
      </trkpt>
      <trkpt lat="43.78874" lon="6.23591">
        <ele>557.22</ele>
        <time>2013-10-02T11:44:53Z</time>
      </trkpt>
      <trkpt lat="43.7887" lon="6.23588">
        <ele>557.22</ele>
        <time>2013-10-02T11:44:54Z</time>
      </trkpt>
      <trkpt lat="43.78867" lon="6.23584">
        <ele>558.18</ele>
        <time>2013-10-02T11:44:55Z</time>
      </trkpt>
      <trkpt lat="43.78845" lon="6.23551">
        <ele>559.62</ele>
        <time>2013-10-02T11:45:03Z</time>
      </trkpt>
      <trkpt lat="43.78841" lon="6.23548">
        <ele>560.11</ele>
        <time>2013-10-02T11:45:04Z</time>
      </trkpt>
      <trkpt lat="43.78838" lon="6.23545">
        <ele>559.62</ele>
        <time>2013-10-02T11:45:05Z</time>
      </trkpt>
      <trkpt lat="43.78834" lon="6.23543">
        <ele>560.11</ele>
        <time>2013-10-02T11:45:06Z</time>
      </trkpt>
      <trkpt lat="43.78829" lon="6.23543">
        <ele>560.11</ele>
        <time>2013-10-02T11:45:07Z</time>
      </trkpt>
      <trkpt lat="43.78825" lon="6.23542">
        <ele>560.59</ele>
        <time>2013-10-02T11:45:08Z</time>
      </trkpt>
      <trkpt lat="43.78822" lon="6.23542">
        <ele>561.07</ele>
        <time>2013-10-02T11:45:09Z</time>
      </trkpt>
      <trkpt lat="43.78818" lon="6.23543">
        <ele>560.59</ele>
        <time>2013-10-02T11:45:10Z</time>
      </trkpt>
      <trkpt lat="43.78813" lon="6.23544">
        <ele>561.07</ele>
        <time>2013-10-02T11:45:11Z</time>
      </trkpt>
      <trkpt lat="43.78809" lon="6.23545">
        <ele>561.07</ele>
        <time>2013-10-02T11:45:12Z</time>
      </trkpt>
      <trkpt lat="43.78806" lon="6.23547">
        <ele>561.55</ele>
        <time>2013-10-02T11:45:13Z</time>
      </trkpt>
      <trkpt lat="43.78802" lon="6.23549">
        <ele>562.03</ele>
        <time>2013-10-02T11:45:14Z</time>
      </trkpt>
      <trkpt lat="43.78798" lon="6.23551">
        <ele>562.03</ele>
        <time>2013-10-02T11:45:15Z</time>
      </trkpt>
      <trkpt lat="43.78765" lon="6.23576">
        <ele>563.47</ele>
        <time>2013-10-02T11:45:25Z</time>
      </trkpt>
      <trkpt lat="43.78732" lon="6.23621">
        <ele>566.35</ele>
        <time>2013-10-02T11:45:38Z</time>
      </trkpt>
      <trkpt lat="43.78706" lon="6.23632">
        <ele>568.76</ele>
        <time>2013-10-02T11:45:46Z</time>
      </trkpt>
      <trkpt lat="43.78674" lon="6.2363">
        <ele>569.72</ele>
        <time>2013-10-02T11:45:55Z</time>
      </trkpt>
      <trkpt lat="43.78632" lon="6.23651">
        <ele>571.64</ele>
        <time>2013-10-02T11:46:07Z</time>
      </trkpt>
      <trkpt lat="43.78603" lon="6.23644">
        <ele>572.6</ele>
        <time>2013-10-02T11:46:15Z</time>
      </trkpt>
      <trkpt lat="43.78584" lon="6.23627">
        <ele>574.04</ele>
        <time>2013-10-02T11:46:21Z</time>
      </trkpt>
      <trkpt lat="43.7856" lon="6.23594">
        <ele>575.49</ele>
        <time>2013-10-02T11:46:30Z</time>
      </trkpt>
      <trkpt lat="43.78529" lon="6.23552">
        <ele>578.37</ele>
        <time>2013-10-02T11:46:42Z</time>
      </trkpt>
      <trkpt lat="43.78501" lon="6.23549">
        <ele>579.81</ele>
        <time>2013-10-02T11:46:50Z</time>
      </trkpt>
      <trkpt lat="43.78469" lon="6.23551">
        <ele>581.73</ele>
        <time>2013-10-02T11:46:59Z</time>
      </trkpt>
      <trkpt lat="43.78436" lon="6.23516">
        <ele>584.14</ele>
        <time>2013-10-02T11:47:10Z</time>
      </trkpt>
      <trkpt lat="43.78417" lon="6.23487">
        <ele>585.1</ele>
        <time>2013-10-02T11:47:17Z</time>
      </trkpt>
      <trkpt lat="43.78415" lon="6.23482">
        <ele>584.62</ele>
        <time>2013-10-02T11:47:18Z</time>
      </trkpt>
      <trkpt lat="43.78414" lon="6.23477">
        <ele>585.1</ele>
        <time>2013-10-02T11:47:19Z</time>
      </trkpt>
      <trkpt lat="43.78413" lon="6.23471">
        <ele>585.1</ele>
        <time>2013-10-02T11:47:20Z</time>
      </trkpt>
      <trkpt lat="43.78414" lon="6.23465">
        <ele>585.1</ele>
        <time>2013-10-02T11:47:21Z</time>
      </trkpt>
      <trkpt lat="43.78415" lon="6.2346">
        <ele>585.1</ele>
        <time>2013-10-02T11:47:22Z</time>
      </trkpt>
      <trkpt lat="43.78417" lon="6.23455">
        <ele>585.1</ele>
        <time>2013-10-02T11:47:23Z</time>
      </trkpt>
      <trkpt lat="43.78421" lon="6.23452">
        <ele>585.1</ele>
        <time>2013-10-02T11:47:24Z</time>
      </trkpt>
      <trkpt lat="43.78424" lon="6.2345">
        <ele>585.58</ele>
        <time>2013-10-02T11:47:25Z</time>
      </trkpt>
      <trkpt lat="43.78428" lon="6.23449">
        <ele>585.58</ele>
        <time>2013-10-02T11:47:26Z</time>
      </trkpt>
      <trkpt lat="43.78433" lon="6.23449">
        <ele>585.58</ele>
        <time>2013-10-02T11:47:27Z</time>
      </trkpt>
      <trkpt lat="43.78438" lon="6.23448">
        <ele>585.58</ele>
        <time>2013-10-02T11:47:28Z</time>
      </trkpt>
      <trkpt lat="43.78451" lon="6.23444">
        <ele>585.1</ele>
        <time>2013-10-02T11:47:31Z</time>
      </trkpt>
      <trkpt lat="43.78455" lon="6.23442">
        <ele>585.58</ele>
        <time>2013-10-02T11:47:32Z</time>
      </trkpt>
      <trkpt lat="43.78463" lon="6.23435">
        <ele>586.06</ele>
        <time>2013-10-02T11:47:34Z</time>
      </trkpt>
      <trkpt lat="43.78468" lon="6.23431">
        <ele>585.58</ele>
        <time>2013-10-02T11:47:35Z</time>
      </trkpt>
      <trkpt lat="43.78524" lon="6.23377">
        <ele>587.5</ele>
        <time>2013-10-02T11:47:48Z</time>
      </trkpt>
      <trkpt lat="43.78547" lon="6.23353">
        <ele>588.46</ele>
        <time>2013-10-02T11:47:54Z</time>
      </trkpt>
      <trkpt lat="43.7855" lon="6.23349">
        <ele>588.46</ele>
        <time>2013-10-02T11:47:55Z</time>
      </trkpt>
      <trkpt lat="43.78581" lon="6.23305">
        <ele>590.87</ele>
        <time>2013-10-02T11:48:06Z</time>
      </trkpt>
      <trkpt lat="43.78606" lon="6.23253">
        <ele>593.27</ele>
        <time>2013-10-02T11:48:18Z</time>
      </trkpt>
      <trkpt lat="43.786" lon="6.23222">
        <ele>595.19</ele>
        <time>2013-10-02T11:48:25Z</time>
      </trkpt>
      <trkpt lat="43.78571" lon="6.2321">
        <ele>596.64</ele>
        <time>2013-10-02T11:48:33Z</time>
      </trkpt>
      <trkpt lat="43.78533" lon="6.23206">
        <ele>598.56</ele>
        <time>2013-10-02T11:48:44Z</time>
      </trkpt>
      <trkpt lat="43.785" lon="6.23196">
        <ele>600.48</ele>
        <time>2013-10-02T11:48:54Z</time>
      </trkpt>
      <trkpt lat="43.78458" lon="6.23217">
        <ele>601.92</ele>
        <time>2013-10-02T11:49:07Z</time>
      </trkpt>
      <trkpt lat="43.78416" lon="6.2325">
        <ele>603.36</ele>
        <time>2013-10-02T11:49:21Z</time>
      </trkpt>
      <trkpt lat="43.78382" lon="6.23253">
        <ele>604.81</ele>
        <time>2013-10-02T11:49:32Z</time>
      </trkpt>
      <trkpt lat="43.78349" lon="6.2324">
        <ele>607.21</ele>
        <time>2013-10-02T11:49:43Z</time>
      </trkpt>
      <trkpt lat="43.78315" lon="6.23257">
        <ele>608.17</ele>
        <time>2013-10-02T11:49:53Z</time>
      </trkpt>
      <trkpt lat="43.78295" lon="6.23246">
        <ele>610.09</ele>
        <time>2013-10-02T11:50:00Z</time>
      </trkpt>
      <trkpt lat="43.78288" lon="6.23217">
        <ele>612.02</ele>
        <time>2013-10-02T11:50:07Z</time>
      </trkpt>
      <trkpt lat="43.78265" lon="6.23193">
        <ele>612.98</ele>
        <time>2013-10-02T11:50:16Z</time>
      </trkpt>
      <trkpt lat="43.78232" lon="6.23181">
        <ele>614.9</ele>
        <time>2013-10-02T11:50:27Z</time>
      </trkpt>
      <trkpt lat="43.78205" lon="6.23205">
        <ele>616.82</ele>
        <time>2013-10-02T11:50:37Z</time>
      </trkpt>
      <trkpt lat="43.78188" lon="6.23247">
        <ele>619.23</ele>
        <time>2013-10-02T11:50:47Z</time>
      </trkpt>
      <trkpt lat="43.78155" lon="6.23274">
        <ele>620.19</ele>
        <time>2013-10-02T11:50:58Z</time>
      </trkpt>
      <trkpt lat="43.78139" lon="6.23277">
        <ele>621.15</ele>
        <time>2013-10-02T11:51:07Z</time>
      </trkpt>
      <trkpt lat="43.78137" lon="6.23279">
        <ele>620.67</ele>
        <time>2013-10-02T11:51:18Z</time>
      </trkpt>
      <trkpt lat="43.78135" lon="6.23283">
        <ele>621.15</ele>
        <time>2013-10-02T11:51:29Z</time>
      </trkpt>
      <trkpt lat="43.78133" lon="6.23284">
        <ele>621.63</ele>
        <time>2013-10-02T11:51:30Z</time>
      </trkpt>
      <trkpt lat="43.7813" lon="6.23284">
        <ele>621.63</ele>
        <time>2013-10-02T11:51:31Z</time>
      </trkpt>
      <trkpt lat="43.78128" lon="6.23285">
        <ele>621.63</ele>
        <time>2013-10-02T11:51:32Z</time>
      </trkpt>
      <trkpt lat="43.78126" lon="6.23286">
        <ele>621.63</ele>
        <time>2013-10-02T11:51:33Z</time>
      </trkpt>
      <trkpt lat="43.78123" lon="6.23286">
        <ele>622.11</ele>
        <time>2013-10-02T11:51:34Z</time>
      </trkpt>
      <trkpt lat="43.7812" lon="6.23286">
        <ele>622.11</ele>
        <time>2013-10-02T11:51:35Z</time>
      </trkpt>
      <trkpt lat="43.78117" lon="6.23286">
        <ele>622.59</ele>
        <time>2013-10-02T11:51:36Z</time>
      </trkpt>
      <trkpt lat="43.78098" lon="6.23261">
        <ele>622.59</ele>
        <time>2013-10-02T11:51:44Z</time>
      </trkpt>
      <trkpt lat="43.78096" lon="6.23249">
        <ele>624.03</ele>
        <time>2013-10-02T11:51:47Z</time>
      </trkpt>
      <trkpt lat="43.78091" lon="6.23218">
        <ele>624.99</ele>
        <time>2013-10-02T11:51:57Z</time>
      </trkpt>
      <trkpt lat="43.78075" lon="6.23193">
        <ele>626.44</ele>
        <time>2013-10-02T11:52:07Z</time>
      </trkpt>
      <trkpt lat="43.78054" lon="6.23197">
        <ele>627.4</ele>
        <time>2013-10-02T11:52:15Z</time>
      </trkpt>
      <trkpt lat="43.78037" lon="6.23231">
        <ele>628.84</ele>
        <time>2013-10-02T11:52:25Z</time>
      </trkpt>
      <trkpt lat="43.78011" lon="6.23244">
        <ele>630.76</ele>
        <time>2013-10-02T11:52:35Z</time>
      </trkpt>
      <trkpt lat="43.77986" lon="6.23238">
        <ele>632.2</ele>
        <time>2013-10-02T11:52:44Z</time>
      </trkpt>
      <trkpt lat="43.7796" lon="6.23256">
        <ele>633.65</ele>
        <time>2013-10-02T11:52:54Z</time>
      </trkpt>
      <trkpt lat="43.77933" lon="6.23303">
        <ele>636.05</ele>
        <time>2013-10-02T11:53:08Z</time>
      </trkpt>
      <trkpt lat="43.77905" lon="6.23327">
        <ele>637.49</ele>
        <time>2013-10-02T11:53:19Z</time>
      </trkpt>
      <trkpt lat="43.77889" lon="6.23307">
        <ele>639.41</ele>
        <time>2013-10-02T11:53:26Z</time>
      </trkpt>
      <trkpt lat="43.77883" lon="6.2327">
        <ele>640.86</ele>
        <time>2013-10-02T11:53:35Z</time>
      </trkpt>
      <trkpt lat="43.77862" lon="6.23255">
        <ele>642.3</ele>
        <time>2013-10-02T11:53:43Z</time>
      </trkpt>
      <trkpt lat="43.77836" lon="6.23253">
        <ele>643.26</ele>
        <time>2013-10-02T11:53:53Z</time>
      </trkpt>
      <trkpt lat="43.77798" lon="6.2325">
        <ele>645.66</ele>
        <time>2013-10-02T11:54:07Z</time>
      </trkpt>
      <trkpt lat="43.77767" lon="6.23252">
        <ele>647.59</ele>
        <time>2013-10-02T11:54:18Z</time>
      </trkpt>
      <trkpt lat="43.77752" lon="6.23278">
        <ele>648.07</ele>
        <time>2013-10-02T11:54:27Z</time>
      </trkpt>
      <trkpt lat="43.77743" lon="6.23326">
        <ele>649.99</ele>
        <time>2013-10-02T11:54:39Z</time>
      </trkpt>
      <trkpt lat="43.77723" lon="6.23338">
        <ele>651.91</ele>
        <time>2013-10-02T11:54:47Z</time>
      </trkpt>
      <trkpt lat="43.77709" lon="6.23323">
        <ele>653.35</ele>
        <time>2013-10-02T11:54:54Z</time>
      </trkpt>
      <trkpt lat="43.7769" lon="6.23293">
        <ele>654.31</ele>
        <time>2013-10-02T11:55:03Z</time>
      </trkpt>
      <trkpt lat="43.77685" lon="6.23284">
        <ele>655.28</ele>
        <time>2013-10-02T11:55:06Z</time>
      </trkpt>
      <trkpt lat="43.77667" lon="6.23266">
        <ele>657.2</ele>
        <time>2013-10-02T11:55:13Z</time>
      </trkpt>
      <trkpt lat="43.77641" lon="6.23266">
        <ele>658.64</ele>
        <time>2013-10-02T11:55:22Z</time>
      </trkpt>
      <trkpt lat="43.77609" lon="6.23277">
        <ele>660.08</ele>
        <time>2013-10-02T11:55:32Z</time>
      </trkpt>
      <trkpt lat="43.7758" lon="6.23287">
        <ele>661.04</ele>
        <time>2013-10-02T11:55:42Z</time>
      </trkpt>
      <trkpt lat="43.77549" lon="6.23299">
        <ele>662.97</ele>
        <time>2013-10-02T11:55:54Z</time>
      </trkpt>
      <trkpt lat="43.77525" lon="6.23319">
        <ele>664.41</ele>
        <time>2013-10-02T11:56:04Z</time>
      </trkpt>
      <trkpt lat="43.775" lon="6.23339">
        <ele>665.37</ele>
        <time>2013-10-02T11:56:14Z</time>
      </trkpt>
      <trkpt lat="43.77465" lon="6.23348">
        <ele>667.77</ele>
        <time>2013-10-02T11:56:26Z</time>
      </trkpt>
      <trkpt lat="43.77432" lon="6.23338">
        <ele>669.22</ele>
        <time>2013-10-02T11:56:37Z</time>
      </trkpt>
      <trkpt lat="43.77399" lon="6.23319">
        <ele>672.1</ele>
        <time>2013-10-02T11:56:49Z</time>
      </trkpt>
      <trkpt lat="43.77373" lon="6.23303">
        <ele>674.02</ele>
        <time>2013-10-02T11:56:59Z</time>
      </trkpt>
      <trkpt lat="43.77349" lon="6.23267">
        <ele>674.98</ele>
        <time>2013-10-02T11:57:10Z</time>
      </trkpt>
      <trkpt lat="43.77335" lon="6.23224">
        <ele>677.87</ele>
        <time>2013-10-02T11:57:21Z</time>
      </trkpt>
      <trkpt lat="43.77313" lon="6.23206">
        <ele>678.83</ele>
        <time>2013-10-02T11:57:30Z</time>
      </trkpt>
      <trkpt lat="43.77292" lon="6.23221">
        <ele>680.75</ele>
        <time>2013-10-02T11:57:38Z</time>
      </trkpt>
      <trkpt lat="43.77293" lon="6.23255">
        <ele>681.71</ele>
        <time>2013-10-02T11:57:46Z</time>
      </trkpt>
      <trkpt lat="43.77304" lon="6.23297">
        <ele>683.15</ele>
        <time>2013-10-02T11:57:57Z</time>
      </trkpt>
      <trkpt lat="43.77308" lon="6.23335">
        <ele>684.6</ele>
        <time>2013-10-02T11:58:07Z</time>
      </trkpt>
      <trkpt lat="43.77322" lon="6.23369">
        <ele>686.04</ele>
        <time>2013-10-02T11:58:17Z</time>
      </trkpt>
      <trkpt lat="43.7734" lon="6.234">
        <ele>687.96</ele>
        <time>2013-10-02T11:58:27Z</time>
      </trkpt>
      <trkpt lat="43.77356" lon="6.23431">
        <ele>688.92</ele>
        <time>2013-10-02T11:58:37Z</time>
      </trkpt>
      <trkpt lat="43.77376" lon="6.2347">
        <ele>690.36</ele>
        <time>2013-10-02T11:58:49Z</time>
      </trkpt>
      <trkpt lat="43.7739" lon="6.23513">
        <ele>693.25</ele>
        <time>2013-10-02T11:59:00Z</time>
      </trkpt>
      <trkpt lat="43.77398" lon="6.23531">
        <ele>693.25</ele>
        <time>2013-10-02T11:59:09Z</time>
      </trkpt>
      <trkpt lat="43.77407" lon="6.23551">
        <ele>695.17</ele>
        <time>2013-10-02T11:59:17Z</time>
      </trkpt>
      <trkpt lat="43.77416" lon="6.23569">
        <ele>695.65</ele>
        <time>2013-10-02T11:59:23Z</time>
      </trkpt>
      <trkpt lat="43.77435" lon="6.23603">
        <ele>697.09</ele>
        <time>2013-10-02T11:59:35Z</time>
      </trkpt>
      <trkpt lat="43.7745" lon="6.23631">
        <ele>699.02</ele>
        <time>2013-10-02T11:59:45Z</time>
      </trkpt>
      <trkpt lat="43.77467" lon="6.23655">
        <ele>699.98</ele>
        <time>2013-10-02T11:59:54Z</time>
      </trkpt>
      <trkpt lat="43.77488" lon="6.23661">
        <ele>701.42</ele>
        <time>2013-10-02T12:00:02Z</time>
      </trkpt>
      <trkpt lat="43.77505" lon="6.23644">
        <ele>701.42</ele>
        <time>2013-10-02T12:00:11Z</time>
      </trkpt>
      <trkpt lat="43.77531" lon="6.23629">
        <ele>703.82</ele>
        <time>2013-10-02T12:00:21Z</time>
      </trkpt>
      <trkpt lat="43.7754" lon="6.2365">
        <ele>704.78</ele>
        <time>2013-10-02T12:00:28Z</time>
      </trkpt>
      <trkpt lat="43.77528" lon="6.23672">
        <ele>705.26</ele>
        <time>2013-10-02T12:00:37Z</time>
      </trkpt>
      <trkpt lat="43.77508" lon="6.23682">
        <ele>706.71</ele>
        <time>2013-10-02T12:00:46Z</time>
      </trkpt>
      <trkpt lat="43.77481" lon="6.23696">
        <ele>707.67</ele>
        <time>2013-10-02T12:00:56Z</time>
      </trkpt>
      <trkpt lat="43.77457" lon="6.23696">
        <ele>708.15</ele>
        <time>2013-10-02T12:01:05Z</time>
      </trkpt>
      <trkpt lat="43.77437" lon="6.23671">
        <ele>710.07</ele>
        <time>2013-10-02T12:01:16Z</time>
      </trkpt>
      <trkpt lat="43.77413" lon="6.23652">
        <ele>711.51</ele>
        <time>2013-10-02T12:01:26Z</time>
      </trkpt>
      <trkpt lat="43.77387" lon="6.23631">
        <ele>712.47</ele>
        <time>2013-10-02T12:01:36Z</time>
      </trkpt>
      <trkpt lat="43.7737" lon="6.23594">
        <ele>714.4</ele>
        <time>2013-10-02T12:01:47Z</time>
      </trkpt>
      <trkpt lat="43.77359" lon="6.23561">
        <ele>715.84</ele>
        <time>2013-10-02T12:01:56Z</time>
      </trkpt>
      <trkpt lat="43.77341" lon="6.23532">
        <ele>717.28</ele>
        <time>2013-10-02T12:02:06Z</time>
      </trkpt>
      <trkpt lat="43.77319" lon="6.23539">
        <ele>718.24</ele>
        <time>2013-10-02T12:02:14Z</time>
      </trkpt>
      <trkpt lat="43.77292" lon="6.23575">
        <ele>720.65</ele>
        <time>2013-10-02T12:02:27Z</time>
      </trkpt>
      <trkpt lat="43.77263" lon="6.23596">
        <ele>722.09</ele>
        <time>2013-10-02T12:02:39Z</time>
      </trkpt>
      <trkpt lat="43.77236" lon="6.23604">
        <ele>724.01</ele>
        <time>2013-10-02T12:02:49Z</time>
      </trkpt>
      <trkpt lat="43.77201" lon="6.23624">
        <ele>725.93</ele>
        <time>2013-10-02T12:03:02Z</time>
      </trkpt>
      <trkpt lat="43.77178" lon="6.23651">
        <ele>727.86</ele>
        <time>2013-10-02T12:03:13Z</time>
      </trkpt>
      <trkpt lat="43.77156" lon="6.23675">
        <ele>729.3</ele>
        <time>2013-10-02T12:03:23Z</time>
      </trkpt>
      <trkpt lat="43.77143" lon="6.23703">
        <ele>731.22</ele>
        <time>2013-10-02T12:03:32Z</time>
      </trkpt>
      <trkpt lat="43.77144" lon="6.23746">
        <ele>733.14</ele>
        <time>2013-10-02T12:03:43Z</time>
      </trkpt>
      <trkpt lat="43.77148" lon="6.23787">
        <ele>735.55</ele>
        <time>2013-10-02T12:03:54Z</time>
      </trkpt>
      <trkpt lat="43.77152" lon="6.23818">
        <ele>736.99</ele>
        <time>2013-10-02T12:04:02Z</time>
      </trkpt>
      <trkpt lat="43.77167" lon="6.23839">
        <ele>737.95</ele>
        <time>2013-10-02T12:04:10Z</time>
      </trkpt>
      <trkpt lat="43.77193" lon="6.23854">
        <ele>738.91</ele>
        <time>2013-10-02T12:04:20Z</time>
      </trkpt>
      <trkpt lat="43.77218" lon="6.23868">
        <ele>740.83</ele>
        <time>2013-10-02T12:04:29Z</time>
      </trkpt>
      <trkpt lat="43.77242" lon="6.23881">
        <ele>741.79</ele>
        <time>2013-10-02T12:04:38Z</time>
      </trkpt>
      <trkpt lat="43.77269" lon="6.23889">
        <ele>743.72</ele>
        <time>2013-10-02T12:04:47Z</time>
      </trkpt>
      <trkpt lat="43.77298" lon="6.23892">
        <ele>744.68</ele>
        <time>2013-10-02T12:04:57Z</time>
      </trkpt>
      <trkpt lat="43.77326" lon="6.23893">
        <ele>746.6</ele>
        <time>2013-10-02T12:05:07Z</time>
      </trkpt>
      <trkpt lat="43.77352" lon="6.23878">
        <ele>747.56</ele>
        <time>2013-10-02T12:05:16Z</time>
      </trkpt>
      <trkpt lat="43.77374" lon="6.23852">
        <ele>749</ele>
        <time>2013-10-02T12:05:25Z</time>
      </trkpt>
      <trkpt lat="43.77374" lon="6.23819">
        <ele>749.49</ele>
        <time>2013-10-02T12:05:34Z</time>
      </trkpt>
      <trkpt lat="43.77371" lon="6.23777">
        <ele>751.41</ele>
        <time>2013-10-02T12:05:44Z</time>
      </trkpt>
      <trkpt lat="43.77381" lon="6.23768">
        <ele>751.41</ele>
        <time>2013-10-02T12:05:48Z</time>
      </trkpt>
      <trkpt lat="43.77384" lon="6.23769">
        <ele>751.89</ele>
        <time>2013-10-02T12:05:49Z</time>
      </trkpt>
      <trkpt lat="43.77387" lon="6.23771">
        <ele>751.89</ele>
        <time>2013-10-02T12:05:50Z</time>
      </trkpt>
      <trkpt lat="43.7739" lon="6.23773">
        <ele>751.41</ele>
        <time>2013-10-02T12:05:51Z</time>
      </trkpt>
      <trkpt lat="43.77392" lon="6.23777">
        <ele>751.89</ele>
        <time>2013-10-02T12:05:52Z</time>
      </trkpt>
      <trkpt lat="43.77394" lon="6.2378">
        <ele>752.37</ele>
        <time>2013-10-02T12:05:53Z</time>
      </trkpt>
      <trkpt lat="43.77395" lon="6.23784">
        <ele>752.85</ele>
        <time>2013-10-02T12:05:54Z</time>
      </trkpt>
      <trkpt lat="43.77397" lon="6.23788">
        <ele>752.85</ele>
        <time>2013-10-02T12:05:55Z</time>
      </trkpt>
      <trkpt lat="43.77398" lon="6.23792">
        <ele>753.33</ele>
        <time>2013-10-02T12:05:56Z</time>
      </trkpt>
      <trkpt lat="43.77398" lon="6.23796">
        <ele>753.33</ele>
        <time>2013-10-02T12:05:57Z</time>
      </trkpt>
      <trkpt lat="43.77399" lon="6.238">
        <ele>752.85</ele>
        <time>2013-10-02T12:05:58Z</time>
      </trkpt>
      <trkpt lat="43.774" lon="6.23805">
        <ele>753.81</ele>
        <time>2013-10-02T12:05:59Z</time>
      </trkpt>
      <trkpt lat="43.7741" lon="6.23849">
        <ele>754.77</ele>
        <time>2013-10-02T12:06:10Z</time>
      </trkpt>
      <trkpt lat="43.77426" lon="6.23883">
        <ele>758.14</ele>
        <time>2013-10-02T12:06:20Z</time>
      </trkpt>
      <trkpt lat="43.77431" lon="6.23896">
        <ele>758.62</ele>
        <time>2013-10-02T12:06:24Z</time>
      </trkpt>
      <trkpt lat="43.77446" lon="6.23929">
        <ele>760.54</ele>
        <time>2013-10-02T12:06:34Z</time>
      </trkpt>
      <trkpt lat="43.7746" lon="6.23952">
        <ele>762.46</ele>
        <time>2013-10-02T12:06:42Z</time>
      </trkpt>
      <trkpt lat="43.77464" lon="6.23955">
        <ele>762.94</ele>
        <time>2013-10-02T12:06:44Z</time>
      </trkpt>
      <trkpt lat="43.77467" lon="6.23957">
        <ele>762.94</ele>
        <time>2013-10-02T12:06:45Z</time>
      </trkpt>
      <trkpt lat="43.77469" lon="6.23958">
        <ele>763.42</ele>
        <time>2013-10-02T12:06:46Z</time>
      </trkpt>
      <trkpt lat="43.77472" lon="6.2396">
        <ele>763.42</ele>
        <time>2013-10-02T12:06:47Z</time>
      </trkpt>
      <trkpt lat="43.77474" lon="6.23962">
        <ele>764.39</ele>
        <time>2013-10-02T12:06:48Z</time>
      </trkpt>
      <trkpt lat="43.77476" lon="6.23964">
        <ele>764.39</ele>
        <time>2013-10-02T12:06:49Z</time>
      </trkpt>
      <trkpt lat="43.77478" lon="6.23967">
        <ele>763.9</ele>
        <time>2013-10-02T12:06:50Z</time>
      </trkpt>
      <trkpt lat="43.775" lon="6.23988">
        <ele>766.31</ele>
        <time>2013-10-02T12:07:00Z</time>
      </trkpt>
      <trkpt lat="43.775" lon="6.24022">
        <ele>768.71</ele>
        <time>2013-10-02T12:07:09Z</time>
      </trkpt>
      <trkpt lat="43.77497" lon="6.24056">
        <ele>769.67</ele>
        <time>2013-10-02T12:07:18Z</time>
      </trkpt>
      <trkpt lat="43.77497" lon="6.2406">
        <ele>771.11</ele>
        <time>2013-10-02T12:07:19Z</time>
      </trkpt>
      <trkpt lat="43.77511" lon="6.24106">
        <ele>772.08</ele>
        <time>2013-10-02T12:07:32Z</time>
      </trkpt>
      <trkpt lat="43.77511" lon="6.24132">
        <ele>773.52</ele>
        <time>2013-10-02T12:07:39Z</time>
      </trkpt>
      <trkpt lat="43.77496" lon="6.24173">
        <ele>774.96</ele>
        <time>2013-10-02T12:07:50Z</time>
      </trkpt>
      <trkpt lat="43.77491" lon="6.24227">
        <ele>776.88</ele>
        <time>2013-10-02T12:08:03Z</time>
      </trkpt>
      <trkpt lat="43.77501" lon="6.24265">
        <ele>778.81</ele>
        <time>2013-10-02T12:08:13Z</time>
      </trkpt>
      <trkpt lat="43.77525" lon="6.24273">
        <ele>780.25</ele>
        <time>2013-10-02T12:08:21Z</time>
      </trkpt>
      <trkpt lat="43.77557" lon="6.24274">
        <ele>782.17</ele>
        <time>2013-10-02T12:08:31Z</time>
      </trkpt>
      <trkpt lat="43.77589" lon="6.24263">
        <ele>784.09</ele>
        <time>2013-10-02T12:08:42Z</time>
      </trkpt>
      <trkpt lat="43.77608" lon="6.24251">
        <ele>784.57</ele>
        <time>2013-10-02T12:08:52Z</time>
      </trkpt>
      <trkpt lat="43.77637" lon="6.24246">
        <ele>786.02</ele>
        <time>2013-10-02T12:09:01Z</time>
      </trkpt>
      <trkpt lat="43.77643" lon="6.24272">
        <ele>786.5</ele>
        <time>2013-10-02T12:09:07Z</time>
      </trkpt>
      <trkpt lat="43.77638" lon="6.24283">
        <ele>786.98</ele>
        <time>2013-10-02T12:09:10Z</time>
      </trkpt>
      <trkpt lat="43.77635" lon="6.24285">
        <ele>786.98</ele>
        <time>2013-10-02T12:09:11Z</time>
      </trkpt>
      <trkpt lat="43.77632" lon="6.24286">
        <ele>787.94</ele>
        <time>2013-10-02T12:09:12Z</time>
      </trkpt>
      <trkpt lat="43.77599" lon="6.24305">
        <ele>788.9</ele>
        <time>2013-10-02T12:09:24Z</time>
      </trkpt>
      <trkpt lat="43.77577" lon="6.24312">
        <ele>789.38</ele>
        <time>2013-10-02T12:09:32Z</time>
      </trkpt>
      <trkpt lat="43.7756" lon="6.24317">
        <ele>790.34</ele>
        <time>2013-10-02T12:09:41Z</time>
      </trkpt>
      <trkpt lat="43.77557" lon="6.24321">
        <ele>790.34</ele>
        <time>2013-10-02T12:09:45Z</time>
      </trkpt>
      <trkpt lat="43.77558" lon="6.24324">
        <ele>790.34</ele>
        <time>2013-10-02T12:09:46Z</time>
      </trkpt>
      <trkpt lat="43.77558" lon="6.24331">
        <ele>790.82</ele>
        <time>2013-10-02T12:09:55Z</time>
      </trkpt>
      <trkpt lat="43.77556" lon="6.24335">
        <ele>790.82</ele>
        <time>2013-10-02T12:10:04Z</time>
      </trkpt>
      <trkpt lat="43.77551" lon="6.24333">
        <ele>789.86</ele>
        <time>2013-10-02T12:10:14Z</time>
      </trkpt>
      <trkpt lat="43.77545" lon="6.24334">
        <ele>789.86</ele>
        <time>2013-10-02T12:10:26Z</time>
      </trkpt>
      <trkpt lat="43.77543" lon="6.24334">
        <ele>790.34</ele>
        <time>2013-10-02T12:10:28Z</time>
      </trkpt>
      <trkpt lat="43.77542" lon="6.24333">
        <ele>789.38</ele>
        <time>2013-10-02T12:10:37Z</time>
      </trkpt>
      <trkpt lat="43.77546" lon="6.24332">
        <ele>789.86</ele>
        <time>2013-10-02T12:11:20Z</time>
      </trkpt>
      <trkpt lat="43.77551" lon="6.24333">
        <ele>790.34</ele>
        <time>2013-10-02T12:11:27Z</time>
      </trkpt>
      <trkpt lat="43.77557" lon="6.24333">
        <ele>790.82</ele>
        <time>2013-10-02T12:11:37Z</time>
      </trkpt>
      <trkpt lat="43.77559" lon="6.24332">
        <ele>790.82</ele>
        <time>2013-10-02T12:11:50Z</time>
      </trkpt>
      <trkpt lat="43.7756" lon="6.2433">
        <ele>790.82</ele>
        <time>2013-10-02T12:12:05Z</time>
      </trkpt>
      <trkpt lat="43.77563" lon="6.24327">
        <ele>791.3</ele>
        <time>2013-10-02T12:12:14Z</time>
      </trkpt>
      <trkpt lat="43.77563" lon="6.24326">
        <ele>790.82</ele>
        <time>2013-10-02T12:12:35Z</time>
      </trkpt>
      <trkpt lat="43.77563" lon="6.24326">
        <ele>790.82</ele>
        <time>2013-10-02T12:13:36Z</time>
      </trkpt>
      <trkpt lat="43.77562" lon="6.24324">
        <ele>791.78</ele>
        <time>2013-10-02T12:18:21Z</time>
      </trkpt>
      <trkpt lat="43.77561" lon="6.24327">
        <ele>794.67</ele>
        <time>2013-10-02T12:26:50Z</time>
      </trkpt>
      <trkpt lat="43.77558" lon="6.24327">
        <ele>798.03</ele>
        <time>2013-10-02T12:38:59Z</time>
      </trkpt>
      <trkpt lat="43.77558" lon="6.24324">
        <ele>800.92</ele>
        <time>2013-10-02T12:48:40Z</time>
      </trkpt>
      <trkpt lat="43.77558" lon="6.24326">
        <ele>800.92</ele>
        <time>2013-10-02T12:50:34Z</time>
      </trkpt>
      <trkpt lat="43.77559" lon="6.24329">
        <ele>804.28</ele>
        <time>2013-10-02T12:53:36Z</time>
      </trkpt>
      <trkpt lat="43.7756" lon="6.24329">
        <ele>807.16</ele>
        <time>2013-10-02T13:05:00Z</time>
      </trkpt>
      <trkpt lat="43.77563" lon="6.24328">
        <ele>807.64</ele>
        <time>2013-10-02T13:05:56Z</time>
      </trkpt>
      <trkpt lat="43.7756" lon="6.2433">
        <ele>806.68</ele>
        <time>2013-10-02T13:07:40Z</time>
      </trkpt>
      <trkpt lat="43.77551" lon="6.24326">
        <ele>806.68</ele>
        <time>2013-10-02T13:07:45Z</time>
      </trkpt>
      <trkpt lat="43.7755" lon="6.24324">
        <ele>806.68</ele>
        <time>2013-10-02T13:07:46Z</time>
      </trkpt>
      <trkpt lat="43.77549" lon="6.24323">
        <ele>806.68</ele>
        <time>2013-10-02T13:07:47Z</time>
      </trkpt>
      <trkpt lat="43.77548" lon="6.24323">
        <ele>806.2</ele>
        <time>2013-10-02T13:07:48Z</time>
      </trkpt>
      <trkpt lat="43.77545" lon="6.24322">
        <ele>806.2</ele>
        <time>2013-10-02T13:07:49Z</time>
      </trkpt>
      <trkpt lat="43.77543" lon="6.24321">
        <ele>806.68</ele>
        <time>2013-10-02T13:07:50Z</time>
      </trkpt>
      <trkpt lat="43.7754" lon="6.24321">
        <ele>806.2</ele>
        <time>2013-10-02T13:07:51Z</time>
      </trkpt>
      <trkpt lat="43.77537" lon="6.24323">
        <ele>806.2</ele>
        <time>2013-10-02T13:07:52Z</time>
      </trkpt>
      <trkpt lat="43.77534" lon="6.24324">
        <ele>806.2</ele>
        <time>2013-10-02T13:07:53Z</time>
      </trkpt>
      <trkpt lat="43.77511" lon="6.24321">
        <ele>805.24</ele>
        <time>2013-10-02T13:08:01Z</time>
      </trkpt>
      <trkpt lat="43.77493" lon="6.24316">
        <ele>804.76</ele>
        <time>2013-10-02T13:08:06Z</time>
      </trkpt>
      <trkpt lat="43.77467" lon="6.24308">
        <ele>803.8</ele>
        <time>2013-10-02T13:08:11Z</time>
      </trkpt>
      <trkpt lat="43.77462" lon="6.24307">
        <ele>803.32</ele>
        <time>2013-10-02T13:08:12Z</time>
      </trkpt>
      <trkpt lat="43.77445" lon="6.24304">
        <ele>803.32</ele>
        <time>2013-10-02T13:08:15Z</time>
      </trkpt>
      <trkpt lat="43.77439" lon="6.24303">
        <ele>803.32</ele>
        <time>2013-10-02T13:08:16Z</time>
      </trkpt>
      <trkpt lat="43.77424" lon="6.24299">
        <ele>803.32</ele>
        <time>2013-10-02T13:08:19Z</time>
      </trkpt>
      <trkpt lat="43.7741" lon="6.24298">
        <ele>803.32</ele>
        <time>2013-10-02T13:08:22Z</time>
      </trkpt>
      <trkpt lat="43.77405" lon="6.24297">
        <ele>803.32</ele>
        <time>2013-10-02T13:08:23Z</time>
      </trkpt>
      <trkpt lat="43.77374" lon="6.24291">
        <ele>804.28</ele>
        <time>2013-10-02T13:08:31Z</time>
      </trkpt>
      <trkpt lat="43.77347" lon="6.24287">
        <ele>805.72</ele>
        <time>2013-10-02T13:08:39Z</time>
      </trkpt>
      <trkpt lat="43.77307" lon="6.24293">
        <ele>806.68</ele>
        <time>2013-10-02T13:08:51Z</time>
      </trkpt>
      <trkpt lat="43.77279" lon="6.24301">
        <ele>807.16</ele>
        <time>2013-10-02T13:09:00Z</time>
      </trkpt>
      <trkpt lat="43.77252" lon="6.24311">
        <ele>808.61</ele>
        <time>2013-10-02T13:09:10Z</time>
      </trkpt>
      <trkpt lat="43.77225" lon="6.24333">
        <ele>810.53</ele>
        <time>2013-10-02T13:09:21Z</time>
      </trkpt>
      <trkpt lat="43.77203" lon="6.24352">
        <ele>811.49</ele>
        <time>2013-10-02T13:09:31Z</time>
      </trkpt>
      <trkpt lat="43.77202" lon="6.24355">
        <ele>811.97</ele>
        <time>2013-10-02T13:09:32Z</time>
      </trkpt>
      <trkpt lat="43.77201" lon="6.24359">
        <ele>812.45</ele>
        <time>2013-10-02T13:09:33Z</time>
      </trkpt>
      <trkpt lat="43.77201" lon="6.24362">
        <ele>812.45</ele>
        <time>2013-10-02T13:09:34Z</time>
      </trkpt>
      <trkpt lat="43.77201" lon="6.24365">
        <ele>811.97</ele>
        <time>2013-10-02T13:09:35Z</time>
      </trkpt>
      <trkpt lat="43.77203" lon="6.24368">
        <ele>812.45</ele>
        <time>2013-10-02T13:09:36Z</time>
      </trkpt>
      <trkpt lat="43.77204" lon="6.2437">
        <ele>813.41</ele>
        <time>2013-10-02T13:09:37Z</time>
      </trkpt>
      <trkpt lat="43.77206" lon="6.24371">
        <ele>813.41</ele>
        <time>2013-10-02T13:09:38Z</time>
      </trkpt>
      <trkpt lat="43.77208" lon="6.24372">
        <ele>812.93</ele>
        <time>2013-10-02T13:09:39Z</time>
      </trkpt>
      <trkpt lat="43.7721" lon="6.24372">
        <ele>812.93</ele>
        <time>2013-10-02T13:09:40Z</time>
      </trkpt>
      <trkpt lat="43.77212" lon="6.24373">
        <ele>813.41</ele>
        <time>2013-10-02T13:09:41Z</time>
      </trkpt>
      <trkpt lat="43.77214" lon="6.24373">
        <ele>813.89</ele>
        <time>2013-10-02T13:09:42Z</time>
      </trkpt>
      <trkpt lat="43.77217" lon="6.24372">
        <ele>813.89</ele>
        <time>2013-10-02T13:09:43Z</time>
      </trkpt>
      <trkpt lat="43.77218" lon="6.24371">
        <ele>813.89</ele>
        <time>2013-10-02T13:09:44Z</time>
      </trkpt>
      <trkpt lat="43.7722" lon="6.24371">
        <ele>813.89</ele>
        <time>2013-10-02T13:09:45Z</time>
      </trkpt>
      <trkpt lat="43.77222" lon="6.2437">
        <ele>813.89</ele>
        <time>2013-10-02T13:09:47Z</time>
      </trkpt>
      <trkpt lat="43.77223" lon="6.2437">
        <ele>813.89</ele>
        <time>2013-10-02T13:09:48Z</time>
      </trkpt>
      <trkpt lat="43.77225" lon="6.24369">
        <ele>813.89</ele>
        <time>2013-10-02T13:09:49Z</time>
      </trkpt>
      <trkpt lat="43.77231" lon="6.24368">
        <ele>814.85</ele>
        <time>2013-10-02T13:09:59Z</time>
      </trkpt>
      <trkpt lat="43.77253" lon="6.24363">
        <ele>815.34</ele>
        <time>2013-10-02T13:10:11Z</time>
      </trkpt>
      <trkpt lat="43.77258" lon="6.24365">
        <ele>815.82</ele>
        <time>2013-10-02T13:10:14Z</time>
      </trkpt>
      <trkpt lat="43.7726" lon="6.24366">
        <ele>815.82</ele>
        <time>2013-10-02T13:10:15Z</time>
      </trkpt>
      <trkpt lat="43.77261" lon="6.24367">
        <ele>816.3</ele>
        <time>2013-10-02T13:10:16Z</time>
      </trkpt>
      <trkpt lat="43.77282" lon="6.24385">
        <ele>817.26</ele>
        <time>2013-10-02T13:10:28Z</time>
      </trkpt>
      <trkpt lat="43.77301" lon="6.24386">
        <ele>819.18</ele>
        <time>2013-10-02T13:10:37Z</time>
      </trkpt>
      <trkpt lat="43.77317" lon="6.24384">
        <ele>820.14</ele>
        <time>2013-10-02T13:10:44Z</time>
      </trkpt>
      <trkpt lat="43.77319" lon="6.24384">
        <ele>821.1</ele>
        <time>2013-10-02T13:10:45Z</time>
      </trkpt>
      <trkpt lat="43.77322" lon="6.24384">
        <ele>821.1</ele>
        <time>2013-10-02T13:10:46Z</time>
      </trkpt>
      <trkpt lat="43.77324" lon="6.24384">
        <ele>821.1</ele>
        <time>2013-10-02T13:10:47Z</time>
      </trkpt>
      <trkpt lat="43.77326" lon="6.24385">
        <ele>821.1</ele>
        <time>2013-10-02T13:10:48Z</time>
      </trkpt>
      <trkpt lat="43.77329" lon="6.24386">
        <ele>821.58</ele>
        <time>2013-10-02T13:10:49Z</time>
      </trkpt>
      <trkpt lat="43.77331" lon="6.24387">
        <ele>822.06</ele>
        <time>2013-10-02T13:10:50Z</time>
      </trkpt>
      <trkpt lat="43.77333" lon="6.24387">
        <ele>822.55</ele>
        <time>2013-10-02T13:10:51Z</time>
      </trkpt>
      <trkpt lat="43.77353" lon="6.24399">
        <ele>823.99</ele>
        <time>2013-10-02T13:11:02Z</time>
      </trkpt>
      <trkpt lat="43.77369" lon="6.24408">
        <ele>825.43</ele>
        <time>2013-10-02T13:11:12Z</time>
      </trkpt>
      <trkpt lat="43.77371" lon="6.24409">
        <ele>825.43</ele>
        <time>2013-10-02T13:11:15Z</time>
      </trkpt>
      <trkpt lat="43.77371" lon="6.24411">
        <ele>825.43</ele>
        <time>2013-10-02T13:11:16Z</time>
      </trkpt>
      <trkpt lat="43.7737" lon="6.24412">
        <ele>825.91</ele>
        <time>2013-10-02T13:11:28Z</time>
      </trkpt>
      <trkpt lat="43.77371" lon="6.24412">
        <ele>825.43</ele>
        <time>2013-10-02T13:12:22Z</time>
      </trkpt>
      <trkpt lat="43.77372" lon="6.24411">
        <ele>825.43</ele>
        <time>2013-10-02T13:12:29Z</time>
      </trkpt>
      <trkpt lat="43.77375" lon="6.24409">
        <ele>825.43</ele>
        <time>2013-10-02T13:13:17Z</time>
      </trkpt>
      <trkpt lat="43.77375" lon="6.2441">
        <ele>825.43</ele>
        <time>2013-10-02T13:13:18Z</time>
      </trkpt>
      <trkpt lat="43.77377" lon="6.24411">
        <ele>825.43</ele>
        <time>2013-10-02T13:13:19Z</time>
      </trkpt>
      <trkpt lat="43.77378" lon="6.24412">
        <ele>825.91</ele>
        <time>2013-10-02T13:13:20Z</time>
      </trkpt>
      <trkpt lat="43.77379" lon="6.24413">
        <ele>825.91</ele>
        <time>2013-10-02T13:13:21Z</time>
      </trkpt>
      <trkpt lat="43.77395" lon="6.24418">
        <ele>826.39</ele>
        <time>2013-10-02T13:13:30Z</time>
      </trkpt>
      <trkpt lat="43.77415" lon="6.24423">
        <ele>829.76</ele>
        <time>2013-10-02T13:13:41Z</time>
      </trkpt>
      <trkpt lat="43.77417" lon="6.24424">
        <ele>829.76</ele>
        <time>2013-10-02T13:13:42Z</time>
      </trkpt>
      <trkpt lat="43.77419" lon="6.24424">
        <ele>830.24</ele>
        <time>2013-10-02T13:13:43Z</time>
      </trkpt>
      <trkpt lat="43.77438" lon="6.2443">
        <ele>832.16</ele>
        <time>2013-10-02T13:13:54Z</time>
      </trkpt>
      <trkpt lat="43.77444" lon="6.24432">
        <ele>832.64</ele>
        <time>2013-10-02T13:14:06Z</time>
      </trkpt>
      <trkpt lat="43.77463" lon="6.24438">
        <ele>833.6</ele>
        <time>2013-10-02T13:14:16Z</time>
      </trkpt>
      <trkpt lat="43.77492" lon="6.24447">
        <ele>836.96</ele>
        <time>2013-10-02T13:14:31Z</time>
      </trkpt>
      <trkpt lat="43.77494" lon="6.24448">
        <ele>836.96</ele>
        <time>2013-10-02T13:14:32Z</time>
      </trkpt>
      <trkpt lat="43.77513" lon="6.24447">
        <ele>838.89</ele>
        <time>2013-10-02T13:14:42Z</time>
      </trkpt>
      <trkpt lat="43.77517" lon="6.24446">
        <ele>838.89</ele>
        <time>2013-10-02T13:14:44Z</time>
      </trkpt>
      <trkpt lat="43.77522" lon="6.24446">
        <ele>839.37</ele>
        <time>2013-10-02T13:14:47Z</time>
      </trkpt>
      <trkpt lat="43.77524" lon="6.24446">
        <ele>839.85</ele>
        <time>2013-10-02T13:14:48Z</time>
      </trkpt>
      <trkpt lat="43.77525" lon="6.24445">
        <ele>839.85</ele>
        <time>2013-10-02T13:14:49Z</time>
      </trkpt>
      <trkpt lat="43.77527" lon="6.24445">
        <ele>839.85</ele>
        <time>2013-10-02T13:14:50Z</time>
      </trkpt>
      <trkpt lat="43.77529" lon="6.24444">
        <ele>839.85</ele>
        <time>2013-10-02T13:14:51Z</time>
      </trkpt>
      <trkpt lat="43.77531" lon="6.24444">
        <ele>840.33</ele>
        <time>2013-10-02T13:14:52Z</time>
      </trkpt>
      <trkpt lat="43.77549" lon="6.24445">
        <ele>842.25</ele>
        <time>2013-10-02T13:15:01Z</time>
      </trkpt>
      <trkpt lat="43.77568" lon="6.24444">
        <ele>844.18</ele>
        <time>2013-10-02T13:15:11Z</time>
      </trkpt>
      <trkpt lat="43.77591" lon="6.24449">
        <ele>846.1</ele>
        <time>2013-10-02T13:15:22Z</time>
      </trkpt>
      <trkpt lat="43.77595" lon="6.24454">
        <ele>847.06</ele>
        <time>2013-10-02T13:15:24Z</time>
      </trkpt>
      <trkpt lat="43.77596" lon="6.24456">
        <ele>847.06</ele>
        <time>2013-10-02T13:15:25Z</time>
      </trkpt>
      <trkpt lat="43.77596" lon="6.24459">
        <ele>847.54</ele>
        <time>2013-10-02T13:15:26Z</time>
      </trkpt>
      <trkpt lat="43.77597" lon="6.24467">
        <ele>848.02</ele>
        <time>2013-10-02T13:15:29Z</time>
      </trkpt>
      <trkpt lat="43.77597" lon="6.2447">
        <ele>847.54</ele>
        <time>2013-10-02T13:15:30Z</time>
      </trkpt>
      <trkpt lat="43.77596" lon="6.24473">
        <ele>848.5</ele>
        <time>2013-10-02T13:15:31Z</time>
      </trkpt>
      <trkpt lat="43.77595" lon="6.24475">
        <ele>848.5</ele>
        <time>2013-10-02T13:15:32Z</time>
      </trkpt>
      <trkpt lat="43.77594" lon="6.24478">
        <ele>848.98</ele>
        <time>2013-10-02T13:15:33Z</time>
      </trkpt>
      <trkpt lat="43.77593" lon="6.2448">
        <ele>848.98</ele>
        <time>2013-10-02T13:15:34Z</time>
      </trkpt>
      <trkpt lat="43.77592" lon="6.24483">
        <ele>848.98</ele>
        <time>2013-10-02T13:15:35Z</time>
      </trkpt>
      <trkpt lat="43.77586" lon="6.24519">
        <ele>850.42</ele>
        <time>2013-10-02T13:15:47Z</time>
      </trkpt>
      <trkpt lat="43.77585" lon="6.24562">
        <ele>852.83</ele>
        <time>2013-10-02T13:16:00Z</time>
      </trkpt>
      <trkpt lat="43.77584" lon="6.24602">
        <ele>854.27</ele>
        <time>2013-10-02T13:16:12Z</time>
      </trkpt>
      <trkpt lat="43.77585" lon="6.24636">
        <ele>856.19</ele>
        <time>2013-10-02T13:16:23Z</time>
      </trkpt>
      <trkpt lat="43.77596" lon="6.24663">
        <ele>858.11</ele>
        <time>2013-10-02T13:16:33Z</time>
      </trkpt>
      <trkpt lat="43.77615" lon="6.24685">
        <ele>860.04</ele>
        <time>2013-10-02T13:16:44Z</time>
      </trkpt>
      <trkpt lat="43.7763" lon="6.24705">
        <ele>861.96</ele>
        <time>2013-10-02T13:16:54Z</time>
      </trkpt>
      <trkpt lat="43.77651" lon="6.24738">
        <ele>863.88</ele>
        <time>2013-10-02T13:17:07Z</time>
      </trkpt>
      <trkpt lat="43.77671" lon="6.24758">
        <ele>865.8</ele>
        <time>2013-10-02T13:17:18Z</time>
      </trkpt>
      <trkpt lat="43.77686" lon="6.24776">
        <ele>867.25</ele>
        <time>2013-10-02T13:17:26Z</time>
      </trkpt>
      <trkpt lat="43.77702" lon="6.248">
        <ele>869.65</ele>
        <time>2013-10-02T13:17:36Z</time>
      </trkpt>
      <trkpt lat="43.77711" lon="6.24823">
        <ele>870.61</ele>
        <time>2013-10-02T13:17:44Z</time>
      </trkpt>
      <trkpt lat="43.77712" lon="6.24826">
        <ele>871.09</ele>
        <time>2013-10-02T13:17:45Z</time>
      </trkpt>
      <trkpt lat="43.77712" lon="6.24829">
        <ele>871.09</ele>
        <time>2013-10-02T13:17:46Z</time>
      </trkpt>
      <trkpt lat="43.77713" lon="6.24831">
        <ele>871.09</ele>
        <time>2013-10-02T13:17:47Z</time>
      </trkpt>
      <trkpt lat="43.77713" lon="6.24834">
        <ele>871.09</ele>
        <time>2013-10-02T13:17:48Z</time>
      </trkpt>
      <trkpt lat="43.77714" lon="6.24837">
        <ele>871.57</ele>
        <time>2013-10-02T13:17:49Z</time>
      </trkpt>
      <trkpt lat="43.77714" lon="6.2484">
        <ele>872.05</ele>
        <time>2013-10-02T13:17:50Z</time>
      </trkpt>
      <trkpt lat="43.77713" lon="6.24874">
        <ele>873.98</ele>
        <time>2013-10-02T13:18:01Z</time>
      </trkpt>
      <trkpt lat="43.77708" lon="6.24903">
        <ele>875.9</ele>
        <time>2013-10-02T13:18:11Z</time>
      </trkpt>
      <trkpt lat="43.77696" lon="6.2493">
        <ele>877.82</ele>
        <time>2013-10-02T13:18:21Z</time>
      </trkpt>
      <trkpt lat="43.77683" lon="6.2496">
        <ele>879.74</ele>
        <time>2013-10-02T13:18:32Z</time>
      </trkpt>
      <trkpt lat="43.77672" lon="6.24988">
        <ele>882.15</ele>
        <time>2013-10-02T13:18:42Z</time>
      </trkpt>
      <trkpt lat="43.77657" lon="6.25015">
        <ele>884.55</ele>
        <time>2013-10-02T13:18:53Z</time>
      </trkpt>
      <trkpt lat="43.77647" lon="6.25046">
        <ele>886.47</ele>
        <time>2013-10-02T13:19:03Z</time>
      </trkpt>
      <trkpt lat="43.77642" lon="6.25085">
        <ele>888.88</ele>
        <time>2013-10-02T13:19:16Z</time>
      </trkpt>
      <trkpt lat="43.77639" lon="6.25128">
        <ele>892.24</ele>
        <time>2013-10-02T13:19:30Z</time>
      </trkpt>
      <trkpt lat="43.77639" lon="6.25132">
        <ele>892.24</ele>
        <time>2013-10-02T13:19:31Z</time>
      </trkpt>
      <trkpt lat="43.77638" lon="6.25171">
        <ele>894.16</ele>
        <time>2013-10-02T13:19:43Z</time>
      </trkpt>
      <trkpt lat="43.77632" lon="6.25214">
        <ele>896.09</ele>
        <time>2013-10-02T13:19:56Z</time>
      </trkpt>
      <trkpt lat="43.77623" lon="6.25246">
        <ele>898.01</ele>
        <time>2013-10-02T13:20:06Z</time>
      </trkpt>
      <trkpt lat="43.77613" lon="6.25274">
        <ele>899.93</ele>
        <time>2013-10-02T13:20:16Z</time>
      </trkpt>
      <trkpt lat="43.776" lon="6.25308">
        <ele>901.85</ele>
        <time>2013-10-02T13:20:28Z</time>
      </trkpt>
      <trkpt lat="43.77594" lon="6.2532">
        <ele>903.3</ele>
        <time>2013-10-02T13:20:33Z</time>
      </trkpt>
      <trkpt lat="43.77584" lon="6.25342">
        <ele>904.26</ele>
        <time>2013-10-02T13:20:41Z</time>
      </trkpt>
      <trkpt lat="43.77571" lon="6.25374">
        <ele>906.66</ele>
        <time>2013-10-02T13:20:53Z</time>
      </trkpt>
      <trkpt lat="43.77554" lon="6.25403">
        <ele>909.06</ele>
        <time>2013-10-02T13:21:05Z</time>
      </trkpt>
      <trkpt lat="43.77544" lon="6.25436">
        <ele>911.95</ele>
        <time>2013-10-02T13:21:17Z</time>
      </trkpt>
      <trkpt lat="43.77539" lon="6.25472">
        <ele>913.87</ele>
        <time>2013-10-02T13:21:29Z</time>
      </trkpt>
      <trkpt lat="43.77533" lon="6.25495">
        <ele>915.79</ele>
        <time>2013-10-02T13:21:37Z</time>
      </trkpt>
      <trkpt lat="43.77532" lon="6.25498">
        <ele>916.27</ele>
        <time>2013-10-02T13:21:38Z</time>
      </trkpt>
      <trkpt lat="43.7753" lon="6.255">
        <ele>916.27</ele>
        <time>2013-10-02T13:21:39Z</time>
      </trkpt>
      <trkpt lat="43.77529" lon="6.25503">
        <ele>916.75</ele>
        <time>2013-10-02T13:21:40Z</time>
      </trkpt>
      <trkpt lat="43.77528" lon="6.25506">
        <ele>916.75</ele>
        <time>2013-10-02T13:21:41Z</time>
      </trkpt>
      <trkpt lat="43.77526" lon="6.25508">
        <ele>917.24</ele>
        <time>2013-10-02T13:21:42Z</time>
      </trkpt>
      <trkpt lat="43.77525" lon="6.25511">
        <ele>917.24</ele>
        <time>2013-10-02T13:21:43Z</time>
      </trkpt>
      <trkpt lat="43.77524" lon="6.25513">
        <ele>917.24</ele>
        <time>2013-10-02T13:21:44Z</time>
      </trkpt>
      <trkpt lat="43.77515" lon="6.25541">
        <ele>919.64</ele>
        <time>2013-10-02T13:21:54Z</time>
      </trkpt>
      <trkpt lat="43.77518" lon="6.25574">
        <ele>921.56</ele>
        <time>2013-10-02T13:22:05Z</time>
      </trkpt>
      <trkpt lat="43.77523" lon="6.25604">
        <ele>923.48</ele>
        <time>2013-10-02T13:22:15Z</time>
      </trkpt>
      <trkpt lat="43.77528" lon="6.25633">
        <ele>926.37</ele>
        <time>2013-10-02T13:22:25Z</time>
      </trkpt>
      <trkpt lat="43.77528" lon="6.25674">
        <ele>928.29</ele>
        <time>2013-10-02T13:22:37Z</time>
      </trkpt>
      <trkpt lat="43.7753" lon="6.25707">
        <ele>929.73</ele>
        <time>2013-10-02T13:22:47Z</time>
      </trkpt>
      <trkpt lat="43.77545" lon="6.25734">
        <ele>932.62</ele>
        <time>2013-10-02T13:22:58Z</time>
      </trkpt>
      <trkpt lat="43.77561" lon="6.25768">
        <ele>935.98</ele>
        <time>2013-10-02T13:23:10Z</time>
      </trkpt>
      <trkpt lat="43.77573" lon="6.25793">
        <ele>936.46</ele>
        <time>2013-10-02T13:23:20Z</time>
      </trkpt>
      <trkpt lat="43.77582" lon="6.25797">
        <ele>936.94</ele>
        <time>2013-10-02T13:23:24Z</time>
      </trkpt>
      <trkpt lat="43.77614" lon="6.25779">
        <ele>938.38</ele>
        <time>2013-10-02T13:23:36Z</time>
      </trkpt>
      <trkpt lat="43.77636" lon="6.25757">
        <ele>939.83</ele>
        <time>2013-10-02T13:23:46Z</time>
      </trkpt>
      <trkpt lat="43.77663" lon="6.25749">
        <ele>941.27</ele>
        <time>2013-10-02T13:23:56Z</time>
      </trkpt>
      <trkpt lat="43.77693" lon="6.25735">
        <ele>944.63</ele>
        <time>2013-10-02T13:24:08Z</time>
      </trkpt>
      <trkpt lat="43.77717" lon="6.25724">
        <ele>946.07</ele>
        <time>2013-10-02T13:24:18Z</time>
      </trkpt>
      <trkpt lat="43.77743" lon="6.25706">
        <ele>948</ele>
        <time>2013-10-02T13:24:29Z</time>
      </trkpt>
      <trkpt lat="43.77752" lon="6.25695">
        <ele>949.44</ele>
        <time>2013-10-02T13:24:34Z</time>
      </trkpt>
      <trkpt lat="43.77766" lon="6.25677">
        <ele>949.44</ele>
        <time>2013-10-02T13:24:45Z</time>
      </trkpt>
      <trkpt lat="43.77766" lon="6.25677">
        <ele>949.92</ele>
        <time>2013-10-02T13:25:22Z</time>
      </trkpt>
      <trkpt lat="43.77768" lon="6.25678">
        <ele>949.92</ele>
        <time>2013-10-02T13:25:23Z</time>
      </trkpt>
      <trkpt lat="43.77769" lon="6.25678">
        <ele>950.4</ele>
        <time>2013-10-02T13:25:24Z</time>
      </trkpt>
      <trkpt lat="43.7777" lon="6.25679">
        <ele>949.92</ele>
        <time>2013-10-02T13:25:25Z</time>
      </trkpt>
      <trkpt lat="43.77772" lon="6.2568">
        <ele>950.4</ele>
        <time>2013-10-02T13:25:27Z</time>
      </trkpt>
      <trkpt lat="43.77772" lon="6.25694">
        <ele>950.88</ele>
        <time>2013-10-02T13:25:32Z</time>
      </trkpt>
      <trkpt lat="43.77763" lon="6.25703">
        <ele>951.36</ele>
        <time>2013-10-02T13:25:38Z</time>
      </trkpt>
      <trkpt lat="43.77742" lon="6.2572">
        <ele>952.8</ele>
        <time>2013-10-02T13:25:49Z</time>
      </trkpt>
      <trkpt lat="43.7772" lon="6.25741">
        <ele>954.73</ele>
        <time>2013-10-02T13:26:01Z</time>
      </trkpt>
      <trkpt lat="43.77697" lon="6.25762">
        <ele>956.65</ele>
        <time>2013-10-02T13:26:13Z</time>
      </trkpt>
      <trkpt lat="43.77685" lon="6.25772">
        <ele>957.61</ele>
        <time>2013-10-02T13:26:19Z</time>
      </trkpt>
      <trkpt lat="43.77664" lon="6.2579">
        <ele>959.05</ele>
        <time>2013-10-02T13:26:30Z</time>
      </trkpt>
      <trkpt lat="43.77654" lon="6.25798">
        <ele>960.01</ele>
        <time>2013-10-02T13:26:35Z</time>
      </trkpt>
      <trkpt lat="43.77638" lon="6.25826">
        <ele>962.42</ele>
        <time>2013-10-02T13:26:46Z</time>
      </trkpt>
      <trkpt lat="43.77636" lon="6.25828">
        <ele>962.9</ele>
        <time>2013-10-02T13:26:47Z</time>
      </trkpt>
      <trkpt lat="43.77635" lon="6.25831">
        <ele>962.42</ele>
        <time>2013-10-02T13:26:48Z</time>
      </trkpt>
      <trkpt lat="43.77621" lon="6.25857">
        <ele>964.34</ele>
        <time>2013-10-02T13:26:58Z</time>
      </trkpt>
      <trkpt lat="43.77601" lon="6.25883">
        <ele>965.78</ele>
        <time>2013-10-02T13:27:09Z</time>
      </trkpt>
      <trkpt lat="43.77579" lon="6.25903">
        <ele>968.67</ele>
        <time>2013-10-02T13:27:20Z</time>
      </trkpt>
      <trkpt lat="43.77562" lon="6.25923">
        <ele>970.11</ele>
        <time>2013-10-02T13:27:29Z</time>
      </trkpt>
      <trkpt lat="43.77543" lon="6.25951">
        <ele>972.99</ele>
        <time>2013-10-02T13:27:41Z</time>
      </trkpt>
      <trkpt lat="43.7754" lon="6.25986">
        <ele>975.39</ele>
        <time>2013-10-02T13:27:52Z</time>
      </trkpt>
      <trkpt lat="43.7755" lon="6.26025">
        <ele>976.84</ele>
        <time>2013-10-02T13:28:04Z</time>
      </trkpt>
      <trkpt lat="43.77551" lon="6.2603">
        <ele>976.84</ele>
        <time>2013-10-02T13:28:06Z</time>
      </trkpt>
      <trkpt lat="43.77547" lon="6.26039">
        <ele>976.84</ele>
        <time>2013-10-02T13:28:12Z</time>
      </trkpt>
      <trkpt lat="43.77538" lon="6.26042">
        <ele>977.32</ele>
        <time>2013-10-02T13:28:16Z</time>
      </trkpt>
      <trkpt lat="43.77527" lon="6.26028">
        <ele>977.8</ele>
        <time>2013-10-02T13:28:22Z</time>
      </trkpt>
      <trkpt lat="43.77526" lon="6.25983">
        <ele>979.72</ele>
        <time>2013-10-02T13:28:36Z</time>
      </trkpt>
      <trkpt lat="43.77524" lon="6.25948">
        <ele>981.64</ele>
        <time>2013-10-02T13:28:47Z</time>
      </trkpt>
      <trkpt lat="43.77512" lon="6.25919">
        <ele>984.53</ele>
        <time>2013-10-02T13:28:57Z</time>
      </trkpt>
      <trkpt lat="43.77497" lon="6.25892">
        <ele>985.97</ele>
        <time>2013-10-02T13:29:08Z</time>
      </trkpt>
      <trkpt lat="43.77493" lon="6.25886">
        <ele>986.93</ele>
        <time>2013-10-02T13:29:11Z</time>
      </trkpt>
      <trkpt lat="43.7748" lon="6.25861">
        <ele>988.85</ele>
        <time>2013-10-02T13:29:22Z</time>
      </trkpt>
      <trkpt lat="43.77463" lon="6.25833">
        <ele>990.78</ele>
        <time>2013-10-02T13:29:33Z</time>
      </trkpt>
      <trkpt lat="43.7745" lon="6.25809">
        <ele>993.18</ele>
        <time>2013-10-02T13:29:43Z</time>
      </trkpt>
      <trkpt lat="43.77439" lon="6.25786">
        <ele>994.62</ele>
        <time>2013-10-02T13:29:52Z</time>
      </trkpt>
      <trkpt lat="43.77432" lon="6.25758">
        <ele>997.02</ele>
        <time>2013-10-02T13:30:02Z</time>
      </trkpt>
      <trkpt lat="43.77424" lon="6.25723">
        <ele>998.95</ele>
        <time>2013-10-02T13:30:12Z</time>
      </trkpt>
      <trkpt lat="43.7742" lon="6.25685">
        <ele>1001.35</ele>
        <time>2013-10-02T13:30:24Z</time>
      </trkpt>
      <trkpt lat="43.77421" lon="6.25654">
        <ele>1003.75</ele>
        <time>2013-10-02T13:30:34Z</time>
      </trkpt>
      <trkpt lat="43.77413" lon="6.25627">
        <ele>1005.68</ele>
        <time>2013-10-02T13:30:44Z</time>
      </trkpt>
      <trkpt lat="43.77393" lon="6.25619">
        <ele>1007.12</ele>
        <time>2013-10-02T13:30:53Z</time>
      </trkpt>
      <trkpt lat="43.77366" lon="6.25634">
        <ele>1009.04</ele>
        <time>2013-10-02T13:31:05Z</time>
      </trkpt>
      <trkpt lat="43.77345" lon="6.25649">
        <ele>1011.93</ele>
        <time>2013-10-02T13:31:16Z</time>
      </trkpt>
      <trkpt lat="43.77331" lon="6.25657">
        <ele>1012.89</ele>
        <time>2013-10-02T13:31:22Z</time>
      </trkpt>
      <trkpt lat="43.77308" lon="6.25671">
        <ele>1014.33</ele>
        <time>2013-10-02T13:31:33Z</time>
      </trkpt>
      <trkpt lat="43.77283" lon="6.25672">
        <ele>1016.73</ele>
        <time>2013-10-02T13:31:43Z</time>
      </trkpt>
      <trkpt lat="43.7726" lon="6.2567">
        <ele>1018.65</ele>
        <time>2013-10-02T13:31:53Z</time>
      </trkpt>
      <trkpt lat="43.77253" lon="6.2568">
        <ele>1018.65</ele>
        <time>2013-10-02T13:31:57Z</time>
      </trkpt>
      <trkpt lat="43.77262" lon="6.25696">
        <ele>1019.13</ele>
        <time>2013-10-02T13:32:04Z</time>
      </trkpt>
      <trkpt lat="43.77298" lon="6.25704">
        <ele>1020.58</ele>
        <time>2013-10-02T13:32:16Z</time>
      </trkpt>
      <trkpt lat="43.77325" lon="6.2571">
        <ele>1022.02</ele>
        <time>2013-10-02T13:32:26Z</time>
      </trkpt>
      <trkpt lat="43.77353" lon="6.25716">
        <ele>1024.42</ele>
        <time>2013-10-02T13:32:37Z</time>
      </trkpt>
      <trkpt lat="43.77359" lon="6.25716">
        <ele>1025.38</ele>
        <time>2013-10-02T13:32:39Z</time>
      </trkpt>
      <trkpt lat="43.77386" lon="6.25725">
        <ele>1026.34</ele>
        <time>2013-10-02T13:32:49Z</time>
      </trkpt>
      <trkpt lat="43.77383" lon="6.2574">
        <ele>1027.31</ele>
        <time>2013-10-02T13:32:55Z</time>
      </trkpt>
      <trkpt lat="43.77354" lon="6.25736">
        <ele>1029.71</ele>
        <time>2013-10-02T13:33:06Z</time>
      </trkpt>
      <trkpt lat="43.77325" lon="6.2575">
        <ele>1032.11</ele>
        <time>2013-10-02T13:33:18Z</time>
      </trkpt>
      <trkpt lat="43.77305" lon="6.2576">
        <ele>1033.55</ele>
        <time>2013-10-02T13:33:28Z</time>
      </trkpt>
      <trkpt lat="43.77298" lon="6.25761">
        <ele>1035</ele>
        <time>2013-10-02T13:33:31Z</time>
      </trkpt>
      <trkpt lat="43.7728" lon="6.25763">
        <ele>1036.92</ele>
        <time>2013-10-02T13:33:39Z</time>
      </trkpt>
      <trkpt lat="43.7725" lon="6.2576">
        <ele>1039.32</ele>
        <time>2013-10-02T13:33:52Z</time>
      </trkpt>
      <trkpt lat="43.77245" lon="6.25759">
        <ele>1040.28</ele>
        <time>2013-10-02T13:33:54Z</time>
      </trkpt>
      <trkpt lat="43.77222" lon="6.25752">
        <ele>1042.21</ele>
        <time>2013-10-02T13:34:04Z</time>
      </trkpt>
      <trkpt lat="43.77193" lon="6.25737">
        <ele>1044.13</ele>
        <time>2013-10-02T13:34:16Z</time>
      </trkpt>
      <trkpt lat="43.77184" lon="6.25733">
        <ele>1045.09</ele>
        <time>2013-10-02T13:34:20Z</time>
      </trkpt>
      <trkpt lat="43.77158" lon="6.25726">
        <ele>1047.49</ele>
        <time>2013-10-02T13:34:31Z</time>
      </trkpt>
      <trkpt lat="43.77134" lon="6.25717">
        <ele>1049.9</ele>
        <time>2013-10-02T13:34:41Z</time>
      </trkpt>
      <trkpt lat="43.77122" lon="6.25709">
        <ele>1050.38</ele>
        <time>2013-10-02T13:34:47Z</time>
      </trkpt>
      <trkpt lat="43.77113" lon="6.25676">
        <ele>1053.74</ele>
        <time>2013-10-02T13:34:58Z</time>
      </trkpt>
      <trkpt lat="43.77112" lon="6.25639">
        <ele>1055.18</ele>
        <time>2013-10-02T13:35:09Z</time>
      </trkpt>
      <trkpt lat="43.77108" lon="6.25605">
        <ele>1056.63</ele>
        <time>2013-10-02T13:35:19Z</time>
      </trkpt>
      <trkpt lat="43.77105" lon="6.256">
        <ele>1057.11</ele>
        <time>2013-10-02T13:35:21Z</time>
      </trkpt>
      <trkpt lat="43.77086" lon="6.256">
        <ele>1059.99</ele>
        <time>2013-10-02T13:35:30Z</time>
      </trkpt>
      <trkpt lat="43.7708" lon="6.25629">
        <ele>1060.95</ele>
        <time>2013-10-02T13:35:39Z</time>
      </trkpt>
      <trkpt lat="43.77075" lon="6.25661">
        <ele>1062.87</ele>
        <time>2013-10-02T13:35:49Z</time>
      </trkpt>
      <trkpt lat="43.77076" lon="6.25701">
        <ele>1065.76</ele>
        <time>2013-10-02T13:36:01Z</time>
      </trkpt>
      <trkpt lat="43.77085" lon="6.25732">
        <ele>1067.2</ele>
        <time>2013-10-02T13:36:11Z</time>
      </trkpt>
      <trkpt lat="43.77096" lon="6.25761">
        <ele>1069.12</ele>
        <time>2013-10-02T13:36:21Z</time>
      </trkpt>
      <trkpt lat="43.77118" lon="6.25783">
        <ele>1071.53</ele>
        <time>2013-10-02T13:36:33Z</time>
      </trkpt>
      <trkpt lat="43.7714" lon="6.25812">
        <ele>1073.45</ele>
        <time>2013-10-02T13:36:45Z</time>
      </trkpt>
      <trkpt lat="43.77154" lon="6.2584">
        <ele>1076.33</ele>
        <time>2013-10-02T13:36:55Z</time>
      </trkpt>
      <trkpt lat="43.7717" lon="6.25879">
        <ele>1078.74</ele>
        <time>2013-10-02T13:37:08Z</time>
      </trkpt>
      <trkpt lat="43.77172" lon="6.25915">
        <ele>1080.66</ele>
        <time>2013-10-02T13:37:19Z</time>
      </trkpt>
      <trkpt lat="43.77169" lon="6.25924">
        <ele>1081.62</ele>
        <time>2013-10-02T13:37:23Z</time>
      </trkpt>
      <trkpt lat="43.77163" lon="6.25932">
        <ele>1082.1</ele>
        <time>2013-10-02T13:37:27Z</time>
      </trkpt>
      <trkpt lat="43.77145" lon="6.25947">
        <ele>1084.99</ele>
        <time>2013-10-02T13:37:37Z</time>
      </trkpt>
      <trkpt lat="43.77131" lon="6.2597">
        <ele>1085.95</ele>
        <time>2013-10-02T13:37:46Z</time>
      </trkpt>
      <trkpt lat="43.77109" lon="6.26004">
        <ele>1088.35</ele>
        <time>2013-10-02T13:37:59Z</time>
      </trkpt>
      <trkpt lat="43.77093" lon="6.26037">
        <ele>1089.31</ele>
        <time>2013-10-02T13:38:10Z</time>
      </trkpt>
      <trkpt lat="43.77086" lon="6.26041">
        <ele>1090.75</ele>
        <time>2013-10-02T13:38:13Z</time>
      </trkpt>
      <trkpt lat="43.77076" lon="6.26043">
        <ele>1091.23</ele>
        <time>2013-10-02T13:38:17Z</time>
      </trkpt>
      <trkpt lat="43.77069" lon="6.26047">
        <ele>1092.2</ele>
        <time>2013-10-02T13:38:20Z</time>
      </trkpt>
      <trkpt lat="43.7705" lon="6.26062">
        <ele>1094.6</ele>
        <time>2013-10-02T13:38:30Z</time>
      </trkpt>
      <trkpt lat="43.77045" lon="6.26069">
        <ele>1095.08</ele>
        <time>2013-10-02T13:38:33Z</time>
      </trkpt>
      <trkpt lat="43.77025" lon="6.26082">
        <ele>1097.48</ele>
        <time>2013-10-02T13:38:43Z</time>
      </trkpt>
      <trkpt lat="43.77007" lon="6.26075">
        <ele>1099.4</ele>
        <time>2013-10-02T13:38:52Z</time>
      </trkpt>
      <trkpt lat="43.76983" lon="6.26069">
        <ele>1101.33</ele>
        <time>2013-10-02T13:39:03Z</time>
      </trkpt>
      <trkpt lat="43.76964" lon="6.26078">
        <ele>1103.73</ele>
        <time>2013-10-02T13:39:12Z</time>
      </trkpt>
      <trkpt lat="43.76946" lon="6.26097">
        <ele>1104.69</ele>
        <time>2013-10-02T13:39:21Z</time>
      </trkpt>
      <trkpt lat="43.76927" lon="6.26103">
        <ele>1106.61</ele>
        <time>2013-10-02T13:39:30Z</time>
      </trkpt>
      <trkpt lat="43.76904" lon="6.26115">
        <ele>1108.06</ele>
        <time>2013-10-02T13:39:40Z</time>
      </trkpt>
      <trkpt lat="43.76884" lon="6.26127">
        <ele>1109.5</ele>
        <time>2013-10-02T13:39:49Z</time>
      </trkpt>
      <trkpt lat="43.76867" lon="6.26134">
        <ele>1110.94</ele>
        <time>2013-10-02T13:39:56Z</time>
      </trkpt>
      <trkpt lat="43.76862" lon="6.26135">
        <ele>1111.9</ele>
        <time>2013-10-02T13:39:58Z</time>
      </trkpt>
      <trkpt lat="43.76838" lon="6.2614">
        <ele>1113.82</ele>
        <time>2013-10-02T13:40:08Z</time>
      </trkpt>
      <trkpt lat="43.76818" lon="6.26142">
        <ele>1115.27</ele>
        <time>2013-10-02T13:40:17Z</time>
      </trkpt>
      <trkpt lat="43.7679" lon="6.26149">
        <ele>1117.67</ele>
        <time>2013-10-02T13:40:29Z</time>
      </trkpt>
      <trkpt lat="43.76768" lon="6.26159">
        <ele>1119.11</ele>
        <time>2013-10-02T13:40:39Z</time>
      </trkpt>
      <trkpt lat="43.76747" lon="6.26173">
        <ele>1120.55</ele>
        <time>2013-10-02T13:40:48Z</time>
      </trkpt>
      <trkpt lat="43.76732" lon="6.26197">
        <ele>1122.48</ele>
        <time>2013-10-02T13:40:58Z</time>
      </trkpt>
      <trkpt lat="43.76721" lon="6.26229">
        <ele>1124.88</ele>
        <time>2013-10-02T13:41:09Z</time>
      </trkpt>
      <trkpt lat="43.76717" lon="6.26269">
        <ele>1126.8</ele>
        <time>2013-10-02T13:41:21Z</time>
      </trkpt>
      <trkpt lat="43.76711" lon="6.26283">
        <ele>1128.24</ele>
        <time>2013-10-02T13:41:26Z</time>
      </trkpt>
      <trkpt lat="43.76698" lon="6.26307">
        <ele>1129.69</ele>
        <time>2013-10-02T13:41:35Z</time>
      </trkpt>
      <trkpt lat="43.76693" lon="6.26337">
        <ele>1131.61</ele>
        <time>2013-10-02T13:41:44Z</time>
      </trkpt>
      <trkpt lat="43.76703" lon="6.26381">
        <ele>1133.05</ele>
        <time>2013-10-02T13:41:56Z</time>
      </trkpt>
      <trkpt lat="43.76712" lon="6.26403">
        <ele>1134.49</ele>
        <time>2013-10-02T13:42:05Z</time>
      </trkpt>
      <trkpt lat="43.76711" lon="6.26409">
        <ele>1134.97</ele>
        <time>2013-10-02T13:42:13Z</time>
      </trkpt>
      <trkpt lat="43.76707" lon="6.26412">
        <ele>1134.49</ele>
        <time>2013-10-02T13:42:27Z</time>
      </trkpt>
      <trkpt lat="43.76708" lon="6.26413">
        <ele>1134.49</ele>
        <time>2013-10-02T13:45:58Z</time>
      </trkpt>
      <trkpt lat="43.76708" lon="6.26412">
        <ele>1133.53</ele>
        <time>2013-10-02T13:46:22Z</time>
      </trkpt>
      <trkpt lat="43.76708" lon="6.26412">
        <ele>1134.01</ele>
        <time>2013-10-02T13:46:50Z</time>
      </trkpt>
      <trkpt lat="43.76708" lon="6.26412">
        <ele>1133.53</ele>
        <time>2013-10-02T13:47:07Z</time>
      </trkpt>
      <trkpt lat="43.76708" lon="6.26412">
        <ele>1133.53</ele>
        <time>2013-10-02T13:47:42Z</time>
      </trkpt>
      <trkpt lat="43.76708" lon="6.26412">
        <ele>1133.53</ele>
        <time>2013-10-02T13:48:13Z</time>
      </trkpt>
      <trkpt lat="43.76697" lon="6.26424">
        <ele>1133.53</ele>
        <time>2013-10-02T13:48:24Z</time>
      </trkpt>
      <trkpt lat="43.76673" lon="6.2646">
        <ele>1134.97</ele>
        <time>2013-10-02T13:48:36Z</time>
      </trkpt>
      <trkpt lat="43.76653" lon="6.26483">
        <ele>1136.42</ele>
        <time>2013-10-02T13:48:45Z</time>
      </trkpt>
      <trkpt lat="43.76634" lon="6.26486">
        <ele>1137.38</ele>
        <time>2013-10-02T13:48:52Z</time>
      </trkpt>
      <trkpt lat="43.76612" lon="6.26489">
        <ele>1138.34</ele>
        <time>2013-10-02T13:49:00Z</time>
      </trkpt>
      <trkpt lat="43.76609" lon="6.26489">
        <ele>1138.82</ele>
        <time>2013-10-02T13:49:01Z</time>
      </trkpt>
      <trkpt lat="43.76597" lon="6.26489">
        <ele>1139.78</ele>
        <time>2013-10-02T13:49:06Z</time>
      </trkpt>
      <trkpt lat="43.76572" lon="6.26501">
        <ele>1142.18</ele>
        <time>2013-10-02T13:49:16Z</time>
      </trkpt>
      <trkpt lat="43.76556" lon="6.26511">
        <ele>1144.11</ele>
        <time>2013-10-02T13:49:24Z</time>
      </trkpt>
      <trkpt lat="43.7654" lon="6.26521">
        <ele>1145.55</ele>
        <time>2013-10-02T13:49:33Z</time>
      </trkpt>
      <trkpt lat="43.76533" lon="6.26525">
        <ele>1146.51</ele>
        <time>2013-10-02T13:49:36Z</time>
      </trkpt>
      <trkpt lat="43.76519" lon="6.26536">
        <ele>1147.47</ele>
        <time>2013-10-02T13:49:44Z</time>
      </trkpt>
      <trkpt lat="43.76507" lon="6.26548">
        <ele>1148.91</ele>
        <time>2013-10-02T13:49:51Z</time>
      </trkpt>
      <trkpt lat="43.76495" lon="6.26575">
        <ele>1151.32</ele>
        <time>2013-10-02T13:50:02Z</time>
      </trkpt>
      <trkpt lat="43.76488" lon="6.26588">
        <ele>1152.76</ele>
        <time>2013-10-02T13:50:08Z</time>
      </trkpt>
      <trkpt lat="43.76476" lon="6.26609">
        <ele>1154.68</ele>
        <time>2013-10-02T13:50:18Z</time>
      </trkpt>
      <trkpt lat="43.76465" lon="6.26631">
        <ele>1157.08</ele>
        <time>2013-10-02T13:50:28Z</time>
      </trkpt>
      <trkpt lat="43.76457" lon="6.26664">
        <ele>1158.53</ele>
        <time>2013-10-02T13:50:40Z</time>
      </trkpt>
      <trkpt lat="43.76455" lon="6.26707">
        <ele>1161.41</ele>
        <time>2013-10-02T13:50:53Z</time>
      </trkpt>
      <trkpt lat="43.76447" lon="6.26739">
        <ele>1163.33</ele>
        <time>2013-10-02T13:51:04Z</time>
      </trkpt>
      <trkpt lat="43.76445" lon="6.26741">
        <ele>1163.33</ele>
        <time>2013-10-02T13:51:05Z</time>
      </trkpt>
      <trkpt lat="43.76439" lon="6.26749">
        <ele>1163.81</ele>
        <time>2013-10-02T13:51:09Z</time>
      </trkpt>
      <trkpt lat="43.7642" lon="6.26764">
        <ele>1166.7</ele>
        <time>2013-10-02T13:51:20Z</time>
      </trkpt>
      <trkpt lat="43.76406" lon="6.26791">
        <ele>1168.62</ele>
        <time>2013-10-02T13:51:31Z</time>
      </trkpt>
      <trkpt lat="43.76395" lon="6.26815">
        <ele>1169.58</ele>
        <time>2013-10-02T13:51:39Z</time>
      </trkpt>
      <trkpt lat="43.76378" lon="6.26832">
        <ele>1171.5</ele>
        <time>2013-10-02T13:51:48Z</time>
      </trkpt>
      <trkpt lat="43.76375" lon="6.26845">
        <ele>1171.98</ele>
        <time>2013-10-02T13:51:52Z</time>
      </trkpt>
      <trkpt lat="43.76375" lon="6.26855">
        <ele>1172.47</ele>
        <time>2013-10-02T13:51:55Z</time>
      </trkpt>
      <trkpt lat="43.76381" lon="6.26867">
        <ele>1173.43</ele>
        <time>2013-10-02T13:51:59Z</time>
      </trkpt>
      <trkpt lat="43.76407" lon="6.26895">
        <ele>1174.87</ele>
        <time>2013-10-02T13:52:11Z</time>
      </trkpt>
      <trkpt lat="43.76412" lon="6.26921">
        <ele>1177.27</ele>
        <time>2013-10-02T13:52:19Z</time>
      </trkpt>
      <trkpt lat="43.76404" lon="6.26945">
        <ele>1179.19</ele>
        <time>2013-10-02T13:52:27Z</time>
      </trkpt>
      <trkpt lat="43.764" lon="6.26964">
        <ele>1180.16</ele>
        <time>2013-10-02T13:52:33Z</time>
      </trkpt>
      <trkpt lat="43.76398" lon="6.26975">
        <ele>1180.64</ele>
        <time>2013-10-02T13:52:37Z</time>
      </trkpt>
      <trkpt lat="43.76399" lon="6.26978">
        <ele>1181.12</ele>
        <time>2013-10-02T13:52:38Z</time>
      </trkpt>
      <trkpt lat="43.76407" lon="6.27021">
        <ele>1183.52</ele>
        <time>2013-10-02T13:52:50Z</time>
      </trkpt>
      <trkpt lat="43.76417" lon="6.27047">
        <ele>1185.92</ele>
        <time>2013-10-02T13:52:59Z</time>
      </trkpt>
      <trkpt lat="43.76424" lon="6.27057">
        <ele>1186.88</ele>
        <time>2013-10-02T13:53:04Z</time>
      </trkpt>
      <trkpt lat="43.76435" lon="6.27066">
        <ele>1187.85</ele>
        <time>2013-10-02T13:53:10Z</time>
      </trkpt>
      <trkpt lat="43.76449" lon="6.2707">
        <ele>1188.81</ele>
        <time>2013-10-02T13:53:16Z</time>
      </trkpt>
      <trkpt lat="43.76475" lon="6.27082">
        <ele>1191.21</ele>
        <time>2013-10-02T13:53:28Z</time>
      </trkpt>
      <trkpt lat="43.765" lon="6.27099">
        <ele>1194.09</ele>
        <time>2013-10-02T13:53:40Z</time>
      </trkpt>
      <trkpt lat="43.7652" lon="6.27115">
        <ele>1195.54</ele>
        <time>2013-10-02T13:53:50Z</time>
      </trkpt>
      <trkpt lat="43.76528" lon="6.27125">
        <ele>1196.98</ele>
        <time>2013-10-02T13:53:55Z</time>
      </trkpt>
      <trkpt lat="43.76531" lon="6.27136">
        <ele>1197.94</ele>
        <time>2013-10-02T13:53:59Z</time>
      </trkpt>
      <trkpt lat="43.76526" lon="6.27167">
        <ele>1199.86</ele>
        <time>2013-10-02T13:54:10Z</time>
      </trkpt>
      <trkpt lat="43.76527" lon="6.2719">
        <ele>1199.86</ele>
        <time>2013-10-02T13:54:18Z</time>
      </trkpt>
      <trkpt lat="43.76531" lon="6.27198">
        <ele>1199.86</ele>
        <time>2013-10-02T13:54:22Z</time>
      </trkpt>
      <trkpt lat="43.76534" lon="6.27232">
        <ele>1198.42</ele>
        <time>2013-10-02T13:54:30Z</time>
      </trkpt>
      <trkpt lat="43.76536" lon="6.27239">
        <ele>1198.42</ele>
        <time>2013-10-02T13:54:31Z</time>
      </trkpt>
      <trkpt lat="43.7655" lon="6.27285">
        <ele>1196.02</ele>
        <time>2013-10-02T13:54:36Z</time>
      </trkpt>
      <trkpt lat="43.76554" lon="6.27295">
        <ele>1195.06</ele>
        <time>2013-10-02T13:54:37Z</time>
      </trkpt>
      <trkpt lat="43.76558" lon="6.27306">
        <ele>1194.58</ele>
        <time>2013-10-02T13:54:38Z</time>
      </trkpt>
      <trkpt lat="43.76569" lon="6.27327">
        <ele>1194.09</ele>
        <time>2013-10-02T13:54:40Z</time>
      </trkpt>
      <trkpt lat="43.76588" lon="6.27359">
        <ele>1191.21</ele>
        <time>2013-10-02T13:54:43Z</time>
      </trkpt>
      <trkpt lat="43.76596" lon="6.27369">
        <ele>1190.73</ele>
        <time>2013-10-02T13:54:44Z</time>
      </trkpt>
      <trkpt lat="43.76604" lon="6.27378">
        <ele>1189.29</ele>
        <time>2013-10-02T13:54:45Z</time>
      </trkpt>
      <trkpt lat="43.76613" lon="6.27387">
        <ele>1188.33</ele>
        <time>2013-10-02T13:54:46Z</time>
      </trkpt>
      <trkpt lat="43.76622" lon="6.27393">
        <ele>1187.85</ele>
        <time>2013-10-02T13:54:47Z</time>
      </trkpt>
      <trkpt lat="43.76631" lon="6.27399">
        <ele>1187.37</ele>
        <time>2013-10-02T13:54:48Z</time>
      </trkpt>
      <trkpt lat="43.76639" lon="6.27404">
        <ele>1186.88</ele>
        <time>2013-10-02T13:54:49Z</time>
      </trkpt>
      <trkpt lat="43.76666" lon="6.27414">
        <ele>1183.52</ele>
        <time>2013-10-02T13:54:52Z</time>
      </trkpt>
      <trkpt lat="43.76704" lon="6.2742">
        <ele>1180.64</ele>
        <time>2013-10-02T13:54:56Z</time>
      </trkpt>
      <trkpt lat="43.76737" lon="6.27426">
        <ele>1177.27</ele>
        <time>2013-10-02T13:55:00Z</time>
      </trkpt>
      <trkpt lat="43.76759" lon="6.27432">
        <ele>1174.39</ele>
        <time>2013-10-02T13:55:05Z</time>
      </trkpt>
      <trkpt lat="43.76766" lon="6.27438">
        <ele>1172.95</ele>
        <time>2013-10-02T13:55:10Z</time>
      </trkpt>
      <trkpt lat="43.76766" lon="6.27438">
        <ele>1173.91</ele>
        <time>2013-10-02T13:55:17Z</time>
      </trkpt>
      <trkpt lat="43.76766" lon="6.27438">
        <ele>1173.43</ele>
        <time>2013-10-02T13:55:42Z</time>
      </trkpt>
      <trkpt lat="43.76767" lon="6.2744">
        <ele>1172.95</ele>
        <time>2013-10-02T13:56:56Z</time>
      </trkpt>
      <trkpt lat="43.76766" lon="6.27442">
        <ele>1172.95</ele>
        <time>2013-10-02T13:56:59Z</time>
      </trkpt>
      <trkpt lat="43.76763" lon="6.27453">
        <ele>1172.95</ele>
        <time>2013-10-02T13:57:06Z</time>
      </trkpt>
      <trkpt lat="43.76757" lon="6.2747">
        <ele>1171.98</ele>
        <time>2013-10-02T13:57:13Z</time>
      </trkpt>
      <trkpt lat="43.76744" lon="6.27495">
        <ele>1171.02</ele>
        <time>2013-10-02T13:57:20Z</time>
      </trkpt>
      <trkpt lat="43.76713" lon="6.27549">
        <ele>1169.1</ele>
        <time>2013-10-02T13:57:27Z</time>
      </trkpt>
      <trkpt lat="43.76708" lon="6.2756">
        <ele>1167.66</ele>
        <time>2013-10-02T13:57:28Z</time>
      </trkpt>
      <trkpt lat="43.76705" lon="6.27571">
        <ele>1167.66</ele>
        <time>2013-10-02T13:57:29Z</time>
      </trkpt>
      <trkpt lat="43.76689" lon="6.2764">
        <ele>1163.33</ele>
        <time>2013-10-02T13:57:34Z</time>
      </trkpt>
      <trkpt lat="43.76686" lon="6.27655">
        <ele>1163.33</ele>
        <time>2013-10-02T13:57:35Z</time>
      </trkpt>
      <trkpt lat="43.76677" lon="6.27682">
        <ele>1160.45</ele>
        <time>2013-10-02T13:57:37Z</time>
      </trkpt>
      <trkpt lat="43.7667" lon="6.27694">
        <ele>1159.97</ele>
        <time>2013-10-02T13:57:38Z</time>
      </trkpt>
      <trkpt lat="43.76663" lon="6.27706">
        <ele>1159.01</ele>
        <time>2013-10-02T13:57:39Z</time>
      </trkpt>
      <trkpt lat="43.76654" lon="6.27718">
        <ele>1158.53</ele>
        <time>2013-10-02T13:57:40Z</time>
      </trkpt>
      <trkpt lat="43.76645" lon="6.27728">
        <ele>1157.08</ele>
        <time>2013-10-02T13:57:41Z</time>
      </trkpt>
      <trkpt lat="43.76635" lon="6.27738">
        <ele>1155.64</ele>
        <time>2013-10-02T13:57:42Z</time>
      </trkpt>
      <trkpt lat="43.76615" lon="6.27757">
        <ele>1154.68</ele>
        <time>2013-10-02T13:57:44Z</time>
      </trkpt>
      <trkpt lat="43.76593" lon="6.27773">
        <ele>1151.8</ele>
        <time>2013-10-02T13:57:46Z</time>
      </trkpt>
      <trkpt lat="43.76582" lon="6.27778">
        <ele>1151.32</ele>
        <time>2013-10-02T13:57:47Z</time>
      </trkpt>
      <trkpt lat="43.76572" lon="6.27783">
        <ele>1149.87</ele>
        <time>2013-10-02T13:57:48Z</time>
      </trkpt>
      <trkpt lat="43.76563" lon="6.27788">
        <ele>1148.91</ele>
        <time>2013-10-02T13:57:49Z</time>
      </trkpt>
      <trkpt lat="43.76556" lon="6.27797">
        <ele>1147.47</ele>
        <time>2013-10-02T13:57:50Z</time>
      </trkpt>
      <trkpt lat="43.76551" lon="6.27808">
        <ele>1146.51</ele>
        <time>2013-10-02T13:57:51Z</time>
      </trkpt>
      <trkpt lat="43.76549" lon="6.27822">
        <ele>1146.03</ele>
        <time>2013-10-02T13:57:52Z</time>
      </trkpt>
      <trkpt lat="43.76549" lon="6.27837">
        <ele>1145.55</ele>
        <time>2013-10-02T13:57:53Z</time>
      </trkpt>
      <trkpt lat="43.76548" lon="6.27852">
        <ele>1145.07</ele>
        <time>2013-10-02T13:57:54Z</time>
      </trkpt>
      <trkpt lat="43.76546" lon="6.27867">
        <ele>1143.63</ele>
        <time>2013-10-02T13:57:55Z</time>
      </trkpt>
      <trkpt lat="43.76542" lon="6.27882">
        <ele>1143.14</ele>
        <time>2013-10-02T13:57:56Z</time>
      </trkpt>
      <trkpt lat="43.76537" lon="6.27897">
        <ele>1142.66</ele>
        <time>2013-10-02T13:57:57Z</time>
      </trkpt>
      <trkpt lat="43.7651" lon="6.27953">
        <ele>1138.82</ele>
        <time>2013-10-02T13:58:01Z</time>
      </trkpt>
      <trkpt lat="43.76486" lon="6.27993">
        <ele>1135.45</ele>
        <time>2013-10-02T13:58:04Z</time>
      </trkpt>
      <trkpt lat="43.7646" lon="6.28034">
        <ele>1132.57</ele>
        <time>2013-10-02T13:58:07Z</time>
      </trkpt>
      <trkpt lat="43.76424" lon="6.28092">
        <ele>1127.76</ele>
        <time>2013-10-02T13:58:11Z</time>
      </trkpt>
      <trkpt lat="43.76394" lon="6.28134">
        <ele>1124.4</ele>
        <time>2013-10-02T13:58:14Z</time>
      </trkpt>
      <trkpt lat="43.76375" lon="6.2816">
        <ele>1121.03</ele>
        <time>2013-10-02T13:58:16Z</time>
      </trkpt>
      <trkpt lat="43.76365" lon="6.28171">
        <ele>1119.59</ele>
        <time>2013-10-02T13:58:17Z</time>
      </trkpt>
      <trkpt lat="43.76354" lon="6.28178">
        <ele>1118.15</ele>
        <time>2013-10-02T13:58:18Z</time>
      </trkpt>
      <trkpt lat="43.76343" lon="6.28183">
        <ele>1116.71</ele>
        <time>2013-10-02T13:58:19Z</time>
      </trkpt>
      <trkpt lat="43.76331" lon="6.28184">
        <ele>1115.75</ele>
        <time>2013-10-02T13:58:20Z</time>
      </trkpt>
      <trkpt lat="43.76321" lon="6.28183">
        <ele>1114.31</ele>
        <time>2013-10-02T13:58:21Z</time>
      </trkpt>
      <trkpt lat="43.76312" lon="6.28181">
        <ele>1113.82</ele>
        <time>2013-10-02T13:58:22Z</time>
      </trkpt>
      <trkpt lat="43.76305" lon="6.28181">
        <ele>1111.42</ele>
        <time>2013-10-02T13:58:23Z</time>
      </trkpt>
      <trkpt lat="43.76299" lon="6.28185">
        <ele>1110.46</ele>
        <time>2013-10-02T13:58:24Z</time>
      </trkpt>
      <trkpt lat="43.76294" lon="6.28192">
        <ele>1110.46</ele>
        <time>2013-10-02T13:58:25Z</time>
      </trkpt>
      <trkpt lat="43.76288" lon="6.282">
        <ele>1109.98</ele>
        <time>2013-10-02T13:58:26Z</time>
      </trkpt>
      <trkpt lat="43.76252" lon="6.28241">
        <ele>1107.1</ele>
        <time>2013-10-02T13:58:31Z</time>
      </trkpt>
      <trkpt lat="43.76225" lon="6.28266">
        <ele>1104.21</ele>
        <time>2013-10-02T13:58:34Z</time>
      </trkpt>
      <trkpt lat="43.76217" lon="6.28277">
        <ele>1103.73</ele>
        <time>2013-10-02T13:58:35Z</time>
      </trkpt>
      <trkpt lat="43.76201" lon="6.28298">
        <ele>1102.77</ele>
        <time>2013-10-02T13:58:37Z</time>
      </trkpt>
      <trkpt lat="43.76192" lon="6.28307">
        <ele>1101.33</ele>
        <time>2013-10-02T13:58:38Z</time>
      </trkpt>
      <trkpt lat="43.76181" lon="6.28313">
        <ele>1100.37</ele>
        <time>2013-10-02T13:58:39Z</time>
      </trkpt>
      <trkpt lat="43.76158" lon="6.2832">
        <ele>1098.44</ele>
        <time>2013-10-02T13:58:41Z</time>
      </trkpt>
      <trkpt lat="43.76147" lon="6.28321">
        <ele>1097.48</ele>
        <time>2013-10-02T13:58:42Z</time>
      </trkpt>
      <trkpt lat="43.76137" lon="6.2832">
        <ele>1097</ele>
        <time>2013-10-02T13:58:43Z</time>
      </trkpt>
      <trkpt lat="43.76129" lon="6.2832">
        <ele>1095.56</ele>
        <time>2013-10-02T13:58:44Z</time>
      </trkpt>
      <trkpt lat="43.76122" lon="6.28324">
        <ele>1094.6</ele>
        <time>2013-10-02T13:58:45Z</time>
      </trkpt>
      <trkpt lat="43.76118" lon="6.28332">
        <ele>1094.6</ele>
        <time>2013-10-02T13:58:46Z</time>
      </trkpt>
      <trkpt lat="43.76115" lon="6.28341">
        <ele>1094.6</ele>
        <time>2013-10-02T13:58:47Z</time>
      </trkpt>
      <trkpt lat="43.76115" lon="6.28352">
        <ele>1094.12</ele>
        <time>2013-10-02T13:58:48Z</time>
      </trkpt>
      <trkpt lat="43.76115" lon="6.28362">
        <ele>1094.12</ele>
        <time>2013-10-02T13:58:49Z</time>
      </trkpt>
      <trkpt lat="43.76122" lon="6.28433">
        <ele>1091.23</ele>
        <time>2013-10-02T13:58:55Z</time>
      </trkpt>
      <trkpt lat="43.76121" lon="6.28447">
        <ele>1090.75</ele>
        <time>2013-10-02T13:58:56Z</time>
      </trkpt>
      <trkpt lat="43.76117" lon="6.28459">
        <ele>1090.27</ele>
        <time>2013-10-02T13:58:57Z</time>
      </trkpt>
      <trkpt lat="43.7611" lon="6.2847">
        <ele>1089.79</ele>
        <time>2013-10-02T13:58:58Z</time>
      </trkpt>
      <trkpt lat="43.76103" lon="6.28481">
        <ele>1088.83</ele>
        <time>2013-10-02T13:58:59Z</time>
      </trkpt>
      <trkpt lat="43.76068" lon="6.28517">
        <ele>1085.95</ele>
        <time>2013-10-02T13:59:03Z</time>
      </trkpt>
      <trkpt lat="43.76058" lon="6.28524">
        <ele>1084.99</ele>
        <time>2013-10-02T13:59:04Z</time>
      </trkpt>
      <trkpt lat="43.76028" lon="6.2854">
        <ele>1083.06</ele>
        <time>2013-10-02T13:59:07Z</time>
      </trkpt>
      <trkpt lat="43.7602" lon="6.28548">
        <ele>1082.58</ele>
        <time>2013-10-02T13:59:08Z</time>
      </trkpt>
      <trkpt lat="43.76015" lon="6.28559">
        <ele>1081.62</ele>
        <time>2013-10-02T13:59:09Z</time>
      </trkpt>
      <trkpt lat="43.76011" lon="6.28573">
        <ele>1080.66</ele>
        <time>2013-10-02T13:59:10Z</time>
      </trkpt>
      <trkpt lat="43.76008" lon="6.28587">
        <ele>1080.18</ele>
        <time>2013-10-02T13:59:11Z</time>
      </trkpt>
      <trkpt lat="43.76002" lon="6.28601">
        <ele>1079.22</ele>
        <time>2013-10-02T13:59:12Z</time>
      </trkpt>
      <trkpt lat="43.75995" lon="6.28614">
        <ele>1078.26</ele>
        <time>2013-10-02T13:59:13Z</time>
      </trkpt>
      <trkpt lat="43.7598" lon="6.2864">
        <ele>1076.81</ele>
        <time>2013-10-02T13:59:15Z</time>
      </trkpt>
      <trkpt lat="43.75972" lon="6.28652">
        <ele>1076.33</ele>
        <time>2013-10-02T13:59:16Z</time>
      </trkpt>
      <trkpt lat="43.75963" lon="6.28662">
        <ele>1075.85</ele>
        <time>2013-10-02T13:59:17Z</time>
      </trkpt>
      <trkpt lat="43.75952" lon="6.28672">
        <ele>1074.41</ele>
        <time>2013-10-02T13:59:18Z</time>
      </trkpt>
      <trkpt lat="43.75942" lon="6.2868">
        <ele>1073.45</ele>
        <time>2013-10-02T13:59:19Z</time>
      </trkpt>
      <trkpt lat="43.75932" lon="6.28689">
        <ele>1073.45</ele>
        <time>2013-10-02T13:59:20Z</time>
      </trkpt>
      <trkpt lat="43.75925" lon="6.28698">
        <ele>1071.53</ele>
        <time>2013-10-02T13:59:21Z</time>
      </trkpt>
      <trkpt lat="43.7592" lon="6.28708">
        <ele>1070.57</ele>
        <time>2013-10-02T13:59:22Z</time>
      </trkpt>
      <trkpt lat="43.75918" lon="6.28719">
        <ele>1069.6</ele>
        <time>2013-10-02T13:59:23Z</time>
      </trkpt>
      <trkpt lat="43.75919" lon="6.28731">
        <ele>1069.12</ele>
        <time>2013-10-02T13:59:24Z</time>
      </trkpt>
      <trkpt lat="43.75923" lon="6.28743">
        <ele>1068.64</ele>
        <time>2013-10-02T13:59:25Z</time>
      </trkpt>
      <trkpt lat="43.75947" lon="6.28815">
        <ele>1065.28</ele>
        <time>2013-10-02T13:59:31Z</time>
      </trkpt>
      <trkpt lat="43.75947" lon="6.28828">
        <ele>1065.28</ele>
        <time>2013-10-02T13:59:32Z</time>
      </trkpt>
      <trkpt lat="43.75945" lon="6.28842">
        <ele>1064.8</ele>
        <time>2013-10-02T13:59:33Z</time>
      </trkpt>
      <trkpt lat="43.7594" lon="6.28855">
        <ele>1063.84</ele>
        <time>2013-10-02T13:59:34Z</time>
      </trkpt>
      <trkpt lat="43.75934" lon="6.28866">
        <ele>1062.87</ele>
        <time>2013-10-02T13:59:35Z</time>
      </trkpt>
      <trkpt lat="43.75926" lon="6.28876">
        <ele>1061.91</ele>
        <time>2013-10-02T13:59:36Z</time>
      </trkpt>
      <trkpt lat="43.75917" lon="6.28885">
        <ele>1061.91</ele>
        <time>2013-10-02T13:59:37Z</time>
      </trkpt>
      <trkpt lat="43.75901" lon="6.28903">
        <ele>1059.99</ele>
        <time>2013-10-02T13:59:39Z</time>
      </trkpt>
      <trkpt lat="43.75895" lon="6.28914">
        <ele>1059.03</ele>
        <time>2013-10-02T13:59:40Z</time>
      </trkpt>
      <trkpt lat="43.75891" lon="6.28927">
        <ele>1059.03</ele>
        <time>2013-10-02T13:59:41Z</time>
      </trkpt>
      <trkpt lat="43.75891" lon="6.28941">
        <ele>1058.55</ele>
        <time>2013-10-02T13:59:42Z</time>
      </trkpt>
      <trkpt lat="43.75893" lon="6.28955">
        <ele>1058.07</ele>
        <time>2013-10-02T13:59:43Z</time>
      </trkpt>
      <trkpt lat="43.75895" lon="6.28968">
        <ele>1058.55</ele>
        <time>2013-10-02T13:59:44Z</time>
      </trkpt>
      <trkpt lat="43.75895" lon="6.28982">
        <ele>1058.07</ele>
        <time>2013-10-02T13:59:45Z</time>
      </trkpt>
      <trkpt lat="43.75894" lon="6.28995">
        <ele>1057.11</ele>
        <time>2013-10-02T13:59:46Z</time>
      </trkpt>
      <trkpt lat="43.7589" lon="6.29008">
        <ele>1056.15</ele>
        <time>2013-10-02T13:59:47Z</time>
      </trkpt>
      <trkpt lat="43.75884" lon="6.29019">
        <ele>1055.18</ele>
        <time>2013-10-02T13:59:48Z</time>
      </trkpt>
      <trkpt lat="43.75878" lon="6.2903">
        <ele>1054.7</ele>
        <time>2013-10-02T13:59:49Z</time>
      </trkpt>
      <trkpt lat="43.7587" lon="6.2904">
        <ele>1054.22</ele>
        <time>2013-10-02T13:59:50Z</time>
      </trkpt>
      <trkpt lat="43.75833" lon="6.29093">
        <ele>1050.86</ele>
        <time>2013-10-02T13:59:55Z</time>
      </trkpt>
      <trkpt lat="43.75818" lon="6.29113">
        <ele>1049.9</ele>
        <time>2013-10-02T13:59:57Z</time>
      </trkpt>
      <trkpt lat="43.75802" lon="6.29131">
        <ele>1048.45</ele>
        <time>2013-10-02T13:59:59Z</time>
      </trkpt>
      <trkpt lat="43.75793" lon="6.29137">
        <ele>1048.45</ele>
        <time>2013-10-02T14:00:00Z</time>
      </trkpt>
      <trkpt lat="43.75786" lon="6.29143">
        <ele>1047.97</ele>
        <time>2013-10-02T14:00:01Z</time>
      </trkpt>
      <trkpt lat="43.75781" lon="6.2915">
        <ele>1047.97</ele>
        <time>2013-10-02T14:00:02Z</time>
      </trkpt>
      <trkpt lat="43.75779" lon="6.2916">
        <ele>1047.49</ele>
        <time>2013-10-02T14:00:03Z</time>
      </trkpt>
      <trkpt lat="43.7578" lon="6.29169">
        <ele>1047.01</ele>
        <time>2013-10-02T14:00:04Z</time>
      </trkpt>
      <trkpt lat="43.75783" lon="6.29178">
        <ele>1047.01</ele>
        <time>2013-10-02T14:00:05Z</time>
      </trkpt>
      <trkpt lat="43.75786" lon="6.29187">
        <ele>1047.01</ele>
        <time>2013-10-02T14:00:06Z</time>
      </trkpt>
      <trkpt lat="43.75799" lon="6.29217">
        <ele>1045.09</ele>
        <time>2013-10-02T14:00:09Z</time>
      </trkpt>
      <trkpt lat="43.75811" lon="6.29237">
        <ele>1044.61</ele>
        <time>2013-10-02T14:00:11Z</time>
      </trkpt>
      <trkpt lat="43.75818" lon="6.29244">
        <ele>1044.13</ele>
        <time>2013-10-02T14:00:12Z</time>
      </trkpt>
      <trkpt lat="43.75826" lon="6.29251">
        <ele>1043.17</ele>
        <time>2013-10-02T14:00:13Z</time>
      </trkpt>
      <trkpt lat="43.75874" lon="6.29286">
        <ele>1039.32</ele>
        <time>2013-10-02T14:00:18Z</time>
      </trkpt>
      <trkpt lat="43.75881" lon="6.29296">
        <ele>1038.36</ele>
        <time>2013-10-02T14:00:19Z</time>
      </trkpt>
      <trkpt lat="43.75886" lon="6.29308">
        <ele>1037.4</ele>
        <time>2013-10-02T14:00:20Z</time>
      </trkpt>
      <trkpt lat="43.7589" lon="6.29323">
        <ele>1036.92</ele>
        <time>2013-10-02T14:00:21Z</time>
      </trkpt>
      <trkpt lat="43.7589" lon="6.29338">
        <ele>1035.96</ele>
        <time>2013-10-02T14:00:22Z</time>
      </trkpt>
      <trkpt lat="43.75887" lon="6.29353">
        <ele>1035.48</ele>
        <time>2013-10-02T14:00:23Z</time>
      </trkpt>
      <trkpt lat="43.75881" lon="6.29367">
        <ele>1035</ele>
        <time>2013-10-02T14:00:24Z</time>
      </trkpt>
      <trkpt lat="43.75875" lon="6.2938">
        <ele>1034.04</ele>
        <time>2013-10-02T14:00:25Z</time>
      </trkpt>
      <trkpt lat="43.75862" lon="6.29406">
        <ele>1033.07</ele>
        <time>2013-10-02T14:00:27Z</time>
      </trkpt>
      <trkpt lat="43.75855" lon="6.29418">
        <ele>1031.63</ele>
        <time>2013-10-02T14:00:28Z</time>
      </trkpt>
      <trkpt lat="43.75847" lon="6.2943">
        <ele>1030.67</ele>
        <time>2013-10-02T14:00:29Z</time>
      </trkpt>
      <trkpt lat="43.75838" lon="6.29441">
        <ele>1030.19</ele>
        <time>2013-10-02T14:00:30Z</time>
      </trkpt>
      <trkpt lat="43.75828" lon="6.29451">
        <ele>1029.71</ele>
        <time>2013-10-02T14:00:31Z</time>
      </trkpt>
      <trkpt lat="43.75798" lon="6.29481">
        <ele>1026.83</ele>
        <time>2013-10-02T14:00:34Z</time>
      </trkpt>
      <trkpt lat="43.75767" lon="6.29505">
        <ele>1023.46</ele>
        <time>2013-10-02T14:00:37Z</time>
      </trkpt>
      <trkpt lat="43.75757" lon="6.29508">
        <ele>1022.5</ele>
        <time>2013-10-02T14:00:38Z</time>
      </trkpt>
      <trkpt lat="43.75746" lon="6.29506">
        <ele>1022.5</ele>
        <time>2013-10-02T14:00:39Z</time>
      </trkpt>
      <trkpt lat="43.75726" lon="6.29501">
        <ele>1020.58</ele>
        <time>2013-10-02T14:00:41Z</time>
      </trkpt>
      <trkpt lat="43.75716" lon="6.29504">
        <ele>1019.62</ele>
        <time>2013-10-02T14:00:42Z</time>
      </trkpt>
      <trkpt lat="43.75706" lon="6.29511">
        <ele>1019.62</ele>
        <time>2013-10-02T14:00:43Z</time>
      </trkpt>
      <trkpt lat="43.75698" lon="6.29521">
        <ele>1018.65</ele>
        <time>2013-10-02T14:00:44Z</time>
      </trkpt>
      <trkpt lat="43.75691" lon="6.29533">
        <ele>1017.21</ele>
        <time>2013-10-02T14:00:45Z</time>
      </trkpt>
      <trkpt lat="43.75655" lon="6.29598">
        <ele>1013.85</ele>
        <time>2013-10-02T14:00:50Z</time>
      </trkpt>
      <trkpt lat="43.75617" lon="6.29664">
        <ele>1009.52</ele>
        <time>2013-10-02T14:00:55Z</time>
      </trkpt>
      <trkpt lat="43.75609" lon="6.29677">
        <ele>1008.56</ele>
        <time>2013-10-02T14:00:56Z</time>
      </trkpt>
      <trkpt lat="43.75599" lon="6.29688">
        <ele>1008.08</ele>
        <time>2013-10-02T14:00:57Z</time>
      </trkpt>
      <trkpt lat="43.75576" lon="6.29715">
        <ele>1003.75</ele>
        <time>2013-10-02T14:01:00Z</time>
      </trkpt>
      <trkpt lat="43.75572" lon="6.29724">
        <ele>1003.27</ele>
        <time>2013-10-02T14:01:01Z</time>
      </trkpt>
      <trkpt lat="43.75572" lon="6.29734">
        <ele>1002.79</ele>
        <time>2013-10-02T14:01:02Z</time>
      </trkpt>
      <trkpt lat="43.75575" lon="6.29745">
        <ele>1002.31</ele>
        <time>2013-10-02T14:01:03Z</time>
      </trkpt>
      <trkpt lat="43.7558" lon="6.29754">
        <ele>1002.31</ele>
        <time>2013-10-02T14:01:04Z</time>
      </trkpt>
      <trkpt lat="43.75586" lon="6.29764">
        <ele>1001.83</ele>
        <time>2013-10-02T14:01:05Z</time>
      </trkpt>
      <trkpt lat="43.75597" lon="6.29785">
        <ele>999.91</ele>
        <time>2013-10-02T14:01:07Z</time>
      </trkpt>
      <trkpt lat="43.75601" lon="6.29798">
        <ele>998.95</ele>
        <time>2013-10-02T14:01:08Z</time>
      </trkpt>
      <trkpt lat="43.75603" lon="6.29812">
        <ele>998.47</ele>
        <time>2013-10-02T14:01:09Z</time>
      </trkpt>
      <trkpt lat="43.75606" lon="6.29855">
        <ele>996.54</ele>
        <time>2013-10-02T14:01:12Z</time>
      </trkpt>
      <trkpt lat="43.75605" lon="6.2987">
        <ele>996.54</ele>
        <time>2013-10-02T14:01:13Z</time>
      </trkpt>
      <trkpt lat="43.75603" lon="6.29885">
        <ele>995.58</ele>
        <time>2013-10-02T14:01:14Z</time>
      </trkpt>
      <trkpt lat="43.756" lon="6.29899">
        <ele>994.62</ele>
        <time>2013-10-02T14:01:15Z</time>
      </trkpt>
      <trkpt lat="43.75596" lon="6.29913">
        <ele>994.14</ele>
        <time>2013-10-02T14:01:16Z</time>
      </trkpt>
      <trkpt lat="43.75591" lon="6.29927">
        <ele>993.66</ele>
        <time>2013-10-02T14:01:17Z</time>
      </trkpt>
      <trkpt lat="43.75586" lon="6.2994">
        <ele>993.18</ele>
        <time>2013-10-02T14:01:18Z</time>
      </trkpt>
      <trkpt lat="43.75575" lon="6.29967">
        <ele>989.81</ele>
        <time>2013-10-02T14:01:20Z</time>
      </trkpt>
      <trkpt lat="43.75569" lon="6.29981">
        <ele>989.81</ele>
        <time>2013-10-02T14:01:21Z</time>
      </trkpt>
      <trkpt lat="43.75557" lon="6.30007">
        <ele>987.41</ele>
        <time>2013-10-02T14:01:23Z</time>
      </trkpt>
      <trkpt lat="43.75541" lon="6.30032">
        <ele>986.45</ele>
        <time>2013-10-02T14:01:25Z</time>
      </trkpt>
      <trkpt lat="43.75516" lon="6.3007">
        <ele>983.09</ele>
        <time>2013-10-02T14:01:28Z</time>
      </trkpt>
      <trkpt lat="43.75506" lon="6.30081">
        <ele>982.12</ele>
        <time>2013-10-02T14:01:29Z</time>
      </trkpt>
      <trkpt lat="43.75496" lon="6.30092">
        <ele>981.16</ele>
        <time>2013-10-02T14:01:30Z</time>
      </trkpt>
      <trkpt lat="43.75487" lon="6.30105">
        <ele>979.24</ele>
        <time>2013-10-02T14:01:31Z</time>
      </trkpt>
      <trkpt lat="43.75479" lon="6.3012">
        <ele>978.76</ele>
        <time>2013-10-02T14:01:32Z</time>
      </trkpt>
      <trkpt lat="43.75473" lon="6.30136">
        <ele>977.32</ele>
        <time>2013-10-02T14:01:33Z</time>
      </trkpt>
      <trkpt lat="43.75452" lon="6.30185">
        <ele>974.43</ele>
        <time>2013-10-02T14:01:36Z</time>
      </trkpt>
      <trkpt lat="43.75425" lon="6.30228">
        <ele>971.07</ele>
        <time>2013-10-02T14:01:39Z</time>
      </trkpt>
      <trkpt lat="43.75416" lon="6.3024">
        <ele>969.63</ele>
        <time>2013-10-02T14:01:40Z</time>
      </trkpt>
      <trkpt lat="43.75407" lon="6.30249">
        <ele>967.7</ele>
        <time>2013-10-02T14:01:41Z</time>
      </trkpt>
      <trkpt lat="43.75388" lon="6.30271">
        <ele>964.82</ele>
        <time>2013-10-02T14:01:44Z</time>
      </trkpt>
      <trkpt lat="43.75385" lon="6.3028">
        <ele>964.34</ele>
        <time>2013-10-02T14:01:45Z</time>
      </trkpt>
      <trkpt lat="43.75386" lon="6.30289">
        <ele>963.86</ele>
        <time>2013-10-02T14:01:46Z</time>
      </trkpt>
      <trkpt lat="43.75389" lon="6.30298">
        <ele>963.86</ele>
        <time>2013-10-02T14:01:47Z</time>
      </trkpt>
      <trkpt lat="43.75395" lon="6.30304">
        <ele>963.38</ele>
        <time>2013-10-02T14:01:48Z</time>
      </trkpt>
      <trkpt lat="43.75401" lon="6.30307">
        <ele>962.9</ele>
        <time>2013-10-02T14:01:49Z</time>
      </trkpt>
      <trkpt lat="43.75408" lon="6.30304">
        <ele>962.42</ele>
        <time>2013-10-02T14:01:50Z</time>
      </trkpt>
      <trkpt lat="43.75414" lon="6.30297">
        <ele>961.94</ele>
        <time>2013-10-02T14:01:51Z</time>
      </trkpt>
      <trkpt lat="43.75418" lon="6.30289">
        <ele>961.94</ele>
        <time>2013-10-02T14:01:52Z</time>
      </trkpt>
      <trkpt lat="43.75423" lon="6.30281">
        <ele>961.46</ele>
        <time>2013-10-02T14:01:53Z</time>
      </trkpt>
      <trkpt lat="43.75428" lon="6.30272">
        <ele>961.46</ele>
        <time>2013-10-02T14:01:54Z</time>
      </trkpt>
      <trkpt lat="43.75439" lon="6.30256">
        <ele>960.49</ele>
        <time>2013-10-02T14:01:56Z</time>
      </trkpt>
      <trkpt lat="43.75446" lon="6.30249">
        <ele>960.49</ele>
        <time>2013-10-02T14:01:57Z</time>
      </trkpt>
      <trkpt lat="43.75454" lon="6.30244">
        <ele>960.01</ele>
        <time>2013-10-02T14:01:58Z</time>
      </trkpt>
      <trkpt lat="43.75461" lon="6.3024">
        <ele>960.49</ele>
        <time>2013-10-02T14:01:59Z</time>
      </trkpt>
      <trkpt lat="43.75469" lon="6.30235">
        <ele>959.53</ele>
        <time>2013-10-02T14:02:00Z</time>
      </trkpt>
      <trkpt lat="43.75526" lon="6.30201">
        <ele>957.61</ele>
        <time>2013-10-02T14:02:07Z</time>
      </trkpt>
      <trkpt lat="43.75534" lon="6.30194">
        <ele>957.61</ele>
        <time>2013-10-02T14:02:08Z</time>
      </trkpt>
      <trkpt lat="43.7554" lon="6.30186">
        <ele>956.65</ele>
        <time>2013-10-02T14:02:09Z</time>
      </trkpt>
      <trkpt lat="43.75552" lon="6.30168">
        <ele>956.17</ele>
        <time>2013-10-02T14:02:11Z</time>
      </trkpt>
      <trkpt lat="43.75563" lon="6.30147">
        <ele>955.69</ele>
        <time>2013-10-02T14:02:13Z</time>
      </trkpt>
      <trkpt lat="43.75566" lon="6.30136">
        <ele>955.21</ele>
        <time>2013-10-02T14:02:14Z</time>
      </trkpt>
      <trkpt lat="43.75569" lon="6.30124">
        <ele>954.73</ele>
        <time>2013-10-02T14:02:15Z</time>
      </trkpt>
      <trkpt lat="43.75571" lon="6.30114">
        <ele>954.73</ele>
        <time>2013-10-02T14:02:16Z</time>
      </trkpt>
      <trkpt lat="43.75574" lon="6.30105">
        <ele>953.28</ele>
        <time>2013-10-02T14:02:17Z</time>
      </trkpt>
      <trkpt lat="43.75579" lon="6.30098">
        <ele>952.8</ele>
        <time>2013-10-02T14:02:18Z</time>
      </trkpt>
      <trkpt lat="43.75586" lon="6.30097">
        <ele>952.8</ele>
        <time>2013-10-02T14:02:19Z</time>
      </trkpt>
      <trkpt lat="43.75593" lon="6.30101">
        <ele>952.8</ele>
        <time>2013-10-02T14:02:20Z</time>
      </trkpt>
      <trkpt lat="43.75598" lon="6.3011">
        <ele>952.32</ele>
        <time>2013-10-02T14:02:21Z</time>
      </trkpt>
      <trkpt lat="43.756" lon="6.30121">
        <ele>951.84</ele>
        <time>2013-10-02T14:02:22Z</time>
      </trkpt>
      <trkpt lat="43.75598" lon="6.30132">
        <ele>951.84</ele>
        <time>2013-10-02T14:02:23Z</time>
      </trkpt>
      <trkpt lat="43.75594" lon="6.30141">
        <ele>951.84</ele>
        <time>2013-10-02T14:02:24Z</time>
      </trkpt>
      <trkpt lat="43.75589" lon="6.30148">
        <ele>952.32</ele>
        <time>2013-10-02T14:02:25Z</time>
      </trkpt>
      <trkpt lat="43.75584" lon="6.30156">
        <ele>951.36</ele>
        <time>2013-10-02T14:02:26Z</time>
      </trkpt>
      <trkpt lat="43.75579" lon="6.30165">
        <ele>950.4</ele>
        <time>2013-10-02T14:02:27Z</time>
      </trkpt>
      <trkpt lat="43.75576" lon="6.30174">
        <ele>950.4</ele>
        <time>2013-10-02T14:02:28Z</time>
      </trkpt>
      <trkpt lat="43.75572" lon="6.30183">
        <ele>950.4</ele>
        <time>2013-10-02T14:02:29Z</time>
      </trkpt>
      <trkpt lat="43.75569" lon="6.30193">
        <ele>950.4</ele>
        <time>2013-10-02T14:02:30Z</time>
      </trkpt>
      <trkpt lat="43.75544" lon="6.30269">
        <ele>947.04</ele>
        <time>2013-10-02T14:02:37Z</time>
      </trkpt>
      <trkpt lat="43.75537" lon="6.30279">
        <ele>946.07</ele>
        <time>2013-10-02T14:02:38Z</time>
      </trkpt>
      <trkpt lat="43.7553" lon="6.30288">
        <ele>945.11</ele>
        <time>2013-10-02T14:02:39Z</time>
      </trkpt>
      <trkpt lat="43.75492" lon="6.30334">
        <ele>942.23</ele>
        <time>2013-10-02T14:02:44Z</time>
      </trkpt>
      <trkpt lat="43.75487" lon="6.30347">
        <ele>941.75</ele>
        <time>2013-10-02T14:02:45Z</time>
      </trkpt>
      <trkpt lat="43.75483" lon="6.30361">
        <ele>941.27</ele>
        <time>2013-10-02T14:02:46Z</time>
      </trkpt>
      <trkpt lat="43.7548" lon="6.30375">
        <ele>940.79</ele>
        <time>2013-10-02T14:02:47Z</time>
      </trkpt>
      <trkpt lat="43.75478" lon="6.3039">
        <ele>939.83</ele>
        <time>2013-10-02T14:02:48Z</time>
      </trkpt>
      <trkpt lat="43.7547" lon="6.30453">
        <ele>936.46</ele>
        <time>2013-10-02T14:02:52Z</time>
      </trkpt>
      <trkpt lat="43.75467" lon="6.30468">
        <ele>935.5</ele>
        <time>2013-10-02T14:02:53Z</time>
      </trkpt>
      <trkpt lat="43.75463" lon="6.30483">
        <ele>935.02</ele>
        <time>2013-10-02T14:02:54Z</time>
      </trkpt>
      <trkpt lat="43.75458" lon="6.30496">
        <ele>933.1</ele>
        <time>2013-10-02T14:02:55Z</time>
      </trkpt>
      <trkpt lat="43.75452" lon="6.3051">
        <ele>932.62</ele>
        <time>2013-10-02T14:02:56Z</time>
      </trkpt>
      <trkpt lat="43.75433" lon="6.30552">
        <ele>931.17</ele>
        <time>2013-10-02T14:02:59Z</time>
      </trkpt>
      <trkpt lat="43.75428" lon="6.30568">
        <ele>930.21</ele>
        <time>2013-10-02T14:03:00Z</time>
      </trkpt>
      <trkpt lat="43.75425" lon="6.30585">
        <ele>928.77</ele>
        <time>2013-10-02T14:03:01Z</time>
      </trkpt>
      <trkpt lat="43.75424" lon="6.30603">
        <ele>928.29</ele>
        <time>2013-10-02T14:03:02Z</time>
      </trkpt>
      <trkpt lat="43.75423" lon="6.30621">
        <ele>927.81</ele>
        <time>2013-10-02T14:03:03Z</time>
      </trkpt>
      <trkpt lat="43.75418" lon="6.30692">
        <ele>923.96</ele>
        <time>2013-10-02T14:03:07Z</time>
      </trkpt>
      <trkpt lat="43.7541" lon="6.30781">
        <ele>919.16</ele>
        <time>2013-10-02T14:03:12Z</time>
      </trkpt>
      <trkpt lat="43.75405" lon="6.30797">
        <ele>918.2</ele>
        <time>2013-10-02T14:03:13Z</time>
      </trkpt>
      <trkpt lat="43.75399" lon="6.30812">
        <ele>918.2</ele>
        <time>2013-10-02T14:03:14Z</time>
      </trkpt>
      <trkpt lat="43.75381" lon="6.30855">
        <ele>915.79</ele>
        <time>2013-10-02T14:03:17Z</time>
      </trkpt>
      <trkpt lat="43.75378" lon="6.30869">
        <ele>914.83</ele>
        <time>2013-10-02T14:03:18Z</time>
      </trkpt>
      <trkpt lat="43.75378" lon="6.30884">
        <ele>913.87</ele>
        <time>2013-10-02T14:03:19Z</time>
      </trkpt>
      <trkpt lat="43.7538" lon="6.309">
        <ele>912.91</ele>
        <time>2013-10-02T14:03:20Z</time>
      </trkpt>
      <trkpt lat="43.75384" lon="6.30915">
        <ele>911.47</ele>
        <time>2013-10-02T14:03:21Z</time>
      </trkpt>
      <trkpt lat="43.75388" lon="6.3093">
        <ele>910.99</ele>
        <time>2013-10-02T14:03:22Z</time>
      </trkpt>
      <trkpt lat="43.75395" lon="6.30962">
        <ele>910.51</ele>
        <time>2013-10-02T14:03:24Z</time>
      </trkpt>
      <trkpt lat="43.75399" lon="6.31014">
        <ele>907.62</ele>
        <time>2013-10-02T14:03:27Z</time>
      </trkpt>
      <trkpt lat="43.75401" lon="6.31048">
        <ele>906.18</ele>
        <time>2013-10-02T14:03:29Z</time>
      </trkpt>
      <trkpt lat="43.75402" lon="6.31083">
        <ele>904.74</ele>
        <time>2013-10-02T14:03:31Z</time>
      </trkpt>
      <trkpt lat="43.754" lon="6.31135">
        <ele>901.37</ele>
        <time>2013-10-02T14:03:34Z</time>
      </trkpt>
      <trkpt lat="43.75398" lon="6.31152">
        <ele>901.37</ele>
        <time>2013-10-02T14:03:35Z</time>
      </trkpt>
      <trkpt lat="43.75392" lon="6.31186">
        <ele>899.45</ele>
        <time>2013-10-02T14:03:37Z</time>
      </trkpt>
      <trkpt lat="43.75383" lon="6.31219">
        <ele>898.97</ele>
        <time>2013-10-02T14:03:39Z</time>
      </trkpt>
      <trkpt lat="43.75374" lon="6.3125">
        <ele>896.09</ele>
        <time>2013-10-02T14:03:41Z</time>
      </trkpt>
      <trkpt lat="43.75367" lon="6.31261">
        <ele>894.64</ele>
        <time>2013-10-02T14:03:42Z</time>
      </trkpt>
      <trkpt lat="43.75358" lon="6.3127">
        <ele>895.12</ele>
        <time>2013-10-02T14:03:43Z</time>
      </trkpt>
      <trkpt lat="43.75348" lon="6.31275">
        <ele>895.12</ele>
        <time>2013-10-02T14:03:44Z</time>
      </trkpt>
      <trkpt lat="43.75338" lon="6.31278">
        <ele>895.12</ele>
        <time>2013-10-02T14:03:45Z</time>
      </trkpt>
      <trkpt lat="43.75328" lon="6.3128">
        <ele>895.61</ele>
        <time>2013-10-02T14:03:46Z</time>
      </trkpt>
      <trkpt lat="43.75298" lon="6.31292">
        <ele>892.24</ele>
        <time>2013-10-02T14:03:49Z</time>
      </trkpt>
      <trkpt lat="43.75265" lon="6.31305">
        <ele>889.36</ele>
        <time>2013-10-02T14:03:52Z</time>
      </trkpt>
      <trkpt lat="43.75247" lon="6.31315">
        <ele>885.99</ele>
        <time>2013-10-02T14:03:54Z</time>
      </trkpt>
      <trkpt lat="43.75241" lon="6.31321">
        <ele>884.55</ele>
        <time>2013-10-02T14:03:55Z</time>
      </trkpt>
      <trkpt lat="43.75238" lon="6.31329">
        <ele>884.55</ele>
        <time>2013-10-02T14:03:56Z</time>
      </trkpt>
      <trkpt lat="43.75238" lon="6.31339">
        <ele>884.55</ele>
        <time>2013-10-02T14:03:57Z</time>
      </trkpt>
      <trkpt lat="43.75242" lon="6.31348">
        <ele>883.59</ele>
        <time>2013-10-02T14:03:58Z</time>
      </trkpt>
      <trkpt lat="43.75248" lon="6.31356">
        <ele>882.63</ele>
        <time>2013-10-02T14:03:59Z</time>
      </trkpt>
      <trkpt lat="43.75253" lon="6.31364">
        <ele>882.15</ele>
        <time>2013-10-02T14:04:00Z</time>
      </trkpt>
      <trkpt lat="43.75258" lon="6.31374">
        <ele>881.67</ele>
        <time>2013-10-02T14:04:01Z</time>
      </trkpt>
      <trkpt lat="43.75261" lon="6.31385">
        <ele>881.67</ele>
        <time>2013-10-02T14:04:02Z</time>
      </trkpt>
      <trkpt lat="43.75259" lon="6.31397">
        <ele>879.74</ele>
        <time>2013-10-02T14:04:03Z</time>
      </trkpt>
      <trkpt lat="43.75255" lon="6.31409">
        <ele>879.26</ele>
        <time>2013-10-02T14:04:04Z</time>
      </trkpt>
      <trkpt lat="43.75248" lon="6.31418">
        <ele>879.74</ele>
        <time>2013-10-02T14:04:05Z</time>
      </trkpt>
      <trkpt lat="43.75242" lon="6.31428">
        <ele>878.78</ele>
        <time>2013-10-02T14:04:06Z</time>
      </trkpt>
      <trkpt lat="43.75221" lon="6.3146">
        <ele>876.86</ele>
        <time>2013-10-02T14:04:09Z</time>
      </trkpt>
      <trkpt lat="43.75215" lon="6.31472">
        <ele>876.38</ele>
        <time>2013-10-02T14:04:10Z</time>
      </trkpt>
      <trkpt lat="43.75208" lon="6.31484">
        <ele>874.94</ele>
        <time>2013-10-02T14:04:11Z</time>
      </trkpt>
      <trkpt lat="43.75186" lon="6.31539">
        <ele>871.09</ele>
        <time>2013-10-02T14:04:15Z</time>
      </trkpt>
      <trkpt lat="43.7518" lon="6.31553">
        <ele>871.09</ele>
        <time>2013-10-02T14:04:16Z</time>
      </trkpt>
      <trkpt lat="43.75148" lon="6.31606">
        <ele>867.73</ele>
        <time>2013-10-02T14:04:20Z</time>
      </trkpt>
      <trkpt lat="43.75133" lon="6.31627">
        <ele>865.32</ele>
        <time>2013-10-02T14:04:22Z</time>
      </trkpt>
      <trkpt lat="43.75128" lon="6.31641">
        <ele>863.4</ele>
        <time>2013-10-02T14:04:23Z</time>
      </trkpt>
      <trkpt lat="43.75125" lon="6.31656">
        <ele>862.92</ele>
        <time>2013-10-02T14:04:24Z</time>
      </trkpt>
      <trkpt lat="43.75121" lon="6.31723">
        <ele>859.08</ele>
        <time>2013-10-02T14:04:28Z</time>
      </trkpt>
      <trkpt lat="43.75121" lon="6.3174">
        <ele>858.59</ele>
        <time>2013-10-02T14:04:29Z</time>
      </trkpt>
      <trkpt lat="43.75125" lon="6.31814">
        <ele>854.75</ele>
        <time>2013-10-02T14:04:33Z</time>
      </trkpt>
      <trkpt lat="43.7513" lon="6.3187">
        <ele>851.87</ele>
        <time>2013-10-02T14:04:36Z</time>
      </trkpt>
      <trkpt lat="43.75129" lon="6.31947">
        <ele>847.54</ele>
        <time>2013-10-02T14:04:40Z</time>
      </trkpt>
      <trkpt lat="43.75123" lon="6.32024">
        <ele>843.69</ele>
        <time>2013-10-02T14:04:44Z</time>
      </trkpt>
      <trkpt lat="43.75116" lon="6.32098">
        <ele>841.29</ele>
        <time>2013-10-02T14:04:48Z</time>
      </trkpt>
      <trkpt lat="43.75113" lon="6.32114">
        <ele>841.29</ele>
        <time>2013-10-02T14:04:49Z</time>
      </trkpt>
      <trkpt lat="43.75106" lon="6.32127">
        <ele>841.77</ele>
        <time>2013-10-02T14:04:50Z</time>
      </trkpt>
      <trkpt lat="43.75098" lon="6.32137">
        <ele>842.25</ele>
        <time>2013-10-02T14:04:51Z</time>
      </trkpt>
      <trkpt lat="43.75089" lon="6.32143">
        <ele>842.73</ele>
        <time>2013-10-02T14:04:52Z</time>
      </trkpt>
      <trkpt lat="43.75081" lon="6.32146">
        <ele>843.21</ele>
        <time>2013-10-02T14:04:53Z</time>
      </trkpt>
      <trkpt lat="43.75072" lon="6.32146">
        <ele>843.69</ele>
        <time>2013-10-02T14:04:54Z</time>
      </trkpt>
      <trkpt lat="43.75065" lon="6.32145">
        <ele>844.18</ele>
        <time>2013-10-02T14:04:55Z</time>
      </trkpt>
      <trkpt lat="43.75061" lon="6.32144">
        <ele>843.21</ele>
        <time>2013-10-02T14:04:56Z</time>
      </trkpt>
      <trkpt lat="43.75058" lon="6.32145">
        <ele>843.69</ele>
        <time>2013-10-02T14:04:57Z</time>
      </trkpt>
      <trkpt lat="43.75056" lon="6.32144">
        <ele>843.69</ele>
        <time>2013-10-02T14:04:58Z</time>
      </trkpt>
      <trkpt lat="43.75055" lon="6.32144">
        <ele>844.66</ele>
        <time>2013-10-02T14:04:59Z</time>
      </trkpt>
      <trkpt lat="43.75054" lon="6.32142">
        <ele>844.66</ele>
        <time>2013-10-02T14:05:09Z</time>
      </trkpt>
      <trkpt lat="43.75053" lon="6.32141">
        <ele>843.69</ele>
        <time>2013-10-02T14:05:39Z</time>
      </trkpt>
      <trkpt lat="43.75052" lon="6.32139">
        <ele>844.18</ele>
        <time>2013-10-02T14:05:40Z</time>
      </trkpt>
      <trkpt lat="43.7505" lon="6.32135">
        <ele>844.18</ele>
        <time>2013-10-02T14:05:42Z</time>
      </trkpt>
      <trkpt lat="43.75028" lon="6.32111">
        <ele>841.29</ele>
        <time>2013-10-02T14:05:48Z</time>
      </trkpt>
      <trkpt lat="43.75021" lon="6.32108">
        <ele>841.77</ele>
        <time>2013-10-02T14:05:49Z</time>
      </trkpt>
      <trkpt lat="43.7499" lon="6.32096">
        <ele>839.37</ele>
        <time>2013-10-02T14:05:53Z</time>
      </trkpt>
      <trkpt lat="43.74981" lon="6.32095">
        <ele>838.41</ele>
        <time>2013-10-02T14:05:54Z</time>
      </trkpt>
      <trkpt lat="43.74972" lon="6.32098">
        <ele>836.96</ele>
        <time>2013-10-02T14:05:55Z</time>
      </trkpt>
      <trkpt lat="43.74965" lon="6.32104">
        <ele>836</ele>
        <time>2013-10-02T14:05:56Z</time>
      </trkpt>
      <trkpt lat="43.74961" lon="6.32114">
        <ele>835.52</ele>
        <time>2013-10-02T14:05:57Z</time>
      </trkpt>
      <trkpt lat="43.74959" lon="6.32125">
        <ele>836</ele>
        <time>2013-10-02T14:05:58Z</time>
      </trkpt>
      <trkpt lat="43.74959" lon="6.32136">
        <ele>836.48</ele>
        <time>2013-10-02T14:05:59Z</time>
      </trkpt>
      <trkpt lat="43.74958" lon="6.32146">
        <ele>836</ele>
        <time>2013-10-02T14:06:00Z</time>
      </trkpt>
      <trkpt lat="43.74955" lon="6.32155">
        <ele>836.48</ele>
        <time>2013-10-02T14:06:01Z</time>
      </trkpt>
      <trkpt lat="43.74949" lon="6.32161">
        <ele>837.45</ele>
        <time>2013-10-02T14:06:02Z</time>
      </trkpt>
      <trkpt lat="43.74943" lon="6.32165">
        <ele>836.96</ele>
        <time>2013-10-02T14:06:03Z</time>
      </trkpt>
      <trkpt lat="43.74937" lon="6.32168">
        <ele>837.45</ele>
        <time>2013-10-02T14:06:04Z</time>
      </trkpt>
      <trkpt lat="43.7493" lon="6.32169">
        <ele>837.93</ele>
        <time>2013-10-02T14:06:05Z</time>
      </trkpt>
      <trkpt lat="43.74924" lon="6.32171">
        <ele>837.93</ele>
        <time>2013-10-02T14:06:06Z</time>
      </trkpt>
      <trkpt lat="43.74912" lon="6.32173">
        <ele>838.41</ele>
        <time>2013-10-02T14:06:08Z</time>
      </trkpt>
      <trkpt lat="43.74892" lon="6.32172">
        <ele>838.41</ele>
        <time>2013-10-02T14:06:12Z</time>
      </trkpt>
      <trkpt lat="43.74887" lon="6.32173">
        <ele>838.89</ele>
        <time>2013-10-02T14:06:13Z</time>
      </trkpt>
      <trkpt lat="43.74874" lon="6.32181">
        <ele>838.89</ele>
        <time>2013-10-02T14:06:16Z</time>
      </trkpt>
      <trkpt lat="43.74853" lon="6.32196">
        <ele>840.33</ele>
        <time>2013-10-02T14:06:21Z</time>
      </trkpt>
      <trkpt lat="43.74849" lon="6.32198">
        <ele>840.81</ele>
        <time>2013-10-02T14:06:22Z</time>
      </trkpt>
      <trkpt lat="43.74845" lon="6.322">
        <ele>840.33</ele>
        <time>2013-10-02T14:06:23Z</time>
      </trkpt>
      <trkpt lat="43.7483" lon="6.32209">
        <ele>841.77</ele>
        <time>2013-10-02T14:06:27Z</time>
      </trkpt>
      <trkpt lat="43.74804" lon="6.32239">
        <ele>843.21</ele>
        <time>2013-10-02T14:06:36Z</time>
      </trkpt>
      <trkpt lat="43.7478" lon="6.32253">
        <ele>844.66</ele>
        <time>2013-10-02T14:06:44Z</time>
      </trkpt>
      <trkpt lat="43.74762" lon="6.32275">
        <ele>846.58</ele>
        <time>2013-10-02T14:06:52Z</time>
      </trkpt>
      <trkpt lat="43.74745" lon="6.32282">
        <ele>848.02</ele>
        <time>2013-10-02T14:06:58Z</time>
      </trkpt>
      <trkpt lat="43.74717" lon="6.32268">
        <ele>849.94</ele>
        <time>2013-10-02T14:07:09Z</time>
      </trkpt>
      <trkpt lat="43.74691" lon="6.32266">
        <ele>852.83</ele>
        <time>2013-10-02T14:07:18Z</time>
      </trkpt>
      <trkpt lat="43.74688" lon="6.32266">
        <ele>852.83</ele>
        <time>2013-10-02T14:07:19Z</time>
      </trkpt>
      <trkpt lat="43.74673" lon="6.32291">
        <ele>852.35</ele>
        <time>2013-10-02T14:07:26Z</time>
      </trkpt>
      <trkpt lat="43.74672" lon="6.32298">
        <ele>852.35</ele>
        <time>2013-10-02T14:07:27Z</time>
      </trkpt>
      <trkpt lat="43.74672" lon="6.32304">
        <ele>852.83</ele>
        <time>2013-10-02T14:07:28Z</time>
      </trkpt>
      <trkpt lat="43.74672" lon="6.32311">
        <ele>852.35</ele>
        <time>2013-10-02T14:07:29Z</time>
      </trkpt>
      <trkpt lat="43.74672" lon="6.32318">
        <ele>852.35</ele>
        <time>2013-10-02T14:07:30Z</time>
      </trkpt>
      <trkpt lat="43.7467" lon="6.32325">
        <ele>852.35</ele>
        <time>2013-10-02T14:07:31Z</time>
      </trkpt>
      <trkpt lat="43.74667" lon="6.32332">
        <ele>852.35</ele>
        <time>2013-10-02T14:07:32Z</time>
      </trkpt>
      <trkpt lat="43.74663" lon="6.32337">
        <ele>851.87</ele>
        <time>2013-10-02T14:07:33Z</time>
      </trkpt>
      <trkpt lat="43.74657" lon="6.32341">
        <ele>852.35</ele>
        <time>2013-10-02T14:07:34Z</time>
      </trkpt>
      <trkpt lat="43.7465" lon="6.32343">
        <ele>851.87</ele>
        <time>2013-10-02T14:07:35Z</time>
      </trkpt>
      <trkpt lat="43.74644" lon="6.32345">
        <ele>851.38</ele>
        <time>2013-10-02T14:07:36Z</time>
      </trkpt>
      <trkpt lat="43.7463" lon="6.32346">
        <ele>850.9</ele>
        <time>2013-10-02T14:07:38Z</time>
      </trkpt>
      <trkpt lat="43.74624" lon="6.32347">
        <ele>850.9</ele>
        <time>2013-10-02T14:07:39Z</time>
      </trkpt>
      <trkpt lat="43.74617" lon="6.32348">
        <ele>850.42</ele>
        <time>2013-10-02T14:07:40Z</time>
      </trkpt>
      <trkpt lat="43.74583" lon="6.32356">
        <ele>848.98</ele>
        <time>2013-10-02T14:07:45Z</time>
      </trkpt>
      <trkpt lat="43.74568" lon="6.32355">
        <ele>848.98</ele>
        <time>2013-10-02T14:07:47Z</time>
      </trkpt>
      <trkpt lat="43.74511" lon="6.32344">
        <ele>850.42</ele>
        <time>2013-10-02T14:07:56Z</time>
      </trkpt>
      <trkpt lat="43.74505" lon="6.32344">
        <ele>850.9</ele>
        <time>2013-10-02T14:07:57Z</time>
      </trkpt>
      <trkpt lat="43.74482" lon="6.3235">
        <ele>851.38</ele>
        <time>2013-10-02T14:08:01Z</time>
      </trkpt>
      <trkpt lat="43.74477" lon="6.32354">
        <ele>851.38</ele>
        <time>2013-10-02T14:08:02Z</time>
      </trkpt>
      <trkpt lat="43.74473" lon="6.32359">
        <ele>851.38</ele>
        <time>2013-10-02T14:08:03Z</time>
      </trkpt>
      <trkpt lat="43.74469" lon="6.32365">
        <ele>852.35</ele>
        <time>2013-10-02T14:08:04Z</time>
      </trkpt>
      <trkpt lat="43.74447" lon="6.32428">
        <ele>852.83</ele>
        <time>2013-10-02T14:08:13Z</time>
      </trkpt>
      <trkpt lat="43.74446" lon="6.32436">
        <ele>852.83</ele>
        <time>2013-10-02T14:08:14Z</time>
      </trkpt>
      <trkpt lat="43.74446" lon="6.32444">
        <ele>852.83</ele>
        <time>2013-10-02T14:08:15Z</time>
      </trkpt>
      <trkpt lat="43.74447" lon="6.32452">
        <ele>853.31</ele>
        <time>2013-10-02T14:08:16Z</time>
      </trkpt>
      <trkpt lat="43.7445" lon="6.32459">
        <ele>852.83</ele>
        <time>2013-10-02T14:08:17Z</time>
      </trkpt>
      <trkpt lat="43.74452" lon="6.32467">
        <ele>852.83</ele>
        <time>2013-10-02T14:08:18Z</time>
      </trkpt>
      <trkpt lat="43.74468" lon="6.32513">
        <ele>852.35</ele>
        <time>2013-10-02T14:08:24Z</time>
      </trkpt>
      <trkpt lat="43.74469" lon="6.32522">
        <ele>851.87</ele>
        <time>2013-10-02T14:08:25Z</time>
      </trkpt>
      <trkpt lat="43.74467" lon="6.3253">
        <ele>851.87</ele>
        <time>2013-10-02T14:08:26Z</time>
      </trkpt>
      <trkpt lat="43.74444" lon="6.32615">
        <ele>851.87</ele>
        <time>2013-10-02T14:08:36Z</time>
      </trkpt>
      <trkpt lat="43.74441" lon="6.32623">
        <ele>851.38</ele>
        <time>2013-10-02T14:08:37Z</time>
      </trkpt>
      <trkpt lat="43.74436" lon="6.32631">
        <ele>850.9</ele>
        <time>2013-10-02T14:08:38Z</time>
      </trkpt>
      <trkpt lat="43.74431" lon="6.32637">
        <ele>850.9</ele>
        <time>2013-10-02T14:08:39Z</time>
      </trkpt>
      <trkpt lat="43.74426" lon="6.32643">
        <ele>851.38</ele>
        <time>2013-10-02T14:08:40Z</time>
      </trkpt>
      <trkpt lat="43.7442" lon="6.32649">
        <ele>851.38</ele>
        <time>2013-10-02T14:08:41Z</time>
      </trkpt>
      <trkpt lat="43.7441" lon="6.3266">
        <ele>850.9</ele>
        <time>2013-10-02T14:08:43Z</time>
      </trkpt>
      <trkpt lat="43.74407" lon="6.32668">
        <ele>850.9</ele>
        <time>2013-10-02T14:08:44Z</time>
      </trkpt>
      <trkpt lat="43.74406" lon="6.32677">
        <ele>850.9</ele>
        <time>2013-10-02T14:08:45Z</time>
      </trkpt>
      <trkpt lat="43.74406" lon="6.32687">
        <ele>850.9</ele>
        <time>2013-10-02T14:08:46Z</time>
      </trkpt>
      <trkpt lat="43.74409" lon="6.32717">
        <ele>849.94</ele>
        <time>2013-10-02T14:08:49Z</time>
      </trkpt>
      <trkpt lat="43.74408" lon="6.32727">
        <ele>850.42</ele>
        <time>2013-10-02T14:08:50Z</time>
      </trkpt>
      <trkpt lat="43.74409" lon="6.32748">
        <ele>850.9</ele>
        <time>2013-10-02T14:08:52Z</time>
      </trkpt>
      <trkpt lat="43.74411" lon="6.32758">
        <ele>850.42</ele>
        <time>2013-10-02T14:08:53Z</time>
      </trkpt>
      <trkpt lat="43.74418" lon="6.32788">
        <ele>848.5</ele>
        <time>2013-10-02T14:08:56Z</time>
      </trkpt>
      <trkpt lat="43.74423" lon="6.32807">
        <ele>848.5</ele>
        <time>2013-10-02T14:08:58Z</time>
      </trkpt>
      <trkpt lat="43.74423" lon="6.32817">
        <ele>847.54</ele>
        <time>2013-10-02T14:08:59Z</time>
      </trkpt>
      <trkpt lat="43.7442" lon="6.32828">
        <ele>847.54</ele>
        <time>2013-10-02T14:09:00Z</time>
      </trkpt>
      <trkpt lat="43.74416" lon="6.32837">
        <ele>847.54</ele>
        <time>2013-10-02T14:09:01Z</time>
      </trkpt>
      <trkpt lat="43.74411" lon="6.32845">
        <ele>846.58</ele>
        <time>2013-10-02T14:09:02Z</time>
      </trkpt>
      <trkpt lat="43.74405" lon="6.32853">
        <ele>846.1</ele>
        <time>2013-10-02T14:09:03Z</time>
      </trkpt>
      <trkpt lat="43.744" lon="6.32862">
        <ele>845.62</ele>
        <time>2013-10-02T14:09:04Z</time>
      </trkpt>
      <trkpt lat="43.74398" lon="6.32873">
        <ele>845.62</ele>
        <time>2013-10-02T14:09:05Z</time>
      </trkpt>
      <trkpt lat="43.74398" lon="6.32884">
        <ele>845.14</ele>
        <time>2013-10-02T14:09:06Z</time>
      </trkpt>
      <trkpt lat="43.74401" lon="6.32894">
        <ele>844.66</ele>
        <time>2013-10-02T14:09:07Z</time>
      </trkpt>
      <trkpt lat="43.74405" lon="6.32904">
        <ele>845.14</ele>
        <time>2013-10-02T14:09:08Z</time>
      </trkpt>
      <trkpt lat="43.7441" lon="6.32912">
        <ele>845.62</ele>
        <time>2013-10-02T14:09:09Z</time>
      </trkpt>
      <trkpt lat="43.74416" lon="6.32931">
        <ele>845.62</ele>
        <time>2013-10-02T14:09:11Z</time>
      </trkpt>
      <trkpt lat="43.74417" lon="6.32941">
        <ele>845.62</ele>
        <time>2013-10-02T14:09:12Z</time>
      </trkpt>
      <trkpt lat="43.74415" lon="6.3295">
        <ele>845.14</ele>
        <time>2013-10-02T14:09:13Z</time>
      </trkpt>
      <trkpt lat="43.74407" lon="6.32997">
        <ele>846.58</ele>
        <time>2013-10-02T14:09:19Z</time>
      </trkpt>
      <trkpt lat="43.74404" lon="6.33003">
        <ele>847.06</ele>
        <time>2013-10-02T14:09:20Z</time>
      </trkpt>
      <trkpt lat="43.74401" lon="6.33009">
        <ele>847.06</ele>
        <time>2013-10-02T14:09:21Z</time>
      </trkpt>
      <trkpt lat="43.74385" lon="6.33032">
        <ele>848.02</ele>
        <time>2013-10-02T14:09:26Z</time>
      </trkpt>
      <trkpt lat="43.74383" lon="6.33037">
        <ele>848.5</ele>
        <time>2013-10-02T14:09:27Z</time>
      </trkpt>
      <trkpt lat="43.74381" lon="6.33043">
        <ele>848.5</ele>
        <time>2013-10-02T14:09:28Z</time>
      </trkpt>
      <trkpt lat="43.74381" lon="6.3305">
        <ele>848.5</ele>
        <time>2013-10-02T14:09:29Z</time>
      </trkpt>
      <trkpt lat="43.74382" lon="6.33056">
        <ele>848.5</ele>
        <time>2013-10-02T14:09:30Z</time>
      </trkpt>
      <trkpt lat="43.74384" lon="6.33063">
        <ele>848.98</ele>
        <time>2013-10-02T14:09:31Z</time>
      </trkpt>
      <trkpt lat="43.74384" lon="6.33071">
        <ele>848.5</ele>
        <time>2013-10-02T14:09:32Z</time>
      </trkpt>
      <trkpt lat="43.74383" lon="6.33079">
        <ele>848.02</ele>
        <time>2013-10-02T14:09:33Z</time>
      </trkpt>
      <trkpt lat="43.74381" lon="6.33087">
        <ele>848.02</ele>
        <time>2013-10-02T14:09:34Z</time>
      </trkpt>
      <trkpt lat="43.74377" lon="6.33094">
        <ele>848.02</ele>
        <time>2013-10-02T14:09:35Z</time>
      </trkpt>
      <trkpt lat="43.74373" lon="6.33101">
        <ele>848.02</ele>
        <time>2013-10-02T14:09:36Z</time>
      </trkpt>
      <trkpt lat="43.74368" lon="6.33108">
        <ele>847.54</ele>
        <time>2013-10-02T14:09:37Z</time>
      </trkpt>
      <trkpt lat="43.7436" lon="6.33121">
        <ele>848.02</ele>
        <time>2013-10-02T14:09:39Z</time>
      </trkpt>
      <trkpt lat="43.74358" lon="6.33129">
        <ele>847.54</ele>
        <time>2013-10-02T14:09:40Z</time>
      </trkpt>
      <trkpt lat="43.74356" lon="6.33138">
        <ele>847.06</ele>
        <time>2013-10-02T14:09:41Z</time>
      </trkpt>
      <trkpt lat="43.74351" lon="6.33167">
        <ele>846.1</ele>
        <time>2013-10-02T14:09:44Z</time>
      </trkpt>
      <trkpt lat="43.74348" lon="6.33177">
        <ele>845.62</ele>
        <time>2013-10-02T14:09:45Z</time>
      </trkpt>
      <trkpt lat="43.74345" lon="6.33187">
        <ele>845.62</ele>
        <time>2013-10-02T14:09:46Z</time>
      </trkpt>
      <trkpt lat="43.7433" lon="6.33227">
        <ele>843.69</ele>
        <time>2013-10-02T14:09:50Z</time>
      </trkpt>
      <trkpt lat="43.74312" lon="6.3328">
        <ele>842.25</ele>
        <time>2013-10-02T14:09:55Z</time>
      </trkpt>
      <trkpt lat="43.74309" lon="6.33292">
        <ele>841.29</ele>
        <time>2013-10-02T14:09:56Z</time>
      </trkpt>
      <trkpt lat="43.74307" lon="6.33303">
        <ele>840.81</ele>
        <time>2013-10-02T14:09:57Z</time>
      </trkpt>
      <trkpt lat="43.74305" lon="6.33315">
        <ele>840.33</ele>
        <time>2013-10-02T14:09:58Z</time>
      </trkpt>
      <trkpt lat="43.74298" lon="6.33363">
        <ele>838.89</ele>
        <time>2013-10-02T14:10:02Z</time>
      </trkpt>
      <trkpt lat="43.74295" lon="6.33375">
        <ele>838.41</ele>
        <time>2013-10-02T14:10:03Z</time>
      </trkpt>
      <trkpt lat="43.74278" lon="6.33421">
        <ele>836.48</ele>
        <time>2013-10-02T14:10:07Z</time>
      </trkpt>
      <trkpt lat="43.74261" lon="6.33469">
        <ele>833.6</ele>
        <time>2013-10-02T14:10:11Z</time>
      </trkpt>
      <trkpt lat="43.74239" lon="6.33533">
        <ele>831.2</ele>
        <time>2013-10-02T14:10:16Z</time>
      </trkpt>
      <trkpt lat="43.7422" lon="6.33602">
        <ele>827.35</ele>
        <time>2013-10-02T14:10:21Z</time>
      </trkpt>
      <trkpt lat="43.74217" lon="6.33617">
        <ele>827.35</ele>
        <time>2013-10-02T14:10:22Z</time>
      </trkpt>
      <trkpt lat="43.74204" lon="6.33694">
        <ele>823.51</ele>
        <time>2013-10-02T14:10:27Z</time>
      </trkpt>
      <trkpt lat="43.74183" lon="6.33753">
        <ele>820.62</ele>
        <time>2013-10-02T14:10:31Z</time>
      </trkpt>
      <trkpt lat="43.74169" lon="6.3378">
        <ele>819.18</ele>
        <time>2013-10-02T14:10:33Z</time>
      </trkpt>
      <trkpt lat="43.74146" lon="6.33817">
        <ele>816.3</ele>
        <time>2013-10-02T14:10:36Z</time>
      </trkpt>
      <trkpt lat="43.74138" lon="6.33831">
        <ele>815.82</ele>
        <time>2013-10-02T14:10:37Z</time>
      </trkpt>
      <trkpt lat="43.74132" lon="6.33845">
        <ele>815.34</ele>
        <time>2013-10-02T14:10:38Z</time>
      </trkpt>
      <trkpt lat="43.74128" lon="6.33861">
        <ele>814.37</ele>
        <time>2013-10-02T14:10:39Z</time>
      </trkpt>
      <trkpt lat="43.74126" lon="6.33877">
        <ele>813.89</ele>
        <time>2013-10-02T14:10:40Z</time>
      </trkpt>
      <trkpt lat="43.74127" lon="6.33894">
        <ele>813.89</ele>
        <time>2013-10-02T14:10:41Z</time>
      </trkpt>
      <trkpt lat="43.7413" lon="6.3391">
        <ele>812.45</ele>
        <time>2013-10-02T14:10:42Z</time>
      </trkpt>
      <trkpt lat="43.74135" lon="6.33926">
        <ele>810.05</ele>
        <time>2013-10-02T14:10:43Z</time>
      </trkpt>
      <trkpt lat="43.74142" lon="6.33941">
        <ele>809.57</ele>
        <time>2013-10-02T14:10:44Z</time>
      </trkpt>
      <trkpt lat="43.74149" lon="6.33955">
        <ele>809.09</ele>
        <time>2013-10-02T14:10:45Z</time>
      </trkpt>
      <trkpt lat="43.74169" lon="6.33998">
        <ele>807.64</ele>
        <time>2013-10-02T14:10:48Z</time>
      </trkpt>
      <trkpt lat="43.74173" lon="6.34014">
        <ele>806.68</ele>
        <time>2013-10-02T14:10:49Z</time>
      </trkpt>
      <trkpt lat="43.74176" lon="6.34029">
        <ele>806.2</ele>
        <time>2013-10-02T14:10:50Z</time>
      </trkpt>
      <trkpt lat="43.74176" lon="6.34043">
        <ele>806.68</ele>
        <time>2013-10-02T14:10:51Z</time>
      </trkpt>
      <trkpt lat="43.74173" lon="6.34056">
        <ele>806.68</ele>
        <time>2013-10-02T14:10:52Z</time>
      </trkpt>
      <trkpt lat="43.74168" lon="6.34066">
        <ele>807.64</ele>
        <time>2013-10-02T14:10:53Z</time>
      </trkpt>
      <trkpt lat="43.74161" lon="6.34074">
        <ele>808.13</ele>
        <time>2013-10-02T14:10:54Z</time>
      </trkpt>
      <trkpt lat="43.74154" lon="6.3408">
        <ele>808.13</ele>
        <time>2013-10-02T14:10:55Z</time>
      </trkpt>
      <trkpt lat="43.74147" lon="6.34084">
        <ele>809.57</ele>
        <time>2013-10-02T14:10:56Z</time>
      </trkpt>
      <trkpt lat="43.74141" lon="6.34087">
        <ele>809.09</ele>
        <time>2013-10-02T14:10:57Z</time>
      </trkpt>
      <trkpt lat="43.74135" lon="6.3409">
        <ele>809.09</ele>
        <time>2013-10-02T14:10:58Z</time>
      </trkpt>
      <trkpt lat="43.74128" lon="6.34092">
        <ele>809.57</ele>
        <time>2013-10-02T14:10:59Z</time>
      </trkpt>
      <trkpt lat="43.74123" lon="6.34093">
        <ele>810.53</ele>
        <time>2013-10-02T14:11:00Z</time>
      </trkpt>
      <trkpt lat="43.74117" lon="6.34093">
        <ele>810.53</ele>
        <time>2013-10-02T14:11:01Z</time>
      </trkpt>
      <trkpt lat="43.74111" lon="6.34093">
        <ele>811.01</ele>
        <time>2013-10-02T14:11:02Z</time>
      </trkpt>
      <trkpt lat="43.74106" lon="6.34093">
        <ele>810.53</ele>
        <time>2013-10-02T14:11:03Z</time>
      </trkpt>
      <trkpt lat="43.74042" lon="6.3409">
        <ele>811.97</ele>
        <time>2013-10-02T14:11:15Z</time>
      </trkpt>
      <trkpt lat="43.73951" lon="6.34086">
        <ele>810.05</ele>
        <time>2013-10-02T14:11:30Z</time>
      </trkpt>
      <trkpt lat="43.73944" lon="6.34088">
        <ele>810.05</ele>
        <time>2013-10-02T14:11:31Z</time>
      </trkpt>
      <trkpt lat="43.73938" lon="6.3409">
        <ele>810.05</ele>
        <time>2013-10-02T14:11:32Z</time>
      </trkpt>
      <trkpt lat="43.73932" lon="6.34094">
        <ele>810.05</ele>
        <time>2013-10-02T14:11:33Z</time>
      </trkpt>
      <trkpt lat="43.73926" lon="6.341">
        <ele>809.57</ele>
        <time>2013-10-02T14:11:34Z</time>
      </trkpt>
      <trkpt lat="43.73921" lon="6.34106">
        <ele>810.05</ele>
        <time>2013-10-02T14:11:35Z</time>
      </trkpt>
      <trkpt lat="43.73916" lon="6.34113">
        <ele>810.05</ele>
        <time>2013-10-02T14:11:36Z</time>
      </trkpt>
      <trkpt lat="43.73912" lon="6.34121">
        <ele>809.57</ele>
        <time>2013-10-02T14:11:37Z</time>
      </trkpt>
      <trkpt lat="43.73909" lon="6.3413">
        <ele>809.57</ele>
        <time>2013-10-02T14:11:38Z</time>
      </trkpt>
      <trkpt lat="43.73878" lon="6.34196">
        <ele>806.68</ele>
        <time>2013-10-02T14:11:45Z</time>
      </trkpt>
      <trkpt lat="43.73874" lon="6.34207">
        <ele>806.2</ele>
        <time>2013-10-02T14:11:46Z</time>
      </trkpt>
      <trkpt lat="43.73871" lon="6.34219">
        <ele>805.72</ele>
        <time>2013-10-02T14:11:47Z</time>
      </trkpt>
      <trkpt lat="43.73855" lon="6.34282">
        <ele>802.84</ele>
        <time>2013-10-02T14:11:52Z</time>
      </trkpt>
      <trkpt lat="43.73846" lon="6.34305">
        <ele>801.4</ele>
        <time>2013-10-02T14:11:54Z</time>
      </trkpt>
      <trkpt lat="43.73809" lon="6.34373">
        <ele>798.03</ele>
        <time>2013-10-02T14:12:00Z</time>
      </trkpt>
      <trkpt lat="43.73795" lon="6.34397">
        <ele>796.59</ele>
        <time>2013-10-02T14:12:02Z</time>
      </trkpt>
      <trkpt lat="43.7379" lon="6.3441">
        <ele>796.11</ele>
        <time>2013-10-02T14:12:03Z</time>
      </trkpt>
      <trkpt lat="43.73785" lon="6.34424">
        <ele>796.11</ele>
        <time>2013-10-02T14:12:04Z</time>
      </trkpt>
      <trkpt lat="43.73779" lon="6.34451">
        <ele>794.67</ele>
        <time>2013-10-02T14:12:06Z</time>
      </trkpt>
      <trkpt lat="43.73774" lon="6.34462">
        <ele>794.67</ele>
        <time>2013-10-02T14:12:07Z</time>
      </trkpt>
      <trkpt lat="43.73768" lon="6.3447">
        <ele>795.63</ele>
        <time>2013-10-02T14:12:08Z</time>
      </trkpt>
      <trkpt lat="43.73755" lon="6.34483">
        <ele>797.07</ele>
        <time>2013-10-02T14:12:10Z</time>
      </trkpt>
      <trkpt lat="43.7375" lon="6.34488">
        <ele>797.07</ele>
        <time>2013-10-02T14:12:11Z</time>
      </trkpt>
      <trkpt lat="43.73733" lon="6.34507">
        <ele>799.47</ele>
        <time>2013-10-02T14:12:15Z</time>
      </trkpt>
      <trkpt lat="43.73712" lon="6.34536">
        <ele>802.36</ele>
        <time>2013-10-02T14:12:24Z</time>
      </trkpt>
      <trkpt lat="43.7371" lon="6.34569">
        <ele>803.8</ele>
        <time>2013-10-02T14:12:32Z</time>
      </trkpt>
      <trkpt lat="43.73708" lon="6.34617">
        <ele>806.2</ele>
        <time>2013-10-02T14:12:44Z</time>
      </trkpt>
      <trkpt lat="43.73688" lon="6.34662">
        <ele>808.61</ele>
        <time>2013-10-02T14:12:57Z</time>
      </trkpt>
      <trkpt lat="43.73676" lon="6.34705">
        <ele>810.53</ele>
        <time>2013-10-02T14:13:09Z</time>
      </trkpt>
      <trkpt lat="43.73669" lon="6.34742">
        <ele>813.41</ele>
        <time>2013-10-02T14:13:20Z</time>
      </trkpt>
      <trkpt lat="43.73656" lon="6.34771">
        <ele>814.85</ele>
        <time>2013-10-02T14:13:30Z</time>
      </trkpt>
      <trkpt lat="43.73643" lon="6.348">
        <ele>817.26</ele>
        <time>2013-10-02T14:13:40Z</time>
      </trkpt>
      <trkpt lat="43.73634" lon="6.34847">
        <ele>820.62</ele>
        <time>2013-10-02T14:13:54Z</time>
      </trkpt>
      <trkpt lat="43.73623" lon="6.34884">
        <ele>821.58</ele>
        <time>2013-10-02T14:14:05Z</time>
      </trkpt>
      <trkpt lat="43.73602" lon="6.34926">
        <ele>823.99</ele>
        <time>2013-10-02T14:14:17Z</time>
      </trkpt>
      <trkpt lat="43.73572" lon="6.34978">
        <ele>825.91</ele>
        <time>2013-10-02T14:14:32Z</time>
      </trkpt>
      <trkpt lat="43.73548" lon="6.35029">
        <ele>828.31</ele>
        <time>2013-10-02T14:14:45Z</time>
      </trkpt>
      <trkpt lat="43.73512" lon="6.35087">
        <ele>830.72</ele>
        <time>2013-10-02T14:15:00Z</time>
      </trkpt>
      <trkpt lat="43.73474" lon="6.35114">
        <ele>832.64</ele>
        <time>2013-10-02T14:15:11Z</time>
      </trkpt>
      <trkpt lat="43.73422" lon="6.3515">
        <ele>834.08</ele>
        <time>2013-10-02T14:15:25Z</time>
      </trkpt>
      <trkpt lat="43.73379" lon="6.35184">
        <ele>836.48</ele>
        <time>2013-10-02T14:15:37Z</time>
      </trkpt>
      <trkpt lat="43.7333" lon="6.35224">
        <ele>838.41</ele>
        <time>2013-10-02T14:15:50Z</time>
      </trkpt>
      <trkpt lat="43.73289" lon="6.35254">
        <ele>838.89</ele>
        <time>2013-10-02T14:16:01Z</time>
      </trkpt>
      <trkpt lat="43.73229" lon="6.35284">
        <ele>841.77</ele>
        <time>2013-10-02T14:16:16Z</time>
      </trkpt>
      <trkpt lat="43.73222" lon="6.3529">
        <ele>841.77</ele>
        <time>2013-10-02T14:16:18Z</time>
      </trkpt>
      <trkpt lat="43.73178" lon="6.35339">
        <ele>844.66</ele>
        <time>2013-10-02T14:16:32Z</time>
      </trkpt>
      <trkpt lat="43.73143" lon="6.35391">
        <ele>846.58</ele>
        <time>2013-10-02T14:16:45Z</time>
      </trkpt>
      <trkpt lat="43.73114" lon="6.35441">
        <ele>848.5</ele>
        <time>2013-10-02T14:16:57Z</time>
      </trkpt>
      <trkpt lat="43.73089" lon="6.35493">
        <ele>851.38</ele>
        <time>2013-10-02T14:17:10Z</time>
      </trkpt>
      <trkpt lat="43.73068" lon="6.35543">
        <ele>853.79</ele>
        <time>2013-10-02T14:17:22Z</time>
      </trkpt>
      <trkpt lat="43.73044" lon="6.35594">
        <ele>855.71</ele>
        <time>2013-10-02T14:17:35Z</time>
      </trkpt>
      <trkpt lat="43.73029" lon="6.35647">
        <ele>858.11</ele>
        <time>2013-10-02T14:17:47Z</time>
      </trkpt>
      <trkpt lat="43.73019" lon="6.35702">
        <ele>861.48</ele>
        <time>2013-10-02T14:17:59Z</time>
      </trkpt>
      <trkpt lat="43.73026" lon="6.35742">
        <ele>861.96</ele>
        <time>2013-10-02T14:18:08Z</time>
      </trkpt>
      <trkpt lat="43.73028" lon="6.35796">
        <ele>863.88</ele>
        <time>2013-10-02T14:18:19Z</time>
      </trkpt>
      <trkpt lat="43.73023" lon="6.35868">
        <ele>865.32</ele>
        <time>2013-10-02T14:18:33Z</time>
      </trkpt>
      <trkpt lat="43.73019" lon="6.35933">
        <ele>867.73</ele>
        <time>2013-10-02T14:18:46Z</time>
      </trkpt>
      <trkpt lat="43.73015" lon="6.35998">
        <ele>870.61</ele>
        <time>2013-10-02T14:19:00Z</time>
      </trkpt>
      <trkpt lat="43.73008" lon="6.36052">
        <ele>872.53</ele>
        <time>2013-10-02T14:19:12Z</time>
      </trkpt>
      <trkpt lat="43.7299" lon="6.36107">
        <ele>874.46</ele>
        <time>2013-10-02T14:19:25Z</time>
      </trkpt>
      <trkpt lat="43.72966" lon="6.36154">
        <ele>877.34</ele>
        <time>2013-10-02T14:19:37Z</time>
      </trkpt>
      <trkpt lat="43.72939" lon="6.36188">
        <ele>879.74</ele>
        <time>2013-10-02T14:19:48Z</time>
      </trkpt>
      <trkpt lat="43.72904" lon="6.36233">
        <ele>882.15</ele>
        <time>2013-10-02T14:20:02Z</time>
      </trkpt>
      <trkpt lat="43.72875" lon="6.36272">
        <ele>884.07</ele>
        <time>2013-10-02T14:20:14Z</time>
      </trkpt>
      <trkpt lat="43.72844" lon="6.36316">
        <ele>887.43</ele>
        <time>2013-10-02T14:20:27Z</time>
      </trkpt>
      <trkpt lat="43.72818" lon="6.3635">
        <ele>889.36</ele>
        <time>2013-10-02T14:20:38Z</time>
      </trkpt>
      <trkpt lat="43.7279" lon="6.3639">
        <ele>891.76</ele>
        <time>2013-10-02T14:20:50Z</time>
      </trkpt>
      <trkpt lat="43.72761" lon="6.3643">
        <ele>893.2</ele>
        <time>2013-10-02T14:21:02Z</time>
      </trkpt>
      <trkpt lat="43.72748" lon="6.36473">
        <ele>895.61</ele>
        <time>2013-10-02T14:21:12Z</time>
      </trkpt>
      <trkpt lat="43.72765" lon="6.36504">
        <ele>897.05</ele>
        <time>2013-10-02T14:21:21Z</time>
      </trkpt>
      <trkpt lat="43.72792" lon="6.36495">
        <ele>898.97</ele>
        <time>2013-10-02T14:21:29Z</time>
      </trkpt>
      <trkpt lat="43.72829" lon="6.36463">
        <ele>899.93</ele>
        <time>2013-10-02T14:21:42Z</time>
      </trkpt>
      <trkpt lat="43.72872" lon="6.36457">
        <ele>903.3</ele>
        <time>2013-10-02T14:21:54Z</time>
      </trkpt>
      <trkpt lat="43.72918" lon="6.36457">
        <ele>905.7</ele>
        <time>2013-10-02T14:22:07Z</time>
      </trkpt>
      <trkpt lat="43.72963" lon="6.36449">
        <ele>908.1</ele>
        <time>2013-10-02T14:22:20Z</time>
      </trkpt>
      <trkpt lat="43.73006" lon="6.36442">
        <ele>910.03</ele>
        <time>2013-10-02T14:22:32Z</time>
      </trkpt>
      <trkpt lat="43.7305" lon="6.36437">
        <ele>913.39</ele>
        <time>2013-10-02T14:22:45Z</time>
      </trkpt>
      <trkpt lat="43.73081" lon="6.3643">
        <ele>914.83</ele>
        <time>2013-10-02T14:22:55Z</time>
      </trkpt>
      <trkpt lat="43.73123" lon="6.36417">
        <ele>916.27</ele>
        <time>2013-10-02T14:23:07Z</time>
      </trkpt>
      <trkpt lat="43.73176" lon="6.364">
        <ele>919.64</ele>
        <time>2013-10-02T14:23:22Z</time>
      </trkpt>
      <trkpt lat="43.73228" lon="6.36383">
        <ele>922.52</ele>
        <time>2013-10-02T14:23:37Z</time>
      </trkpt>
      <trkpt lat="43.73274" lon="6.3637">
        <ele>924.93</ele>
        <time>2013-10-02T14:23:50Z</time>
      </trkpt>
      <trkpt lat="43.7331" lon="6.36364">
        <ele>927.33</ele>
        <time>2013-10-02T14:24:00Z</time>
      </trkpt>
      <trkpt lat="43.7336" lon="6.36358">
        <ele>929.73</ele>
        <time>2013-10-02T14:24:14Z</time>
      </trkpt>
      <trkpt lat="43.73407" lon="6.36355">
        <ele>932.62</ele>
        <time>2013-10-02T14:24:27Z</time>
      </trkpt>
      <trkpt lat="43.73444" lon="6.36355">
        <ele>935.5</ele>
        <time>2013-10-02T14:24:37Z</time>
      </trkpt>
      <trkpt lat="43.73465" lon="6.36351">
        <ele>936.46</ele>
        <time>2013-10-02T14:24:45Z</time>
      </trkpt>
      <trkpt lat="43.73479" lon="6.36351">
        <ele>936.94</ele>
        <time>2013-10-02T14:24:56Z</time>
      </trkpt>
      <trkpt lat="43.73479" lon="6.36351">
        <ele>936.94</ele>
        <time>2013-10-02T14:25:36Z</time>
      </trkpt>
      <trkpt lat="43.73479" lon="6.36351">
        <ele>936.94</ele>
        <time>2013-10-02T14:26:22Z</time>
      </trkpt>
      <trkpt lat="43.73479" lon="6.36351">
        <ele>936.46</ele>
        <time>2013-10-02T14:26:27Z</time>
      </trkpt>
      <trkpt lat="43.73479" lon="6.36353">
        <ele>936.94</ele>
        <time>2013-10-02T14:26:36Z</time>
      </trkpt>
      <trkpt lat="43.73479" lon="6.36353">
        <ele>937.42</ele>
        <time>2013-10-02T14:26:44Z</time>
      </trkpt>
      <trkpt lat="43.73479" lon="6.36356">
        <ele>936.46</ele>
        <time>2013-10-02T14:26:45Z</time>
      </trkpt>
      <trkpt lat="43.7348" lon="6.36358">
        <ele>935.98</ele>
        <time>2013-10-02T14:26:46Z</time>
      </trkpt>
      <trkpt lat="43.73482" lon="6.36361">
        <ele>936.46</ele>
        <time>2013-10-02T14:26:47Z</time>
      </trkpt>
      <trkpt lat="43.73484" lon="6.36364">
        <ele>936.46</ele>
        <time>2013-10-02T14:26:48Z</time>
      </trkpt>
      <trkpt lat="43.73493" lon="6.36375">
        <ele>936.46</ele>
        <time>2013-10-02T14:26:51Z</time>
      </trkpt>
      <trkpt lat="43.735" lon="6.36386">
        <ele>935.5</ele>
        <time>2013-10-02T14:26:53Z</time>
      </trkpt>
      <trkpt lat="43.73512" lon="6.36409">
        <ele>934.06</ele>
        <time>2013-10-02T14:26:56Z</time>
      </trkpt>
      <trkpt lat="43.73531" lon="6.36466">
        <ele>931.17</ele>
        <time>2013-10-02T14:27:02Z</time>
      </trkpt>
      <trkpt lat="43.73545" lon="6.36524">
        <ele>927.81</ele>
        <time>2013-10-02T14:27:07Z</time>
      </trkpt>
      <trkpt lat="43.73547" lon="6.36537">
        <ele>926.85</ele>
        <time>2013-10-02T14:27:08Z</time>
      </trkpt>
      <trkpt lat="43.7355" lon="6.36606">
        <ele>923.48</ele>
        <time>2013-10-02T14:27:15Z</time>
      </trkpt>
      <trkpt lat="43.73554" lon="6.36694">
        <ele>920.12</ele>
        <time>2013-10-02T14:27:24Z</time>
      </trkpt>
      <trkpt lat="43.73552" lon="6.36721">
        <ele>920.6</ele>
        <time>2013-10-02T14:27:27Z</time>
      </trkpt>
      <trkpt lat="43.73548" lon="6.36734">
        <ele>920.12</ele>
        <time>2013-10-02T14:27:28Z</time>
      </trkpt>
      <trkpt lat="43.73544" lon="6.36747">
        <ele>920.12</ele>
        <time>2013-10-02T14:27:29Z</time>
      </trkpt>
      <trkpt lat="43.73539" lon="6.36759">
        <ele>919.16</ele>
        <time>2013-10-02T14:27:30Z</time>
      </trkpt>
      <trkpt lat="43.73534" lon="6.3677">
        <ele>918.68</ele>
        <time>2013-10-02T14:27:31Z</time>
      </trkpt>
      <trkpt lat="43.73526" lon="6.36779">
        <ele>918.68</ele>
        <time>2013-10-02T14:27:32Z</time>
      </trkpt>
      <trkpt lat="43.73507" lon="6.3681">
        <ele>917.24</ele>
        <time>2013-10-02T14:27:35Z</time>
      </trkpt>
      <trkpt lat="43.73471" lon="6.3688">
        <ele>913.39</ele>
        <time>2013-10-02T14:27:41Z</time>
      </trkpt>
      <trkpt lat="43.73461" lon="6.36907">
        <ele>912.43</ele>
        <time>2013-10-02T14:27:43Z</time>
      </trkpt>
      <trkpt lat="43.73445" lon="6.36948">
        <ele>910.51</ele>
        <time>2013-10-02T14:27:46Z</time>
      </trkpt>
      <trkpt lat="43.73419" lon="6.37002">
        <ele>907.14</ele>
        <time>2013-10-02T14:27:50Z</time>
      </trkpt>
      <trkpt lat="43.73389" lon="6.37053">
        <ele>903.78</ele>
        <time>2013-10-02T14:27:54Z</time>
      </trkpt>
      <trkpt lat="43.73381" lon="6.37066">
        <ele>903.78</ele>
        <time>2013-10-02T14:27:55Z</time>
      </trkpt>
      <trkpt lat="43.73347" lon="6.37115">
        <ele>899.93</ele>
        <time>2013-10-02T14:27:59Z</time>
      </trkpt>
      <trkpt lat="43.73312" lon="6.3716">
        <ele>896.57</ele>
        <time>2013-10-02T14:28:03Z</time>
      </trkpt>
      <trkpt lat="43.73278" lon="6.37212">
        <ele>893.2</ele>
        <time>2013-10-02T14:28:07Z</time>
      </trkpt>
      <trkpt lat="43.73258" lon="6.37256">
        <ele>890.32</ele>
        <time>2013-10-02T14:28:10Z</time>
      </trkpt>
      <trkpt lat="43.73246" lon="6.37282">
        <ele>888.88</ele>
        <time>2013-10-02T14:28:12Z</time>
      </trkpt>
      <trkpt lat="43.73239" lon="6.37289">
        <ele>887.91</ele>
        <time>2013-10-02T14:28:13Z</time>
      </trkpt>
      <trkpt lat="43.73232" lon="6.37295">
        <ele>886.95</ele>
        <time>2013-10-02T14:28:14Z</time>
      </trkpt>
      <trkpt lat="43.73226" lon="6.373">
        <ele>886.47</ele>
        <time>2013-10-02T14:28:15Z</time>
      </trkpt>
      <trkpt lat="43.73224" lon="6.37309">
        <ele>885.99</ele>
        <time>2013-10-02T14:28:16Z</time>
      </trkpt>
      <trkpt lat="43.73226" lon="6.37319">
        <ele>886.47</ele>
        <time>2013-10-02T14:28:17Z</time>
      </trkpt>
      <trkpt lat="43.7323" lon="6.37326">
        <ele>885.03</ele>
        <time>2013-10-02T14:28:18Z</time>
      </trkpt>
      <trkpt lat="43.73237" lon="6.37328">
        <ele>885.03</ele>
        <time>2013-10-02T14:28:19Z</time>
      </trkpt>
      <trkpt lat="43.73244" lon="6.37325">
        <ele>884.07</ele>
        <time>2013-10-02T14:28:20Z</time>
      </trkpt>
      <trkpt lat="43.73249" lon="6.37317">
        <ele>883.59</ele>
        <time>2013-10-02T14:28:21Z</time>
      </trkpt>
      <trkpt lat="43.73253" lon="6.37308">
        <ele>884.07</ele>
        <time>2013-10-02T14:28:22Z</time>
      </trkpt>
      <trkpt lat="43.73256" lon="6.37299">
        <ele>884.07</ele>
        <time>2013-10-02T14:28:23Z</time>
      </trkpt>
      <trkpt lat="43.73265" lon="6.3728">
        <ele>883.11</ele>
        <time>2013-10-02T14:28:25Z</time>
      </trkpt>
      <trkpt lat="43.7327" lon="6.3727">
        <ele>883.11</ele>
        <time>2013-10-02T14:28:26Z</time>
      </trkpt>
      <trkpt lat="43.73276" lon="6.37262">
        <ele>882.15</ele>
        <time>2013-10-02T14:28:27Z</time>
      </trkpt>
      <trkpt lat="43.73323" lon="6.37216">
        <ele>879.74</ele>
        <time>2013-10-02T14:28:33Z</time>
      </trkpt>
      <trkpt lat="43.73352" lon="6.37197">
        <ele>876.38</ele>
        <time>2013-10-02T14:28:36Z</time>
      </trkpt>
      <trkpt lat="43.73362" lon="6.37191">
        <ele>876.38</ele>
        <time>2013-10-02T14:28:37Z</time>
      </trkpt>
      <trkpt lat="43.73415" lon="6.37159">
        <ele>872.53</ele>
        <time>2013-10-02T14:28:42Z</time>
      </trkpt>
      <trkpt lat="43.73461" lon="6.37135">
        <ele>870.13</ele>
        <time>2013-10-02T14:28:46Z</time>
      </trkpt>
      <trkpt lat="43.73511" lon="6.37118">
        <ele>866.77</ele>
        <time>2013-10-02T14:28:50Z</time>
      </trkpt>
      <trkpt lat="43.73586" lon="6.37103">
        <ele>864.36</ele>
        <time>2013-10-02T14:28:56Z</time>
      </trkpt>
      <trkpt lat="43.73615" lon="6.37088">
        <ele>865.8</ele>
        <time>2013-10-02T14:28:59Z</time>
      </trkpt>
      <trkpt lat="43.73701" lon="6.37052">
        <ele>868.69</ele>
        <time>2013-10-02T14:29:09Z</time>
      </trkpt>
      <trkpt lat="43.73748" lon="6.37048">
        <ele>870.13</ele>
        <time>2013-10-02T14:29:15Z</time>
      </trkpt>
      <trkpt lat="43.73805" lon="6.37057">
        <ele>872.05</ele>
        <time>2013-10-02T14:29:23Z</time>
      </trkpt>
      <trkpt lat="43.7381" lon="6.3706">
        <ele>872.05</ele>
        <time>2013-10-02T14:29:24Z</time>
      </trkpt>
      <trkpt lat="43.73816" lon="6.37063">
        <ele>871.57</ele>
        <time>2013-10-02T14:29:25Z</time>
      </trkpt>
      <trkpt lat="43.73875" lon="6.37103">
        <ele>873.98</ele>
        <time>2013-10-02T14:29:37Z</time>
      </trkpt>
      <trkpt lat="43.73917" lon="6.37132">
        <ele>875.9</ele>
        <time>2013-10-02T14:29:46Z</time>
      </trkpt>
      <trkpt lat="43.73921" lon="6.37138">
        <ele>875.9</ele>
        <time>2013-10-02T14:29:47Z</time>
      </trkpt>
      <trkpt lat="43.73923" lon="6.37144">
        <ele>875.9</ele>
        <time>2013-10-02T14:29:48Z</time>
      </trkpt>
      <trkpt lat="43.73924" lon="6.37151">
        <ele>875.9</ele>
        <time>2013-10-02T14:29:49Z</time>
      </trkpt>
      <trkpt lat="43.73925" lon="6.37159">
        <ele>875.9</ele>
        <time>2013-10-02T14:29:50Z</time>
      </trkpt>
      <trkpt lat="43.73929" lon="6.37183">
        <ele>875.9</ele>
        <time>2013-10-02T14:29:53Z</time>
      </trkpt>
      <trkpt lat="43.73929" lon="6.37191">
        <ele>875.9</ele>
        <time>2013-10-02T14:29:54Z</time>
      </trkpt>
      <trkpt lat="43.73928" lon="6.37199">
        <ele>875.9</ele>
        <time>2013-10-02T14:29:55Z</time>
      </trkpt>
      <trkpt lat="43.73927" lon="6.37207">
        <ele>875.9</ele>
        <time>2013-10-02T14:29:56Z</time>
      </trkpt>
      <trkpt lat="43.73925" lon="6.37215">
        <ele>876.38</ele>
        <time>2013-10-02T14:29:57Z</time>
      </trkpt>
      <trkpt lat="43.73924" lon="6.37223">
        <ele>876.38</ele>
        <time>2013-10-02T14:29:58Z</time>
      </trkpt>
      <trkpt lat="43.73918" lon="6.37244">
        <ele>877.34</ele>
        <time>2013-10-02T14:30:01Z</time>
      </trkpt>
      <trkpt lat="43.73914" lon="6.37249">
        <ele>876.86</ele>
        <time>2013-10-02T14:30:02Z</time>
      </trkpt>
      <trkpt lat="43.7391" lon="6.37253">
        <ele>876.86</ele>
        <time>2013-10-02T14:30:03Z</time>
      </trkpt>
      <trkpt lat="43.73903" lon="6.37261">
        <ele>878.3</ele>
        <time>2013-10-02T14:30:05Z</time>
      </trkpt>
      <trkpt lat="43.73901" lon="6.37267">
        <ele>878.3</ele>
        <time>2013-10-02T14:30:06Z</time>
      </trkpt>
      <trkpt lat="43.73901" lon="6.37275">
        <ele>878.3</ele>
        <time>2013-10-02T14:30:07Z</time>
      </trkpt>
      <trkpt lat="43.73903" lon="6.37282">
        <ele>878.3</ele>
        <time>2013-10-02T14:30:08Z</time>
      </trkpt>
      <trkpt lat="43.73907" lon="6.37287">
        <ele>878.3</ele>
        <time>2013-10-02T14:30:09Z</time>
      </trkpt>
      <trkpt lat="43.73913" lon="6.3729">
        <ele>878.78</ele>
        <time>2013-10-02T14:30:10Z</time>
      </trkpt>
      <trkpt lat="43.73919" lon="6.37291">
        <ele>878.78</ele>
        <time>2013-10-02T14:30:11Z</time>
      </trkpt>
      <trkpt lat="43.73925" lon="6.37292">
        <ele>878.78</ele>
        <time>2013-10-02T14:30:12Z</time>
      </trkpt>
      <trkpt lat="43.7393" lon="6.37293">
        <ele>878.78</ele>
        <time>2013-10-02T14:30:13Z</time>
      </trkpt>
      <trkpt lat="43.73936" lon="6.37295">
        <ele>879.26</ele>
        <time>2013-10-02T14:30:14Z</time>
      </trkpt>
      <trkpt lat="43.73975" lon="6.37311">
        <ele>878.78</ele>
        <time>2013-10-02T14:30:21Z</time>
      </trkpt>
      <trkpt lat="43.73981" lon="6.37315">
        <ele>879.26</ele>
        <time>2013-10-02T14:30:22Z</time>
      </trkpt>
      <trkpt lat="43.73991" lon="6.37322">
        <ele>878.78</ele>
        <time>2013-10-02T14:30:24Z</time>
      </trkpt>
      <trkpt lat="43.73997" lon="6.37324">
        <ele>877.82</ele>
        <time>2013-10-02T14:30:25Z</time>
      </trkpt>
      <trkpt lat="43.74003" lon="6.37325">
        <ele>877.82</ele>
        <time>2013-10-02T14:30:26Z</time>
      </trkpt>
      <trkpt lat="43.74016" lon="6.37326">
        <ele>877.34</ele>
        <time>2013-10-02T14:30:28Z</time>
      </trkpt>
      <trkpt lat="43.7402" lon="6.37332">
        <ele>876.86</ele>
        <time>2013-10-02T14:30:29Z</time>
      </trkpt>
      <trkpt lat="43.74023" lon="6.3734">
        <ele>875.9</ele>
        <time>2013-10-02T14:30:30Z</time>
      </trkpt>
      <trkpt lat="43.74021" lon="6.37349">
        <ele>876.38</ele>
        <time>2013-10-02T14:30:31Z</time>
      </trkpt>
      <trkpt lat="43.74017" lon="6.37354">
        <ele>874.94</ele>
        <time>2013-10-02T14:30:32Z</time>
      </trkpt>
      <trkpt lat="43.7401" lon="6.37359">
        <ele>874.94</ele>
        <time>2013-10-02T14:30:33Z</time>
      </trkpt>
      <trkpt lat="43.74003" lon="6.37364">
        <ele>873.98</ele>
        <time>2013-10-02T14:30:34Z</time>
      </trkpt>
      <trkpt lat="43.73996" lon="6.3737">
        <ele>873.98</ele>
        <time>2013-10-02T14:30:35Z</time>
      </trkpt>
      <trkpt lat="43.73988" lon="6.37378">
        <ele>873.5</ele>
        <time>2013-10-02T14:30:36Z</time>
      </trkpt>
      <trkpt lat="43.73956" lon="6.37414">
        <ele>870.13</ele>
        <time>2013-10-02T14:30:40Z</time>
      </trkpt>
      <trkpt lat="43.73931" lon="6.37446">
        <ele>866.77</ele>
        <time>2013-10-02T14:30:43Z</time>
      </trkpt>
      <trkpt lat="43.73921" lon="6.37457">
        <ele>866.29</ele>
        <time>2013-10-02T14:30:44Z</time>
      </trkpt>
      <trkpt lat="43.73903" lon="6.3748">
        <ele>863.4</ele>
        <time>2013-10-02T14:30:46Z</time>
      </trkpt>
      <trkpt lat="43.73871" lon="6.37513">
        <ele>859.56</ele>
        <time>2013-10-02T14:30:49Z</time>
      </trkpt>
      <trkpt lat="43.73822" lon="6.3755">
        <ele>855.23</ele>
        <time>2013-10-02T14:30:53Z</time>
      </trkpt>
      <trkpt lat="43.73798" lon="6.37567">
        <ele>852.83</ele>
        <time>2013-10-02T14:30:55Z</time>
      </trkpt>
      <trkpt lat="43.73787" lon="6.37577">
        <ele>851.87</ele>
        <time>2013-10-02T14:30:56Z</time>
      </trkpt>
      <trkpt lat="43.73779" lon="6.37591">
        <ele>850.42</ele>
        <time>2013-10-02T14:30:57Z</time>
      </trkpt>
      <trkpt lat="43.73772" lon="6.37607">
        <ele>848.98</ele>
        <time>2013-10-02T14:30:58Z</time>
      </trkpt>
      <trkpt lat="43.73767" lon="6.37624">
        <ele>848.02</ele>
        <time>2013-10-02T14:30:59Z</time>
      </trkpt>
      <trkpt lat="43.73761" lon="6.3764">
        <ele>848.02</ele>
        <time>2013-10-02T14:31:00Z</time>
      </trkpt>
      <trkpt lat="43.73753" lon="6.37654">
        <ele>846.1</ele>
        <time>2013-10-02T14:31:01Z</time>
      </trkpt>
      <trkpt lat="43.73742" lon="6.37665">
        <ele>845.62</ele>
        <time>2013-10-02T14:31:02Z</time>
      </trkpt>
      <trkpt lat="43.7373" lon="6.37674">
        <ele>844.66</ele>
        <time>2013-10-02T14:31:03Z</time>
      </trkpt>
      <trkpt lat="43.73717" lon="6.3768">
        <ele>843.69</ele>
        <time>2013-10-02T14:31:04Z</time>
      </trkpt>
      <trkpt lat="43.73705" lon="6.37686">
        <ele>842.25</ele>
        <time>2013-10-02T14:31:05Z</time>
      </trkpt>
      <trkpt lat="43.73681" lon="6.37695">
        <ele>838.89</ele>
        <time>2013-10-02T14:31:07Z</time>
      </trkpt>
      <trkpt lat="43.73671" lon="6.37698">
        <ele>837.93</ele>
        <time>2013-10-02T14:31:08Z</time>
      </trkpt>
      <trkpt lat="43.73659" lon="6.37697">
        <ele>836.96</ele>
        <time>2013-10-02T14:31:09Z</time>
      </trkpt>
      <trkpt lat="43.73634" lon="6.37693">
        <ele>834.08</ele>
        <time>2013-10-02T14:31:11Z</time>
      </trkpt>
      <trkpt lat="43.73608" lon="6.37692">
        <ele>832.16</ele>
        <time>2013-10-02T14:31:13Z</time>
      </trkpt>
      <trkpt lat="43.73566" lon="6.3769">
        <ele>827.83</ele>
        <time>2013-10-02T14:31:16Z</time>
      </trkpt>
      <trkpt lat="43.73524" lon="6.37695">
        <ele>823.99</ele>
        <time>2013-10-02T14:31:19Z</time>
      </trkpt>
      <trkpt lat="43.73483" lon="6.377">
        <ele>821.1</ele>
        <time>2013-10-02T14:31:22Z</time>
      </trkpt>
      <trkpt lat="43.7347" lon="6.37697">
        <ele>819.66</ele>
        <time>2013-10-02T14:31:23Z</time>
      </trkpt>
      <trkpt lat="43.7343" lon="6.37686">
        <ele>816.3</ele>
        <time>2013-10-02T14:31:26Z</time>
      </trkpt>
      <trkpt lat="43.73392" lon="6.37673">
        <ele>812.93</ele>
        <time>2013-10-02T14:31:29Z</time>
      </trkpt>
      <trkpt lat="43.7338" lon="6.37664">
        <ele>811.49</ele>
        <time>2013-10-02T14:31:30Z</time>
      </trkpt>
      <trkpt lat="43.73369" lon="6.37654">
        <ele>810.05</ele>
        <time>2013-10-02T14:31:31Z</time>
      </trkpt>
      <trkpt lat="43.7336" lon="6.37641">
        <ele>809.09</ele>
        <time>2013-10-02T14:31:32Z</time>
      </trkpt>
      <trkpt lat="43.73353" lon="6.3763">
        <ele>807.16</ele>
        <time>2013-10-02T14:31:33Z</time>
      </trkpt>
      <trkpt lat="43.73345" lon="6.37621">
        <ele>805.72</ele>
        <time>2013-10-02T14:31:34Z</time>
      </trkpt>
      <trkpt lat="43.73336" lon="6.37616">
        <ele>804.76</ele>
        <time>2013-10-02T14:31:35Z</time>
      </trkpt>
      <trkpt lat="43.73326" lon="6.37615">
        <ele>804.28</ele>
        <time>2013-10-02T14:31:36Z</time>
      </trkpt>
      <trkpt lat="43.73315" lon="6.37618">
        <ele>802.36</ele>
        <time>2013-10-02T14:31:37Z</time>
      </trkpt>
      <trkpt lat="43.73306" lon="6.37625">
        <ele>802.84</ele>
        <time>2013-10-02T14:31:38Z</time>
      </trkpt>
      <trkpt lat="43.73299" lon="6.37635">
        <ele>802.84</ele>
        <time>2013-10-02T14:31:39Z</time>
      </trkpt>
      <trkpt lat="43.73294" lon="6.37648">
        <ele>801.88</ele>
        <time>2013-10-02T14:31:40Z</time>
      </trkpt>
      <trkpt lat="43.7329" lon="6.37661">
        <ele>800.92</ele>
        <time>2013-10-02T14:31:41Z</time>
      </trkpt>
      <trkpt lat="43.73285" lon="6.37674">
        <ele>800.92</ele>
        <time>2013-10-02T14:31:42Z</time>
      </trkpt>
      <trkpt lat="43.73279" lon="6.37685">
        <ele>800.44</ele>
        <time>2013-10-02T14:31:43Z</time>
      </trkpt>
      <trkpt lat="43.73272" lon="6.37696">
        <ele>799.95</ele>
        <time>2013-10-02T14:31:44Z</time>
      </trkpt>
      <trkpt lat="43.73268" lon="6.37707">
        <ele>798.99</ele>
        <time>2013-10-02T14:31:45Z</time>
      </trkpt>
      <trkpt lat="43.73266" lon="6.37721">
        <ele>798.99</ele>
        <time>2013-10-02T14:31:46Z</time>
      </trkpt>
      <trkpt lat="43.73267" lon="6.37734">
        <ele>798.03</ele>
        <time>2013-10-02T14:31:47Z</time>
      </trkpt>
      <trkpt lat="43.7327" lon="6.37748">
        <ele>798.03</ele>
        <time>2013-10-02T14:31:48Z</time>
      </trkpt>
      <trkpt lat="43.73274" lon="6.37761">
        <ele>797.07</ele>
        <time>2013-10-02T14:31:49Z</time>
      </trkpt>
      <trkpt lat="43.73278" lon="6.37775">
        <ele>797.07</ele>
        <time>2013-10-02T14:31:50Z</time>
      </trkpt>
      <trkpt lat="43.73289" lon="6.37816">
        <ele>795.15</ele>
        <time>2013-10-02T14:31:53Z</time>
      </trkpt>
      <trkpt lat="43.73312" lon="6.37902">
        <ele>792.26</ele>
        <time>2013-10-02T14:31:59Z</time>
      </trkpt>
      <trkpt lat="43.73315" lon="6.37918">
        <ele>791.78</ele>
        <time>2013-10-02T14:32:00Z</time>
      </trkpt>
      <trkpt lat="43.73316" lon="6.37933">
        <ele>790.34</ele>
        <time>2013-10-02T14:32:01Z</time>
      </trkpt>
      <trkpt lat="43.73316" lon="6.37949">
        <ele>790.34</ele>
        <time>2013-10-02T14:32:02Z</time>
      </trkpt>
      <trkpt lat="43.73318" lon="6.38012">
        <ele>786.5</ele>
        <time>2013-10-02T14:32:06Z</time>
      </trkpt>
      <trkpt lat="43.7332" lon="6.38108">
        <ele>784.09</ele>
        <time>2013-10-02T14:32:12Z</time>
      </trkpt>
      <trkpt lat="43.73314" lon="6.3817">
        <ele>781.21</ele>
        <time>2013-10-02T14:32:16Z</time>
      </trkpt>
      <trkpt lat="43.73307" lon="6.38217">
        <ele>778.81</ele>
        <time>2013-10-02T14:32:19Z</time>
      </trkpt>
      <trkpt lat="43.73298" lon="6.3828">
        <ele>775.44</ele>
        <time>2013-10-02T14:32:23Z</time>
      </trkpt>
      <trkpt lat="43.73292" lon="6.38345">
        <ele>773.04</ele>
        <time>2013-10-02T14:32:27Z</time>
      </trkpt>
      <trkpt lat="43.73294" lon="6.38361">
        <ele>773.04</ele>
        <time>2013-10-02T14:32:28Z</time>
      </trkpt>
      <trkpt lat="43.73295" lon="6.38377">
        <ele>772.08</ele>
        <time>2013-10-02T14:32:29Z</time>
      </trkpt>
      <trkpt lat="43.73302" lon="6.38443">
        <ele>769.19</ele>
        <time>2013-10-02T14:32:33Z</time>
      </trkpt>
      <trkpt lat="43.73304" lon="6.3851">
        <ele>765.83</ele>
        <time>2013-10-02T14:32:37Z</time>
      </trkpt>
      <trkpt lat="43.73302" lon="6.38526">
        <ele>765.83</ele>
        <time>2013-10-02T14:32:38Z</time>
      </trkpt>
      <trkpt lat="43.73298" lon="6.38559">
        <ele>763.9</ele>
        <time>2013-10-02T14:32:40Z</time>
      </trkpt>
      <trkpt lat="43.73298" lon="6.38575">
        <ele>762.94</ele>
        <time>2013-10-02T14:32:41Z</time>
      </trkpt>
      <trkpt lat="43.73298" lon="6.38659">
        <ele>759.58</ele>
        <time>2013-10-02T14:32:46Z</time>
      </trkpt>
      <trkpt lat="43.73298" lon="6.38692">
        <ele>758.14</ele>
        <time>2013-10-02T14:32:48Z</time>
      </trkpt>
      <trkpt lat="43.73297" lon="6.38708">
        <ele>758.14</ele>
        <time>2013-10-02T14:32:49Z</time>
      </trkpt>
      <trkpt lat="43.73294" lon="6.38721">
        <ele>757.18</ele>
        <time>2013-10-02T14:32:50Z</time>
      </trkpt>
      <trkpt lat="43.73287" lon="6.38731">
        <ele>756.21</ele>
        <time>2013-10-02T14:32:51Z</time>
      </trkpt>
      <trkpt lat="43.73279" lon="6.38738">
        <ele>756.21</ele>
        <time>2013-10-02T14:32:52Z</time>
      </trkpt>
      <trkpt lat="43.7327" lon="6.3874">
        <ele>756.21</ele>
        <time>2013-10-02T14:32:53Z</time>
      </trkpt>
      <trkpt lat="43.73261" lon="6.38739">
        <ele>754.77</ele>
        <time>2013-10-02T14:32:54Z</time>
      </trkpt>
      <trkpt lat="43.73251" lon="6.38737">
        <ele>753.81</ele>
        <time>2013-10-02T14:32:55Z</time>
      </trkpt>
      <trkpt lat="43.73211" lon="6.3873">
        <ele>749.97</ele>
        <time>2013-10-02T14:32:59Z</time>
      </trkpt>
      <trkpt lat="43.73201" lon="6.3873">
        <ele>749.49</ele>
        <time>2013-10-02T14:33:00Z</time>
      </trkpt>
      <trkpt lat="43.7319" lon="6.38732">
        <ele>748.04</ele>
        <time>2013-10-02T14:33:01Z</time>
      </trkpt>
      <trkpt lat="43.73179" lon="6.38737">
        <ele>747.56</ele>
        <time>2013-10-02T14:33:02Z</time>
      </trkpt>
      <trkpt lat="43.73169" lon="6.38741">
        <ele>747.08</ele>
        <time>2013-10-02T14:33:03Z</time>
      </trkpt>
      <trkpt lat="43.7316" lon="6.38742">
        <ele>745.64</ele>
        <time>2013-10-02T14:33:04Z</time>
      </trkpt>
      <trkpt lat="43.73151" lon="6.38738">
        <ele>744.68</ele>
        <time>2013-10-02T14:33:05Z</time>
      </trkpt>
      <trkpt lat="43.73143" lon="6.38731">
        <ele>744.2</ele>
        <time>2013-10-02T14:33:06Z</time>
      </trkpt>
      <trkpt lat="43.73136" lon="6.38721">
        <ele>742.76</ele>
        <time>2013-10-02T14:33:07Z</time>
      </trkpt>
      <trkpt lat="43.73129" lon="6.38711">
        <ele>741.31</ele>
        <time>2013-10-02T14:33:08Z</time>
      </trkpt>
      <trkpt lat="43.73121" lon="6.38704">
        <ele>741.31</ele>
        <time>2013-10-02T14:33:09Z</time>
      </trkpt>
      <trkpt lat="43.73113" lon="6.38699">
        <ele>741.31</ele>
        <time>2013-10-02T14:33:10Z</time>
      </trkpt>
      <trkpt lat="43.731" lon="6.38693">
        <ele>740.35</ele>
        <time>2013-10-02T14:33:12Z</time>
      </trkpt>
      <trkpt lat="43.73097" lon="6.3869">
        <ele>739.87</ele>
        <time>2013-10-02T14:33:13Z</time>
      </trkpt>
      <trkpt lat="43.73095" lon="6.38687">
        <ele>740.35</ele>
        <time>2013-10-02T14:33:14Z</time>
      </trkpt>
      <trkpt lat="43.73092" lon="6.38685">
        <ele>740.35</ele>
        <time>2013-10-02T14:33:21Z</time>
      </trkpt>
      <trkpt lat="43.73092" lon="6.38684">
        <ele>740.35</ele>
        <time>2013-10-02T14:33:38Z</time>
      </trkpt>
      <trkpt lat="43.73093" lon="6.38684">
        <ele>740.35</ele>
        <time>2013-10-02T14:35:45Z</time>
      </trkpt>
      <trkpt lat="43.73094" lon="6.38685">
        <ele>740.83</ele>
        <time>2013-10-02T14:35:53Z</time>
      </trkpt>
      <trkpt lat="43.73098" lon="6.38684">
        <ele>739.87</ele>
        <time>2013-10-02T14:35:58Z</time>
      </trkpt>
      <trkpt lat="43.731" lon="6.38682">
        <ele>739.87</ele>
        <time>2013-10-02T14:35:59Z</time>
      </trkpt>
      <trkpt lat="43.73101" lon="6.38679">
        <ele>739.87</ele>
        <time>2013-10-02T14:36:00Z</time>
      </trkpt>
      <trkpt lat="43.73101" lon="6.38675">
        <ele>739.87</ele>
        <time>2013-10-02T14:36:01Z</time>
      </trkpt>
      <trkpt lat="43.73099" lon="6.38673">
        <ele>740.35</ele>
        <time>2013-10-02T14:36:02Z</time>
      </trkpt>
      <trkpt lat="43.73097" lon="6.3867">
        <ele>740.83</ele>
        <time>2013-10-02T14:36:03Z</time>
      </trkpt>
      <trkpt lat="43.73073" lon="6.38651">
        <ele>741.79</ele>
        <time>2013-10-02T14:36:11Z</time>
      </trkpt>
      <trkpt lat="43.73051" lon="6.38665">
        <ele>742.76</ele>
        <time>2013-10-02T14:36:19Z</time>
      </trkpt>
      <trkpt lat="43.73038" lon="6.38684">
        <ele>741.31</ele>
        <time>2013-10-02T14:36:29Z</time>
      </trkpt>
      <trkpt lat="43.73031" lon="6.38694">
        <ele>741.79</ele>
        <time>2013-10-02T14:36:38Z</time>
      </trkpt>
      <trkpt lat="43.73027" lon="6.38704">
        <ele>741.31</ele>
        <time>2013-10-02T14:36:43Z</time>
      </trkpt>
      <trkpt lat="43.73028" lon="6.38706">
        <ele>741.79</ele>
        <time>2013-10-02T14:36:44Z</time>
      </trkpt>
      <trkpt lat="43.73028" lon="6.38708">
        <ele>741.79</ele>
        <time>2013-10-02T14:36:45Z</time>
      </trkpt>
      <trkpt lat="43.73028" lon="6.38711">
        <ele>741.79</ele>
        <time>2013-10-02T14:36:51Z</time>
      </trkpt>
      <trkpt lat="43.73028" lon="6.38711">
        <ele>741.79</ele>
        <time>2013-10-02T14:39:34Z</time>
      </trkpt>
      <trkpt lat="43.73026" lon="6.38711">
        <ele>741.79</ele>
        <time>2013-10-02T14:41:14Z</time>
      </trkpt>
      <trkpt lat="43.73023" lon="6.38706">
        <ele>741.79</ele>
        <time>2013-10-02T14:41:25Z</time>
      </trkpt>
      <trkpt lat="43.73022" lon="6.38707">
        <ele>741.79</ele>
        <time>2013-10-02T14:41:53Z</time>
      </trkpt>
      <trkpt lat="43.73015" lon="6.3872">
        <ele>742.28</ele>
        <time>2013-10-02T14:41:59Z</time>
      </trkpt>
      <trkpt lat="43.72983" lon="6.38771">
        <ele>742.76</ele>
        <time>2013-10-02T14:42:12Z</time>
      </trkpt>
      <trkpt lat="43.72975" lon="6.38786">
        <ele>742.76</ele>
        <time>2013-10-02T14:42:15Z</time>
      </trkpt>
      <trkpt lat="43.72972" lon="6.38791">
        <ele>742.76</ele>
        <time>2013-10-02T14:42:16Z</time>
      </trkpt>
      <trkpt lat="43.72971" lon="6.38797">
        <ele>743.24</ele>
        <time>2013-10-02T14:42:17Z</time>
      </trkpt>
      <trkpt lat="43.72968" lon="6.38814">
        <ele>743.72</ele>
        <time>2013-10-02T14:42:20Z</time>
      </trkpt>
      <trkpt lat="43.72967" lon="6.38819">
        <ele>743.24</ele>
        <time>2013-10-02T14:42:21Z</time>
      </trkpt>
      <trkpt lat="43.72967" lon="6.38825">
        <ele>743.72</ele>
        <time>2013-10-02T14:42:22Z</time>
      </trkpt>
      <trkpt lat="43.72968" lon="6.3883">
        <ele>743.24</ele>
        <time>2013-10-02T14:42:23Z</time>
      </trkpt>
      <trkpt lat="43.72968" lon="6.38836">
        <ele>743.72</ele>
        <time>2013-10-02T14:42:24Z</time>
      </trkpt>
      <trkpt lat="43.72969" lon="6.3884">
        <ele>743.72</ele>
        <time>2013-10-02T14:42:25Z</time>
      </trkpt>
      <trkpt lat="43.72971" lon="6.38845">
        <ele>744.2</ele>
        <time>2013-10-02T14:42:26Z</time>
      </trkpt>
      <trkpt lat="43.7299" lon="6.38885">
        <ele>746.12</ele>
        <time>2013-10-02T14:42:37Z</time>
      </trkpt>
      <trkpt lat="43.7301" lon="6.38911">
        <ele>748.52</ele>
        <time>2013-10-02T14:42:47Z</time>
      </trkpt>
      <trkpt lat="43.73032" lon="6.38929">
        <ele>750.93</ele>
        <time>2013-10-02T14:42:57Z</time>
      </trkpt>
      <trkpt lat="43.73051" lon="6.38942">
        <ele>751.89</ele>
        <time>2013-10-02T14:43:06Z</time>
      </trkpt>
      <trkpt lat="43.73074" lon="6.38959">
        <ele>754.29</ele>
        <time>2013-10-02T14:43:18Z</time>
      </trkpt>
      <trkpt lat="43.73099" lon="6.38974">
        <ele>756.69</ele>
        <time>2013-10-02T14:43:30Z</time>
      </trkpt>
      <trkpt lat="43.73126" lon="6.38982">
        <ele>759.1</ele>
        <time>2013-10-02T14:43:42Z</time>
      </trkpt>
      <trkpt lat="43.7316" lon="6.38987">
        <ele>761.02</ele>
        <time>2013-10-02T14:43:56Z</time>
      </trkpt>
      <trkpt lat="43.73192" lon="6.38997">
        <ele>763.9</ele>
        <time>2013-10-02T14:44:09Z</time>
      </trkpt>
      <trkpt lat="43.73211" lon="6.39024">
        <ele>766.31</ele>
        <time>2013-10-02T14:44:20Z</time>
      </trkpt>
      <trkpt lat="43.73221" lon="6.39063">
        <ele>767.75</ele>
        <time>2013-10-02T14:44:32Z</time>
      </trkpt>
      <trkpt lat="43.73238" lon="6.39098">
        <ele>770.15</ele>
        <time>2013-10-02T14:44:44Z</time>
      </trkpt>
      <trkpt lat="43.73267" lon="6.39127">
        <ele>772.08</ele>
        <time>2013-10-02T14:44:57Z</time>
      </trkpt>
      <trkpt lat="43.73303" lon="6.3916">
        <ele>774.48</ele>
        <time>2013-10-02T14:45:11Z</time>
      </trkpt>
      <trkpt lat="43.7333" lon="6.39186">
        <ele>777.36</ele>
        <time>2013-10-02T14:45:22Z</time>
      </trkpt>
      <trkpt lat="43.73364" lon="6.39212">
        <ele>779.77</ele>
        <time>2013-10-02T14:45:36Z</time>
      </trkpt>
      <trkpt lat="43.73394" lon="6.39241">
        <ele>782.65</ele>
        <time>2013-10-02T14:45:49Z</time>
      </trkpt>
      <trkpt lat="43.73418" lon="6.39271">
        <ele>785.53</ele>
        <time>2013-10-02T14:46:01Z</time>
      </trkpt>
      <trkpt lat="43.73432" lon="6.39309">
        <ele>787.94</ele>
        <time>2013-10-02T14:46:12Z</time>
      </trkpt>
      <trkpt lat="43.73445" lon="6.39357">
        <ele>790.82</ele>
        <time>2013-10-02T14:46:25Z</time>
      </trkpt>
      <trkpt lat="43.73466" lon="6.39374">
        <ele>792.26</ele>
        <time>2013-10-02T14:46:34Z</time>
      </trkpt>
      <trkpt lat="43.73489" lon="6.3936">
        <ele>794.67</ele>
        <time>2013-10-02T14:46:43Z</time>
      </trkpt>
      <trkpt lat="43.73509" lon="6.39324">
        <ele>796.11</ele>
        <time>2013-10-02T14:46:54Z</time>
      </trkpt>
      <trkpt lat="43.73523" lon="6.39298">
        <ele>798.03</ele>
        <time>2013-10-02T14:47:02Z</time>
      </trkpt>
      <trkpt lat="43.7354" lon="6.39268">
        <ele>800.44</ele>
        <time>2013-10-02T14:47:11Z</time>
      </trkpt>
      <trkpt lat="43.7356" lon="6.39231">
        <ele>802.36</ele>
        <time>2013-10-02T14:47:22Z</time>
      </trkpt>
      <trkpt lat="43.73583" lon="6.39186">
        <ele>803.8</ele>
        <time>2013-10-02T14:47:33Z</time>
      </trkpt>
      <trkpt lat="43.73608" lon="6.39142">
        <ele>805.24</ele>
        <time>2013-10-02T14:47:42Z</time>
      </trkpt>
      <trkpt lat="43.73611" lon="6.39137">
        <ele>804.76</ele>
        <time>2013-10-02T14:47:43Z</time>
      </trkpt>
      <trkpt lat="43.73645" lon="6.39079">
        <ele>806.2</ele>
        <time>2013-10-02T14:47:54Z</time>
      </trkpt>
      <trkpt lat="43.73648" lon="6.39073">
        <ele>805.24</ele>
        <time>2013-10-02T14:47:55Z</time>
      </trkpt>
      <trkpt lat="43.73695" lon="6.38988">
        <ele>805.24</ele>
        <time>2013-10-02T14:48:07Z</time>
      </trkpt>
      <trkpt lat="43.7375" lon="6.3889">
        <ele>806.2</ele>
        <time>2013-10-02T14:48:20Z</time>
      </trkpt>
      <trkpt lat="43.73786" lon="6.38836">
        <ele>803.32</ele>
        <time>2013-10-02T14:48:27Z</time>
      </trkpt>
      <trkpt lat="43.73793" lon="6.3883">
        <ele>802.84</ele>
        <time>2013-10-02T14:48:28Z</time>
      </trkpt>
      <trkpt lat="43.73801" lon="6.38826">
        <ele>802.84</ele>
        <time>2013-10-02T14:48:29Z</time>
      </trkpt>
      <trkpt lat="43.73853" lon="6.38804">
        <ele>801.88</ele>
        <time>2013-10-02T14:48:35Z</time>
      </trkpt>
      <trkpt lat="43.73861" lon="6.38799">
        <ele>801.88</ele>
        <time>2013-10-02T14:48:36Z</time>
      </trkpt>
      <trkpt lat="43.73868" lon="6.38792">
        <ele>801.88</ele>
        <time>2013-10-02T14:48:37Z</time>
      </trkpt>
      <trkpt lat="43.73873" lon="6.38783">
        <ele>802.36</ele>
        <time>2013-10-02T14:48:38Z</time>
      </trkpt>
      <trkpt lat="43.73877" lon="6.38774">
        <ele>802.84</ele>
        <time>2013-10-02T14:48:39Z</time>
      </trkpt>
      <trkpt lat="43.73881" lon="6.38765">
        <ele>803.8</ele>
        <time>2013-10-02T14:48:40Z</time>
      </trkpt>
      <trkpt lat="43.73884" lon="6.38756">
        <ele>803.32</ele>
        <time>2013-10-02T14:48:41Z</time>
      </trkpt>
      <trkpt lat="43.73886" lon="6.38747">
        <ele>803.8</ele>
        <time>2013-10-02T14:48:42Z</time>
      </trkpt>
      <trkpt lat="43.73886" lon="6.38738">
        <ele>803.8</ele>
        <time>2013-10-02T14:48:43Z</time>
      </trkpt>
      <trkpt lat="43.73882" lon="6.38649">
        <ele>804.76</ele>
        <time>2013-10-02T14:48:53Z</time>
      </trkpt>
      <trkpt lat="43.7388" lon="6.3864">
        <ele>804.28</ele>
        <time>2013-10-02T14:48:54Z</time>
      </trkpt>
      <trkpt lat="43.73877" lon="6.38631">
        <ele>803.8</ele>
        <time>2013-10-02T14:48:55Z</time>
      </trkpt>
      <trkpt lat="43.7384" lon="6.38548">
        <ele>800.92</ele>
        <time>2013-10-02T14:49:03Z</time>
      </trkpt>
      <trkpt lat="43.73808" lon="6.38491">
        <ele>797.55</ele>
        <time>2013-10-02T14:49:08Z</time>
      </trkpt>
      <trkpt lat="43.73801" lon="6.38479">
        <ele>797.55</ele>
        <time>2013-10-02T14:49:09Z</time>
      </trkpt>
      <trkpt lat="43.73774" lon="6.38432">
        <ele>794.67</ele>
        <time>2013-10-02T14:49:13Z</time>
      </trkpt>
      <trkpt lat="43.73754" lon="6.38396">
        <ele>793.22</ele>
        <time>2013-10-02T14:49:16Z</time>
      </trkpt>
      <trkpt lat="43.73749" lon="6.38382">
        <ele>792.26</ele>
        <time>2013-10-02T14:49:17Z</time>
      </trkpt>
      <trkpt lat="43.73747" lon="6.38368">
        <ele>792.26</ele>
        <time>2013-10-02T14:49:18Z</time>
      </trkpt>
      <trkpt lat="43.73747" lon="6.38352">
        <ele>791.78</ele>
        <time>2013-10-02T14:49:19Z</time>
      </trkpt>
      <trkpt lat="43.73748" lon="6.38337">
        <ele>790.82</ele>
        <time>2013-10-02T14:49:20Z</time>
      </trkpt>
      <trkpt lat="43.73751" lon="6.38323">
        <ele>790.34</ele>
        <time>2013-10-02T14:49:21Z</time>
      </trkpt>
      <trkpt lat="43.73756" lon="6.3831">
        <ele>790.34</ele>
        <time>2013-10-02T14:49:22Z</time>
      </trkpt>
      <trkpt lat="43.73762" lon="6.38298">
        <ele>789.38</ele>
        <time>2013-10-02T14:49:23Z</time>
      </trkpt>
      <trkpt lat="43.73768" lon="6.38287">
        <ele>789.86</ele>
        <time>2013-10-02T14:49:24Z</time>
      </trkpt>
      <trkpt lat="43.73789" lon="6.38255">
        <ele>788.9</ele>
        <time>2013-10-02T14:49:27Z</time>
      </trkpt>
      <trkpt lat="43.73797" lon="6.38245">
        <ele>788.9</ele>
        <time>2013-10-02T14:49:28Z</time>
      </trkpt>
      <trkpt lat="43.73841" lon="6.38195">
        <ele>785.05</ele>
        <time>2013-10-02T14:49:33Z</time>
      </trkpt>
      <trkpt lat="43.73876" lon="6.38154">
        <ele>783.13</ele>
        <time>2013-10-02T14:49:37Z</time>
      </trkpt>
      <trkpt lat="43.73884" lon="6.38146">
        <ele>783.61</ele>
        <time>2013-10-02T14:49:38Z</time>
      </trkpt>
      <trkpt lat="43.73893" lon="6.3814">
        <ele>783.61</ele>
        <time>2013-10-02T14:49:39Z</time>
      </trkpt>
      <trkpt lat="43.73902" lon="6.38137">
        <ele>784.09</ele>
        <time>2013-10-02T14:49:40Z</time>
      </trkpt>
      <trkpt lat="43.73912" lon="6.38136">
        <ele>784.57</ele>
        <time>2013-10-02T14:49:41Z</time>
      </trkpt>
      <trkpt lat="43.7392" lon="6.38136">
        <ele>785.53</ele>
        <time>2013-10-02T14:49:42Z</time>
      </trkpt>
      <trkpt lat="43.73928" lon="6.38138">
        <ele>786.5</ele>
        <time>2013-10-02T14:49:43Z</time>
      </trkpt>
      <trkpt lat="43.73936" lon="6.38142">
        <ele>786.5</ele>
        <time>2013-10-02T14:49:44Z</time>
      </trkpt>
      <trkpt lat="43.73942" lon="6.38145">
        <ele>787.46</ele>
        <time>2013-10-02T14:49:45Z</time>
      </trkpt>
      <trkpt lat="43.73979" lon="6.38169">
        <ele>790.34</ele>
        <time>2013-10-02T14:49:53Z</time>
      </trkpt>
      <trkpt lat="43.74008" lon="6.38192">
        <ele>792.74</ele>
        <time>2013-10-02T14:50:04Z</time>
      </trkpt>
      <trkpt lat="43.74012" lon="6.38199">
        <ele>794.19</ele>
        <time>2013-10-02T14:50:13Z</time>
      </trkpt>
      <trkpt lat="43.74012" lon="6.38199">
        <ele>790.34</ele>
        <time>2013-10-02T14:50:16Z</time>
      </trkpt>
      <trkpt lat="43.74012" lon="6.38199">
        <ele>791.3</ele>
        <time>2013-10-02T14:50:17Z</time>
      </trkpt>
    </trkseg>
  </trk>
</gpx>